
Distance (Route):
Temperature : 18.4°C
Humidity : 77.6%
Pressure : 997.6hPa| Receiver | Frames | First received | Last received |
|---|---|---|---|
| BIOWL1-15 | 828 | 2026-08-31 10:46:14 | 2026-08-31 13:19:45 |
| DO2JMG | 777 | 2026-08-31 10:59:35 | 2026-08-31 13:06:40 |
| DM0DOS-11 | 630 | 2026-08-31 10:45:41 | 2026-08-31 13:19:15 |
| DL1XH-west | 526 | 2026-08-31 11:04:18 | 2026-08-31 13:01:18 |
| HSKMA3-T | 438 | 2026-08-31 11:12:47 | 2026-08-31 13:01:15 |
| DL1XH1-15 | 407 | 2026-08-31 11:06:23 | 2026-08-31 13:01:06 |
| AA1-15 | 361 | 2026-08-31 11:23:50 | 2026-08-31 12:53:18 |
| DL1XH-15 | 334 | 2026-08-31 11:13:50 | 2026-08-31 12:57:52 |
| DL1NUX | 204 | 2026-08-31 11:22:28 | 2026-08-31 12:55:34 |
| DD8BA-10 | 149 | 2026-08-31 10:53:09 | 2026-08-31 13:03:32 |
| GOEST3-10 | 133 | 2026-08-31 11:17:11 | 2026-08-31 12:58:21 |
| DJ2DS-15 | 113 | 2026-08-31 10:55:40 | 2026-08-31 13:02:37 |
| DL3AQ-11 | 112 | 2026-08-31 10:56:54 | 2026-08-31 13:05:05 |
| DF8AY | 77 | 2026-08-31 12:05:45 | 2026-08-31 12:55:53 |
| DO9LL-15 | 72 | 2026-08-31 10:46:54 | 2026-08-31 13:02:00 |
| DH3RM | 67 | 2026-08-31 10:46:56 | 2026-08-31 11:21:26 |
| DL4BBY-15 | 59 | 2026-08-31 10:56:02 | 2026-08-31 13:02:40 |
| DD1CC1-15 | 56 | 2026-08-31 10:46:58 | 2026-08-31 13:01:42 |
| DB0UT-7 | 53 | 2026-08-31 10:51:12 | 2026-08-31 13:03:06 |
| BIOWL9-15 | 52 | 2026-08-31 10:47:01 | 2026-08-31 13:19:16 |
| DO2SHX-10 | 49 | 2026-08-31 11:40:35 | 2026-08-31 12:49:51 |
| DJ2KF-10 | 47 | 2026-08-31 10:50:52 | 2026-08-31 12:59:02 |
| DD1CC8 | 41 | 2026-08-31 10:50:55 | 2026-08-31 13:00:55 |
| DO1YAY-16 | 40 | 2026-08-31 10:51:13 | 2026-08-31 12:50:14 |
| DL8DAS-14 | 40 | 2026-08-31 10:51:15 | 2026-08-31 12:59:07 |
| DO3MHA-11 | 39 | 2026-08-31 11:41:08 | 2026-08-31 12:37:34 |
| DL4XJ-10 | 36 | 2026-08-31 11:42:07 | 2026-08-31 12:51:17 |
| DL1ZP-14 | 34 | 2026-08-31 11:03:46 | 2026-08-31 12:46:24 |
| SONCRA | 34 | 2026-08-31 11:12:37 | 2026-08-31 13:00:49 |
| DF2AP-13 | 33 | 2026-08-31 11:18:07 | 2026-08-31 12:58:41 |
| BUE01 | 32 | 2026-08-31 11:05:32 | 2026-08-31 12:59:55 |
| DD1CC3-15 | 32 | 2026-08-31 11:17:27 | 2026-08-31 13:01:08 |
| SO1NDE-10 | 32 | 2026-08-31 11:24:35 | 2026-08-31 12:46:58 |
| DB0DAN | 32 | 2026-08-31 11:29:10 | 2026-08-31 13:01:10 |
| DB0NH | 30 | 2026-08-31 11:06:41 | 2026-08-31 12:48:44 |
| DJ8HS-15 | 30 | 2026-08-31 11:34:50 | 2026-08-31 12:47:38 |
| DL8DAS-15 | 28 | 2026-08-31 10:52:08 | 2026-08-31 12:52:26 |
| DK9SH | 28 | 2026-08-31 11:22:18 | 2026-08-31 13:03:13 |
| HTAHTA | 26 | 2026-08-31 10:59:03 | 2026-08-31 12:41:32 |
| DF5WG-10 | 23 | 2026-08-31 11:19:08 | 2026-08-31 12:47:10 |
| DO3DL | 21 | 2026-08-31 12:52:57 | 2026-08-31 13:03:10 |
| DC6BW-12 | 20 | 2026-08-31 11:22:45 | 2026-08-31 12:57:09 |
| BIOWL7-15 | 19 | 2026-08-31 10:54:58 | 2026-08-31 13:18:01 |
| DB0ND-19 | 18 | 2026-08-31 11:01:51 | 2026-08-31 12:55:41 |
| DO3MHA-12 | 18 | 2026-08-31 11:51:40 | 2026-08-31 12:39:46 |
| DF7PN | 17 | 2026-08-31 11:37:13 | 2026-08-31 12:56:58 |
| DD1CC9-15 | 16 | 2026-08-31 11:41:46 | 2026-08-31 12:54:45 |
| EDDB2-11 | 16 | 2026-08-31 11:50:24 | 2026-08-31 12:52:29 |
| WPPR-10 | 14 | 2026-08-31 10:47:15 | 2026-08-31 11:10:02 |
| DJ3KS | 8 | 2026-08-31 10:57:02 | 2026-08-31 12:38:47 |
| DL1CLM-18 | 8 | 2026-08-31 11:16:33 | 2026-08-31 12:26:51 |
| SMARD9-10 | 8 | 2026-08-31 11:43:07 | 2026-08-31 12:41:49 |
| SMARD9-15 | 8 | 2026-08-31 11:51:51 | 2026-08-31 12:33:45 |
| DL8OAI-8 | 8 | 2026-08-31 12:29:10 | 2026-08-31 12:59:16 |
| DL1LOL-11 | 6 | 2026-08-31 11:39:27 | 2026-08-31 12:48:30 |
| NBG1-10 | 5 | 2026-08-31 11:21:57 | 2026-08-31 12:32:22 |
| MET0W-2 | 5 | 2026-08-31 11:49:50 | 2026-08-31 12:02:46 |
| DC4HF-4 | 4 | 2026-08-31 11:48:37 | 2026-08-31 12:01:50 |
| S3001 | 2 | 2026-08-31 12:00:57 | 2026-08-31 12:03:01 |
| DF8AY-15 | 2 | 2026-08-31 12:43:10 | 2026-08-31 12:45:36 |
| SONDE2-11 | 2 | 2026-08-31 12:48:06 | 2026-08-31 12:48:36 |
| DL3OBA | 2 | 2026-08-31 12:55:32 | 2026-08-31 12:56:34 |
| WEDDY | 1 | 2026-08-31 11:47:47 | 2026-08-31 11:47:47 |
| DO2LYB-13 | 1 | 2026-08-31 12:38:12 | 2026-08-31 12:38:12 |
| Receiver | Date | Latitude | Longitude | Direction | Speed | Altitude | Climb | Temperature | Humidity | Pressure | Voltage | Killtimer | Uptime | BKT | XDATA |
|---|---|---|---|---|---|---|---|---|---|---|---|---|---|---|---|
| BIOWL1-15 | 2026-08-31 13:19:45 | 51.95316 | 8.45420 | 131° | 0km/h | 147m | -0.1m/s | 18.4°C | 77.6% | 997.6hPa | 2.8V | 07:45:24 | 03:01:48 | 00:00:00 | |
| BIOWL1-15 | 2026-08-31 13:19:35 | 51.95316 | 8.45421 | 166° | 0km/h | 147m | 0.2m/s | 18.4°C | 79% | 997.7hPa | 2.8V | 07:45:24 | 03:01:38 | 00:00:00 | |
| BIOWL1-15 | 2026-08-31 13:19:26 | 51.95315 | 8.45421 | 315° | 0km/h | 148m | 0.1m/s | 18.4°C | 80.9% | 997.4hPa | 2.8V | 07:45:24 | 03:01:27 | 00:00:00 | |
| BIOWL9-15 | 2026-08-31 13:19:16 | 51.95315 | 8.45421 | 88° | 0km/h | 147m | 0.1m/s | 18.6°C | 76.0% | 997.5hPa | 2.8V | 00:00:00 | 00:00:00 | 00:00:00 | |
| DM0DOS-11 | 2026-08-31 13:19:15 | 51.95315 | 8.45421 | 181° | 0km/h | 148m | 0m/s | 18.5°C | 74.9% | 997.5hPa | 2.8V | 07:45:10 | 03:01:17 | 00:00:00 | |
| BIOWL1-15 | 2026-08-31 13:19:12 | 51.95315 | 8.45421 | 182° | 0km/h | 148m | 0m/s | 18.5°C | 77.4% | 997.5hPa | 2.8V | 07:45:24 | 03:01:17 | 00:00:00 | |
| BIOWL1-15 | 2026-08-31 13:19:02 | 51.95315 | 8.45421 | 31° | 0km/h | 148m | 0m/s | 18.4°C | 83.1% | 997.6hPa | 2.8V | 07:45:24 | 03:01:07 | 00:00:00 | |
| BIOWL1-15 | 2026-08-31 13:18:55 | 51.95315 | 8.45421 | 331° | 0km/h | 148m | -0.1m/s | 18.6°C | 77.9% | 997.5hPa | 2.8V | 07:46:15 | 03:00:54 | 00:00:00 | |
| BIOWL9-15 | 2026-08-31 13:18:45 | 51.95315 | 8.45421 | 51° | 0km/h | 148m | 0.1m/s | 18.6°C | 77.3% | 997.5hPa | 2.8V | 00:00:00 | 00:00:00 | 00:00:00 | |
| BIOWL1-15 | 2026-08-31 13:18:38 | 51.95315 | 8.45421 | 46° | 0km/h | 148m | -0m/s | 18.5°C | 81% | 997.5hPa | 2.8V | 07:46:15 | 03:00:43 | 00:00:00 | |
| BIOWL1-15 | 2026-08-31 13:18:27 | 51.95315 | 8.45420 | 176° | 0km/h | 148m | 0m/s | 18.6°C | 76.5% | 997.6hPa | 2.8V | 07:46:15 | 03:00:32 | 00:00:00 | |
| BIOWL1-15 | 2026-08-31 13:18:17 | 51.95314 | 8.45419 | 239° | 0km/h | 149m | -0.1m/s | 18.5°C | 75.9% | 997.6hPa | 2.8V | 07:46:15 | 03:00:22 | 00:00:00 | |
| BIOWL9-15 | 2026-08-31 13:18:14 | 51.95313 | 8.45419 | 7° | 0km/h | 150m | -0.0m/s | 18.5°C | 75.8% | 997.5hPa | 2.8V | 00:00:00 | 00:00:00 | 00:00:00 | |
| BIOWL1-15 | 2026-08-31 13:18:07 | 51.95313 | 8.45420 | 178° | 4km/h | 152m | -1.8m/s | 18.4°C | 83.1% | 997.5hPa | 2.8V | 07:46:15 | 03:00:12 | 00:00:00 | |
| BIOWL7-15 | 2026-08-31 13:18:01 | 51.95313 | 8.45420 | 0° | 0km/h | 153m | 0.1m/s | 18.4°C | 76.0% | 997.3hPa | 2.8V | 00:00:00 | 00:00:00 | 00:00:00 | |
| BIOWL1-15 | 2026-08-31 13:17:58 | 51.95313 | 8.45420 | 93° | 0km/h | 153m | -0.1m/s | 18.4°C | 83.1% | 997.5hPa | 2.8V | 07:47:06 | 03:00:01 | 00:00:00 | |
| BIOWL1-15 | 2026-08-31 13:17:46 | 51.95313 | 8.45419 | 22° | 0km/h | 152m | -0m/s | 18.4°C | 77.4% | 997.5hPa | 2.8V | 07:47:06 | 02:59:49 | 00:00:00 | |
| BIOWL1-15 | 2026-08-31 13:17:35 | 51.95314 | 8.45419 | 84° | 0km/h | 152m | -0m/s | 18.4°C | 77.7% | 997.4hPa | 2.8V | 07:47:06 | 02:59:36 | 00:00:00 | |
| BIOWL1-15 | 2026-08-31 13:17:20 | 51.95314 | 8.45419 | 203° | 0km/h | 151m | 0m/s | 18.4°C | 78.5% | 997.4hPa | 2.8V | 07:47:06 | 02:59:25 | 00:00:00 | |
| BIOWL9-15 | 2026-08-31 13:17:12 | 51.95314 | 8.45419 | 167° | 0km/h | 151m | 0.0m/s | 18.4°C | 75.7% | 997.3hPa | 2.8V | 00:00:00 | 00:00:00 | 00:00:00 | |
| BIOWL1-15 | 2026-08-31 13:17:10 | 51.95314 | 8.45419 | 227° | 0km/h | 151m | -0m/s | 18.4°C | 80.7% | 997.5hPa | 2.8V | 07:47:57 | 02:59:15 | 00:00:00 | |
| BIOWL1-15 | 2026-08-31 13:17:08 | 51.95314 | 8.45420 | 286° | 0km/h | 152m | 0.1m/s | 18.4°C | 78.3% | 997.5hPa | 2.8V | 07:47:57 | 02:59:05 | 00:00:00 | |
| BIOWL1-15 | 2026-08-31 13:16:51 | 51.95314 | 8.45420 | 21° | 0km/h | 151m | -0.1m/s | 18.4°C | 78% | 997.4hPa | 2.8V | 07:47:57 | 02:58:54 | 00:00:00 | |
| BIOWL1-15 | 2026-08-31 13:16:40 | 51.95314 | 8.45421 | 59° | 0km/h | 152m | -0.1m/s | 18.5°C | 83.4% | 997.2hPa | 2.8V | 07:47:57 | 02:58:43 | 00:00:00 | |
| BIOWL1-15 | 2026-08-31 13:16:27 | 51.95313 | 8.45420 | 313° | 0km/h | 153m | -0m/s | 18.5°C | 79.2% | 997.4hPa | 2.8V | 07:47:57 | 02:58:32 | 00:00:00 | |
| BIOWL1-15 | 2026-08-31 13:16:18 | 51.95314 | 8.45420 | 335° | 0km/h | 151m | 0m/s | 18.5°C | 79.4% | 997.4hPa | 2.8V | 07:48:48 | 02:58:21 | 00:00:00 | |
| BIOWL9-15 | 2026-08-31 13:16:10 | 51.95315 | 8.45419 | 321° | 0km/h | 151m | 0.0m/s | 18.6°C | 75.4% | 997.3hPa | 2.8V | 00:00:00 | 00:00:00 | 00:00:00 | |
| BIOWL7-15 | 2026-08-31 13:16:09 | 51.95314 | 8.45419 | 0° | 0km/h | 151m | 0.0m/s | 18.6°C | 75.4% | 997.3hPa | 2.8V | 00:00:00 | 00:00:00 | 00:00:00 | |
| BIOWL1-15 | 2026-08-31 13:16:07 | 51.95314 | 8.45419 | 341° | 0km/h | 151m | 0m/s | 18.6°C | 77.4% | 997.3hPa | 2.8V | 07:48:48 | 02:58:06 | 00:00:00 | |
| BIOWL1-15 | 2026-08-31 13:15:50 | 51.95314 | 8.45419 | 52° | 0km/h | 151m | -0m/s | 18.5°C | 81% | 997.3hPa | 2.7V | 07:48:48 | 02:57:51 | 00:00:00 | |
| BIOWL9-15 | 2026-08-31 13:15:39 | 51.95314 | 8.45419 | 186° | 0km/h | 151m | 0.3m/s | 18.4°C | 74.4% | 997.3hPa | 2.7V | 00:00:00 | 00:00:00 | 00:00:00 | |
| BIOWL1-15 | 2026-08-31 13:15:39 | 51.95314 | 8.45419 | 187° | 0km/h | 151m | 0.3m/s | 18.4°C | 77.4% | 997.3hPa | 2.7V | 07:48:48 | 02:57:44 | 00:00:00 | |
| BIOWL1-15 | 2026-08-31 13:15:30 | 51.95313 | 8.45419 | 202° | 0km/h | 152m | 0.1m/s | 18.4°C | 83.1% | 997.4hPa | 2.7V | 07:49:39 | 02:57:33 | 00:00:00 | |
| BIOWL1-15 | 2026-08-31 13:15:21 | 51.95313 | 8.45419 | 166° | 0km/h | 152m | -0m/s | 18.4°C | 77.6% | 997.3hPa | 2.7V | 07:49:39 | 02:57:22 | 00:00:00 | |
| BIOWL1-15 | 2026-08-31 13:15:07 | 51.95312 | 8.45420 | 2° | 0km/h | 154m | 0m/s | 18.4°C | 78.5% | 997.2hPa | 2.7V | 07:49:39 | 02:57:12 | 00:00:00 | |
| BIOWL1-15 | 2026-08-31 13:14:56 | 51.95312 | 8.45419 | 317° | 0km/h | 154m | -0m/s | 18.4°C | 82.1% | 997.4hPa | 2.7V | 07:49:39 | 02:56:55 | 00:00:00 | |
| BIOWL7-15 | 2026-08-31 13:14:45 | 51.95312 | 8.45419 | 0° | 0km/h | 153m | -0.0m/s | 18.4°C | 78.5% | 997.4hPa | 2.7V | 00:00:00 | 00:00:00 | 00:00:00 | |
| BIOWL1-15 | 2026-08-31 13:14:44 | 51.95312 | 8.45419 | 293° | 0km/h | 153m | -0.1m/s | 18.4°C | 81.5% | 997.3hPa | 2.7V | 07:49:39 | 02:56:49 | 00:00:00 | |
| BIOWL9-15 | 2026-08-31 13:14:37 | 51.95312 | 8.45419 | 184° | 0km/h | 153m | -0.0m/s | 18.5°C | 76.9% | 997.4hPa | 2.7V | 00:00:00 | 00:00:00 | 00:00:00 | |
| BIOWL1-15 | 2026-08-31 13:14:34 | 51.95312 | 8.45419 | 138° | 0km/h | 152m | 0.1m/s | 18.5°C | 78.6% | 997.5hPa | 2.7V | 07:50:30 | 02:56:37 | 00:00:00 | |
| BIOWL1-15 | 2026-08-31 13:14:24 | 51.95313 | 8.45419 | 173° | 0km/h | 152m | -0m/s | 18.5°C | 81.7% | 997.5hPa | 2.7V | 07:50:30 | 02:56:27 | 00:00:00 | |
| BIOWL1-15 | 2026-08-31 13:14:11 | 51.95314 | 8.45419 | 334° | 0km/h | 151m | -0.1m/s | 18.5°C | 82.2% | 997.5hPa | 2.7V | 07:50:30 | 02:56:11 | 00:00:00 | |
| BIOWL9-15 | 2026-08-31 13:14:06 | 51.95314 | 8.45419 | 210° | 0km/h | 151m | 0.1m/s | 18.5°C | 78.2% | 997.4hPa | 2.7V | 00:00:00 | 00:00:00 | 00:00:00 | |
| BIOWL1-15 | 2026-08-31 13:14:00 | 51.95315 | 8.45418 | 82° | 0km/h | 151m | -0.1m/s | 18.5°C | 82.9% | 997.4hPa | 2.7V | 07:50:30 | 02:56:05 | 00:00:00 | |
| BIOWL1-15 | 2026-08-31 13:13:51 | 51.95316 | 8.45418 | 317° | 0km/h | 150m | -0.1m/s | 18.3°C | 80.7% | 997.1hPa | 2.7V | 07:51:21 | 02:55:54 | 00:00:00 | |
| BIOWL1-15 | 2026-08-31 13:13:38 | 51.95316 | 8.45418 | 38° | 0km/h | 149m | -0.1m/s | 18.5°C | 83.1% | 997.4hPa | 2.7V | 07:51:21 | 02:55:43 | 00:00:00 | |
| BIOWL7-15 | 2026-08-31 13:13:36 | 51.95316 | 8.45418 | 0° | 0km/h | 149m | -0.0m/s | 18.5°C | 77.6% | 997.5hPa | 2.7V | 00:00:00 | 00:00:00 | 00:00:00 | |
| BIOWL1-15 | 2026-08-31 13:13:30 | 51.95315 | 8.45418 | 267° | 0km/h | 150m | 0.1m/s | 18.4°C | 78.5% | 997.3hPa | 2.7V | 07:51:21 | 02:55:33 | 00:00:00 | |
| BIOWL1-15 | 2026-08-31 13:13:17 | 51.95315 | 8.45418 | 273° | 0km/h | 151m | -0.1m/s | 18.4°C | 81.1% | 997.4hPa | 2.7V | 07:51:21 | 02:55:18 | 00:00:00 | |
| BIOWL1-15 | 2026-08-31 13:13:07 | 51.95316 | 8.45419 | 141° | 0km/h | 151m | 0.1m/s | 18.3°C | 79.4% | 997.4hPa | 2.7V | 07:51:21 | 02:55:10 | 00:00:00 | |
| BIOWL1-15 | 2026-08-31 13:12:56 | 51.95316 | 8.45419 | 340° | 0km/h | 150m | -0.1m/s | 18.4°C | 80.6% | 997.4hPa | 2.7V | 07:52:12 | 02:54:59 | 00:00:00 | |
| BIOWL1-15 | 2026-08-31 13:12:43 | 51.95316 | 8.45418 | 55° | 0km/h | 149m | 0m/s | 18.5°C | 83.4% | 997.5hPa | 2.7V | 07:52:12 | 02:54:48 | 00:00:00 | |
| BIOWL1-15 | 2026-08-31 13:12:32 | 51.95317 | 8.45417 | 347° | 0km/h | 148m | -0.1m/s | 18.5°C | 81.4% | 997.3hPa | 2.7V | 07:52:12 | 02:54:37 | 00:00:00 | |
| BIOWL7-15 | 2026-08-31 13:12:27 | 51.95317 | 8.45417 | 0° | 0km/h | 148m | -0.0m/s | 18.4°C | 79.9% | 997.5hPa | 2.7V | 00:00:00 | 00:00:00 | 00:00:00 | |
| BIOWL1-15 | 2026-08-31 13:12:21 | 51.95317 | 8.45417 | 51° | 0km/h | 148m | -0.1m/s | 18.4°C | 80.2% | 997.5hPa | 2.7V | 07:52:12 | 02:54:26 | 00:00:00 | |
| BIOWL1-15 | 2026-08-31 13:12:10 | 51.95318 | 8.45416 | 200° | 0km/h | 147m | -0m/s | 18.4°C | 85.2% | 997.4hPa | 2.7V | 07:53:03 | 02:54:12 | 00:00:00 | |
| BIOWL9-15 | 2026-08-31 13:12:01 | 51.95318 | 8.45415 | 97° | 0km/h | 146m | -0.0m/s | 18.6°C | 77.9% | 997.4hPa | 2.7V | 00:00:00 | 00:00:00 | 00:00:00 | |
| BIOWL1-15 | 2026-08-31 13:11:56 | 51.95318 | 8.45415 | 104° | 0km/h | 146m | 0.1m/s | 18.4°C | 79.5% | 997.2hPa | 2.7V | 07:53:03 | 02:54:01 | 00:00:00 | |
| BIOWL1-15 | 2026-08-31 13:11:46 | 51.95318 | 8.45415 | 121° | 0km/h | 146m | 0.1m/s | 18.7°C | 83.7% | 997.3hPa | 2.7V | 07:53:03 | 02:53:51 | 00:00:00 | |
| BIOWL1-15 | 2026-08-31 13:11:36 | 51.95318 | 8.45415 | 12° | 0km/h | 146m | -0.1m/s | 18.5°C | 83.2% | 997.3hPa | 2.7V | 07:53:03 | 02:53:39 | 00:00:00 | |
| BIOWL1-15 | 2026-08-31 13:11:25 | 51.95317 | 8.45416 | 257° | 0km/h | 147m | -0m/s | 18.4°C | 78.9% | 997.4hPa | 2.7V | 07:53:03 | 02:53:30 | 00:00:00 | |
| BIOWL7-15 | 2026-08-31 13:11:14 | 51.95317 | 8.45417 | 0° | 0km/h | 148m | 0.0m/s | 18.6°C | 80.8% | 997.6hPa | 2.7V | 00:00:00 | 00:00:00 | 00:00:00 | |
| BIOWL1-15 | 2026-08-31 13:11:14 | 51.95317 | 8.45417 | 129° | 0km/h | 148m | 0m/s | 18.6°C | 82.7% | 997.5hPa | 2.7V | 07:53:54 | 02:53:19 | 00:00:00 | |
| BIOWL1-15 | 2026-08-31 13:11:03 | 51.95317 | 8.45418 | 110° | 0km/h | 148m | 0.1m/s | 18.4°C | 82.8% | 997.4hPa | 2.7V | 07:53:54 | 02:53:08 | 00:00:00 | |
| BIOWL9-15 | 2026-08-31 13:11:00 | 51.95316 | 8.45419 | 147° | 0km/h | 148m | 0.2m/s | 18.4°C | 79.0% | 997.4hPa | 2.7V | 00:00:00 | 00:00:00 | 00:00:00 | |
| BIOWL1-15 | 2026-08-31 13:10:52 | 51.95316 | 8.45419 | 73° | 0km/h | 148m | -0m/s | 18.5°C | 81.4% | 997.4hPa | 2.7V | 07:53:54 | 02:52:57 | 00:00:00 | |
| BIOWL1-15 | 2026-08-31 13:10:41 | 51.95316 | 8.45418 | 192° | 0km/h | 148m | 0.1m/s | 18.5°C | 82.7% | 997.5hPa | 2.7V | 07:53:54 | 02:52:44 | 00:00:00 | |
| BIOWL1-15 | 2026-08-31 13:10:29 | 51.95317 | 8.45418 | 88° | 0km/h | 148m | -0m/s | 19°C | 81.2% | 997.3hPa | 2.7V | 07:53:54 | 02:52:34 | 00:00:00 | |
| BIOWL1-15 | 2026-08-31 13:10:19 | 51.95318 | 8.45417 | 76° | 0km/h | 148m | -0m/s | 18.7°C | 84.8% | 997.3hPa | 2.7V | 07:54:45 | 02:52:24 | 00:00:00 | |
| BIOWL1-15 | 2026-08-31 13:10:11 | 51.95318 | 8.45416 | 108° | 0km/h | 147m | 0.1m/s | 18.9°C | 80.7% | 997.2hPa | 2.7V | 07:54:45 | 02:52:14 | 00:00:00 | |
| BIOWL1-15 | 2026-08-31 13:09:59 | 51.95318 | 8.45417 | 132° | 0km/h | 148m | -0m/s | 18.7°C | 82.2% | 997.5hPa | 2.7V | 07:54:45 | 02:52:02 | 00:00:00 | |
| BIOWL9-15 | 2026-08-31 13:09:57 | 51.95318 | 8.45417 | 131° | 0km/h | 147m | -0.0m/s | 18.7°C | 79.5% | 997.5hPa | 2.7V | 00:00:00 | 00:00:00 | 00:00:00 | |
| BIOWL1-15 | 2026-08-31 13:09:46 | 51.95318 | 8.45417 | 344° | 0km/h | 148m | -0m/s | 18.7°C | 81.2% | 997.4hPa | 2.7V | 07:54:45 | 02:51:50 | 00:00:00 | |
| BIOWL1-15 | 2026-08-31 13:09:36 | 51.95318 | 8.45418 | 157° | 0km/h | 148m | 0.1m/s | 18.6°C | 81.4% | 997.5hPa | 2.7V | 07:55:36 | 02:51:39 | 00:00:00 | |
| BIOWL1-15 | 2026-08-31 13:09:23 | 51.95318 | 8.45419 | 245° | 0km/h | 148m | 0.1m/s | 18.5°C | 84.8% | 997.3hPa | 2.7V | 07:55:36 | 02:51:25 | 00:00:00 | |
| BIOWL1-15 | 2026-08-31 13:09:13 | 51.95317 | 8.45419 | 313° | 0km/h | 148m | -0.2m/s | 18.7°C | 80.9% | 997.3hPa | 2.7V | 07:55:36 | 02:51:18 | 00:00:00 | |
| BIOWL1-15 | 2026-08-31 13:09:05 | 51.95317 | 8.45419 | 125° | 0km/h | 148m | -0.1m/s | 18.6°C | 81.6% | 997.3hPa | 2.7V | 07:55:36 | 02:51:07 | 00:00:00 | |
| BIOWL9-15 | 2026-08-31 13:08:55 | 51.95317 | 8.45419 | 265° | 0km/h | 147m | 0.5m/s | 18.5°C | 78.2% | 997.4hPa | 2.7V | 00:00:00 | 00:00:00 | 00:00:00 | |
| BIOWL1-15 | 2026-08-31 13:08:54 | 51.95317 | 8.45420 | 314° | 2km/h | 147m | -0.7m/s | 18.4°C | 80.7% | 997.3hPa | 2.7V | 07:55:36 | 02:50:57 | 00:00:00 | |
| BIOWL1-15 | 2026-08-31 13:08:41 | 51.95317 | 8.45421 | 171° | 0km/h | 149m | 0.2m/s | 18.5°C | 84.9% | 997.3hPa | 2.7V | 07:56:27 | 02:50:46 | 00:00:00 | |
| BIOWL1-15 | 2026-08-31 13:08:30 | 51.95315 | 8.45418 | 217° | 4km/h | 145m | 0.8m/s | 18.7°C | 83.6% | 997.7hPa | 2.7V | 07:56:27 | 02:50:30 | 00:00:00 | |
| BIOWL9-15 | 2026-08-31 13:08:24 | 51.95316 | 8.45418 | 340° | 0km/h | 145m | 0.0m/s | 19.2°C | 77.0% | 997.9hPa | 2.6V | 00:00:00 | 00:00:00 | 00:00:00 | |
| BIOWL1-15 | 2026-08-31 13:08:21 | 51.95316 | 8.45418 | 343° | 0km/h | 145m | -0.1m/s | 19.3°C | 82% | 997.9hPa | 2.6V | 07:56:27 | 02:50:26 | 00:00:00 | |
| BIOWL1-15 | 2026-08-31 13:08:10 | 51.95316 | 8.45418 | 349° | 0km/h | 144m | -0.1m/s | 19.2°C | 84.3% | 997.9hPa | 2.7V | 07:56:27 | 02:50:15 | 00:00:00 | |
| BIOWL1-15 | 2026-08-31 13:07:59 | 51.95317 | 8.45418 | 30° | 0km/h | 143m | -0.1m/s | 18.8°C | 85.1% | 997.8hPa | 2.7V | 07:56:27 | 02:50:04 | 00:00:00 | |
| BIOWL9-15 | 2026-08-31 13:07:53 | 51.95316 | 8.45418 | 276° | 0km/h | 142m | -0.0m/s | 18.9°C | 80.9% | 997.7hPa | 2.7V | 00:00:00 | 00:00:00 | 00:00:00 | |
| BIOWL1-15 | 2026-08-31 13:07:49 | 51.95316 | 8.45418 | 322° | 0km/h | 142m | -0.1m/s | 18.9°C | 79% | 997.7hPa | 2.7V | 07:57:18 | 02:49:54 | 00:00:00 | |
| BIOWL1-15 | 2026-08-31 13:07:38 | 51.95315 | 8.45418 | 128° | 0km/h | 143m | 0.1m/s | 18.7°C | 81.8% | 997.9hPa | 2.6V | 07:57:18 | 02:49:38 | 00:00:00 | |
| BIOWL1-15 | 2026-08-31 13:07:30 | 51.95315 | 8.45417 | 32° | 0km/h | 142m | 0m/s | 19.2°C | 85% | 998.1hPa | 2.7V | 07:57:18 | 02:49:33 | 00:00:00 | |
| BIOWL9-15 | 2026-08-31 13:07:22 | 51.95315 | 8.45417 | 168° | 0km/h | 142m | 0.0m/s | 19.2°C | 83.2% | 997.9hPa | 2.7V | 00:00:00 | 00:00:00 | 00:00:00 | |
| BIOWL1-15 | 2026-08-31 13:07:18 | 51.95315 | 8.45417 | 108° | 0km/h | 143m | -0m/s | 19.1°C | 87.4% | 998hPa | 2.7V | 07:57:18 | 02:49:23 | 00:00:00 | |
| BIOWL1-15 | 2026-08-31 13:07:07 | 51.95315 | 8.45417 | 259° | 0km/h | 144m | -0.1m/s | 19.1°C | 80% | 997.9hPa | 2.7V | 07:57:18 | 02:49:12 | 00:00:00 | |
| BIOWL1-15 | 2026-08-31 13:06:57 | 51.95316 | 8.45417 | 252° | 4km/h | 142m | 1.1m/s | 20.7°C | 69.4% | 998.1hPa | 2.7V | 07:58:09 | 02:49:02 | 00:00:00 | |
| BIOWL9-15 | 2026-08-31 13:06:51 | 51.95317 | 8.45418 | 354° | 2km/h | 141m | -1.3m/s | 19.4°C | 87.8% | 998.0hPa | 2.6V | 00:00:00 | 00:00:00 | 00:00:00 | |
| BIOWL1-15 | 2026-08-31 13:06:50 | 51.95292 | 8.45364 | 58° | 22km/h | 188m | -5.4m/s | 17.9°C | 85.2% | 993.1hPa | 2.6V | 07:58:09 | 02:48:46 | 00:00:00 | |
| DM0DOS-11 | 2026-08-31 13:06:47 | 51.95295 | 8.45371 | 59° | 22km/h | 183m | -3.9m/s | 17.9°C | 80.2% | 993.5hPa | 2.6V | 07:57:40 | 02:48:47 | 00:00:00 | |
| DO2JMG | 2026-08-31 13:06:40 | 51.95289 | 8.45356 | 60° | 24km/h | 193m | -4.6m/s | 17.9°C | 87% | 992.3hPa | 2.6V | 07:58:09 | 02:48:45 | 00:00:00 | |
| DO2JMG | 2026-08-31 13:06:38 | 51.95283 | 8.45338 | 62° | 22km/h | 205m | -6.9m/s | 17.7°C | 86.4% | 991.1hPa | 2.7V | 07:58:09 | 02:48:43 | 00:00:00 | |
| BIOWL1-15 | 2026-08-31 13:06:38 | 51.95277 | 8.45324 | 46° | 20km/h | 216m | -5.8m/s | 17.6°C | 85.2% | 989.7hPa | 2.7V | 07:58:09 | 02:48:41 | 00:00:00 | |
| DO2JMG | 2026-08-31 13:06:37 | 51.95281 | 8.45331 | 54° | 20km/h | 211m | -5.4m/s | 17.7°C | 84.4% | 990.3hPa | 2.7V | 07:58:09 | 02:48:42 | 00:00:00 | |
| DM0DOS-11 | 2026-08-31 13:06:35 | 51.95254 | 8.45285 | 49° | 24km/h | 245m | -5m/s | 17.3°C | 79.3% | 986.1hPa | 2.7V | 07:57:52 | 02:48:35 | 00:00:00 | |
| DO2JMG | 2026-08-31 13:06:35 | 51.95273 | 8.45318 | 46° | 22km/h | 221m | -5.3m/s | 17.6°C | 84.4% | 989.2hPa | 2.7V | 07:58:09 | 02:48:40 | 00:00:00 | |
| DO2JMG | 2026-08-31 13:06:33 | 51.95265 | 8.45305 | 48° | 22km/h | 231m | -3.9m/s | 17.5°C | 84.6% | 988hPa | 2.7V | 07:58:09 | 02:48:38 | 00:00:00 | |
| DO2JMG | 2026-08-31 13:06:32 | 51.95261 | 8.45298 | 45° | 22km/h | 235m | -5.4m/s | 17.4°C | 84% | 987.5hPa | 2.7V | 07:58:09 | 02:48:37 | 00:00:00 | |
| BIOWL1-15 | 2026-08-31 13:06:31 | 51.95258 | 8.45292 | 46° | 22km/h | 240m | -4.9m/s | 17.3°C | 84.2% | 986.9hPa | 2.7V | 07:58:09 | 02:48:36 | 00:00:00 | |
| BIOWL1-15 | 2026-08-31 13:06:30 | 51.95254 | 8.45285 | 50° | 24km/h | 245m | -5m/s | 17.3°C | 83.5% | 986.1hPa | 2.7V | 07:58:09 | 02:48:35 | 00:00:00 | |
| BIOWL1-15 | 2026-08-31 13:06:29 | 51.95250 | 8.45277 | 52° | 24km/h | 251m | -5.8m/s | 17.3°C | 84.8% | 985.7hPa | 2.7V | 07:58:09 | 02:48:34 | 00:00:00 | |
| DO2JMG | 2026-08-31 13:06:28 | 51.95246 | 8.45269 | 57° | 26km/h | 257m | -5.8m/s | 17.2°C | 85.3% | 985.1hPa | 2.7V | 07:58:09 | 02:48:33 | 00:00:00 | |
| DO2JMG | 2026-08-31 13:06:26 | 51.95239 | 8.45251 | 54° | 26km/h | 269m | -6.7m/s | 17.1°C | 84.4% | 983.8hPa | 2.6V | 07:58:09 | 02:48:31 | 00:00:00 | |
| DO2JMG | 2026-08-31 13:06:25 | 51.95235 | 8.45243 | 53° | 26km/h | 275m | -5.5m/s | 17°C | 84.6% | 983.3hPa | 2.5V | 07:58:09 | 02:48:30 | 00:00:00 | |
| DO2JMG | 2026-08-31 13:06:23 | 51.95227 | 8.45227 | 47° | 24km/h | 286m | -5m/s | 17°C | 86.8% | 982.1hPa | 2.6V | 07:58:09 | 02:48:28 | 00:00:00 | |
| BIOWL1-15 | 2026-08-31 13:06:21 | 51.95200 | 8.45191 | 37° | 20km/h | 322m | -5.7m/s | 16.6°C | 87.7% | 977.6hPa | 2.7V | 07:58:09 | 02:48:22 | 00:00:00 | |
| DO2JMG | 2026-08-31 13:06:21 | 51.95218 | 8.45213 | 45° | 26km/h | 296m | -6.9m/s | 16.8°C | 88.9% | 980.9hPa | 2.7V | 07:58:09 | 02:48:26 | 00:00:00 | |
| DO2JMG | 2026-08-31 13:06:19 | 51.95209 | 8.45201 | 35° | 22km/h | 310m | -6.6m/s | 16.6°C | 87.6% | 979hPa | 2.6V | 07:58:09 | 02:48:24 | 00:00:00 | |
| DO2JMG | 2026-08-31 13:06:18 | 51.95204 | 8.45196 | 35° | 22km/h | 316m | -5.6m/s | 16.6°C | 89.4% | 978.1hPa | 2.6V | 07:58:09 | 02:48:23 | 00:00:00 | |
| DO2JMG | 2026-08-31 13:06:16 | 51.95196 | 8.45186 | 36° | 22km/h | 328m | -6.9m/s | 16.5°C | 88.2% | 976.7hPa | 2.6V | 07:58:09 | 02:48:21 | 00:00:00 | |
| DO2JMG | 2026-08-31 13:06:14 | 51.95187 | 8.45175 | 38° | 24km/h | 340m | -5.6m/s | 16.3°C | 90.2% | 975.4hPa | 2.6V | 07:58:09 | 02:48:19 | 00:00:00 | |
| DO2JMG | 2026-08-31 13:06:13 | 51.95182 | 8.45168 | 40° | 24km/h | 346m | -5.9m/s | 16.3°C | 89% | 974.9hPa | 2.6V | 07:58:09 | 02:48:18 | 00:00:00 | |
| BIOWL1-15 | 2026-08-31 13:06:12 | 51.95178 | 8.45162 | 45° | 22km/h | 352m | -6.6m/s | 16.2°C | 89.4% | 974.3hPa | 2.6V | 07:59:00 | 02:48:17 | 00:00:00 | |
| DO2JMG | 2026-08-31 13:06:11 | 51.95173 | 8.45155 | 42° | 27km/h | 359m | -6.4m/s | 16.2°C | 89.2% | 973.6hPa | 2.6V | 07:59:00 | 02:48:16 | 00:00:00 | |
| BIOWL1-15 | 2026-08-31 13:06:10 | 51.95168 | 8.45147 | 48° | 27km/h | 365m | -6.8m/s | 16.2°C | 89.6% | 972.7hPa | 2.5V | 07:59:00 | 02:48:15 | 00:00:00 | |
| DM0DOS-11 | 2026-08-31 13:06:09 | 51.95159 | 8.45130 | 45° | 27km/h | 379m | -7.2m/s | 16°C | 84.5% | 971hPa | 2.7V | 07:58:14 | 02:48:13 | 00:00:00 | |
| DO2JMG | 2026-08-31 13:06:09 | 51.95164 | 8.45139 | 49° | 27km/h | 372m | -7m/s | 16.1°C | 89.2% | 972hPa | 2.6V | 07:59:00 | 02:48:14 | 00:00:00 | |
| DO2JMG | 2026-08-31 13:06:07 | 51.95154 | 8.45122 | 41° | 27km/h | 386m | -6.6m/s | 15.9°C | 90.9% | 970.3hPa | 2.7V | 07:59:00 | 02:48:12 | 00:00:00 | |
| DO2JMG | 2026-08-31 13:06:05 | 51.95144 | 8.45109 | 38° | 26km/h | 400m | -5.8m/s | 15.8°C | 91.2% | 968.8hPa | 2.6V | 07:59:00 | 02:48:10 | 00:00:00 | |
| DO2JMG | 2026-08-31 13:06:04 | 51.95139 | 8.45102 | 40° | 26km/h | 406m | -7.1m/s | 15.8°C | 91.4% | 968.2hPa | 2.6V | 07:59:00 | 02:48:09 | 00:00:00 | |
| DO2JMG | 2026-08-31 13:06:03 | 51.95133 | 8.45095 | 39° | 27km/h | 414m | -7.6m/s | 15.7°C | 91.2% | 967.3hPa | 2.6V | 07:59:00 | 02:48:08 | 00:00:00 | |
| BIOWL1-15 | 2026-08-31 13:06:02 | 51.95128 | 8.45088 | 37° | 27km/h | 422m | -8.5m/s | 15.6°C | 91.9% | 966.5hPa | 2.6V | 07:59:00 | 02:48:07 | 00:00:00 | |
| DO2JMG | 2026-08-31 13:06:01 | 51.95122 | 8.45080 | 44° | 33km/h | 430m | -7.9m/s | 15.5°C | 91.5% | 965.6hPa | 2.6V | 07:59:00 | 02:48:06 | 00:00:00 | |
| BIOWL1-15 | 2026-08-31 13:06:00 | 51.95116 | 8.45070 | 46° | 37km/h | 438m | -7.6m/s | 15.5°C | 90.5% | 964.7hPa | 2.5V | 07:59:00 | 02:48:05 | 00:00:00 | |
| DO2JMG | 2026-08-31 13:05:59 | 51.95109 | 8.45059 | 46° | 35km/h | 445m | -7.2m/s | 15.4°C | 90% | 963.6hPa | 2.5V | 07:59:00 | 02:48:04 | 00:00:00 | |
| DM0DOS-11 | 2026-08-31 13:05:58 | 51.95084 | 8.45018 | 47° | 40km/h | 467m | -3.9m/s | 15.1°C | 88.5% | 961.1hPa | 2.6V | 07:58:27 | 02:48:00 | 00:00:00 | |
| DO2JMG | 2026-08-31 13:05:57 | 51.95097 | 8.45040 | 43° | 35km/h | 458m | -5.7m/s | 15.3°C | 86.6% | 962.2hPa | 2.6V | 07:59:00 | 02:48:02 | 00:00:00 | |
| DO2JMG | 2026-08-31 13:05:55 | 51.95084 | 8.45018 | 47° | 40km/h | 468m | -3.9m/s | 15.1°C | 89.1% | 961.1hPa | 2.6V | 07:59:00 | 02:48:00 | 00:00:00 | |
| DO2JMG | 2026-08-31 13:05:54 | 51.95077 | 8.45006 | 47° | 38km/h | 472m | -4m/s | 15.1°C | 90.3% | 960.6hPa | 2.6V | 07:59:00 | 02:47:59 | 00:00:00 | |
| DM0DOS-11 | 2026-08-31 13:05:53 | 51.95055 | 8.44970 | 49° | 44km/h | 484m | -4.9m/s | 15°C | 89.8% | 959hPa | 2.5V | 07:58:31 | 02:47:56 | 00:00:00 | |
| DM0DOS-11 | 2026-08-31 13:05:53 | 51.95041 | 8.44941 | 51° | 47km/h | 495m | -5.2m/s | 14.9°C | 88.6% | 957.9hPa | 2.6V | 07:58:33 | 02:47:54 | 00:00:00 | |
| DO2JMG | 2026-08-31 13:05:52 | 51.95063 | 8.44983 | 46° | 42km/h | 480m | -4.5m/s | 15°C | 91.6% | 959.7hPa | 2.6V | 07:59:00 | 02:47:57 | 00:00:00 | |
| DO2JMG | 2026-08-31 13:05:51 | 51.95055 | 8.44970 | 49° | 44km/h | 485m | -4.9m/s | 15°C | 92.4% | 959hPa | 2.5V | 07:59:00 | 02:47:56 | 00:00:00 | |
| DO2JMG | 2026-08-31 13:05:50 | 51.95048 | 8.44956 | 50° | 46km/h | 490m | -5.1m/s | 15°C | 88.7% | 958.5hPa | 2.5V | 07:59:00 | 02:47:55 | 00:00:00 | |
| BIOWL1-15 | 2026-08-31 13:05:48 | 51.95025 | 8.44908 | 52° | 53km/h | 506m | -6.2m/s | 15.5°C | 78.6% | 956.6hPa | 2.6V | 07:59:00 | 02:47:52 | 00:00:00 | |
| DM0DOS-11 | 2026-08-31 13:05:48 | 51.95008 | 8.44874 | 51° | 55km/h | 518m | -6.6m/s | 15.4°C | 74.2% | 955.4hPa | 2.6V | 07:58:37 | 02:47:50 | 00:00:00 | |
| DO2JMG | 2026-08-31 13:05:48 | 51.95033 | 8.44925 | 52° | 51km/h | 500m | -5.9m/s | 15.2°C | 83.8% | 957.5hPa | 2.6V | 07:59:00 | 02:47:53 | 00:00:00 | |
| DO2JMG | 2026-08-31 13:05:46 | 51.95016 | 8.44891 | 52° | 55km/h | 512m | -6.2m/s | 15.5°C | 76% | 955.9hPa | 2.6V | 07:59:00 | 02:47:51 | 00:00:00 | |
| BIOWL1-15 | 2026-08-31 13:05:45 | 51.94990 | 8.44837 | 52° | 57km/h | 532m | -5.6m/s | 15.4°C | 75.9% | 953.5hPa | 2.6V | 07:59:00 | 02:47:48 | 00:00:00 | |
| DO2JMG | 2026-08-31 13:05:44 | 51.94999 | 8.44856 | 52° | 57km/h | 525m | -6.9m/s | 15.5°C | 75.9% | 954.7hPa | 2.6V | 07:59:00 | 02:47:49 | 00:00:00 | |
| DM0DOS-11 | 2026-08-31 13:05:43 | 51.94954 | 8.44763 | 52° | 58km/h | 558m | -6.8m/s | 15.2°C | 71.7% | 950.6hPa | 2.6V | 07:58:43 | 02:47:44 | 00:00:00 | |
| DO2JMG | 2026-08-31 13:05:42 | 51.94981 | 8.44819 | 52° | 57km/h | 538m | -7.6m/s | 15.3°C | 75.9% | 952.9hPa | 2.5V | 07:59:00 | 02:47:47 | 00:00:00 | |
| DO2JMG | 2026-08-31 13:05:41 | 51.94972 | 8.44801 | 52° | 58km/h | 545m | -6.6m/s | 15.3°C | 75.1% | 952.2hPa | 2.5V | 07:59:00 | 02:47:46 | 00:00:00 | |
| BIOWL1-15 | 2026-08-31 13:05:40 | 51.94945 | 8.44743 | 53° | 58km/h | 565m | -6.7m/s | 15.1°C | 75.1% | 949.9hPa | 2.6V | 07:59:00 | 02:47:43 | 00:00:00 | |
| DO2JMG | 2026-08-31 13:05:39 | 51.94954 | 8.44763 | 53° | 58km/h | 559m | -6.8m/s | 15.2°C | 75.5% | 950.6hPa | 2.6V | 07:59:00 | 02:47:44 | 00:00:00 | |
| DO2JMG | 2026-08-31 13:05:37 | 51.94936 | 8.44724 | 54° | 58km/h | 572m | -6.2m/s | 15°C | 75.6% | 949.2hPa | 2.6V | 07:59:00 | 02:47:42 | 00:00:00 | |
| BIOWL1-15 | 2026-08-31 13:05:36 | 51.94858 | 8.44544 | 56° | 64km/h | 636m | -7.4m/s | 14.7°C | 75.1% | 942.1hPa | 2.6V | 07:59:00 | 02:47:33 | 00:00:00 | |
| DO2JMG | 2026-08-31 13:05:35 | 51.94919 | 8.44686 | 54° | 58km/h | 584m | -6.7m/s | 14.9°C | 76.5% | 947.8hPa | 2.6V | 07:59:00 | 02:47:40 | 00:00:00 | |
| DO2JMG | 2026-08-31 13:05:33 | 51.94901 | 8.44647 | 55° | 58km/h | 598m | -7.5m/s | 14.8°C | 77.1% | 946.2hPa | 2.5V | 07:59:00 | 02:47:38 | 00:00:00 | |
| DO2JMG | 2026-08-31 13:05:32 | 51.94892 | 8.44627 | 54° | 60km/h | 605m | -7.7m/s | 14.8°C | 76.9% | 945.4hPa | 2.5V | 07:59:00 | 02:47:37 | 00:00:00 | |
| DO2JMG | 2026-08-31 13:05:31 | 51.94883 | 8.44607 | 57° | 58km/h | 613m | -7.5m/s | 14.7°C | 77.7% | 944.5hPa | 2.6V | 07:59:00 | 02:47:36 | 00:00:00 | |
| DO2JMG | 2026-08-31 13:05:29 | 51.94866 | 8.44565 | 56° | 62km/h | 628m | -8.4m/s | 14.6°C | 76.7% | 942.8hPa | 2.6V | 07:59:00 | 02:47:34 | 00:00:00 | |
| BIOWL1-15 | 2026-08-31 13:05:28 | 51.94840 | 8.44500 | 58° | 64km/h | 650m | -6.9m/s | 14.8°C | 71.9% | 940.3hPa | 2.6V | 07:59:00 | 02:47:31 | 00:00:00 | |
| DO2JMG | 2026-08-31 13:05:27 | 51.94849 | 8.44522 | 57° | 64km/h | 644m | -7.3m/s | 14.7°C | 73.5% | 941hPa | 2.6V | 07:59:00 | 02:47:32 | 00:00:00 | |
| DO2JMG | 2026-08-31 13:05:25 | 51.94831 | 8.44478 | 58° | 64km/h | 657m | -6.8m/s | 14.9°C | 68.2% | 939.6hPa | 2.6V | 07:59:00 | 02:47:30 | 00:00:00 | |
| BIOWL1-15 | 2026-08-31 13:05:24 | 51.94805 | 8.44408 | 59° | 66km/h | 678m | -8.2m/s | 15.1°C | 64.4% | 937.1hPa | 2.6V | 07:59:00 | 02:47:27 | 00:00:00 | |
| DM0DOS-11 | 2026-08-31 13:05:23 | 51.94779 | 8.44339 | 59° | 66km/h | 701m | -8.3m/s | 15.2°C | 55.4% | 934.7hPa | 2.6V | 07:59:03 | 02:47:24 | 00:00:00 | |
| DO2JMG | 2026-08-31 13:05:23 | 51.94814 | 8.44432 | 59° | 68km/h | 671m | -7.3m/s | 15°C | 65.4% | 937.9hPa | 2.5V | 07:59:00 | 02:47:28 | 00:00:00 | |
| BIOWL1-15 | 2026-08-31 13:05:22 | 51.94788 | 8.44362 | 59° | 66km/h | 693m | -7.2m/s | 15.2°C | 61.9% | 935.5hPa | 2.6V | 07:59:51 | 02:47:25 | 00:00:00 | |
| DO2JMG | 2026-08-31 13:05:21 | 51.94797 | 8.44385 | 59° | 68km/h | 686m | -7.5m/s | 15.2°C | 61.4% | 936.3hPa | 2.6V | 07:59:51 | 02:47:26 | 00:00:00 | |
| DO2JMG | 2026-08-31 13:05:19 | 51.94779 | 8.44339 | 59° | 66km/h | 701m | -8.3m/s | 15.2°C | 62.2% | 934.7hPa | 2.6V | 07:59:51 | 02:47:24 | 00:00:00 | |
| BIOWL1-15 | 2026-08-31 13:05:19 | 51.94762 | 8.44292 | 60° | 64km/h | 716m | -7.6m/s | 15°C | 63.4% | 932.9hPa | 2.6V | 07:59:51 | 02:47:22 | 00:00:00 | |
| DM0DOS-11 | 2026-08-31 13:05:18 | 51.94728 | 8.44200 | 59° | 66km/h | 746m | -7.4m/s | 14.7°C | 59.9% | 929.6hPa | 2.6V | 07:59:09 | 02:47:18 | 00:00:00 | |
| DO2JMG | 2026-08-31 13:05:18 | 51.94771 | 8.44315 | 60° | 66km/h | 709m | -7.8m/s | 15.1°C | 62.7% | 933.9hPa | 2.5V | 07:59:51 | 02:47:23 | 00:00:00 | |
| DO2JMG | 2026-08-31 13:05:16 | 51.94754 | 8.44269 | 60° | 66km/h | 724m | -8m/s | 14.9°C | 64.9% | 932.2hPa | 2.6V | 07:59:51 | 02:47:21 | 00:00:00 | |
| BIOWL1-15 | 2026-08-31 13:05:15 | 51.94703 | 8.44131 | 60° | 66km/h | 767m | -7m/s | 14.5°C | 67.6% | 927.3hPa | 2.5V | 07:59:51 | 02:47:15 | 00:00:00 | |
| DO2JMG | 2026-08-31 13:05:15 | 51.94745 | 8.44246 | 59° | 66km/h | 732m | -7.7m/s | 14.8°C | 64.5% | 931.2hPa | 2.6V | 07:59:51 | 02:47:20 | 00:00:00 | |
| DO2JMG | 2026-08-31 13:05:14 | 51.94737 | 8.44223 | 59° | 66km/h | 739m | -7.2m/s | 14.8°C | 65.9% | 930.4hPa | 2.6V | 07:59:51 | 02:47:19 | 00:00:00 | |
| DM0DOS-11 | 2026-08-31 13:05:13 | 51.94695 | 8.44108 | 60° | 64km/h | 773m | -6.8m/s | 14.4°C | 61.4% | 926.5hPa | 2.6V | 07:59:13 | 02:47:14 | 00:00:00 | |
| DO2JMG | 2026-08-31 13:05:12 | 51.94720 | 8.44177 | 59° | 66km/h | 753m | -6.9m/s | 14.6°C | 67.5% | 928.8hPa | 2.6V | 07:59:51 | 02:47:17 | 00:00:00 | |
| DO2JMG | 2026-08-31 13:05:11 | 51.94711 | 8.44154 | 60° | 66km/h | 760m | -6.6m/s | 14.5°C | 68.2% | 928.1hPa | 2.5V | 07:59:51 | 02:47:16 | 00:00:00 | |
| DO2JMG | 2026-08-31 13:05:09 | 51.94695 | 8.44108 | 60° | 64km/h | 773m | -6.8m/s | 14.4°C | 67.2% | 926.5hPa | 2.6V | 07:59:51 | 02:47:14 | 00:00:00 | |
| DO2JMG | 2026-08-31 13:05:08 | 51.94687 | 8.44085 | 61° | 66km/h | 780m | -6.8m/s | 14.3°C | 68% | 925.8hPa | 2.6V | 07:59:51 | 02:47:13 | 00:00:00 | |
| BIOWL1-15 | 2026-08-31 13:05:07 | 51.94630 | 8.43920 | 60° | 64km/h | 832m | -8.3m/s | 14°C | 66.8% | 920.2hPa | 2.6V | 07:59:51 | 02:47:06 | 00:00:00 | |
| DO2JMG | 2026-08-31 13:05:06 | 51.94671 | 8.44038 | 62° | 64km/h | 793m | -7.1m/s | 14.2°C | 68.8% | 924.2hPa | 2.6V | 07:59:51 | 02:47:11 | 00:00:00 | |
| DO2JMG | 2026-08-31 13:05:05 | 51.94663 | 8.44014 | 62° | 66km/h | 800m | -7.1m/s | 14.2°C | 65.8% | 923.4hPa | 2.6V | 07:59:51 | 02:47:10 | 00:00:00 | |
| DL3AQ-11 | 2026-08-31 13:05:05 | 51.94646 | 8.43967 | 60° | 64km/h | 816m | -8.3m/s | 14.1°C | 61.3% | 921.8hPa | 2.6V | 00:00:00 | 00:00:00 | 00:00:00 | |
| DM0DOS-11 | 2026-08-31 13:05:03 | 51.94614 | 8.43874 | 61° | 64km/h | 849m | -8.1m/s | 14°C | 59.6% | 918.3hPa | 2.6V | 07:59:23 | 02:47:04 | 00:00:00 | |
| DM0DOS-11 | 2026-08-31 13:05:03 | 51.94598 | 8.43828 | 60° | 64km/h | 865m | -8.1m/s | 13.9°C | 59.7% | 916.6hPa | 2.6V | 07:59:25 | 02:47:02 | 00:00:00 | |
| DO2JMG | 2026-08-31 13:05:03 | 51.94646 | 8.43967 | 60° | 66km/h | 816m | -8.3m/s | 14.1°C | 67.5% | 921.8hPa | 2.5V | 07:59:51 | 02:47:08 | 00:00:00 | |
| DO2JMG | 2026-08-31 13:05:02 | 51.94638 | 8.43944 | 60° | 66km/h | 824m | -8.3m/s | 14.1°C | 68.1% | 921hPa | 2.5V | 07:59:51 | 02:47:07 | 00:00:00 | |
| DO2JMG | 2026-08-31 13:05:00 | 51.94622 | 8.43897 | 61° | 66km/h | 840m | -8.7m/s | 14°C | 66.6% | 919.4hPa | 2.6V | 07:59:51 | 02:47:05 | 00:00:00 | |
| DO2JMG | 2026-08-31 13:05:00 | 51.94614 | 8.43874 | 61° | 64km/h | 849m | -8.1m/s | 14°C | 66.2% | 918.3hPa | 2.6V | 07:59:51 | 02:47:04 | 00:00:00 | |
| BIOWL1-15 | 2026-08-31 13:04:58 | 51.94590 | 8.43805 | 61° | 64km/h | 874m | -8.9m/s | 13.8°C | 68.4% | 915.8hPa | 2.6V | 07:59:51 | 02:47:01 | 00:00:00 | |
| DO2JMG | 2026-08-31 13:04:57 | 51.94598 | 8.43828 | 61° | 64km/h | 865m | -8.1m/s | 13.9°C | 66.6% | 916.6hPa | 2.6V | 07:59:51 | 02:47:02 | 00:00:00 | |
| DO2JMG | 2026-08-31 13:04:55 | 51.94581 | 8.43782 | 60° | 64km/h | 882m | -8.7m/s | 13.7°C | 68.7% | 914.8hPa | 2.5V | 07:59:51 | 02:47:00 | 00:00:00 | |
| DO2JMG | 2026-08-31 13:04:53 | 51.94565 | 8.43736 | 61° | 66km/h | 900m | -9.2m/s | 13.6°C | 69.3% | 912.9hPa | 2.6V | 07:59:51 | 02:46:58 | 00:00:00 | |
| BIOWL1-15 | 2026-08-31 13:04:52 | 51.94557 | 8.43712 | 61° | 68km/h | 909m | -8.5m/s | 13.6°C | 70% | 912.1hPa | 2.6V | 07:59:51 | 02:46:57 | 00:00:00 | |
| DO2JMG | 2026-08-31 13:04:51 | 51.94549 | 8.43688 | 62° | 66km/h | 917m | -7.8m/s | 13.5°C | 70.1% | 911.2hPa | 2.6V | 07:59:51 | 02:46:56 | 00:00:00 | |
| DO2JMG | 2026-08-31 13:04:50 | 51.94541 | 8.43664 | 62° | 66km/h | 925m | -8.2m/s | 13.4°C | 70.6% | 910.3hPa | 2.6V | 07:59:51 | 02:46:55 | 00:00:00 | |
| DO2JMG | 2026-08-31 13:04:49 | 51.94533 | 8.43641 | 62° | 66km/h | 933m | -8.6m/s | 13.3°C | 71.1% | 909.3hPa | 2.6V | 07:59:51 | 02:46:54 | 00:00:00 | |
| BIOWL1-15 | 2026-08-31 13:04:48 | 51.94526 | 8.43617 | 63° | 64km/h | 942m | -8.5m/s | 13.3°C | 71% | 908.4hPa | 2.6V | 07:59:51 | 02:46:53 | 00:00:00 | |
| DO2JMG | 2026-08-31 13:04:47 | 51.94518 | 8.43594 | 62° | 64km/h | 950m | -8.9m/s | 13.2°C | 71.3% | 907.6hPa | 2.5V | 07:59:51 | 02:46:52 | 00:00:00 | |
| BIOWL1-15 | 2026-08-31 13:04:46 | 51.94511 | 8.43571 | 62° | 64km/h | 959m | -9m/s | 13.1°C | 71.2% | 906.6hPa | 2.5V | 07:59:51 | 02:46:51 | 00:00:00 | |
| BIOWL1-15 | 2026-08-31 13:04:45 | 51.94503 | 8.43548 | 63° | 64km/h | 968m | -8.4m/s | 13.1°C | 71.4% | 905.7hPa | 2.6V | 07:59:51 | 02:46:50 | 00:00:00 | |
| DM0DOS-11 | 2026-08-31 13:04:44 | 51.94458 | 8.43408 | 61° | 64km/h | 1019m | -9m/s | 12.6°C | 65.3% | 900hPa | 2.5V | 07:59:43 | 02:46:44 | 00:00:00 | |
| DO2JMG | 2026-08-31 13:04:43 | 51.94488 | 8.43501 | 63° | 62km/h | 985m | -8.3m/s | 13°C | 71.9% | 903.8hPa | 2.6V | 07:59:51 | 02:46:48 | 00:00:00 | |
| BIOWL1-15 | 2026-08-31 13:04:42 | 51.94466 | 8.43432 | 63° | 64km/h | 1010m | -9m/s | 12.7°C | 72.4% | 901hPa | 2.6V | 07:59:51 | 02:46:45 | 00:00:00 | |
| DO2JMG | 2026-08-31 13:04:41 | 51.94473 | 8.43455 | 63° | 64km/h | 1001m | -8.9m/s | 12.8°C | 72.2% | 901.8hPa | 2.6V | 07:59:51 | 02:46:46 | 00:00:00 | |
| DO2JMG | 2026-08-31 13:04:39 | 51.94458 | 8.43408 | 61° | 64km/h | 1019m | -9m/s | 12.6°C | 72.5% | 900hPa | 2.5V | 07:59:51 | 02:46:44 | 00:00:00 | |
| DO2JMG | 2026-08-31 13:04:38 | 51.94451 | 8.43386 | 63° | 62km/h | 1028m | -9.2m/s | 12.6°C | 72.7% | 899.1hPa | 2.5V | 07:59:51 | 02:46:43 | 00:00:00 | |
| DO2JMG | 2026-08-31 13:04:36 | 51.94436 | 8.43339 | 62° | 64km/h | 1046m | -9.8m/s | 12.4°C | 72.7% | 897.2hPa | 2.6V | 07:59:51 | 02:46:41 | 00:00:00 | |
| BIOWL1-15 | 2026-08-31 13:04:35 | 51.94414 | 8.43271 | 62° | 62km/h | 1075m | -9.6m/s | 12.1°C | 73.3% | 894.2hPa | 2.6V | 07:59:51 | 02:46:38 | 00:00:00 | |
| DO2JMG | 2026-08-31 13:04:35 | 51.94428 | 8.43316 | 63° | 64km/h | 1056m | -9.9m/s | 12.3°C | 72.8% | 896.3hPa | 2.6V | 07:59:51 | 02:46:40 | 00:00:00 | |
| DO2JMG | 2026-08-31 13:04:34 | 51.94421 | 8.43293 | 63° | 62km/h | 1066m | -9.7m/s | 12.2°C | 73.4% | 895.1hPa | 2.6V | 07:59:51 | 02:46:39 | 00:00:00 | |
| DM0DOS-11 | 2026-08-31 13:04:32 | 51.94400 | 8.43226 | 63° | 60km/h | 1094m | -9.8m/s | 11.9°C | 67.4% | 892.1hPa | 2.5V | 07:59:51 | 02:46:36 | 00:00:00 | |
| DM0DOS-11 | 2026-08-31 13:04:32 | 51.94386 | 8.43181 | 63° | 64km/h | 1113m | -10.5m/s | 11.8°C | 67.1% | 889.9hPa | 2.6V | 07:59:53 | 02:46:34 | 00:00:00 | |
| DO2JMG | 2026-08-31 13:04:32 | 51.94407 | 8.43248 | 62° | 62km/h | 1084m | -9.5m/s | 12°C | 73.7% | 893.2hPa | 2.6V | 07:59:51 | 02:46:37 | 00:00:00 | |
| BIOWL1-15 | 2026-08-31 13:04:31 | 51.94363 | 8.43113 | 62° | 60km/h | 1145m | -11m/s | 11.5°C | 74.8% | 886.7hPa | 2.6V | 08:00:42 | 02:46:31 | 00:00:00 | |
| DO2JMG | 2026-08-31 13:04:30 | 51.94392 | 8.43204 | 64° | 60km/h | 1103m | -9.2m/s | 11.9°C | 73.5% | 890.9hPa | 2.5V | 08:00:42 | 02:46:35 | 00:00:00 | |
| DO2JMG | 2026-08-31 13:04:28 | 51.94378 | 8.43158 | 63° | 64km/h | 1123m | -11.1m/s | 11.7°C | 73.6% | 888.9hPa | 2.6V | 08:00:42 | 02:46:33 | 00:00:00 | |
| DO2JMG | 2026-08-31 13:04:28 | 51.94371 | 8.43135 | 62° | 62km/h | 1134m | -10.4m/s | 11.6°C | 74.4% | 887.9hPa | 2.6V | 08:00:42 | 02:46:32 | 00:00:00 | |
| DM0DOS-11 | 2026-08-31 13:04:26 | 51.94342 | 8.43044 | 64° | 62km/h | 1181m | -13.1m/s | 11.2°C | 68.6% | 883.2hPa | 2.5V | 07:59:59 | 02:46:28 | 00:00:00 | |
| DO2JMG | 2026-08-31 13:04:25 | 51.94356 | 8.43090 | 64° | 62km/h | 1156m | -11.9m/s | 11.4°C | 75.3% | 885.5hPa | 2.6V | 08:00:42 | 02:46:30 | 00:00:00 | |
| DO2JMG | 2026-08-31 13:04:23 | 51.94342 | 8.43045 | 64° | 62km/h | 1181m | -13.1m/s | 11.2°C | 76.9% | 883.2hPa | 2.5V | 08:00:42 | 02:46:28 | 00:00:00 | |
| DO2JMG | 2026-08-31 13:04:22 | 51.94335 | 8.43022 | 63° | 64km/h | 1194m | -13m/s | 11.1°C | 77.5% | 881.9hPa | 2.6V | 08:00:42 | 02:46:27 | 00:00:00 | |
| DM0DOS-11 | 2026-08-31 13:04:21 | 51.94300 | 8.42907 | 63° | 58km/h | 1259m | -12.6m/s | 10.6°C | 70.8% | 874.9hPa | 2.6V | 08:00:05 | 02:46:22 | 00:00:00 | |
| BIOWL1-15 | 2026-08-31 13:04:21 | 51.94328 | 8.42998 | 65° | 62km/h | 1207m | -13m/s | 11°C | 78% | 880.5hPa | 2.6V | 08:00:42 | 02:46:26 | 00:00:00 | |
| DO2JMG | 2026-08-31 13:04:20 | 51.94321 | 8.42976 | 63° | 62km/h | 1220m | -13.2m/s | 10.9°C | 78.3% | 879.1hPa | 2.6V | 08:00:42 | 02:46:25 | 00:00:00 | |
| BIOWL1-15 | 2026-08-31 13:04:19 | 51.94314 | 8.42953 | 65° | 62km/h | 1234m | -13.2m/s | 10.8°C | 78.6% | 877.8hPa | 2.6V | 08:00:42 | 02:46:24 | 00:00:00 | |
| DO2JMG | 2026-08-31 13:04:18 | 51.94307 | 8.42930 | 63° | 64km/h | 1246m | -12.6m/s | 10.7°C | 78.8% | 876.3hPa | 2.6V | 08:00:42 | 02:46:23 | 00:00:00 | |
| DO2JMG | 2026-08-31 13:04:17 | 51.94300 | 8.42907 | 64° | 60km/h | 1259m | -12.6m/s | 10.6°C | 79.1% | 874.9hPa | 2.6V | 08:00:42 | 02:46:22 | 00:00:00 | |
| DO2JMG | 2026-08-31 13:04:15 | 51.94287 | 8.42862 | 64° | 64km/h | 1283m | -11.4m/s | 10.4°C | 79.3% | 872.4hPa | 2.5V | 08:00:42 | 02:46:20 | 00:00:00 | |
| BIOWL1-15 | 2026-08-31 13:04:14 | 51.94266 | 8.42793 | 65° | 62km/h | 1316m | -11.4m/s | 10.1°C | 79.6% | 868.8hPa | 2.6V | 08:00:42 | 02:46:17 | 00:00:00 | |
| DO2JMG | 2026-08-31 13:04:13 | 51.94273 | 8.42816 | 64° | 60km/h | 1304m | -12.2m/s | 10.2°C | 79.8% | 870hPa | 2.6V | 08:00:42 | 02:46:18 | 00:00:00 | |
| DO2JMG | 2026-08-31 13:04:11 | 51.94260 | 8.42769 | 64° | 64km/h | 1326m | -10.5m/s | 10°C | 80% | 867.6hPa | 2.6V | 08:00:42 | 02:46:16 | 00:00:00 | |
| BIOWL1-15 | 2026-08-31 13:04:10 | 51.94252 | 8.42746 | 63° | 62km/h | 1338m | -12.8m/s | 9.9°C | 81% | 866.5hPa | 2.6V | 08:00:42 | 02:46:15 | 00:00:00 | |
| DM0DOS-11 | 2026-08-31 13:04:10 | 51.94231 | 8.42678 | 62° | 60km/h | 1372m | -12.2m/s | 9.7°C | 72.4% | 863.1hPa | 2.6V | 08:00:15 | 02:46:12 | 00:00:00 | |
| DO2JMG | 2026-08-31 13:04:09 | 51.94245 | 8.42724 | 63° | 60km/h | 1350m | -10.9m/s | 9.8°C | 80.6% | 865.4hPa | 2.5V | 08:00:42 | 02:46:14 | 00:00:00 | |
| BIOWL1-15 | 2026-08-31 13:04:07 | 51.94224 | 8.42656 | 64° | 60km/h | 1383m | -11.4m/s | 9.6°C | 79.9% | 862.1hPa | 2.6V | 08:00:42 | 02:46:11 | 00:00:00 | |
| DO2JMG | 2026-08-31 13:04:07 | 51.94231 | 8.42678 | 62° | 60km/h | 1372m | -12.2m/s | 9.7°C | 80.3% | 863.1hPa | 2.6V | 08:00:42 | 02:46:12 | 00:00:00 | |
| DO2JMG | 2026-08-31 13:04:05 | 51.94218 | 8.42633 | 65° | 64km/h | 1394m | -10.8m/s | 9.5°C | 80.1% | 860.6hPa | 2.6V | 08:00:42 | 02:46:10 | 00:00:00 | |
| DM0DOS-11 | 2026-08-31 13:04:04 | 51.94197 | 8.42564 | 62° | 60km/h | 1426m | -10.2m/s | 9.3°C | 73.1% | 857.2hPa | 2.5V | 08:00:20 | 02:46:07 | 00:00:00 | |
| BIOWL1-15 | 2026-08-31 13:04:04 | 51.94211 | 8.42610 | 65° | 60km/h | 1405m | -11m/s | 9.4°C | 80.1% | 859.6hPa | 2.6V | 08:00:42 | 02:46:09 | 00:00:00 | |
| DO2JMG | 2026-08-31 13:04:03 | 51.94204 | 8.42587 | 63° | 64km/h | 1416m | -10.9m/s | 9.3°C | 79.8% | 858.4hPa | 2.6V | 08:00:42 | 02:46:08 | 00:00:00 | |
| DO2JMG | 2026-08-31 13:04:01 | 51.94190 | 8.42541 | 63° | 64km/h | 1437m | -11.8m/s | 9.2°C | 80.9% | 856.1hPa | 2.5V | 08:00:42 | 02:46:06 | 00:00:00 | |
| BIOWL1-15 | 2026-08-31 13:04:00 | 51.94182 | 8.42518 | 63° | 62km/h | 1448m | -11.1m/s | 9.2°C | 81.2% | 855hPa | 2.6V | 08:00:42 | 02:46:05 | 00:00:00 | |
| DM0DOS-11 | 2026-08-31 13:03:59 | 51.94168 | 8.42472 | 63° | 64km/h | 1470m | -10.6m/s | 9°C | 74.1% | 852.7hPa | 2.6V | 08:00:24 | 02:46:03 | 00:00:00 | |
| DO2JMG | 2026-08-31 13:03:59 | 51.94175 | 8.42495 | 64° | 62km/h | 1459m | -11.6m/s | 9.1°C | 81.2% | 853.9hPa | 2.6V | 08:00:42 | 02:46:04 | 00:00:00 | |
| BIOWL1-15 | 2026-08-31 13:03:58 | 51.94168 | 8.42472 | 64° | 64km/h | 1470m | -10.6m/s | 9°C | 81.3% | 852.7hPa | 2.6V | 08:00:42 | 02:46:03 | 00:00:00 | |
| DO2JMG | 2026-08-31 13:03:57 | 51.94161 | 8.42449 | 62° | 62km/h | 1481m | -11.1m/s | 8.9°C | 81.4% | 851.7hPa | 2.6V | 08:00:42 | 02:46:02 | 00:00:00 | |
| BIOWL1-15 | 2026-08-31 13:03:56 | 51.94154 | 8.42426 | 65° | 62km/h | 1492m | -11.1m/s | 8.9°C | 81.7% | 850.4hPa | 2.6V | 08:00:42 | 02:46:01 | 00:00:00 | |
| BIOWL1-15 | 2026-08-31 13:03:55 | 51.94147 | 8.42403 | 63° | 64km/h | 1503m | -11.3m/s | 8.8°C | 82.2% | 849.5hPa | 2.5V | 08:00:42 | 02:46:00 | 00:00:00 | |
| DO2JMG | 2026-08-31 13:03:54 | 51.94140 | 8.42380 | 64° | 60km/h | 1514m | -10.3m/s | 8.7°C | 83.1% | 848.3hPa | 2.5V | 08:00:42 | 02:45:59 | 00:00:00 | |
| DM0DOS-11 | 2026-08-31 13:03:53 | 51.94112 | 8.42289 | 63° | 60km/h | 1561m | -11.8m/s | 8.4°C | 75.8% | 843.5hPa | 2.6V | 08:00:32 | 02:45:55 | 00:00:00 | |
| DO2JMG | 2026-08-31 13:03:53 | 51.94133 | 8.42357 | 63° | 62km/h | 1526m | -12.9m/s | 8.6°C | 83.9% | 847.2hPa | 2.6V | 08:00:42 | 02:45:58 | 00:00:00 | |
| DO2JMG | 2026-08-31 13:03:51 | 51.94119 | 8.42312 | 63° | 64km/h | 1550m | -12m/s | 8.4°C | 84.5% | 844.6hPa | 2.6V | 08:00:42 | 02:45:56 | 00:00:00 | |
| DO2JMG | 2026-08-31 13:03:50 | 51.94112 | 8.42289 | 64° | 60km/h | 1561m | -11.8m/s | 8.4°C | 84% | 843.5hPa | 2.6V | 08:00:42 | 02:45:55 | 00:00:00 | |
| DM0DOS-11 | 2026-08-31 13:03:48 | 51.94084 | 8.42199 | 63° | 60km/h | 1608m | -12.4m/s | 8.1°C | 76.2% | 838.8hPa | 2.6V | 08:00:36 | 02:45:51 | 00:00:00 | |
| DO2JMG | 2026-08-31 13:03:48 | 51.94098 | 8.42244 | 63° | 60km/h | 1585m | -11m/s | 8.2°C | 83.6% | 841hPa | 2.5V | 08:00:42 | 02:45:53 | 00:00:00 | |
| BIOWL1-15 | 2026-08-31 13:03:47 | 51.94077 | 8.42176 | 63° | 64km/h | 1621m | -13.2m/s | 8°C | 85.1% | 837.6hPa | 2.6V | 08:00:42 | 02:45:50 | 00:00:00 | |
| DO2JMG | 2026-08-31 13:03:46 | 51.94084 | 8.42199 | 63° | 60km/h | 1608m | -12.5m/s | 8.1°C | 84.8% | 838.9hPa | 2.6V | 08:00:42 | 02:45:51 | 00:00:00 | |
| DL3AQ-11 | 2026-08-31 13:03:45 | 51.94077 | 8.42176 | 63° | 62km/h | 1621m | -13.2m/s | 8.0°C | 76.1% | 837.6hPa | 2.6V | 00:00:00 | 00:00:00 | 00:00:00 | |
| DO2JMG | 2026-08-31 13:03:44 | 51.94070 | 8.42154 | 63° | 60km/h | 1633m | -11.9m/s | 7.9°C | 85.7% | 836.3hPa | 2.6V | 08:00:42 | 02:45:49 | 00:00:00 | |
| DO2JMG | 2026-08-31 13:03:42 | 51.94056 | 8.42108 | 63° | 64km/h | 1658m | -12.6m/s | 7.6°C | 87% | 833.7hPa | 2.6V | 08:00:42 | 02:45:47 | 00:00:00 | |
| DO2JMG | 2026-08-31 13:03:41 | 51.94049 | 8.42085 | 62° | 62km/h | 1670m | -11.4m/s | 7.5°C | 87.5% | 832.5hPa | 2.5V | 08:00:42 | 02:45:46 | 00:00:00 | |
| DO2JMG | 2026-08-31 13:03:39 | 51.94034 | 8.42039 | 63° | 62km/h | 1695m | -12.7m/s | 7.3°C | 87.9% | 830.1hPa | 2.6V | 08:01:33 | 02:45:44 | 00:00:00 | |
| DO2JMG | 2026-08-31 13:03:38 | 51.94027 | 8.42016 | 62° | 62km/h | 1707m | -10.6m/s | 7.2°C | 88.3% | 828.7hPa | 2.6V | 08:01:33 | 02:45:43 | 00:00:00 | |
| BIOWL1-15 | 2026-08-31 13:03:37 | 51.94020 | 8.41993 | 63° | 62km/h | 1717m | -11.4m/s | 7.1°C | 89.2% | 827.7hPa | 2.6V | 08:01:33 | 02:45:42 | 00:00:00 | |
| DM0DOS-11 | 2026-08-31 13:03:37 | 51.93974 | 8.41855 | 63° | 66km/h | 1785m | -10.4m/s | 6.6°C | 81.1% | 821hPa | 2.6V | 08:00:51 | 02:45:36 | 00:00:00 | |
| DO2JMG | 2026-08-31 13:03:36 | 51.94012 | 8.41970 | 62° | 66km/h | 1729m | -13.3m/s | 7°C | 89.5% | 826.7hPa | 2.6V | 08:01:33 | 02:45:41 | 00:00:00 | |
| BIOWL1-15 | 2026-08-31 13:03:35 | 51.93989 | 8.41901 | 61° | 64km/h | 1764m | -10.1m/s | 6.8°C | 88% | 823hPa | 2.5V | 08:01:33 | 02:45:38 | 00:00:00 | |
| DO2JMG | 2026-08-31 13:03:34 | 51.93997 | 8.41924 | 61° | 64km/h | 1754m | -11.1m/s | 6.9°C | 88.6% | 824.1hPa | 2.5V | 08:01:33 | 02:45:39 | 00:00:00 | |
| BIOWL1-15 | 2026-08-31 13:03:32 | 51.93981 | 8.41878 | 61° | 64km/h | 1775m | -10.6m/s | 6.7°C | 87.9% | 821.9hPa | 2.6V | 08:01:33 | 02:45:37 | 00:00:00 | |
| DD8BA-10 | 2026-08-31 13:03:32 | 51.93981 | 8.41878 | 61° | 64km/h | 1775m | -10.6m/s | 6.6°C | 81.1% | 821.9hPa | 2.6V | 00:00:00 | 00:00:00 | 00:00:00 | |
| DM0DOS-11 | 2026-08-31 13:03:32 | 51.93921 | 8.41690 | 63° | 62km/h | 1860m | -11.8m/s | 6°C | 82.8% | 813.7hPa | 2.6V | 08:00:58 | 02:45:29 | 00:00:00 | |
| BIOWL1-15 | 2026-08-31 13:03:30 | 51.93966 | 8.41831 | 62° | 66km/h | 1795m | -10m/s | 6.5°C | 87.5% | 819.9hPa | 2.6V | 08:01:33 | 02:45:35 | 00:00:00 | |
| DO2JMG | 2026-08-31 13:03:29 | 51.93958 | 8.41807 | 63° | 66km/h | 1806m | -11.1m/s | 6.4°C | 87.9% | 818.9hPa | 2.6V | 08:01:33 | 02:45:34 | 00:00:00 | |
| BIOWL1-15 | 2026-08-31 13:03:28 | 51.93950 | 8.41783 | 62° | 64km/h | 1817m | -11m/s | 6.4°C | 87.7% | 817.9hPa | 2.6V | 08:01:33 | 02:45:33 | 00:00:00 | |
| BIOWL1-15 | 2026-08-31 13:03:27 | 51.93943 | 8.41760 | 64° | 62km/h | 1827m | -10.2m/s | 6.3°C | 87.9% | 816.8hPa | 2.5V | 08:01:33 | 02:45:32 | 00:00:00 | |
| DO2JMG | 2026-08-31 13:03:27 | 51.93936 | 8.41737 | 63° | 66km/h | 1837m | -10.6m/s | 6.2°C | 88% | 815.8hPa | 2.5V | 08:01:33 | 02:45:31 | 00:00:00 | |
| DM0DOS-11 | 2026-08-31 13:03:26 | 51.93913 | 8.41667 | 64° | 66km/h | 1871m | -11.8m/s | 5.9°C | 83.1% | 812.5hPa | 2.6V | 08:00:59 | 02:45:28 | 00:00:00 | |
| DM0DOS-11 | 2026-08-31 13:03:26 | 51.93898 | 8.41619 | 63° | 68km/h | 1895m | -12.3m/s | 5.7°C | 85.3% | 810.1hPa | 2.5V | 08:01:01 | 02:45:26 | 00:00:00 | |
| DM0DOS-11 | 2026-08-31 13:03:26 | 51.93884 | 8.41572 | 64° | 64km/h | 1921m | -13.2m/s | 5.5°C | 86.4% | 807.7hPa | 2.6V | 08:01:03 | 02:45:24 | 00:00:00 | |
| DO2JMG | 2026-08-31 13:03:25 | 51.93928 | 8.41713 | 62° | 64km/h | 1848m | -11.2m/s | 6.1°C | 89.2% | 814.7hPa | 2.6V | 08:01:33 | 02:45:30 | 00:00:00 | |
| BIOWL1-15 | 2026-08-31 13:03:25 | 51.93921 | 8.41690 | 63° | 62km/h | 1860m | -11.8m/s | 6°C | 89.7% | 813.7hPa | 2.6V | 08:01:33 | 02:45:29 | 00:00:00 | |
| DO2JMG | 2026-08-31 13:03:23 | 51.93913 | 8.41667 | 64° | 66km/h | 1871m | -11.8m/s | 5.9°C | 90.2% | 812.5hPa | 2.6V | 08:01:33 | 02:45:28 | 00:00:00 | |
| DO2JMG | 2026-08-31 13:03:21 | 51.93898 | 8.41619 | 63° | 68km/h | 1895m | -12.3m/s | 5.7°C | 92.9% | 810.1hPa | 2.5V | 08:01:33 | 02:45:26 | 00:00:00 | |
| DO2JMG | 2026-08-31 13:03:19 | 51.93884 | 8.41572 | 64° | 64km/h | 1921m | -13.2m/s | 5.5°C | 94.6% | 807.7hPa | 2.6V | 08:01:33 | 02:45:24 | 00:00:00 | |
| DM0DOS-11 | 2026-08-31 13:03:18 | 51.93855 | 8.41478 | 63° | 62km/h | 1974m | -13.7m/s | 5°C | 87% | 802.5hPa | 2.6V | 08:01:07 | 02:45:20 | 00:00:00 | |
| DM0DOS-11 | 2026-08-31 13:03:18 | 51.93841 | 8.41430 | 63° | 66km/h | 1999m | -12.1m/s | 4.8°C | 88.3% | 800hPa | 2.5V | 08:01:09 | 02:45:18 | 00:00:00 | |
| DO2JMG | 2026-08-31 13:03:18 | 51.93877 | 8.41549 | 65° | 66km/h | 1934m | -13.1m/s | 5.3°C | 95.4% | 806.5hPa | 2.6V | 08:01:33 | 02:45:23 | 00:00:00 | |
| BIOWL1-15 | 2026-08-31 13:03:16 | 51.93848 | 8.41454 | 65° | 66km/h | 1987m | -13m/s | 4.9°C | 95.5% | 801.2hPa | 2.5V | 08:01:33 | 02:45:19 | 00:00:00 | |
| DO2JMG | 2026-08-31 13:03:16 | 51.93862 | 8.41501 | 65° | 66km/h | 1960m | -13.5m/s | 5.1°C | 95.8% | 803.8hPa | 2.6V | 08:01:33 | 02:45:21 | 00:00:00 | |
| DO2JMG | 2026-08-31 13:03:15 | 51.93855 | 8.41478 | 64° | 62km/h | 1974m | -13.7m/s | 5°C | 95.6% | 802.5hPa | 2.6V | 08:01:33 | 02:45:20 | 00:00:00 | |
| DD8BA-10 | 2026-08-31 13:03:15 | 51.93855 | 8.41478 | 64° | 64km/h | 1974m | -13.6m/s | 5.0°C | 87.0% | 802.5hPa | 2.6V | 00:00:00 | 00:00:00 | 00:00:00 | |
| BIOWL7-15 | 2026-08-31 13:03:14 | 51.93855 | 8.41478 | 65° | 62km/h | 1974m | -13.7m/s | 5.0°C | 86.4% | 802.5hPa | 2.5V | 00:00:00 | 00:00:00 | 00:00:00 | |
| DK9SH | 2026-08-31 13:03:13 | 51.93848 | 8.41454 | 66° | 66km/h | 1987m | -13.0m/s | 4.9°C | 87.0% | 801.2hPa | 2.5V | 08:01:00 | 00:00:00 | 00:00:00 | |
| DM0DOS-11 | 2026-08-31 13:03:13 | 51.93806 | 8.41311 | 64° | 64km/h | 2048m | -9.2m/s | 4.6°C | 88.2% | 794.8hPa | 2.5V | 08:01:14 | 02:45:13 | 00:00:00 | |
| DO2JMG | 2026-08-31 13:03:13 | 51.93841 | 8.41430 | 64° | 66km/h | 1999m | -12.1m/s | 4.8°C | 95.3% | 800hPa | 2.5V | 08:01:33 | 02:45:18 | 00:00:00 | |
| DO2JMG | 2026-08-31 13:03:10 | 51.93820 | 8.41359 | 65° | 64km/h | 2031m | -8.3m/s | 4.7°C | 92.4% | 796.6hPa | 2.6V | 08:01:33 | 02:45:15 | 00:00:00 | |
| DO3DL | 2026-08-31 13:03:10 | 51.93820 | 8.41359 | 66° | 64km/h | 2031m | -8.3m/s | 4.7°C | 86.7% | 796.6hPa | 2.6V | 08:01:00 | 00:00:00 | 00:00:00 | |
| DB0UT-7 | 2026-08-31 13:03:06 | 51.93792 | 8.41263 | 65° | 68km/h | 2066m | -9.2m/s | 4.4°C | 88.9% | 792.9hPa | 2.6V | 00:00:00 | 00:00:00 | 00:00:00 | |
| DD8BA-10 | 2026-08-31 13:03:05 | 51.93784 | 8.41239 | 64° | 66km/h | 2075m | -9.6m/s | 4.3°C | 88.8% | 792.0hPa | 2.6V | 00:00:00 | 00:00:00 | 00:00:00 | |
| DL3AQ-11 | 2026-08-31 13:03:04 | 51.93777 | 8.41215 | 65° | 64km/h | 2084m | -9.3m/s | 4.3°C | 88.6% | 791.1hPa | 2.6V | 00:00:00 | 00:00:00 | 00:00:00 | |
| DM0DOS-11 | 2026-08-31 13:03:03 | 51.93735 | 8.41069 | 65° | 66km/h | 2142m | -9.7m/s | 3.8°C | 88% | 785.5hPa | 2.6V | 08:01:24 | 02:45:03 | 00:00:00 | |
| BIOWL1-15 | 2026-08-31 13:03:02 | 51.93763 | 8.41167 | 65° | 66km/h | 2103m | -10m/s | 4.1°C | 95.1% | 789.3hPa | 2.5V | 08:01:33 | 02:45:07 | 00:00:00 | |
| DO2JMG | 2026-08-31 13:02:59 | 51.93742 | 8.41094 | 65° | 68km/h | 2132m | -9.9m/s | 3.9°C | 94% | 786.4hPa | 2.6V | 08:01:33 | 02:45:04 | 00:00:00 | |
| BIOWL1-15 | 2026-08-31 13:02:53 | 51.93683 | 8.40897 | 64° | 68km/h | 2214m | -7.7m/s | 3.3°C | 92.5% | 778.3hPa | 2.6V | 08:01:33 | 02:44:56 | 00:00:00 | |
| DM0DOS-11 | 2026-08-31 13:02:53 | 51.93660 | 8.40821 | 65° | 68km/h | 2241m | -9.4m/s | 3.2°C | 83.4% | 775.9hPa | 2.5V | 08:01:34 | 02:44:53 | 00:00:00 | |
| DO2JMG | 2026-08-31 13:02:48 | 51.93660 | 8.40821 | 65° | 68km/h | 2241m | -9.4m/s | 3.2°C | 88.5% | 775.9hPa | 2.5V | 08:02:24 | 02:44:53 | 00:00:00 | |
| DB0UT-7 | 2026-08-31 13:02:46 | 51.93645 | 8.40770 | 65° | 69km/h | 2261m | -10.1m/s | 3.1°C | 84.0% | 773.9hPa | 2.6V | 00:00:00 | 02:44:51 | 00:00:00 | |
| DM0DOS-11 | 2026-08-31 13:02:43 | 51.93587 | 8.40568 | 65° | 71km/h | 2350m | -13.9m/s | 2.8°C | 83.9% | 765.8hPa | 2.6V | 08:01:44 | 02:44:43 | 00:00:00 | |
| BIOWL1-15 | 2026-08-31 13:02:41 | 51.93609 | 8.40644 | 64° | 68km/h | 2310m | -12.7m/s | 2.9°C | 92.9% | 769.5hPa | 2.6V | 08:02:24 | 02:44:46 | 00:00:00 | |
| DL4BBY-15 | 2026-08-31 13:02:40 | 51.93601 | 8.40619 | 66° | 71km/h | 2323m | -13.2m/s | 3.6°C | 0% | 0hPa | 2.6V | 00:00:00 | 00:00:00 | 00:00:00 | |
| DM0DOS-11 | 2026-08-31 13:02:38 | 51.93551 | 8.40436 | 67° | 73km/h | 2413m | -11.2m/s | 2.3°C | 85% | 759.8hPa | 2.6V | 08:01:49 | 02:44:38 | 00:00:00 | |
| DO2JMG | 2026-08-31 13:02:38 | 51.93587 | 8.40568 | 66° | 71km/h | 2350m | -13.9m/s | 2.8°C | 91.7% | 765.8hPa | 2.6V | 08:02:24 | 02:44:43 | 00:00:00 | |
| DJ2DS-15 | 2026-08-31 13:02:37 | 51.93580 | 8.40542 | 66° | 73km/h | 2363m | -13.5m/s | 2.7°C | 82.3% | 764.6hPa | 2.6V | 00:00:00 | 02:44:42 | 00:00:00 | |
| DO3DL | 2026-08-31 13:02:36 | 51.93580 | 8.40542 | 67° | 71km/h | 2363m | -13.6m/s | 2.7°C | 81.7% | 764.7hPa | 2.6V | 08:02:00 | 00:00:00 | 00:00:00 | |
| DM0DOS-11 | 2026-08-31 13:02:33 | 51.93515 | 8.40300 | 66° | 69km/h | 2472m | -11.1m/s | 1.8°C | 87% | 754.3hPa | 2.6V | 08:01:54 | 02:44:33 | 00:00:00 | |
| DK9SH | 2026-08-31 13:02:31 | 51.93543 | 8.40408 | 67° | 71km/h | 2424m | -11.1m/s | 2.2°C | 84.7% | 758.7hPa | 2.6V | 08:02:00 | 00:00:00 | 00:00:00 | |
| DJ2DS-15 | 2026-08-31 13:02:30 | 51.93522 | 8.40327 | 66° | 73km/h | 2460m | -12.7m/s | 1.9°C | 85.8% | 755.5hPa | 2.6V | 00:00:00 | 00:00:00 | 00:00:00 | |
| BIOWL1-15 | 2026-08-31 13:02:30 | 51.93515 | 8.40300 | 67° | 69km/h | 2472m | -11.1m/s | 1.8°C | 92.7% | 754.3hPa | 2.6V | 08:02:24 | 02:44:33 | 00:00:00 | |
| DM0DOS-11 | 2026-08-31 13:02:28 | 51.93478 | 8.40164 | 67° | 73km/h | 2525m | -12.5m/s | 1.5°C | 85.4% | 749.2hPa | 2.6V | 08:01:59 | 02:44:28 | 00:00:00 | |
| DO2JMG | 2026-08-31 13:02:27 | 51.93508 | 8.40273 | 67° | 73km/h | 2483m | -11.5m/s | 1.7°C | 92.8% | 753.3hPa | 2.6V | 08:02:24 | 02:44:32 | 00:00:00 | |
| DB0UT-7 | 2026-08-31 13:02:26 | 51.93501 | 8.40245 | 67° | 73km/h | 2495m | -12.1m/s | 1.6°C | 86.1% | 752.2hPa | 2.5V | 00:00:00 | 00:00:00 | 00:00:00 | |
| DL3AQ-11 | 2026-08-31 13:02:25 | 51.93493 | 8.40218 | 66° | 73km/h | 2506m | -9.9m/s | 1.6°C | 85.5% | 751.0hPa | 2.5V | 00:00:00 | 00:00:00 | 00:00:00 | |
| DO3DL | 2026-08-31 13:02:24 | 51.93493 | 8.40218 | 68° | 73km/h | 2506m | -9.9m/s | 1.6°C | 85.5% | 751.0hPa | 2.5V | 08:02:00 | 00:00:00 | 00:00:00 | |
| DM0DOS-11 | 2026-08-31 13:02:21 | 51.93440 | 8.40026 | 64° | 73km/h | 2583m | -11.6m/s | 1.3°C | 83.2% | 744hPa | 2.5V | 08:02:04 | 02:44:23 | 00:00:00 | |
| DO2JMG | 2026-08-31 13:02:16 | 51.93425 | 8.39972 | 66° | 73km/h | 2603m | -8.7m/s | 1.3°C | 86.5% | 741.8hPa | 2.6V | 08:02:24 | 02:44:21 | 00:00:00 | |
| DM0DOS-11 | 2026-08-31 13:02:14 | 51.93401 | 8.39892 | 64° | 75km/h | 2632m | -10.4m/s | 1.1°C | 82.2% | 739.5hPa | 2.5V | 08:02:09 | 02:44:18 | 00:00:00 | |
| BIOWL1-15 | 2026-08-31 13:02:11 | 51.93369 | 8.39784 | 65° | 75km/h | 2675m | -12.4m/s | 0.8°C | 90.2% | 735.7hPa | 2.6V | 08:02:24 | 02:44:14 | 00:00:00 | |
| DO3DL | 2026-08-31 13:02:10 | 51.93385 | 8.39837 | 65° | 75km/h | 2651m | -10.0m/s | 1.0°C | 81.4% | 737.5hPa | 2.6V | 08:02:00 | 00:00:00 | 00:00:00 | |
| DM0DOS-11 | 2026-08-31 13:02:09 | 51.93361 | 8.39757 | 62° | 71km/h | 2687m | -12.4m/s | 0.7°C | 83% | 734.5hPa | 2.6V | 08:02:14 | 02:44:13 | 00:00:00 | |
| DO2JMG | 2026-08-31 13:02:05 | 51.93337 | 8.39678 | 65° | 69km/h | 2723m | -11.6m/s | 0.5°C | 93.4% | 731.3hPa | 2.6V | 08:02:24 | 02:44:10 | 00:00:00 | |
| BIOWL7-15 | 2026-08-31 13:02:04 | 51.93337 | 8.39678 | 66° | 69km/h | 2723m | -11.6m/s | 0.5°C | 85.1% | 731.3hPa | 2.6V | 00:00:00 | 00:00:00 | 00:00:00 | |
| DM0DOS-11 | 2026-08-31 13:02:03 | 51.93285 | 8.39492 | 66° | 69km/h | 2801m | -12.2m/s | -0.2°C | 91.4% | 724.2hPa | 2.6V | 08:02:24 | 02:44:03 | 00:00:00 | |
| BIOWL1-15 | 2026-08-31 13:02:01 | 51.93292 | 8.39519 | 66° | 71km/h | 2789m | -12.1m/s | -0.1°C | 97.6% | 725.1hPa | 2.6V | 08:02:24 | 02:44:04 | 00:00:00 | |
| DO9LL-15 | 2026-08-31 13:02:00 | 51.93299 | 8.39545 | 67° | 73km/h | 2778m | -10.0m/s | -0.0°C | 90.5% | 726.0hPa | 2.6V | 00:00:00 | 02:44:05 | 00:00:00 | |
| DD8BA-10 | 2026-08-31 13:01:59 | 51.93292 | 8.39519 | 66° | 71km/h | 2789m | -12.1m/s | -0.1°C | 91.0% | 725.1hPa | 2.6V | 00:00:00 | 00:00:00 | 00:00:00 | |
| DM0DOS-11 | 2026-08-31 13:01:58 | 51.93248 | 8.39359 | 67° | 73km/h | 2852m | -11.1m/s | -0.6°C | 91.6% | 719.5hPa | 2.6V | 08:02:29 | 02:43:58 | 00:00:00 | |
| DO2JMG | 2026-08-31 13:01:55 | 51.93262 | 8.39412 | 65° | 71km/h | 2833m | -9m/s | -0.5°C | 95.5% | 721.1hPa | 2.5V | 08:03:15 | 02:44:00 | 00:00:00 | |
| BIOWL1-15 | 2026-08-31 13:01:48 | 51.93211 | 8.39220 | 68° | 73km/h | 2901m | -9.1m/s | -0.9°C | 96.2% | 714.9hPa | 2.6V | 08:03:15 | 02:43:53 | 00:00:00 | |
| DM0DOS-11 | 2026-08-31 13:01:48 | 51.93174 | 8.39080 | 67° | 77km/h | 2959m | -13.2m/s | -1.3°C | 93.3% | 710hPa | 2.6V | 08:02:39 | 02:43:48 | 00:00:00 | |
| DO2JMG | 2026-08-31 13:01:44 | 51.93181 | 8.39108 | 67° | 73km/h | 2946m | -12.4m/s | -1.3°C | 97.3% | 711.2hPa | 2.5V | 08:03:15 | 02:43:49 | 00:00:00 | |
| DD1CC1-15 | 2026-08-31 13:01:42 | 51.93174 | 8.39080 | 68° | 77km/h | 2959m | -13.2m/s | -1.3°C | 92.2% | 710.0hPa | 2.5V | 08:03:00 | 00:00:00 | 00:00:00 | |
| DO9LL-15 | 2026-08-31 13:01:40 | 51.93151 | 8.38992 | 66° | 73km/h | 2996m | -11.6m/s | -1.3°C | 90.9% | 706.6hPa | 2.5V | 00:00:00 | 02:43:45 | 00:00:00 | |
| DD8BA-10 | 2026-08-31 13:01:39 | 51.93142 | 8.38964 | 65° | 75km/h | 3006m | -10.5m/s | -1.3°C | 88.9% | 705.5hPa | 2.5V | 00:00:00 | 00:00:00 | 00:00:00 | |
| DM0DOS-11 | 2026-08-31 13:01:38 | 51.93093 | 8.38797 | 62° | 73km/h | 3081m | -11.9m/s | -1.7°C | 92% | 699.2hPa | 2.5V | 08:02:49 | 02:43:38 | 00:00:00 | |
| BIOWL1-15 | 2026-08-31 13:01:37 | 51.93093 | 8.38797 | 63° | 73km/h | 3081m | -11.9m/s | -1.7°C | 96.8% | 699.2hPa | 2.5V | 08:03:15 | 02:43:38 | 00:00:00 | |
| DO2JMG | 2026-08-31 13:01:34 | 51.93102 | 8.38824 | 64° | 73km/h | 3068m | -13.8m/s | -1.6°C | 96.5% | 700.5hPa | 2.5V | 08:03:15 | 02:43:39 | 00:00:00 | |
| DM0DOS-11 | 2026-08-31 13:01:33 | 51.93050 | 8.38665 | 62° | 71km/h | 3142m | -11.8m/s | -1.9°C | 83.3% | 694hPa | 2.5V | 08:02:54 | 02:43:33 | 00:00:00 | |
| DK9SH | 2026-08-31 13:01:31 | 51.93076 | 8.38744 | 64° | 73km/h | 3105m | -13.2m/s | -1.9°C | 90.6% | 697.5hPa | 2.5V | 08:03:00 | 00:00:00 | 00:00:00 | |
| DD8BA-10 | 2026-08-31 13:01:29 | 51.93059 | 8.38691 | 62° | 69km/h | 3130m | -12.0m/s | -1.9°C | 89.0% | 694.9hPa | 2.5V | 00:00:00 | 00:00:00 | 00:00:00 | |
| DM0DOS-11 | 2026-08-31 13:01:28 | 51.93009 | 8.38537 | 62° | 68km/h | 3202m | -12.9m/s | -2°C | 73.5% | 688.7hPa | 2.5V | 08:02:59 | 02:43:28 | 00:00:00 | |
| BIOWL1-15 | 2026-08-31 13:01:25 | 51.93009 | 8.38537 | 63° | 68km/h | 3202m | -12.9m/s | -2°C | 80% | 688.7hPa | 2.5V | 08:03:15 | 02:43:28 | 00:00:00 | |
| DO2JMG | 2026-08-31 13:01:24 | 51.93017 | 8.38562 | 61° | 69km/h | 3189m | -12.8m/s | -2°C | 78.6% | 689.8hPa | 2.6V | 08:03:15 | 02:43:29 | 00:00:00 | |
| DL1XH-west | 2026-08-31 13:01:18 | 51.92960 | 8.38391 | 62° | 64km/h | 3280m | -13.5m/s | -2.4°C | 80% | 682hPa | 2.5V | 08:03:15 | 02:43:22 | 00:00:00 | |
| DM0DOS-11 | 2026-08-31 13:01:18 | 51.92918 | 8.38273 | 60° | 64km/h | 3342m | -11.4m/s | -2.8°C | 70.7% | 676.5hPa | 2.6V | 08:03:10 | 02:43:17 | 00:00:00 | |
| HSKMA3-T | 2026-08-31 13:01:15 | 51.92943 | 8.38344 | 61° | 64km/h | 3306m | -13.8m/s | -2.5°C | 79.2% | 679.9hPa | 2.5V | 08:05:48 | 02:43:20 | 00:00:00 | |
| DO2JMG | 2026-08-31 13:01:14 | 51.92935 | 8.38320 | 61° | 68km/h | 3319m | -12.6m/s | -2.6°C | 78.5% | 678.6hPa | 2.6V | 08:03:15 | 02:43:19 | 00:00:00 | |
| BIOWL1-15 | 2026-08-31 13:01:12 | 51.92902 | 8.38227 | 60° | 66km/h | 3366m | -12.4m/s | -3°C | 84.6% | 674.5hPa | 2.5V | 08:03:15 | 02:43:15 | 00:00:00 | |
| DB0DAN | 2026-08-31 13:01:10 | 51.92902 | 8.38227 | 60° | 62km/h | 3366m | -12.4m/s | -3°C | 75.3% | 674.46hPa | 2.5V | 00:00:00 | 00:00:00 | 00:00:00 | |
| DO3DL | 2026-08-31 13:01:10 | 51.92902 | 8.38227 | 61° | 66km/h | 3366m | -12.4m/s | -3.0°C | 75.3% | 674.5hPa | 2.6V | 08:03:00 | 00:00:00 | 00:00:00 | |
| DD8BA-10 | 2026-08-31 13:01:09 | 51.92893 | 8.38203 | 62° | 69km/h | 3379m | -12.8m/s | -3.1°C | 76.6% | 673.5hPa | 2.6V | 00:00:00 | 00:00:00 | 00:00:00 | |
| DD1CC3-15 | 2026-08-31 13:01:08 | 51.92886 | 8.38178 | 63° | 68km/h | 3391m | -12.8m/s | -3.2°C | 76.7% | 672.4hPa | 2.6V | 08:03:00 | 00:00:00 | 00:00:00 | |
| DM0DOS-11 | 2026-08-31 13:01:07 | 51.92836 | 8.38031 | 62° | 69km/h | 3458m | -10.4m/s | -3.8°C | 86.9% | 666.7hPa | 2.6V | 08:03:20 | 02:43:07 | 00:00:00 | |
| DL1XH-west | 2026-08-31 13:01:07 | 51.92877 | 8.38154 | 60° | 68km/h | 3404m | -12m/s | -3.4°C | 87.3% | 671.4hPa | 2.6V | 08:03:15 | 02:43:12 | 00:00:00 | |
| DL1XH1-15 | 2026-08-31 13:01:06 | 51.92828 | 8.38005 | 63° | 69km/h | 3468m | -9.6m/s | -3.9°C | 87.4% | 665.7hPa | 2.6V | 08:03:21 | 02:43:06 | 00:00:00 | |
| HSKMA3-T | 2026-08-31 13:01:05 | 51.92860 | 8.38106 | 62° | 68km/h | 3427m | -13.1m/s | -3.6°C | 86.2% | 669.3hPa | 2.5V | 08:05:48 | 02:43:10 | 00:00:00 | |
| DO2JMG | 2026-08-31 13:01:03 | 51.92844 | 8.38056 | 62° | 69km/h | 3448m | -9.4m/s | -3.8°C | 91.4% | 667.4hPa | 2.6V | 08:04:06 | 02:43:08 | 00:00:00 | |
| BIOWL1-15 | 2026-08-31 13:01:02 | 51.92820 | 8.37980 | 63° | 69km/h | 3477m | -9.7m/s | -4°C | 92.6% | 665hPa | 2.5V | 08:04:06 | 02:43:05 | 00:00:00 | |
| DL1XH1-15 | 2026-08-31 13:01:01 | 51.92789 | 8.37879 | 63° | 69km/h | 3514m | -9.9m/s | -4.3°C | 90% | 661.9hPa | 2.6V | 08:03:26 | 02:43:01 | 00:00:00 | |
| DD1CC1-15 | 2026-08-31 13:01:00 | 51.92828 | 8.38005 | 64° | 69km/h | 3468m | -9.6m/s | -3.9°C | 86.2% | 665.7hPa | 2.6V | 08:04:00 | 00:00:00 | 00:00:00 | |
| DM0DOS-11 | 2026-08-31 13:00:57 | 51.92759 | 8.37776 | 65° | 68km/h | 3552m | -10.2m/s | -4.6°C | 89.9% | 658.8hPa | 2.6V | 08:03:30 | 02:42:57 | 00:00:00 | |
| DL1XH-west | 2026-08-31 13:00:55 | 51.92781 | 8.37853 | 64° | 71km/h | 3523m | -9m/s | -4.4°C | 94.2% | 661.2hPa | 2.5V | 08:04:06 | 02:43:00 | 00:00:00 | |
| DD1CC8 | 2026-08-31 13:00:55 | 51.92773 | 8.37827 | 64° | 69km/h | 3532m | -10.4m/s | -4.4°C | 88.7% | 660.4hPa | 2.6V | 00:00:00 | 00:00:00 | 00:00:00 | |
| DL3AQ-11 | 2026-08-31 13:00:54 | 51.92766 | 8.37801 | 65° | 68km/h | 3542m | -9.8m/s | -4.5°C | 88.8% | 659.4hPa | 2.6V | 00:00:00 | 00:00:00 | 00:00:00 | |
| DM0DOS-11 | 2026-08-31 13:00:52 | 51.92722 | 8.37649 | 65° | 69km/h | 3604m | -11.4m/s | -4.9°C | 89.5% | 654.4hPa | 2.6V | 08:03:35 | 02:42:52 | 00:00:00 | |
| DO2JMG | 2026-08-31 13:00:52 | 51.92759 | 8.37776 | 66° | 68km/h | 3552m | -10.2m/s | -4.6°C | 94.3% | 658.8hPa | 2.6V | 08:04:06 | 02:42:57 | 00:00:00 | |
| BIOWL1-15 | 2026-08-31 13:00:51 | 51.92737 | 8.37700 | 63° | 69km/h | 3583m | -9.6m/s | -4.7°C | 94.3% | 656.2hPa | 2.5V | 08:04:06 | 02:42:54 | 00:00:00 | |
| DL1XH1-15 | 2026-08-31 13:00:50 | 51.92707 | 8.37596 | 65° | 73km/h | 3627m | -10.8m/s | -5°C | 89.5% | 652.5hPa | 2.5V | 08:03:37 | 02:42:50 | 00:00:00 | |
| SONCRA | 2026-08-31 13:00:49 | 51.92737 | 8.37700 | 63° | 68km/h | 3583m | -9.6m/s | -4.7°C | 88.7% | 656.2hPa | 2.5V | 00:00:00 | 00:00:00 | 00:00:00 | |
| DL1XH-west | 2026-08-31 13:00:44 | 51.92699 | 8.37569 | 66° | 71km/h | 3637m | -11m/s | -5.1°C | 93.4% | 651.7hPa | 2.5V | 08:04:06 | 02:42:49 | 00:00:00 | |
| DO3DL | 2026-08-31 13:00:43 | 51.92699 | 8.37569 | 67° | 71km/h | 3637m | -11.0m/s | -5.1°C | 88.7% | 651.7hPa | 2.6V | 08:04:00 | 00:00:00 | 00:00:00 | |
| DM0DOS-11 | 2026-08-31 13:00:42 | 51.92647 | 8.37382 | 65° | 75km/h | 3717m | -11.5m/s | -5.8°C | 91.3% | 645.2hPa | 2.6V | 08:03:45 | 02:42:42 | 00:00:00 | |
| DO2JMG | 2026-08-31 13:00:42 | 51.92685 | 8.37516 | 67° | 71km/h | 3660m | -11.4m/s | -5.3°C | 92.9% | 650hPa | 2.6V | 08:04:06 | 02:42:47 | 00:00:00 | |
| BIOWL1-15 | 2026-08-31 13:00:38 | 51.92640 | 8.37354 | 66° | 75km/h | 3729m | -11.8m/s | -5.9°C | 94.5% | 644.4hPa | 2.6V | 08:04:06 | 02:42:41 | 00:00:00 | |
| DL1XH1-15 | 2026-08-31 13:00:38 | 51.92616 | 8.37270 | 65° | 75km/h | 3764m | -11.6m/s | -6.1°C | 88.4% | 641.6hPa | 2.6V | 08:03:49 | 02:42:38 | 00:00:00 | |
| DL1XH-west | 2026-08-31 13:00:33 | 51.92616 | 8.37270 | 66° | 75km/h | 3764m | -11.6m/s | -6.1°C | 90.6% | 641.6hPa | 2.6V | 08:04:06 | 02:42:38 | 00:00:00 | |
| DL1XH1-15 | 2026-08-31 13:00:33 | 51.92578 | 8.37132 | 64° | 73km/h | 3815m | -9.6m/s | -5.8°C | 82.2% | 637.2hPa | 2.5V | 08:03:54 | 02:42:33 | 00:00:00 | |
| DO2JMG | 2026-08-31 13:00:31 | 51.92601 | 8.37215 | 65° | 73km/h | 3784m | -9.9m/s | -6°C | 91.8% | 639.8hPa | 2.6V | 08:04:06 | 02:42:36 | 00:00:00 | |
| DK9SH | 2026-08-31 13:00:30 | 51.92601 | 8.37215 | 66° | 73km/h | 3784m | -9.9m/s | -6.0°C | 88.1% | 639.8hPa | 2.5V | 08:04:00 | 00:00:00 | 00:00:00 | |
| DD8BA-10 | 2026-08-31 13:00:29 | 51.92586 | 8.37160 | 67° | 75km/h | 3805m | -10.8m/s | -5.8°C | 84.2% | 638.0hPa | 2.5V | 00:00:00 | 00:00:00 | 00:00:00 | |
| DL1XH1-15 | 2026-08-31 13:00:28 | 51.92539 | 8.36993 | 66° | 73km/h | 3873m | -12.2m/s | -6.1°C | 78.4% | 632.5hPa | 2.5V | 08:03:59 | 02:42:28 | 00:00:00 | |
| DM0DOS-11 | 2026-08-31 13:00:27 | 51.92531 | 8.36965 | 65° | 77km/h | 3885m | -12m/s | -6.2°C | 77.5% | 631.5hPa | 2.5V | 08:04:00 | 02:42:27 | 00:00:00 | |
| BIOWL1-15 | 2026-08-31 13:00:27 | 51.92570 | 8.37105 | 66° | 77km/h | 3826m | -13m/s | -5.9°C | 86.4% | 636.4hPa | 2.5V | 08:04:06 | 02:42:32 | 00:00:00 | |
| DB0UT-7 | 2026-08-31 13:00:26 | 51.92562 | 8.37077 | 65° | 75km/h | 3839m | -12.3m/s | -5.9°C | 81.4% | 635.3hPa | 2.5V | 00:00:00 | 02:42:31 | 00:00:00 | |
| DL3AQ-11 | 2026-08-31 13:00:25 | 51.92546 | 8.37021 | 64° | 75km/h | 3861m | -12.6m/s | -6.1°C | 78.8% | 633.5hPa | 2.5V | 00:00:00 | 00:00:00 | 00:00:00 | |
| DD1CC8 | 2026-08-31 13:00:24 | 51.92539 | 8.36993 | 66° | 73km/h | 3873m | -12.2m/s | -6.1°C | 77.1% | 632.6hPa | 2.5V | 00:00:00 | 00:00:00 | 00:00:00 | |
| DL1XH1-15 | 2026-08-31 13:00:23 | 51.92491 | 8.36824 | 63° | 75km/h | 3947m | -13.2m/s | -6.7°C | 75.2% | 626.8hPa | 2.5V | 08:04:05 | 02:42:22 | 00:00:00 | |
| DL1XH-west | 2026-08-31 13:00:23 | 51.92539 | 8.36993 | 67° | 73km/h | 3873m | -12.2m/s | -6.1°C | 84% | 632.6hPa | 2.5V | 08:04:06 | 02:42:28 | 00:00:00 | |
| DO2JMG | 2026-08-31 13:00:21 | 51.92523 | 8.36937 | 66° | 77km/h | 3897m | -13m/s | -6.3°C | 83.5% | 630.7hPa | 2.6V | 08:04:06 | 02:42:26 | 00:00:00 | |
| HSKMA3-T | 2026-08-31 13:00:17 | 51.92491 | 8.36824 | 64° | 75km/h | 3947m | -13.2m/s | -6.7°C | 80.2% | 626.8hPa | 2.5V | 08:05:48 | 02:42:22 | 00:00:00 | |
| DM0DOS-11 | 2026-08-31 13:00:17 | 51.92451 | 8.36685 | 65° | 73km/h | 4009m | -12.9m/s | -6.8°C | 62.9% | 621.9hPa | 2.6V | 08:04:10 | 02:42:17 | 00:00:00 | |
| BIOWL1-15 | 2026-08-31 13:00:17 | 51.92483 | 8.36797 | 66° | 73km/h | 3959m | -10.8m/s | -6.7°C | 79% | 625.8hPa | 2.5V | 08:04:06 | 02:42:21 | 00:00:00 | |
| DL1XH-west | 2026-08-31 13:00:13 | 51.92451 | 8.36685 | 66° | 73km/h | 4009m | -12.9m/s | -6.8°C | 69.4% | 621.9hPa | 2.6V | 08:04:57 | 02:42:17 | 00:00:00 | |
| DL1XH1-15 | 2026-08-31 13:00:12 | 51.92395 | 8.36492 | 65° | 73km/h | 4097m | -13.1m/s | -7.4°C | 68.9% | 614.7hPa | 2.6V | 08:04:17 | 02:42:10 | 00:00:00 | |
| DO2JMG | 2026-08-31 13:00:10 | 51.92436 | 8.36629 | 66° | 75km/h | 4033m | -12.9m/s | -6.9°C | 67.5% | 619.8hPa | 2.5V | 08:04:57 | 02:42:15 | 00:00:00 | |
| DO3DL | 2026-08-31 13:00:10 | 51.92436 | 8.36629 | 67° | 75km/h | 4034m | -12.9m/s | -6.9°C | 59.9% | 619.8hPa | 2.6V | 08:04:00 | 00:00:00 | 00:00:00 | |
| DD8BA-10 | 2026-08-31 13:00:09 | 51.92428 | 8.36601 | 65° | 75km/h | 4046m | -12.6m/s | -7.0°C | 60.5% | 618.8hPa | 2.6V | 00:00:00 | 00:00:00 | 00:00:00 | |
| BIOWL9-15 | 2026-08-31 13:00:07 | 51.92412 | 8.36546 | 65° | 75km/h | 4072m | -12.6m/s | -7.2°C | 61.7% | 616.7hPa | 2.6V | 00:00:00 | 00:00:00 | 00:00:00 | |
| DJ2DS-15 | 2026-08-31 13:00:06 | 51.92387 | 8.36464 | 64° | 75km/h | 4110m | -12.1m/s | -7.5°C | 69.7% | 613.7hPa | 2.6V | 00:00:00 | 00:00:00 | 00:00:00 | |
| BIOWL1-15 | 2026-08-31 13:00:06 | 51.92387 | 8.36464 | 65° | 77km/h | 4110m | -12.1m/s | -7.5°C | 77% | 613.7hPa | 2.5V | 08:04:57 | 02:42:09 | 00:00:00 | |
| DL1XH1-15 | 2026-08-31 13:00:05 | 51.92355 | 8.36356 | 63° | 73km/h | 4163m | -13m/s | -7.7°C | 65.9% | 609.6hPa | 2.6V | 08:04:22 | 02:42:05 | 00:00:00 | |
| DM0DOS-11 | 2026-08-31 13:00:05 | 51.92371 | 8.36410 | 64° | 75km/h | 4136m | -12.7m/s | -7.6°C | 69.2% | 611.7hPa | 2.6V | 08:04:20 | 02:42:07 | 00:00:00 | |
| HSKMA3-T | 2026-08-31 13:00:02 | 51.92372 | 8.36410 | 64° | 75km/h | 4136m | -12.7m/s | -7.6°C | 75.2% | 611.7hPa | 2.6V | 08:05:48 | 02:42:07 | 00:00:00 | |
| DL1XH-west | 2026-08-31 13:00:01 | 51.92363 | 8.36383 | 63° | 71km/h | 4149m | -14.1m/s | -7.7°C | 74.3% | 610.7hPa | 2.6V | 08:04:57 | 02:42:06 | 00:00:00 | |
| DL1XH1-15 | 2026-08-31 13:00:00 | 51.92313 | 8.36224 | 62° | 73km/h | 4230m | -14.7m/s | -8°C | 62.1% | 604.4hPa | 2.6V | 08:04:27 | 02:42:00 | 00:00:00 | |
| DO2JMG | 2026-08-31 13:00:00 | 51.92355 | 8.36356 | 64° | 73km/h | 4163m | -13m/s | -7.7°C | 72% | 609.6hPa | 2.6V | 08:04:57 | 02:42:05 | 00:00:00 | |
| DM0DOS-11 | 2026-08-31 12:59:59 | 51.92330 | 8.36276 | 64° | 73km/h | 4203m | -13.2m/s | -7.8°C | 61.9% | 606.5hPa | 2.6V | 08:04:25 | 02:42:02 | 00:00:00 | |
| DD8BA-10 | 2026-08-31 12:59:59 | 51.92347 | 8.36330 | 64° | 73km/h | 4176m | -13.5m/s | -7.6°C | 64.1% | 608.6hPa | 2.5V | 00:00:00 | 00:00:00 | 00:00:00 | |
| DO3DL | 2026-08-31 12:59:58 | 51.92338 | 8.36303 | 64° | 75km/h | 4189m | -14.0m/s | -7.7°C | 61.5% | 607.5hPa | 2.6V | 08:04:00 | 00:00:00 | 00:00:00 | |
| DB0UT-7 | 2026-08-31 12:59:56 | 51.92322 | 8.36250 | 63° | 73km/h | 4216m | -13.0m/s | -7.8°C | 62.2% | 605.4hPa | 2.6V | 00:00:00 | 00:00:00 | 00:00:00 | |
| DL1XH1-15 | 2026-08-31 12:59:55 | 51.92271 | 8.36092 | 62° | 73km/h | 4300m | -14.2m/s | -8.6°C | 64.8% | 598.9hPa | 2.6V | 08:04:32 | 02:41:55 | 00:00:00 | |
| BUE01 | 2026-08-31 12:59:55 | 51.92314 | 8.36224 | 62° | 73km/h | 4230m | -14.7m/s | -8.0°C | 60.9% | 604.4hPa | 2.5V | 00:00:00 | 00:00:00 | 00:00:00 | |
| DM0DOS-11 | 2026-08-31 12:59:53 | 51.92289 | 8.36145 | 61° | 71km/h | 4271m | -14.3m/s | -8.3°C | 63.3% | 601.2hPa | 2.5V | 08:04:30 | 02:41:57 | 00:00:00 | |
| HSKMA3-T | 2026-08-31 12:59:52 | 51.92289 | 8.36145 | 62° | 71km/h | 4271m | -14.3m/s | -8.3°C | 70.6% | 601.2hPa | 2.5V | 08:05:48 | 02:41:57 | 00:00:00 | |
| DL1XH-west | 2026-08-31 12:59:50 | 51.92272 | 8.36092 | 63° | 73km/h | 4300m | -14.2m/s | -8.6°C | 71.5% | 598.9hPa | 2.6V | 08:04:57 | 02:41:55 | 00:00:00 | |
| DO2JMG | 2026-08-31 12:59:49 | 51.92263 | 8.36065 | 65° | 73km/h | 4314m | -13.5m/s | -8.7°C | 72.8% | 597.7hPa | 2.6V | 08:04:57 | 02:41:54 | 00:00:00 | |
| SONCRA | 2026-08-31 12:59:47 | 51.92240 | 8.35983 | 66° | 73km/h | 4355m | -13.2m/s | -8.9°C | 61.5% | 594.7hPa | 2.6V | 00:00:00 | 00:00:00 | 00:00:00 | |
| DD1CC3-15 | 2026-08-31 12:59:45 | 51.92240 | 8.35983 | 67° | 73km/h | 4355m | -13.2m/s | -8.9°C | 61.5% | 594.7hPa | 2.6V | 08:04:00 | 00:00:00 | 00:00:00 | |
| DO3DL | 2026-08-31 12:59:44 | 51.92232 | 8.35956 | 64° | 75km/h | 4368m | -13.2m/s | -9.0°C | 61.0% | 593.6hPa | 2.6V | 08:04:00 | 00:00:00 | 00:00:00 | |
| DM0DOS-11 | 2026-08-31 12:59:43 | 51.92208 | 8.35873 | 64° | 75km/h | 4409m | -14.1m/s | -9.3°C | 63.2% | 590.4hPa | 2.6V | 08:04:40 | 02:41:47 | 00:00:00 | |
| BIOWL1-15 | 2026-08-31 12:59:43 | 51.92216 | 8.35901 | 66° | 73km/h | 4396m | -13.7m/s | -9.2°C | 69.4% | 591.5hPa | 2.6V | 08:04:57 | 02:41:48 | 00:00:00 | |
| HSKMA3-T | 2026-08-31 12:59:41 | 51.92200 | 8.35846 | 66° | 75km/h | 4424m | -14.3m/s | -9.4°C | 69.7% | 589.4hPa | 2.6V | 08:05:48 | 02:41:46 | 00:00:00 | |
| DL1XH1-15 | 2026-08-31 12:59:40 | 51.92185 | 8.35792 | 64° | 71km/h | 4452m | -14.9m/s | -9.6°C | 62.2% | 587.4hPa | 2.5V | 08:04:43 | 02:41:44 | 00:00:00 | |
| DL1XH-west | 2026-08-31 12:59:39 | 51.92185 | 8.35792 | 65° | 71km/h | 4452m | -14.9m/s | -9.6°C | 69.1% | 587.4hPa | 2.5V | 08:04:57 | 02:41:44 | 00:00:00 | |
| DM0DOS-11 | 2026-08-31 12:59:38 | 51.92170 | 8.35738 | 65° | 71km/h | 4483m | -15.1m/s | -9.7°C | 63.3% | 585.2hPa | 2.6V | 08:04:45 | 02:41:42 | 00:00:00 | |
| DO2JMG | 2026-08-31 12:59:38 | 51.92177 | 8.35765 | 67° | 75km/h | 4468m | -16.1m/s | -9.7°C | 68.4% | 586.2hPa | 2.5V | 08:04:57 | 02:41:43 | 00:00:00 | |
| BIOWL1-15 | 2026-08-31 12:59:32 | 51.92134 | 8.35598 | 67° | 75km/h | 4559m | -15m/s | -10.3°C | 60.1% | 579.4hPa | 2.6V | 08:04:57 | 02:41:37 | 00:00:00 | |
| HSKMA3-T | 2026-08-31 12:59:30 | 51.92120 | 8.35542 | 65° | 73km/h | 4590m | -14.8m/s | -10.5°C | 61.7% | 577.2hPa | 2.6V | 08:05:48 | 02:41:35 | 00:00:00 | |
| DL1XH1-15 | 2026-08-31 12:59:30 | 51.92112 | 8.35514 | 66° | 75km/h | 4604m | -15m/s | -10.6°C | 58.1% | 576hPa | 2.5V | 08:04:53 | 02:41:34 | 00:00:00 | |
| DL1XH-west | 2026-08-31 12:59:29 | 51.92112 | 8.35514 | 66° | 75km/h | 4604m | -15m/s | -10.6°C | 65.7% | 576hPa | 2.5V | 08:04:57 | 02:41:34 | 00:00:00 | |
| DO2JMG | 2026-08-31 12:59:28 | 51.92105 | 8.35487 | 67° | 71km/h | 4619m | -14.4m/s | -10.7°C | 67.2% | 575hPa | 2.5V | 08:04:57 | 02:41:33 | 00:00:00 | |
| DL1XH1-15 | 2026-08-31 12:59:25 | 51.92072 | 8.35378 | 63° | 77km/h | 4681m | -16.4m/s | -11°C | 66.4% | 570.4hPa | 2.6V | 08:04:58 | 02:41:29 | 00:00:00 | |
| DO3DL | 2026-08-31 12:59:24 | 51.92072 | 8.35378 | 64° | 77km/h | 4681m | -16.4m/s | -11.0°C | 64.8% | 570.4hPa | 2.6V | 08:05:00 | 00:00:00 | 00:00:00 | |
| DM0DOS-11 | 2026-08-31 12:59:23 | 51.92046 | 8.35296 | 63° | 73km/h | 4727m | -15.8m/s | -11.3°C | 65.7% | 567hPa | 2.6V | 08:05:01 | 02:41:26 | 00:00:00 | |
| BIOWL1-15 | 2026-08-31 12:59:21 | 51.92046 | 8.35296 | 63° | 73km/h | 4727m | -15.8m/s | -11.4°C | 73.3% | 567hPa | 2.6V | 08:05:48 | 02:41:26 | 00:00:00 | |
| DL1XH1-15 | 2026-08-31 12:59:20 | 51.92029 | 8.35241 | 63° | 73km/h | 4759m | -15.4m/s | -11.7°C | 66.4% | 564.7hPa | 2.6V | 08:05:03 | 02:41:24 | 00:00:00 | |
| HSKMA3-T | 2026-08-31 12:59:19 | 51.92029 | 8.35241 | 63° | 73km/h | 4759m | -15.4m/s | -11.7°C | 73.5% | 564.7hPa | 2.6V | 08:05:48 | 02:41:24 | 00:00:00 | |
| DL1XH-west | 2026-08-31 12:59:19 | 51.92020 | 8.35214 | 62° | 78km/h | 4774m | -15m/s | -11.8°C | 73.6% | 563.6hPa | 2.5V | 08:05:48 | 02:41:23 | 00:00:00 | |
| DD8BA-10 | 2026-08-31 12:59:19 | 51.92029 | 8.35241 | 64° | 75km/h | 4759m | -15.4m/s | -11.6°C | 66.4% | 564.7hPa | 2.5V | 00:00:00 | 00:00:00 | 00:00:00 | |
| DM0DOS-11 | 2026-08-31 12:59:18 | 51.92003 | 8.35160 | 61° | 73km/h | 4802m | -14.5m/s | -12.1°C | 67.6% | 561.4hPa | 2.5V | 08:05:06 | 02:41:21 | 00:00:00 | |
| DO2JMG | 2026-08-31 12:59:17 | 51.92011 | 8.35186 | 62° | 73km/h | 4788m | -13.7m/s | -11.9°C | 74% | 562.5hPa | 2.5V | 08:05:48 | 02:41:22 | 00:00:00 | |
| DL8OAI-8 | 2026-08-31 12:59:16 | 51.92011 | 8.35186 | 63° | 73km/h | 4788m | -13.7m/s | -11.9°C | 65.7% | 562.5hPa | 2.6V | 00:00:00 | 00:00:00 | 00:00:00 | |
| DL1XH1-15 | 2026-08-31 12:59:15 | 51.91985 | 8.35105 | 63° | 75km/h | 4833m | -15.2m/s | -12.3°C | 68.5% | 559.3hPa | 2.6V | 08:05:08 | 02:41:19 | 00:00:00 | |
| BIOWL1-15 | 2026-08-31 12:59:15 | 51.91959 | 8.35021 | 62° | 77km/h | 4877m | -15.2m/s | -12.7°C | 76.2% | 556hPa | 2.5V | 08:05:48 | 02:41:16 | 00:00:00 | |
| DO3DL | 2026-08-31 12:59:14 | 51.91985 | 8.35105 | 64° | 75km/h | 4833m | -15.2m/s | -12.3°C | 66.8% | 559.3hPa | 2.6V | 08:05:00 | 00:00:00 | 00:00:00 | |
| DL1XH1-15 | 2026-08-31 12:59:10 | 51.91941 | 8.34965 | 61° | 77km/h | 4908m | -15.8m/s | -13°C | 70.2% | 553.6hPa | 2.6V | 08:05:13 | 02:41:14 | 00:00:00 | |
| DD8BA-10 | 2026-08-31 12:59:09 | 51.91941 | 8.34965 | 62° | 77km/h | 4908m | -15.8m/s | -12.9°C | 70.2% | 553.6hPa | 2.5V | 00:00:00 | 00:00:00 | 00:00:00 | |
| DM0DOS-11 | 2026-08-31 12:59:08 | 51.91914 | 8.34881 | 62° | 78km/h | 4956m | -16.2m/s | -13.4°C | 72.8% | 550.3hPa | 2.5V | 08:05:16 | 02:41:11 | 00:00:00 | |
| HSKMA3-T | 2026-08-31 12:59:07 | 51.91923 | 8.34909 | 62° | 77km/h | 4940m | -15.8m/s | -13.2°C | 78.2% | 551.4hPa | 2.5V | 08:05:48 | 02:41:12 | 00:00:00 | |
| DL8DAS-14 | 2026-08-31 12:59:07 | 51.91914 | 8.34881 | 62° | 78km/h | 4956m | -16.2m/s | -13.4°C | 70.9% | 550.3hPa | 2.6V | 00:00:00 | 00:00:00 | 00:00:00 | |
| DL4BBY-15 | 2026-08-31 12:59:06 | 51.91914 | 8.34880 | 63° | 73km/h | 4956m | -16.1m/s | -12.5°C | 0% | 0hPa | 2.6V | 00:00:00 | 00:00:00 | 00:00:00 | |
| BIOWL9-15 | 2026-08-31 12:59:05 | 51.91905 | 8.34853 | 62° | 75km/h | 4972m | -15.3m/s | -13.5°C | 72.0% | 549.1hPa | 2.6V | 00:00:00 | 00:00:00 | 00:00:00 | |
| DD1CC3-15 | 2026-08-31 12:59:04 | 51.91905 | 8.34853 | 63° | 75km/h | 4972m | -15.3m/s | -13.5°C | 72.0% | 549.1hPa | 2.6V | 08:05:00 | 00:00:00 | 00:00:00 | |
| DJ2KF-10 | 2026-08-31 12:59:02 | 51.91878 | 8.34769 | 63° | 73km/h | 5019m | -16.1m/s | -13.9°C | 73.7% | 545.8hPa | 2.6V | 08:05:00 | 02:41:07 | 00:00:00 | |
| DL1XH1-15 | 2026-08-31 12:59:00 | 51.91814 | 8.34584 | 61° | 73km/h | 5128m | -15.8m/s | -14.8°C | 68.7% | 538.1hPa | 2.6V | 08:05:27 | 02:41:00 | 00:00:00 | |
| BIOWL1-15 | 2026-08-31 12:59:00 | 51.91859 | 8.34715 | 61° | 77km/h | 5051m | -16.4m/s | -14.1°C | 76% | 543.6hPa | 2.5V | 08:05:48 | 02:41:05 | 00:00:00 | |
| DO2JMG | 2026-08-31 12:58:57 | 51.91832 | 8.34635 | 62° | 71km/h | 5097m | -14.8m/s | -14.6°C | 74.9% | 540.3hPa | 2.5V | 08:05:48 | 02:41:02 | 00:00:00 | |
| HSKMA3-T | 2026-08-31 12:58:56 | 51.91823 | 8.34610 | 60° | 73km/h | 5112m | -15.9m/s | -14.7°C | 74.4% | 539.2hPa | 2.5V | 08:05:48 | 02:41:01 | 00:00:00 | |
| DL3AQ-11 | 2026-08-31 12:58:54 | 51.91795 | 8.34532 | 59° | 73km/h | 5158m | -16.7m/s | -15.1°C | 62.5% | 536.0hPa | 2.5V | 00:00:00 | 00:00:00 | 00:00:00 | |
| DM0DOS-11 | 2026-08-31 12:58:53 | 51.91777 | 8.34481 | 59° | 73km/h | 5191m | -16.4m/s | -15.3°C | 67.4% | 533.6hPa | 2.5V | 08:05:31 | 02:40:56 | 00:00:00 | |
| BIOWL1-15 | 2026-08-31 12:58:51 | 51.91758 | 8.34430 | 57° | 73km/h | 5222m | -15.9m/s | -15.4°C | 74.2% | 531.4hPa | 2.6V | 08:05:48 | 02:40:54 | 00:00:00 | |
| DL1XH1-15 | 2026-08-31 12:58:50 | 51.91719 | 8.34330 | 58° | 71km/h | 5284m | -14.8m/s | -15.8°C | 64.6% | 527hPa | 2.5V | 08:05:37 | 02:40:50 | 00:00:00 | |
| DO2JMG | 2026-08-31 12:58:46 | 51.91728 | 8.34355 | 57° | 73km/h | 5269m | -15.4m/s | -15.7°C | 70.5% | 528hPa | 2.5V | 08:05:48 | 02:40:51 | 00:00:00 | |
| HSKMA3-T | 2026-08-31 12:58:46 | 51.91719 | 8.34330 | 59° | 71km/h | 5284m | -14.9m/s | -15.9°C | 70% | 527hPa | 2.5V | 08:05:48 | 02:40:50 | 00:00:00 | |
| DO3DL | 2026-08-31 12:58:45 | 51.91728 | 8.34355 | 58° | 73km/h | 5269m | -15.4m/s | -15.7°C | 63.1% | 528.0hPa | 2.5V | 08:05:00 | 00:00:00 | 00:00:00 | |
| DD1CC3-15 | 2026-08-31 12:58:44 | 51.91719 | 8.34330 | 60° | 71km/h | 5284m | -14.9m/s | -15.9°C | 62.7% | 527.0hPa | 2.5V | 08:05:00 | 00:00:00 | 00:00:00 | |
| DF2AP-13 | 2026-08-31 12:58:41 | 51.91679 | 8.34233 | 57° | 71km/h | 5343m | -14.9m/s | -16.3°C | 57.9% | 522.8hPa | 2.5V | 00:00:00 | 02:40:46 | 00:00:00 | |
| DL1XH1-15 | 2026-08-31 12:58:40 | 51.91618 | 8.34088 | 56° | 73km/h | 5433m | -15.7m/s | -17°C | 51.2% | 516.7hPa | 2.5V | 08:05:47 | 02:40:40 | 00:00:00 | |
| BIOWL1-15 | 2026-08-31 12:58:38 | 51.91649 | 8.34160 | 56° | 69km/h | 5388m | -14.5m/s | -16.7°C | 55.3% | 519.9hPa | 2.6V | 08:05:48 | 02:40:43 | 00:00:00 | |
| DO2JMG | 2026-08-31 12:58:36 | 51.91618 | 8.34088 | 57° | 73km/h | 5433m | -15.7m/s | -17°C | 56.4% | 516.7hPa | 2.5V | 08:05:48 | 02:40:40 | 00:00:00 | |
| HSKMA3-T | 2026-08-31 12:58:34 | 51.91608 | 8.34064 | 55° | 69km/h | 5448m | -14.6m/s | -17.2°C | 57.2% | 515.6hPa | 2.6V | 08:05:48 | 02:40:39 | 00:00:00 | |
| DD1CC1-15 | 2026-08-31 12:58:33 | 51.91608 | 8.34064 | 56° | 69km/h | 5449m | -14.6m/s | -17.2°C | 50.5% | 515.6hPa | 2.5V | 08:05:00 | 00:00:00 | 00:00:00 | |
| DJ2KF-10 | 2026-08-31 12:58:32 | 51.91588 | 8.34015 | 58° | 69km/h | 5478m | -14.6m/s | -17.4°C | 54.1% | 513.5hPa | 2.5V | 00:00:00 | 02:40:37 | 00:00:00 | |
| DO3DL | 2026-08-31 12:58:31 | 51.91587 | 8.34015 | 58° | 73km/h | 5478m | -14.6m/s | -17.4°C | 52.4% | 513.6hPa | 2.5V | 08:06:00 | 00:00:00 | 00:00:00 | |
| DL1XH1-15 | 2026-08-31 12:58:30 | 51.91517 | 8.33843 | 56° | 73km/h | 5576m | -14.8m/s | -18.1°C | 37.1% | 506.8hPa | 2.5V | 08:05:57 | 02:40:30 | 00:00:00 | |
| BIOWL1-15 | 2026-08-31 12:58:27 | 51.91527 | 8.33867 | 55° | 71km/h | 5562m | -14.4m/s | -18°C | 42.5% | 507.7hPa | 2.6V | 08:06:39 | 02:40:31 | 00:00:00 | |
| DO2JMG | 2026-08-31 12:58:25 | 51.91517 | 8.33843 | 57° | 73km/h | 5576m | -14.8m/s | -18.1°C | 41.8% | 506.9hPa | 2.5V | 08:06:39 | 02:40:30 | 00:00:00 | |
| DL1XH-west | 2026-08-31 12:58:24 | 51.91507 | 8.33817 | 58° | 73km/h | 5591m | -14.9m/s | -18.2°C | 41% | 505.8hPa | 2.5V | 08:06:39 | 02:40:29 | 00:00:00 | |
| HSKMA3-T | 2026-08-31 12:58:23 | 51.91498 | 8.33793 | 57° | 69km/h | 5606m | -14.8m/s | -18.3°C | 45.9% | 504.8hPa | 2.6V | 08:06:39 | 02:40:28 | 00:00:00 | |
| BUE01 | 2026-08-31 12:58:22 | 51.91478 | 8.33746 | 55° | 69km/h | 5636m | -15.9m/s | -18.6°C | 47.3% | 502.8hPa | 2.6V | 00:00:00 | 00:00:00 | 00:00:00 | |
| GOEST3-10 | 2026-08-31 12:58:21 | 51.91477 | 8.33746 | 56° | 69km/h | 5636m | -15.8m/s | -18.5°C | 49.1% | 502.8hPa | 2.6V | 00:00:00 | 02:40:26 | 00:00:00 | |
| DL1XH1-15 | 2026-08-31 12:58:20 | 51.91420 | 8.33606 | 55° | 68km/h | 5727m | -14.6m/s | -19°C | 45.8% | 496.7hPa | 2.6V | 08:06:07 | 02:40:20 | 00:00:00 | |
| BIOWL1-15 | 2026-08-31 12:58:16 | 51.91430 | 8.33629 | 57° | 68km/h | 5712m | -14.7m/s | -19°C | 50.1% | 497.7hPa | 2.5V | 08:06:39 | 02:40:21 | 00:00:00 | |
| DO2JMG | 2026-08-31 12:58:15 | 51.91410 | 8.33582 | 57° | 71km/h | 5742m | -15.4m/s | -19.2°C | 51.9% | 495.7hPa | 2.6V | 08:06:39 | 02:40:19 | 00:00:00 | |
| HSKMA3-T | 2026-08-31 12:58:13 | 51.91401 | 8.33559 | 58° | 68km/h | 5756m | -14.3m/s | -19.3°C | 52.4% | 494.7hPa | 2.6V | 08:06:39 | 02:40:18 | 00:00:00 | |
| GOEST3-10 | 2026-08-31 12:58:12 | 51.91392 | 8.33536 | 56° | 71km/h | 5771m | -14.3m/s | -19.3°C | 47.4% | 493.7hPa | 2.5V | 00:00:00 | 00:00:00 | 00:00:00 | |
| DF2AP-13 | 2026-08-31 12:58:11 | 51.91382 | 8.33513 | 55° | 69km/h | 5785m | -15.0m/s | -19.5°C | 47.6% | 492.7hPa | 2.5V | 00:00:00 | 02:40:16 | 00:00:00 | |
| DL1XH1-15 | 2026-08-31 12:58:10 | 51.91323 | 8.33372 | 56° | 66km/h | 5874m | -14.8m/s | -20.2°C | 46% | 486.9hPa | 2.5V | 08:06:17 | 02:40:10 | 00:00:00 | |
| BIOWL1-15 | 2026-08-31 12:58:08 | 51.91333 | 8.33395 | 57° | 69km/h | 5859m | -15.3m/s | -20.1°C | 51.6% | 487.9hPa | 2.5V | 08:06:39 | 02:40:11 | 00:00:00 | |
| DO2JMG | 2026-08-31 12:58:04 | 51.91313 | 8.33350 | 54° | 66km/h | 5889m | -15.2m/s | -20.4°C | 50.1% | 485.9hPa | 2.5V | 08:06:39 | 02:40:09 | 00:00:00 | |
| DM0DOS-11 | 2026-08-31 12:58:03 | 51.91283 | 8.33281 | 55° | 68km/h | 5934m | -14.8m/s | -20.8°C | 38.1% | 483hPa | 2.6V | 08:06:21 | 02:40:06 | 00:00:00 | |
| DL1XH-west | 2026-08-31 12:58:03 | 51.91304 | 8.33327 | 55° | 69km/h | 5904m | -15.3m/s | -20.5°C | 49.4% | 485hPa | 2.6V | 08:06:39 | 02:40:08 | 00:00:00 | |
| HSKMA3-T | 2026-08-31 12:58:02 | 51.91293 | 8.33304 | 55° | 71km/h | 5919m | -15.2m/s | -20.6°C | 46.8% | 484hPa | 2.6V | 08:06:39 | 02:40:07 | 00:00:00 | |
| DJ2KF-10 | 2026-08-31 12:58:02 | 51.91293 | 8.33304 | 55° | 73km/h | 5919m | -15.2m/s | -20.6°C | 42.0% | 484.0hPa | 2.6V | 00:00:00 | 02:40:07 | 00:00:00 | |
| DL1XH1-15 | 2026-08-31 12:58:00 | 51.91222 | 8.33144 | 54° | 71km/h | 6024m | -15.4m/s | -21.4°C | 17.3% | 477hPa | 2.6V | 08:06:27 | 02:40:00 | 00:00:00 | |
| BIOWL1-15 | 2026-08-31 12:57:56 | 51.91233 | 8.33167 | 53° | 69km/h | 6010m | -14.5m/s | -21.3°C | 22.1% | 478hPa | 2.6V | 08:06:39 | 02:40:01 | 00:00:00 | |
| DO2JMG | 2026-08-31 12:57:54 | 51.91212 | 8.33120 | 55° | 71km/h | 6040m | -15.7m/s | -21.5°C | 20.5% | 476.1hPa | 2.5V | 08:06:39 | 02:39:59 | 00:00:00 | |
| DL1XH-west | 2026-08-31 12:57:53 | 51.91202 | 8.33097 | 55° | 68km/h | 6055m | -15.1m/s | -21.6°C | 20.9% | 475.1hPa | 2.5V | 08:06:39 | 02:39:58 | 00:00:00 | |
| DL1XH-15 | 2026-08-31 12:57:52 | 51.91181 | 8.33051 | 55° | 71km/h | 6085m | -15.2m/s | -21.8°C | 17.9% | 473hPa | 2.6V | 08:06:31 | 02:39:56 | 00:00:00 | |
| HSKMA3-T | 2026-08-31 12:57:52 | 51.91191 | 8.33074 | 53° | 69km/h | 6070m | -15m/s | -21.7°C | 21.3% | 474.1hPa | 2.5V | 08:06:39 | 02:39:57 | 00:00:00 | |
| BIOWL1-15 | 2026-08-31 12:57:47 | 51.91121 | 8.32908 | 54° | 71km/h | 6173m | -14.7m/s | -22.4°C | 22.5% | 467.4hPa | 2.6V | 08:06:39 | 02:39:50 | 00:00:00 | |
| DK9SH | 2026-08-31 12:57:46 | 51.91141 | 8.32956 | 58° | 73km/h | 6144m | -15.6m/s | -22.2°C | 16.5% | 469.3hPa | 2.5V | 08:06:00 | 00:00:00 | 00:00:00 | |
| DL3AQ-11 | 2026-08-31 12:57:45 | 51.91110 | 8.32884 | 55° | 73km/h | 6188m | -14.7m/s | -22.6°C | 18.7% | 466.5hPa | 2.5V | 00:00:00 | 00:00:00 | 00:00:00 | |
| DO3DL | 2026-08-31 12:57:44 | 51.91110 | 8.32884 | 57° | 75km/h | 6188m | -14.7m/s | -22.6°C | 18.7% | 466.5hPa | 2.5V | 08:06:00 | 00:00:00 | 00:00:00 | |
| DM0DOS-11 | 2026-08-31 12:57:43 | 51.91079 | 8.32809 | 54° | 75km/h | 6232m | -14.5m/s | -22.9°C | 25.1% | 463.8hPa | 2.5V | 08:06:41 | 02:39:46 | 00:00:00 | |
| DL1XH-west | 2026-08-31 12:57:43 | 51.91100 | 8.32858 | 57° | 73km/h | 6203m | -14.4m/s | -22.7°C | 25.1% | 465.6hPa | 2.6V | 08:06:39 | 02:39:48 | 00:00:00 | |
| HSKMA3-T | 2026-08-31 12:57:41 | 51.91079 | 8.32809 | 54° | 75km/h | 6232m | -14.5m/s | -22.9°C | 29.3% | 463.8hPa | 2.5V | 08:07:30 | 02:39:46 | 00:00:00 | |
| DF2AP-13 | 2026-08-31 12:57:41 | 51.91079 | 8.32809 | 55° | 77km/h | 6232m | -14.5m/s | -22.9°C | 25.1% | 463.7hPa | 2.5V | 00:00:00 | 02:39:46 | 00:00:00 | |
| DD8BA-10 | 2026-08-31 12:57:38 | 51.91047 | 8.32733 | 56° | 77km/h | 6274m | -13.7m/s | -23.2°C | 47.7% | 461.1hPa | 2.5V | 00:00:00 | 00:00:00 | 00:00:00 | |
| DO3DL | 2026-08-31 12:57:37 | 51.91047 | 8.32733 | 56° | 75km/h | 6274m | -13.8m/s | -23.2°C | 45.6% | 461.2hPa | 2.5V | 08:07:00 | 00:00:00 | 00:00:00 | |
| DL4BBY-15 | 2026-08-31 12:57:36 | 51.91026 | 8.32681 | 58° | 77km/h | 6301m | -14.1m/s | -22.6°C | 0% | 0hPa | 2.5V | 00:00:00 | 00:00:00 | 00:00:00 | |
| DJ2DS-15 | 2026-08-31 12:57:35 | 51.91016 | 8.32656 | 56° | 77km/h | 6316m | -14.4m/s | -23.5°C | 49.6% | 458.5hPa | 2.5V | 00:00:00 | 02:39:40 | 00:00:00 | |
| DL8OAI-8 | 2026-08-31 12:57:33 | 51.91005 | 8.32630 | 57° | 78km/h | 6331m | -15.0m/s | -23.7°C | 46.1% | 457.6hPa | 2.6V | 00:00:00 | 00:00:00 | 00:00:00 | |
| DM0DOS-11 | 2026-08-31 12:57:32 | 51.90974 | 8.32552 | 56° | 75km/h | 6375m | -14.8m/s | -24°C | 46.4% | 454.9hPa | 2.6V | 08:06:51 | 02:39:36 | 00:00:00 | |
| DL1XH-west | 2026-08-31 12:57:32 | 51.90984 | 8.32577 | 59° | 73km/h | 6361m | -14.8m/s | -23.9°C | 53.1% | 455.7hPa | 2.6V | 08:07:30 | 02:39:37 | 00:00:00 | |
| HSKMA3-T | 2026-08-31 12:57:30 | 51.90964 | 8.32526 | 58° | 77km/h | 6390m | -15.4m/s | -24.1°C | 48.4% | 453.9hPa | 2.5V | 08:07:30 | 02:39:35 | 00:00:00 | |
| BIOWL1-15 | 2026-08-31 12:57:25 | 51.90895 | 8.32340 | 58° | 77km/h | 6496m | -14.7m/s | -24.9°C | 35% | 447.4hPa | 2.5V | 08:07:30 | 02:39:28 | 00:00:00 | |
| DO3DL | 2026-08-31 12:57:23 | 51.90905 | 8.32367 | 62° | 75km/h | 6481m | -15.4m/s | -24.7°C | 26.9% | 448.4hPa | 2.6V | 08:07:00 | 00:00:00 | 00:00:00 | |
| DM0DOS-11 | 2026-08-31 12:57:22 | 51.90875 | 8.32285 | 59° | 80km/h | 6525m | -14.7m/s | -25.1°C | 35.1% | 445.6hPa | 2.6V | 08:07:01 | 02:39:26 | 00:00:00 | |
| DO2JMG | 2026-08-31 12:57:22 | 51.90885 | 8.32313 | 59° | 78km/h | 6511m | -15.2m/s | -25°C | 37.3% | 446.4hPa | 2.5V | 08:07:30 | 02:39:27 | 00:00:00 | |
| HSKMA3-T | 2026-08-31 12:57:20 | 51.90865 | 8.32258 | 60° | 77km/h | 6540m | -14.5m/s | -25.3°C | 44.1% | 444.7hPa | 2.6V | 08:07:30 | 02:39:25 | 00:00:00 | |
| BUE01 | 2026-08-31 12:57:20 | 51.90855 | 8.32231 | 58° | 75km/h | 6555m | -14.5m/s | -25.4°C | 37.1% | 443.8hPa | 2.5V | 00:00:00 | 00:00:00 | 00:00:00 | |
| DL3AQ-11 | 2026-08-31 12:57:18 | 51.90835 | 8.32176 | 59° | 78km/h | 6584m | -14.9m/s | -25.7°C | 40.0% | 442.0hPa | 2.5V | 00:00:00 | 00:00:00 | 00:00:00 | |
| DD1CC8 | 2026-08-31 12:57:17 | 51.90835 | 8.32176 | 59° | 78km/h | 6584m | -14.9m/s | -25.7°C | 40.0% | 442.0hPa | 2.5V | 00:00:00 | 00:00:00 | 00:00:00 | |
| DL1XH-15 | 2026-08-31 12:57:16 | 51.90774 | 8.32012 | 56° | 78km/h | 6675m | -15.1m/s | -26.4°C | 37.8% | 436.6hPa | 2.5V | 08:07:11 | 02:39:16 | 00:00:00 | |
| DO2JMG | 2026-08-31 12:57:11 | 51.90774 | 8.32012 | 56° | 78km/h | 6675m | -15.1m/s | -26.4°C | 43.6% | 436.6hPa | 2.5V | 08:07:30 | 02:39:16 | 00:00:00 | |
| HSKMA3-T | 2026-08-31 12:57:10 | 51.90763 | 8.31985 | 57° | 82km/h | 6690m | -15.2m/s | -26.5°C | 42.1% | 435.7hPa | 2.5V | 08:07:30 | 02:39:15 | 00:00:00 | |
| DC6BW-12 | 2026-08-31 12:57:09 | 51.90763 | 8.31985 | 58° | 82km/h | 6690m | -15.2m/s | -26.5°C | 34.3% | 435.7hPa | 2.6V | 08:07:00 | 00:00:00 | 00:00:00 | |
| DD8BA-10 | 2026-08-31 12:57:08 | 51.90741 | 8.31930 | 57° | 80km/h | 6720m | -14.7m/s | -26.7°C | 35.8% | 433.9hPa | 2.6V | 00:00:00 | 00:00:00 | 00:00:00 | |
| DK9SH | 2026-08-31 12:57:06 | 51.90719 | 8.31876 | 58° | 78km/h | 6748m | -14.3m/s | -27.0°C | 32.8% | 432.1hPa | 2.6V | 08:07:00 | 00:00:00 | 00:00:00 | |
| DM0DOS-11 | 2026-08-31 12:57:05 | 51.90660 | 8.31742 | 55° | 80km/h | 6820m | -15.1m/s | -27.5°C | 35.5% | 427.8hPa | 2.6V | 08:07:21 | 02:39:06 | 00:00:00 | |
| DL1XH-west | 2026-08-31 12:57:00 | 51.90649 | 8.31715 | 56° | 78km/h | 6835m | -14.8m/s | -27.6°C | 41.3% | 427hPa | 2.5V | 08:07:30 | 02:39:05 | 00:00:00 | |
| HSKMA3-T | 2026-08-31 12:56:59 | 51.90638 | 8.31689 | 54° | 78km/h | 6850m | -14.5m/s | -27.8°C | 41.3% | 426hPa | 2.5V | 08:07:30 | 02:39:04 | 00:00:00 | |
| DF7PN | 2026-08-31 12:56:58 | 51.90626 | 8.31663 | 54° | 78km/h | 6864m | -14.6m/s | -27.9°C | 33.5% | 425.1hPa | 2.6V | 00:00:00 | 00:00:00 | 00:00:00 | |
| DO3DL | 2026-08-31 12:56:57 | 51.90627 | 8.31663 | 56° | 80km/h | 6864m | -14.6m/s | -27.9°C | 33.5% | 425.1hPa | 2.6V | 08:07:00 | 00:00:00 | 00:00:00 | |
| DB0UT-7 | 2026-08-31 12:56:56 | 51.90604 | 8.31609 | 57° | 77km/h | 6893m | -14.6m/s | -28.1°C | 36.4% | 423.4hPa | 2.6V | 00:00:00 | 00:00:00 | 00:00:00 | |
| DJ2DS-15 | 2026-08-31 12:56:55 | 51.90593 | 8.31583 | 56° | 77km/h | 6908m | -14.1m/s | -28.3°C | 36.9% | 422.6hPa | 2.6V | 00:00:00 | 02:39:00 | 00:00:00 | |
| DM0DOS-11 | 2026-08-31 12:56:54 | 51.90549 | 8.31479 | 57° | 77km/h | 6967m | -14.9m/s | -28.9°C | 36.6% | 419.2hPa | 2.6V | 08:07:31 | 02:38:56 | 00:00:00 | |
| BIOWL1-15 | 2026-08-31 12:56:50 | 51.90538 | 8.31453 | 55° | 75km/h | 6982m | -15.1m/s | -29°C | 41.5% | 418.3hPa | 2.6V | 08:08:21 | 02:38:55 | 00:00:00 | |
| DO2JMG | 2026-08-31 12:56:49 | 51.90527 | 8.31427 | 56° | 78km/h | 6997m | -15.1m/s | -29.1°C | 40.8% | 417.4hPa | 2.5V | 08:08:21 | 02:38:54 | 00:00:00 | |
| DL1XH1-15 | 2026-08-31 12:56:49 | 51.90483 | 8.31324 | 54° | 77km/h | 7055m | -14.7m/s | -29.7°C | 32.8% | 414hPa | 2.5V | 08:07:37 | 02:38:50 | 00:00:00 | |
| HSKMA3-T | 2026-08-31 12:56:48 | 51.90516 | 8.31401 | 56° | 78km/h | 7012m | -15.2m/s | -29.3°C | 40.4% | 416.6hPa | 2.5V | 08:08:21 | 02:38:53 | 00:00:00 | |
| DD8BA-10 | 2026-08-31 12:56:48 | 51.90516 | 8.31401 | 57° | 75km/h | 7012m | -15.1m/s | -29.2°C | 34.8% | 416.5hPa | 2.6V | 00:00:00 | 00:00:00 | 00:00:00 | |
| DK9SH | 2026-08-31 12:56:46 | 51.90495 | 8.31349 | 56° | 75km/h | 7041m | -14.2m/s | -29.6°C | 31.3% | 414.8hPa | 2.6V | 08:08:00 | 00:00:00 | 00:00:00 | |
| DL1XH-15 | 2026-08-31 12:56:44 | 51.90409 | 8.31146 | 56° | 75km/h | 7159m | -14.2m/s | -30.6°C | 36.1% | 407.9hPa | 2.6V | 08:07:44 | 02:38:43 | 00:00:00 | |
| BIOWL1-15 | 2026-08-31 12:56:40 | 51.90431 | 8.31197 | 55° | 77km/h | 7129m | -14.9m/s | -30.3°C | 39.2% | 409.6hPa | 2.5V | 08:08:21 | 02:38:45 | 00:00:00 | |
| DL1XH-west | 2026-08-31 12:56:39 | 51.90419 | 8.31172 | 56° | 77km/h | 7144m | -15.4m/s | -30.4°C | 40.8% | 408.9hPa | 2.5V | 08:08:21 | 02:38:44 | 00:00:00 | |
| DL1XH1-15 | 2026-08-31 12:56:39 | 51.90376 | 8.31070 | 54° | 78km/h | 7202m | -15m/s | -31°C | 37.8% | 405.5hPa | 2.5V | 08:07:47 | 02:38:40 | 00:00:00 | |
| DO2JMG | 2026-08-31 12:56:38 | 51.90409 | 8.31146 | 57° | 75km/h | 7159m | -14.2m/s | -30.6°C | 41.7% | 407.9hPa | 2.6V | 08:08:21 | 02:38:43 | 00:00:00 | |
| HSKMA3-T | 2026-08-31 12:56:37 | 51.90398 | 8.31120 | 56° | 75km/h | 7173m | -14.1m/s | -30.7°C | 42.6% | 407.2hPa | 2.6V | 08:08:21 | 02:38:42 | 00:00:00 | |
| DL4BBY-15 | 2026-08-31 12:56:36 | 51.90387 | 8.31095 | 55° | 82km/h | 7187m | -15.0m/s | -30.0°C | 0% | 0hPa | 2.5V | 00:00:00 | 00:00:00 | 00:00:00 | |
| DJ2DS-15 | 2026-08-31 12:56:35 | 51.90376 | 8.31070 | 55° | 80km/h | 7202m | -15.0m/s | -31.0°C | 37.8% | 405.5hPa | 2.5V | 00:00:00 | 02:38:40 | 00:00:00 | |
| DL3OBA | 2026-08-31 12:56:34 | 51.90376 | 8.31070 | 56° | 78km/h | 7202m | -15.0m/s | -31.0°C | 0% | 405.5hPa | 2.5V | 08:08:00 | 00:00:00 | 00:00:00 | |
| DL1XH-15 | 2026-08-31 12:56:33 | 51.90308 | 8.30912 | 55° | 80km/h | 7290m | -14.6m/s | -31.9°C | 48.1% | 400.4hPa | 2.5V | 08:07:53 | 02:38:34 | 00:00:00 | |
| DL1XH-west | 2026-08-31 12:56:29 | 51.90308 | 8.30912 | 56° | 80km/h | 7290m | -14.6m/s | -31.9°C | 53.8% | 400.4hPa | 2.5V | 08:08:21 | 02:38:34 | 00:00:00 | |
| DL1XH1-15 | 2026-08-31 12:56:28 | 51.90261 | 8.30804 | 55° | 84km/h | 7349m | -15m/s | -32.4°C | 47.6% | 397.1hPa | 2.6V | 08:07:57 | 02:38:30 | 00:00:00 | |
| DO2JMG | 2026-08-31 12:56:28 | 51.90297 | 8.30885 | 56° | 80km/h | 7305m | -15m/s | -32°C | 55% | 399.6hPa | 2.5V | 08:08:21 | 02:38:33 | 00:00:00 | |
| HSKMA3-T | 2026-08-31 12:56:26 | 51.90273 | 8.30832 | 55° | 82km/h | 7334m | -14.8m/s | -32.3°C | 54.5% | 397.8hPa | 2.6V | 08:08:21 | 02:38:31 | 00:00:00 | |
| DB0UT-7 | 2026-08-31 12:56:26 | 51.90273 | 8.30832 | 56° | 86km/h | 7334m | -14.8m/s | -32.3°C | 49.1% | 397.8hPa | 2.6V | 00:00:00 | 02:38:31 | 00:00:00 | |
| DK9SH | 2026-08-31 12:56:25 | 51.90261 | 8.30804 | 56° | 84km/h | 7349m | -15.0m/s | -32.4°C | 44.6% | 397.1hPa | 2.6V | 08:08:00 | 00:00:00 | 00:00:00 | |
| DL1XH-15 | 2026-08-31 12:56:23 | 51.90191 | 8.30638 | 53° | 84km/h | 7434m | -14.4m/s | -33.1°C | 39.5% | 392.3hPa | 2.6V | 08:08:03 | 02:38:24 | 00:00:00 | |
| DL1XH-west | 2026-08-31 12:56:19 | 51.90190 | 8.30638 | 54° | 84km/h | 7434m | -14.4m/s | -33.1°C | 44.6% | 392.3hPa | 2.6V | 08:08:21 | 02:38:24 | 00:00:00 | |
| DL1XH1-15 | 2026-08-31 12:56:18 | 51.90143 | 8.30523 | 56° | 88km/h | 7493m | -14.8m/s | -33.6°C | 38.8% | 389hPa | 2.6V | 08:08:07 | 02:38:20 | 00:00:00 | |
| BIOWL1-15 | 2026-08-31 12:56:18 | 51.90178 | 8.30609 | 56° | 84km/h | 7449m | -14.9m/s | -33.3°C | 44.3% | 391.4hPa | 2.5V | 08:08:21 | 02:38:23 | 00:00:00 | |
| DO2JMG | 2026-08-31 12:56:17 | 51.90167 | 8.30580 | 58° | 84km/h | 7464m | -14.6m/s | -33.4°C | 43.7% | 390.7hPa | 2.5V | 08:08:21 | 02:38:22 | 00:00:00 | |
| HSKMA3-T | 2026-08-31 12:56:16 | 51.90155 | 8.30552 | 56° | 84km/h | 7478m | -14.8m/s | -33.5°C | 43.3% | 389.9hPa | 2.6V | 08:08:21 | 02:38:21 | 00:00:00 | |
| DJ2DS-15 | 2026-08-31 12:56:15 | 51.90143 | 8.30523 | 57° | 89km/h | 7493m | -14.8m/s | -33.6°C | 38.8% | 389.0hPa | 2.6V | 00:00:00 | 02:38:20 | 00:00:00 | |
| DL3AQ-11 | 2026-08-31 12:56:14 | 51.90119 | 8.30463 | 57° | 84km/h | 7522m | -14.2m/s | -33.8°C | 38.3% | 387.5hPa | 2.6V | 00:00:00 | 00:00:00 | 00:00:00 | |
| DL1XH-15 | 2026-08-31 12:56:13 | 51.90071 | 8.30343 | 54° | 88km/h | 7578m | -14m/s | -34.3°C | 51.8% | 384.3hPa | 2.6V | 08:08:13 | 02:38:14 | 00:00:00 | |
| DL1XH-west | 2026-08-31 12:56:09 | 51.90071 | 8.30343 | 55° | 88km/h | 7578m | -14m/s | -34.3°C | 56.6% | 384.3hPa | 2.6V | 08:08:21 | 02:38:14 | 00:00:00 | |
| DL1XH1-15 | 2026-08-31 12:56:08 | 51.90021 | 8.30222 | 54° | 88km/h | 7636m | -14.2m/s | -34.7°C | 46.1% | 381.1hPa | 2.6V | 08:08:17 | 02:38:10 | 00:00:00 | |
| DO2JMG | 2026-08-31 12:56:07 | 51.90046 | 8.30282 | 57° | 91km/h | 7607m | -15.4m/s | -34.5°C | 55.3% | 382.7hPa | 2.5V | 08:08:21 | 02:38:12 | 00:00:00 | |
| HSKMA3-T | 2026-08-31 12:56:06 | 51.90033 | 8.30252 | 57° | 88km/h | 7622m | -14.3m/s | -34.6°C | 51.8% | 381.9hPa | 2.5V | 08:08:21 | 02:38:11 | 00:00:00 | |
| DL4BBY-15 | 2026-08-31 12:56:06 | 51.90033 | 8.30252 | 57° | 88km/h | 7622m | -14.3m/s | -33.8°C | 0% | 0hPa | 2.5V | 00:00:00 | 00:00:00 | 00:00:00 | |
| DK9SH | 2026-08-31 12:56:04 | 51.90021 | 8.30222 | 56° | 88km/h | 7636m | -14.2m/s | -34.7°C | 42.9% | 381.1hPa | 2.5V | 08:08:00 | 00:00:00 | 00:00:00 | |
| DM0DOS-11 | 2026-08-31 12:56:02 | 51.89971 | 8.30100 | 56° | 89km/h | 7693m | -14.6m/s | -35.2°C | 50.4% | 378hPa | 2.5V | 08:08:21 | 02:38:06 | 00:00:00 | |
| DL1XH-west | 2026-08-31 12:55:58 | 51.89935 | 8.30009 | 59° | 88km/h | 7737m | -14.4m/s | -35.5°C | 64.7% | 375.7hPa | 2.6V | 08:09:12 | 02:38:03 | 00:00:00 | |
| DO2JMG | 2026-08-31 12:55:56 | 51.89912 | 8.29946 | 59° | 89km/h | 7765m | -13.5m/s | -35.8°C | 68.1% | 374.1hPa | 2.5V | 08:09:12 | 02:38:01 | 00:00:00 | |
| HSKMA3-T | 2026-08-31 12:55:55 | 51.89900 | 8.29916 | 59° | 86km/h | 7778m | -13.2m/s | -35.8°C | 68% | 373.4hPa | 2.6V | 08:09:12 | 02:38:00 | 00:00:00 | |
| DF8AY | 2026-08-31 12:55:53 | 51.89878 | 8.29854 | 58° | 86km/h | 7807m | -13.5m/s | 0°C | 0% | 0hPa | 2.5V | 18:12:15 | 02:37:58 | 00:00:00 | |
| DL8OAI-8 | 2026-08-31 12:55:52 | 51.89878 | 8.29854 | 59° | 86km/h | 7807m | -13.5m/s | -36.0°C | 56.7% | 371.9hPa | 2.5V | 00:00:00 | 00:00:00 | 00:00:00 | |
| DO3DL | 2026-08-31 12:55:49 | 51.89845 | 8.29762 | 62° | 89km/h | 7847m | -14.1m/s | -36.2°C | 54.0% | 369.7hPa | 2.5V | 08:09:00 | 00:00:00 | 00:00:00 | |
| DL1XH1-15 | 2026-08-31 12:55:48 | 51.89792 | 8.29606 | 61° | 89km/h | 7914m | -13.7m/s | -36.8°C | 57% | 366.2hPa | 2.5V | 08:08:37 | 02:37:50 | 00:00:00 | |
| DL1XH-west | 2026-08-31 12:55:47 | 51.89813 | 8.29669 | 60° | 88km/h | 7887m | -13.1m/s | -36.5°C | 62.5% | 367.6hPa | 2.5V | 08:09:12 | 02:37:52 | 00:00:00 | |
| DM0DOS-11 | 2026-08-31 12:55:46 | 51.89749 | 8.29479 | 61° | 91km/h | 7966m | -13.9m/s | -37.2°C | 52.8% | 363.3hPa | 2.5V | 08:08:41 | 02:37:46 | 00:00:00 | |
| BIOWL1-15 | 2026-08-31 12:55:46 | 51.89739 | 8.29446 | 63° | 91km/h | 7980m | -14.3m/s | -37.2°C | 55.2% | 362.6hPa | 2.5V | 08:09:12 | 02:37:45 | 00:00:00 | |
| DO2JMG | 2026-08-31 12:55:45 | 51.89792 | 8.29606 | 62° | 89km/h | 7914m | -13.7m/s | -36.8°C | 61.9% | 366.2hPa | 2.5V | 08:09:12 | 02:37:50 | 00:00:00 | |
| DL3AQ-11 | 2026-08-31 12:55:45 | 51.89792 | 8.29606 | 61° | 88km/h | 7914m | -13.7m/s | -36.8°C | 53.1% | 366.2hPa | 2.6V | 00:00:00 | 00:00:00 | 00:00:00 | |
| HSKMA3-T | 2026-08-31 12:55:44 | 51.89782 | 8.29575 | 61° | 86km/h | 7927m | -12.9m/s | -36.9°C | 61.3% | 365.4hPa | 2.6V | 08:09:12 | 02:37:49 | 00:00:00 | |
| DK9SH | 2026-08-31 12:55:44 | 51.89782 | 8.29575 | 62° | 86km/h | 7927m | -12.9m/s | -36.9°C | 52.6% | 365.4hPa | 2.5V | 08:09:00 | 00:00:00 | 00:00:00 | |
| DO3DL | 2026-08-31 12:55:42 | 51.89771 | 8.29543 | 63° | 91km/h | 7940m | -13.5m/s | -37.0°C | 51.7% | 364.8hPa | 2.5V | 08:09:00 | 00:00:00 | 00:00:00 | |
| DB0ND-19 | 2026-08-31 12:55:41 | 51.89749 | 8.29479 | 61° | 89km/h | 7966m | -13.9m/s | -37.2°C | 49.0% | 363.3hPa | 2.5V | 00:00:00 | 00:00:00 | 00:00:00 | |
| DD1CC3-15 | 2026-08-31 12:55:40 | 51.89738 | 8.29446 | 64° | 91km/h | 7980m | -14.3m/s | -37.2°C | 46.6% | 362.6hPa | 2.5V | 08:09:00 | 00:00:00 | 00:00:00 | |
| DL1XH1-15 | 2026-08-31 12:55:38 | 51.89685 | 8.29282 | 61° | 91km/h | 8052m | -14.7m/s | -37.6°C | 49% | 358.9hPa | 2.5V | 08:08:47 | 02:37:40 | 00:00:00 | |
| DL1XH-west | 2026-08-31 12:55:36 | 51.89696 | 8.29315 | 62° | 89km/h | 8037m | -14.7m/s | -37.4°C | 54.3% | 359.7hPa | 2.5V | 08:09:12 | 02:37:41 | 00:00:00 | |
| DO2JMG | 2026-08-31 12:55:35 | 51.89674 | 8.29249 | 62° | 93km/h | 8067m | -15.4m/s | -37.7°C | 55% | 358.1hPa | 2.6V | 08:09:12 | 02:37:39 | 00:00:00 | |
| DL1NUX | 2026-08-31 12:55:34 | 51.89642 | 8.29148 | 63° | 93km/h | 8111m | -14.5m/s | -38.1°C | 50.8% | 355.9hPa | 2.5V | 08:08:51 | 02:37:36 | 00:00:00 | |
| HSKMA3-T | 2026-08-31 12:55:33 | 51.89664 | 8.29215 | 63° | 91km/h | 8081m | -14.8m/s | -37.8°C | 55.4% | 357.4hPa | 2.6V | 08:09:12 | 02:37:38 | 00:00:00 | |
| DL3OBA | 2026-08-31 12:55:32 | 51.89664 | 8.29216 | 64° | 91km/h | 8082m | -14.8m/s | -37.8°C | 0% | 357.3hPa | 2.5V | 00:00:00 | 00:00:00 | 00:00:00 | |
| DJ2KF-10 | 2026-08-31 12:55:31 | 51.89642 | 8.29148 | 64° | 93km/h | 8111m | -14.5m/s | -38.1°C | 50.8% | 355.8hPa | 2.5V | 00:00:00 | 02:37:36 | 00:00:00 | |
| DL1XH1-15 | 2026-08-31 12:55:30 | 51.89580 | 8.28946 | 64° | 93km/h | 8197m | -13.8m/s | -38.9°C | 53.9% | 351.4hPa | 2.5V | 08:08:57 | 02:37:30 | 00:00:00 | |
| BIOWL1-15 | 2026-08-31 12:55:29 | 51.89611 | 8.29047 | 64° | 93km/h | 8155m | -14.6m/s | -38.5°C | 57.2% | 353.6hPa | 2.6V | 08:09:12 | 02:37:33 | 00:00:00 | |
| DL1XH-west | 2026-08-31 12:55:25 | 51.89580 | 8.28946 | 64° | 93km/h | 8197m | -13.8m/s | -38.9°C | 58.5% | 351.4hPa | 2.5V | 08:09:12 | 02:37:30 | 00:00:00 | |
| DB0DAN | 2026-08-31 12:55:25 | 51.89580 | 8.28946 | 64° | 89km/h | 8197m | -13.8m/s | -38.9°C | 49.8% | 351.38hPa | 2.5V | 00:00:00 | 00:00:00 | 00:00:00 | |
| DO2JMG | 2026-08-31 12:55:24 | 51.89570 | 8.28912 | 65° | 91km/h | 8211m | -14.2m/s | -39.1°C | 58.9% | 350.7hPa | 2.5V | 08:09:12 | 02:37:29 | 00:00:00 | |
| DL1NUX | 2026-08-31 12:55:24 | 51.89540 | 8.28809 | 66° | 93km/h | 8252m | -13.9m/s | -39.5°C | 55.3% | 348.6hPa | 2.6V | 08:09:01 | 02:37:26 | 00:00:00 | |
| HSKMA3-T | 2026-08-31 12:55:23 | 51.89560 | 8.28877 | 65° | 93km/h | 8225m | -13.3m/s | -39.2°C | 59.3% | 349.9hPa | 2.6V | 08:09:12 | 02:37:28 | 00:00:00 | |
| BIOWL1-15 | 2026-08-31 12:55:19 | 51.89501 | 8.28671 | 66° | 95km/h | 8309m | -14.6m/s | -40°C | 60.1% | 345.6hPa | 2.6V | 08:09:12 | 02:37:22 | 00:00:00 | |
| DL1XH1-15 | 2026-08-31 12:55:18 | 51.89482 | 8.28600 | 65° | 95km/h | 8338m | -14m/s | -40.2°C | 56.4% | 344.2hPa | 2.5V | 08:09:07 | 02:37:20 | 00:00:00 | |
| DO9LL-15 | 2026-08-31 12:55:18 | 51.89511 | 8.28706 | 66° | 97km/h | 8295m | -14.9m/s | -39.8°C | 56.0% | 346.4hPa | 2.5V | 00:00:00 | 02:37:23 | 00:00:00 | |
| DJ2DS-15 | 2026-08-31 12:55:17 | 51.89501 | 8.28671 | 65° | 93km/h | 8309m | -14.6m/s | -40.0°C | 51.7% | 345.6hPa | 2.5V | 00:00:00 | 00:00:00 | 00:00:00 | |
| DL1NUX | 2026-08-31 12:55:16 | 51.89442 | 8.28460 | 64° | 93km/h | 8395m | -14m/s | -40.8°C | 57.1% | 341.4hPa | 2.5V | 08:09:11 | 02:37:16 | 00:00:00 | |
| DO2JMG | 2026-08-31 12:55:14 | 51.89472 | 8.28565 | 66° | 91km/h | 8352m | -14.7m/s | -40.4°C | 60.9% | 343.6hPa | 2.5V | 08:09:12 | 02:37:19 | 00:00:00 | |
| HSKMA3-T | 2026-08-31 12:55:12 | 51.89452 | 8.28495 | 65° | 95km/h | 8381m | -14.1m/s | -40.7°C | 61.2% | 342hPa | 2.6V | 08:09:12 | 02:37:17 | 00:00:00 | |
| DB0ND-19 | 2026-08-31 12:55:10 | 51.89432 | 8.28425 | 64° | 93km/h | 8409m | -14.0m/s | -40.9°C | 52.8% | 340.7hPa | 2.6V | 00:00:00 | 00:00:00 | 00:00:00 | |
| DO3DL | 2026-08-31 12:55:09 | 51.89432 | 8.28425 | 65° | 95km/h | 8409m | -14.0m/s | -40.9°C | 52.8% | 340.7hPa | 2.6V | 08:09:00 | 00:00:00 | 00:00:00 | |
| SONCRA | 2026-08-31 12:55:08 | 51.89402 | 8.28320 | 64° | 95km/h | 8450m | -13.7m/s | -41.3°C | 54.2% | 338.5hPa | 2.6V | 00:00:00 | 00:00:00 | 00:00:00 | |
| DC6BW-12 | 2026-08-31 12:55:07 | 51.89402 | 8.28320 | 65° | 95km/h | 8450m | -13.7m/s | -41.3°C | 54.2% | 338.5hPa | 2.6V | 08:10:00 | 00:00:00 | 00:00:00 | |
| DL4BBY-15 | 2026-08-31 12:55:06 | 51.89391 | 8.28284 | 64° | 99km/h | 8463m | -13.2m/s | -40.6°C | 0% | 0hPa | 2.6V | 00:00:00 | 00:00:00 | 00:00:00 | |
| DL3AQ-11 | 2026-08-31 12:55:05 | 51.89370 | 8.28214 | 64° | 95km/h | 8490m | -14.3m/s | -41.7°C | 55.4% | 336.5hPa | 2.6V | 00:00:00 | 00:00:00 | 00:00:00 | |
| DL1NUX | 2026-08-31 12:55:04 | 51.89337 | 8.28110 | 61° | 95km/h | 8531m | -13.7m/s | -42°C | 60.4% | 334.5hPa | 2.6V | 08:09:21 | 02:37:06 | 00:00:00 | |
| DO2JMG | 2026-08-31 12:55:04 | 51.89370 | 8.28214 | 65° | 97km/h | 8490m | -14.3m/s | -41.7°C | 63.5% | 336.5hPa | 2.5V | 08:10:03 | 02:37:09 | 00:00:00 | |
| DL1XH-west | 2026-08-31 12:55:03 | 51.89359 | 8.28179 | 63° | 95km/h | 8504m | -13.6m/s | -41.8°C | 63.8% | 335.8hPa | 2.5V | 08:10:03 | 02:37:08 | 00:00:00 | |
| HSKMA3-T | 2026-08-31 12:55:01 | 51.89337 | 8.28110 | 62° | 95km/h | 8531m | -13.7m/s | -42°C | 63.5% | 334.5hPa | 2.6V | 08:10:03 | 02:37:06 | 00:00:00 | |
| DD1CC3-15 | 2026-08-31 12:54:59 | 51.89315 | 8.28040 | 63° | 99km/h | 8559m | -14.6m/s | -42.1°C | 54.4% | 333.1hPa | 2.6V | 08:10:00 | 00:00:00 | 00:00:00 | |
| DL1XH1-15 | 2026-08-31 12:54:58 | 51.89269 | 8.27899 | 61° | 97km/h | 8615m | -14.4m/s | -42.6°C | 56.3% | 330.3hPa | 2.6V | 08:09:27 | 02:37:00 | 00:00:00 | |
| BIOWL1-15 | 2026-08-31 12:54:54 | 51.89258 | 8.27864 | 62° | 97km/h | 8630m | -14.8m/s | -42.7°C | 58.8% | 329.5hPa | 2.5V | 08:10:03 | 02:36:59 | 00:00:00 | |
| DL1NUX | 2026-08-31 12:54:54 | 51.89223 | 8.27759 | 61° | 97km/h | 8674m | -14.9m/s | -43.1°C | 50.8% | 327.5hPa | 2.6V | 08:09:31 | 02:36:56 | 00:00:00 | |
| DO2JMG | 2026-08-31 12:54:53 | 51.89246 | 8.27829 | 62° | 97km/h | 8645m | -14.4m/s | -42.8°C | 57.4% | 328.9hPa | 2.5V | 08:10:03 | 02:36:58 | 00:00:00 | |
| DL1XH-west | 2026-08-31 12:54:52 | 51.89234 | 8.27794 | 61° | 97km/h | 8659m | -15m/s | -42.9°C | 55.9% | 328.2hPa | 2.6V | 08:10:03 | 02:36:57 | 00:00:00 | |
| HSKMA3-T | 2026-08-31 12:54:50 | 51.89211 | 8.27724 | 62° | 99km/h | 8689m | -14.9m/s | -43.1°C | 51.7% | 326.8hPa | 2.5V | 08:10:03 | 02:36:55 | 00:00:00 | |
| DL1XH1-15 | 2026-08-31 12:54:50 | 51.89153 | 8.27544 | 61° | 97km/h | 8762m | -14.3m/s | -43.5°C | 46.6% | 323.3hPa | 2.6V | 08:09:37 | 02:36:50 | 00:00:00 | |
| BIOWL1-15 | 2026-08-31 12:54:46 | 51.89141 | 8.27509 | 61° | 99km/h | 8776m | -14.3m/s | -43.6°C | 49.9% | 322.5hPa | 2.5V | 08:10:03 | 02:36:49 | 00:00:00 | |
| DD1CC9-15 | 2026-08-31 12:54:45 | 51.89153 | 8.27544 | 63° | 97km/h | 8762m | -14.3m/s | -43.5°C | 42.2% | 323.3hPa | 2.6V | 08:10:00 | 00:00:00 | 00:00:00 | |
| DL1NUX | 2026-08-31 12:54:44 | 51.89103 | 8.27404 | 59° | 99km/h | 8819m | -14.3m/s | -43.8°C | 47.2% | 320.4hPa | 2.6V | 08:09:41 | 02:36:46 | 00:00:00 | |
| DL1XH-15 | 2026-08-31 12:54:44 | 51.89079 | 8.27334 | 60° | 100km/h | 8849m | -15.4m/s | -44°C | 46.5% | 319.1hPa | 2.6V | 08:09:43 | 02:36:44 | 00:00:00 | |
| DO2JMG | 2026-08-31 12:54:43 | 51.89129 | 8.27474 | 60° | 99km/h | 8790m | -14.7m/s | -43.7°C | 50.2% | 321.9hPa | 2.5V | 08:10:03 | 02:36:48 | 00:00:00 | |
| DL1XH-west | 2026-08-31 12:54:41 | 51.89103 | 8.27404 | 60° | 99km/h | 8819m | -14.3m/s | -43.8°C | 50.1% | 320.4hPa | 2.6V | 08:10:03 | 02:36:46 | 00:00:00 | |
| HSKMA3-T | 2026-08-31 12:54:39 | 51.89078 | 8.27334 | 60° | 100km/h | 8849m | -15.4m/s | -44°C | 49.5% | 319.1hPa | 2.6V | 08:10:03 | 02:36:44 | 00:00:00 | |
| DB0ND-19 | 2026-08-31 12:54:39 | 51.89078 | 8.27334 | 60° | 99km/h | 8849m | -15.4m/s | -44.0°C | 42.0% | 319.1hPa | 2.6V | 00:00:00 | 00:00:00 | 00:00:00 | |
| DL1XH1-15 | 2026-08-31 12:54:38 | 51.89027 | 8.27191 | 59° | 104km/h | 8907m | -14.3m/s | -44.5°C | 43.6% | 316.3hPa | 2.6V | 08:09:47 | 02:36:40 | 00:00:00 | |
| BIOWL1-15 | 2026-08-31 12:54:34 | 51.89014 | 8.27154 | 59° | 104km/h | 8921m | -14m/s | -44.6°C | 45.1% | 315.6hPa | 2.6V | 08:10:03 | 02:36:39 | 00:00:00 | |
| DO2JMG | 2026-08-31 12:54:33 | 51.89001 | 8.27118 | 59° | 106km/h | 8936m | -14.4m/s | -44.8°C | 43.4% | 314.9hPa | 2.5V | 08:10:03 | 02:36:38 | 00:00:00 | |
| DM0DOS-11 | 2026-08-31 12:54:31 | 51.88974 | 8.27043 | 59° | 108km/h | 8966m | -14.4m/s | -44.9°C | 36.3% | 313.6hPa | 2.6V | 08:09:51 | 02:36:36 | 00:00:00 | |
| DL1XH-west | 2026-08-31 12:54:31 | 51.88973 | 8.27043 | 59° | 108km/h | 8966m | -14.4m/s | -44.9°C | 39.1% | 313.6hPa | 2.6V | 08:10:03 | 02:36:36 | 00:00:00 | |
| DL1XH-15 | 2026-08-31 12:54:30 | 51.88946 | 8.26968 | 58° | 108km/h | 8995m | -14.8m/s | -44.9°C | 31.4% | 312.2hPa | 2.5V | 08:09:53 | 02:36:34 | 00:00:00 | |
| HSKMA3-T | 2026-08-31 12:54:28 | 51.88931 | 8.26930 | 60° | 110km/h | 9010m | -14.3m/s | -44.8°C | 31.2% | 311.5hPa | 2.5V | 08:10:03 | 02:36:33 | 00:00:00 | |
| DD8BA-10 | 2026-08-31 12:54:28 | 51.88931 | 8.26930 | 60° | 115km/h | 9010m | -14.3m/s | -44.8°C | 28.8% | 311.5hPa | 2.5V | 00:00:00 | 00:00:00 | 00:00:00 | |
| DB0DAN | 2026-08-31 12:54:25 | 51.88888 | 8.26813 | 58° | 108km/h | 9053m | -14.1m/s | -44.6°C | 20.6% | 309.56hPa | 2.6V | 00:00:00 | 00:00:00 | 00:00:00 | |
| DL1XH-15 | 2026-08-31 12:54:24 | 51.88797 | 8.26570 | 59° | 119km/h | 9141m | -17.1m/s | -45.2°C | 23% | 305.6hPa | 2.6V | 08:10:03 | 02:36:24 | 00:00:00 | |
| DO2JMG | 2026-08-31 12:54:23 | 51.88858 | 8.26734 | 58° | 115km/h | 9081m | -13.8m/s | -44.8°C | 26.3% | 308.2hPa | 2.5V | 08:10:03 | 02:36:28 | 00:00:00 | |
| DM0DOS-11 | 2026-08-31 12:54:21 | 51.88827 | 8.26653 | 59° | 117km/h | 9110m | -15.5m/s | -44.9°C | 23.3% | 306.9hPa | 2.5V | 08:10:01 | 02:36:26 | 00:00:00 | |
| DF8AY | 2026-08-31 12:54:21 | 51.88736 | 8.26401 | 60° | 122km/h | 9204m | -15.7m/s | -45.6°C | 25.1% | 302.6hPa | 2.5V | 08:10:54 | 02:36:20 | 00:00:00 | |
| DL1XH-west | 2026-08-31 12:54:21 | 51.88827 | 8.26653 | 60° | 117km/h | 9110m | -15.5m/s | -44.9°C | 26.3% | 306.9hPa | 2.5V | 08:10:03 | 02:36:26 | 00:00:00 | |
| HSKMA3-T | 2026-08-31 12:54:18 | 51.88782 | 8.26528 | 60° | 119km/h | 9158m | -16.7m/s | -45.4°C | 25.9% | 304.8hPa | 2.6V | 08:10:54 | 02:36:23 | 00:00:00 | |
| DO2JMG | 2026-08-31 12:54:12 | 51.88689 | 8.26274 | 59° | 124km/h | 9251m | -16.3m/s | -45.6°C | 22.6% | 300.5hPa | 2.5V | 08:10:54 | 02:36:17 | 00:00:00 | |
| DF8AY | 2026-08-31 12:54:11 | 51.88673 | 8.26231 | 59° | 120km/h | 9268m | -16.3m/s | -45.6°C | 22% | 299.8hPa | 2.5V | 08:10:54 | 02:36:16 | 00:00:00 | |
| DL1XH-15 | 2026-08-31 12:54:10 | 51.88641 | 8.26146 | 59° | 122km/h | 9299m | -15.1m/s | -45.7°C | 19.1% | 298.4hPa | 2.6V | 08:10:13 | 02:36:14 | 00:00:00 | |
| DL1XH-west | 2026-08-31 12:54:10 | 51.88657 | 8.26189 | 60° | 122km/h | 9284m | -15.8m/s | -45.6°C | 21.6% | 299.1hPa | 2.6V | 08:10:54 | 02:36:15 | 00:00:00 | |
| HSKMA3-T | 2026-08-31 12:54:07 | 51.88609 | 8.26062 | 59° | 119km/h | 9330m | -15m/s | -45.9°C | 21.3% | 297hPa | 2.5V | 08:10:54 | 02:36:12 | 00:00:00 | |
| DJ2DS-15 | 2026-08-31 12:54:06 | 51.88577 | 8.25978 | 57° | 120km/h | 9361m | -15.3m/s | -46.1°C | 15.8% | 295.7hPa | 2.6V | 00:00:00 | 00:00:00 | 00:00:00 | |
| DL1XH-15 | 2026-08-31 12:54:04 | 51.88483 | 8.25728 | 58° | 119km/h | 9453m | -15.5m/s | -46.5°C | 17.8% | 291.7hPa | 2.6V | 08:10:23 | 02:36:04 | 00:00:00 | |
| BIOWL1-15 | 2026-08-31 12:54:02 | 51.88530 | 8.25852 | 59° | 120km/h | 9407m | -15.1m/s | -46.3°C | 20.3% | 293.7hPa | 2.5V | 08:10:54 | 02:36:07 | 00:00:00 | |
| DM0DOS-11 | 2026-08-31 12:54:01 | 51.88515 | 8.25810 | 59° | 119km/h | 9422m | -14.8m/s | -46.3°C | 18.2% | 292.9hPa | 2.5V | 08:10:21 | 02:36:06 | 00:00:00 | |
| DO2JMG | 2026-08-31 12:54:01 | 51.88515 | 8.25810 | 59° | 119km/h | 9422m | -14.8m/s | -46.3°C | 20.2% | 292.9hPa | 2.5V | 08:10:54 | 02:36:06 | 00:00:00 | |
| DF8AY | 2026-08-31 12:54:00 | 51.88499 | 8.25769 | 59° | 119km/h | 9438m | -16m/s | -46.4°C | 20% | 292.4hPa | 2.5V | 08:10:54 | 02:36:05 | 00:00:00 | |
| DL1XH-west | 2026-08-31 12:53:59 | 51.88484 | 8.25728 | 58° | 119km/h | 9453m | -15.5m/s | -46.5°C | 19.7% | 291.7hPa | 2.6V | 08:10:54 | 02:36:04 | 00:00:00 | |
| HSKMA3-T | 2026-08-31 12:53:57 | 51.88435 | 8.25604 | 57° | 122km/h | 9499m | -15.7m/s | -46.7°C | 18.9% | 289.6hPa | 2.5V | 08:10:54 | 02:36:01 | 00:00:00 | |
| BIOWL1-15 | 2026-08-31 12:53:55 | 51.88350 | 8.25399 | 56° | 122km/h | 9574m | -14.7m/s | -47.1°C | 16.8% | 286.4hPa | 2.5V | 08:10:54 | 02:35:56 | 00:00:00 | |
| GOEST3-10 | 2026-08-31 12:53:55 | 51.88384 | 8.25481 | 56° | 120km/h | 9545m | -14.9m/s | -46.8°C | 16.3% | 287.5hPa | 2.6V | 00:00:00 | 00:00:00 | 00:00:00 | |
| DF2AP-13 | 2026-08-31 12:53:54 | 51.88384 | 8.25481 | 56° | 119km/h | 9545m | -14.9m/s | -46.8°C | 16.3% | 287.5hPa | 2.6V | 00:00:00 | 02:35:58 | 00:00:00 | |
| DL1XH-15 | 2026-08-31 12:53:52 | 51.88314 | 8.25318 | 55° | 119km/h | 9604m | -15.6m/s | -47°C | 14.9% | 285.1hPa | 2.6V | 08:10:33 | 02:35:54 | 00:00:00 | |
| DL1NUX | 2026-08-31 12:53:52 | 51.88350 | 8.25399 | 55° | 122km/h | 9574m | -14.7m/s | -47.1°C | 15.7% | 286.4hPa | 2.5V | 08:10:31 | 02:35:56 | 00:00:00 | |
| DO2JMG | 2026-08-31 12:53:50 | 51.88332 | 8.25358 | 55° | 120km/h | 9589m | -14.8m/s | -47°C | 16.3% | 285.7hPa | 2.5V | 08:10:54 | 02:35:55 | 00:00:00 | |
| DL1XH-west | 2026-08-31 12:53:49 | 51.88315 | 8.25318 | 56° | 119km/h | 9604m | -15.6m/s | -47°C | 16% | 285.1hPa | 2.6V | 08:10:54 | 02:35:54 | 00:00:00 | |
| HSKMA3-T | 2026-08-31 12:53:47 | 51.88245 | 8.25153 | 57° | 122km/h | 9665m | -15.6m/s | -47.3°C | 15.3% | 282.4hPa | 2.5V | 08:10:54 | 02:35:50 | 00:00:00 | |
| BIOWL7-15 | 2026-08-31 12:53:47 | 51.88280 | 8.25235 | 56° | 122km/h | 9635m | -15.3m/s | -47.1°C | 11.7% | 283.7hPa | 2.5V | 00:00:00 | 00:00:00 | 00:00:00 | |
| DL3AQ-11 | 2026-08-31 12:53:45 | 51.88228 | 8.25111 | 55° | 120km/h | 9680m | -15.6m/s | -47.3°C | 11.3% | 281.8hPa | 2.5V | 00:00:00 | 00:00:00 | 00:00:00 | |
| DD1CC1-15 | 2026-08-31 12:53:43 | 51.88228 | 8.25111 | 57° | 122km/h | 9680m | -15.6m/s | -47.3°C | 11.3% | 281.8hPa | 2.5V | 08:10:00 | 00:00:00 | 00:00:00 | |
| DM0DOS-11 | 2026-08-31 12:53:42 | 51.88177 | 8.24987 | 56° | 120km/h | 9728m | -16.1m/s | -47.4°C | 13.6% | 279.7hPa | 2.5V | 08:10:41 | 02:35:46 | 00:00:00 | |
| BIOWL1-15 | 2026-08-31 12:53:41 | 51.88177 | 8.24987 | 57° | 120km/h | 9728m | -16.1m/s | -47.4°C | 14.5% | 279.8hPa | 2.5V | 08:10:54 | 02:35:46 | 00:00:00 | |
| DO2JMG | 2026-08-31 12:53:40 | 51.88161 | 8.24946 | 58° | 120km/h | 9744m | -15.8m/s | -47.5°C | 14.4% | 279hPa | 2.5V | 08:10:54 | 02:35:45 | 00:00:00 | |
| DB0DAN | 2026-08-31 12:53:40 | 51.88161 | 8.24946 | 58° | 113km/h | 9744m | -15.8m/s | -47.5°C | 10.8% | 279.03hPa | 2.5V | 00:00:00 | 00:00:00 | 00:00:00 | |
| DL1XH-west | 2026-08-31 12:53:38 | 51.88129 | 8.24861 | 58° | 122km/h | 9776m | -15.4m/s | -47.6°C | 14.1% | 277.7hPa | 2.6V | 08:10:54 | 02:35:43 | 00:00:00 | |
| HSKMA3-T | 2026-08-31 12:53:35 | 51.88081 | 8.24736 | 59° | 120km/h | 9822m | -15.9m/s | -47.5°C | 13.6% | 275.8hPa | 2.5V | 08:10:54 | 02:35:40 | 00:00:00 | |
| DJ2DS-15 | 2026-08-31 12:53:35 | 51.88081 | 8.24736 | 59° | 115km/h | 9822m | -15.9m/s | -47.5°C | 12.9% | 275.7hPa | 2.5V | 00:00:00 | 02:35:40 | 00:00:00 | |
| DL1NUX | 2026-08-31 12:53:34 | 51.88019 | 8.24571 | 57° | 117km/h | 9886m | -16.1m/s | -47.7°C | 12.8% | 273.1hPa | 2.6V | 08:10:51 | 02:35:36 | 00:00:00 | |
| DL3AQ-11 | 2026-08-31 12:53:34 | 51.88050 | 8.24653 | 59° | 117km/h | 9854m | -16.4m/s | -47.7°C | 10.2% | 274.4hPa | 2.5V | 00:00:00 | 00:00:00 | 00:00:00 | |
| GOEST3-10 | 2026-08-31 12:53:33 | 51.88050 | 8.24653 | 60° | 117km/h | 9854m | -16.3m/s | -47.7°C | 13.0% | 274.4hPa | 2.5V | 00:00:00 | 00:00:00 | 00:00:00 | |
| DL1XH-15 | 2026-08-31 12:53:32 | 51.87988 | 8.24489 | 58° | 119km/h | 9917m | -16.2m/s | -47.6°C | 12.4% | 271.8hPa | 2.5V | 08:10:53 | 02:35:34 | 00:00:00 | |
| BIOWL1-15 | 2026-08-31 12:53:31 | 51.87988 | 8.24489 | 59° | 119km/h | 9917m | -16.2m/s | -47.6°C | 12.8% | 271.8hPa | 2.5V | 08:10:54 | 02:35:34 | 00:00:00 | |
| DL1XH1-15 | 2026-08-31 12:53:30 | 51.87927 | 8.24327 | 57° | 115km/h | 9981m | -15.6m/s | -47.6°C | 12.2% | 269.2hPa | 2.5V | 08:10:57 | 02:35:30 | 00:00:00 | |
| DO2JMG | 2026-08-31 12:53:30 | 51.88004 | 8.24530 | 60° | 117km/h | 9901m | -15.8m/s | -47.6°C | 12.9% | 272.5hPa | 2.5V | 08:10:54 | 02:35:35 | 00:00:00 | |
| DL1XH-west | 2026-08-31 12:53:27 | 51.87958 | 8.24408 | 59° | 115km/h | 9949m | -15.7m/s | -47.5°C | 12.7% | 270.5hPa | 2.6V | 08:11:45 | 02:35:32 | 00:00:00 | |
| HSKMA3-T | 2026-08-31 12:53:24 | 51.87912 | 8.24288 | 59° | 113km/h | 9997m | -15.7m/s | -47.7°C | 12.8% | 268.6hPa | 2.5V | 08:11:45 | 02:35:29 | 00:00:00 | |
| BIOWL1-15 | 2026-08-31 12:53:23 | 51.87850 | 8.24132 | 58° | 113km/h | 10059m | -15.7m/s | -47.9°C | 12.8% | 266hPa | 2.5V | 08:11:45 | 02:35:25 | 00:00:00 | |
| DD1CC1-15 | 2026-08-31 12:53:23 | 51.87896 | 8.24248 | 59° | 115km/h | 10012m | -15.8m/s | -47.8°C | 9.6% | 268.0hPa | 2.5V | 08:11:00 | 00:00:00 | 00:00:00 | |
| DF2AP-13 | 2026-08-31 12:53:22 | 51.87880 | 8.24209 | 57° | 110km/h | 10028m | -16.0m/s | -47.8°C | 12.4% | 267.3hPa | 2.5V | 00:00:00 | 02:35:27 | 00:00:00 | |
| DL1XH-15 | 2026-08-31 12:53:20 | 51.87835 | 8.24093 | 58° | 113km/h | 10074m | -15.9m/s | -47.8°C | 12.5% | 265.4hPa | 2.5V | 08:11:03 | 02:35:24 | 00:00:00 | |
| DL1XH1-15 | 2026-08-31 12:53:19 | 51.87775 | 8.23938 | 59° | 110km/h | 10138m | -16.2m/s | -47.7°C | 12.6% | 262.9hPa | 2.6V | 08:11:07 | 02:35:20 | 00:00:00 | |
| DO2JMG | 2026-08-31 12:53:19 | 51.87834 | 8.24093 | 58° | 113km/h | 10074m | -15.9m/s | -47.8°C | 12.8% | 265.4hPa | 2.5V | 08:11:45 | 02:35:24 | 00:00:00 | |
| AA1-15 | 2026-08-31 12:53:18 | 51.87820 | 8.24054 | 58° | 110km/h | 10090m | -15.5m/s | -47.8°C | 12.9% | 264.8hPa | 2.5V | 08:11:45 | 02:35:23 | 00:00:00 | |
| DL1XH-west | 2026-08-31 12:53:17 | 51.87805 | 8.24016 | 59° | 113km/h | 10106m | -16.5m/s | -47.8°C | 13% | 264.1hPa | 2.6V | 08:11:45 | 02:35:22 | 00:00:00 | |
| DD1CC3-15 | 2026-08-31 12:53:16 | 51.87805 | 8.24016 | 60° | 113km/h | 10106m | -16.5m/s | -47.8°C | 9.9% | 264.2hPa | 2.5V | 08:11:00 | 00:00:00 | 00:00:00 | |
| DL1XH-15 | 2026-08-31 12:53:15 | 51.87688 | 8.23708 | 60° | 108km/h | 10232m | -15.9m/s | -48.2°C | 12.7% | 259.1hPa | 2.5V | 08:11:13 | 02:35:14 | 00:00:00 | |
| DM0DOS-11 | 2026-08-31 12:53:14 | 51.87717 | 8.23784 | 59° | 111km/h | 10200m | -16.1m/s | -47.9°C | 12.6% | 260.4hPa | 2.6V | 08:11:11 | 02:35:16 | 00:00:00 | |
| HSKMA3-T | 2026-08-31 12:53:13 | 51.87746 | 8.23861 | 57° | 111km/h | 10170m | -15.4m/s | -47.9°C | 12.9% | 261.6hPa | 2.5V | 08:11:45 | 02:35:18 | 00:00:00 | |
| DO2JMG | 2026-08-31 12:53:09 | 51.87688 | 8.23708 | 60° | 108km/h | 10232m | -15.9m/s | -48.2°C | 12.8% | 259.1hPa | 2.5V | 08:11:45 | 02:35:14 | 00:00:00 | |
| DF8AY | 2026-08-31 12:53:09 | 51.87674 | 8.23669 | 60° | 111km/h | 10248m | -16.6m/s | -48.2°C | 12.6% | 258.5hPa | 2.5V | 08:11:45 | 02:35:13 | 00:00:00 | |
| DL1XH1-15 | 2026-08-31 12:53:08 | 51.87632 | 8.23554 | 60° | 108km/h | 10295m | -16.1m/s | -48.2°C | 12.2% | 256.6hPa | 2.5V | 08:11:17 | 02:35:10 | 00:00:00 | |
| DL1XH-west | 2026-08-31 12:53:06 | 51.87646 | 8.23592 | 59° | 108km/h | 10280m | -15.1m/s | -48.1°C | 12.1% | 257.2hPa | 2.6V | 08:11:45 | 02:35:11 | 00:00:00 | |
| HSKMA3-T | 2026-08-31 12:53:03 | 51.87591 | 8.23436 | 61° | 111km/h | 10344m | -16.2m/s | -48°C | 10.9% | 254.8hPa | 2.6V | 08:11:45 | 02:35:07 | 00:00:00 | |
| GOEST3-10 | 2026-08-31 12:53:03 | 51.87605 | 8.23475 | 61° | 110km/h | 10328m | -16.1m/s | -48.0°C | 11.5% | 255.4hPa | 2.5V | 00:00:00 | 00:00:00 | 00:00:00 | |
| DL1XH-15 | 2026-08-31 12:53:02 | 51.87550 | 8.23320 | 58° | 108km/h | 10392m | -15.6m/s | -48.3°C | 10.4% | 253hPa | 2.5V | 08:11:23 | 02:35:04 | 00:00:00 | |
| DL1XH1-15 | 2026-08-31 12:53:01 | 51.87483 | 8.23130 | 60° | 106km/h | 10468m | -15.2m/s | -48.4°C | 8.6% | 250hPa | 2.6V | 08:11:28 | 02:34:59 | 00:00:00 | |
| DO2JMG | 2026-08-31 12:52:58 | 51.87536 | 8.23283 | 61° | 106km/h | 10407m | -14.9m/s | -48.3°C | 9.4% | 252.3hPa | 2.5V | 08:11:45 | 02:35:03 | 00:00:00 | |
| DD8BA-10 | 2026-08-31 12:52:58 | 51.87536 | 8.23283 | 61° | 106km/h | 10407m | -14.8m/s | -48.3°C | 10.1% | 252.3hPa | 2.5V | 00:00:00 | 00:00:00 | 00:00:00 | |
| DO3DL | 2026-08-31 12:52:57 | 51.87536 | 8.23283 | 62° | 106km/h | 10407m | -14.9m/s | -48.3°C | 7.4% | 252.3hPa | 2.5V | 08:11:00 | 00:00:00 | 00:00:00 | |
| AA1-15 | 2026-08-31 12:52:57 | 51.87523 | 8.23245 | 60° | 108km/h | 10422m | -16.2m/s | -48.3°C | 8.9% | 251.8hPa | 2.5V | 08:11:45 | 02:35:02 | 00:00:00 | |
| DL1NUX | 2026-08-31 12:52:56 | 51.87445 | 8.23017 | 62° | 102km/h | 10516m | -15.8m/s | -47.8°C | 7.4% | 248.3hPa | 2.5V | 08:11:31 | 02:34:56 | 00:00:00 | |
| DL1XH-west | 2026-08-31 12:52:55 | 51.87496 | 8.23168 | 61° | 108km/h | 10453m | -15.5m/s | -48.4°C | 7.9% | 250.6hPa | 2.6V | 08:11:45 | 02:35:00 | 00:00:00 | |
| HSKMA3-T | 2026-08-31 12:52:53 | 51.87458 | 8.23055 | 62° | 104km/h | 10500m | -15.9m/s | -48°C | 6.5% | 248.8hPa | 2.5V | 08:11:45 | 02:34:57 | 00:00:00 | |
| DO2JMG | 2026-08-31 12:52:48 | 51.87411 | 8.22906 | 63° | 100km/h | 10564m | -16m/s | -47.4°C | 4.9% | 246.5hPa | 2.5V | 08:11:45 | 02:34:53 | 00:00:00 | |
| AA1-15 | 2026-08-31 12:52:46 | 51.87388 | 8.22834 | 63° | 97km/h | 10595m | -15.1m/s | -47.4°C | 4.1% | 245.3hPa | 2.6V | 08:11:45 | 02:34:51 | 00:00:00 | |
| DL1XH-west | 2026-08-31 12:52:45 | 51.87376 | 8.22799 | 62° | 99km/h | 10610m | -16m/s | -47.4°C | 3.8% | 244.8hPa | 2.6V | 08:11:45 | 02:34:50 | 00:00:00 | |
| HSKMA3-T | 2026-08-31 12:52:41 | 51.87329 | 8.22659 | 60° | 99km/h | 10676m | -15.8m/s | -47.5°C | 2.8% | 242.3hPa | 2.6V | 08:11:45 | 02:34:46 | 00:00:00 | |
| DM0DOS-11 | 2026-08-31 12:52:40 | 51.87305 | 8.22591 | 58° | 95km/h | 10708m | -15.8m/s | -47.7°C | 4.8% | 241.2hPa | 2.6V | 08:11:43 | 02:34:44 | 00:00:00 | |
| DL1XH1-15 | 2026-08-31 12:52:40 | 51.87253 | 8.22458 | 58° | 95km/h | 10773m | -17m/s | -47°C | 4.2% | 238.8hPa | 2.6V | 08:11:47 | 02:34:40 | 00:00:00 | |
| DB0DAN | 2026-08-31 12:52:40 | 51.87317 | 8.22624 | 60° | 91km/h | 10692m | -16.5m/s | -47.6°C | 2.9% | 241.86hPa | 2.6V | 00:00:00 | 00:00:00 | 00:00:00 | |
| BIOWL1-15 | 2026-08-31 12:52:37 | 51.87241 | 8.22425 | 58° | 97km/h | 10791m | -17.1m/s | -47.2°C | 1.8% | 238.2hPa | 2.6V | 08:12:36 | 02:34:39 | 00:00:00 | |
| DO2JMG | 2026-08-31 12:52:37 | 51.87279 | 8.22524 | 58° | 99km/h | 10740m | -16.7m/s | -47.2°C | 2.1% | 240hPa | 2.5V | 08:11:45 | 02:34:42 | 00:00:00 | |
| DL1XH-west | 2026-08-31 12:52:35 | 51.87253 | 8.22458 | 58° | 95km/h | 10774m | -17m/s | -47°C | 1.8% | 238.8hPa | 2.6V | 08:12:36 | 02:34:40 | 00:00:00 | |
| AA1-15 | 2026-08-31 12:52:32 | 51.87215 | 8.22358 | 59° | 95km/h | 10824m | -16.3m/s | -46.9°C | 1.4% | 237hPa | 2.5V | 08:12:36 | 02:34:37 | 00:00:00 | |
| HSKMA3-T | 2026-08-31 12:52:30 | 51.87190 | 8.22294 | 58° | 91km/h | 10857m | -16.2m/s | -46.9°C | 1.2% | 235.8hPa | 2.5V | 08:12:36 | 02:34:35 | 00:00:00 | |
| EDDB2-11 | 2026-08-31 12:52:29 | 51.87178 | 8.22261 | 58° | 91km/h | 10873m | -16.6m/s | -46.9°C | 2.0% | 235.3hPa | 2.6V | 00:00:00 | 00:00:00 | 00:00:00 | |
| DL1XH1-15 | 2026-08-31 12:52:28 | 51.87128 | 8.22135 | 56° | 89km/h | 10938m | -16.5m/s | -46.6°C | 3.6% | 233hPa | 2.6V | 08:11:57 | 02:34:30 | 00:00:00 | |
| BIOWL1-15 | 2026-08-31 12:52:27 | 51.87154 | 8.22197 | 57° | 91km/h | 10906m | -16.2m/s | -46.8°C | 1% | 234.1hPa | 2.5V | 08:12:36 | 02:34:32 | 00:00:00 | |
| DO2JMG | 2026-08-31 12:52:26 | 51.87141 | 8.22166 | 56° | 91km/h | 10922m | -15.8m/s | -46.7°C | 1% | 233.6hPa | 2.5V | 08:12:36 | 02:34:31 | 00:00:00 | |
| DL8DAS-15 | 2026-08-31 12:52:26 | 51.87141 | 8.22166 | 57° | 91km/h | 10923m | -15.8m/s | -46.7°C | 1.9% | 233.6hPa | 2.5V | 00:00:00 | 00:00:00 | 00:00:00 | |
| DL3AQ-11 | 2026-08-31 12:52:25 | 51.87116 | 8.22104 | 57° | 88km/h | 10955m | -16.7m/s | -46.7°C | 1.8% | 232.4hPa | 2.5V | 00:00:00 | 00:00:00 | 00:00:00 | |
| DL1XH-west | 2026-08-31 12:52:25 | 51.87128 | 8.22135 | 57° | 89km/h | 10938m | -16.5m/s | -46.6°C | 0.9% | 233hPa | 2.6V | 08:12:36 | 02:34:30 | 00:00:00 | |
| DL1NUX | 2026-08-31 12:52:24 | 51.87079 | 8.22013 | 56° | 86km/h | 11005m | -16.5m/s | -46.7°C | 3.5% | 230.7hPa | 2.5V | 08:12:01 | 02:34:26 | 00:00:00 | |
| GOEST3-10 | 2026-08-31 12:52:23 | 51.87104 | 8.22074 | 59° | 88km/h | 10972m | -16.9m/s | -46.6°C | 3.5% | 231.8hPa | 2.5V | 00:00:00 | 00:00:00 | 00:00:00 | |
| BIOWL9-15 | 2026-08-31 12:52:22 | 51.87079 | 8.22013 | 56° | 86km/h | 11005m | -16.5m/s | -46.7°C | 1.7% | 230.7hPa | 2.5V | 00:00:00 | 00:00:00 | 00:00:00 | |
| DD1CC1-15 | 2026-08-31 12:52:21 | 51.87079 | 8.22013 | 58° | 86km/h | 11006m | -16.5m/s | -46.7°C | 1.7% | 230.7hPa | 2.5V | 08:12:00 | 00:00:00 | 00:00:00 | |
| DL1XH1-15 | 2026-08-31 12:52:20 | 51.87007 | 8.21833 | 56° | 88km/h | 11104m | -16.3m/s | -46.7°C | 3.3% | 227.2hPa | 2.5V | 08:12:07 | 02:34:20 | 00:00:00 | |
| HSKMA3-T | 2026-08-31 12:52:19 | 51.87056 | 8.21953 | 58° | 86km/h | 11039m | -16.6m/s | -46.7°C | 0.6% | 229.5hPa | 2.6V | 08:12:36 | 02:34:24 | 00:00:00 | |
| DO2JMG | 2026-08-31 12:52:16 | 51.87019 | 8.21863 | 57° | 89km/h | 11087m | -16.3m/s | -46.8°C | 0.4% | 227.8hPa | 2.5V | 08:12:36 | 02:34:21 | 00:00:00 | |
| DJ2DS-15 | 2026-08-31 12:52:15 | 51.87007 | 8.21833 | 57° | 93km/h | 11104m | -16.3m/s | -46.7°C | 3.3% | 227.2hPa | 2.5V | 00:00:00 | 02:34:20 | 00:00:00 | |
| DL1NUX | 2026-08-31 12:52:14 | 51.86959 | 8.21712 | 57° | 88km/h | 11169m | -16.6m/s | -45.9°C | 2.9% | 225.1hPa | 2.5V | 08:12:11 | 02:34:16 | 00:00:00 | |
| DL1XH-west | 2026-08-31 12:52:14 | 51.86995 | 8.21803 | 58° | 88km/h | 11120m | -16.1m/s | -46.4°C | 0.3% | 226.7hPa | 2.6V | 08:12:36 | 02:34:19 | 00:00:00 | |
| DL3AQ-11 | 2026-08-31 12:52:14 | 51.86983 | 8.21773 | 56° | 86km/h | 11136m | -15.7m/s | -46.3°C | 1.4% | 226.1hPa | 2.6V | 00:00:00 | 00:00:00 | 00:00:00 | |
| GOEST3-10 | 2026-08-31 12:52:13 | 51.86983 | 8.21773 | 57° | 88km/h | 11136m | -15.6m/s | -46.2°C | 3.1% | 226.1hPa | 2.6V | 00:00:00 | 00:00:00 | 00:00:00 | |
| DB0DAN | 2026-08-31 12:52:10 | 51.86947 | 8.21682 | 56° | 84km/h | 11185m | -16m/s | -45.9°C | 1.3% | 224.48hPa | 2.5V | 00:00:00 | 00:00:00 | 00:00:00 | |
| HSKMA3-T | 2026-08-31 12:52:09 | 51.86934 | 8.21652 | 56° | 89km/h | 11202m | -17.3m/s | -45.8°C | 0% | 224hPa | 2.5V | 08:12:36 | 02:34:14 | 00:00:00 | |
| BIOWL1-15 | 2026-08-31 12:52:06 | 51.86774 | 8.21266 | 57° | 100km/h | 11372m | -18.9m/s | -46.2°C | 0.1% | 218.3hPa | 2.6V | 08:12:36 | 02:34:02 | 00:00:00 | |
| DO2JMG | 2026-08-31 12:52:05 | 51.86882 | 8.21528 | 56° | 93km/h | 11264m | -13.5m/s | -46°C | 0.1% | 221.8hPa | 2.5V | 08:12:36 | 02:34:10 | 00:00:00 | |
| DL1XH-west | 2026-08-31 12:52:04 | 51.86869 | 8.21496 | 57° | 93km/h | 11277m | -13.2m/s | -45.9°C | 0.1% | 221.3hPa | 2.6V | 08:12:36 | 02:34:09 | 00:00:00 | |
| DF8AY | 2026-08-31 12:52:02 | 51.86843 | 8.21432 | 57° | 93km/h | 11305m | -13.8m/s | -45.9°C | 0.1% | 220.4hPa | 2.5V | 08:12:36 | 02:34:07 | 00:00:00 | |
| AA1-15 | 2026-08-31 12:51:59 | 51.86802 | 8.21334 | 57° | 97km/h | 11343m | -10.8m/s | -46.1°C | 0.1% | 219.1hPa | 2.6V | 08:12:36 | 02:34:04 | 00:00:00 | |
| HSKMA3-T | 2026-08-31 12:51:58 | 51.86788 | 8.21300 | 56° | 102km/h | 11356m | -14.1m/s | -46.1°C | 0.1% | 218.7hPa | 2.6V | 08:12:36 | 02:34:03 | 00:00:00 | |
| BIOWL1-15 | 2026-08-31 12:51:57 | 51.86747 | 8.21198 | 55° | 100km/h | 11410m | -19.1m/s | -46.1°C | 0% | 217.2hPa | 2.5V | 08:12:36 | 02:34:00 | 00:00:00 | |
| DO2JMG | 2026-08-31 12:51:54 | 51.86732 | 8.21163 | 57° | 104km/h | 11429m | -18.9m/s | -46.1°C | 0% | 216.5hPa | 2.5V | 08:12:36 | 02:33:59 | 00:00:00 | |
| DL1XH-west | 2026-08-31 12:51:53 | 51.86718 | 8.21128 | 58° | 102km/h | 11448m | -19.6m/s | -46.1°C | 0.1% | 216hPa | 2.6V | 08:12:36 | 02:33:58 | 00:00:00 | |
| DF8AY | 2026-08-31 12:51:50 | 51.86677 | 8.21022 | 59° | 100km/h | 11506m | -19.5m/s | -46°C | 0% | 214.1hPa | 2.5V | 08:12:36 | 02:33:55 | 00:00:00 | |
| AA1-15 | 2026-08-31 12:51:49 | 51.86627 | 8.20878 | 61° | 102km/h | 11578m | -17.5m/s | -46.1°C | 0% | 211.7hPa | 2.6V | 08:12:36 | 02:33:51 | 00:00:00 | |
| DL1XH1-15 | 2026-08-31 12:51:48 | 51.86614 | 8.20842 | 61° | 100km/h | 11596m | -18.4m/s | -46.2°C | 3% | 211.2hPa | 2.5V | 08:12:37 | 02:33:50 | 00:00:00 | |
| HSKMA3-T | 2026-08-31 12:51:47 | 51.86639 | 8.20915 | 62° | 102km/h | 11561m | -17.6m/s | -46°C | 0% | 212.2hPa | 2.6V | 08:12:36 | 02:33:52 | 00:00:00 | |
| BIOWL1-15 | 2026-08-31 12:51:46 | 51.86614 | 8.20842 | 62° | 100km/h | 11597m | -18.4m/s | -46.2°C | 0% | 211.2hPa | 2.5V | 08:13:27 | 02:33:50 | 00:00:00 | |
| DL1NUX | 2026-08-31 12:51:46 | 51.86568 | 8.20698 | 64° | 95km/h | 11669m | -18.6m/s | -45.9°C | 2.9% | 208.8hPa | 2.5V | 08:12:41 | 02:33:46 | 00:00:00 | |
| DO2JMG | 2026-08-31 12:51:44 | 51.86602 | 8.20806 | 62° | 99km/h | 11614m | -16.7m/s | -46.3°C | 0% | 210.6hPa | 2.5V | 08:13:27 | 02:33:49 | 00:00:00 | |
| DL1XH-west | 2026-08-31 12:51:42 | 51.86579 | 8.20734 | 63° | 100km/h | 11650m | -19m/s | -46.2°C | 0% | 209.4hPa | 2.6V | 08:13:27 | 02:33:47 | 00:00:00 | |
| DF8AY | 2026-08-31 12:51:40 | 51.86557 | 8.20663 | 63° | 97km/h | 11688m | -19.4m/s | -45.8°C | 0% | 208.3hPa | 2.5V | 08:15:09 | 02:33:45 | 00:00:00 | |
| DL1XH-15 | 2026-08-31 12:51:40 | 51.86547 | 8.20628 | 65° | 95km/h | 11707m | -18.9m/s | -45.5°C | 2.8% | 207.6hPa | 2.5V | 08:12:43 | 02:33:44 | 00:00:00 | |
| HSKMA3-T | 2026-08-31 12:51:36 | 51.86517 | 8.20525 | 65° | 88km/h | 11763m | -18.7m/s | -45.2°C | 0% | 205.9hPa | 2.6V | 08:13:27 | 02:33:41 | 00:00:00 | |
| AA1-15 | 2026-08-31 12:51:36 | 51.86507 | 8.20493 | 64° | 88km/h | 11782m | -19.3m/s | -45°C | 0% | 205.4hPa | 2.5V | 08:14:18 | 02:33:40 | 00:00:00 | |
| DD1CC8 | 2026-08-31 12:51:36 | 51.86498 | 8.20460 | 65° | 88km/h | 11802m | -19.9m/s | -44.9°C | 1.1% | 204.8hPa | 2.6V | 00:00:00 | 00:00:00 | 00:00:00 | |
| DL1NUX | 2026-08-31 12:51:35 | 51.86470 | 8.20366 | 64° | 86km/h | 11860m | -19.8m/s | -45°C | 2.6% | 203hPa | 2.6V | 08:12:51 | 02:33:36 | 00:00:00 | |
| BIOWL1-15 | 2026-08-31 12:51:34 | 51.86498 | 8.20460 | 65° | 89km/h | 11802m | -19.9m/s | -44.9°C | 0% | 204.8hPa | 2.5V | 08:13:27 | 02:33:39 | 00:00:00 | |
| DO2JMG | 2026-08-31 12:51:33 | 51.86489 | 8.20428 | 66° | 86km/h | 11821m | -19.8m/s | -44.9°C | 0% | 204.2hPa | 2.5V | 08:13:27 | 02:33:38 | 00:00:00 | |
| DM0DOS-11 | 2026-08-31 12:51:33 | 51.86444 | 8.20272 | 64° | 80km/h | 11919m | -19.5m/s | -45°C | 2.7% | 201.2hPa | 2.5V | 08:12:54 | 02:33:33 | 00:00:00 | |
| DL1XH-west | 2026-08-31 12:51:31 | 51.86470 | 8.20366 | 64° | 86km/h | 11860m | -19.8m/s | -45°C | 0% | 203hPa | 2.6V | 08:13:27 | 02:33:36 | 00:00:00 | |
| HSKMA3-T | 2026-08-31 12:51:25 | 51.86417 | 8.20180 | 65° | 82km/h | 11974m | -18.2m/s | -45.3°C | 0% | 199.5hPa | 2.6V | 08:13:27 | 02:33:30 | 00:00:00 | |
| BIOWL1-15 | 2026-08-31 12:51:23 | 51.86389 | 8.20088 | 65° | 86km/h | 12031m | -20.2m/s | -45.5°C | 0% | 197.9hPa | 2.6V | 08:13:27 | 02:33:27 | 00:00:00 | |
| DO2JMG | 2026-08-31 12:51:23 | 51.86399 | 8.20119 | 64° | 86km/h | 12012m | -19.5m/s | -45.5°C | 0% | 198.4hPa | 2.5V | 08:13:27 | 02:33:28 | 00:00:00 | |
| DL1XH-west | 2026-08-31 12:51:21 | 51.86372 | 8.20025 | 66° | 82km/h | 12072m | -20m/s | -45.3°C | 0% | 196.7hPa | 2.5V | 08:13:27 | 02:33:25 | 00:00:00 | |
| DL1XH-15 | 2026-08-31 12:51:21 | 51.86363 | 8.19994 | 65° | 82km/h | 12091m | -19.8m/s | -45.3°C | 2.7% | 196hPa | 2.5V | 08:13:03 | 02:33:24 | 00:00:00 | |
| BIOWL9-15 | 2026-08-31 12:51:19 | 51.86363 | 8.19994 | 65° | 82km/h | 12091m | -19.8m/s | -45.3°C | 1.0% | 196.0hPa | 2.6V | 00:00:00 | 00:00:00 | 00:00:00 | |
| DO9LL-15 | 2026-08-31 12:51:18 | 51.86354 | 8.19964 | 66° | 80km/h | 12111m | -19.9m/s | -45.4°C | 2.7% | 195.4hPa | 2.6V | 00:00:00 | 02:33:23 | 00:00:00 | |
| DL4XJ-10 | 2026-08-31 12:51:17 | 51.86346 | 8.19932 | 67° | 80km/h | 12130m | -18.9m/s | -44.7°C | 0% | 0hPa | 2.6V | 00:00:00 | 00:00:00 | 00:00:00 | |
| DF7PN | 2026-08-31 12:51:16 | 51.86337 | 8.19902 | 66° | 78km/h | 12149m | -18.8m/s | -45.5°C | 1.1% | 194.3hPa | 2.6V | 00:00:00 | 00:00:00 | 00:00:00 | |
| DL1XH-15 | 2026-08-31 12:51:15 | 51.86282 | 8.19691 | 67° | 80km/h | 12285m | -20.2m/s | -46.1°C | 2.8% | 190.4hPa | 2.6V | 08:13:13 | 02:33:14 | 00:00:00 | |
| DL1NUX | 2026-08-31 12:51:15 | 51.86297 | 8.19751 | 67° | 78km/h | 12246m | -19.7m/s | -45.9°C | 2.7% | 191.5hPa | 2.6V | 08:13:11 | 02:33:16 | 00:00:00 | |
| HSKMA3-T | 2026-08-31 12:51:14 | 51.86321 | 8.19842 | 66° | 82km/h | 12187m | -19.4m/s | -45.8°C | 0% | 193.3hPa | 2.5V | 08:13:27 | 02:33:19 | 00:00:00 | |
| BIOWL1-15 | 2026-08-31 12:51:13 | 51.86258 | 8.19602 | 65° | 78km/h | 12344m | -19.8m/s | -46.1°C | 0% | 188.7hPa | 2.5V | 08:13:27 | 02:33:11 | 00:00:00 | |
| DO2JMG | 2026-08-31 12:51:12 | 51.86305 | 8.19781 | 69° | 78km/h | 12226m | -19.9m/s | -45.8°C | 0% | 192.1hPa | 2.5V | 08:13:27 | 02:33:17 | 00:00:00 | |
| DF8AY | 2026-08-31 12:51:11 | 51.86297 | 8.19751 | 67° | 78km/h | 12246m | -19.7m/s | -45.9°C | 0% | 191.5hPa | 2.6V | 08:15:09 | 02:33:16 | 00:00:00 | |
| DL1XH-west | 2026-08-31 12:51:10 | 51.86289 | 8.19722 | 67° | 80km/h | 12266m | -19.9m/s | -46°C | 0% | 191hPa | 2.6V | 08:13:27 | 02:33:15 | 00:00:00 | |
| DM0DOS-11 | 2026-08-31 12:51:09 | 51.86274 | 8.19661 | 69° | 80km/h | 12305m | -20.1m/s | -46°C | 2.7% | 189.8hPa | 2.5V | 08:13:14 | 02:33:13 | 00:00:00 | |
| DL1XH1-15 | 2026-08-31 12:51:08 | 51.86250 | 8.19572 | 65° | 82km/h | 12364m | -20.1m/s | -46.2°C | 2.8% | 188.1hPa | 2.6V | 08:13:17 | 02:33:10 | 00:00:00 | |
| DD8BA-10 | 2026-08-31 12:51:08 | 51.86274 | 8.19661 | 70° | 80km/h | 12306m | -20.1m/s | -46.0°C | 2.7% | 189.8hPa | 2.5V | 00:00:00 | 00:00:00 | 00:00:00 | |
| BUE01 | 2026-08-31 12:51:07 | 51.86266 | 8.19631 | 66° | 77km/h | 12325m | -19.4m/s | -46.0°C | 1.0% | 189.3hPa | 2.5V | 00:00:00 | 00:00:00 | 00:00:00 | |
| DL4BBY-15 | 2026-08-31 12:51:06 | 51.86258 | 8.19602 | 65° | 78km/h | 12345m | -19.8m/s | -45.3°C | 0% | 0hPa | 2.5V | 00:00:00 | 00:00:00 | 00:00:00 | |
| DD1CC8 | 2026-08-31 12:51:05 | 51.86241 | 8.19542 | 65° | 82km/h | 12384m | -20.8m/s | -46.4°C | 1.1% | 187.6hPa | 2.5V | 00:00:00 | 00:00:00 | 00:00:00 | |
| DL1NUX | 2026-08-31 12:51:04 | 51.86216 | 8.19451 | 64° | 78km/h | 12445m | -19.8m/s | -46.4°C | 2.8% | 185.8hPa | 2.5V | 08:13:21 | 02:33:06 | 00:00:00 | |
| HSKMA3-T | 2026-08-31 12:51:03 | 51.86233 | 8.19511 | 66° | 82km/h | 12405m | -20.6m/s | -46.5°C | 0% | 187hPa | 2.5V | 08:13:27 | 02:33:08 | 00:00:00 | |
| DO2JMG | 2026-08-31 12:51:01 | 51.86216 | 8.19451 | 64° | 78km/h | 12445m | -19.8m/s | -46.4°C | 0% | 185.8hPa | 2.5V | 08:13:27 | 02:33:06 | 00:00:00 | |
| DF8AY | 2026-08-31 12:51:00 | 51.86207 | 8.19422 | 64° | 80km/h | 12465m | -20.1m/s | -46.4°C | 0% | 185.3hPa | 2.6V | 08:15:09 | 02:33:05 | 00:00:00 | |
| DL1XH-15 | 2026-08-31 12:51:00 | 51.86198 | 8.19393 | 65° | 80km/h | 12484m | -19.7m/s | -46.5°C | 2.8% | 184.8hPa | 2.6V | 08:13:23 | 02:33:04 | 00:00:00 | |
| DL1XH1-15 | 2026-08-31 12:51:00 | 51.86166 | 8.19277 | 64° | 78km/h | 12559m | -19.3m/s | -46.8°C | 2.9% | 182.6hPa | 2.5V | 08:13:27 | 02:33:00 | 00:00:00 | |
| DL1XH-west | 2026-08-31 12:50:59 | 51.86199 | 8.19393 | 65° | 80km/h | 12484m | -19.7m/s | -46.5°C | 0% | 184.8hPa | 2.6V | 08:13:27 | 02:33:04 | 00:00:00 | |
| DM0DOS-11 | 2026-08-31 12:50:59 | 51.86190 | 8.19363 | 65° | 78km/h | 12503m | -18.4m/s | -46.6°C | 2.9% | 184.2hPa | 2.6V | 08:13:24 | 02:33:03 | 00:00:00 | |
| BIOWL1-15 | 2026-08-31 12:50:58 | 51.86190 | 8.19363 | 66° | 78km/h | 12504m | -18.4m/s | -46.6°C | 0% | 184.2hPa | 2.6V | 08:13:27 | 02:33:03 | 00:00:00 | |
| DD8BA-10 | 2026-08-31 12:50:58 | 51.86190 | 8.19363 | 66° | 78km/h | 12504m | -18.4m/s | -46.6°C | 2.9% | 184.1hPa | 2.6V | 00:00:00 | 00:00:00 | 00:00:00 | |
| DL4XJ-10 | 2026-08-31 12:50:57 | 51.86182 | 8.19334 | 66° | 77km/h | 12522m | -18.4m/s | -45.9°C | 0% | 0hPa | 2.5V | 00:00:00 | 00:00:00 | 00:00:00 | |
| DB0UT-7 | 2026-08-31 12:50:56 | 51.86174 | 8.19306 | 65° | 73km/h | 12540m | -18.3m/s | -46.7°C | 2.9% | 183.1hPa | 2.5V | 00:00:00 | 00:00:00 | 00:00:00 | |
| DJ2DS-15 | 2026-08-31 12:50:55 | 51.86166 | 8.19277 | 65° | 77km/h | 12559m | -19.2m/s | -46.8°C | 2.9% | 182.6hPa | 2.5V | 00:00:00 | 02:33:00 | 00:00:00 | |
| DL1NUX | 2026-08-31 12:50:54 | 51.86134 | 8.19159 | 67° | 80km/h | 12637m | -19.4m/s | -46.6°C | 2.9% | 180.6hPa | 2.5V | 08:13:31 | 02:32:56 | 00:00:00 | |
| HSKMA3-T | 2026-08-31 12:50:52 | 51.86142 | 8.19189 | 67° | 77km/h | 12618m | -19.8m/s | -46.5°C | 0% | 181.1hPa | 2.6V | 08:14:18 | 02:32:57 | 00:00:00 | |
| DO2JMG | 2026-08-31 12:50:51 | 51.86134 | 8.19159 | 67° | 80km/h | 12637m | -19.4m/s | -46.6°C | 0% | 180.6hPa | 2.5V | 08:14:18 | 02:32:56 | 00:00:00 | |
| DL8DAS-14 | 2026-08-31 12:50:50 | 51.86105 | 8.19036 | 70° | 77km/h | 12716m | -19.8m/s | -46.9°C | 1.1% | 178.4hPa | 2.6V | 00:00:00 | 00:00:00 | 00:00:00 | |
| DM0DOS-11 | 2026-08-31 12:50:49 | 51.86112 | 8.19067 | 70° | 80km/h | 12696m | -20.3m/s | -46.8°C | 2.9% | 178.9hPa | 2.6V | 08:13:34 | 02:32:53 | 00:00:00 | |
| DL1XH-west | 2026-08-31 12:50:49 | 51.86119 | 8.19098 | 69° | 80km/h | 12676m | -20.1m/s | -46.7°C | 0% | 179.5hPa | 2.5V | 08:14:18 | 02:32:54 | 00:00:00 | |
| BIOWL9-15 | 2026-08-31 12:50:48 | 51.86112 | 8.19067 | 70° | 78km/h | 12696m | -20.3m/s | -46.8°C | 1.1% | 178.9hPa | 2.6V | 00:00:00 | 00:00:00 | 00:00:00 | |
| BIOWL1-15 | 2026-08-31 12:50:47 | 51.86053 | 8.18804 | 73° | 71km/h | 12872m | -19.5m/s | -46.1°C | 0% | 174.2hPa | 2.6V | 08:14:18 | 02:32:44 | 00:00:00 | |
| HSKMA3-T | 2026-08-31 12:50:42 | 51.86072 | 8.18888 | 71° | 73km/h | 12814m | -19.2m/s | -46.6°C | 0% | 175.8hPa | 2.5V | 08:14:18 | 02:32:47 | 00:00:00 | |
| DO2JMG | 2026-08-31 12:50:41 | 51.86066 | 8.18860 | 69° | 73km/h | 12833m | -19.7m/s | -46.4°C | 0% | 175.3hPa | 2.5V | 08:14:18 | 02:32:46 | 00:00:00 | |
| DM0DOS-11 | 2026-08-31 12:50:38 | 51.86048 | 8.18777 | 70° | 68km/h | 12891m | -19.2m/s | -46°C | 2.7% | 173.7hPa | 2.6V | 08:13:44 | 02:32:43 | 00:00:00 | |
| DL1XH-west | 2026-08-31 12:50:38 | 51.86048 | 8.18777 | 70° | 68km/h | 12891m | -19.2m/s | -46°C | 0% | 173.7hPa | 2.6V | 08:14:18 | 02:32:43 | 00:00:00 | |
| DF8AY | 2026-08-31 12:50:37 | 51.86008 | 8.18595 | 70° | 68km/h | 13028m | -20.2m/s | -46.2°C | 0% | 170.2hPa | 2.6V | 08:15:09 | 02:32:36 | 00:00:00 | |
| BIOWL1-15 | 2026-08-31 12:50:36 | 51.86025 | 8.18671 | 73° | 66km/h | 12970m | -20m/s | -45.9°C | 0% | 171.7hPa | 2.5V | 08:14:18 | 02:32:39 | 00:00:00 | |
| DL4BBY-15 | 2026-08-31 12:50:36 | 51.86036 | 8.18724 | 71° | 66km/h | 12930m | -20.1m/s | -45.2°C | 0% | 0hPa | 2.5V | 00:00:00 | 00:00:00 | 00:00:00 | |
| DJ2DS-15 | 2026-08-31 12:50:35 | 51.86030 | 8.18697 | 71° | 66km/h | 12949m | -20.3m/s | -46.0°C | 2.8% | 172.2hPa | 2.5V | 00:00:00 | 02:32:40 | 00:00:00 | |
| DK9SH | 2026-08-31 12:50:34 | 51.86030 | 8.18697 | 72° | 69km/h | 12949m | -20.3m/s | -46.0°C | 1.0% | 172.2hPa | 2.6V | 08:14:00 | 00:00:00 | 00:00:00 | |
| DL1NUX | 2026-08-31 12:50:33 | 51.86008 | 8.18595 | 70° | 68km/h | 13028m | -20.2m/s | -46.2°C | 2.8% | 170.2hPa | 2.6V | 08:13:51 | 02:32:36 | 00:00:00 | |
| HSKMA3-T | 2026-08-31 12:50:32 | 51.86014 | 8.18621 | 69° | 66km/h | 13009m | -19.2m/s | -46.1°C | 0% | 170.7hPa | 2.6V | 08:14:18 | 02:32:37 | 00:00:00 | |
| DO2JMG | 2026-08-31 12:50:30 | 51.86003 | 8.18569 | 72° | 68km/h | 13048m | -19.9m/s | -46.2°C | 0% | 169.7hPa | 2.5V | 08:14:18 | 02:32:35 | 00:00:00 | |
| DL1XH-west | 2026-08-31 12:50:28 | 51.85992 | 8.18517 | 70° | 68km/h | 13087m | -18.3m/s | -46.5°C | 0% | 168.6hPa | 2.5V | 08:14:18 | 02:32:33 | 00:00:00 | |
| DL1XH1-15 | 2026-08-31 12:50:28 | 51.85976 | 8.18440 | 72° | 68km/h | 13141m | -17.9m/s | -46.8°C | 2.8% | 167.3hPa | 2.5V | 08:13:57 | 02:32:30 | 00:00:00 | |
| DF8AY | 2026-08-31 12:50:26 | 51.85981 | 8.18465 | 70° | 66km/h | 13123m | -17.5m/s | -46.7°C | 0% | 167.7hPa | 2.6V | 08:15:09 | 02:32:31 | 00:00:00 | |
| BIOWL1-15 | 2026-08-31 12:50:24 | 51.85970 | 8.18414 | 70° | 66km/h | 13159m | -18.5m/s | -46.9°C | 0% | 166.8hPa | 2.5V | 08:14:18 | 02:32:29 | 00:00:00 | |
| DM0DOS-11 | 2026-08-31 12:50:23 | 51.85939 | 8.18267 | 70° | 62km/h | 13267m | -16.4m/s | -47°C | 2.9% | 164hPa | 2.5V | 08:14:04 | 02:32:23 | 00:00:00 | |
| HSKMA3-T | 2026-08-31 12:50:22 | 51.85960 | 8.18364 | 72° | 66km/h | 13197m | -18.2m/s | -47.1°C | 0% | 165.9hPa | 2.6V | 08:14:18 | 02:32:27 | 00:00:00 | |
| DL1XH-15 | 2026-08-31 12:50:20 | 51.85944 | 8.18291 | 70° | 62km/h | 13251m | -16.8m/s | -47°C | 2.8% | 164.5hPa | 2.5V | 08:14:03 | 02:32:24 | 00:00:00 | |
| DL1XH1-15 | 2026-08-31 12:50:20 | 51.85923 | 8.18195 | 71° | 64km/h | 13311m | -14.7m/s | -46.9°C | 2.9% | 162.9hPa | 2.6V | 08:14:07 | 02:32:20 | 00:00:00 | |
| DO2JMG | 2026-08-31 12:50:20 | 51.85949 | 8.18315 | 71° | 62km/h | 13233m | -18.1m/s | -47°C | 0% | 164.9hPa | 2.6V | 08:14:18 | 02:32:25 | 00:00:00 | |
| DL1XH-west | 2026-08-31 12:50:17 | 51.85917 | 8.18170 | 71° | 66km/h | 13327m | -17.4m/s | -46.8°C | 0% | 162.6hPa | 2.6V | 08:14:18 | 02:32:19 | 00:00:00 | |
| AA1-15 | 2026-08-31 12:50:17 | 51.85933 | 8.18243 | 69° | 62km/h | 13283m | -15.3m/s | -47.1°C | 0% | 163.6hPa | 2.5V | 08:14:18 | 02:32:22 | 00:00:00 | |
| DF8AY | 2026-08-31 12:50:16 | 51.85874 | 8.17990 | 69° | 69km/h | 13435m | -14.6m/s | -47.3°C | 0% | 159.9hPa | 2.5V | 08:15:09 | 02:32:12 | 00:00:00 | |
| DL1XH-15 | 2026-08-31 12:50:15 | 51.85887 | 8.18042 | 67° | 68km/h | 13404m | -15.2m/s | -47.2°C | 2.8% | 160.7hPa | 2.6V | 08:14:13 | 02:32:14 | 00:00:00 | |
| DO1YAY-16 | 2026-08-31 12:50:14 | 51.85917 | 8.18170 | 70° | 64km/h | 13327m | -17.4m/s | -46.8°C | 1.0% | 162.6hPa | 2.5V | 00:00:00 | 00:00:00 | 00:00:00 | |
| DL1NUX | 2026-08-31 12:50:13 | 51.85900 | 8.18093 | 68° | 68km/h | 13373m | -15.1m/s | -47°C | 2.8% | 161.4hPa | 2.5V | 08:14:11 | 02:32:16 | 00:00:00 | |
| BIOWL1-15 | 2026-08-31 12:50:13 | 51.85912 | 8.18145 | 71° | 68km/h | 13344m | -15.1m/s | -46.7°C | 0% | 162.2hPa | 2.5V | 08:14:18 | 02:32:18 | 00:00:00 | |
| HSKMA3-T | 2026-08-31 12:50:12 | 51.85900 | 8.18093 | 69° | 68km/h | 13373m | -15.1m/s | -47°C | 0% | 161.4hPa | 2.5V | 08:14:18 | 02:32:16 | 00:00:00 | |
| DD1CC3-15 | 2026-08-31 12:50:12 | 51.85906 | 8.18119 | 71° | 68km/h | 13358m | -13.9m/s | -46.8°C | 1.0% | 161.8hPa | 2.5V | 08:14:00 | 00:00:00 | 00:00:00 | |
| DM0DOS-11 | 2026-08-31 12:50:11 | 51.85881 | 8.18016 | 68° | 68km/h | 13419m | -16.1m/s | -47.2°C | 2.9% | 160.3hPa | 2.5V | 08:14:14 | 02:32:13 | 00:00:00 | |
| DF8AY | 2026-08-31 12:50:11 | 51.85863 | 8.17938 | 71° | 68km/h | 13462m | -14m/s | -47.4°C | 0% | 159.2hPa | 2.6V | 08:15:09 | 02:32:10 | 00:00:00 | |
| DO2JMG | 2026-08-31 12:50:09 | 51.85887 | 8.18042 | 68° | 68km/h | 13404m | -15.2m/s | -47.2°C | 0% | 160.7hPa | 2.6V | 08:14:18 | 02:32:14 | 00:00:00 | |
| AA1-15 | 2026-08-31 12:50:06 | 51.85868 | 8.17964 | 70° | 68km/h | 13449m | -12.9m/s | -47.3°C | 0% | 159.5hPa | 2.6V | 08:14:18 | 02:32:11 | 00:00:00 | |
| DL1XH-west | 2026-08-31 12:50:04 | 51.85846 | 8.17860 | 71° | 66km/h | 13506m | -15.1m/s | -47.4°C | 0% | 158.1hPa | 2.5V | 08:15:09 | 02:32:07 | 00:00:00 | |
| DM0DOS-11 | 2026-08-31 12:50:03 | 51.85826 | 8.17760 | 74° | 62km/h | 13568m | -16.9m/s | -47.5°C | 2.9% | 156.8hPa | 2.5V | 08:14:24 | 02:32:03 | 00:00:00 | |
| DL1NUX | 2026-08-31 12:50:03 | 51.85841 | 8.17834 | 72° | 66km/h | 13521m | -15m/s | -47.4°C | 2.9% | 157.8hPa | 2.6V | 08:14:21 | 02:32:06 | 00:00:00 | |
| HSKMA3-T | 2026-08-31 12:50:01 | 51.85841 | 8.17834 | 72° | 66km/h | 13521m | -15m/s | -47.4°C | 0% | 157.8hPa | 2.6V | 08:15:09 | 02:32:06 | 00:00:00 | |
| DL1XH1-15 | 2026-08-31 12:50:00 | 51.85808 | 8.17664 | 72° | 60km/h | 13631m | -14.8m/s | -47.8°C | 2.9% | 155.2hPa | 2.6V | 08:14:28 | 02:31:59 | 00:00:00 | |
| DO2JMG | 2026-08-31 12:49:59 | 51.85831 | 8.17784 | 73° | 62km/h | 13552m | -15.5m/s | -47.5°C | 0% | 157.1hPa | 2.6V | 08:15:09 | 02:32:04 | 00:00:00 | |
| AA1-15 | 2026-08-31 12:49:55 | 51.85813 | 8.17688 | 73° | 62km/h | 13616m | -15m/s | -47.7°C | 0% | 155.6hPa | 2.6V | 08:15:09 | 02:32:00 | 00:00:00 | |
| EDDB2-11 | 2026-08-31 12:49:54 | 51.85808 | 8.17664 | 72° | 60km/h | 13631m | -14.8m/s | -47.8°C | 1.0% | 155.2hPa | 2.5V | 00:00:00 | 00:00:00 | 00:00:00 | |
| DL1NUX | 2026-08-31 12:49:53 | 51.85794 | 8.17593 | 73° | 60km/h | 13677m | -15.6m/s | -47.9°C | 3% | 154.2hPa | 2.5V | 08:14:31 | 02:31:56 | 00:00:00 | |
| DL1XH-west | 2026-08-31 12:49:52 | 51.85799 | 8.17616 | 74° | 60km/h | 13662m | -15.6m/s | -47.8°C | 0% | 154.6hPa | 2.5V | 08:15:09 | 02:31:57 | 00:00:00 | |
| DF2AP-13 | 2026-08-31 12:49:52 | 51.85799 | 8.17616 | 75° | 57km/h | 13662m | -15.5m/s | -47.8°C | 3.0% | 154.5hPa | 2.5V | 00:00:00 | 02:31:57 | 00:00:00 | |
| DO2SHX-10 | 2026-08-31 12:49:51 | 51.85795 | 8.17593 | 74° | 58km/h | 13678m | -15.5m/s | -47.8°C | 3.0% | 154.1hPa | 2.5V | 00:00:00 | 02:31:56 | 00:00:00 | |
| DM0DOS-11 | 2026-08-31 12:49:50 | 51.85781 | 8.17522 | 72° | 62km/h | 13721m | -14.4m/s | -48°C | 3% | 153.1hPa | 2.6V | 08:14:34 | 02:31:53 | 00:00:00 | |
| HSKMA3-T | 2026-08-31 12:49:50 | 51.85790 | 8.17569 | 73° | 60km/h | 13692m | -13.8m/s | -48°C | 0% | 153.8hPa | 2.5V | 08:15:09 | 02:31:55 | 00:00:00 | |
| DO2JMG | 2026-08-31 12:49:48 | 51.85781 | 8.17522 | 73° | 62km/h | 13721m | -14.4m/s | -48°C | 0% | 153.1hPa | 2.6V | 08:15:09 | 02:31:53 | 00:00:00 | |
| DO9LL-15 | 2026-08-31 12:49:48 | 51.85781 | 8.17522 | 73° | 55km/h | 13721m | -14.4m/s | -48.0°C | 3.0% | 153.1hPa | 2.5V | 00:00:00 | 02:31:53 | 00:00:00 | |
| DL1XH1-15 | 2026-08-31 12:49:47 | 51.85769 | 8.17450 | 74° | 60km/h | 13765m | -16.4m/s | -48.1°C | 3% | 152.1hPa | 2.5V | 08:14:37 | 02:31:50 | 00:00:00 | |
| AA1-15 | 2026-08-31 12:49:45 | 51.85769 | 8.17450 | 74° | 60km/h | 13765m | -16.4m/s | -48.1°C | 0% | 152.1hPa | 2.5V | 08:15:09 | 02:31:50 | 00:00:00 | |
| DF8AY | 2026-08-31 12:49:44 | 51.85765 | 8.17426 | 76° | 58km/h | 13780m | -15.3m/s | -48°C | 0% | 151.8hPa | 2.6V | 08:15:09 | 02:31:49 | 00:00:00 | |
| DL1XH-west | 2026-08-31 12:49:42 | 51.85758 | 8.17380 | 76° | 58km/h | 13811m | -15m/s | -48°C | 0% | 151hPa | 2.6V | 08:15:09 | 02:31:47 | 00:00:00 | |
| DL1NUX | 2026-08-31 12:49:42 | 51.85754 | 8.17357 | 74° | 57km/h | 13825m | -14.2m/s | -48°C | 3% | 150.7hPa | 2.5V | 08:14:41 | 02:31:46 | 00:00:00 | |
| BIOWL1-15 | 2026-08-31 12:49:41 | 51.85754 | 8.17357 | 75° | 57km/h | 13825m | -14.2m/s | -48°C | 0% | 150.7hPa | 2.5V | 08:15:09 | 02:31:46 | 00:00:00 | |
| DL1XH-15 | 2026-08-31 12:49:40 | 51.85747 | 8.17314 | 75° | 53km/h | 13855m | -15.4m/s | -48.1°C | 3% | 150hPa | 2.5V | 08:14:43 | 02:31:44 | 00:00:00 | |
| DL1XH1-15 | 2026-08-31 12:49:40 | 51.85727 | 8.17211 | 70° | 53km/h | 13926m | -13m/s | -47.8°C | 2.9% | 148.4hPa | 2.5V | 08:14:48 | 02:31:39 | 00:00:00 | |
| HSKMA3-T | 2026-08-31 12:49:39 | 51.85747 | 8.17314 | 75° | 53km/h | 13855m | -15.4m/s | -48.1°C | 0% | 150.1hPa | 2.5V | 08:15:09 | 02:31:44 | 00:00:00 | |
| DO2JMG | 2026-08-31 12:49:38 | 51.85743 | 8.17293 | 75° | 53km/h | 13870m | -14.4m/s | -48.1°C | 0% | 149.7hPa | 2.6V | 08:15:09 | 02:31:43 | 00:00:00 | |
| AA1-15 | 2026-08-31 12:49:35 | 51.85727 | 8.17211 | 70° | 53km/h | 13926m | -13m/s | -47.8°C | 0% | 148.4hPa | 2.5V | 08:15:09 | 02:31:39 | 00:00:00 | |
| DL1XH-15 | 2026-08-31 12:49:35 | 51.85702 | 8.17108 | 68° | 55km/h | 14003m | -15.2m/s | -48.3°C | 3% | 146.7hPa | 2.5V | 08:14:53 | 02:31:34 | 00:00:00 | |
| DL1NUX | 2026-08-31 12:49:34 | 51.85712 | 8.17150 | 68° | 55km/h | 13972m | -14.9m/s | -48.1°C | 3% | 147.4hPa | 2.6V | 08:14:51 | 02:31:36 | 00:00:00 | |
| DL1XH-west | 2026-08-31 12:49:32 | 51.85718 | 8.17170 | 67° | 55km/h | 13956m | -16.5m/s | -48°C | 0% | 147.7hPa | 2.6V | 08:15:09 | 02:31:37 | 00:00:00 | |
| BIOWL1-15 | 2026-08-31 12:49:31 | 51.85702 | 8.17108 | 68° | 55km/h | 14003m | -15.2m/s | -48.3°C | 0% | 146.7hPa | 2.5V | 08:15:09 | 02:31:34 | 00:00:00 | |
| DM0DOS-11 | 2026-08-31 12:49:31 | 51.85697 | 8.17087 | 68° | 55km/h | 14019m | -16.3m/s | -48.4°C | 3% | 146.3hPa | 2.6V | 08:14:54 | 02:31:33 | 00:00:00 | |
| HSKMA3-T | 2026-08-31 12:49:28 | 51.85697 | 8.17087 | 69° | 55km/h | 14019m | -16.3m/s | -48.4°C | 0% | 146.3hPa | 2.6V | 08:15:09 | 02:31:33 | 00:00:00 | |
| DO2JMG | 2026-08-31 12:49:27 | 51.85692 | 8.17066 | 68° | 55km/h | 14035m | -16.5m/s | -48.5°C | 0% | 146hPa | 2.6V | 08:15:09 | 02:31:32 | 00:00:00 | |
| SONCRA | 2026-08-31 12:49:26 | 51.85682 | 8.17023 | 70° | 55km/h | 14066m | -13.9m/s | -48.1°C | 1.0% | 145.3hPa | 2.5V | 00:00:00 | 00:00:00 | 00:00:00 | |
| DM0DOS-11 | 2026-08-31 12:49:24 | 51.85651 | 8.16879 | 70° | 51km/h | 14160m | -14.6m/s | -48.3°C | 3% | 143.2hPa | 2.5V | 08:15:04 | 02:31:23 | 00:00:00 | |
| AA1-15 | 2026-08-31 12:49:23 | 51.85673 | 8.16981 | 70° | 55km/h | 14091m | -13.1m/s | -48.1°C | 0% | 144.7hPa | 2.6V | 08:15:09 | 02:31:28 | 00:00:00 | |
| GOEST3-10 | 2026-08-31 12:49:23 | 51.85673 | 8.16981 | 71° | 53km/h | 14092m | -13.1m/s | -48.1°C | 3.0% | 144.6hPa | 2.5V | 00:00:00 | 00:00:00 | 00:00:00 | |
| DF2AP-13 | 2026-08-31 12:49:22 | 51.85668 | 8.16960 | 72° | 53km/h | 14104m | -12.3m/s | -48.1°C | 3.0% | 144.4hPa | 2.5V | 00:00:00 | 02:31:27 | 00:00:00 | |
| DF8AY | 2026-08-31 12:49:22 | 51.85664 | 8.16940 | 69° | 53km/h | 14117m | -12.6m/s | -48.2°C | 0% | 144.2hPa | 2.6V | 08:15:09 | 02:31:26 | 00:00:00 | |
| DL1XH-15 | 2026-08-31 12:49:20 | 51.85655 | 8.16899 | 70° | 53km/h | 14145m | -15.8m/s | -48.3°C | 3% | 143.6hPa | 2.5V | 08:15:03 | 02:31:24 | 00:00:00 | |
| BIOWL1-15 | 2026-08-31 12:49:19 | 51.85655 | 8.16899 | 70° | 53km/h | 14145m | -15.8m/s | -48.3°C | 0% | 143.6hPa | 2.5V | 08:15:09 | 02:31:24 | 00:00:00 | |
| HSKMA3-T | 2026-08-31 12:49:18 | 51.85650 | 8.16879 | 71° | 51km/h | 14160m | -14.6m/s | -48.3°C | 0% | 143.2hPa | 2.5V | 08:15:09 | 02:31:23 | 00:00:00 | |
| DO2JMG | 2026-08-31 12:49:17 | 51.85646 | 8.16859 | 71° | 51km/h | 14174m | -13.9m/s | -48.3°C | 0% | 142.8hPa | 2.6V | 08:15:09 | 02:31:22 | 00:00:00 | |
| DD1CC9-15 | 2026-08-31 12:49:16 | 51.85646 | 8.16859 | 72° | 51km/h | 14175m | -13.9m/s | -48.3°C | 1.0% | 142.8hPa | 2.5V | 08:15:00 | 00:00:00 | 00:00:00 | |
| DJ2DS-15 | 2026-08-31 12:49:15 | 51.85638 | 8.16820 | 73° | 53km/h | 14200m | -11.4m/s | -48.3°C | 3.1% | 142.3hPa | 2.5V | 00:00:00 | 02:31:20 | 00:00:00 | |
| DL1XH-15 | 2026-08-31 12:49:14 | 51.85612 | 8.16671 | 71° | 55km/h | 14277m | -14.2m/s | -48.5°C | 3.1% | 140.7hPa | 2.5V | 08:15:14 | 02:31:13 | 00:00:00 | |
| AA1-15 | 2026-08-31 12:49:12 | 51.85627 | 8.16758 | 74° | 55km/h | 14234m | -11.9m/s | -48.5°C | 0% | 141.5hPa | 2.5V | 08:16:00 | 02:31:17 | 00:00:00 | |
| DL1XH-west | 2026-08-31 12:49:12 | 51.85619 | 8.16715 | 74° | 57km/h | 14255m | -7.9m/s | -48.5°C | 0% | 141hPa | 2.6V | 08:16:00 | 02:31:15 | 00:00:00 | |
| DF8AY | 2026-08-31 12:49:11 | 51.85623 | 8.16737 | 75° | 55km/h | 14246m | -11.3m/s | -48.4°C | 0% | 141.3hPa | 2.6V | 08:16:00 | 02:31:16 | 00:00:00 | |
| DM0DOS-11 | 2026-08-31 12:49:11 | 51.85612 | 8.16671 | 71° | 55km/h | 14277m | -14.2m/s | -48.5°C | 3.1% | 140.7hPa | 2.5V | 08:15:14 | 02:31:13 | 00:00:00 | |
| HSKMA3-T | 2026-08-31 12:49:09 | 51.85612 | 8.16671 | 72° | 55km/h | 14278m | -14.2m/s | -48.5°C | 0% | 140.7hPa | 2.5V | 08:16:00 | 02:31:13 | 00:00:00 | |
| DO2JMG | 2026-08-31 12:49:06 | 51.85603 | 8.16628 | 70° | 55km/h | 14302m | -9.9m/s | -48.5°C | 0% | 140.1hPa | 2.6V | 08:16:00 | 02:31:11 | 00:00:00 | |
| DL3AQ-11 | 2026-08-31 12:49:05 | 51.85598 | 8.16607 | 69° | 55km/h | 14312m | -9.9m/s | -48.4°C | 1.0% | 139.8hPa | 2.5V | 00:00:00 | 00:00:00 | 00:00:00 | |
| DL1XH-15 | 2026-08-31 12:49:03 | 51.85567 | 8.16466 | 66° | 49km/h | 14416m | -16.7m/s | -48.6°C | 3% | 137.8hPa | 2.5V | 08:15:24 | 02:31:03 | 00:00:00 | |
| DF8AY | 2026-08-31 12:49:01 | 51.85576 | 8.16504 | 70° | 51km/h | 14383m | -15.9m/s | -48.6°C | 0% | 138.5hPa | 2.6V | 08:16:00 | 02:31:05 | 00:00:00 | |
| DL1XH1-15 | 2026-08-31 12:49:00 | 51.85546 | 8.16395 | 64° | 47km/h | 14473m | -13.8m/s | -48.4°C | 3% | 136.5hPa | 2.6V | 08:15:28 | 02:30:59 | 00:00:00 | |
| HSKMA3-T | 2026-08-31 12:48:57 | 51.85562 | 8.16448 | 66° | 47km/h | 14432m | -15.2m/s | -48.5°C | 0% | 137.4hPa | 2.5V | 08:16:00 | 02:31:02 | 00:00:00 | |
| DO2JMG | 2026-08-31 12:48:56 | 51.85557 | 8.16430 | 64° | 47km/h | 14446m | -14.3m/s | -48.5°C | 0% | 137.1hPa | 2.6V | 08:16:00 | 02:31:01 | 00:00:00 | |
| DL1XH-west | 2026-08-31 12:48:50 | 51.85525 | 8.16326 | 60° | 47km/h | 14525m | -15.4m/s | -48.5°C | 0% | 135.5hPa | 2.6V | 08:16:00 | 02:30:55 | 00:00:00 | |
| DF8AY | 2026-08-31 12:48:49 | 51.85519 | 8.16310 | 60° | 47km/h | 14539m | -13.6m/s | -48.5°C | 0% | 135.2hPa | 2.6V | 08:16:00 | 02:30:54 | 00:00:00 | |
| DL1XH-15 | 2026-08-31 12:48:48 | 51.85513 | 8.16293 | 58° | 47km/h | 14552m | -13.1m/s | -48.6°C | 3% | 134.9hPa | 2.5V | 08:15:34 | 02:30:53 | 00:00:00 | |
| BIOWL1-15 | 2026-08-31 12:48:47 | 51.85412 | 8.16070 | 52° | 62km/h | 14717m | -15.7m/s | -49.4°C | 0% | 131.6hPa | 2.6V | 08:16:00 | 02:30:40 | 00:00:00 | |
| DL1XH1-15 | 2026-08-31 12:48:47 | 51.85493 | 8.16244 | 58° | 49km/h | 14590m | -13.3m/s | -48.8°C | 3.1% | 134.1hPa | 2.6V | 08:15:37 | 02:30:50 | 00:00:00 | |
| DO2JMG | 2026-08-31 12:48:46 | 51.85500 | 8.16260 | 57° | 49km/h | 14577m | -12.2m/s | -48.8°C | 0% | 134.4hPa | 2.6V | 08:16:00 | 02:30:51 | 00:00:00 | |
| DL8OAI-8 | 2026-08-31 12:48:46 | 51.85500 | 8.16260 | 58° | 49km/h | 14578m | -12.2m/s | -48.8°C | 1.0% | 134.4hPa | 2.5V | 08:16:00 | 00:00:00 | 00:00:00 | |
| DB0NH | 2026-08-31 12:48:44 | 51.85487 | 8.16227 | 56° | 57km/h | 14603m | -12.0m/s | -48.8°C | 3.1% | 133.8hPa | 2.5V | 00:00:00 | 02:30:49 | 00:00:00 | |
| GOEST3-10 | 2026-08-31 12:48:43 | 51.85480 | 8.16210 | 55° | 51km/h | 14615m | -11.0m/s | -48.9°C | 3.2% | 133.5hPa | 2.5V | 08:15:00 | 00:00:00 | 00:00:00 | |
| DF7PN | 2026-08-31 12:48:41 | 51.85456 | 8.16160 | 51° | 53km/h | 14650m | -13.0m/s | -49.0°C | 1.0% | 132.9hPa | 2.6V | 00:00:00 | 00:00:00 | 00:00:00 | |
| DL1XH1-15 | 2026-08-31 12:48:40 | 51.85402 | 8.16051 | 52° | 62km/h | 14733m | -16.3m/s | -49.5°C | 3.3% | 131.2hPa | 2.6V | 08:15:48 | 02:30:39 | 00:00:00 | |
| AA1-15 | 2026-08-31 12:48:38 | 51.85431 | 8.16108 | 51° | 57km/h | 14690m | -12.9m/s | -49.3°C | 0% | 132.1hPa | 2.5V | 08:16:00 | 02:30:42 | 00:00:00 | |
| BIOWL1-15 | 2026-08-31 12:48:37 | 51.85402 | 8.16051 | 52° | 62km/h | 14733m | -16.3m/s | -49.5°C | 0.1% | 131.2hPa | 2.6V | 08:16:00 | 02:30:39 | 00:00:00 | |
| DO2JMG | 2026-08-31 12:48:37 | 51.85421 | 8.16090 | 51° | 58km/h | 14703m | -12.8m/s | -49.4°C | 0% | 131.8hPa | 2.5V | 08:16:00 | 02:30:41 | 00:00:00 | |
| SONDE2-11 | 2026-08-31 12:48:36 | 51.85412 | 8.16070 | 52° | 60km/h | 14717m | -15.7m/s | -49.4°C | 1.0% | 131.6hPa | 2.6V | 00:00:00 | 00:00:00 | 00:00:00 | |
| DJ2DS-15 | 2026-08-31 12:48:35 | 51.85412 | 8.16070 | 53° | 60km/h | 14717m | -15.7m/s | -49.4°C | 3.2% | 131.5hPa | 2.6V | 00:00:00 | 02:30:40 | 00:00:00 | |
| GOEST3-10 | 2026-08-31 12:48:33 | 51.85392 | 8.16030 | 53° | 66km/h | 14749m | -15.2m/s | -49.6°C | 3.3% | 130.9hPa | 2.6V | 00:00:00 | 00:00:00 | 00:00:00 | |
| DD1CC1-15 | 2026-08-31 12:48:32 | 51.85393 | 8.16030 | 53° | 64km/h | 14749m | -15.3m/s | -49.7°C | 1.1% | 130.9hPa | 2.6V | 08:16:00 | 00:00:00 | 00:00:00 | |
| DM0DOS-11 | 2026-08-31 12:48:31 | 51.85343 | 8.15924 | 54° | 64km/h | 14818m | -13.8m/s | -49.6°C | 3.3% | 129.5hPa | 2.6V | 08:15:54 | 02:30:33 | 00:00:00 | |
| DL1LOL-11 | 2026-08-31 12:48:30 | 51.85373 | 8.15988 | 54° | 66km/h | 14778m | -14.6m/s | -49.7°C | 1.1% | 130.3hPa | 2.5V | 00:00:00 | 00:00:00 | 00:00:00 | |
| DD1CC3-15 | 2026-08-31 12:48:29 | 51.85362 | 8.15967 | 54° | 66km/h | 14792m | -13.3m/s | -49.7°C | 1.1% | 130.0hPa | 2.5V | 08:16:00 | 00:00:00 | 00:00:00 | |
| DL1XH-15 | 2026-08-31 12:48:28 | 51.85334 | 8.15903 | 56° | 62km/h | 14832m | -15.4m/s | -49.6°C | 3.3% | 129.2hPa | 2.5V | 08:15:55 | 02:30:32 | 00:00:00 | |
| AA1-15 | 2026-08-31 12:48:27 | 51.85334 | 8.15903 | 57° | 62km/h | 14832m | -15.5m/s | -49.6°C | 0% | 129.2hPa | 2.5V | 08:16:00 | 02:30:32 | 00:00:00 | |
| DL1XH-west | 2026-08-31 12:48:26 | 51.85325 | 8.15882 | 58° | 62km/h | 14848m | -14.8m/s | -49.6°C | 0.1% | 128.9hPa | 2.5V | 08:16:00 | 02:30:31 | 00:00:00 | |
| DO2JMG | 2026-08-31 12:48:25 | 51.85317 | 8.15861 | 58° | 60km/h | 14862m | -13.9m/s | -49.4°C | 0.1% | 128.6hPa | 2.6V | 08:16:00 | 02:30:30 | 00:00:00 | |
| DL1NUX | 2026-08-31 12:48:24 | 51.85287 | 8.15781 | 58° | 57km/h | 14925m | -18m/s | -49.2°C | 3.1% | 127.5hPa | 2.5V | 08:16:01 | 02:30:26 | 00:00:00 | |
| BIOWL1-15 | 2026-08-31 12:48:24 | 51.85302 | 8.15820 | 60° | 58km/h | 14891m | -14.9m/s | -49.3°C | 0% | 128.1hPa | 2.5V | 08:16:00 | 02:30:28 | 00:00:00 | |
| SONCRA | 2026-08-31 12:48:24 | 51.85302 | 8.15820 | 59° | 57km/h | 14891m | -14.9m/s | -49.3°C | 1.0% | 128.1hPa | 2.6V | 00:00:00 | 00:00:00 | 00:00:00 | |
| GOEST3-10 | 2026-08-31 12:48:23 | 51.85302 | 8.15820 | 60° | 57km/h | 14891m | -14.8m/s | -49.3°C | 3.2% | 128.1hPa | 2.6V | 00:00:00 | 00:00:00 | 00:00:00 | |
| DM0DOS-11 | 2026-08-31 12:48:22 | 51.85267 | 8.15722 | 59° | 55km/h | 14979m | -18.8m/s | -49.1°C | 3.1% | 126.4hPa | 2.6V | 08:16:04 | 02:30:23 | 00:00:00 | |
| DF2AP-13 | 2026-08-31 12:48:22 | 51.85295 | 8.15800 | 60° | 64km/h | 14907m | -17.4m/s | -49.3°C | 3.1% | 127.7hPa | 2.5V | 00:00:00 | 02:30:27 | 00:00:00 | |
| DL1XH1-15 | 2026-08-31 12:48:21 | 51.85247 | 8.15662 | 61° | 57km/h | 15034m | -17.2m/s | -48.8°C | 3.1% | 125.4hPa | 2.5V | 08:16:07 | 02:30:20 | 00:00:00 | |
| DF8AY | 2026-08-31 12:48:18 | 51.85267 | 8.15722 | 60° | 55km/h | 14979m | -18.8m/s | -49.1°C | 0% | 126.4hPa | 2.6V | 08:16:51 | 02:30:23 | 00:00:00 | |
| AA1-15 | 2026-08-31 12:48:17 | 51.85260 | 8.15703 | 63° | 55km/h | 14997m | -18.3m/s | -49.2°C | 0% | 126.1hPa | 2.5V | 08:16:51 | 02:30:22 | 00:00:00 | |
| DL1XH-west | 2026-08-31 12:48:16 | 51.85254 | 8.15683 | 61° | 57km/h | 15016m | -18.9m/s | -49.1°C | 0% | 125.8hPa | 2.5V | 08:16:51 | 02:30:21 | 00:00:00 | |
| DO2JMG | 2026-08-31 12:48:15 | 51.85247 | 8.15662 | 61° | 57km/h | 15034m | -17.2m/s | -48.8°C | 0% | 125.4hPa | 2.5V | 08:16:51 | 02:30:20 | 00:00:00 | |
| HSKMA3-T | 2026-08-31 12:48:14 | 51.85239 | 8.15642 | 60° | 58km/h | 15050m | -14.7m/s | -48.8°C | 0% | 125hPa | 2.6V | 08:16:51 | 02:30:19 | 00:00:00 | |
| BIOWL1-15 | 2026-08-31 12:48:14 | 51.85208 | 8.15555 | 59° | 64km/h | 15108m | -14.1m/s | -49.2°C | 0% | 123.9hPa | 2.5V | 08:16:51 | 02:30:15 | 00:00:00 | |
| GOEST3-10 | 2026-08-31 12:48:13 | 51.85232 | 8.15621 | 61° | 62km/h | 15065m | -15.1m/s | -48.9°C | 3.1% | 124.7hPa | 2.6V | 00:00:00 | 00:00:00 | 00:00:00 | |
| DC6BW-12 | 2026-08-31 12:48:12 | 51.85232 | 8.15621 | 62° | 60km/h | 15065m | -15.2m/s | -48.9°C | 1.0% | 124.7hPa | 2.6V | 08:16:00 | 00:00:00 | 00:00:00 | |
| DD1CC1-15 | 2026-08-31 12:48:11 | 51.85224 | 8.15599 | 60° | 62km/h | 15079m | -13.7m/s | -49.0°C | 1.0% | 124.5hPa | 2.6V | 08:16:00 | 00:00:00 | 00:00:00 | |
| DO1YAY-16 | 2026-08-31 12:48:10 | 51.85208 | 8.15555 | 58° | 64km/h | 15108m | -14.1m/s | -49.2°C | 1.0% | 123.9hPa | 2.6V | 00:00:00 | 00:00:00 | 00:00:00 | |
| DL1XH-15 | 2026-08-31 12:48:08 | 51.85183 | 8.15487 | 58° | 66km/h | 15156m | -17.3m/s | -49.5°C | 3.2% | 123.1hPa | 2.6V | 08:16:15 | 02:30:12 | 00:00:00 | |
| AA1-15 | 2026-08-31 12:48:07 | 51.85166 | 8.15439 | 60° | 68km/h | 15192m | -18.6m/s | -49.6°C | 0% | 122.4hPa | 2.5V | 08:16:51 | 02:30:10 | 00:00:00 | |
| DF8AY | 2026-08-31 12:48:07 | 51.85183 | 8.15487 | 59° | 66km/h | 15156m | -17.3m/s | -49.5°C | 0% | 123.1hPa | 2.6V | 08:16:51 | 02:30:12 | 00:00:00 | |
| DL1XH1-15 | 2026-08-31 12:48:07 | 51.85166 | 8.15439 | 60° | 68km/h | 15192m | -18.6m/s | -49.6°C | 3.2% | 122.4hPa | 2.5V | 08:16:17 | 02:30:10 | 00:00:00 | |
| BIOWL1-15 | 2026-08-31 12:48:06 | 51.85142 | 8.15365 | 65° | 69km/h | 15244m | -15.4m/s | -49.6°C | 0.1% | 121.4hPa | 2.5V | 08:16:51 | 02:30:07 | 00:00:00 | |
| SONDE2-11 | 2026-08-31 12:48:06 | 51.85158 | 8.15415 | 61° | 66km/h | 15210m | -18.0m/s | -49.7°C | 1.0% | 122.1hPa | 2.5V | 00:00:00 | 00:00:00 | 00:00:00 | |
| DL1NUX | 2026-08-31 12:48:04 | 51.85135 | 8.15339 | 65° | 68km/h | 15259m | -13.8m/s | -49.4°C | 3.3% | 121.1hPa | 2.5V | 08:16:21 | 02:30:06 | 00:00:00 | |
| DO2JMG | 2026-08-31 12:48:04 | 51.85158 | 8.15415 | 62° | 68km/h | 15210m | -18m/s | -49.7°C | 0.1% | 122.1hPa | 2.6V | 08:16:51 | 02:30:09 | 00:00:00 | |
| GOEST3-10 | 2026-08-31 12:48:03 | 51.85150 | 8.15390 | 63° | 69km/h | 15228m | -17.2m/s | -49.6°C | 3.3% | 121.7hPa | 2.5V | 00:00:00 | 00:00:00 | 00:00:00 | |
| BUE01 | 2026-08-31 12:48:01 | 51.85128 | 8.15314 | 65° | 68km/h | 15273m | -14.7m/s | -49.1°C | 1.0% | 120.9hPa | 2.5V | 00:00:00 | 00:00:00 | 00:00:00 | |
| DL1XH1-15 | 2026-08-31 12:48:00 | 51.85093 | 8.15186 | 67° | 66km/h | 15348m | -16.4m/s | -49°C | 3% | 119.5hPa | 2.5V | 08:16:27 | 02:30:00 | 00:00:00 | |
| DF8AY | 2026-08-31 12:47:57 | 51.85100 | 8.15211 | 66° | 68km/h | 15332m | -15.6m/s | -49.1°C | 0% | 119.8hPa | 2.5V | 08:16:51 | 02:30:01 | 00:00:00 | |
| AA1-15 | 2026-08-31 12:47:55 | 51.85093 | 8.15186 | 67° | 66km/h | 15348m | -16.4m/s | -49°C | 0% | 119.5hPa | 2.5V | 08:16:51 | 02:30:00 | 00:00:00 | |
| HSKMA3-T | 2026-08-31 12:47:54 | 51.85086 | 8.15162 | 66° | 66km/h | 15365m | -16.7m/s | -49°C | 0% | 119.2hPa | 2.5V | 08:16:51 | 02:29:59 | 00:00:00 | |
| DO2JMG | 2026-08-31 12:47:53 | 51.85080 | 8.15138 | 65° | 64km/h | 15382m | -18.1m/s | -49°C | 0% | 118.9hPa | 2.6V | 08:16:51 | 02:29:58 | 00:00:00 | |
| DL1NUX | 2026-08-31 12:47:52 | 51.85066 | 8.15091 | 63° | 62km/h | 15416m | -15.1m/s | -48.9°C | 3.1% | 118.3hPa | 2.6V | 08:16:31 | 02:29:56 | 00:00:00 | |
| EDDB2-11 | 2026-08-31 12:47:50 | 51.85059 | 8.15068 | 63° | 60km/h | 15431m | -14.5m/s | -48.8°C | 0.9% | 118.0hPa | 2.5V | 00:00:00 | 00:00:00 | 00:00:00 | |
| DL1LOL-11 | 2026-08-31 12:47:49 | 51.85059 | 8.15068 | 64° | 62km/h | 15431m | -14.5m/s | -48.8°C | 0.9% | 118.0hPa | 2.5V | 00:00:00 | 00:00:00 | 00:00:00 | |
| DL1XH1-15 | 2026-08-31 12:47:48 | 51.85023 | 8.14956 | 63° | 62km/h | 15501m | -12.7m/s | -48.7°C | 3% | 116.7hPa | 2.5V | 08:16:37 | 02:29:50 | 00:00:00 | |
| DF8AY | 2026-08-31 12:47:45 | 51.85023 | 8.14956 | 63° | 62km/h | 15501m | -12.7m/s | -48.7°C | 0% | 116.7hPa | 2.5V | 08:16:51 | 02:29:50 | 00:00:00 | |
| HSKMA3-T | 2026-08-31 12:47:43 | 51.85009 | 8.14912 | 63° | 60km/h | 15524m | -12.3m/s | -48.8°C | 0% | 116.3hPa | 2.6V | 08:16:51 | 02:29:48 | 00:00:00 | |
| DL1NUX | 2026-08-31 12:47:43 | 51.84996 | 8.14869 | 64° | 58km/h | 15546m | -10.6m/s | -49.1°C | 3% | 115.9hPa | 2.5V | 08:16:41 | 02:29:46 | 00:00:00 | |
| DO2JMG | 2026-08-31 12:47:42 | 51.85002 | 8.14891 | 64° | 58km/h | 15536m | -10.6m/s | -49°C | 0% | 116hPa | 2.6V | 08:16:51 | 02:29:47 | 00:00:00 | |
| DB0NH | 2026-08-31 12:47:39 | 51.84984 | 8.14828 | 65° | 46km/h | 15571m | -12.2m/s | -49.2°C | 3.0% | 115.4hPa | 2.5V | 00:00:00 | 02:29:44 | 00:00:00 | |
| DJ8HS-15 | 2026-08-31 12:47:38 | 51.84978 | 8.14808 | 67° | 49km/h | 15584m | -15.1m/s | -49.3°C | 3.1% | 115.2hPa | 2.5V | 00:00:00 | 02:29:43 | 00:00:00 | |
| DL1XH1-15 | 2026-08-31 12:47:36 | 51.84963 | 8.14752 | 66° | 49km/h | 15626m | -11.9m/s | -49.6°C | 3.2% | 114.5hPa | 2.5V | 08:16:47 | 02:29:40 | 00:00:00 | |
| DF8AY | 2026-08-31 12:47:35 | 51.84963 | 8.14752 | 66° | 49km/h | 15626m | -11.9m/s | -49.6°C | 0% | 114.5hPa | 2.5V | 08:16:51 | 02:29:40 | 00:00:00 | |
| AA1-15 | 2026-08-31 12:47:35 | 51.84958 | 8.14734 | 65° | 49km/h | 15638m | -12.1m/s | -49.7°C | 0% | 114.3hPa | 2.5V | 08:16:51 | 02:29:39 | 00:00:00 | |
| HSKMA3-T | 2026-08-31 12:47:34 | 51.84952 | 8.14716 | 64° | 49km/h | 15651m | -12.9m/s | -49.7°C | 0% | 114.1hPa | 2.5V | 08:16:51 | 02:29:38 | 00:00:00 | |
| DL1NUX | 2026-08-31 12:47:32 | 51.84940 | 8.14679 | 62° | 53km/h | 15675m | -10.2m/s | -49.9°C | 3.3% | 113.6hPa | 2.6V | 08:16:51 | 02:29:36 | 00:00:00 | |
| DO2JMG | 2026-08-31 12:47:32 | 51.84946 | 8.14698 | 62° | 51km/h | 15664m | -12.6m/s | -49.8°C | 0.1% | 113.9hPa | 2.6V | 08:16:51 | 02:29:37 | 00:00:00 | |
| AA1-15 | 2026-08-31 12:47:24 | 51.84904 | 8.14545 | 69° | 46km/h | 15761m | -15.2m/s | -50.2°C | 0.1% | 112.2hPa | 2.5V | 08:17:42 | 02:29:29 | 00:00:00 | |
| DL1NUX | 2026-08-31 12:47:24 | 51.84893 | 8.14494 | 70° | 42km/h | 15802m | -12.6m/s | -49.9°C | 3.2% | 111.4hPa | 2.6V | 08:17:01 | 02:29:26 | 00:00:00 | |
| DO2JMG | 2026-08-31 12:47:22 | 51.84897 | 8.14510 | 70° | 44km/h | 15789m | -13.6m/s | -50°C | 0.1% | 111.7hPa | 2.6V | 08:17:42 | 02:29:27 | 00:00:00 | |
| BIOWL1-15 | 2026-08-31 12:47:21 | 51.84880 | 8.14433 | 73° | 38km/h | 15854m | -14.3m/s | -49.7°C | 0% | 110.6hPa | 2.6V | 08:17:42 | 02:29:22 | 00:00:00 | |
| DL1XH-west | 2026-08-31 12:47:21 | 51.84893 | 8.14494 | 71° | 42km/h | 15802m | -12.6m/s | -49.9°C | 0% | 111.4hPa | 2.6V | 08:17:42 | 02:29:26 | 00:00:00 | |
| DL1XH-15 | 2026-08-31 12:47:21 | 51.84880 | 8.14433 | 72° | 38km/h | 15854m | -14.3m/s | -49.7°C | 3.2% | 110.6hPa | 2.6V | 08:17:05 | 02:29:22 | 00:00:00 | |
| EDDB2-11 | 2026-08-31 12:47:19 | 51.84883 | 8.14448 | 71° | 38km/h | 15840m | -13.8m/s | -49.7°C | 1.0% | 110.9hPa | 2.5V | 00:00:00 | 00:00:00 | 00:00:00 | |
| DL3AQ-11 | 2026-08-31 12:47:18 | 51.84880 | 8.14433 | 72° | 38km/h | 15854m | -14.3m/s | -49.7°C | 1.0% | 110.6hPa | 2.5V | 00:00:00 | 00:00:00 | 00:00:00 | |
| DD8BA-10 | 2026-08-31 12:47:17 | 51.84880 | 8.14433 | 73° | 42km/h | 15854m | -14.3m/s | -49.7°C | 3.2% | 110.5hPa | 2.5V | 00:00:00 | 00:00:00 | 00:00:00 | |
| DO9LL-15 | 2026-08-31 12:47:16 | 51.84877 | 8.14418 | 72° | 47km/h | 15868m | -13.1m/s | -49.7°C | 3.2% | 110.3hPa | 2.5V | 00:00:00 | 02:29:21 | 00:00:00 | |
| DJ2DS-15 | 2026-08-31 12:47:15 | 51.84874 | 8.14403 | 73° | 47km/h | 15881m | -13.2m/s | -49.8°C | 3.2% | 110.1hPa | 2.6V | 00:00:00 | 02:29:20 | 00:00:00 | |
| DL1NUX | 2026-08-31 12:47:14 | 51.84862 | 8.14342 | 70° | 42km/h | 15940m | -14.8m/s | -49.8°C | 3.2% | 109.1hPa | 2.6V | 08:17:11 | 02:29:16 | 00:00:00 | |
| AA1-15 | 2026-08-31 12:47:14 | 51.84868 | 8.14373 | 73° | 38km/h | 15911m | -15.6m/s | -49.9°C | 0% | 109.7hPa | 2.6V | 08:17:42 | 02:29:18 | 00:00:00 | |
| DF8AY | 2026-08-31 12:47:14 | 51.84850 | 8.14291 | 70° | 46km/h | 15983m | -12.8m/s | -49.9°C | 0% | 108.4hPa | 2.5V | 08:17:42 | 02:29:13 | 00:00:00 | |
| HSKMA3-T | 2026-08-31 12:47:12 | 51.84865 | 8.14358 | 71° | 40km/h | 15925m | -14.7m/s | -49.9°C | 0% | 109.4hPa | 2.6V | 08:17:42 | 02:29:17 | 00:00:00 | |
| DO2JMG | 2026-08-31 12:47:11 | 51.84862 | 8.14342 | 71° | 42km/h | 15940m | -14.8m/s | -49.8°C | 0% | 109.1hPa | 2.6V | 08:17:42 | 02:29:16 | 00:00:00 | |
| DL1XH-west | 2026-08-31 12:47:10 | 51.84858 | 8.14325 | 71° | 44km/h | 15955m | -15.2m/s | -49.7°C | 0% | 108.9hPa | 2.5V | 08:17:42 | 02:29:15 | 00:00:00 | |
| DF5WG-10 | 2026-08-31 12:47:10 | 51.84858 | 8.14325 | 71° | 51km/h | 15956m | -15.1m/s | -49.7°C | 3.2% | 108.9hPa | 2.5V | 08:17:00 | 02:29:15 | 00:00:00 | |
| DD1CC1-15 | 2026-08-31 12:47:09 | 51.84858 | 8.14325 | 72° | 44km/h | 15956m | -15.2m/s | -49.7°C | 1.0% | 108.9hPa | 2.6V | 00:00:00 | 00:00:00 | 00:00:00 | |
| DL1XH-15 | 2026-08-31 12:47:08 | 51.84846 | 8.14272 | 69° | 47km/h | 15995m | -11.1m/s | -50°C | 3.3% | 108.2hPa | 2.6V | 08:17:15 | 02:29:12 | 00:00:00 | |
| DD8BA-10 | 2026-08-31 12:47:07 | 51.84846 | 8.14272 | 70° | 53km/h | 15995m | -11.0m/s | -50.0°C | 3.3% | 108.1hPa | 2.6V | 00:00:00 | 00:00:00 | 00:00:00 | |
| DL1NUX | 2026-08-31 12:47:06 | 51.84810 | 8.14133 | 66° | 53km/h | 16100m | -13.7m/s | -50.4°C | 3.3% | 106.5hPa | 2.6V | 08:17:22 | 02:29:05 | 00:00:00 | |
| BIOWL1-15 | 2026-08-31 12:47:01 | 51.84816 | 8.14153 | 67° | 55km/h | 16087m | -13.9m/s | -50.4°C | 0.1% | 106.7hPa | 2.6V | 08:17:42 | 02:29:06 | 00:00:00 | |
| DL1XH-15 | 2026-08-31 12:47:01 | 51.84795 | 8.14075 | 65° | 51km/h | 16139m | -12.9m/s | -50.5°C | 3.3% | 105.8hPa | 2.6V | 08:17:25 | 02:29:02 | 00:00:00 | |
| DO2JMG | 2026-08-31 12:47:00 | 51.84810 | 8.14133 | 66° | 53km/h | 16100m | -13.7m/s | -50.4°C | 0% | 106.5hPa | 2.6V | 08:17:42 | 02:29:05 | 00:00:00 | |
| DL1XH-west | 2026-08-31 12:46:59 | 51.84805 | 8.14113 | 66° | 53km/h | 16113m | -11.8m/s | -50.3°C | 0% | 106.2hPa | 2.5V | 08:17:42 | 02:29:04 | 00:00:00 | |
| DM0DOS-11 | 2026-08-31 12:46:59 | 51.84779 | 8.14019 | 65° | 51km/h | 16174m | -11.1m/s | -50.4°C | 3.3% | 105.2hPa | 2.5V | 08:17:28 | 02:28:59 | 00:00:00 | |
| DF5WG-10 | 2026-08-31 12:46:59 | 51.84805 | 8.14113 | 67° | 53km/h | 16113m | -11.8m/s | -50.3°C | 3.3% | 106.2hPa | 2.6V | 00:00:00 | 02:29:04 | 00:00:00 | |
| SO1NDE-10 | 2026-08-31 12:46:58 | 51.84800 | 8.14093 | 66° | 47km/h | 16126m | -13.5m/s | -50.3°C | 3.3% | 106.0hPa | 2.6V | 00:00:00 | 02:29:03 | 00:00:00 | |
| DL4XJ-10 | 2026-08-31 12:46:57 | 51.84795 | 8.14075 | 66° | 49km/h | 16139m | -12.8m/s | -49.7°C | 0% | 0hPa | 2.6V | 00:00:00 | 00:00:00 | 00:00:00 | |
| DB0UT-7 | 2026-08-31 12:46:56 | 51.84789 | 8.14056 | 67° | 47km/h | 16151m | -11.3m/s | -50.4°C | 3.3% | 105.5hPa | 2.6V | 00:00:00 | 00:00:00 | 00:00:00 | |
| DJ2DS-15 | 2026-08-31 12:46:55 | 51.84784 | 8.14037 | 66° | 49km/h | 16163m | -11.7m/s | -50.4°C | 3.3% | 105.4hPa | 2.6V | 00:00:00 | 02:29:00 | 00:00:00 | |
| DL1NUX | 2026-08-31 12:46:54 | 51.84758 | 8.13941 | 67° | 53km/h | 16218m | -11.9m/s | -50.4°C | 3.4% | 104.5hPa | 2.6V | 08:17:32 | 02:28:55 | 00:00:00 | |
| AA1-15 | 2026-08-31 12:46:53 | 51.84758 | 8.13941 | 68° | 53km/h | 16218m | -11.9m/s | -50.4°C | 0.1% | 104.5hPa | 2.6V | 08:17:42 | 02:28:55 | 00:00:00 | |
| BIOWL1-15 | 2026-08-31 12:46:53 | 51.84743 | 8.13880 | 70° | 51km/h | 16252m | -13.5m/s | -50.2°C | 0.1% | 104hPa | 2.5V | 08:17:42 | 02:28:52 | 00:00:00 | |
| HSKMA3-T | 2026-08-31 12:46:51 | 51.84763 | 8.13961 | 67° | 53km/h | 16208m | -9.3m/s | -50.4°C | 0.1% | 104.7hPa | 2.6V | 08:17:42 | 02:28:56 | 00:00:00 | |
| DO2JMG | 2026-08-31 12:46:50 | 51.84753 | 8.13920 | 69° | 53km/h | 16229m | -9.7m/s | -50.3°C | 0.1% | 104.3hPa | 2.5V | 08:17:42 | 02:28:54 | 00:00:00 | |
| DL1XH-west | 2026-08-31 12:46:48 | 51.84748 | 8.13900 | 70° | 53km/h | 16239m | -11.6m/s | -50.3°C | 0.1% | 104.2hPa | 2.5V | 08:17:42 | 02:28:53 | 00:00:00 | |
| GOEST3-10 | 2026-08-31 12:46:47 | 51.84743 | 8.13880 | 70° | 49km/h | 16252m | -13.5m/s | -50.1°C | 3.3% | 104.0hPa | 2.6V | 00:00:00 | 02:28:52 | 00:00:00 | |
| DM0DOS-11 | 2026-08-31 12:46:46 | 51.84729 | 8.13823 | 67° | 49km/h | 16294m | -13.8m/s | -50.4°C | 3.3% | 103.3hPa | 2.6V | 08:17:38 | 02:28:49 | 00:00:00 | |
| DO9LL-15 | 2026-08-31 12:46:46 | 51.84739 | 8.13860 | 68° | 40km/h | 16265m | -12.8m/s | -50.2°C | 3.3% | 103.8hPa | 2.6V | 00:00:00 | 02:28:51 | 00:00:00 | |
| DD1CC3-15 | 2026-08-31 12:46:45 | 51.84739 | 8.13860 | 69° | 51km/h | 16265m | -12.9m/s | -50.2°C | 1.0% | 103.8hPa | 2.6V | 08:17:00 | 00:00:00 | 00:00:00 | |
| DL1NUX | 2026-08-31 12:46:44 | 51.84711 | 8.13752 | 67° | 46km/h | 16349m | -14.4m/s | -50.4°C | 3.3% | 102.5hPa | 2.6V | 08:17:42 | 02:28:45 | 00:00:00 | |
| HSKMA3-T | 2026-08-31 12:46:41 | 51.84715 | 8.13770 | 68° | 46km/h | 16335m | -15.2m/s | -50.5°C | 0.1% | 102.7hPa | 2.5V | 08:17:42 | 02:28:46 | 00:00:00 | |
| DL1XH-15 | 2026-08-31 12:46:40 | 51.84699 | 8.13700 | 70° | 44km/h | 16393m | -15.3m/s | -50.3°C | 3.3% | 101.8hPa | 2.5V | 08:17:45 | 02:28:42 | 00:00:00 | |
| BIOWL1-15 | 2026-08-31 12:46:40 | 51.84711 | 8.13752 | 67° | 46km/h | 16349m | -14.4m/s | -50.4°C | 0.1% | 102.5hPa | 2.6V | 08:17:42 | 02:28:45 | 00:00:00 | |
| DO2JMG | 2026-08-31 12:46:38 | 51.84703 | 8.13718 | 70° | 46km/h | 16379m | -13.7m/s | -50.3°C | 0% | 102hPa | 2.6V | 08:18:33 | 02:28:43 | 00:00:00 | |
| DL1XH-west | 2026-08-31 12:46:37 | 51.84699 | 8.13700 | 71° | 44km/h | 16393m | -15.3m/s | -50.3°C | 0.1% | 101.8hPa | 2.5V | 08:18:33 | 02:28:42 | 00:00:00 | |
| DF8AY | 2026-08-31 12:46:36 | 51.84682 | 8.13618 | 71° | 40km/h | 16470m | -13.9m/s | -50.7°C | 0.1% | 100.6hPa | 2.5V | 08:18:33 | 02:28:37 | 00:00:00 | |
| DL4BBY-15 | 2026-08-31 12:46:36 | 51.84695 | 8.13683 | 73° | 38km/h | 16409m | -16.4m/s | -49.6°C | 0% | 0hPa | 2.5V | 00:00:00 | 00:00:00 | 00:00:00 | |
| DJ2DS-15 | 2026-08-31 12:46:35 | 51.84692 | 8.13666 | 72° | 38km/h | 16425m | -15.2m/s | -50.4°C | 3.3% | 101.3hPa | 2.5V | 08:17:00 | 02:28:40 | 00:00:00 | |
| DF5WG-10 | 2026-08-31 12:46:34 | 51.84688 | 8.13650 | 71° | 40km/h | 16440m | -15.4m/s | -50.5°C | 3.4% | 101.1hPa | 2.6V | 00:00:00 | 02:28:39 | 00:00:00 | |
| DL1NUX | 2026-08-31 12:46:31 | 51.84675 | 8.13588 | 70° | 40km/h | 16495m | -12.7m/s | -50.7°C | 3.5% | 100.2hPa | 2.6V | 08:17:52 | 02:28:35 | 00:00:00 | |
| HSKMA3-T | 2026-08-31 12:46:31 | 51.84675 | 8.13588 | 70° | 40km/h | 16495m | -12.7m/s | -50.7°C | 0.2% | 100.2hPa | 2.6V | 08:18:33 | 02:28:35 | 00:00:00 | |
| DD1CC1-15 | 2026-08-31 12:46:29 | 51.84675 | 8.13588 | 71° | 40km/h | 16495m | -12.7m/s | -50.7°C | 1.0% | 100.2hPa | 2.5V | 08:18:00 | 00:00:00 | 00:00:00 | |
| DL1XH-15 | 2026-08-31 12:46:28 | 51.84665 | 8.13542 | 68° | 38km/h | 16532m | -11.9m/s | -50.8°C | 3.5% | 99.7hPa | 2.5V | 08:17:55 | 02:28:32 | 00:00:00 | |
| DO2JMG | 2026-08-31 12:46:28 | 51.84668 | 8.13557 | 69° | 40km/h | 16521m | -11.4m/s | -50.8°C | 0.2% | 99.8hPa | 2.5V | 08:18:33 | 02:28:33 | 00:00:00 | |
| DL1XH-west | 2026-08-31 12:46:27 | 51.84664 | 8.13542 | 69° | 38km/h | 16532m | -11.9m/s | -50.8°C | 0.2% | 99.7hPa | 2.5V | 08:18:33 | 02:28:32 | 00:00:00 | |
| DF8AY | 2026-08-31 12:46:26 | 51.84661 | 8.13528 | 68° | 38km/h | 16544m | -11.9m/s | -50.7°C | 0.1% | 99.5hPa | 2.5V | 08:18:33 | 02:28:31 | 00:00:00 | |
| DB0UT-7 | 2026-08-31 12:46:26 | 51.84661 | 8.13527 | 68° | 40km/h | 16545m | -11.8m/s | -50.6°C | 3.4% | 99.4hPa | 2.6V | 00:00:00 | 02:28:31 | 00:00:00 | |
| DL3AQ-11 | 2026-08-31 12:46:25 | 51.84653 | 8.13500 | 62° | 35km/h | 16574m | -16.9m/s | -50.6°C | 1.0% | 99.1hPa | 2.6V | 00:00:00 | 00:00:00 | 00:00:00 | |
| DL1ZP-14 | 2026-08-31 12:46:24 | 51.84653 | 8.13500 | 62° | 35km/h | 16574m | -16.9m/s | -50.6°C | 1.0% | 99.1hPa | 2.6V | 00:00:00 | 00:00:00 | 00:00:00 | |
| GOEST3-10 | 2026-08-31 12:46:22 | 51.84644 | 8.13477 | 55° | 35km/h | 16606m | -15.0m/s | -50.3°C | 3.3% | 98.5hPa | 2.5V | 00:00:00 | 00:00:00 | 00:00:00 | |
| DM0DOS-11 | 2026-08-31 12:46:19 | 51.84589 | 8.13394 | 37° | 40km/h | 16713m | -14.4m/s | -49.6°C | 3% | 96.9hPa | 2.5V | 08:18:08 | 02:28:19 | 00:00:00 | |
| HSKMA3-T | 2026-08-31 12:46:19 | 51.84627 | 8.13444 | 44° | 35km/h | 16644m | -12.3m/s | -50.6°C | 0% | 98hPa | 2.6V | 08:18:33 | 02:28:24 | 00:00:00 | |
| DO2JMG | 2026-08-31 12:46:18 | 51.84620 | 8.13434 | 41° | 37km/h | 16657m | -14.7m/s | -50.5°C | 0.1% | 97.8hPa | 2.6V | 08:18:33 | 02:28:23 | 00:00:00 | |
| BIOWL1-15 | 2026-08-31 12:46:17 | 51.84589 | 8.13394 | 37° | 40km/h | 16713m | -14.4m/s | -49.6°C | 0% | 97hPa | 2.5V | 08:18:33 | 02:28:19 | 00:00:00 | |
| DL1XH-west | 2026-08-31 12:46:17 | 51.84605 | 8.13414 | 38° | 40km/h | 16686m | -14.2m/s | -50.1°C | 0% | 97.4hPa | 2.5V | 08:18:33 | 02:28:21 | 00:00:00 | |
| DF8AY | 2026-08-31 12:46:16 | 51.84548 | 8.13349 | 31° | 37km/h | 16787m | -13.1m/s | -50°C | 0% | 95.8hPa | 2.5V | 08:18:33 | 02:28:14 | 00:00:00 | |
| DL8DAS-15 | 2026-08-31 12:46:15 | 51.84605 | 8.13414 | 39° | 40km/h | 16686m | -14.2m/s | -50.1°C | 1.0% | 97.4hPa | 2.6V | 00:00:00 | 00:00:00 | 00:00:00 | |
| DL1XH1-15 | 2026-08-31 12:46:14 | 51.84581 | 8.13384 | 35° | 40km/h | 16727m | -14m/s | -49.5°C | 3% | 96.7hPa | 2.6V | 08:18:09 | 02:28:18 | 00:00:00 | |
| DL3AQ-11 | 2026-08-31 12:46:14 | 51.84581 | 8.13384 | 35° | 40km/h | 16727m | -14.0m/s | -49.5°C | 0.9% | 96.8hPa | 2.6V | 00:00:00 | 00:00:00 | 00:00:00 | |
| DF5WG-10 | 2026-08-31 12:46:13 | 51.84580 | 8.13384 | 36° | 38km/h | 16728m | -14.0m/s | -49.5°C | 3.0% | 96.7hPa | 2.6V | 00:00:00 | 02:28:18 | 00:00:00 | |
| GOEST3-10 | 2026-08-31 12:46:12 | 51.84572 | 8.13375 | 36° | 38km/h | 16742m | -15.3m/s | -49.6°C | 3.0% | 96.5hPa | 2.6V | 00:00:00 | 00:00:00 | 00:00:00 | |
| DL8DAS-14 | 2026-08-31 12:46:11 | 51.84556 | 8.13357 | 32° | 37km/h | 16773m | -16.0m/s | -49.9°C | 0.9% | 96.1hPa | 2.5V | 00:00:00 | 00:00:00 | 00:00:00 | |
| DM0DOS-11 | 2026-08-31 12:46:09 | 51.84504 | 8.13316 | 22° | 44km/h | 16853m | -15.9m/s | -50.6°C | 3.3% | 94.9hPa | 2.5V | 08:18:18 | 02:28:09 | 00:00:00 | |
| DC6BW-12 | 2026-08-31 12:46:09 | 51.84556 | 8.13357 | 33° | 38km/h | 16773m | -16.0m/s | -49.9°C | 1.0% | 96.1hPa | 2.6V | 08:18:00 | 00:00:00 | 00:00:00 | |
| DL1XH-15 | 2026-08-31 12:46:08 | 51.84532 | 8.13335 | 24° | 37km/h | 16812m | -11.9m/s | -50.2°C | 3.2% | 95.5hPa | 2.6V | 08:18:15 | 02:28:12 | 00:00:00 | |
| HSKMA3-T | 2026-08-31 12:46:08 | 51.84540 | 8.13342 | 29° | 37km/h | 16800m | -12m/s | -50.1°C | 0% | 95.6hPa | 2.5V | 08:18:33 | 02:28:13 | 00:00:00 | |
| DO2JMG | 2026-08-31 12:46:07 | 51.84532 | 8.13335 | 25° | 37km/h | 16812m | -11.9m/s | -50.3°C | 0% | 95.5hPa | 2.6V | 08:18:33 | 02:28:12 | 00:00:00 | |
| AA1-15 | 2026-08-31 12:46:06 | 51.84523 | 8.13329 | 23° | 40km/h | 16824m | -13.4m/s | -50.3°C | 0% | 95.3hPa | 2.6V | 08:18:33 | 02:28:11 | 00:00:00 | |
| DL1XH-west | 2026-08-31 12:46:05 | 51.84514 | 8.13322 | 22° | 42km/h | 16838m | -14m/s | -50.5°C | 0% | 95.1hPa | 2.5V | 08:18:33 | 02:28:10 | 00:00:00 | |
| DL1XH1-15 | 2026-08-31 12:46:04 | 51.84493 | 8.13309 | 23° | 46km/h | 16869m | -15.6m/s | -50.8°C | 3.3% | 94.7hPa | 2.6V | 08:18:19 | 02:28:08 | 00:00:00 | |
| DF8AY | 2026-08-31 12:46:02 | 51.84482 | 8.13301 | 25° | 47km/h | 16884m | -14.3m/s | -50.9°C | 0.1% | 94.4hPa | 2.6V | 08:18:33 | 02:28:07 | 00:00:00 | |
| GOEST3-10 | 2026-08-31 12:46:02 | 51.84482 | 8.13301 | 25° | 49km/h | 16884m | -14.2m/s | -50.9°C | 3.4% | 94.4hPa | 2.5V | 00:00:00 | 00:00:00 | 00:00:00 | |
| DL1XH-15 | 2026-08-31 12:46:00 | 51.84428 | 8.13251 | 36° | 49km/h | 16956m | -15.5m/s | -51.4°C | 3.6% | 93.3hPa | 2.5V | 08:18:25 | 02:28:02 | 00:00:00 | |
| DL1XH1-15 | 2026-08-31 12:45:58 | 51.84391 | 8.13198 | 45° | 47km/h | 17010m | -12.1m/s | -51°C | 3.5% | 92.5hPa | 2.6V | 08:18:29 | 02:27:58 | 00:00:00 | |
| DM0DOS-11 | 2026-08-31 12:45:58 | 51.84399 | 8.13212 | 44° | 47km/h | 16997m | -13.2m/s | -51.1°C | 3.6% | 92.8hPa | 2.6V | 08:18:28 | 02:27:59 | 00:00:00 | |
| DO2JMG | 2026-08-31 12:45:57 | 51.84428 | 8.13251 | 36° | 49km/h | 16956m | -15.5m/s | -51.4°C | 0.2% | 93.4hPa | 2.5V | 08:18:33 | 02:28:02 | 00:00:00 | |
| BIOWL1-15 | 2026-08-31 12:45:56 | 51.84418 | 8.13238 | 39° | 49km/h | 16970m | -14m/s | -51.4°C | 0.2% | 93.1hPa | 2.5V | 08:18:33 | 02:28:01 | 00:00:00 | |
| DL1XH-west | 2026-08-31 12:45:55 | 51.84409 | 8.13225 | 41° | 49km/h | 16984m | -13.7m/s | -51.2°C | 0.2% | 93hPa | 2.5V | 08:18:33 | 02:28:00 | 00:00:00 | |
| DJ2KF-10 | 2026-08-31 12:45:55 | 51.84408 | 8.13225 | 42° | 42km/h | 16984m | -13.6m/s | -51.2°C | 3.6% | 92.9hPa | 2.5V | 00:00:00 | 02:28:00 | 00:00:00 | |
| DL1NUX | 2026-08-31 12:45:54 | 51.84366 | 8.13159 | 42° | 44km/h | 17047m | -14.4m/s | -51°C | 3.5% | 92.1hPa | 2.5V | 08:18:32 | 02:27:55 | 00:00:00 | |
| DF8AY | 2026-08-31 12:45:52 | 51.84374 | 8.13172 | 44° | 46km/h | 17034m | -12.1m/s | -50.9°C | 0.2% | 92.2hPa | 2.5V | 08:18:33 | 02:27:56 | 00:00:00 | |
| DB0ND-19 | 2026-08-31 12:45:51 | 51.84358 | 8.13148 | 40° | 42km/h | 17062m | -15.4m/s | -51.0°C | 1.0% | 91.9hPa | 2.6V | 00:00:00 | 00:00:00 | 00:00:00 | |
| DL1XH-15 | 2026-08-31 12:45:48 | 51.84342 | 8.13125 | 41° | 42km/h | 17089m | -11.6m/s | -51°C | 3.5% | 91.4hPa | 2.6V | 08:18:35 | 02:27:52 | 00:00:00 | |
| DJ8HS-15 | 2026-08-31 12:45:48 | 51.84350 | 8.13136 | 41° | 40km/h | 17076m | -13.5m/s | -50.9°C | 3.5% | 91.6hPa | 2.5V | 00:00:00 | 02:27:53 | 00:00:00 | |
| DM0DOS-11 | 2026-08-31 12:45:47 | 51.84320 | 8.13091 | 46° | 40km/h | 17133m | -15.3m/s | -50.6°C | 3.4% | 90.9hPa | 2.5V | 08:18:38 | 02:27:49 | 00:00:00 | |
| HSKMA3-T | 2026-08-31 12:45:47 | 51.84342 | 8.13125 | 41° | 42km/h | 17089m | -11.6m/s | -51°C | 0.2% | 91.4hPa | 2.6V | 08:19:24 | 02:27:52 | 00:00:00 | |
| DL1XH1-15 | 2026-08-31 12:45:46 | 51.84312 | 8.13079 | 46° | 40km/h | 17147m | -14m/s | -50.6°C | 3.4% | 90.6hPa | 2.5V | 08:18:39 | 02:27:48 | 00:00:00 | |
| DO2JMG | 2026-08-31 12:45:46 | 51.84334 | 8.13114 | 43° | 40km/h | 17102m | -14.3m/s | -50.7°C | 0.1% | 91.3hPa | 2.6V | 08:19:24 | 02:27:51 | 00:00:00 | |
| DL1XH-west | 2026-08-31 12:45:45 | 51.84327 | 8.13103 | 44° | 40km/h | 17117m | -16.2m/s | -50.6°C | 0.1% | 91.1hPa | 2.5V | 08:19:24 | 02:27:50 | 00:00:00 | |
| AA1-15 | 2026-08-31 12:45:44 | 51.84320 | 8.13091 | 46° | 40km/h | 17133m | -15.3m/s | -50.6°C | 0.1% | 90.9hPa | 2.5V | 08:19:24 | 02:27:49 | 00:00:00 | |
| DF8AY | 2026-08-31 12:45:41 | 51.84299 | 8.13054 | 52° | 42km/h | 17173m | -12.4m/s | -50.5°C | 0.2% | 90.3hPa | 2.6V | 08:21:57 | 02:27:46 | 00:00:00 | |
| DL1XH-15 | 2026-08-31 12:45:40 | 51.84276 | 8.12998 | 60° | 42km/h | 17225m | -11.4m/s | -49.9°C | 3.2% | 89.6hPa | 2.5V | 08:18:45 | 02:27:42 | 00:00:00 | |
| BIOWL1-15 | 2026-08-31 12:45:39 | 51.84242 | 8.12917 | 53° | 38km/h | 17308m | -14.4m/s | -50.1°C | 0.1% | 88.5hPa | 2.6V | 08:19:24 | 02:27:36 | 00:00:00 | |
| DB0NH | 2026-08-31 12:45:39 | 51.84287 | 8.13027 | 57° | 38km/h | 17199m | -12.6m/s | -49.9°C | 3.2% | 89.9hPa | 2.5V | 00:00:00 | 02:27:44 | 00:00:00 | |
| BIOWL9-15 | 2026-08-31 12:45:38 | 51.84276 | 8.12998 | 60° | 42km/h | 17225m | -11.4m/s | -49.9°C | 0.9% | 89.6hPa | 2.5V | 00:00:00 | 00:00:00 | 00:00:00 | |
| DM0DOS-11 | 2026-08-31 12:45:37 | 51.84259 | 8.12955 | 56° | 40km/h | 17263m | -14.9m/s | -50°C | 3.2% | 89.1hPa | 2.5V | 08:18:48 | 02:27:39 | 00:00:00 | |
| DO2JMG | 2026-08-31 12:45:36 | 51.84270 | 8.12984 | 57° | 42km/h | 17237m | -12m/s | -49.9°C | 0% | 89.4hPa | 2.6V | 08:19:24 | 02:27:41 | 00:00:00 | |
| DF8AY-15 | 2026-08-31 12:45:36 | 51.84270 | 8.12984 | 58° | 37km/h | 17237m | -11.9m/s | -49.9°C | 3.2% | 89.3hPa | 2.5V | 00:00:00 | 02:27:41 | 00:00:00 | |
| DL1XH1-15 | 2026-08-31 12:45:35 | 51.84253 | 8.12942 | 55° | 38km/h | 17278m | -14.9m/s | -50.1°C | 3.2% | 88.9hPa | 2.5V | 08:18:49 | 02:27:38 | 00:00:00 | |
| DL1XH-west | 2026-08-31 12:45:34 | 51.84259 | 8.12955 | 57° | 40km/h | 17263m | -14.9m/s | -50°C | 0% | 89.1hPa | 2.5V | 08:19:24 | 02:27:39 | 00:00:00 | |
| DF8AY | 2026-08-31 12:45:31 | 51.84236 | 8.12905 | 53° | 37km/h | 17322m | -13.5m/s | -50.1°C | 0% | 88.2hPa | 2.5V | 08:21:57 | 02:27:35 | 00:00:00 | |
| DM0DOS-11 | 2026-08-31 12:45:29 | 51.84185 | 8.12828 | 40° | 44km/h | 17439m | -18.3m/s | -50.1°C | 3.3% | 86.8hPa | 2.6V | 08:18:59 | 02:27:28 | 00:00:00 | |
| HSKMA3-T | 2026-08-31 12:45:26 | 51.84210 | 8.12862 | 42° | 42km/h | 17382m | -19.4m/s | -49.7°C | 0% | 87.5hPa | 2.5V | 08:19:24 | 02:27:31 | 00:00:00 | |
| DO2JMG | 2026-08-31 12:45:26 | 51.84201 | 8.12851 | 39° | 42km/h | 17401m | -19.7m/s | -49.9°C | 0% | 87.3hPa | 2.5V | 08:19:24 | 02:27:30 | 00:00:00 | |
| DL1XH-west | 2026-08-31 12:45:23 | 51.84185 | 8.12828 | 40° | 44km/h | 17439m | -18.3m/s | -50.1°C | 0.1% | 86.8hPa | 2.6V | 08:19:24 | 02:27:28 | 00:00:00 | |
| DF8AY | 2026-08-31 12:45:19 | 51.84138 | 8.12760 | 43° | 38km/h | 17553m | -20.2m/s | -50.9°C | 0.2% | 85.3hPa | 2.6V | 08:21:57 | 02:27:22 | 00:00:00 | |
| DL3AQ-11 | 2026-08-31 12:45:19 | 51.84138 | 8.12760 | 42° | 38km/h | 17553m | -20.2m/s | -50.9°C | 1.0% | 85.3hPa | 2.5V | 00:00:00 | 00:00:00 | 00:00:00 | |
| DM0DOS-11 | 2026-08-31 12:45:18 | 51.84118 | 8.12732 | 38° | 31km/h | 17618m | -22.7m/s | -50.7°C | 3.4% | 84.5hPa | 2.5V | 08:19:08 | 02:27:19 | 00:00:00 | |
| BIOWL1-15 | 2026-08-31 12:45:17 | 51.84112 | 8.12725 | 36° | 31km/h | 17640m | -21.1m/s | -50.1°C | 0% | 84.2hPa | 2.5V | 08:19:24 | 02:27:18 | 00:00:00 | |
| DL1XH1-15 | 2026-08-31 12:45:17 | 51.84112 | 8.12725 | 36° | 31km/h | 17640m | -21.1m/s | -50.1°C | 3.2% | 84.2hPa | 2.5V | 08:19:09 | 02:27:18 | 00:00:00 | |
| DO2JMG | 2026-08-31 12:45:15 | 51.84124 | 8.12741 | 40° | 33km/h | 17595m | -22.5m/s | -50.9°C | 0.2% | 84.8hPa | 2.6V | 08:19:24 | 02:27:20 | 00:00:00 | |
| DL1XH-west | 2026-08-31 12:45:12 | 51.84105 | 8.12718 | 34° | 31km/h | 17660m | -19.1m/s | -50°C | 0% | 83.9hPa | 2.5V | 08:19:24 | 02:27:17 | 00:00:00 | |
| DF8AY | 2026-08-31 12:45:08 | 51.84078 | 8.12686 | 39° | 37km/h | 17731m | -17.3m/s | -50.5°C | 0.1% | 83hPa | 2.5V | 08:21:57 | 02:27:13 | 00:00:00 | |
| DJ8HS-15 | 2026-08-31 12:45:08 | 51.84078 | 8.12686 | 40° | 35km/h | 17731m | -17.2m/s | -50.5°C | 3.3% | 82.9hPa | 2.5V | 00:00:00 | 02:27:13 | 00:00:00 | |
| DM0DOS-11 | 2026-08-31 12:45:07 | 51.84050 | 8.12646 | 41° | 37km/h | 17788m | -11.6m/s | -50.6°C | 3.5% | 82.2hPa | 2.6V | 08:19:18 | 02:27:09 | 00:00:00 | |
| BIOWL9-15 | 2026-08-31 12:45:07 | 51.84064 | 8.12666 | 40° | 37km/h | 17763m | -15.1m/s | -50.6°C | 1.0% | 82.5hPa | 2.6V | 00:00:00 | 00:00:00 | 00:00:00 | |
| DL1XH1-15 | 2026-08-31 12:45:06 | 51.84043 | 8.12637 | 39° | 35km/h | 17800m | -11.1m/s | -50.8°C | 3.6% | 82hPa | 2.6V | 08:19:19 | 02:27:08 | 00:00:00 | |
| DO2JMG | 2026-08-31 12:45:05 | 51.84057 | 8.12656 | 42° | 37km/h | 17776m | -12.2m/s | -50.6°C | 0.2% | 82.3hPa | 2.6V | 08:19:24 | 02:27:10 | 00:00:00 | |
| HSKMA3-T | 2026-08-31 12:45:04 | 51.84050 | 8.12646 | 41° | 37km/h | 17788m | -11.6m/s | -50.7°C | 0.2% | 82.2hPa | 2.6V | 08:19:24 | 02:27:09 | 00:00:00 | |
| AA1-15 | 2026-08-31 12:45:02 | 51.84036 | 8.12628 | 39° | 35km/h | 17811m | -11.3m/s | -50.8°C | 0.3% | 81.7hPa | 2.5V | 08:19:24 | 02:27:07 | 00:00:00 | |
| DL1XH-west | 2026-08-31 12:45:01 | 51.84029 | 8.12619 | 38° | 31km/h | 17823m | -12.1m/s | -50.8°C | 0.3% | 81.7hPa | 2.5V | 08:19:24 | 02:27:06 | 00:00:00 | |
| DL1XH-15 | 2026-08-31 12:45:00 | 51.84005 | 8.12588 | 40° | 35km/h | 17873m | -17.2m/s | -50.6°C | 3.4% | 81.2hPa | 2.5V | 08:19:25 | 02:27:02 | 00:00:00 | |
| DL1NUX | 2026-08-31 12:45:00 | 51.84023 | 8.12612 | 36° | 29km/h | 17834m | -10.4m/s | -50.7°C | 3.6% | 81.6hPa | 2.5V | 08:19:22 | 02:27:05 | 00:00:00 | |
| DF8AY | 2026-08-31 12:44:56 | 51.83991 | 8.12570 | 42° | 35km/h | 17903m | -14.5m/s | -50.1°C | 0% | 80.8hPa | 2.6V | 08:21:57 | 02:27:00 | 00:00:00 | |
| DM0DOS-11 | 2026-08-31 12:44:56 | 51.83985 | 8.12560 | 45° | 37km/h | 17919m | -16.6m/s | -49.9°C | 3.2% | 80.6hPa | 2.6V | 08:19:28 | 02:26:59 | 00:00:00 | |
| DB0UT-7 | 2026-08-31 12:44:56 | 51.83998 | 8.12579 | 41° | 38km/h | 17889m | -14.6m/s | -50.4°C | 3.4% | 80.9hPa | 2.5V | 00:00:00 | 00:00:00 | 00:00:00 | |
| DL1XH1-15 | 2026-08-31 12:44:55 | 51.83978 | 8.12550 | 43° | 37km/h | 17937m | -17.9m/s | -49.8°C | 3.2% | 80.4hPa | 2.5V | 08:19:29 | 02:26:58 | 00:00:00 | |
| DO2JMG | 2026-08-31 12:44:55 | 51.83985 | 8.12560 | 45° | 37km/h | 17919m | -16.6m/s | -49.9°C | 0% | 80.6hPa | 2.6V | 08:20:15 | 02:26:59 | 00:00:00 | |
| HSKMA3-T | 2026-08-31 12:44:53 | 51.83978 | 8.12550 | 44° | 37km/h | 17937m | -18m/s | -49.8°C | 0% | 80.4hPa | 2.5V | 08:20:15 | 02:26:58 | 00:00:00 | |
| DL1NUX | 2026-08-31 12:44:52 | 51.83959 | 8.12518 | 47° | 37km/h | 17987m | -13.5m/s | -49.3°C | 3% | 79.7hPa | 2.6V | 08:19:32 | 02:26:55 | 00:00:00 | |
| AA1-15 | 2026-08-31 12:44:52 | 51.83972 | 8.12539 | 45° | 37km/h | 17954m | -17.4m/s | -49.6°C | 0% | 80.2hPa | 2.5V | 08:20:15 | 02:26:57 | 00:00:00 | |
| DL1XH-west | 2026-08-31 12:44:51 | 51.83965 | 8.12529 | 46° | 37km/h | 17972m | -16.6m/s | -49.3°C | 0% | 80hPa | 2.6V | 08:20:15 | 02:26:56 | 00:00:00 | |
| DL1ZP-14 | 2026-08-31 12:44:51 | 51.83959 | 8.12518 | 47° | 35km/h | 17987m | -13.5m/s | -49.3°C | 0.9% | 79.7hPa | 2.6V | 00:00:00 | 00:00:00 | 00:00:00 | |
| DB0ND-19 | 2026-08-31 12:44:49 | 51.83952 | 8.12507 | 46° | 37km/h | 18000m | -13.1m/s | -49.3°C | 0.8% | 79.6hPa | 2.6V | 00:00:00 | 00:00:00 | 00:00:00 | |
| DF5WG-10 | 2026-08-31 12:44:48 | 51.83946 | 8.12496 | 45° | 38km/h | 18014m | -14.9m/s | -49.2°C | 2.9% | 79.4hPa | 2.6V | 00:00:00 | 02:26:53 | 00:00:00 | |
| DD8BA-10 | 2026-08-31 12:44:47 | 51.83939 | 8.12486 | 41° | 38km/h | 18030m | -16.6m/s | -49.2°C | 2.9% | 79.2hPa | 2.6V | 00:00:00 | 00:00:00 | 00:00:00 | |
| DM0DOS-11 | 2026-08-31 12:44:46 | 51.83918 | 8.12456 | 39° | 38km/h | 18079m | -17.3m/s | -49.5°C | 3% | 78.7hPa | 2.6V | 08:19:38 | 02:26:49 | 00:00:00 | |
| SONCRA | 2026-08-31 12:44:46 | 51.83932 | 8.12476 | 41° | 37km/h | 18047m | -16.1m/s | -49.4°C | 0.8% | 79.0hPa | 2.6V | 00:00:00 | 00:00:00 | 00:00:00 | |
| DO2JMG | 2026-08-31 12:44:44 | 51.83918 | 8.12456 | 40° | 38km/h | 18079m | -17.3m/s | -49.5°C | 0% | 78.7hPa | 2.6V | 08:20:15 | 02:26:49 | 00:00:00 | |
| HSKMA3-T | 2026-08-31 12:44:43 | 51.83910 | 8.12446 | 39° | 40km/h | 18097m | -17.9m/s | -49.6°C | 0% | 78.4hPa | 2.5V | 08:20:15 | 02:26:48 | 00:00:00 | |
| DL1XH-15 | 2026-08-31 12:44:42 | 51.83863 | 8.12383 | 41° | 40km/h | 18189m | -15.8m/s | -50.4°C | 3.1% | 77.3hPa | 2.5V | 08:19:45 | 02:26:42 | 00:00:00 | |
| DL1NUX | 2026-08-31 12:44:41 | 51.83887 | 8.12415 | 39° | 40km/h | 18144m | -13.9m/s | -50°C | 3.1% | 77.8hPa | 2.6V | 08:19:42 | 02:26:45 | 00:00:00 | |
| DL1XH-west | 2026-08-31 12:44:41 | 51.83895 | 8.12425 | 38° | 40km/h | 18130m | -16m/s | -49.9°C | 0% | 78hPa | 2.5V | 08:20:15 | 02:26:46 | 00:00:00 | |
| BIOWL1-15 | 2026-08-31 12:44:40 | 51.83887 | 8.12415 | 40° | 40km/h | 18144m | -13.9m/s | -50°C | 0% | 77.8hPa | 2.6V | 08:20:15 | 02:26:45 | 00:00:00 | |
| DO2SHX-10 | 2026-08-31 12:44:38 | 51.83871 | 8.12394 | 42° | 40km/h | 18172m | -17.1m/s | -50.2°C | 3.1% | 77.4hPa | 2.6V | 00:00:00 | 02:26:43 | 00:00:00 | |
| DL4XJ-10 | 2026-08-31 12:44:37 | 51.83863 | 8.12383 | 42° | 44km/h | 18189m | -15.7m/s | -49.6°C | 0% | 0hPa | 2.6V | 00:00:00 | 00:00:00 | 00:00:00 | |
| DM0DOS-11 | 2026-08-31 12:44:35 | 51.83841 | 8.12350 | 45° | 40km/h | 18235m | -14.7m/s | -50.8°C | 3.2% | 76.7hPa | 2.6V | 08:19:48 | 02:26:39 | 00:00:00 | |
| DL1NUX | 2026-08-31 12:44:35 | 51.83811 | 8.12304 | 43° | 42km/h | 18306m | -20.2m/s | -51.4°C | 3.3% | 76hPa | 2.5V | 08:19:52 | 02:26:35 | 00:00:00 | |
| DL1XH1-15 | 2026-08-31 12:44:34 | 51.83833 | 8.12339 | 45° | 40km/h | 18251m | -17.8m/s | -50.9°C | 3.2% | 76.6hPa | 2.6V | 08:19:49 | 02:26:38 | 00:00:00 | |
| DO2JMG | 2026-08-31 12:44:34 | 51.83840 | 8.12350 | 45° | 40km/h | 18235m | -14.7m/s | -50.8°C | 0% | 76.7hPa | 2.6V | 08:20:15 | 02:26:39 | 00:00:00 | |
| HSKMA3-T | 2026-08-31 12:44:33 | 51.83826 | 8.12327 | 43° | 42km/h | 18268m | -16.8m/s | -51.1°C | 0% | 76.4hPa | 2.6V | 08:20:15 | 02:26:37 | 00:00:00 | |
| AA1-15 | 2026-08-31 12:44:31 | 51.83818 | 8.12315 | 45° | 40km/h | 18286m | -18.7m/s | -51.2°C | 0.1% | 76.2hPa | 2.5V | 08:20:15 | 02:26:36 | 00:00:00 | |
| DL1XH-west | 2026-08-31 12:44:31 | 51.83811 | 8.12304 | 44° | 42km/h | 18306m | -20.2m/s | -51.4°C | 0.1% | 76hPa | 2.5V | 08:20:15 | 02:26:35 | 00:00:00 | |
| DL1XH-15 | 2026-08-31 12:44:30 | 51.83786 | 8.12266 | 42° | 47km/h | 18362m | -16.5m/s | -51.8°C | 3.5% | 75.3hPa | 2.6V | 08:19:55 | 02:26:32 | 00:00:00 | |
| BIOWL1-15 | 2026-08-31 12:44:30 | 51.83795 | 8.12279 | 43° | 46km/h | 18344m | -18.3m/s | -51.7°C | 0.2% | 75.5hPa | 2.6V | 08:20:15 | 02:26:33 | 00:00:00 | |
| DO2JMG | 2026-08-31 12:44:24 | 51.83760 | 8.12226 | 46° | 49km/h | 18411m | -16.4m/s | -52.1°C | 0.3% | 74.7hPa | 2.5V | 08:20:15 | 02:26:29 | 00:00:00 | |
| HSKMA3-T | 2026-08-31 12:44:22 | 51.83735 | 8.12181 | 51° | 47km/h | 18457m | -14.4m/s | -52.3°C | 0.3% | 74.2hPa | 2.6V | 08:20:15 | 02:26:26 | 00:00:00 | |
| DL1NUX | 2026-08-31 12:44:21 | 51.83728 | 8.12166 | 53° | 46km/h | 18471m | -14.4m/s | -52.4°C | 3.7% | 74hPa | 2.6V | 08:20:02 | 02:26:25 | 00:00:00 | |
| DL1XH-west | 2026-08-31 12:44:20 | 51.83728 | 8.12166 | 54° | 46km/h | 18471m | -14.4m/s | -52.4°C | 0.3% | 74hPa | 2.6V | 08:20:15 | 02:26:25 | 00:00:00 | |
| BIOWL1-15 | 2026-08-31 12:44:17 | 51.83663 | 8.11991 | 60° | 38km/h | 18674m | -16.7m/s | -52.6°C | 0.3% | 71.7hPa | 2.6V | 08:20:15 | 02:26:13 | 00:00:00 | |
| DL1NUX | 2026-08-31 12:44:15 | 51.83672 | 8.12018 | 62° | 38km/h | 18643m | -15m/s | -52.4°C | 3.7% | 72hPa | 2.5V | 08:20:12 | 02:26:15 | 00:00:00 | |
| DO2JMG | 2026-08-31 12:44:13 | 51.83687 | 8.12062 | 60° | 42km/h | 18594m | -16.4m/s | -52.3°C | 0.2% | 72.6hPa | 2.5V | 08:20:15 | 02:26:18 | 00:00:00 | |
| GOEST3-10 | 2026-08-31 12:44:12 | 51.83682 | 8.12047 | 61° | 38km/h | 18611m | -17.5m/s | -52.2°C | 3.6% | 72.4hPa | 2.6V | 08:20:00 | 00:00:00 | 00:00:00 | |
| DL1XH-15 | 2026-08-31 12:44:10 | 51.83658 | 8.11978 | 59° | 37km/h | 18689m | -14.9m/s | -52.6°C | 3.8% | 71.5hPa | 2.6V | 08:20:15 | 02:26:12 | 00:00:00 | |
| HSKMA3-T | 2026-08-31 12:44:10 | 51.83672 | 8.12018 | 63° | 38km/h | 18643m | -15m/s | -52.4°C | 0.3% | 72hPa | 2.5V | 08:20:15 | 02:26:15 | 00:00:00 | |
| DL1XH-west | 2026-08-31 12:44:09 | 51.83668 | 8.12005 | 60° | 38km/h | 18658m | -15m/s | -52.5°C | 0.3% | 71.9hPa | 2.5V | 08:20:15 | 02:26:14 | 00:00:00 | |
| BIOWL1-15 | 2026-08-31 12:44:08 | 51.83653 | 8.11964 | 60° | 38km/h | 18706m | -17.8m/s | -52.7°C | 0.4% | 71.4hPa | 2.5V | 08:21:06 | 02:26:11 | 00:00:00 | |
| DJ8HS-15 | 2026-08-31 12:44:08 | 51.83663 | 8.11991 | 60° | 37km/h | 18674m | -16.6m/s | -52.5°C | 3.7% | 71.7hPa | 2.6V | 00:00:00 | 02:26:13 | 00:00:00 | |
| DD8BA-10 | 2026-08-31 12:44:07 | 51.83658 | 8.11978 | 60° | 38km/h | 18689m | -14.9m/s | -52.6°C | 3.8% | 71.5hPa | 2.5V | 00:00:00 | 00:00:00 | 00:00:00 | |
| DL4BBY-15 | 2026-08-31 12:44:06 | 51.83653 | 8.11964 | 60° | 38km/h | 18706m | -17.8m/s | -52.0°C | 0% | 0hPa | 2.5V | 00:00:00 | 00:00:00 | 00:00:00 | |
| BIOWL9-15 | 2026-08-31 12:44:05 | 51.83643 | 8.11937 | 60° | 38km/h | 18738m | -15.4m/s | -52.9°C | 1.1% | 71.0hPa | 2.5V | 00:00:00 | 00:00:00 | 00:00:00 | |
| DD1CC1-15 | 2026-08-31 12:44:03 | 51.83643 | 8.11937 | 61° | 40km/h | 18738m | -15.4m/s | -52.9°C | 1.1% | 71.0hPa | 2.5V | 08:21:00 | 00:00:00 | 00:00:00 | |
| DL1NUX | 2026-08-31 12:44:02 | 51.83625 | 8.11880 | 62° | 38km/h | 18801m | -16.4m/s | -52.5°C | 3.8% | 70.3hPa | 2.5V | 08:20:22 | 02:26:05 | 00:00:00 | |
| DO2JMG | 2026-08-31 12:44:02 | 51.83634 | 8.11909 | 62° | 38km/h | 18769m | -16m/s | -52.7°C | 0.5% | 70.7hPa | 2.5V | 08:21:06 | 02:26:07 | 00:00:00 | |
| AA1-15 | 2026-08-31 12:44:00 | 51.83620 | 8.11866 | 62° | 38km/h | 18817m | -16.2m/s | -52.5°C | 0.4% | 70.1hPa | 2.6V | 08:21:06 | 02:26:04 | 00:00:00 | |
| DM0DOS-11 | 2026-08-31 12:43:59 | 51.83591 | 8.11790 | 55° | 35km/h | 18915m | -17.2m/s | -52.1°C | 3.7% | 69.1hPa | 2.6V | 08:20:29 | 02:25:58 | 00:00:00 | |
| DF8AY | 2026-08-31 12:43:59 | 51.83611 | 8.11839 | 59° | 37km/h | 18852m | -16.4m/s | -52.3°C | 0.4% | 69.8hPa | 2.6V | 08:21:57 | 02:26:02 | 00:00:00 | |
| DL1XH-15 | 2026-08-31 12:43:58 | 51.83611 | 8.11839 | 59° | 37km/h | 18852m | -16.4m/s | -52.3°C | 3.7% | 69.8hPa | 2.6V | 08:20:25 | 02:26:02 | 00:00:00 | |
| DL1XH-west | 2026-08-31 12:43:58 | 51.83616 | 8.11853 | 63° | 37km/h | 18835m | -18.6m/s | -52.4°C | 0.3% | 70hPa | 2.6V | 08:21:06 | 02:26:03 | 00:00:00 | |
| BIOWL1-15 | 2026-08-31 12:43:55 | 51.83577 | 8.11755 | 57° | 35km/h | 18968m | -17.5m/s | -51.9°C | 0.3% | 68.6hPa | 2.5V | 08:21:06 | 02:25:55 | 00:00:00 | |
| DB0DAN | 2026-08-31 12:43:55 | 51.83601 | 8.11814 | 57° | 33km/h | 18882m | -14.5m/s | -52.4°C | 1.1% | 69.42hPa | 2.5V | 00:00:00 | 00:00:00 | 00:00:00 | |
| DJ2DS-15 | 2026-08-31 12:43:55 | 51.83601 | 8.11814 | 57° | 38km/h | 18882m | -14.4m/s | -52.3°C | 3.8% | 69.4hPa | 2.6V | 00:00:00 | 02:26:00 | 00:00:00 | |
| DL1XH-15 | 2026-08-31 12:43:53 | 51.83564 | 8.11717 | 63° | 37km/h | 19013m | -15.3m/s | -52°C | 3.7% | 68hPa | 2.6V | 08:20:35 | 02:25:52 | 00:00:00 | |
| DO2JMG | 2026-08-31 12:43:52 | 51.83582 | 8.11767 | 56° | 35km/h | 18950m | -18.1m/s | -51.9°C | 0.3% | 68.7hPa | 2.6V | 08:21:06 | 02:25:56 | 00:00:00 | |
| AA1-15 | 2026-08-31 12:43:49 | 51.83572 | 8.11743 | 60° | 35km/h | 18985m | -15.8m/s | -51.9°C | 0.3% | 68.4hPa | 2.5V | 08:21:06 | 02:25:54 | 00:00:00 | |
| DM0DOS-11 | 2026-08-31 12:43:48 | 51.83550 | 8.11657 | 73° | 42km/h | 19080m | -15.9m/s | -52.2°C | 3.8% | 67.4hPa | 2.5V | 08:20:39 | 02:25:48 | 00:00:00 | |
| HSKMA3-T | 2026-08-31 12:43:48 | 51.83568 | 8.11730 | 60° | 35km/h | 18999m | -12.3m/s | -51.9°C | 0.3% | 68.2hPa | 2.5V | 08:21:06 | 02:25:53 | 00:00:00 | |
| DL1XH-west | 2026-08-31 12:43:48 | 51.83559 | 8.11703 | 67° | 38km/h | 19027m | -14.5m/s | -52°C | 0.3% | 67.9hPa | 2.6V | 08:21:06 | 02:25:51 | 00:00:00 | |
| DF8AY | 2026-08-31 12:43:47 | 51.83563 | 8.11717 | 64° | 37km/h | 19013m | -15.3m/s | -52°C | 0.3% | 68hPa | 2.6V | 08:21:57 | 02:25:52 | 00:00:00 | |
| DB0ND-19 | 2026-08-31 12:43:47 | 51.83563 | 8.11717 | 63° | 37km/h | 19013m | -15.3m/s | -52.0°C | 1.0% | 68.0hPa | 2.5V | 00:00:00 | 00:00:00 | 00:00:00 | |
| BIOWL1-15 | 2026-08-31 12:43:46 | 51.83553 | 8.11673 | 72° | 42km/h | 19063m | -18.7m/s | -52.2°C | 0.5% | 67.6hPa | 2.5V | 08:21:06 | 02:25:49 | 00:00:00 | |
| DO2JMG | 2026-08-31 12:43:41 | 51.83544 | 8.11624 | 74° | 42km/h | 19112m | -16m/s | -51.7°C | 0.3% | 67hPa | 2.6V | 08:21:06 | 02:25:46 | 00:00:00 | |
| HSKMA3-T | 2026-08-31 12:43:39 | 51.83536 | 8.11575 | 78° | 42km/h | 19159m | -15.2m/s | -51.9°C | 0.4% | 66.5hPa | 2.5V | 08:21:06 | 02:25:43 | 00:00:00 | |
| DL1XH-west | 2026-08-31 12:43:35 | 51.83531 | 8.11526 | 85° | 40km/h | 19205m | -16.5m/s | -51.7°C | 0.3% | 66.1hPa | 2.6V | 08:21:06 | 02:25:40 | 00:00:00 | |
| DL1NUX | 2026-08-31 12:43:35 | 51.83533 | 8.11451 | 100° | 33km/h | 19289m | -16.6m/s | -51°C | 3.4% | 65.2hPa | 2.5V | 08:20:52 | 02:25:35 | 00:00:00 | |
| BIOWL1-15 | 2026-08-31 12:43:34 | 51.83532 | 8.11465 | 99° | 35km/h | 19272m | -17.1m/s | -50.9°C | 0.2% | 65.4hPa | 2.5V | 08:21:06 | 02:25:36 | 00:00:00 | |
| DO2JMG | 2026-08-31 12:43:30 | 51.83534 | 8.11451 | 101° | 35km/h | 19289m | -16.6m/s | -51°C | 0.2% | 65.2hPa | 2.5V | 08:21:06 | 02:25:35 | 00:00:00 | |
| HSKMA3-T | 2026-08-31 12:43:27 | 51.83539 | 8.11412 | 107° | 31km/h | 19338m | -15.6m/s | -51.2°C | 0.3% | 64.7hPa | 2.6V | 08:21:06 | 02:25:32 | 00:00:00 | |
| DL1XH1-15 | 2026-08-31 12:43:27 | 51.83551 | 8.11364 | 115° | 20km/h | 19415m | -15m/s | -50.6°C | 3.3% | 64hPa | 2.6V | 08:21:00 | 02:25:27 | 00:00:00 | |
| DF8AY | 2026-08-31 12:43:26 | 51.83551 | 8.11364 | 116° | 20km/h | 19415m | -15m/s | -50.6°C | 0.1% | 64hPa | 2.6V | 08:21:57 | 02:25:27 | 00:00:00 | |
| DL1XH-west | 2026-08-31 12:43:25 | 51.83544 | 8.11390 | 110° | 26km/h | 19367m | -15.4m/s | -50.7°C | 0.2% | 64.4hPa | 2.5V | 08:21:06 | 02:25:30 | 00:00:00 | |
| BIOWL1-15 | 2026-08-31 12:43:22 | 51.83553 | 8.11357 | 117° | 20km/h | 19431m | -15.8m/s | -50.7°C | 0.1% | 63.8hPa | 2.6V | 08:21:06 | 02:25:26 | 00:00:00 | |
| BUE01 | 2026-08-31 12:43:21 | 51.83553 | 8.11357 | 117° | 18km/h | 19431m | -15.8m/s | -50.7°C | 0.9% | 63.8hPa | 2.6V | 00:00:00 | 00:00:00 | 00:00:00 | |
| DL1XH-15 | 2026-08-31 12:43:20 | 51.83561 | 8.11329 | 106° | 18km/h | 19494m | -17.4m/s | -51.1°C | 3.4% | 63.2hPa | 2.6V | 08:21:05 | 02:25:22 | 00:00:00 | |
| DO2JMG | 2026-08-31 12:43:20 | 51.83555 | 8.11350 | 118° | 18km/h | 19446m | -14.9m/s | -50.9°C | 0.1% | 63.6hPa | 2.5V | 08:21:06 | 02:25:25 | 00:00:00 | |
| AA1-15 | 2026-08-31 12:43:18 | 51.83562 | 8.11322 | 104° | 18km/h | 19511m | -16.5m/s | -51.1°C | 0.2% | 63hPa | 2.6V | 08:21:06 | 02:25:21 | 00:00:00 | |
| HSKMA3-T | 2026-08-31 12:43:17 | 51.83561 | 8.11329 | 106° | 18km/h | 19494m | -17.4m/s | -51.1°C | 0.2% | 63.2hPa | 2.6V | 08:21:06 | 02:25:22 | 00:00:00 | |
| DF8AY | 2026-08-31 12:43:16 | 51.83563 | 8.11292 | 81° | 18km/h | 19570m | -15.9m/s | -51.5°C | 0.2% | 62.5hPa | 2.5V | 08:21:57 | 02:25:17 | 00:00:00 | |
| DJ2DS-15 | 2026-08-31 12:43:15 | 51.83563 | 8.11314 | 100° | 24km/h | 19527m | -14.9m/s | -51.2°C | 3.5% | 62.8hPa | 2.5V | 00:00:00 | 02:25:20 | 00:00:00 | |
| DL1XH1-15 | 2026-08-31 12:43:14 | 51.83563 | 8.11292 | 81° | 18km/h | 19570m | -15.9m/s | -51.5°C | 3.5% | 62.5hPa | 2.5V | 08:21:10 | 02:25:17 | 00:00:00 | |
| DL1XH-west | 2026-08-31 12:43:14 | 51.83563 | 8.11307 | 93° | 18km/h | 19542m | -13.8m/s | -51.3°C | 0.2% | 62.7hPa | 2.5V | 08:21:57 | 02:25:19 | 00:00:00 | |
| BIOWL1-15 | 2026-08-31 12:43:11 | 51.83562 | 8.11284 | 79° | 20km/h | 19586m | -16.1m/s | -51.4°C | 0.2% | 62.3hPa | 2.6V | 08:21:57 | 02:25:16 | 00:00:00 | |
| DO2JMG | 2026-08-31 12:43:10 | 51.83561 | 8.11276 | 72° | 20km/h | 19601m | -14.3m/s | -51.3°C | 0.2% | 62.2hPa | 2.6V | 08:21:57 | 02:25:15 | 00:00:00 | |
| DF8AY-15 | 2026-08-31 12:43:10 | 51.83560 | 8.11276 | 73° | 20km/h | 19602m | -14.2m/s | 0°C | 0% | 0hPa | 2.5V | 00:00:00 | 02:25:15 | 00:00:00 | |
| DL1XH-15 | 2026-08-31 12:43:08 | 51.83555 | 8.11250 | 69° | 24km/h | 19645m | -13.4m/s | -51.4°C | 3.5% | 61.7hPa | 2.5V | 08:21:15 | 02:25:12 | 00:00:00 | |
| DJ8HS-15 | 2026-08-31 12:43:08 | 51.83557 | 8.11259 | 71° | 20km/h | 19631m | -14.2m/s | -51.4°C | 3.5% | 61.8hPa | 2.5V | 08:21:00 | 02:25:13 | 00:00:00 | |
| DL1XH1-15 | 2026-08-31 12:43:07 | 51.83543 | 8.11190 | 76° | 26km/h | 19706m | -9.8m/s | -51.5°C | 3.7% | 61.1hPa | 2.5V | 08:21:21 | 02:25:06 | 00:00:00 | |
| AA1-15 | 2026-08-31 12:43:07 | 51.83553 | 8.11241 | 72° | 24km/h | 19657m | -10.5m/s | -51.5°C | 0.3% | 61.6hPa | 2.5V | 08:21:57 | 02:25:11 | 00:00:00 | |
| HSKMA3-T | 2026-08-31 12:43:07 | 51.83551 | 8.11231 | 68° | 26km/h | 19667m | -9.4m/s | -51.5°C | 0.3% | 61.5hPa | 2.6V | 08:21:57 | 02:25:10 | 00:00:00 | |
| DL1XH-west | 2026-08-31 12:43:04 | 51.83549 | 8.11221 | 70° | 27km/h | 19677m | -9.9m/s | -51.5°C | 0.2% | 61.4hPa | 2.6V | 08:21:57 | 02:25:09 | 00:00:00 | |
| DD1CC1-15 | 2026-08-31 12:43:02 | 51.83545 | 8.11201 | 75° | 26km/h | 19696m | -9.1m/s | -51.5°C | 1.0% | 61.2hPa | 2.6V | 08:21:00 | 00:00:00 | 00:00:00 | |
| DL1XH-15 | 2026-08-31 12:43:00 | 51.83538 | 8.11151 | 82° | 24km/h | 19743m | -9.3m/s | -51.1°C | 3.5% | 60.8hPa | 2.6V | 08:21:25 | 02:25:02 | 00:00:00 | |
| BIOWL1-15 | 2026-08-31 12:43:00 | 51.83541 | 8.11180 | 78° | 26km/h | 19716m | -9.8m/s | -51.5°C | 0.4% | 61hPa | 2.5V | 08:21:57 | 02:25:05 | 00:00:00 | |
| DO2JMG | 2026-08-31 12:42:59 | 51.83540 | 8.11170 | 80° | 26km/h | 19725m | -8.9m/s | -51.3°C | 0.3% | 60.9hPa | 2.6V | 08:21:57 | 02:25:04 | 00:00:00 | |
| HSKMA3-T | 2026-08-31 12:42:56 | 51.83537 | 8.11134 | 82° | 18km/h | 19762m | -9.6m/s | -51.2°C | 0.2% | 60.6hPa | 2.5V | 08:21:57 | 02:25:00 | 00:00:00 | |
| DB0DAN | 2026-08-31 12:42:55 | 51.83537 | 8.11134 | 82° | 18km/h | 19762m | -9.6m/s | -51.2°C | 0.9% | 60.58hPa | 2.5V | 00:00:00 | 00:00:00 | 00:00:00 | |
| DJ2DS-15 | 2026-08-31 12:42:55 | 51.83537 | 8.11134 | 82° | 9km/h | 19762m | -9.5m/s | -51.2°C | 3.5% | 60.5hPa | 2.6V | 00:00:00 | 02:25:00 | 00:00:00 | |
| DL1XH1-15 | 2026-08-31 12:42:54 | 51.83535 | 8.11110 | 82° | 11km/h | 19802m | -10.3m/s | -51.3°C | 3.4% | 60.2hPa | 2.6V | 08:21:31 | 02:24:56 | 00:00:00 | |
| DL1XH-west | 2026-08-31 12:42:54 | 51.83536 | 8.11126 | 82° | 16km/h | 19772m | -10.1m/s | -51.2°C | 0.2% | 60.5hPa | 2.5V | 08:21:57 | 02:24:59 | 00:00:00 | |
| DF8AY | 2026-08-31 12:42:53 | 51.83536 | 8.11120 | 83° | 15km/h | 19782m | -9.7m/s | -51.3°C | 0.2% | 60.4hPa | 2.6V | 08:21:57 | 02:24:58 | 00:00:00 | |
| BIOWL1-15 | 2026-08-31 12:42:52 | 51.83533 | 8.11095 | 61° | 5km/h | 19861m | -13.4m/s | -51.2°C | 0.2% | 59.7hPa | 2.6V | 08:21:57 | 02:24:51 | 00:00:00 | |
| DO2JMG | 2026-08-31 12:42:48 | 51.83534 | 8.11099 | 78° | 7km/h | 19835m | -12m/s | -51.3°C | 0.2% | 59.9hPa | 2.5V | 08:21:57 | 02:24:53 | 00:00:00 | |
| HSKMA3-T | 2026-08-31 12:42:45 | 51.83532 | 8.11093 | 41° | 5km/h | 19874m | -12.1m/s | -51.1°C | 0.1% | 59.6hPa | 2.6V | 08:21:57 | 02:24:50 | 00:00:00 | |
| DF8AY | 2026-08-31 12:42:43 | 51.83530 | 8.11090 | 31° | 7km/h | 19898m | -12m/s | -51.1°C | 0.1% | 59.4hPa | 2.5V | 08:21:57 | 02:24:48 | 00:00:00 | |
| DL1NUX | 2026-08-31 12:42:41 | 51.83524 | 8.11085 | 27° | 9km/h | 19938m | -12.9m/s | -51.2°C | 3.3% | 59hPa | 2.6V | 08:21:42 | 02:24:45 | 00:00:00 | |
| DO2JMG | 2026-08-31 12:42:37 | 51.83517 | 8.11080 | 23° | 9km/h | 19978m | -12.5m/s | -51.5°C | 0.2% | 58.6hPa | 2.5V | 08:21:57 | 02:24:42 | 00:00:00 | |
| HSKMA3-T | 2026-08-31 12:42:35 | 51.83512 | 8.11078 | 14° | 11km/h | 20005m | -14.7m/s | -51.7°C | 0.2% | 58.4hPa | 2.6V | 08:21:57 | 02:24:40 | 00:00:00 | |
| DJ2DS-15 | 2026-08-31 12:42:35 | 51.83512 | 8.11078 | 15° | 20km/h | 20005m | -14.6m/s | -51.7°C | 3.5% | 58.3hPa | 2.6V | 00:00:00 | 02:24:40 | 00:00:00 | |
| DL8OAI-8 | 2026-08-31 12:42:34 | 51.83512 | 8.11078 | 15° | 11km/h | 20005m | -14.7m/s | -51.7°C | 1.0% | 58.4hPa | 2.5V | 08:21:00 | 00:00:00 | 00:00:00 | |
| DL1XH1-15 | 2026-08-31 12:42:33 | 51.83498 | 8.11074 | 9° | 18km/h | 20072m | -16.4m/s | -52.2°C | 3.6% | 57.8hPa | 2.5V | 08:21:51 | 02:24:36 | 00:00:00 | |
| DL1XH-west | 2026-08-31 12:42:33 | 51.83506 | 8.11076 | 7° | 15km/h | 20038m | -18.7m/s | -51.8°C | 0.3% | 58.1hPa | 2.6V | 08:21:57 | 02:24:38 | 00:00:00 | |
| AA1-15 | 2026-08-31 12:42:33 | 51.83502 | 8.11075 | 8° | 16km/h | 20055m | -16.5m/s | -52°C | 0.3% | 58hPa | 2.5V | 08:21:57 | 02:24:37 | 00:00:00 | |
| GOEST3-10 | 2026-08-31 12:42:32 | 51.83502 | 8.11075 | 8° | 20km/h | 20056m | -16.5m/s | -52.0°C | 3.6% | 57.9hPa | 2.6V | 00:00:00 | 00:00:00 | 00:00:00 | |
| BIOWL9-15 | 2026-08-31 12:42:31 | 51.83498 | 8.11074 | 9° | 16km/h | 20072m | -16.4m/s | -52.2°C | 1.0% | 57.8hPa | 2.6V | 00:00:00 | 00:00:00 | 00:00:00 | |
| DL1XH-15 | 2026-08-31 12:42:30 | 51.83477 | 8.11065 | 23° | 26km/h | 20131m | -15.1m/s | -52.7°C | 3.7% | 57.2hPa | 2.6V | 08:21:55 | 02:24:32 | 00:00:00 | |
| DF5WG-10 | 2026-08-31 12:42:29 | 51.83488 | 8.11071 | 16° | 24km/h | 20102m | -14.5m/s | -52.3°C | 3.6% | 57.5hPa | 2.6V | 00:00:00 | 02:24:34 | 00:00:00 | |
| DF7PN | 2026-08-31 12:42:28 | 51.83478 | 8.11065 | 23° | 24km/h | 20131m | -15.1m/s | -52.7°C | 1.0% | 57.3hPa | 2.6V | 00:00:00 | 00:00:00 | 00:00:00 | |
| DL1XH1-15 | 2026-08-31 12:42:27 | 51.83448 | 8.11030 | 49° | 20km/h | 20223m | -18.2m/s | -53°C | 3.9% | 56.5hPa | 2.6V | 08:22:01 | 02:24:26 | 00:00:00 | |
| DO2JMG | 2026-08-31 12:42:26 | 51.83472 | 8.11060 | 29° | 26km/h | 20147m | -16.5m/s | -52.7°C | 0.4% | 57.1hPa | 2.5V | 08:21:57 | 02:24:31 | 00:00:00 | |
| HSKMA3-T | 2026-08-31 12:42:24 | 51.83461 | 8.11049 | 38° | 26km/h | 20177m | -15.4m/s | -52.9°C | 0.4% | 56.8hPa | 2.5V | 08:22:48 | 02:24:29 | 00:00:00 | |
| DL1XH-west | 2026-08-31 12:42:23 | 51.83452 | 8.11036 | 44° | 22km/h | 20206m | -15.4m/s | -53°C | 0.5% | 56.6hPa | 2.6V | 08:22:48 | 02:24:27 | 00:00:00 | |
| DL1NUX | 2026-08-31 12:42:22 | 51.83445 | 8.11024 | 56° | 18km/h | 20241m | -16.7m/s | -52.9°C | 3.9% | 56.4hPa | 2.5V | 08:22:02 | 02:24:25 | 00:00:00 | |
| AA1-15 | 2026-08-31 12:42:22 | 51.83448 | 8.11030 | 49° | 20km/h | 20223m | -18.2m/s | -53°C | 0.5% | 56.5hPa | 2.6V | 08:22:48 | 02:24:26 | 00:00:00 | |
| DB0NH | 2026-08-31 12:42:20 | 51.83445 | 8.11023 | 57° | 13km/h | 20241m | -16.6m/s | -52.9°C | 3.9% | 56.3hPa | 2.6V | 00:00:00 | 02:24:25 | 00:00:00 | |
| BUE01 | 2026-08-31 12:42:19 | 51.83443 | 8.11017 | 62° | 16km/h | 20256m | -15.1m/s | -52.8°C | 1.1% | 56.2hPa | 2.6V | 00:00:00 | 00:00:00 | 00:00:00 | |
| DD1CC1-15 | 2026-08-31 12:42:18 | 51.83443 | 8.11017 | 63° | 16km/h | 20257m | -15.1m/s | -52.8°C | 1.1% | 56.2hPa | 2.6V | 08:22:00 | 00:00:00 | 00:00:00 | |
| DF5WG-10 | 2026-08-31 12:42:17 | 51.83440 | 8.11005 | 77° | 13km/h | 20288m | -14.2m/s | -52.7°C | 3.8% | 55.8hPa | 2.6V | 00:00:00 | 02:24:22 | 00:00:00 | |
| DL1ZP-14 | 2026-08-31 12:42:16 | 51.83439 | 8.10993 | 88° | 15km/h | 20319m | -16.9m/s | -52.6°C | 1.0% | 55.6hPa | 2.6V | 00:00:00 | 00:00:00 | 00:00:00 | |
| DL1NUX | 2026-08-31 12:42:15 | 51.83440 | 8.10959 | 93° | 18km/h | 20399m | -15.3m/s | -52.6°C | 3.6% | 54.9hPa | 2.6V | 08:22:12 | 02:24:15 | 00:00:00 | |
| DO2JMG | 2026-08-31 12:42:15 | 51.83439 | 8.10993 | 88° | 15km/h | 20319m | -16.9m/s | -52.6°C | 0.4% | 55.6hPa | 2.6V | 08:22:48 | 02:24:20 | 00:00:00 | |
| BIOWL1-15 | 2026-08-31 12:42:14 | 51.83439 | 8.10986 | 92° | 16km/h | 20337m | -17.6m/s | -52.6°C | 0.3% | 55.5hPa | 2.5V | 08:22:48 | 02:24:19 | 00:00:00 | |
| HSKMA3-T | 2026-08-31 12:42:14 | 51.83439 | 8.10980 | 93° | 16km/h | 20353m | -16.4m/s | -52.6°C | 0.4% | 55.4hPa | 2.5V | 08:22:48 | 02:24:18 | 00:00:00 | |
| DL1XH1-15 | 2026-08-31 12:42:13 | 51.83440 | 8.10966 | 95° | 18km/h | 20384m | -14.7m/s | -52.5°C | 3.6% | 55hPa | 2.6V | 08:22:11 | 02:24:16 | 00:00:00 | |
| DL1XH-west | 2026-08-31 12:42:11 | 51.83439 | 8.10966 | 96° | 18km/h | 20384m | -14.7m/s | -52.5°C | 0.3% | 55hPa | 2.6V | 08:22:48 | 02:24:16 | 00:00:00 | |
| AA1-15 | 2026-08-31 12:42:11 | 51.83440 | 8.10959 | 94° | 18km/h | 20399m | -15.3m/s | -52.6°C | 0.3% | 54.9hPa | 2.6V | 08:22:48 | 02:24:15 | 00:00:00 | |
| SONCRA | 2026-08-31 12:42:11 | 51.83440 | 8.10959 | 93° | 16km/h | 20399m | -15.3m/s | -52.6°C | 1.0% | 54.9hPa | 2.5V | 00:00:00 | 00:00:00 | 00:00:00 | |
| DL1XH-15 | 2026-08-31 12:42:10 | 51.83441 | 8.10939 | 93° | 15km/h | 20449m | -16m/s | -52.5°C | 3.6% | 54.5hPa | 2.5V | 08:22:15 | 02:24:12 | 00:00:00 | |
| DO2JMG | 2026-08-31 12:42:04 | 51.83441 | 8.10925 | 91° | 9km/h | 20501m | -17.8m/s | -52.7°C | 0.3% | 54.1hPa | 2.6V | 08:22:48 | 02:24:09 | 00:00:00 | |
| DL1XH1-15 | 2026-08-31 12:42:04 | 51.83441 | 8.10916 | 76° | 7km/h | 20549m | -18m/s | -52.8°C | 3.8% | 53.7hPa | 2.5V | 08:22:21 | 02:24:06 | 00:00:00 | |
| HSKMA3-T | 2026-08-31 12:42:03 | 51.83441 | 8.10919 | 83° | 5km/h | 20533m | -13.8m/s | -52.9°C | 0.4% | 53.8hPa | 2.5V | 08:22:48 | 02:24:07 | 00:00:00 | |
| DL1NUX | 2026-08-31 12:42:02 | 51.83440 | 8.10914 | 64° | 7km/h | 20567m | -17.1m/s | -52.8°C | 3.7% | 53.5hPa | 2.5V | 08:22:22 | 02:24:05 | 00:00:00 | |
| AA1-15 | 2026-08-31 12:42:01 | 51.83441 | 8.10916 | 77° | 7km/h | 20549m | -18m/s | -52.8°C | 0.5% | 53.7hPa | 2.5V | 08:22:48 | 02:24:06 | 00:00:00 | |
| DM0DOS-11 | 2026-08-31 12:42:01 | 51.83435 | 8.10903 | 39° | 11km/h | 20632m | -15.4m/s | -53°C | 3.9% | 53hPa | 2.5V | 08:22:26 | 02:24:01 | 00:00:00 | |
| DL1XH-west | 2026-08-31 12:42:01 | 51.83440 | 8.10914 | 65° | 7km/h | 20567m | -17.1m/s | -52.8°C | 0.4% | 53.5hPa | 2.5V | 08:22:48 | 02:24:05 | 00:00:00 | |
| BIOWL9-15 | 2026-08-31 12:42:00 | 51.83440 | 8.10914 | 64° | 5km/h | 20567m | -17.1m/s | -52.8°C | 1.0% | 53.5hPa | 2.6V | 00:00:00 | 00:00:00 | 00:00:00 | |
| DD1CC3-15 | 2026-08-31 12:41:59 | 51.83440 | 8.10914 | 66° | 7km/h | 20567m | -17.1m/s | -52.8°C | 1.0% | 53.5hPa | 2.6V | 08:22:00 | 00:00:00 | 00:00:00 | |
| DL1XH-15 | 2026-08-31 12:41:58 | 51.83437 | 8.10906 | 44° | 9km/h | 20617m | -15.4m/s | -52.9°C | 3.8% | 53.1hPa | 2.6V | 08:22:25 | 02:24:02 | 00:00:00 | |
| BIOWL1-15 | 2026-08-31 12:41:57 | 51.83426 | 8.10893 | 34° | 18km/h | 20679m | -16.7m/s | -53.1°C | 0.5% | 52.6hPa | 2.6V | 08:22:48 | 02:23:58 | 00:00:00 | |
| DF7PN | 2026-08-31 12:41:57 | 51.83435 | 8.10903 | 39° | 11km/h | 20633m | -15.4m/s | -53.0°C | 1.1% | 53.0hPa | 2.5V | 00:00:00 | 00:00:00 | 00:00:00 | |
| DB0UT-7 | 2026-08-31 12:41:56 | 51.83435 | 8.10903 | 40° | 15km/h | 20633m | -15.3m/s | -53.0°C | 3.9% | 52.9hPa | 2.5V | 00:00:00 | 00:00:00 | 00:00:00 | |
| DL1NUX | 2026-08-31 12:41:55 | 51.83414 | 8.10878 | 45° | 22km/h | 20726m | -16.5m/s | -53.2°C | 3.9% | 52.2hPa | 2.5V | 08:22:32 | 02:23:55 | 00:00:00 | |
| DO2JMG | 2026-08-31 12:41:54 | 51.83429 | 8.10897 | 33° | 15km/h | 20662m | -16.2m/s | -53.2°C | 0.5% | 52.7hPa | 2.5V | 08:22:48 | 02:23:59 | 00:00:00 | |
| DO2SHX-10 | 2026-08-31 12:41:54 | 51.83429 | 8.10897 | 34° | 16km/h | 20663m | -16.2m/s | -53.1°C | 3.9% | 52.7hPa | 2.6V | 00:00:00 | 02:23:59 | 00:00:00 | |
| DL1XH1-15 | 2026-08-31 12:41:53 | 51.83418 | 8.10884 | 38° | 20km/h | 20711m | -14.1m/s | -53.2°C | 3.9% | 52.3hPa | 2.6V | 08:22:31 | 02:23:56 | 00:00:00 | |
| HSKMA3-T | 2026-08-31 12:41:51 | 51.83418 | 8.10884 | 39° | 20km/h | 20711m | -14.1m/s | -53.2°C | 0.5% | 52.3hPa | 2.6V | 08:22:48 | 02:23:56 | 00:00:00 | |
| DM0DOS-11 | 2026-08-31 12:41:51 | 51.83403 | 8.10849 | 75° | 20km/h | 20789m | -16m/s | -53.1°C | 3.9% | 51.7hPa | 2.6V | 08:22:36 | 02:23:51 | 00:00:00 | |
| DL1XH-west | 2026-08-31 12:41:50 | 51.83414 | 8.10878 | 46° | 22km/h | 20726m | -16.5m/s | -53.2°C | 0.5% | 52.2hPa | 2.5V | 08:22:48 | 02:23:55 | 00:00:00 | |
| DF8AY | 2026-08-31 12:41:49 | 51.83411 | 8.10872 | 51° | 22km/h | 20743m | -16.1m/s | -53.1°C | 0.5% | 52.1hPa | 2.5V | 08:23:39 | 02:23:54 | 00:00:00 | |
| SMARD9-10 | 2026-08-31 12:41:49 | 51.83414 | 8.10878 | 47° | 22km/h | 20726m | -16.5m/s | -53.2°C | 1.1% | 52.2hPa | 2.6V | 00:00:00 | 00:00:00 | 00:00:00 | |
| DL1XH-15 | 2026-08-31 12:41:48 | 51.83405 | 8.10857 | 65° | 20km/h | 20774m | -15.2m/s | -53.1°C | 3.8% | 51.8hPa | 2.6V | 08:22:35 | 02:23:52 | 00:00:00 | |
| DO2SHX-10 | 2026-08-31 12:41:48 | 51.83407 | 8.10864 | 58° | 20km/h | 20758m | -15.5m/s | -53.1°C | 3.9% | 51.9hPa | 2.5V | 00:00:00 | 02:23:53 | 00:00:00 | |
| DD8BA-10 | 2026-08-31 12:41:47 | 51.83405 | 8.10857 | 66° | 15km/h | 20774m | -15.2m/s | -53.0°C | 3.8% | 51.8hPa | 2.5V | 00:00:00 | 00:00:00 | 00:00:00 | |
| DL1ZP-14 | 2026-08-31 12:41:45 | 51.83402 | 8.10835 | 91° | 16km/h | 20826m | -19.2m/s | -53.3°C | 1.1% | 51.5hPa | 2.5V | 00:00:00 | 00:00:00 | 00:00:00 | |
| DL1NUX | 2026-08-31 12:41:44 | 51.83403 | 8.10812 | 89° | 11km/h | 20896m | -14.9m/s | -53.4°C | 4.1% | 50.8hPa | 2.6V | 08:22:42 | 02:23:45 | 00:00:00 | |
| DO2JMG | 2026-08-31 12:41:43 | 51.83402 | 8.10828 | 92° | 15km/h | 20845m | -18.8m/s | -53.3°C | 0.6% | 51.3hPa | 2.5V | 08:22:48 | 02:23:48 | 00:00:00 | |
| DL1XH1-15 | 2026-08-31 12:41:42 | 51.83403 | 8.10817 | 97° | 11km/h | 20881m | -16.9m/s | -53.4°C | 4% | 51hPa | 2.6V | 08:22:41 | 02:23:46 | 00:00:00 | |
| DF5WG-10 | 2026-08-31 12:41:42 | 51.83402 | 8.10822 | 98° | 13km/h | 20864m | -18.1m/s | -53.3°C | 4.0% | 51.1hPa | 2.5V | 00:00:00 | 02:23:47 | 00:00:00 | |
| DM0DOS-11 | 2026-08-31 12:41:41 | 51.83398 | 8.10799 | 38° | 11km/h | 20961m | -16.3m/s | -52.9°C | 3.9% | 50.3hPa | 2.5V | 08:22:46 | 02:23:41 | 00:00:00 | |
| AA1-15 | 2026-08-31 12:41:40 | 51.83402 | 8.10808 | 84° | 9km/h | 20912m | -16.3m/s | -53.3°C | 0.6% | 50.7hPa | 2.6V | 08:22:48 | 02:23:44 | 00:00:00 | |
| DL1XH-west | 2026-08-31 12:41:40 | 51.83403 | 8.10812 | 90° | 11km/h | 20896m | -14.9m/s | -53.4°C | 0.6% | 50.9hPa | 2.6V | 08:22:48 | 02:23:45 | 00:00:00 | |
| DF8AY | 2026-08-31 12:41:38 | 51.83402 | 8.10805 | 58° | 9km/h | 20928m | -16.5m/s | -53.2°C | 0.6% | 50.6hPa | 2.5V | 08:23:39 | 02:23:43 | 00:00:00 | |
| DL1XH1-15 | 2026-08-31 12:41:37 | 51.83385 | 8.10787 | 37° | 13km/h | 21039m | -17m/s | -52.7°C | 3.9% | 49.7hPa | 2.5V | 08:22:51 | 02:23:36 | 00:00:00 | |
| DL4BBY-15 | 2026-08-31 12:41:36 | 51.83398 | 8.10799 | 39° | 15km/h | 20962m | -16.3m/s | -52.2°C | 0% | 0hPa | 2.6V | 00:00:00 | 00:00:00 | 00:00:00 | |
| DJ2DS-15 | 2026-08-31 12:41:35 | 51.83396 | 8.10796 | 33° | 15km/h | 20977m | -14.4m/s | -52.8°C | 3.9% | 50.2hPa | 2.6V | 00:00:00 | 02:23:40 | 00:00:00 | |
| DL1NUX | 2026-08-31 12:41:34 | 51.83383 | 8.10784 | 46° | 13km/h | 21057m | -18.8m/s | -52.7°C | 4% | 49.6hPa | 2.5V | 08:22:52 | 02:23:35 | 00:00:00 | |
| DO2JMG | 2026-08-31 12:41:33 | 51.83390 | 8.10792 | 22° | 13km/h | 21007m | -16.1m/s | -52.9°C | 0.5% | 50hPa | 2.6V | 08:23:39 | 02:23:38 | 00:00:00 | |
| HTAHTA | 2026-08-31 12:41:32 | 51.83383 | 8.10784 | 46° | 11km/h | 21057m | -18.8m/s | -52.7°C | 1.1% | 49.6hPa | 2.5V | 00:00:00 | 00:00:00 | 00:00:00 | |
| DM0DOS-11 | 2026-08-31 12:41:31 | 51.83375 | 8.10765 | 70° | 16km/h | 21122m | -16.4m/s | -52.5°C | 4% | 49.1hPa | 2.5V | 08:22:56 | 02:23:31 | 00:00:00 | |
| AA1-15 | 2026-08-31 12:41:30 | 51.83381 | 8.10780 | 52° | 11km/h | 21075m | -16.6m/s | -52.7°C | 0.6% | 49.5hPa | 2.6V | 08:23:39 | 02:23:34 | 00:00:00 | |
| DL1XH-west | 2026-08-31 12:41:30 | 51.83383 | 8.10784 | 46° | 13km/h | 21057m | -18.8m/s | -52.7°C | 0.5% | 49.6hPa | 2.5V | 08:23:39 | 02:23:35 | 00:00:00 | |
| DF8AY | 2026-08-31 12:41:28 | 51.83377 | 8.10771 | 63° | 15km/h | 21106m | -16.3m/s | -52.6°C | 0.6% | 49.2hPa | 2.6V | 08:23:39 | 02:23:32 | 00:00:00 | |
| DJ8HS-15 | 2026-08-31 12:41:28 | 51.83379 | 8.10776 | 58° | 16km/h | 21091m | -14.4m/s | -52.6°C | 4.0% | 49.3hPa | 2.5V | 00:00:00 | 02:23:33 | 00:00:00 | |
| BIOWL7-15 | 2026-08-31 12:41:27 | 51.83379 | 8.10776 | 58° | 15km/h | 21091m | -14.4m/s | -52.6°C | 1.1% | 49.3hPa | 2.5V | 00:00:00 | 00:00:00 | 00:00:00 | |
| DB0DAN | 2026-08-31 12:41:25 | 51.83374 | 8.10758 | 69° | 16km/h | 21138m | -15.4m/s | -52.4°C | 1% | 48.94hPa | 2.5V | 00:00:00 | 00:00:00 | 00:00:00 | |
| DJ2KF-10 | 2026-08-31 12:41:25 | 51.83374 | 8.10758 | 70° | 11km/h | 21138m | -15.4m/s | -52.4°C | 3.9% | 48.9hPa | 2.5V | 00:00:00 | 02:23:30 | 00:00:00 | |
| DL1NUX | 2026-08-31 12:41:24 | 51.83364 | 8.10728 | 37° | 15km/h | 21236m | -25.3m/s | -51.9°C | 3.6% | 48.3hPa | 2.5V | 08:23:02 | 02:23:25 | 00:00:00 | |
| BIOWL1-15 | 2026-08-31 12:41:22 | 51.83364 | 8.10728 | 38° | 15km/h | 21236m | -25.3m/s | -51.9°C | 0.3% | 48.3hPa | 2.5V | 08:23:39 | 02:23:25 | 00:00:00 | |
| DO2JMG | 2026-08-31 12:41:22 | 51.83369 | 8.10737 | 64° | 16km/h | 21189m | -20.8m/s | -52°C | 0.4% | 48.6hPa | 2.6V | 08:23:39 | 02:23:27 | 00:00:00 | |
| AA1-15 | 2026-08-31 12:41:20 | 51.83357 | 8.10721 | 19° | 16km/h | 21286m | -23.4m/s | -52.1°C | 0.4% | 47.9hPa | 2.5V | 08:23:39 | 02:23:23 | 00:00:00 | |
| DL1XH-west | 2026-08-31 12:41:19 | 51.83361 | 8.10724 | 28° | 16km/h | 21262m | -25m/s | -52°C | 0.4% | 48.1hPa | 2.5V | 08:23:39 | 02:23:24 | 00:00:00 | |
| DL1XH-15 | 2026-08-31 12:41:18 | 51.83353 | 8.10720 | 10° | 16km/h | 21308m | -21.5m/s | -52.2°C | 3.8% | 47.7hPa | 2.6V | 08:23:05 | 02:23:22 | 00:00:00 | |
| DK9SH | 2026-08-31 12:41:18 | 51.83361 | 8.10724 | 29° | 16km/h | 21262m | -25.0m/s | -52.0°C | 1.0% | 48.1hPa | 2.6V | 08:23:00 | 00:00:00 | 00:00:00 | |
| GOEST3-10 | 2026-08-31 12:41:17 | 51.83353 | 8.10720 | 11° | 16km/h | 21309m | -21.5m/s | -52.1°C | 3.8% | 47.7hPa | 2.6V | 00:00:00 | 02:23:22 | 00:00:00 | |
| DL1NUX | 2026-08-31 12:41:16 | 51.83325 | 8.10728 | 328° | 15km/h | 21435m | -17.5m/s | -51.5°C | 3.5% | 46.8hPa | 2.6V | 08:23:12 | 02:23:15 | 00:00:00 | |
| DJ2DS-15 | 2026-08-31 12:41:15 | 51.83344 | 8.10719 | 359° | 9km/h | 21347m | -17.0m/s | -52.0°C | 3.8% | 47.4hPa | 2.5V | 00:00:00 | 02:23:20 | 00:00:00 | |
| DL1ZP-14 | 2026-08-31 12:41:14 | 51.83336 | 8.10721 | 346° | 16km/h | 21380m | -17.5m/s | -51.5°C | 0.9% | 47.2hPa | 2.5V | 00:00:00 | 00:00:00 | 00:00:00 | |
| DL1XH-15 | 2026-08-31 12:41:13 | 51.83317 | 8.10736 | 324° | 11km/h | 21493m | -20.6m/s | -51.6°C | 3.6% | 46.4hPa | 2.5V | 08:23:15 | 02:23:12 | 00:00:00 | |
| DO2JMG | 2026-08-31 12:41:12 | 51.83331 | 8.10723 | 341° | 16km/h | 21398m | -18.1m/s | -51.4°C | 0.2% | 47hPa | 2.5V | 08:23:39 | 02:23:17 | 00:00:00 | |
| BIOWL1-15 | 2026-08-31 12:41:11 | 51.83315 | 8.10739 | 325° | 9km/h | 21513m | -17.9m/s | -51.6°C | 0.3% | 46.3hPa | 2.6V | 08:23:39 | 02:23:11 | 00:00:00 | |
| DM0DOS-11 | 2026-08-31 12:41:10 | 51.83313 | 8.10741 | 333° | 9km/h | 21531m | -19m/s | -51.4°C | 3.5% | 46.1hPa | 2.6V | 08:23:17 | 02:23:10 | 00:00:00 | |
| HSKMA3-T | 2026-08-31 12:41:09 | 51.83322 | 8.10731 | 327° | 13km/h | 21454m | -19.8m/s | -51.6°C | 0.3% | 46.7hPa | 2.6V | 08:23:39 | 02:23:14 | 00:00:00 | |
| AA1-15 | 2026-08-31 12:41:08 | 51.83319 | 8.10734 | 326° | 11km/h | 21473m | -19.5m/s | -51.6°C | 0.3% | 46.5hPa | 2.5V | 08:23:39 | 02:23:13 | 00:00:00 | |
| DJ8HS-15 | 2026-08-31 12:41:08 | 51.83319 | 8.10734 | 327° | 9km/h | 21474m | -19.5m/s | -51.6°C | 3.6% | 46.5hPa | 2.5V | 00:00:00 | 02:23:13 | 00:00:00 | |
| DD8BA-10 | 2026-08-31 12:41:07 | 51.83317 | 8.10736 | 325° | 5km/h | 21494m | -20.5m/s | -51.5°C | 3.6% | 46.4hPa | 2.5V | 00:00:00 | 00:00:00 | 00:00:00 | |
| DL4BBY-15 | 2026-08-31 12:41:06 | 51.83314 | 8.10739 | 325° | 15km/h | 21513m | -17.8m/s | -50.8°C | 0% | 0hPa | 2.5V | 00:00:00 | 00:00:00 | 00:00:00 | |
| DL1NUX | 2026-08-31 12:41:05 | 51.83306 | 8.10742 | 31° | 2km/h | 21628m | -19.1m/s | -51.6°C | 3.6% | 45.4hPa | 2.5V | 08:23:22 | 02:23:05 | 00:00:00 | |
| DL3AQ-11 | 2026-08-31 12:41:05 | 51.83304 | 8.10745 | 296° | 7km/h | 21728m | -17.7m/s | -51.6°C | -1.0% | -1.0hPa | 2.6V | 00:00:00 | 00:00:00 | 00:00:00 | |
| DL1XH-15 | 2026-08-31 12:41:02 | 51.83305 | 8.10741 | 284° | 0km/h | 21679m | -16.6m/s | -51.8°C | 3.7% | 45hPa | 2.6V | 08:23:25 | 02:23:02 | 00:00:00 | |
| DO2JMG | 2026-08-31 12:41:01 | 51.83307 | 8.10742 | 20° | 4km/h | 21609m | -19.1m/s | -51.5°C | 0.2% | 45.6hPa | 2.6V | 08:23:39 | 02:23:06 | 00:00:00 | |
| DF8AY | 2026-08-31 12:40:59 | 51.83306 | 8.10741 | 40° | 4km/h | 21646m | -16.6m/s | -51.7°C | 0.3% | 45.3hPa | 2.5V | 08:23:39 | 02:23:04 | 00:00:00 | |
| BIOWL1-15 | 2026-08-31 12:40:58 | 51.83305 | 8.10741 | 20° | 2km/h | 21662m | -15.9m/s | -51.8°C | 0.3% | 45.2hPa | 2.6V | 08:23:39 | 02:23:03 | 00:00:00 | |
| DL1XH-west | 2026-08-31 12:40:57 | 51.83305 | 8.10741 | 291° | 4km/h | 21696m | -17.5m/s | -51.8°C | 0.4% | 44.9hPa | 2.5V | 08:23:39 | 02:23:01 | 00:00:00 | |
| DD1CC3-15 | 2026-08-31 12:40:57 | 51.83305 | 8.10741 | 0° | 0km/h | 21679m | -16.6m/s | -51.8°C | 1.0% | 45.0hPa | 2.5V | 08:23:00 | 00:00:00 | 00:00:00 | |
| DB0UT-7 | 2026-08-31 12:40:56 | 51.83305 | 8.10741 | 291° | 22km/h | 21696m | -17.4m/s | -51.8°C | 3.7% | 44.9hPa | 2.5V | 00:00:00 | 00:00:00 | 00:00:00 | |
| DL1NUX | 2026-08-31 12:40:55 | 51.83293 | 8.10761 | 329° | 20km/h | 21800m | -18.9m/s | -51.7°C | 3.6% | 44.2hPa | 2.5V | 08:23:32 | 02:22:55 | 00:00:00 | |
| DL3AQ-11 | 2026-08-31 12:40:54 | 51.83293 | 8.10761 | 329° | 18km/h | 21800m | -18.9m/s | -51.7°C | -1.0% | -1.0hPa | 2.5V | 00:00:00 | 00:00:00 | 00:00:00 | |
| DL1XH1-15 | 2026-08-31 12:40:53 | 51.83297 | 8.10756 | 323° | 16km/h | 21782m | -16.7m/s | -51.6°C | 3.6% | 44.3hPa | 2.5V | 08:23:31 | 02:22:56 | 00:00:00 | |
| BIOWL1-15 | 2026-08-31 12:40:52 | 51.83284 | 8.10768 | 333° | 20km/h | 21836m | -17.9m/s | -51.8°C | 0.4% | 44hPa | 2.6V | 08:23:39 | 02:22:53 | 00:00:00 | |
| GOEST3-10 | 2026-08-31 12:40:52 | 51.83299 | 8.10752 | 318° | 18km/h | 21765m | -17.8m/s | -51.5°C | 3.6% | 44.4hPa | 2.6V | 00:00:00 | 00:00:00 | 00:00:00 | |
| DL1XH-15 | 2026-08-31 12:40:51 | 51.83279 | 8.10772 | 339° | 22km/h | 21853m | -17.7m/s | -51.9°C | 3.7% | 43.8hPa | 2.6V | 08:23:35 | 02:22:52 | 00:00:00 | |
| DO2JMG | 2026-08-31 12:40:51 | 51.83296 | 8.10756 | 324° | 16km/h | 21782m | -16.7m/s | -51.6°C | 0.3% | 44.4hPa | 2.5V | 08:23:39 | 02:22:56 | 00:00:00 | |
| DM0DOS-11 | 2026-08-31 12:40:50 | 51.83263 | 8.10779 | 348° | 22km/h | 21912m | -19.2m/s | -52°C | 3.7% | 43.5hPa | 2.5V | 08:23:38 | 02:22:49 | 00:00:00 | |
| DF8AY | 2026-08-31 12:40:48 | 51.83246 | 8.10784 | 351° | 24km/h | 21970m | -18.5m/s | -52°C | 0.4% | 43.1hPa | 2.6V | 08:24:30 | 02:22:46 | 00:00:00 | |
| DL1XH-west | 2026-08-31 12:40:47 | 51.83279 | 8.10772 | 340° | 22km/h | 21853m | -17.7m/s | -51.9°C | 0.4% | 43.8hPa | 2.6V | 08:23:39 | 02:22:52 | 00:00:00 | |
| AA1-15 | 2026-08-31 12:40:47 | 51.83274 | 8.10775 | 342° | 22km/h | 21872m | -19.3m/s | -51.9°C | 0.4% | 43.7hPa | 2.6V | 08:23:39 | 02:22:51 | 00:00:00 | |
| DD8BA-10 | 2026-08-31 12:40:47 | 51.83279 | 8.10772 | 340° | 24km/h | 21854m | -17.6m/s | -51.8°C | 3.7% | 43.8hPa | 2.6V | 00:00:00 | 00:00:00 | 00:00:00 | |
| DO2SHX-10 | 2026-08-31 12:40:46 | 51.83273 | 8.10775 | 342° | 22km/h | 21872m | -19.2m/s | -51.9°C | 3.7% | 43.7hPa | 2.6V | 00:00:00 | 02:22:51 | 00:00:00 | |
| DL1NUX | 2026-08-31 12:40:45 | 51.83240 | 8.10785 | 349° | 26km/h | 21989m | -18.9m/s | -51.9°C | 3.8% | 42.9hPa | 2.6V | 08:23:42 | 02:22:45 | 00:00:00 | |
| DO2JMG | 2026-08-31 12:40:40 | 51.83240 | 8.10785 | 349° | 26km/h | 21989m | -18.9m/s | -51.9°C | 0.4% | 42.9hPa | 2.6V | 08:24:30 | 02:22:45 | 00:00:00 | |
| DO2SHX-10 | 2026-08-31 12:40:40 | 51.83240 | 8.10785 | 350° | 27km/h | 21989m | -18.8m/s | -51.9°C | 3.8% | 42.9hPa | 2.6V | 00:00:00 | 02:22:45 | 00:00:00 | |
| DM0DOS-11 | 2026-08-31 12:40:39 | 51.83206 | 8.10789 | 5° | 27km/h | 22094m | -24.8m/s | -51.8°C | 3.8% | 42.3hPa | 2.6V | 08:23:47 | 02:22:40 | 00:00:00 | |
| DL1XH-15 | 2026-08-31 12:40:38 | 51.83220 | 8.10790 | 356° | 27km/h | 22046m | -20.4m/s | -51.8°C | 3.7% | 42.6hPa | 2.5V | 08:23:45 | 02:22:42 | 00:00:00 | |
| BIOWL1-15 | 2026-08-31 12:40:38 | 51.83226 | 8.10789 | 352° | 27km/h | 22027m | -18.7m/s | -51.8°C | 0.4% | 42.7hPa | 2.5V | 08:24:30 | 02:22:43 | 00:00:00 | |
| DL1XH-west | 2026-08-31 12:40:37 | 51.83219 | 8.10790 | 356° | 27km/h | 22046m | -20.4m/s | -51.8°C | 0.4% | 42.6hPa | 2.5V | 08:24:30 | 02:22:42 | 00:00:00 | |
| AA1-15 | 2026-08-31 12:40:36 | 51.83192 | 8.10786 | 13° | 27km/h | 22140m | -21.2m/s | -51.7°C | 0.4% | 42hPa | 2.5V | 08:24:30 | 02:22:38 | 00:00:00 | |
| DL4BBY-15 | 2026-08-31 12:40:36 | 51.83212 | 8.10790 | 2° | 13km/h | 22069m | -25.2m/s | -51.1°C | 0% | 0hPa | 2.6V | 00:00:00 | 00:00:00 | 00:00:00 | |
| DL1NUX | 2026-08-31 12:40:35 | 51.83173 | 8.10776 | 20° | 26km/h | 22195m | -16.3m/s | -51.6°C | 3.7% | 41.6hPa | 2.6V | 08:23:52 | 02:22:35 | 00:00:00 | |
| DO2JMG | 2026-08-31 12:40:29 | 51.83168 | 8.10773 | 17° | 22km/h | 22213m | -19.6m/s | -51.5°C | 0.4% | 41.5hPa | 2.6V | 08:24:30 | 02:22:34 | 00:00:00 | |
| SO1NDE-10 | 2026-08-31 12:40:28 | 51.83162 | 8.10770 | 17° | 7km/h | 22232m | -19.7m/s | -51.5°C | 3.7% | 41.3hPa | 2.6V | 08:23:00 | 02:22:33 | 00:00:00 | |
| GOEST3-10 | 2026-08-31 12:40:27 | 51.83157 | 8.10768 | 15° | 15km/h | 22251m | -17.9m/s | -51.4°C | 3.7% | 41.2hPa | 2.5V | 08:23:00 | 02:22:32 | 00:00:00 | |
| DL1XH-west | 2026-08-31 12:40:27 | 51.83153 | 8.10766 | 12° | 18km/h | 22269m | -18.9m/s | -51.2°C | 0.4% | 41.1hPa | 2.5V | 08:24:30 | 02:22:31 | 00:00:00 | |
| DM0DOS-11 | 2026-08-31 12:40:27 | 51.83149 | 8.10765 | 13° | 15km/h | 22288m | -18.3m/s | -51°C | 3.5% | 41hPa | 2.5V | 08:23:57 | 02:22:30 | 00:00:00 | |
| DB0UT-7 | 2026-08-31 12:40:26 | 51.83153 | 8.10766 | 12° | 7km/h | 22270m | -18.8m/s | -51.2°C | 3.6% | 41.1hPa | 2.5V | 00:00:00 | 02:22:31 | 00:00:00 | |
| DL1NUX | 2026-08-31 12:40:25 | 51.83139 | 8.10755 | 89° | 7km/h | 22380m | -19.7m/s | -50.7°C | 3.4% | 40.5hPa | 2.5V | 08:24:02 | 02:22:25 | 00:00:00 | |
| AA1-15 | 2026-08-31 12:40:23 | 51.83142 | 8.10762 | 24° | 11km/h | 22323m | -16.9m/s | -50.9°C | 0.3% | 40.8hPa | 2.6V | 08:24:30 | 02:22:28 | 00:00:00 | |
| DO2JMG | 2026-08-31 12:40:19 | 51.83139 | 8.10752 | 110° | 7km/h | 22399m | -17.5m/s | -50.7°C | 0.2% | 40.3hPa | 2.6V | 08:24:30 | 02:22:24 | 00:00:00 | |
| DL1XH-15 | 2026-08-31 12:40:18 | 51.83141 | 8.10747 | 123° | 5km/h | 22435m | -18.4m/s | -50.7°C | 3.4% | 40.1hPa | 2.5V | 08:24:05 | 02:22:22 | 00:00:00 | |
| DO2SHX-10 | 2026-08-31 12:40:18 | 51.83140 | 8.10749 | 119° | 5km/h | 22417m | -18.1m/s | -50.7°C | 3.4% | 40.1hPa | 2.6V | 00:00:00 | 02:22:23 | 00:00:00 | |
| DK9SH | 2026-08-31 12:40:17 | 51.83140 | 8.10749 | 119° | 7km/h | 22417m | -18.1m/s | -50.8°C | 0.9% | 40.2hPa | 2.6V | 08:24:00 | 00:00:00 | 00:00:00 | |
| DM0DOS-11 | 2026-08-31 12:40:16 | 51.83142 | 8.10744 | 129° | 4km/h | 22470m | -17.6m/s | -50.9°C | 3.4% | 39.9hPa | 2.6V | 08:24:07 | 02:22:20 | 00:00:00 | |
| DL1XH-west | 2026-08-31 12:40:16 | 51.83142 | 8.10745 | 126° | 5km/h | 22452m | -17.1m/s | -50.8°C | 0.2% | 40hPa | 2.5V | 08:24:30 | 02:22:21 | 00:00:00 | |
| AA1-15 | 2026-08-31 12:40:13 | 51.83142 | 8.10744 | 309° | 2km/h | 22525m | -19.2m/s | -50.9°C | 0.2% | 39.6hPa | 2.5V | 08:24:30 | 02:22:17 | 00:00:00 | |
| DL1XH1-15 | 2026-08-31 12:40:12 | 51.83142 | 8.10744 | 338° | 4km/h | 22545m | -19.5m/s | -50.9°C | 3.5% | 39.4hPa | 2.6V | 08:24:11 | 02:22:16 | 00:00:00 | |
| DO2SHX-10 | 2026-08-31 12:40:12 | 51.83142 | 8.10744 | 310° | 4km/h | 22526m | -19.1m/s | -50.8°C | 3.4% | 39.5hPa | 2.6V | 00:00:00 | 02:22:17 | 00:00:00 | |
| DM0DOS-11 | 2026-08-31 12:40:11 | 51.83136 | 8.10749 | 340° | 5km/h | 22661m | -19.1m/s | -51.1°C | 3.4% | 38.7hPa | 2.6V | 08:24:17 | 02:22:10 | 00:00:00 | |
| DO2JMG | 2026-08-31 12:40:09 | 51.83140 | 8.10746 | 331° | 5km/h | 22587m | -19.4m/s | -50.9°C | 0.2% | 39.2hPa | 2.6V | 08:24:30 | 02:22:14 | 00:00:00 | |
| HSKMA3-T | 2026-08-31 12:40:07 | 51.83137 | 8.10748 | 333° | 5km/h | 22642m | -17.3m/s | -51.2°C | 0.3% | 38.9hPa | 2.5V | 08:24:30 | 02:22:11 | 00:00:00 | |
| DL1XH1-15 | 2026-08-31 12:40:07 | 51.83127 | 8.10753 | 347° | 11km/h | 22741m | -19.9m/s | -51.1°C | 3.5% | 38.2hPa | 2.5V | 08:24:21 | 02:22:06 | 00:00:00 | |
| DL1XH-west | 2026-08-31 12:40:07 | 51.83134 | 8.10750 | 344° | 7km/h | 22680m | -19.8m/s | -51.1°C | 0.3% | 38.6hPa | 2.6V | 08:24:30 | 02:22:09 | 00:00:00 | |
| BIOWL1-15 | 2026-08-31 12:40:06 | 51.83122 | 8.10755 | 351° | 13km/h | 22780m | -18.5m/s | -51.1°C | 0.2% | 38hPa | 2.6V | 08:24:30 | 02:22:04 | 00:00:00 | |
| AA1-15 | 2026-08-31 12:40:02 | 51.83127 | 8.10753 | 347° | 11km/h | 22741m | -19.9m/s | -51.1°C | 0.3% | 38.2hPa | 2.5V | 08:24:30 | 02:22:06 | 00:00:00 | |
| DO2JMG | 2026-08-31 12:39:58 | 51.83118 | 8.10755 | 355° | 13km/h | 22801m | -22.2m/s | -51.2°C | 0.2% | 37.9hPa | 2.6V | 08:24:30 | 02:22:03 | 00:00:00 | |
| DD8BA-10 | 2026-08-31 12:39:57 | 51.83115 | 8.10756 | 2° | 11km/h | 22825m | -25.1m/s | -51.1°C | 3.4% | 37.8hPa | 2.6V | 08:24:00 | 00:00:00 | 00:00:00 | |
| DL1XH1-15 | 2026-08-31 12:39:56 | 51.83095 | 8.10743 | 29° | 7km/h | 22965m | -18.2m/s | -51.4°C | 3.5% | 36.9hPa | 2.5V | 08:24:32 | 02:21:55 | 00:00:00 | |
| HSKMA3-T | 2026-08-31 12:39:56 | 51.83109 | 8.10754 | 16° | 13km/h | 22870m | -21m/s | -51.3°C | 0.2% | 37.5hPa | 2.5V | 08:24:30 | 02:22:00 | 00:00:00 | |
| DL1NUX | 2026-08-31 12:39:55 | 51.83095 | 8.10743 | 29° | 7km/h | 22965m | -18.2m/s | -51.4°C | 3.5% | 36.9hPa | 2.5V | 08:24:32 | 02:21:55 | 00:00:00 | |
| DL1XH-west | 2026-08-31 12:39:54 | 51.83105 | 8.10752 | 23° | 15km/h | 22890m | -20m/s | -51.3°C | 0.2% | 37.4hPa | 2.5V | 08:24:30 | 02:21:59 | 00:00:00 | |
| AA1-15 | 2026-08-31 12:39:52 | 51.83099 | 8.10747 | 29° | 13km/h | 22930m | -17.8m/s | -51.6°C | 0.2% | 37.1hPa | 2.6V | 08:24:30 | 02:21:57 | 00:00:00 | |
| GOEST3-10 | 2026-08-31 12:39:52 | 51.83099 | 8.10747 | 29° | 7km/h | 22930m | -17.8m/s | -51.5°C | 3.5% | 37.1hPa | 2.5V | 00:00:00 | 00:00:00 | 00:00:00 | |
| DD1CC1-15 | 2026-08-31 12:39:51 | 51.83099 | 8.10747 | 30° | 13km/h | 22930m | -17.8m/s | -51.6°C | 0.9% | 37.1hPa | 2.5V | 08:24:00 | 00:00:00 | 00:00:00 | |
| DF2AP-13 | 2026-08-31 12:39:50 | 51.83095 | 8.10743 | 30° | 7km/h | 22965m | -18.2m/s | -51.4°C | 3.5% | 36.9hPa | 2.5V | 00:00:00 | 02:21:55 | 00:00:00 | |
| DL1XH-15 | 2026-08-31 12:39:49 | 51.83091 | 8.10741 | 4° | 4km/h | 23023m | -20.4m/s | -51.5°C | 3.4% | 36.6hPa | 2.6V | 08:24:35 | 02:21:52 | 00:00:00 | |
| DO2JMG | 2026-08-31 12:39:48 | 51.83092 | 8.10741 | 10° | 4km/h | 23004m | -18.7m/s | -51.5°C | 0.3% | 36.7hPa | 2.6V | 08:25:21 | 02:21:53 | 00:00:00 | |
| DJ8HS-15 | 2026-08-31 12:39:48 | 51.83092 | 8.10741 | 11° | 7km/h | 23004m | -18.7m/s | -51.4°C | 3.5% | 36.7hPa | 2.5V | 00:00:00 | 02:21:53 | 00:00:00 | |
| DD8BA-10 | 2026-08-31 12:39:47 | 51.83091 | 8.10741 | 5° | 5km/h | 23024m | -20.4m/s | -51.5°C | 3.4% | 36.6hPa | 2.5V | 00:00:00 | 00:00:00 | 00:00:00 | |
| DO3MHA-12 | 2026-08-31 12:39:46 | 51.83090 | 8.10741 | 340° | 5km/h | 23044m | -20.1m/s | -51.6°C | 3.4% | 36.5hPa | 2.5V | 00:00:00 | 02:21:51 | 00:00:00 | |
| DL1XH1-15 | 2026-08-31 12:39:45 | 51.83092 | 8.10739 | 140° | 7km/h | 23145m | -19.4m/s | -51.9°C | 3.6% | 35.9hPa | 2.5V | 08:24:41 | 02:21:46 | 00:00:00 | |
| DL1NUX | 2026-08-31 12:39:45 | 51.83094 | 8.10737 | 143° | 9km/h | 23163m | -16.5m/s | -52°C | 3.7% | 35.8hPa | 2.5V | 08:24:42 | 02:21:45 | 00:00:00 | |
| HSKMA3-T | 2026-08-31 12:39:45 | 51.83090 | 8.10742 | 280° | 0km/h | 23064m | -19.7m/s | -51.7°C | 0.3% | 36.4hPa | 2.5V | 08:25:21 | 02:21:50 | 00:00:00 | |
| DL1XH-west | 2026-08-31 12:39:44 | 51.83090 | 8.10742 | 328° | 0km/h | 23084m | -20.4m/s | -51.9°C | 0.3% | 36.3hPa | 2.6V | 08:25:21 | 02:21:49 | 00:00:00 | |
| AA1-15 | 2026-08-31 12:39:42 | 51.83091 | 8.10740 | 135° | 5km/h | 23125m | -20.8m/s | -51.9°C | 0.3% | 36hPa | 2.6V | 08:25:21 | 02:21:47 | 00:00:00 | |
| BIOWL1-15 | 2026-08-31 12:39:42 | 51.83094 | 8.10737 | 144° | 9km/h | 23163m | -16.5m/s | -52°C | 0.4% | 35.8hPa | 2.5V | 08:25:21 | 02:21:45 | 00:00:00 | |
| DB0DAN | 2026-08-31 12:39:40 | 51.83094 | 8.10737 | 144° | 9km/h | 23163m | -16.5m/s | -52°C | 1% | 35.81hPa | 2.5V | 00:00:00 | 00:00:00 | 00:00:00 | |
| DO2JMG | 2026-08-31 12:39:37 | 51.83100 | 8.10732 | 174° | 11km/h | 23210m | -16.3m/s | -52°C | 0.3% | 35.6hPa | 2.6V | 08:25:21 | 02:21:42 | 00:00:00 | |
| DD8BA-10 | 2026-08-31 12:39:37 | 51.83100 | 8.10732 | 175° | 11km/h | 23211m | -16.2m/s | -52.0°C | 3.6% | 35.5hPa | 2.6V | 00:00:00 | 00:00:00 | 00:00:00 | |
| DO3MHA-12 | 2026-08-31 12:39:36 | 51.83103 | 8.10732 | 186° | 11km/h | 23227m | -15.6m/s | -52.0°C | 3.7% | 35.4hPa | 2.6V | 00:00:00 | 02:21:41 | 00:00:00 | |
| DL1NUX | 2026-08-31 12:39:35 | 51.83118 | 8.10745 | 254° | 7km/h | 23344m | -24.9m/s | -52.5°C | 3.7% | 34.9hPa | 2.6V | 08:24:52 | 02:21:35 | 00:00:00 | |
| DL1XH1-15 | 2026-08-31 12:39:35 | 51.83117 | 8.10742 | 225° | 9km/h | 23321m | -19m/s | -52.4°C | 3.7% | 35hPa | 2.6V | 08:24:51 | 02:21:36 | 00:00:00 | |
| DF8AY | 2026-08-31 12:39:34 | 51.83112 | 8.10737 | 211° | 13km/h | 23282m | -19.2m/s | -52.3°C | 0.4% | 0hPa | 2.5V | 08:26:12 | 02:21:38 | 00:00:00 | |
| AA1-15 | 2026-08-31 12:39:31 | 51.83117 | 8.10742 | 225° | 9km/h | 23321m | -19m/s | -52.4°C | 0.4% | 35hPa | 2.6V | 08:25:21 | 02:21:36 | 00:00:00 | |
| BIOWL1-15 | 2026-08-31 12:39:30 | 51.83118 | 8.10745 | 254° | 7km/h | 23344m | -24.9m/s | -52.5°C | 0.4% | 34.9hPa | 2.6V | 08:25:21 | 02:21:35 | 00:00:00 | |
| DO2JMG | 2026-08-31 12:39:27 | 51.83118 | 8.10754 | 288° | 7km/h | 23414m | -23m/s | -52.7°C | 0.4% | 34.5hPa | 2.5V | 08:25:21 | 02:21:32 | 00:00:00 | |
| DD8BA-10 | 2026-08-31 12:39:27 | 51.83118 | 8.10754 | 288° | 4km/h | 23414m | -22.9m/s | -52.6°C | 3.8% | 34.4hPa | 2.5V | 00:00:00 | 00:00:00 | 00:00:00 | |
| DB0UT-7 | 2026-08-31 12:39:26 | 51.83117 | 8.10756 | 296° | 7km/h | 23437m | -22.3m/s | -52.6°C | 3.8% | 34.3hPa | 2.6V | 00:00:00 | 02:21:31 | 00:00:00 | |
| DL1NUX | 2026-08-31 12:39:25 | 51.83113 | 8.10762 | 22° | 4km/h | 23563m | -21.1m/s | -52.7°C | 3.8% | 33.7hPa | 2.6V | 08:25:02 | 02:21:25 | 00:00:00 | |
| DF8AY | 2026-08-31 12:39:24 | 51.83115 | 8.10761 | 336° | 4km/h | 23502m | -21.4m/s | -52.6°C | 0.4% | 0hPa | 2.5V | 08:26:12 | 02:21:28 | 00:00:00 | |
| DL1XH-west | 2026-08-31 12:39:24 | 51.83114 | 8.10762 | 345° | 4km/h | 23523m | -19.7m/s | -52.6°C | 0.4% | 33.9hPa | 2.5V | 08:25:21 | 02:21:27 | 00:00:00 | |
| AA1-15 | 2026-08-31 12:39:20 | 51.83113 | 8.10762 | 22° | 4km/h | 23563m | -21.1m/s | -52.7°C | 0.5% | 33.7hPa | 2.6V | 08:25:21 | 02:21:25 | 00:00:00 | |
| BIOWL1-15 | 2026-08-31 12:39:19 | 51.83112 | 8.10761 | 32° | 4km/h | 23586m | -24.1m/s | -52.6°C | 0.4% | 33.6hPa | 2.5V | 08:25:21 | 02:21:24 | 00:00:00 | |
| DO9LL-15 | 2026-08-31 12:39:19 | 51.83112 | 8.10761 | 32° | 9km/h | 23586m | -24.0m/s | -52.6°C | 3.8% | 33.5hPa | 2.5V | 00:00:00 | 02:21:24 | 00:00:00 | |
| DM0DOS-11 | 2026-08-31 12:39:18 | 51.83105 | 8.10749 | 61° | 9km/h | 23709m | -19.1m/s | -52.8°C | 4% | 32.9hPa | 2.5V | 08:25:09 | 02:21:18 | 00:00:00 | |
| DO2JMG | 2026-08-31 12:39:17 | 51.83110 | 8.10759 | 36° | 5km/h | 23631m | -20.3m/s | -52.7°C | 0.6% | 33.3hPa | 2.6V | 08:25:21 | 02:21:22 | 00:00:00 | |
| DL1XH-west | 2026-08-31 12:39:13 | 51.83105 | 8.10749 | 61° | 9km/h | 23709m | -19.1m/s | -52.8°C | 0.6% | 32.9hPa | 2.5V | 08:25:21 | 02:21:18 | 00:00:00 | |
| DL1XH1-15 | 2026-08-31 12:39:13 | 51.83103 | 8.10742 | 62° | 11km/h | 23749m | -20.4m/s | -52.8°C | 4% | 32.7hPa | 2.6V | 08:25:11 | 02:21:16 | 00:00:00 | |
| DF8AY | 2026-08-31 12:39:12 | 51.83104 | 8.10746 | 68° | 9km/h | 23729m | -20m/s | -52.8°C | 0.6% | 0hPa | 2.5V | 08:26:12 | 02:21:17 | 00:00:00 | |
| HSKMA3-T | 2026-08-31 12:39:12 | 51.83103 | 8.10742 | 63° | 11km/h | 23749m | -20.4m/s | -52.8°C | 0.6% | 32.7hPa | 2.6V | 08:25:21 | 02:21:16 | 00:00:00 | |
| AA1-15 | 2026-08-31 12:39:10 | 51.83099 | 8.10733 | 45° | 9km/h | 23812m | -20.7m/s | -52.7°C | 0.6% | 32.4hPa | 2.5V | 08:25:21 | 02:21:13 | 00:00:00 | |
| DL1XH-15 | 2026-08-31 12:39:09 | 51.83097 | 8.10730 | 23° | 9km/h | 23834m | -22.5m/s | -52.7°C | 4% | 32.3hPa | 2.5V | 08:25:15 | 02:21:12 | 00:00:00 | |
| DO2JMG | 2026-08-31 12:39:06 | 51.83095 | 8.10729 | 12° | 9km/h | 23856m | -21.2m/s | -52.6°C | 0.6% | 32.2hPa | 2.5V | 08:25:21 | 02:21:11 | 00:00:00 | |
| DO2SHX-10 | 2026-08-31 12:39:06 | 51.83095 | 8.10729 | 13° | 9km/h | 23856m | -21.1m/s | -52.6°C | 4.0% | 32.2hPa | 2.6V | 00:00:00 | 02:21:11 | 00:00:00 | |
| DL1NUX | 2026-08-31 12:39:05 | 51.83081 | 8.10728 | 13° | 9km/h | 24010m | -25.1m/s | -51.7°C | 3.6% | 31.4hPa | 2.6V | 08:25:22 | 02:21:05 | 00:00:00 | |
| DL1XH-west | 2026-08-31 12:39:03 | 51.83083 | 8.10729 | 7° | 9km/h | 23985m | -26.2m/s | -51.7°C | 0.3% | 31.6hPa | 2.5V | 08:25:21 | 02:21:06 | 00:00:00 | |
| DF8AY | 2026-08-31 12:39:03 | 51.83086 | 8.10729 | 2° | 9km/h | 23958m | -27.1m/s | 0°C | 0% | 0hPa | 2.5V | 08:26:12 | 02:21:07 | 00:00:00 | |
| DL1XH1-15 | 2026-08-31 12:39:02 | 51.83083 | 8.10729 | 6° | 9km/h | 23985m | -26.2m/s | -51.7°C | 3.6% | 31.6hPa | 2.5V | 08:25:21 | 02:21:06 | 00:00:00 | |
| HSKMA3-T | 2026-08-31 12:39:00 | 51.83081 | 8.10728 | 14° | 9km/h | 24011m | -25.1m/s | -51.7°C | 0.4% | 31.4hPa | 2.6V | 08:26:12 | 02:21:05 | 00:00:00 | |
| AA1-15 | 2026-08-31 12:39:00 | 51.83079 | 8.10727 | 21° | 9km/h | 24034m | -22.8m/s | -51.8°C | 0.3% | 31.3hPa | 2.6V | 08:26:12 | 02:21:04 | 00:00:00 | |
| BIOWL7-15 | 2026-08-31 12:38:59 | 51.83081 | 8.10728 | 15° | 9km/h | 24011m | -25.1m/s | -51.7°C | 0.9% | 31.4hPa | 2.5V | 00:00:00 | 00:00:00 | 00:00:00 | |
| SO1NDE-10 | 2026-08-31 12:38:58 | 51.83077 | 8.10727 | 8° | 15km/h | 24058m | -23.0m/s | -51.8°C | 3.6% | 31.2hPa | 2.5V | 00:00:00 | 02:21:03 | 00:00:00 | |
| DD8BA-10 | 2026-08-31 12:38:57 | 51.83075 | 8.10726 | 7° | 13km/h | 24081m | -23.6m/s | -51.9°C | 3.6% | 31.0hPa | 2.5V | 00:00:00 | 00:00:00 | 00:00:00 | |
| DM0DOS-11 | 2026-08-31 12:38:56 | 51.83065 | 8.10730 | 325° | 11km/h | 24172m | -20.1m/s | -51.9°C | 3.7% | 30.6hPa | 2.5V | 08:25:29 | 02:20:58 | 00:00:00 | |
| DO2JMG | 2026-08-31 12:38:55 | 51.83070 | 8.10727 | 347° | 11km/h | 24128m | -23.7m/s | -51.9°C | 0.4% | 30.8hPa | 2.6V | 08:26:12 | 02:21:00 | 00:00:00 | |
| DF8AY | 2026-08-31 12:38:52 | 51.83056 | 8.10739 | 329° | 18km/h | 24237m | -23.3m/s | 0°C | 0% | 0hPa | 2.6V | 08:26:12 | 02:20:55 | 00:00:00 | |
| DL1XH-west | 2026-08-31 12:38:51 | 51.83060 | 8.10736 | 323° | 15km/h | 24214m | -22.3m/s | -52°C | 0.4% | 30.4hPa | 2.5V | 08:26:12 | 02:20:56 | 00:00:00 | |
| DL1NUX | 2026-08-31 12:38:51 | 51.83056 | 8.10739 | 328° | 18km/h | 24237m | -23.3m/s | -52.1°C | 3.7% | 30.4hPa | 2.6V | 08:25:32 | 02:20:55 | 00:00:00 | |
| HSKMA3-T | 2026-08-31 12:38:50 | 51.83052 | 8.10743 | 335° | 20km/h | 24260m | -23.4m/s | -52.1°C | 0.4% | 30.2hPa | 2.6V | 08:26:12 | 02:20:54 | 00:00:00 | |
| AA1-15 | 2026-08-31 12:38:48 | 51.83047 | 8.10747 | 334° | 22km/h | 24284m | -24.5m/s | -52.1°C | 0.4% | 30.1hPa | 2.6V | 08:26:12 | 02:20:53 | 00:00:00 | |
| DB0NH | 2026-08-31 12:38:48 | 51.83047 | 8.10747 | 335° | 11km/h | 24284m | -24.5m/s | -52.0°C | 3.7% | 30.1hPa | 2.5V | 00:00:00 | 02:20:53 | 00:00:00 | |
| DJ3KS | 2026-08-31 12:38:47 | 51.83042 | 8.10750 | 340° | 24km/h | 24308m | -23.3m/s | -52.0°C | 1.0% | 30.0hPa | 2.5V | 00:00:00 | 00:00:00 | 00:00:00 | |
| DO2SHX-10 | 2026-08-31 12:38:46 | 51.83036 | 8.10753 | 345° | 27km/h | 24332m | -24.7m/s | -51.9°C | 3.7% | 29.9hPa | 2.5V | 00:00:00 | 02:20:51 | 00:00:00 | |
| DL1NUX | 2026-08-31 12:38:45 | 51.82999 | 8.10760 | 10° | 18km/h | 24453m | -19.9m/s | -52.2°C | 3.9% | 29.3hPa | 2.5V | 08:25:42 | 02:20:45 | 00:00:00 | |
| DO2JMG | 2026-08-31 12:38:44 | 51.83023 | 8.10758 | 353° | 26km/h | 24377m | -21.4m/s | -52.1°C | 0.5% | 29.7hPa | 2.6V | 08:26:12 | 02:20:49 | 00:00:00 | |
| BIOWL1-15 | 2026-08-31 12:38:42 | 51.83010 | 8.10761 | 358° | 26km/h | 24417m | -17.7m/s | -52.2°C | 0.5% | 29.5hPa | 2.6V | 08:26:12 | 02:20:47 | 00:00:00 | |
| DF8AY | 2026-08-31 12:38:41 | 51.83000 | 8.10760 | 11° | 18km/h | 24453m | -19.9m/s | 0°C | 0% | 0hPa | 2.5V | 08:26:12 | 02:20:45 | 00:00:00 | |
| DL1XH-west | 2026-08-31 12:38:41 | 51.83004 | 8.10761 | 5° | 20km/h | 24434m | -18.4m/s | -52.2°C | 0.5% | 29.4hPa | 2.5V | 08:26:12 | 02:20:46 | 00:00:00 | |
| HSKMA3-T | 2026-08-31 12:38:39 | 51.82996 | 8.10758 | 20° | 13km/h | 24474m | -20.8m/s | -52.1°C | 0.5% | 29.2hPa | 2.6V | 08:26:12 | 02:20:44 | 00:00:00 | |
| AA1-15 | 2026-08-31 12:38:38 | 51.82992 | 8.10749 | 91° | 9km/h | 24540m | -23.5m/s | -52.1°C | 0.6% | 28.9hPa | 2.5V | 08:26:12 | 02:20:41 | 00:00:00 | |
| DO2SHX-10 | 2026-08-31 12:38:37 | 51.82992 | 8.10753 | 75° | 9km/h | 24517m | -22.5m/s | -52.0°C | 4.0% | 29.0hPa | 2.6V | 00:00:00 | 02:20:42 | 00:00:00 | |
| DL1XH1-15 | 2026-08-31 12:38:36 | 51.82991 | 8.10733 | 52° | 9km/h | 24652m | -25.3m/s | -51.6°C | 3.8% | 28.4hPa | 2.6V | 08:25:51 | 02:20:36 | 00:00:00 | |
| DK9SH | 2026-08-31 12:38:36 | 51.82992 | 8.10749 | 92° | 9km/h | 24540m | -23.5m/s | -52.1°C | 1.0% | 29.0hPa | 2.6V | 08:26:00 | 00:00:00 | 00:00:00 | |
| DM0DOS-11 | 2026-08-31 12:38:34 | 51.82993 | 8.10739 | 89° | 9km/h | 24607m | -21.4m/s | -51.8°C | 3.9% | 28.6hPa | 2.6V | 08:25:49 | 02:20:38 | 00:00:00 | |
| DO2JMG | 2026-08-31 12:38:34 | 51.82992 | 8.10742 | 99° | 9km/h | 24585m | -21.7m/s | -51.9°C | 0.5% | 28.7hPa | 2.5V | 08:26:12 | 02:20:39 | 00:00:00 | |
| DO2SHX-10 | 2026-08-31 12:38:34 | 51.82992 | 8.10742 | 99° | 9km/h | 24585m | -21.7m/s | -51.8°C | 3.9% | 28.6hPa | 2.6V | 00:00:00 | 02:20:39 | 00:00:00 | |
| SONCRA | 2026-08-31 12:38:33 | 51.82992 | 8.10739 | 89° | 7km/h | 24607m | -21.4m/s | -51.8°C | 1.0% | 28.6hPa | 2.6V | 00:00:00 | 00:00:00 | 00:00:00 | |
| DL1XH-15 | 2026-08-31 12:38:32 | 51.82984 | 8.10724 | 32° | 7km/h | 24757m | -26.1m/s | -51.6°C | 3.8% | 28hPa | 2.6V | 08:25:55 | 02:20:32 | 00:00:00 | |
| BIOWL1-15 | 2026-08-31 12:38:32 | 51.82992 | 8.10736 | 66° | 7km/h | 24628m | -22.3m/s | -51.8°C | 0.5% | 28.5hPa | 2.6V | 08:26:12 | 02:20:37 | 00:00:00 | |
| DL1XH-west | 2026-08-31 12:38:31 | 51.82989 | 8.10730 | 36° | 9km/h | 24677m | -24.5m/s | -51.6°C | 0.4% | 28.3hPa | 2.5V | 08:26:12 | 02:20:35 | 00:00:00 | |
| DF8AY | 2026-08-31 12:38:30 | 51.82978 | 8.10726 | 279° | 7km/h | 24878m | -22.7m/s | 0°C | 0% | 0hPa | 2.6V | 08:26:12 | 02:20:27 | 00:00:00 | |
| HSKMA3-T | 2026-08-31 12:38:30 | 51.82986 | 8.10726 | 38° | 9km/h | 24730m | -27.8m/s | -51.7°C | 0.5% | 28.1hPa | 2.5V | 08:26:12 | 02:20:33 | 00:00:00 | |
| DD1CC1-15 | 2026-08-31 12:38:29 | 51.82989 | 8.10730 | 37° | 9km/h | 24678m | -24.5m/s | -51.6°C | 1.0% | 28.3hPa | 2.6V | 08:26:00 | 00:00:00 | 00:00:00 | |
| DJ8HS-15 | 2026-08-31 12:38:28 | 51.82986 | 8.10726 | 38° | 16km/h | 24730m | -27.8m/s | -51.6°C | 3.8% | 28.1hPa | 2.6V | 00:00:00 | 02:20:33 | 00:00:00 | |
| DD8BA-10 | 2026-08-31 12:38:27 | 51.82984 | 8.10724 | 33° | 9km/h | 24757m | -26.0m/s | -51.6°C | 3.8% | 28.0hPa | 2.6V | 08:25:00 | 00:00:00 | 00:00:00 | |
| DL1XH1-15 | 2026-08-31 12:38:26 | 51.82978 | 8.10730 | 273° | 9km/h | 24900m | -21.2m/s | -50.8°C | 3.6% | 27.4hPa | 2.6V | 08:26:01 | 02:20:26 | 00:00:00 | |
| AA1-15 | 2026-08-31 12:38:26 | 51.82982 | 8.10723 | 21° | 7km/h | 24782m | -24.3m/s | -51.5°C | 0.5% | 27.9hPa | 2.6V | 08:26:12 | 02:20:31 | 00:00:00 | |
| DB0UT-7 | 2026-08-31 12:38:26 | 51.82982 | 8.10723 | 22° | 16km/h | 24783m | -24.3m/s | -51.5°C | 3.8% | 27.9hPa | 2.6V | 00:00:00 | 02:20:31 | 00:00:00 | |
| DL1NUX | 2026-08-31 12:38:25 | 51.82978 | 8.10734 | 283° | 13km/h | 24922m | -22.9m/s | -50.6°C | 3.6% | 27.3hPa | 2.5V | 08:26:02 | 02:20:25 | 00:00:00 | |
| DB0DAN | 2026-08-31 12:38:25 | 51.82981 | 8.10722 | 5° | 5km/h | 24806m | -22.6m/s | -51.5°C | 1% | 27.79hPa | 2.6V | 00:00:00 | 00:00:00 | 00:00:00 | |
| DO2JMG | 2026-08-31 12:38:23 | 51.82979 | 8.10724 | 292° | 5km/h | 24855m | -23.3m/s | -51.3°C | 0.5% | 27.6hPa | 2.5V | 08:26:12 | 02:20:28 | 00:00:00 | |
| DL1XH-west | 2026-08-31 12:38:20 | 51.82978 | 8.10734 | 284° | 13km/h | 24922m | -22.9m/s | -50.6°C | 0.3% | 27.3hPa | 2.5V | 08:26:12 | 02:20:25 | 00:00:00 | |
| HSKMA3-T | 2026-08-31 12:38:19 | 51.82977 | 8.10740 | 288° | 16km/h | 24945m | -21.5m/s | -50.6°C | 0.3% | 27.2hPa | 2.5V | 08:26:12 | 02:20:24 | 00:00:00 | |
| DO9LL-15 | 2026-08-31 12:38:19 | 51.82977 | 8.10740 | 289° | 16km/h | 24945m | -21.5m/s | -50.5°C | 3.6% | 27.1hPa | 2.5V | 00:00:00 | 02:20:24 | 00:00:00 | |
| DM0DOS-11 | 2026-08-31 12:38:18 | 51.82957 | 8.10784 | 316° | 26km/h | 25072m | -21.7m/s | -50.3°C | 3.5% | 26.6hPa | 2.5V | 08:26:09 | 02:20:18 | 00:00:00 | |
| AA1-15 | 2026-08-31 12:38:16 | 51.82966 | 8.10769 | 307° | 26km/h | 25029m | -22.7m/s | -50.5°C | 0.4% | 26.8hPa | 2.5V | 08:26:12 | 02:20:20 | 00:00:00 | |
| DO2JMG | 2026-08-31 12:38:13 | 51.82958 | 8.10784 | 316° | 26km/h | 25072m | -21.7m/s | -50.3°C | 0.3% | 26.6hPa | 2.5V | 08:26:12 | 02:20:18 | 00:00:00 | |
| DO2LYB-13 | 2026-08-31 12:38:12 | 51.82957 | 8.10784 | 317° | 26km/h | 25072m | -21.7m/s | -50.3°C | 0.9% | 26.6hPa | 2.6V | 08:26:00 | 00:00:00 | 00:00:00 | |
| DL1XH1-15 | 2026-08-31 12:38:12 | 51.82948 | 8.10797 | 322° | 24km/h | 25118m | -23.5m/s | -50.1°C | 3.5% | 26.5hPa | 2.6V | 08:26:11 | 02:20:16 | 00:00:00 | |
| DL1NUX | 2026-08-31 12:38:10 | 51.82944 | 8.10803 | 321° | 22km/h | 25142m | -23.6m/s | -50°C | 3.5% | 26.4hPa | 2.6V | 08:26:12 | 02:20:15 | 00:00:00 | |
| BIOWL1-15 | 2026-08-31 12:38:10 | 51.82944 | 8.10803 | 322° | 22km/h | 25142m | -23.6m/s | -50°C | 0.3% | 26.4hPa | 2.6V | 08:26:12 | 02:20:15 | 00:00:00 | |
| HSKMA3-T | 2026-08-31 12:38:09 | 51.82935 | 8.10811 | 338° | 20km/h | 25187m | -22m/s | -49.9°C | 0.2% | 26.2hPa | 2.5V | 08:27:03 | 02:20:13 | 00:00:00 | |
| DM0DOS-11 | 2026-08-31 12:38:08 | 51.82913 | 8.10812 | 12° | 18km/h | 25314m | -29.8m/s | -49.7°C | 3.3% | 25.8hPa | 2.5V | 08:26:19 | 02:20:08 | 00:00:00 | |
| DF8AY | 2026-08-31 12:38:08 | 51.82913 | 8.10812 | 13° | 18km/h | 25314m | -29.8m/s | 0°C | 0% | 0hPa | 2.5V | 18:12:15 | 02:20:08 | 00:00:00 | |
| DD8BA-10 | 2026-08-31 12:38:07 | 51.82930 | 8.10813 | 344° | 16km/h | 25210m | -22.9m/s | -49.8°C | 3.4% | 26.1hPa | 2.6V | 00:00:00 | 00:00:00 | 00:00:00 | |
| DL1XH1-15 | 2026-08-31 12:38:06 | 51.82904 | 8.10809 | 12° | 18km/h | 25368m | -24.7m/s | -49.9°C | 3.4% | 25.5hPa | 2.6V | 08:26:21 | 02:20:06 | 00:00:00 | |
| AA1-15 | 2026-08-31 12:38:05 | 51.82917 | 8.10813 | 8° | 18km/h | 25284m | -29.5m/s | -49.6°C | 0.2% | 25.9hPa | 2.6V | 08:27:03 | 02:20:09 | 00:00:00 | |
| DO2JMG | 2026-08-31 12:38:02 | 51.82909 | 8.10810 | 13° | 16km/h | 25342m | -26.7m/s | -49.8°C | 0.2% | 25.6hPa | 2.5V | 08:27:03 | 02:20:07 | 00:00:00 | |
| BIOWL1-15 | 2026-08-31 12:38:01 | 51.82896 | 8.10806 | 13° | 15km/h | 25422m | -26.5m/s | -49.9°C | 0.2% | 25.3hPa | 2.6V | 08:27:03 | 02:20:04 | 00:00:00 | |
| DL1XH-west | 2026-08-31 12:38:00 | 51.82900 | 8.10807 | 12° | 16km/h | 25395m | -28.2m/s | -49.9°C | 0.2% | 25.4hPa | 2.6V | 08:27:03 | 02:20:05 | 00:00:00 | |
| DO2SHX-10 | 2026-08-31 12:37:59 | 51.82896 | 8.10806 | 14° | 15km/h | 25422m | -26.4m/s | -49.8°C | 3.4% | 25.2hPa | 2.5V | 00:00:00 | 02:20:04 | 00:00:00 | |
| DM0DOS-11 | 2026-08-31 12:37:57 | 51.82877 | 8.10806 | 341° | 5km/h | 25595m | -23.5m/s | -49.4°C | 3.3% | 24.6hPa | 2.5V | 08:26:30 | 02:19:57 | 00:00:00 | |
| HSKMA3-T | 2026-08-31 12:37:57 | 51.82889 | 8.10804 | 6° | 13km/h | 25473m | -25.2m/s | -49.7°C | 0.2% | 25.1hPa | 2.5V | 08:27:03 | 02:20:02 | 00:00:00 | |
| DL4XJ-10 | 2026-08-31 12:37:57 | 51.82889 | 8.10803 | 6° | 9km/h | 25474m | -25.2m/s | -48.9°C | 0% | 0hPa | 2.5V | 00:00:00 | 00:00:00 | 00:00:00 | |
| DB0UT-7 | 2026-08-31 12:37:56 | 51.82886 | 8.10803 | 357° | 7km/h | 25498m | -24.6m/s | -49.5°C | 3.3% | 24.9hPa | 2.5V | 00:00:00 | 00:00:00 | 00:00:00 | |
| DL1XH1-15 | 2026-08-31 12:37:55 | 51.82875 | 8.10807 | 326° | 5km/h | 25620m | -25.9m/s | -49.4°C | 3.2% | 24.5hPa | 2.5V | 08:26:31 | 02:19:56 | 00:00:00 | |
| AA1-15 | 2026-08-31 12:37:53 | 51.82879 | 8.10805 | 344° | 9km/h | 25572m | -23.1m/s | -49.4°C | 0.1% | 24.7hPa | 2.6V | 08:27:03 | 02:19:58 | 00:00:00 | |
| DO2SHX-10 | 2026-08-31 12:37:53 | 51.82879 | 8.10805 | 344° | 7km/h | 25572m | -23.0m/s | -49.3°C | 3.2% | 24.7hPa | 2.6V | 00:00:00 | 02:19:58 | 00:00:00 | |
| DL1XH-15 | 2026-08-31 12:37:52 | 51.82867 | 8.10814 | 342° | 11km/h | 25741m | -25.9m/s | -49.6°C | 3.3% | 24hPa | 2.5V | 08:26:36 | 02:19:51 | 00:00:00 | |
| DF8AY | 2026-08-31 12:37:52 | 51.82873 | 8.10810 | 335° | 7km/h | 25670m | -23.3m/s | 0°C | 0% | 0hPa | 2.6V | 18:12:15 | 02:19:54 | 00:00:00 | |
| DO2JMG | 2026-08-31 12:37:52 | 51.82877 | 8.10806 | 342° | 5km/h | 25595m | -23.5m/s | -49.4°C | 0.2% | 24.6hPa | 2.5V | 08:27:03 | 02:19:57 | 00:00:00 | |
| BIOWL9-15 | 2026-08-31 12:37:52 | 51.82876 | 8.10807 | 326° | 5km/h | 25620m | -25.9m/s | -49.4°C | 0.8% | 24.5hPa | 2.5V | 00:00:00 | 00:00:00 | 00:00:00 | |
| DJ2DS-15 | 2026-08-31 12:37:51 | 51.82876 | 8.10807 | 326° | 5km/h | 25620m | -25.9m/s | -49.4°C | 0.8% | 24.5hPa | 2.5V | 00:00:00 | 00:00:00 | 00:00:00 | |
| DL1NUX | 2026-08-31 12:37:50 | 51.82874 | 8.10808 | 324° | 7km/h | 25645m | -25.4m/s | -49.4°C | 3.3% | 24.4hPa | 2.5V | 08:26:32 | 02:19:55 | 00:00:00 | |
| DL1XH-west | 2026-08-31 12:37:50 | 51.82874 | 8.10808 | 325° | 7km/h | 25645m | -25.4m/s | -49.4°C | 0.2% | 24.4hPa | 2.5V | 08:27:03 | 02:19:55 | 00:00:00 | |
| BIOWL1-15 | 2026-08-31 12:37:49 | 51.82864 | 8.10816 | 345° | 11km/h | 25765m | -22.2m/s | -49.6°C | 0.2% | 24hPa | 2.5V | 08:27:03 | 02:19:50 | 00:00:00 | |
| HSKMA3-T | 2026-08-31 12:37:47 | 51.82869 | 8.10813 | 335° | 11km/h | 25716m | -24.5m/s | -49.5°C | 0.1% | 24.1hPa | 2.6V | 08:27:03 | 02:19:52 | 00:00:00 | |
| DD8BA-10 | 2026-08-31 12:37:47 | 51.82869 | 8.10813 | 336° | 7km/h | 25717m | -24.4m/s | -49.4°C | 3.3% | 24.1hPa | 2.5V | 00:00:00 | 00:00:00 | 00:00:00 | |
| DL8OAI-8 | 2026-08-31 12:37:46 | 51.82869 | 8.10813 | 336° | 11km/h | 25717m | -24.5m/s | -49.5°C | 0.8% | 24.1hPa | 2.5V | 08:27:00 | 00:00:00 | 00:00:00 | |
| DM0DOS-11 | 2026-08-31 12:37:45 | 51.82857 | 8.10818 | 358° | 7km/h | 25830m | -24m/s | -49.5°C | 3.3% | 23.7hPa | 2.5V | 08:26:40 | 02:19:47 | 00:00:00 | |
| DL1NUX | 2026-08-31 12:37:45 | 51.82854 | 8.10817 | 37° | 5km/h | 25876m | -23.1m/s | -49.5°C | 3.3% | 23.6hPa | 2.6V | 08:26:42 | 02:19:45 | 00:00:00 | |
| DL1XH1-15 | 2026-08-31 12:37:45 | 51.82855 | 8.10818 | 15° | 5km/h | 25853m | -22.5m/s | -49.5°C | 3.3% | 23.6hPa | 2.5V | 08:26:41 | 02:19:46 | 00:00:00 | |
| AA1-15 | 2026-08-31 12:37:42 | 51.82857 | 8.10818 | 358° | 7km/h | 25830m | -24m/s | -49.5°C | 0.2% | 23.7hPa | 2.5V | 08:27:03 | 02:19:47 | 00:00:00 | |
| DO2SHX-10 | 2026-08-31 12:37:42 | 51.82857 | 8.10818 | 359° | 7km/h | 25830m | -23.9m/s | -49.5°C | 3.3% | 23.7hPa | 2.5V | 00:00:00 | 02:19:47 | 00:00:00 | |
| DL1XH-15 | 2026-08-31 12:37:41 | 51.82857 | 8.10812 | 178° | 7km/h | 25974m | -23.8m/s | -49.6°C | 3.3% | 23.2hPa | 2.5V | 08:26:46 | 02:19:41 | 00:00:00 | |
| DF8AY | 2026-08-31 12:37:41 | 51.82854 | 8.10817 | 38° | 5km/h | 25876m | -23.1m/s | 0°C | 0% | 0hPa | 2.6V | 18:12:15 | 02:19:45 | 00:00:00 | |
| DO2JMG | 2026-08-31 12:37:41 | 51.82855 | 8.10818 | 16° | 5km/h | 25853m | -22.5m/s | -49.5°C | 0.1% | 23.7hPa | 2.5V | 08:27:03 | 02:19:46 | 00:00:00 | |
| DL1XH-west | 2026-08-31 12:37:39 | 51.82854 | 8.10815 | 109° | 4km/h | 25901m | -25.5m/s | -49.5°C | 0.1% | 23.5hPa | 2.6V | 08:27:03 | 02:19:44 | 00:00:00 | |
| HSKMA3-T | 2026-08-31 12:37:36 | 51.82861 | 8.10813 | 195° | 9km/h | 26023m | -22.4m/s | -49.8°C | 0.2% | 23hPa | 2.6V | 08:27:03 | 02:19:39 | 00:00:00 | |
| DL1NUX | 2026-08-31 12:37:36 | 51.82868 | 8.10820 | 222° | 5km/h | 26113m | -22.6m/s | -49.7°C | 3.4% | 22.7hPa | 2.5V | 08:26:52 | 02:19:35 | 00:00:00 | |
| BIOWL1-15 | 2026-08-31 12:37:35 | 51.82869 | 8.10821 | 213° | 5km/h | 26135m | -21.4m/s | -49.7°C | 0.1% | 22.6hPa | 2.6V | 08:27:03 | 02:19:34 | 00:00:00 | |
| DJ2DS-15 | 2026-08-31 12:37:35 | 51.82858 | 8.10812 | 189° | 13km/h | 25999m | -24.5m/s | -49.7°C | 3.4% | 23.1hPa | 2.5V | 08:26:00 | 02:19:40 | 00:00:00 | |
| DO3MHA-11 | 2026-08-31 12:37:34 | 51.82861 | 8.10813 | 195° | 9km/h | 26023m | -22.4m/s | -49.7°C | 3.4% | 23.0hPa | 2.6V | 00:00:00 | 02:19:39 | 00:00:00 | |
| DO2SHX-10 | 2026-08-31 12:37:33 | 51.82865 | 8.10816 | 215° | 7km/h | 26070m | -22.7m/s | -49.8°C | 3.5% | 22.8hPa | 2.5V | 00:00:00 | 02:19:37 | 00:00:00 | |
| DL1XH-15 | 2026-08-31 12:37:31 | 51.82875 | 8.10826 | 212° | 11km/h | 26197m | -20.7m/s | -49.7°C | 3.5% | 22.4hPa | 2.5V | 08:26:56 | 02:19:31 | 00:00:00 | |
| DO2JMG | 2026-08-31 12:37:31 | 51.82867 | 8.10818 | 219° | 7km/h | 26091m | -20.8m/s | -49.8°C | 0.2% | 22.8hPa | 2.5V | 08:27:03 | 02:19:36 | 00:00:00 | |
| DF8AY | 2026-08-31 12:37:31 | 51.82868 | 8.10820 | 222° | 5km/h | 26113m | -22.6m/s | 0°C | 0% | 0hPa | 2.5V | 18:12:15 | 02:19:35 | 00:00:00 | |
| DL1XH-west | 2026-08-31 12:37:28 | 51.82871 | 8.10823 | 209° | 7km/h | 26156m | -20.6m/s | -49.7°C | 0.3% | 22.6hPa | 2.6V | 08:27:03 | 02:19:33 | 00:00:00 | |
| HSKMA3-T | 2026-08-31 12:37:24 | 51.82880 | 8.10833 | 222° | 15km/h | 26241m | -21.5m/s | -49.4°C | 0.2% | 22.3hPa | 2.6V | 08:27:03 | 02:19:29 | 00:00:00 | |
| DO3MHA-11 | 2026-08-31 12:37:24 | 51.82880 | 8.10833 | 223° | 18km/h | 26242m | -21.5m/s | -49.4°C | 3.4% | 22.2hPa | 2.5V | 00:00:00 | 02:19:29 | 00:00:00 | |
| SMARD9-10 | 2026-08-31 12:37:23 | 51.82880 | 8.10833 | 223° | 15km/h | 26242m | -21.5m/s | -49.4°C | 0.8% | 22.3hPa | 2.5V | 08:27:00 | 00:00:00 | 00:00:00 | |
| DL1XH1-15 | 2026-08-31 12:37:22 | 51.82887 | 8.10850 | 246° | 18km/h | 26307m | -21.7m/s | -49°C | 3.3% | 22hPa | 2.5V | 08:27:01 | 02:19:26 | 00:00:00 | |
| BIOWL1-15 | 2026-08-31 12:37:22 | 51.82885 | 8.10882 | 308° | 18km/h | 26422m | -22m/s | -48.7°C | 0.1% | 21.7hPa | 2.5V | 08:27:54 | 02:19:21 | 00:00:00 | |
| DO2JMG | 2026-08-31 12:37:20 | 51.82889 | 8.10857 | 255° | 18km/h | 26329m | -22.6m/s | -48.9°C | 0.2% | 22hPa | 2.5V | 08:27:03 | 02:19:25 | 00:00:00 | |
| DF8AY | 2026-08-31 12:37:19 | 51.82887 | 8.10877 | 297° | 16km/h | 26400m | -22.4m/s | 0°C | 0% | 0hPa | 2.6V | 18:12:15 | 02:19:22 | 00:00:00 | |
| DL1XH-west | 2026-08-31 12:37:18 | 51.82889 | 8.10870 | 287° | 16km/h | 26376m | -23.4m/s | -48.8°C | 0.1% | 21.8hPa | 2.6V | 08:27:54 | 02:19:23 | 00:00:00 | |
| DB0NH | 2026-08-31 12:37:18 | 51.82889 | 8.10870 | 287° | 15km/h | 26377m | -23.4m/s | -48.7°C | 3.2% | 21.8hPa | 2.6V | 00:00:00 | 02:19:23 | 00:00:00 | |
| GOEST3-10 | 2026-08-31 12:37:17 | 51.82887 | 8.10877 | 298° | 18km/h | 26400m | -22.3m/s | -48.7°C | 3.2% | 21.7hPa | 2.6V | 00:00:00 | 02:19:22 | 00:00:00 | |
| DL1NUX | 2026-08-31 12:37:15 | 51.82861 | 8.10911 | 325° | 18km/h | 26562m | -24.6m/s | -48.9°C | 3.1% | 21.2hPa | 2.6V | 08:27:12 | 02:19:15 | 00:00:00 | |
| HSKMA3-T | 2026-08-31 12:37:14 | 51.82878 | 8.10894 | 322° | 20km/h | 26465m | -21.9m/s | -48.7°C | 0% | 21.5hPa | 2.6V | 08:27:54 | 02:19:19 | 00:00:00 | |
| BIOWL1-15 | 2026-08-31 12:37:14 | 51.82869 | 8.10903 | 330° | 20km/h | 26513m | -23.7m/s | -48.8°C | 0% | 21.4hPa | 2.5V | 08:27:54 | 02:19:17 | 00:00:00 | |
| DO2SHX-10 | 2026-08-31 12:37:14 | 51.82878 | 8.10894 | 322° | 20km/h | 26465m | -21.9m/s | -48.6°C | 3.1% | 21.5hPa | 2.5V | 00:00:00 | 02:19:19 | 00:00:00 | |
| DL1XH1-15 | 2026-08-31 12:37:12 | 51.82865 | 8.10907 | 330° | 20km/h | 26537m | -24.6m/s | -48.9°C | 3.2% | 21.3hPa | 2.5V | 08:27:11 | 02:19:16 | 00:00:00 | |
| DO2JMG | 2026-08-31 12:37:10 | 51.82861 | 8.10911 | 326° | 18km/h | 26562m | -24.7m/s | -48.9°C | 0% | 21.2hPa | 2.6V | 08:27:54 | 02:19:15 | 00:00:00 | |
| AA1-15 | 2026-08-31 12:37:09 | 51.82857 | 8.10916 | 323° | 18km/h | 26587m | -25.8m/s | -49°C | 0.1% | 21.1hPa | 2.6V | 08:27:54 | 02:19:14 | 00:00:00 | |
| DL1XH-west | 2026-08-31 12:37:08 | 51.82850 | 8.10924 | 323° | 16km/h | 26633m | -21.3m/s | -49.2°C | 0.1% | 20.9hPa | 2.5V | 08:27:54 | 02:19:12 | 00:00:00 | |
| DM0DOS-11 | 2026-08-31 12:37:07 | 51.82835 | 8.10943 | 319° | 13km/h | 26756m | -26.2m/s | -49.1°C | 3.3% | 20.6hPa | 2.6V | 08:27:20 | 02:19:07 | 00:00:00 | |
| DF8AY | 2026-08-31 12:37:07 | 51.82843 | 8.10932 | 322° | 15km/h | 26679m | -24.3m/s | 0°C | 0% | 0hPa | 2.5V | 18:12:15 | 02:19:10 | 00:00:00 | |
| HSKMA3-T | 2026-08-31 12:37:03 | 51.82838 | 8.10939 | 319° | 15km/h | 26730m | -26.4m/s | -49.1°C | 0.2% | 20.7hPa | 2.6V | 08:27:54 | 02:19:08 | 00:00:00 | |
| DO3MHA-11 | 2026-08-31 12:37:03 | 51.82838 | 8.10939 | 319° | 11km/h | 26730m | -26.3m/s | -49.1°C | 3.3% | 20.6hPa | 2.6V | 00:00:00 | 02:19:08 | 08:30:00 | |
| GOEST3-10 | 2026-08-31 12:37:02 | 51.82835 | 8.10943 | 320° | 11km/h | 26757m | -26.1m/s | -49.1°C | 3.3% | 20.5hPa | 2.5V | 00:00:00 | 00:00:00 | 00:00:00 | |
| DL1XH-15 | 2026-08-31 12:37:01 | 51.82821 | 8.10952 | 17° | 9km/h | 26899m | -23.2m/s | -49°C | 3.3% | 20.1hPa | 2.5V | 08:27:26 | 02:19:01 | 00:00:00 | |
| BIOWL1-15 | 2026-08-31 12:37:01 | 51.82833 | 8.10946 | 322° | 13km/h | 26782m | -25.2m/s | -49.1°C | 0.2% | 20.5hPa | 2.5V | 08:27:54 | 02:19:06 | 00:00:00 | |
| DL1NUX | 2026-08-31 12:37:01 | 51.82830 | 8.10949 | 325° | 11km/h | 26806m | -24m/s | -49°C | 3.3% | 20.4hPa | 2.5V | 08:27:22 | 02:19:05 | 00:00:00 | |
| AA1-15 | 2026-08-31 12:36:59 | 51.82828 | 8.10951 | 335° | 11km/h | 26830m | -23m/s | -48.9°C | 0.2% | 20.3hPa | 2.6V | 08:27:54 | 02:19:04 | 00:00:00 | |
| DL1XH-west | 2026-08-31 12:36:57 | 51.82823 | 8.10952 | 4° | 7km/h | 26876m | -22.7m/s | -48.9°C | 0.1% | 20.2hPa | 2.5V | 08:27:54 | 02:19:02 | 00:00:00 | |
| DD8BA-10 | 2026-08-31 12:36:57 | 51.82823 | 8.10952 | 4° | 9km/h | 26876m | -22.7m/s | -48.9°C | 3.3% | 20.1hPa | 2.5V | 08:27:00 | 00:00:00 | 00:00:00 | |
| DB0UT-7 | 2026-08-31 12:36:56 | 51.82821 | 8.10952 | 18° | 15km/h | 26899m | -23.1m/s | -49.0°C | 3.3% | 20.1hPa | 2.5V | 00:00:00 | 00:00:00 | 00:00:00 | |
| DL1XH1-15 | 2026-08-31 12:36:55 | 51.82810 | 8.10940 | 20° | 7km/h | 27025m | -27.3m/s | -49.2°C | 3.3% | 19.8hPa | 2.5V | 08:27:31 | 02:18:56 | 00:00:00 | |
| DM0DOS-11 | 2026-08-31 12:36:55 | 51.82812 | 8.10942 | 38° | 11km/h | 26998m | -25.7m/s | -49.3°C | 3.4% | 19.8hPa | 2.5V | 08:27:30 | 02:18:57 | 00:00:00 | |
| HSKMA3-T | 2026-08-31 12:36:53 | 51.82815 | 8.10945 | 36° | 13km/h | 26973m | -24.5m/s | -49.3°C | 0.2% | 19.9hPa | 2.6V | 08:27:54 | 02:18:58 | 00:00:00 | |
| BIOWL1-15 | 2026-08-31 12:36:53 | 51.82810 | 8.10940 | 20° | 7km/h | 27025m | -27.3m/s | -49.2°C | 0.2% | 19.8hPa | 2.5V | 08:27:54 | 02:18:56 | 00:00:00 | |
| DO2JMG | 2026-08-31 12:36:48 | 51.82805 | 8.10941 | 314° | 7km/h | 27105m | -25m/s | -49°C | 0.2% | 19.5hPa | 2.6V | 08:27:54 | 02:18:53 | 00:00:00 | |
| DL1XH-15 | 2026-08-31 12:36:47 | 51.82803 | 8.10948 | 288° | 11km/h | 27156m | -25.6m/s | -48.8°C | 3.3% | 19.3hPa | 2.5V | 08:27:36 | 02:18:51 | 00:00:00 | |
| DL1XH-west | 2026-08-31 12:36:46 | 51.82803 | 8.10948 | 288° | 11km/h | 27156m | -25.6m/s | -48.8°C | 0.2% | 19.3hPa | 2.5V | 08:27:54 | 02:18:51 | 00:00:00 | |
| GOEST3-10 | 2026-08-31 12:36:46 | 51.82803 | 8.10947 | 289° | 15km/h | 27156m | -25.6m/s | -48.7°C | 3.3% | 19.3hPa | 2.5V | 00:00:00 | 02:18:51 | 00:00:00 | |
| DL1XH1-15 | 2026-08-31 12:36:45 | 51.82796 | 8.10976 | 309° | 18km/h | 27286m | -26.4m/s | -48.5°C | 3.3% | 19hPa | 2.5V | 08:27:41 | 02:18:46 | 00:00:00 | |
| HSKMA3-T | 2026-08-31 12:36:43 | 51.82800 | 8.10964 | 289° | 16km/h | 27234m | -26.7m/s | -48.5°C | 0.1% | 19.1hPa | 2.6V | 08:27:54 | 02:18:48 | 00:00:00 | |
| BIOWL1-15 | 2026-08-31 12:36:41 | 51.82792 | 8.10982 | 316° | 18km/h | 27312m | -25.4m/s | -48.4°C | 0.1% | 18.9hPa | 2.6V | 08:27:54 | 02:18:45 | 00:00:00 | |
| DL1NUX | 2026-08-31 12:36:40 | 51.82792 | 8.10982 | 316° | 18km/h | 27312m | -25.4m/s | -48.4°C | 3.2% | 18.9hPa | 2.6V | 08:27:42 | 02:18:45 | 00:00:00 | |
| DL1XH-15 | 2026-08-31 12:36:39 | 51.82774 | 8.10998 | 340° | 22km/h | 27411m | -25.1m/s | -48.6°C | 3.3% | 18.6hPa | 2.5V | 08:27:46 | 02:18:41 | 00:00:00 | |
| DO2JMG | 2026-08-31 12:36:38 | 51.82784 | 8.10991 | 328° | 20km/h | 27362m | -24.1m/s | -48.4°C | 0.1% | 18.7hPa | 2.6V | 08:27:54 | 02:18:43 | 00:00:00 | |
| DL1XH-west | 2026-08-31 12:36:35 | 51.82768 | 8.11000 | 349° | 24km/h | 27437m | -27.7m/s | -48.8°C | 0.2% | 18.6hPa | 2.5V | 08:27:54 | 02:18:40 | 00:00:00 | |
| DL1NUX | 2026-08-31 12:36:35 | 51.82744 | 8.11003 | 347° | 7km/h | 27610m | -28m/s | -48.6°C | 3.4% | 18.1hPa | 2.6V | 08:27:53 | 02:18:34 | 00:00:00 | |
| HSKMA3-T | 2026-08-31 12:36:32 | 51.82753 | 8.11003 | 0° | 16km/h | 27523m | -29.2m/s | -48.7°C | 0.3% | 18.3hPa | 2.6V | 08:27:54 | 02:18:37 | 00:00:00 | |
| BIOWL1-15 | 2026-08-31 12:36:31 | 51.82712 | 8.10999 | 16° | 7km/h | 27922m | -24.8m/s | -47.2°C | 0% | 17.2hPa | 2.6V | 08:28:45 | 02:18:23 | 00:00:00 | |
| AA1-15 | 2026-08-31 12:36:27 | 51.82739 | 8.11004 | 354° | 11km/h | 27667m | -30.3m/s | -48.2°C | 0.2% | 17.9hPa | 2.5V | 08:28:45 | 02:18:32 | 00:00:00 | |
| DD8BA-10 | 2026-08-31 12:36:27 | 51.82739 | 8.11004 | 354° | 11km/h | 27667m | -30.2m/s | -48.2°C | 3.3% | 17.9hPa | 2.5V | 00:00:00 | 00:00:00 | 00:00:00 | |
| DO2SHX-10 | 2026-08-31 12:36:26 | 51.82736 | 8.11004 | 12° | 9km/h | 27698m | -32.5m/s | -47.9°C | 3.2% | 17.8hPa | 2.5V | 00:00:00 | 02:18:31 | 00:00:00 | |
| DM0DOS-11 | 2026-08-31 12:36:25 | 51.82724 | 8.11003 | 10° | 15km/h | 27821m | -26.8m/s | -47.2°C | 3% | 17.5hPa | 2.5V | 08:28:00 | 02:18:27 | 00:00:00 | |
| DL1XH-west | 2026-08-31 12:36:24 | 51.82731 | 8.11004 | 0° | 15km/h | 27763m | -31.7m/s | -47.4°C | 0% | 17.6hPa | 2.6V | 08:28:45 | 02:18:29 | 00:00:00 | |
| HSKMA3-T | 2026-08-31 12:36:22 | 51.82724 | 8.11003 | 11° | 15km/h | 27821m | -26.8m/s | -47.2°C | 0% | 17.5hPa | 2.5V | 08:28:45 | 02:18:27 | 00:00:00 | |
| DL1XH-15 | 2026-08-31 12:36:21 | 51.82708 | 8.10998 | 3° | 5km/h | 27974m | -27.1m/s | -47.3°C | 2.9% | 17.1hPa | 2.5V | 08:28:06 | 02:18:21 | 00:00:00 | |
| DO2JMG | 2026-08-31 12:36:17 | 51.82710 | 8.10998 | 2° | 9km/h | 27947m | -27.5m/s | -47.3°C | 0% | 17.1hPa | 2.6V | 08:28:45 | 02:18:22 | 00:00:00 | |
| AA1-15 | 2026-08-31 12:36:17 | 51.82708 | 8.10998 | 4° | 5km/h | 27975m | -27.1m/s | -47.3°C | 0% | 17.1hPa | 2.5V | 08:28:45 | 02:18:21 | 00:00:00 | |
| GOEST3-10 | 2026-08-31 12:36:16 | 51.82708 | 8.10998 | 4° | 7km/h | 27975m | -27.1m/s | -47.3°C | 2.9% | 17.0hPa | 2.5V | 00:00:00 | 02:18:21 | 00:00:00 | |
| DJ2DS-15 | 2026-08-31 12:36:15 | 51.82707 | 8.10998 | 338° | 22km/h | 28002m | -27.7m/s | -47.3°C | 3.0% | 17.0hPa | 2.5V | 00:00:00 | 02:18:20 | 00:00:00 | |
| DL1XH1-15 | 2026-08-31 12:36:14 | 51.82701 | 8.11007 | 308° | 13km/h | 28105m | -23.1m/s | -47.5°C | 3.1% | 16.7hPa | 2.5V | 08:28:11 | 02:18:16 | 00:00:00 | |
| DL1XH-west | 2026-08-31 12:36:13 | 51.82705 | 8.11002 | 300° | 7km/h | 28055m | -25.4m/s | -47.4°C | 0% | 16.9hPa | 2.6V | 08:28:45 | 02:18:18 | 00:00:00 | |
| HSKMA3-T | 2026-08-31 12:36:12 | 51.82702 | 8.11007 | 309° | 13km/h | 28105m | -23.2m/s | -47.5°C | 0% | 16.7hPa | 2.5V | 08:28:45 | 02:18:16 | 00:00:00 | |
| DL1XH-15 | 2026-08-31 12:36:11 | 51.82678 | 8.11031 | 337° | 31km/h | 28217m | -21.2m/s | -47.8°C | 3.2% | 16.4hPa | 2.5V | 08:28:16 | 02:18:11 | 00:00:00 | |
| DO2SHX-10 | 2026-08-31 12:36:11 | 51.82701 | 8.11007 | 309° | 16km/h | 28105m | -23.1m/s | -47.4°C | 3.1% | 16.7hPa | 2.5V | 00:00:00 | 02:18:16 | 00:00:00 | |
| DO2SHX-10 | 2026-08-31 12:36:08 | 51.82690 | 8.11021 | 330° | 29km/h | 28173m | -22.5m/s | -47.6°C | 3.1% | 16.5hPa | 2.6V | 00:00:00 | 02:18:13 | 00:00:00 | |
| DM0DOS-11 | 2026-08-31 12:36:07 | 51.82648 | 8.11045 | 354° | 27km/h | 28308m | -25.1m/s | -47.7°C | 3.2% | 16.2hPa | 2.6V | 08:28:20 | 02:18:07 | 00:00:00 | |
| DO2JMG | 2026-08-31 12:36:06 | 51.82678 | 8.11031 | 338° | 31km/h | 28217m | -21.2m/s | -47.8°C | 0.2% | 16.4hPa | 2.5V | 08:28:45 | 02:18:11 | 00:00:00 | |
| DL4BBY-15 | 2026-08-31 12:36:06 | 51.82678 | 8.11032 | 338° | 18km/h | 28217m | -21.2m/s | -47.0°C | 0% | 0hPa | 2.5V | 00:00:00 | 00:00:00 | 00:00:00 | |
| DL1NUX | 2026-08-31 12:36:05 | 51.82634 | 8.11043 | 14° | 24km/h | 28358m | -24.6m/s | -47.7°C | 3.2% | 16.1hPa | 2.5V | 08:28:22 | 02:18:05 | 00:00:00 | |
| AA1-15 | 2026-08-31 12:36:05 | 51.82670 | 8.11036 | 338° | 33km/h | 28239m | -22.5m/s | -47.8°C | 0.1% | 16.4hPa | 2.5V | 08:28:45 | 02:18:10 | 00:00:00 | |
| DL1XH-west | 2026-08-31 12:36:03 | 51.82655 | 8.11043 | 351° | 29km/h | 28283m | -24.5m/s | -47.8°C | 0.1% | 16.3hPa | 2.6V | 08:28:45 | 02:18:08 | 00:00:00 | |
| DL1XH1-15 | 2026-08-31 12:36:03 | 51.82641 | 8.11045 | 6° | 27km/h | 28333m | -26.1m/s | -47.7°C | 3.2% | 16.2hPa | 2.5V | 08:28:21 | 02:18:06 | 00:00:00 | |
| HSKMA3-T | 2026-08-31 12:36:01 | 51.82634 | 8.11043 | 14° | 24km/h | 28359m | -24.7m/s | -47.7°C | 0.1% | 16.1hPa | 2.5V | 08:28:45 | 02:18:05 | 00:00:00 | |
| BIOWL1-15 | 2026-08-31 12:35:57 | 51.82618 | 8.11034 | 22° | 22km/h | 28436m | -25.4m/s | -47.5°C | 0.1% | 15.9hPa | 2.5V | 08:28:45 | 02:18:02 | 00:00:00 | |
| DD8BA-10 | 2026-08-31 12:35:57 | 51.82618 | 8.11034 | 23° | 20km/h | 28436m | -25.3m/s | -47.5°C | 3.2% | 15.9hPa | 2.5V | 00:00:00 | 00:00:00 | 00:00:00 | |
| DL1NUX | 2026-08-31 12:35:56 | 51.82585 | 8.11011 | 34° | 18km/h | 28628m | -26.9m/s | -47.3°C | 3.2% | 15.4hPa | 2.5V | 08:28:32 | 02:17:55 | 00:00:00 | |
| DM0DOS-11 | 2026-08-31 12:35:55 | 51.82594 | 8.11018 | 21° | 20km/h | 28575m | -28.1m/s | -47.4°C | 3.2% | 15.6hPa | 2.5V | 08:28:30 | 02:17:57 | 00:00:00 | |
| DO2JMG | 2026-08-31 12:35:55 | 51.82608 | 8.11027 | 17° | 22km/h | 28492m | -29.4m/s | -47.5°C | 0.1% | 15.8hPa | 2.6V | 08:28:45 | 02:18:00 | 00:00:00 | |
| AA1-15 | 2026-08-31 12:35:54 | 51.82603 | 8.11024 | 20° | 18km/h | 28521m | -27.3m/s | -47.6°C | 0.1% | 15.7hPa | 2.6V | 08:28:45 | 02:17:59 | 00:00:00 | |
| DL1XH-west | 2026-08-31 12:35:52 | 51.82594 | 8.11018 | 22° | 20km/h | 28575m | -28.1m/s | -47.4°C | 0.1% | 15.6hPa | 2.5V | 08:28:45 | 02:17:57 | 00:00:00 | |
| DL1XH1-15 | 2026-08-31 12:35:51 | 51.82589 | 8.11015 | 29° | 18km/h | 28602m | -25.3m/s | -47.4°C | 3.2% | 15.5hPa | 2.5V | 08:28:31 | 02:17:56 | 00:00:00 | |
| HSKMA3-T | 2026-08-31 12:35:49 | 51.82582 | 8.11006 | 53° | 16km/h | 28655m | -26.5m/s | -47.3°C | 0.1% | 15.4hPa | 2.6V | 08:28:45 | 02:17:54 | 00:00:00 | |
| DO9LL-15 | 2026-08-31 12:35:49 | 51.82582 | 8.11006 | 53° | 16km/h | 28655m | -26.5m/s | -47.2°C | 3.2% | 15.3hPa | 2.5V | 00:00:00 | 02:17:54 | 00:00:00 | |
| DJ8HS-15 | 2026-08-31 12:35:48 | 51.82580 | 8.11001 | 52° | 11km/h | 28681m | -24.7m/s | -47.1°C | 3.2% | 15.3hPa | 2.5V | 00:00:00 | 02:17:53 | 00:00:00 | |
| DD8BA-10 | 2026-08-31 12:35:47 | 51.82578 | 8.10996 | 71° | 7km/h | 28706m | -26.7m/s | -46.9°C | 3.2% | 15.2hPa | 2.5V | 00:00:00 | 00:00:00 | 00:00:00 | |
| DL1XH1-15 | 2026-08-31 12:35:46 | 51.82574 | 8.10973 | 67° | 5km/h | 28864m | -27.5m/s | -46.2°C | 3% | 14.9hPa | 2.5V | 08:28:41 | 02:17:46 | 00:00:00 | |
| DO1YAY-16 | 2026-08-31 12:35:45 | 51.82576 | 8.10986 | 82° | 13km/h | 28758m | -26.4m/s | -46.6°C | 0.7% | 15.1hPa | 2.5V | 00:00:00 | 00:00:00 | 00:00:00 | |
| DM0DOS-11 | 2026-08-31 12:35:44 | 51.82574 | 8.10975 | 88° | 5km/h | 28838m | -25.7m/s | -46.4°C | 3% | 15hPa | 2.5V | 08:28:40 | 02:17:47 | 00:00:00 | |
| DO2JMG | 2026-08-31 12:35:44 | 51.82575 | 8.10981 | 85° | 9km/h | 28785m | -27.3m/s | -46.5°C | 0% | 15.1hPa | 2.6V | 08:28:45 | 02:17:49 | 00:00:00 | |
| AA1-15 | 2026-08-31 12:35:44 | 51.82575 | 8.10978 | 81° | 9km/h | 28812m | -26.4m/s | -46.4°C | 0% | 15hPa | 2.6V | 08:28:45 | 02:17:48 | 00:00:00 | |
| DL8OAI-8 | 2026-08-31 12:35:43 | 51.82575 | 8.10978 | 82° | 9km/h | 28812m | -26.4m/s | -46.4°C | 0.8% | 15.0hPa | 2.6V | 08:28:00 | 00:00:00 | 00:00:00 | |
| DL1NUX | 2026-08-31 12:35:42 | 51.82574 | 8.10972 | 20° | 2km/h | 28893m | -30.3m/s | -46°C | 2.9% | 14.8hPa | 2.6V | 08:28:42 | 02:17:45 | 00:00:00 | |
| DL1XH-west | 2026-08-31 12:35:42 | 51.82574 | 8.10973 | 67° | 5km/h | 28864m | -27.5m/s | -46.2°C | 0% | 14.9hPa | 2.5V | 08:28:45 | 02:17:46 | 00:00:00 | |
| DL1XH-15 | 2026-08-31 12:35:41 | 51.82569 | 8.10972 | 17° | 7km/h | 29002m | -26.1m/s | -45.8°C | 2.8% | 14.6hPa | 2.5V | 08:28:46 | 02:17:41 | 00:00:00 | |
| HSKMA3-T | 2026-08-31 12:35:39 | 51.82573 | 8.10972 | 6° | 4km/h | 28922m | -28.2m/s | -45.9°C | 0% | 14.8hPa | 2.6V | 08:28:45 | 02:17:44 | 00:00:00 | |
| DD8BA-10 | 2026-08-31 12:35:37 | 51.82571 | 8.10972 | 353° | 15km/h | 28977m | -26.2m/s | -45.7°C | 2.9% | 14.6hPa | 2.5V | 00:00:00 | 00:00:00 | 00:00:00 | |
| DL4BBY-15 | 2026-08-31 12:35:36 | 51.82569 | 8.10972 | 18° | 26km/h | 29002m | -26.1m/s | -45.0°C | 0% | 0hPa | 2.5V | 00:00:00 | 00:00:00 | 00:00:00 | |
| DL1NUX | 2026-08-31 12:35:35 | 51.82549 | 8.10957 | 20° | 22km/h | 29187m | -36.6m/s | -45.7°C | 2.9% | 14.2hPa | 2.5V | 08:28:52 | 02:17:35 | 00:00:00 | |
| DJ2DS-15 | 2026-08-31 12:35:35 | 51.82567 | 8.10971 | 13° | 26km/h | 29029m | -27.5m/s | -45.7°C | 2.8% | 14.5hPa | 2.5V | 00:00:00 | 02:17:40 | 00:00:00 | |
| DL1XH1-15 | 2026-08-31 12:35:34 | 51.82554 | 8.10960 | 26° | 16km/h | 29150m | -35.7m/s | -45.7°C | 2.9% | 14.3hPa | 2.5V | 08:28:51 | 02:17:36 | 00:00:00 | |
| DM0DOS-11 | 2026-08-31 12:35:33 | 51.82558 | 8.10964 | 30° | 18km/h | 29115m | -34m/s | -45.6°C | 2.8% | 14.4hPa | 2.6V | 08:28:50 | 02:17:37 | 00:00:00 | |
| DO2JMG | 2026-08-31 12:35:33 | 51.82561 | 8.10967 | 24° | 15km/h | 29084m | -28.7m/s | -45.6°C | 0% | 14.4hPa | 2.6V | 08:29:36 | 02:17:38 | 00:00:00 | |
| DL1XH-west | 2026-08-31 12:35:31 | 51.82554 | 8.10960 | 27° | 16km/h | 29150m | -35.7m/s | -45.7°C | 0% | 14.3hPa | 2.5V | 08:29:36 | 02:17:36 | 00:00:00 | |
| HSKMA3-T | 2026-08-31 12:35:29 | 51.82544 | 8.10954 | 28° | 22km/h | 29221m | -33.1m/s | -45.6°C | 0% | 14.1hPa | 2.6V | 08:29:36 | 02:17:34 | 00:00:00 | |
| DD1CC1-15 | 2026-08-31 12:35:29 | 51.82549 | 8.10957 | 21° | 22km/h | 29187m | -36.6m/s | -45.7°C | 0.7% | 14.2hPa | 2.5V | 00:00:00 | 00:00:00 | 00:00:00 | |
| DD1CC8 | 2026-08-31 12:35:28 | 51.82528 | 8.10943 | 19° | 26km/h | 29309m | -25.3m/s | -45.6°C | 0.7% | 13.9hPa | 2.5V | 00:00:00 | 00:00:00 | 00:00:00 | |
| DB0UT-7 | 2026-08-31 12:35:27 | 51.82527 | 8.10942 | 20° | 29km/h | 29309m | -25.2m/s | -45.5°C | 2.9% | 13.9hPa | 2.5V | 08:28:00 | 02:17:31 | 00:00:00 | |
| GOEST3-10 | 2026-08-31 12:35:25 | 51.82521 | 8.10938 | 27° | 31km/h | 29334m | -26.1m/s | -45.5°C | 2.9% | 13.8hPa | 2.6V | 00:00:00 | 02:17:30 | 00:00:00 | |
| DL1XH1-15 | 2026-08-31 12:35:24 | 51.82494 | 8.10915 | 35° | 35km/h | 29452m | -31.1m/s | -45.7°C | 2.9% | 13.6hPa | 2.5V | 08:29:01 | 02:17:26 | 00:00:00 | |
| DL1NUX | 2026-08-31 12:35:22 | 51.82487 | 8.10906 | 40° | 33km/h | 29481m | -27.5m/s | -45.7°C | 2.9% | 13.5hPa | 2.5V | 08:29:02 | 02:17:25 | 00:00:00 | |
| DO2JMG | 2026-08-31 12:35:22 | 51.82501 | 8.10922 | 32° | 33km/h | 29421m | -29.8m/s | -45.6°C | 0% | 13.7hPa | 2.5V | 08:29:36 | 02:17:27 | 00:00:00 | |
| DL1XH-west | 2026-08-31 12:35:20 | 51.82487 | 8.10906 | 40° | 33km/h | 29481m | -27.5m/s | -45.7°C | 0% | 13.6hPa | 2.5V | 08:29:36 | 02:17:25 | 00:00:00 | |
| DL1XH-15 | 2026-08-31 12:35:20 | 51.82463 | 8.10854 | 68° | 33km/h | 29612m | -27.1m/s | -45.7°C | 3.1% | 13.3hPa | 2.5V | 08:29:07 | 02:17:20 | 00:00:00 | |
| HSKMA3-T | 2026-08-31 12:35:19 | 51.82476 | 8.10888 | 48° | 33km/h | 29534m | -25m/s | -45.8°C | 0% | 13.5hPa | 2.6V | 08:29:36 | 02:17:23 | 00:00:00 | |
| DL3AQ-11 | 2026-08-31 12:35:18 | 51.82471 | 8.10878 | 54° | 31km/h | 29560m | -25.9m/s | -45.8°C | 0.7% | 13.4hPa | 2.5V | 00:00:00 | 00:00:00 | 00:00:00 | |
| BIOWL9-15 | 2026-08-31 12:35:17 | 51.82467 | 8.10866 | 64° | 31km/h | 29586m | -26.1m/s | -45.8°C | 0.7% | 13.3hPa | 2.5V | 00:00:00 | 00:00:00 | 00:00:00 | |
| DL1NUX | 2026-08-31 12:35:16 | 51.82461 | 8.10789 | 96° | 31km/h | 29759m | -31.4m/s | -45.1°C | 2.9% | 13hPa | 2.5V | 08:29:12 | 02:17:15 | 00:00:00 | |
| DJ2DS-15 | 2026-08-31 12:35:15 | 51.82463 | 8.10854 | 69° | 27km/h | 29612m | -27.1m/s | -45.6°C | 3.1% | 13.2hPa | 2.6V | 00:00:00 | 02:17:20 | 00:00:00 | |
| BIOWL7-15 | 2026-08-31 12:35:14 | 51.82463 | 8.10854 | 70° | 33km/h | 29612m | -27.2m/s | -45.7°C | 0.7% | 13.3hPa | 2.6V | 00:00:00 | 00:00:00 | 00:00:00 | |
| DM0DOS-11 | 2026-08-31 12:35:13 | 51.82460 | 8.10815 | 89° | 35km/h | 29699m | -31.6m/s | -45.4°C | 3% | 13.1hPa | 2.6V | 08:29:10 | 02:17:17 | 00:00:00 | |
| DO2JMG | 2026-08-31 12:35:12 | 51.82460 | 8.10815 | 90° | 35km/h | 29699m | -31.6m/s | -45.4°C | 0% | 13.1hPa | 2.6V | 08:29:36 | 02:17:17 | 00:00:00 | |
| AA1-15 | 2026-08-31 12:35:12 | 51.82460 | 8.10801 | 96° | 31km/h | 29729m | -28.3m/s | -45.2°C | 0% | 13.1hPa | 2.5V | 08:29:36 | 02:17:16 | 00:00:00 | |
| DL1XH-west | 2026-08-31 12:35:09 | 51.82462 | 8.10777 | 100° | 29km/h | 29788m | -27.7m/s | -45.1°C | 0% | 12.9hPa | 2.5V | 08:29:36 | 02:17:14 | 00:00:00 | |
| HSKMA3-T | 2026-08-31 12:35:07 | 51.82464 | 8.10755 | 98° | 27km/h | 29845m | -28.6m/s | -44.9°C | 0% | 12.8hPa | 2.6V | 08:29:36 | 02:17:12 | 00:00:00 | |
| DD1CC1-15 | 2026-08-31 12:35:07 | 51.82463 | 8.10766 | 98° | 27km/h | 29817m | -29.6m/s | -45.0°C | 0.7% | 12.9hPa | 2.6V | 00:00:00 | 00:00:00 | 00:00:00 | |
| DL4BBY-15 | 2026-08-31 12:35:06 | 51.82465 | 8.10744 | 104° | 27km/h | 29874m | -29.1m/s | -43.9°C | 0% | 0hPa | 2.6V | 00:00:00 | 00:00:00 | 00:00:00 | |
| DL3AQ-11 | 2026-08-31 12:35:05 | 51.82468 | 8.10726 | 101° | 22km/h | 29937m | -33.5m/s | -44.4°C | 0.6% | 12.7hPa | 2.6V | 00:00:00 | 00:00:00 | 00:00:00 | |
| DL1XH1-15 | 2026-08-31 12:35:04 | 51.82469 | 8.10698 | 94° | 24km/h | 30040m | -36.5m/s | -43.9°C | 2.6% | 12.5hPa | 2.6V | 08:29:21 | 02:17:06 | 00:00:00 | |
| BIOWL1-15 | 2026-08-31 12:35:02 | 51.82470 | 8.10677 | 92° | 29km/h | 30112m | -34.6m/s | -43.6°C | 0% | 12.3hPa | 2.6V | 08:29:36 | 02:17:04 | 00:00:00 | |
| DO2JMG | 2026-08-31 12:35:01 | 51.82469 | 8.10698 | 95° | 24km/h | 30040m | -36.5m/s | -43.9°C | 0% | 12.5hPa | 2.6V | 08:29:36 | 02:17:06 | 00:00:00 | |
| DL1XH-west | 2026-08-31 12:34:58 | 51.82470 | 8.10665 | 93° | 29km/h | 30146m | -33m/s | -43.5°C | 0% | 12.3hPa | 2.5V | 08:29:36 | 02:17:03 | 00:00:00 | |
| HSKMA3-T | 2026-08-31 12:34:57 | 51.82472 | 8.10641 | 101° | 29km/h | 30208m | -29.3m/s | -43.6°C | 0% | 12.2hPa | 2.5V | 08:29:36 | 02:17:01 | 00:00:00 | |
| DD1CC8 | 2026-08-31 12:34:57 | 51.82472 | 8.10641 | 100° | 29km/h | 30208m | -29.3m/s | -43.6°C | 0.6% | 12.2hPa | 2.5V | 00:00:00 | 00:00:00 | 00:00:00 | |
| DL1NUX | 2026-08-31 12:34:56 | 51.82489 | 8.10564 | 108° | 31km/h | 30390m | -33.6m/s | -44°C | 2.7% | 11.8hPa | 2.5V | 08:29:32 | 02:16:55 | 00:00:00 | |
| DJ2DS-15 | 2026-08-31 12:34:55 | 51.82473 | 8.10629 | 110° | 27km/h | 30238m | -31.4m/s | -43.7°C | 2.6% | 12.0hPa | 2.5V | 00:00:00 | 02:17:00 | 00:00:00 | |
| DL1XH1-15 | 2026-08-31 12:34:54 | 51.82486 | 8.10576 | 110° | 33km/h | 30357m | -32.3m/s | -44°C | 2.7% | 11.9hPa | 2.5V | 08:29:31 | 02:16:56 | 00:00:00 | |
| BIOWL1-15 | 2026-08-31 12:34:51 | 51.82491 | 8.10551 | 106° | 31km/h | 30424m | -35.5m/s | -44.1°C | 0% | 11.8hPa | 2.6V | 08:29:36 | 02:16:54 | 00:00:00 | |
| DC6BW-12 | 2026-08-31 12:34:51 | 51.82486 | 8.10576 | 112° | 33km/h | 30357m | -32.3m/s | -44.0°C | 0.7% | 11.9hPa | 2.6V | 08:29:00 | 00:00:00 | 00:00:00 | |
| DL1XH-15 | 2026-08-31 12:34:50 | 51.82501 | 8.10494 | 109° | 27km/h | 30589m | -29.1m/s | -44.7°C | 3% | 11.4hPa | 2.6V | 08:30:00 | 02:16:49 | 00:00:00 | |
| DO2JMG | 2026-08-31 12:34:50 | 51.82489 | 8.10564 | 108° | 31km/h | 30390m | -33.6m/s | -44°C | 0% | 11.8hPa | 2.5V | 08:29:36 | 02:16:55 | 00:00:00 | |
| DL1XH-west | 2026-08-31 12:34:47 | 51.82495 | 8.10528 | 102° | 29km/h | 30492m | -33.4m/s | -44.3°C | 0% | 11.6hPa | 2.6V | 08:29:36 | 02:16:52 | 00:00:00 | |
| HSKMA3-T | 2026-08-31 12:34:46 | 51.82499 | 8.10505 | 107° | 27km/h | 30558m | -32.4m/s | -44.6°C | 0% | 11.5hPa | 2.5V | 18:12:15 | 02:16:50 | 00:00:00 | |
| GOEST3-10 | 2026-08-31 12:34:45 | 51.82499 | 8.10505 | 108° | 26km/h | 30558m | -32.4m/s | !°C | 2.9% | 11.5hPa | 2.5V | 00:00:00 | 02:16:50 | 00:00:00 | |
| DL1XH1-15 | 2026-08-31 12:34:43 | 51.82511 | 8.10468 | 137° | 22km/h | 30681m | -33.2m/s | -44.1°C | 2.8% | 11.3hPa | 2.5V | 08:30:00 | 02:16:46 | 00:00:00 | |
| DL1NUX | 2026-08-31 12:34:41 | 51.82515 | 8.10462 | 147° | 22km/h | 30715m | -34.9m/s | -43.9°C | 2.8% | 11.2hPa | 2.5V | 08:30:00 | 02:16:45 | 00:00:00 | |
| BIOWL1-15 | 2026-08-31 12:34:40 | 51.82515 | 8.10462 | 147° | 22km/h | 30715m | -34.9m/s | -43.9°C | 0% | 11.2hPa | 2.5V | 18:12:15 | 02:16:45 | 00:00:00 | |
| DO2JMG | 2026-08-31 12:34:39 | 51.82520 | 8.10458 | 154° | 20km/h | 30749m | -33.7m/s | -43.7°C | 0% | 11.2hPa | 2.5V | 18:12:15 | 02:16:44 | 00:00:00 | |
| DL1XH-west | 2026-08-31 12:34:37 | 51.82527 | 8.10453 | 155° | 13km/h | 30816m | -32.4m/s | -43.3°C | 0% | 11.1hPa | 2.6V | 18:12:15 | 02:16:42 | 00:00:00 | |
| DD8BA-10 | 2026-08-31 12:34:37 | 51.82527 | 8.10453 | 155° | 7km/h | 30816m | -32.4m/s | -43.2°C | 2.7% | 11.0hPa | 2.5V | 00:00:00 | 00:00:00 | 00:00:00 | |
| DL4BBY-15 | 2026-08-31 12:34:36 | 51.82530 | 8.10451 | 161° | 9km/h | 30848m | -31.9m/s | -42.3°C | 0% | 0hPa | 2.5V | 00:00:00 | 00:00:00 | 00:00:00 | |
| DJ2DS-15 | 2026-08-31 12:34:35 | 51.82532 | 8.10450 | 164° | 7km/h | 30880m | -32.5m/s | -42.7°C | 2.5% | 10.9hPa | 2.5V | 00:00:00 | 02:16:40 | 08:30:00 | |
| HSKMA3-T | 2026-08-31 12:34:35 | 51.82534 | 8.10449 | 164° | 5km/h | 30913m | -32.7m/s | -42.6°C | 0% | 10.9hPa | 2.5V | 18:12:15 | 02:16:39 | 00:00:00 | |
| DM0DOS-11 | 2026-08-31 12:34:33 | 51.82536 | 8.10448 | 140° | 4km/h | 30974m | -29.3m/s | -42.8°C | 2.6% | 10.8hPa | 2.7V | 08:30:00 | 02:16:37 | 00:00:00 | |
| DO2JMG | 2026-08-31 12:34:29 | 51.82539 | 8.10440 | 114° | 11km/h | 31061m | -27m/s | -42.8°C | 0% | 10.7hPa | 2.6V | 18:12:15 | 02:16:34 | 00:00:00 | |
| DL1XH-west | 2026-08-31 12:34:27 | 51.82541 | 8.10431 | 103° | 13km/h | 31116m | -28.9m/s | -42.8°C | 0% | 10.6hPa | 2.5V | 18:12:15 | 02:16:32 | 00:00:00 | |
| DD8BA-10 | 2026-08-31 12:34:27 | 51.82541 | 8.10431 | 103° | 7km/h | 31116m | -28.8m/s | -42.7°C | 2.7% | 10.5hPa | 2.5V | 00:00:00 | 00:00:00 | 00:00:00 | |
| DL1XH-15 | 2026-08-31 12:34:26 | 51.82541 | 8.10421 | 68° | 5km/h | 31207m | -29.7m/s | -42.4°C | 2.6% | 10.4hPa | 2.6V | 08:30:00 | 02:16:29 | 00:00:00 | |
| HSKMA3-T | 2026-08-31 12:34:24 | 51.82541 | 8.10421 | 69° | 5km/h | 31207m | -29.7m/s | -42.4°C | 0% | 10.4hPa | 2.6V | 18:12:15 | 02:16:29 | 00:00:00 | |
| DL1NUX | 2026-08-31 12:34:21 | 51.82541 | 8.10415 | 114° | 4km/h | 31336m | -34.8m/s | -41.5°C | 2.4% | 10.2hPa | 2.5V | 08:30:00 | 02:16:25 | 00:00:00 | |
| AA1-15 | 2026-08-31 12:34:20 | 51.82541 | 8.10414 | 125° | 7km/h | 31370m | -33.6m/s | -41.4°C | 0% | 10.2hPa | 2.6V | 18:12:15 | 02:16:24 | 00:00:00 | |
| BIOWL1-15 | 2026-08-31 12:34:19 | 51.82551 | 8.10399 | 139° | 18km/h | 31501m | -34.8m/s | -41.1°C | 0% | 10hPa | 2.5V | 18:12:15 | 02:16:20 | 00:00:00 | |
| DO2JMG | 2026-08-31 12:34:18 | 51.82543 | 8.10411 | 134° | 11km/h | 31403m | -32.8m/s | -41.3°C | 0% | 10.1hPa | 2.6V | 18:12:15 | 02:16:23 | 00:00:00 | |
| DO9LL-15 | 2026-08-31 12:34:18 | 51.82543 | 8.10411 | 134° | 15km/h | 31403m | -32.8m/s | -41.3°C | 2.4% | 10.1hPa | 2.6V | 00:00:00 | 02:16:23 | 00:00:00 | |
| DM0DOS-11 | 2026-08-31 12:34:17 | 51.82560 | 8.10386 | 122° | 9km/h | 31610m | -36.8m/s | -41°C | 2.4% | 9.8hPa | 2.6V | 08:30:00 | 02:16:17 | 00:00:00 | |
| DL1XH-west | 2026-08-31 12:34:16 | 51.82548 | 8.10404 | 138° | 16km/h | 31468m | -32.4m/s | -41.2°C | 0% | 10hPa | 2.5V | 18:12:15 | 02:16:21 | 00:00:00 | |
| HSKMA3-T | 2026-08-31 12:34:13 | 51.82558 | 8.10389 | 136° | 16km/h | 31574m | -36.4m/s | -41.1°C | 0% | 9.9hPa | 2.6V | 18:12:15 | 02:16:18 | 00:00:00 | |
| DL1XH1-15 | 2026-08-31 12:34:12 | 51.82560 | 8.10383 | 63° | 4km/h | 31647m | -37.1m/s | -40.9°C | 2.4% | 9.8hPa | 2.5V | 08:30:00 | 02:16:16 | 00:00:00 | |
| AA1-15 | 2026-08-31 12:34:10 | 51.82548 | 8.10384 | 345° | 22km/h | 31778m | -28.7m/s | -40.8°C | 0% | 9.6hPa | 2.6V | 18:12:15 | 02:16:12 | 00:00:00 | |
| BIOWL1-15 | 2026-08-31 12:34:09 | 51.82533 | 8.10391 | 343° | 11km/h | 31859m | -27.8m/s | -40.4°C | 0% | 9.4hPa | 2.5V | 18:12:15 | 02:16:09 | 00:00:00 | |
| DO2JMG | 2026-08-31 12:34:08 | 51.82552 | 8.10382 | 350° | 18km/h | 31748m | -30.8m/s | -40.8°C | 0% | 9.6hPa | 2.6V | 18:12:15 | 02:16:13 | 00:00:00 | |
| DL1XH-west | 2026-08-31 12:34:06 | 51.82542 | 8.10387 | 344° | 22km/h | 31806m | -26.8m/s | -40.6°C | 0% | 9.5hPa | 2.6V | 18:12:15 | 02:16:11 | 00:00:00 | |
| HSKMA3-T | 2026-08-31 12:34:03 | 51.82532 | 8.10392 | 285° | 2km/h | 31888m | -30.9m/s | -40.3°C | 0% | 9.4hPa | 2.6V | 18:12:15 | 02:16:08 | 00:00:00 | |
| DL1NUX | 2026-08-31 12:34:01 | 51.82536 | 8.10394 | 190° | 11km/h | 31972m | -27.8m/s | -40.2°C | 2.1% | 9.3hPa | 2.7V | 08:30:00 | 02:16:05 | 00:00:00 | |
| GOEST3-10 | 2026-08-31 12:34:00 | 51.82536 | 8.10394 | 191° | 22km/h | 31972m | -27.7m/s | -40.1°C | 2.1% | 9.3hPa | 2.6V | 00:00:00 | 00:00:00 | 00:00:00 | |
| DL1XH-15 | 2026-08-31 12:33:58 | 51.82495 | 8.10418 | 343° | 37km/h | 32204m | -13.8m/s | -40.5°C | 2.3% | 8.9hPa | 2.6V | 08:30:00 | 02:15:58 | 00:00:00 | |
| DO2JMG | 2026-08-31 12:33:58 | 51.82535 | 8.10399 | 339° | 26km/h | 32038m | -41.6m/s | -40.1°C | 0% | 9.2hPa | 2.5V | 18:12:15 | 02:16:03 | 00:00:00 | |
| BIOWL1-15 | 2026-08-31 12:33:57 | 51.82504 | 8.10414 | 343° | 35km/h | 32186m | -23.1m/s | -40.7°C | 0% | 9hPa | 2.7V | 18:12:15 | 02:15:59 | 00:00:00 | |
| DL1XH-west | 2026-08-31 12:33:56 | 51.82513 | 8.10410 | 344° | 33km/h | 32159m | -30.9m/s | -40.7°C | 0% | 9.1hPa | 2.7V | 18:12:15 | 02:16:00 | 00:00:00 | |
| DL1NUX | 2026-08-31 12:33:55 | 51.82470 | 8.10431 | 339° | 33km/h | 32206m | 6.5m/s | -40.8°C | 2.4% | 8.9hPa | 2.6V | 08:30:00 | 02:15:55 | 00:00:00 | |
| HSKMA3-T | 2026-08-31 12:33:53 | 51.82496 | 8.10418 | 343° | 37km/h | 32204m | -13.8m/s | -40.5°C | 0% | 8.9hPa | 2.6V | 18:12:15 | 02:15:58 | 00:00:00 | |
| AA1-15 | 2026-08-31 12:33:48 | 51.82458 | 8.10440 | 332° | 20km/h | 32194m | 6.2m/s | -40.5°C | 0% | 9hPa | 2.7V | 18:12:15 | 02:15:53 | 00:00:00 | |
| DO2JMG | 2026-08-31 12:33:47 | 51.82454 | 8.10443 | 327° | 15km/h | 32188m | 5.4m/s | -40.5°C | 0% | 8.9hPa | 2.7V | 18:12:15 | 02:15:52 | 00:00:00 | |
| BIOWL1-15 | 2026-08-31 12:33:46 | 51.82451 | 8.10446 | 326° | 11km/h | 32183m | 5m/s | -40.6°C | 0% | 8.9hPa | 2.6V | 18:12:15 | 02:15:51 | 00:00:00 | |
| DL1XH-15 | 2026-08-31 12:33:46 | 51.82442 | 8.10451 | 354° | 16km/h | 32165m | 6.3m/s | -40.7°C | 2.4% | 9hPa | 2.7V | 08:30:00 | 02:15:48 | 00:00:00 | |
| SMARD9-15 | 2026-08-31 12:33:45 | 51.82449 | 8.10448 | 334° | 9km/h | 32178m | 5.3m/s | -40.7°C | 0.5% | 9.0hPa | 2.7V | 00:00:00 | 00:00:00 | 00:00:00 | |
| DL1XH-west | 2026-08-31 12:33:44 | 51.82446 | 8.10450 | 347° | 13km/h | 32172m | 6.3m/s | -40.7°C | 0% | 9hPa | 2.7V | 18:12:15 | 02:15:49 | 00:00:00 | |
| HSKMA3-T | 2026-08-31 12:33:43 | 51.82438 | 8.10451 | 359° | 22km/h | 32159m | 5.9m/s | -40.6°C | 0% | 9hPa | 2.6V | 18:12:15 | 02:15:47 | 00:00:00 | |
| DL1NUX | 2026-08-31 12:33:42 | 51.82426 | 8.10450 | 4° | 24km/h | 32148m | 5.6m/s | -40.5°C | 2.3% | 9hPa | 2.6V | 08:30:00 | 02:15:45 | 00:00:00 | |
| AA1-15 | 2026-08-31 12:33:38 | 51.82409 | 8.10450 | 348° | 18km/h | 32130m | 5.2m/s | -40.5°C | 0% | 9.1hPa | 2.7V | 18:12:15 | 02:15:42 | 00:00:00 | |
| DO2JMG | 2026-08-31 12:33:36 | 51.82405 | 8.10453 | 334° | 20km/h | 32125m | 5.4m/s | -40.5°C | 0% | 9.1hPa | 2.7V | 18:12:15 | 02:15:41 | 00:00:00 | |
| BIOWL1-15 | 2026-08-31 12:33:36 | 51.82389 | 8.10473 | 315° | 31km/h | 32106m | 5.3m/s | -40.2°C | 0% | 9.1hPa | 2.6V | 18:12:15 | 02:15:38 | 00:00:00 | |
| DL4BBY-15 | 2026-08-31 12:33:36 | 51.82405 | 8.10453 | 335° | 18km/h | 32126m | 5.4m/s | -39.7°C | 0% | 0hPa | 2.6V | 00:00:00 | 00:00:00 | 00:00:00 | |
| DL1XH-15 | 2026-08-31 12:33:35 | 51.82389 | 8.10472 | 314° | 31km/h | 32106m | 5.3m/s | -40.1°C | 2.3% | 9.1hPa | 2.6V | 08:30:00 | 02:15:38 | 00:00:00 | |
| DM0DOS-11 | 2026-08-31 12:33:35 | 51.82376 | 8.10498 | 305° | 20km/h | 32090m | 6.7m/s | -40.1°C | 2.3% | 9.1hPa | 2.7V | 08:30:00 | 02:15:35 | 00:00:00 | |
| DL1XH-west | 2026-08-31 12:33:34 | 51.82395 | 8.10464 | 319° | 29km/h | 32112m | 6.8m/s | -40.3°C | 0% | 9.1hPa | 2.6V | 18:12:15 | 02:15:39 | 00:00:00 | |
| HSKMA3-T | 2026-08-31 12:33:32 | 51.82384 | 8.10482 | 311° | 31km/h | 32101m | 4.4m/s | -40.1°C | 0% | 9.1hPa | 2.7V | 18:12:15 | 02:15:37 | 00:00:00 | |
| AA1-15 | 2026-08-31 12:33:28 | 51.82370 | 8.10507 | 358° | 9km/h | 32073m | 4.8m/s | -40.3°C | 0% | 9.1hPa | 2.7V | 18:12:15 | 02:15:32 | 00:00:00 | |
| DO2JMG | 2026-08-31 12:33:26 | 51.82367 | 8.10507 | 4° | 13km/h | 32067m | 5.6m/s | -40.4°C | 0% | 9.1hPa | 2.7V | 18:12:15 | 02:15:31 | 00:00:00 | |
| DL1XH-west | 2026-08-31 12:33:23 | 51.82351 | 8.10510 | 345° | 29km/h | 32049m | 5.1m/s | -40.2°C | 0% | 9.2hPa | 2.6V | 18:12:15 | 02:15:28 | 00:00:00 | |
| HSKMA3-T | 2026-08-31 12:33:23 | 51.82344 | 8.10514 | 337° | 29km/h | 32044m | 4.4m/s | -40.2°C | 0% | 9.2hPa | 2.6V | 18:12:15 | 02:15:27 | 00:00:00 | |
| AA1-15 | 2026-08-31 12:33:18 | 51.82330 | 8.10538 | 254° | 9km/h | 32015m | 5.2m/s | -40.1°C | 0% | 9.2hPa | 2.6V | 18:12:15 | 02:15:22 | 00:00:00 | |
| DD8BA-10 | 2026-08-31 12:33:17 | 51.82330 | 8.10538 | 254° | 13km/h | 32015m | 5.2m/s | -40.1°C | 2.3% | 9.2hPa | 2.7V | 00:00:00 | 00:00:00 | 00:00:00 | |
| DL1XH-15 | 2026-08-31 12:33:16 | 51.82326 | 8.10548 | 346° | 15km/h | 31992m | 5.5m/s | -39.8°C | 2.2% | 9.2hPa | 2.7V | 08:30:00 | 02:15:18 | 00:00:00 | |
| DO2JMG | 2026-08-31 12:33:16 | 51.82331 | 8.10541 | 262° | 7km/h | 32009m | 5.6m/s | -40°C | 0% | 9.2hPa | 2.6V | 18:12:15 | 02:15:21 | 00:00:00 | |
| DJ2KF-10 | 2026-08-31 12:33:16 | 51.82330 | 8.10541 | 262° | 13km/h | 32010m | 5.5m/s | -39.9°C | 2.2% | 9.1hPa | 2.6V | 00:00:00 | 02:15:21 | 08:30:00 | |
| HTAHTA | 2026-08-31 12:33:15 | 51.82329 | 8.10546 | 334° | 9km/h | 31998m | 5.7m/s | -39.8°C | 0.5% | 9.2hPa | 2.7V | 00:00:00 | 00:00:00 | 00:00:00 | |
| DL1NUX | 2026-08-31 12:33:14 | 51.82310 | 8.10555 | 332° | 16km/h | 31967m | 5.7m/s | -40.1°C | 2.2% | 9.2hPa | 2.7V | 08:30:00 | 02:15:14 | 00:00:00 | |
| BIOWL1-15 | 2026-08-31 12:33:13 | 51.82306 | 8.10559 | 323° | 18km/h | 31962m | 5.5m/s | -40.1°C | 0% | 9.3hPa | 2.6V | 18:12:15 | 02:15:13 | 00:00:00 | |
| DL1XH-west | 2026-08-31 12:33:12 | 51.82322 | 8.10549 | 349° | 16km/h | 31986m | 5.7m/s | -39.9°C | 0% | 9.2hPa | 2.6V | 18:12:15 | 02:15:17 | 00:00:00 | |
| AA1-15 | 2026-08-31 12:33:06 | 51.82299 | 8.10570 | 308° | 20km/h | 31950m | 5.6m/s | -40°C | 0% | 9.3hPa | 2.6V | 18:12:15 | 02:15:11 | 00:00:00 | |
| DO2JMG | 2026-08-31 12:33:05 | 51.82296 | 8.10577 | 296° | 20km/h | 31945m | 4.7m/s | -40°C | 0% | 9.3hPa | 2.6V | 18:12:15 | 02:15:10 | 00:00:00 | |
| DL1XH-west | 2026-08-31 12:33:01 | 51.82299 | 8.10603 | 226° | 15km/h | 31920m | 5.2m/s | -40.1°C | 0% | 9.3hPa | 2.6V | 18:12:15 | 02:15:06 | 00:00:00 | |
| BIOWL1-15 | 2026-08-31 12:32:59 | 51.82302 | 8.10610 | 255° | 5km/h | 31910m | 6.1m/s | -40.1°C | 0% | 9.3hPa | 2.6V | 18:12:15 | 02:15:04 | 00:00:00 | |
| SO1NDE-10 | 2026-08-31 12:32:58 | 51.82302 | 8.10612 | 324° | 9km/h | 31904m | 6.4m/s | -40.2°C | 2.2% | 9.3hPa | 2.7V | 00:00:00 | 02:15:03 | 00:00:00 | |
| DD8BA-10 | 2026-08-31 12:32:57 | 51.82299 | 8.10614 | 338° | 13km/h | 31898m | 5.7m/s | -40.3°C | 2.2% | 9.3hPa | 2.7V | 00:00:00 | 00:00:00 | 00:00:00 | |
| DB0UT-7 | 2026-08-31 12:32:56 | 51.82295 | 8.10617 | 338° | 9km/h | 31892m | 5.0m/s | -40.4°C | 2.2% | 9.3hPa | 2.6V | 00:00:00 | 00:00:00 | 00:00:00 | |
| DM0DOS-11 | 2026-08-31 12:32:55 | 51.82290 | 8.10641 | 218° | 9km/h | 31852m | 5.9m/s | -40.2°C | 2.3% | 9.4hPa | 2.6V | 08:30:00 | 02:14:54 | 00:00:00 | |
| DO2JMG | 2026-08-31 12:32:55 | 51.82291 | 8.10620 | 333° | 18km/h | 31887m | 5.4m/s | -40.5°C | 0% | 9.4hPa | 2.6V | 18:12:15 | 02:15:00 | 00:00:00 | |
| DL1XH-15 | 2026-08-31 12:32:54 | 51.82285 | 8.10628 | 293° | 11km/h | 31875m | 6.2m/s | -40.4°C | 2.3% | 9.4hPa | 2.7V | 08:30:00 | 02:14:58 | 00:00:00 | |
| HSKMA3-T | 2026-08-31 12:32:50 | 51.82292 | 8.10643 | 236° | 5km/h | 31846m | 6.2m/s | -40.3°C | 0% | 9.4hPa | 2.6V | 18:12:15 | 02:14:53 | 00:00:00 | |
| BIOWL1-15 | 2026-08-31 12:32:49 | 51.82292 | 8.10645 | 296° | 4km/h | 31840m | 5.6m/s | -40.4°C | 0% | 9.4hPa | 2.7V | 18:12:15 | 02:14:52 | 00:00:00 | |
| DO2JMG | 2026-08-31 12:32:45 | 51.82290 | 8.10647 | 331° | 5km/h | 31830m | 5.5m/s | -40.6°C | 0% | 9.4hPa | 2.7V | 18:12:15 | 02:14:50 | 00:00:00 | |
| AA1-15 | 2026-08-31 12:32:45 | 51.82289 | 8.10649 | 313° | 5km/h | 31824m | 6m/s | -40.5°C | 0% | 9.5hPa | 2.6V | 18:12:15 | 02:14:49 | 00:00:00 | |
| DL8DAS-14 | 2026-08-31 12:32:44 | 51.82288 | 8.10651 | 293° | 5km/h | 31818m | 5.8m/s | -40.4°C | 0.5% | 9.5hPa | 2.7V | 00:00:00 | 00:00:00 | 00:00:00 | |
| SMARD9-15 | 2026-08-31 12:32:43 | 51.82288 | 8.10651 | 293° | 5km/h | 31818m | 5.8m/s | -40.4°C | 0.5% | 9.5hPa | 2.7V | 00:00:00 | 00:00:00 | 00:00:00 | |
| DD1CC9-15 | 2026-08-31 12:32:42 | 51.82288 | 8.10651 | 295° | 5km/h | 31818m | 5.8m/s | -40.4°C | 0.5% | 9.5hPa | 2.7V | 00:00:00 | 00:00:00 | 00:00:00 | |
| DB0DAN | 2026-08-31 12:32:40 | 51.82286 | 8.10657 | 311° | 5km/h | 31802m | 5.4m/s | -40.7°C | 0.5% | 9.5hPa | 2.7V | 00:00:00 | 00:00:00 | 00:00:00 | |
| DL1NUX | 2026-08-31 12:32:40 | 51.82285 | 8.10658 | 355° | 5km/h | 31796m | 6.8m/s | -40.8°C | 2.3% | 9.5hPa | 2.7V | 08:30:00 | 02:14:44 | 00:00:00 | |
| DL1XH-west | 2026-08-31 12:32:39 | 51.82285 | 8.10658 | 355° | 5km/h | 31796m | 6.8m/s | -40.8°C | 0% | 9.5hPa | 2.7V | 18:12:15 | 02:14:44 | 00:00:00 | |
| BIOWL1-15 | 2026-08-31 12:32:37 | 51.82282 | 8.10636 | 168° | 4km/h | 31751m | 5.1m/s | -41°C | 0% | 9.6hPa | 2.6V | 18:12:15 | 02:14:36 | 00:00:00 | |
| DO2JMG | 2026-08-31 12:32:34 | 51.82278 | 8.10641 | 106° | 9km/h | 31767m | 6.4m/s | -40.8°C | 0% | 9.6hPa | 2.6V | 18:12:15 | 02:14:39 | 00:00:00 | |
| AA1-15 | 2026-08-31 12:32:34 | 51.82279 | 8.10638 | 136° | 7km/h | 31761m | 5.2m/s | -40.8°C | 0% | 9.6hPa | 2.6V | 18:12:15 | 02:14:38 | 00:00:00 | |
| DL1XH1-15 | 2026-08-31 12:32:30 | 51.82281 | 8.10635 | 17° | 7km/h | 31739m | 6.5m/s | -40.9°C | 2.3% | 9.6hPa | 2.7V | 08:30:00 | 02:14:34 | 00:00:00 | |
| HSKMA3-T | 2026-08-31 12:32:29 | 51.82281 | 8.10635 | 18° | 7km/h | 31739m | 6.5m/s | -40.9°C | 0% | 9.6hPa | 2.7V | 18:12:15 | 02:14:34 | 00:00:00 | |
| DL1XH-west | 2026-08-31 12:32:28 | 51.82278 | 8.10634 | 20° | 13km/h | 31733m | 6m/s | -40.9°C | 0% | 9.6hPa | 2.7V | 18:12:15 | 02:14:33 | 00:00:00 | |
| BIOWL1-15 | 2026-08-31 12:32:27 | 51.82272 | 8.10629 | 37° | 13km/h | 31722m | 5m/s | -41°C | 0% | 9.6hPa | 2.6V | 18:12:15 | 02:14:31 | 00:00:00 | |
| DO2JMG | 2026-08-31 12:32:23 | 51.82271 | 8.10619 | 137° | 11km/h | 31704m | 5.8m/s | -40.8°C | 0% | 9.6hPa | 2.7V | 18:12:15 | 02:14:28 | 00:00:00 | |
| AA1-15 | 2026-08-31 12:32:23 | 51.82274 | 8.10616 | 144° | 15km/h | 31699m | 5.6m/s | -40.9°C | 0% | 9.7hPa | 2.7V | 18:12:15 | 02:14:27 | 00:00:00 | |
| NBG1-10 | 2026-08-31 12:32:22 | 51.82274 | 8.10616 | 145° | 9km/h | 31699m | 5.6m/s | -40.8°C | 2.3% | 9.6hPa | 2.7V | 00:00:00 | 02:14:27 | 00:00:00 | |
| DD1CC1-15 | 2026-08-31 12:32:21 | 51.82274 | 8.10616 | 145° | 15km/h | 31699m | 5.6m/s | -40.9°C | 0.5% | 9.7hPa | 2.7V | 00:00:00 | 00:00:00 | 00:00:00 | |
| DM0DOS-11 | 2026-08-31 12:32:20 | 51.82282 | 8.10605 | 132° | 11km/h | 31681m | 5m/s | -41°C | 2.3% | 9.7hPa | 2.7V | 08:30:00 | 02:14:24 | 00:00:00 | |
| HSKMA3-T | 2026-08-31 12:32:19 | 51.82282 | 8.10605 | 133° | 11km/h | 31681m | 5m/s | -41°C | 0% | 9.7hPa | 2.7V | 18:12:15 | 02:14:24 | 00:00:00 | |
| DL1XH-west | 2026-08-31 12:32:18 | 51.82284 | 8.10602 | 138° | 11km/h | 31676m | 5m/s | -40.9°C | 0% | 9.7hPa | 2.7V | 18:12:15 | 02:14:23 | 00:00:00 | |
| BIOWL1-15 | 2026-08-31 12:32:16 | 51.82287 | 8.10581 | 93° | 13km/h | 31625m | 5m/s | -41.1°C | 0% | 9.8hPa | 2.6V | 18:12:15 | 02:14:14 | 00:00:00 | |
| DO2JMG | 2026-08-31 12:32:12 | 51.82290 | 8.10594 | 59° | 9km/h | 31640m | 6.7m/s | -40.9°C | 0% | 9.7hPa | 2.7V | 18:12:15 | 02:14:17 | 00:00:00 | |
| AA1-15 | 2026-08-31 12:32:12 | 51.82289 | 8.10591 | 60° | 13km/h | 31634m | 5.3m/s | -40.9°C | 0% | 9.7hPa | 2.7V | 18:12:15 | 02:14:16 | 00:00:00 | |
| DL1XH1-15 | 2026-08-31 12:32:11 | 51.82287 | 8.10581 | 92° | 13km/h | 31625m | 5m/s | -41.1°C | 2.3% | 9.7hPa | 2.6V | 08:30:00 | 02:14:14 | 00:00:00 | |
| DL4XJ-10 | 2026-08-31 12:32:10 | 51.82288 | 8.10586 | 71° | 15km/h | 31630m | 4.2m/s | -40.2°C | 0% | 0hPa | 2.6V | 00:00:00 | 00:00:00 | 00:00:00 | |
| DL1XH-15 | 2026-08-31 12:32:08 | 51.82309 | 8.10568 | 177° | 13km/h | 31589m | 6.1m/s | -41.4°C | 2.4% | 9.8hPa | 2.6V | 08:30:00 | 02:14:08 | 00:00:00 | |
| DL1XH-west | 2026-08-31 12:32:08 | 51.82288 | 8.10577 | 124° | 13km/h | 31619m | 6.7m/s | -41.2°C | 0% | 9.8hPa | 2.6V | 18:12:15 | 02:14:13 | 00:00:00 | |
| BIOWL1-15 | 2026-08-31 12:32:03 | 51.82309 | 8.10568 | 177° | 13km/h | 31589m | 6.1m/s | -41.4°C | 0% | 9.8hPa | 2.6V | 18:12:15 | 02:14:08 | 00:00:00 | |
| DO2JMG | 2026-08-31 12:32:02 | 51.82311 | 8.10568 | 182° | 5km/h | 31584m | 5.6m/s | -41.4°C | 0% | 9.8hPa | 2.7V | 18:12:15 | 02:14:07 | 00:00:00 | |
| AA1-15 | 2026-08-31 12:32:01 | 51.82310 | 8.10571 | 302° | 5km/h | 31566m | 6.7m/s | -41.3°C | 0% | 9.8hPa | 2.6V | 18:12:15 | 02:14:04 | 00:00:00 | |
| DL1NUX | 2026-08-31 12:32:01 | 51.82310 | 8.10571 | 301° | 5km/h | 31566m | 6.7m/s | -41.3°C | 2.4% | 9.8hPa | 2.6V | 08:30:00 | 02:14:04 | 00:00:00 | |
| HSKMA3-T | 2026-08-31 12:31:59 | 51.82310 | 8.10573 | 293° | 5km/h | 31560m | 5.5m/s | -41.3°C | 0% | 9.9hPa | 2.7V | 18:12:15 | 02:14:03 | 00:00:00 | |
| DL1XH-west | 2026-08-31 12:31:58 | 51.82310 | 8.10574 | 115° | 4km/h | 31550m | 4.8m/s | -41.4°C | 0% | 9.9hPa | 2.7V | 18:12:15 | 02:14:01 | 00:00:00 | |
| DO2JMG | 2026-08-31 12:31:52 | 51.82314 | 8.10554 | 120° | 20km/h | 31526m | 4.8m/s | -41.3°C | 0% | 9.9hPa | 2.7V | 18:12:15 | 02:13:57 | 00:00:00 | |
| DL1XH1-15 | 2026-08-31 12:31:51 | 51.82326 | 8.10539 | 171° | 20km/h | 31509m | 5.1m/s | -41.2°C | 2.3% | 9.9hPa | 2.6V | 08:30:00 | 02:13:54 | 00:00:00 | |
| AA1-15 | 2026-08-31 12:31:50 | 51.82321 | 8.10542 | 154° | 22km/h | 31514m | 6.5m/s | -41.2°C | 0% | 9.9hPa | 2.6V | 18:12:15 | 02:13:55 | 00:00:00 | |
| DL1XH-west | 2026-08-31 12:31:47 | 51.82335 | 8.10540 | 196° | 13km/h | 31499m | 5.6m/s | -41.2°C | 0% | 9.9hPa | 2.6V | 18:12:15 | 02:13:52 | 00:00:00 | |
| DO2JMG | 2026-08-31 12:31:42 | 51.82330 | 8.10538 | 37° | 11km/h | 31471m | 5.8m/s | -41.5°C | 0% | 10hPa | 2.6V | 18:12:15 | 02:13:47 | 00:00:00 | |
| BIOWL1-15 | 2026-08-31 12:31:41 | 51.82329 | 8.10535 | 59° | 9km/h | 31465m | 6.1m/s | -41.5°C | 0% | 10hPa | 2.7V | 18:12:15 | 02:13:46 | 00:00:00 | |
| DL1XH1-15 | 2026-08-31 12:31:41 | 51.82329 | 8.10528 | 116° | 11km/h | 31453m | 5.4m/s | -41.4°C | 2.3% | 10hPa | 2.6V | 08:30:00 | 02:13:44 | 00:00:00 | |
| AA1-15 | 2026-08-31 12:31:40 | 51.82331 | 8.10523 | 123° | 15km/h | 31448m | 5.1m/s | -41.6°C | 0% | 10hPa | 2.6V | 18:12:15 | 02:13:43 | 00:00:00 | |
| HSKMA3-T | 2026-08-31 12:31:37 | 51.82333 | 8.10518 | 120° | 16km/h | 31442m | 5.8m/s | -41.7°C | 0% | 10hPa | 2.6V | 18:12:15 | 02:13:42 | 00:00:00 | |
| DL1XH-west | 2026-08-31 12:31:36 | 51.82336 | 8.10504 | 100° | 18km/h | 31430m | 5.5m/s | -41.6°C | 0% | 10.1hPa | 2.7V | 18:12:15 | 02:13:40 | 00:00:00 | |
| DL4BBY-15 | 2026-08-31 12:31:36 | 51.82334 | 8.10511 | 112° | 11km/h | 31436m | 6.2m/s | -40.9°C | 0% | 0hPa | 2.7V | 00:00:00 | 00:00:00 | 00:00:00 | |
| DJ2DS-15 | 2026-08-31 12:31:35 | 51.82336 | 8.10504 | 101° | 11km/h | 31431m | 5.4m/s | -41.6°C | 2.4% | 10.0hPa | 2.7V | 00:00:00 | 02:13:40 | 08:30:00 | |
| DD1CC3-15 | 2026-08-31 12:31:34 | 51.82336 | 8.10504 | 101° | 18km/h | 31431m | 5.5m/s | -41.6°C | 0.6% | 10.1hPa | 2.7V | 00:00:00 | 00:00:00 | 00:00:00 | |
| DM0DOS-11 | 2026-08-31 12:31:33 | 51.82336 | 8.10494 | 274° | 7km/h | 31398m | 5m/s | -41.6°C | 2.3% | 10.1hPa | 2.7V | 08:30:00 | 02:13:34 | 00:00:00 | |
| DO2JMG | 2026-08-31 12:31:31 | 51.82336 | 8.10490 | 261° | 2km/h | 31409m | 6.8m/s | -41.6°C | 0% | 10.1hPa | 2.6V | 18:12:15 | 02:13:36 | 00:00:00 | |
| AA1-15 | 2026-08-31 12:31:29 | 51.82336 | 8.10494 | 275° | 7km/h | 31398m | 5m/s | -41.6°C | 0% | 10.1hPa | 2.7V | 18:12:15 | 02:13:34 | 00:00:00 | |
| HSKMA3-T | 2026-08-31 12:31:27 | 51.82335 | 8.10497 | 14° | 5km/h | 31387m | 6.4m/s | -41.8°C | 0% | 10.1hPa | 2.7V | 18:12:15 | 02:13:32 | 00:00:00 | |
| DL1XH-west | 2026-08-31 12:31:26 | 51.82333 | 8.10495 | 49° | 11km/h | 31381m | 6m/s | -41.8°C | 0% | 10.1hPa | 2.6V | 18:12:15 | 02:13:31 | 00:00:00 | |
| DB0DAN | 2026-08-31 12:31:25 | 51.82331 | 8.10490 | 62° | 16km/h | 31376m | 5m/s | -41.8°C | 0.5% | 10.11hPa | 2.6V | 00:00:00 | 00:00:00 | 00:00:00 | |
| BIOWL1-15 | 2026-08-31 12:31:20 | 51.82334 | 8.10461 | 174° | 11km/h | 31343m | 5.9m/s | -42°C | 0% | 10.2hPa | 2.7V | 18:12:15 | 02:13:24 | 00:00:00 | |
| DL1XH1-15 | 2026-08-31 12:31:20 | 51.82334 | 8.10461 | 173° | 11km/h | 31343m | 5.9m/s | -42°C | 2.4% | 10.2hPa | 2.7V | 08:30:00 | 02:13:24 | 00:00:00 | |
| DO2JMG | 2026-08-31 12:31:20 | 51.82332 | 8.10462 | 158° | 11km/h | 31348m | 5.2m/s | -42.1°C | 0% | 10.2hPa | 2.7V | 18:12:15 | 02:13:25 | 00:00:00 | |
| AA1-15 | 2026-08-31 12:31:18 | 51.82339 | 8.10460 | 176° | 7km/h | 31331m | 5.7m/s | -41.9°C | 0% | 10.2hPa | 2.6V | 18:12:15 | 02:13:22 | 00:00:00 | |
| DL1XH-west | 2026-08-31 12:31:16 | 51.82340 | 8.10460 | 154° | 5km/h | 31325m | 4.8m/s | -42°C | 0% | 10.2hPa | 2.6V | 18:12:15 | 02:13:21 | 00:00:00 | |
| DB0NH | 2026-08-31 12:31:16 | 51.82340 | 8.10460 | 155° | 9km/h | 31326m | 4.7m/s | -42.0°C | 2.4% | 10.2hPa | 2.6V | 00:00:00 | 02:13:21 | 00:00:00 | |
| DJ2DS-15 | 2026-08-31 12:31:15 | 51.82341 | 8.10458 | 139° | 11km/h | 31321m | 4.3m/s | -42.1°C | 2.4% | 10.1hPa | 2.6V | 00:00:00 | 02:13:20 | 00:00:00 | |
| DJ2DS-15 | 2026-08-31 12:31:14 | 51.82343 | 8.10457 | 140° | 7km/h | 31316m | 5.6m/s | -42.2°C | 0.6% | 10.2hPa | 2.6V | 00:00:00 | 00:00:00 | 00:00:00 | |
| DM0DOS-11 | 2026-08-31 12:31:13 | 51.82351 | 8.10441 | 92° | 11km/h | 31287m | 6.5m/s | -42.4°C | 2.5% | 10.3hPa | 2.6V | 08:30:00 | 02:13:14 | 00:00:00 | |
| DB0DAN | 2026-08-31 12:31:10 | 51.82350 | 8.10446 | 114° | 11km/h | 31293m | 5.3m/s | -42.3°C | 0.6% | 10.27hPa | 2.6V | 00:00:00 | 00:00:00 | 00:00:00 | |
| BIOWL1-15 | 2026-08-31 12:31:10 | 51.82350 | 8.10437 | 69° | 13km/h | 31281m | 5.4m/s | -42.5°C | 0% | 10.3hPa | 2.7V | 18:12:15 | 02:13:13 | 00:00:00 | |
| DO2JMG | 2026-08-31 12:31:09 | 51.82351 | 8.10441 | 92° | 11km/h | 31287m | 6.5m/s | -42.5°C | 0% | 10.3hPa | 2.6V | 18:12:15 | 02:13:14 | 00:00:00 | |
| AA1-15 | 2026-08-31 12:31:08 | 51.82349 | 8.10432 | 61° | 11km/h | 31277m | 4.2m/s | -42.6°C | 0% | 10.3hPa | 2.7V | 18:12:15 | 02:13:12 | 00:00:00 | |
| HSKMA3-T | 2026-08-31 12:31:06 | 51.82348 | 8.10429 | 65° | 9km/h | 31272m | 4.3m/s | -42.5°C | 0% | 10.3hPa | 2.6V | 18:12:15 | 02:13:11 | 00:00:00 | |
| DL1XH-west | 2026-08-31 12:31:05 | 51.82347 | 8.10426 | 95° | 5km/h | 31267m | 5.9m/s | -42.7°C | 0% | 10.3hPa | 2.6V | 18:12:15 | 02:13:10 | 00:00:00 | |
| GOEST3-10 | 2026-08-31 12:31:05 | 51.82347 | 8.10426 | 95° | 9km/h | 31268m | 5.8m/s | -42.6°C | 2.6% | 10.3hPa | 2.7V | 00:00:00 | 02:13:10 | 00:00:00 | |
| DF7PN | 2026-08-31 12:31:04 | 51.82348 | 8.10424 | 144° | 7km/h | 31262m | 6.2m/s | -42.8°C | 0.6% | 10.3hPa | 2.7V | 00:00:00 | 00:00:00 | 00:00:00 | |
| DL1XH1-15 | 2026-08-31 12:31:01 | 51.82359 | 8.10414 | 77° | 9km/h | 31234m | 6.1m/s | -42.9°C | 2.6% | 10.4hPa | 2.7V | 08:30:00 | 02:13:04 | 00:00:00 | |
| AA1-15 | 2026-08-31 12:30:58 | 51.82355 | 8.10406 | 45° | 16km/h | 31224m | 4.5m/s | -43°C | 0% | 10.4hPa | 2.6V | 18:12:15 | 02:13:02 | 00:00:00 | |
| DO2JMG | 2026-08-31 12:30:58 | 51.82357 | 8.10410 | 52° | 15km/h | 31229m | 5.3m/s | -43°C | 0% | 10.4hPa | 2.7V | 18:12:15 | 02:13:03 | 00:00:00 | |
| BIOWL1-15 | 2026-08-31 12:30:57 | 51.82351 | 8.10398 | 224° | 11km/h | 31192m | 4.9m/s | -42.9°C | 0% | 10.4hPa | 2.7V | 18:12:15 | 02:12:56 | 00:00:00 | |
| HSKMA3-T | 2026-08-31 12:30:56 | 51.82352 | 8.10401 | 44° | 16km/h | 31219m | 4.4m/s | -42.8°C | 0% | 10.4hPa | 2.6V | 18:12:15 | 02:13:01 | 00:00:00 | |
| DL1XH-west | 2026-08-31 12:30:55 | 51.82349 | 8.10397 | 46° | 11km/h | 31215m | 5.7m/s | -42.9°C | 0% | 10.4hPa | 2.6V | 18:12:15 | 02:13:00 | 00:00:00 | |
| DO2JMG | 2026-08-31 12:30:48 | 51.82355 | 8.10407 | 265° | 5km/h | 31175m | 5m/s | -43.1°C | 0% | 10.4hPa | 2.6V | 18:12:15 | 02:12:53 | 00:00:00 | |
| AA1-15 | 2026-08-31 12:30:47 | 51.82355 | 8.10408 | 278° | 4km/h | 31170m | 5.1m/s | -43.1°C | 0% | 10.4hPa | 2.7V | 18:12:15 | 02:12:52 | 00:00:00 | |
| DD8BA-10 | 2026-08-31 12:30:47 | 51.82355 | 8.10408 | 279° | 5km/h | 31170m | 5.0m/s | -43.0°C | 2.6% | 10.4hPa | 2.7V | 00:00:00 | 00:00:00 | 00:00:00 | |
| DL1XH-15 | 2026-08-31 12:30:46 | 51.82355 | 8.10406 | 62° | 7km/h | 31142m | 6.5m/s | -43°C | 2.6% | 10.5hPa | 2.7V | 08:30:00 | 02:12:47 | 00:00:00 | |
| HSKMA3-T | 2026-08-31 12:30:46 | 51.82355 | 8.10410 | 257° | 2km/h | 31165m | 6m/s | -43°C | 0% | 10.5hPa | 2.7V | 18:12:15 | 02:12:51 | 00:00:00 | |
| DL1XH-west | 2026-08-31 12:30:45 | 51.82355 | 8.10410 | 187° | 2km/h | 31159m | 5.5m/s | -43°C | 0% | 10.5hPa | 2.7V | 18:12:15 | 02:12:50 | 00:00:00 | |
| GOEST3-10 | 2026-08-31 12:30:45 | 51.82355 | 8.10410 | 187° | 5km/h | 31159m | 5.5m/s | -43.0°C | 2.6% | 10.4hPa | 2.6V | 00:00:00 | 02:12:50 | 00:00:00 | |
| DB0NH | 2026-08-31 12:30:44 | 51.82355 | 8.10410 | 119° | 13km/h | 31154m | 5.2m/s | -43.1°C | 2.7% | 10.4hPa | 2.6V | 00:00:00 | 02:12:49 | 08:30:00 | |
| DB0DAN | 2026-08-31 12:30:40 | 51.82353 | 8.10400 | 63° | 7km/h | 31132m | 4m/s | -42.9°C | 0.6% | 10.51hPa | 2.6V | 00:00:00 | 00:00:00 | 00:00:00 | |
| DM0DOS-11 | 2026-08-31 12:30:40 | 51.82352 | 8.10398 | 105° | 4km/h | 31127m | 4.7m/s | -42.9°C | 2.6% | 10.5hPa | 2.6V | 08:30:00 | 02:12:44 | 00:00:00 | |
| DO2JMG | 2026-08-31 12:30:37 | 51.82356 | 8.10398 | 198° | 15km/h | 31116m | 5.9m/s | -42.9°C | 0% | 10.5hPa | 2.7V | 18:12:15 | 02:12:42 | 00:00:00 | |
| AA1-15 | 2026-08-31 12:30:37 | 51.82365 | 8.10404 | 203° | 20km/h | 31105m | 4.5m/s | -42.9°C | 0% | 10.6hPa | 2.6V | 18:12:15 | 02:12:40 | 00:00:00 | |
| DL1XH-west | 2026-08-31 12:30:35 | 51.82369 | 8.10407 | 202° | 18km/h | 31101m | 5.1m/s | -43°C | 0% | 10.6hPa | 2.6V | 18:12:15 | 02:12:39 | 00:00:00 | |
| DJ2DS-15 | 2026-08-31 12:30:35 | 51.82364 | 8.10404 | 204° | 13km/h | 31106m | 4.5m/s | -42.9°C | 2.5% | 10.5hPa | 2.6V | 00:00:00 | 02:12:40 | 00:00:00 | |
| DL1XH-15 | 2026-08-31 12:30:33 | 51.82376 | 8.10410 | 171° | 7km/h | 31089m | 5.2m/s | -43°C | 2.6% | 10.6hPa | 2.7V | 08:30:00 | 02:12:37 | 00:00:00 | |
| DL1XH1-15 | 2026-08-31 12:30:33 | 51.82379 | 8.10403 | 128° | 7km/h | 31074m | 5.6m/s | -42.9°C | 2.5% | 10.6hPa | 2.6V | 08:30:00 | 02:12:34 | 00:00:00 | |
| BIOWL1-15 | 2026-08-31 12:30:31 | 51.82378 | 8.10406 | 117° | 7km/h | 31080m | 5m/s | -43°C | 0% | 10.6hPa | 2.7V | 18:12:15 | 02:12:35 | 00:00:00 | |
| GOEST3-10 | 2026-08-31 12:30:30 | 51.82378 | 8.10406 | 118° | 9km/h | 31080m | 5.0m/s | -42.9°C | 2.5% | 10.5hPa | 2.6V | 00:00:00 | 00:00:00 | 00:00:00 | |
| DJ8HS-15 | 2026-08-31 12:30:28 | 51.82381 | 8.10401 | 152° | 16km/h | 31069m | 5.5m/s | -42.8°C | 2.5% | 10.6hPa | 2.6V | 00:00:00 | 02:12:33 | 00:00:00 | |
| DL1XH-15 | 2026-08-31 12:30:27 | 51.82393 | 8.10404 | 186° | 5km/h | 31037m | 4.6m/s | -42.9°C | 2.5% | 10.7hPa | 2.6V | 08:30:00 | 02:12:27 | 00:00:00 | |
| DO2JMG | 2026-08-31 12:30:26 | 51.82385 | 8.10401 | 188° | 11km/h | 31058m | 4.8m/s | -43°C | 0% | 10.6hPa | 2.7V | 18:12:15 | 02:12:31 | 00:00:00 | |
| HSKMA3-T | 2026-08-31 12:30:25 | 51.82388 | 8.10401 | 196° | 9km/h | 31053m | 5.2m/s | -43.1°C | 0% | 10.6hPa | 2.7V | 18:12:15 | 02:12:30 | 00:00:00 | |
| DL1XH-west | 2026-08-31 12:30:23 | 51.82391 | 8.10403 | 195° | 5km/h | 31042m | 5.7m/s | -42.9°C | 0% | 10.7hPa | 2.6V | 18:12:15 | 02:12:28 | 00:00:00 | |
| DM0DOS-11 | 2026-08-31 12:30:22 | 51.82406 | 8.10406 | 185° | 24km/h | 31016m | 5.8m/s | -42.9°C | 2.5% | 10.7hPa | 2.6V | 08:30:00 | 02:12:23 | 00:00:00 | |
| BIOWL1-15 | 2026-08-31 12:30:20 | 51.82406 | 8.10406 | 186° | 24km/h | 31016m | 5.9m/s | -42.9°C | 0% | 10.7hPa | 2.6V | 18:12:15 | 02:12:23 | 00:00:00 | |
| DO2JMG | 2026-08-31 12:30:15 | 51.82426 | 8.10404 | 164° | 24km/h | 31001m | 5.5m/s | -42.6°C | 0% | 10.7hPa | 2.6V | 18:12:15 | 02:12:20 | 00:00:00 | |
| DJ2DS-15 | 2026-08-31 12:30:15 | 51.82425 | 8.10404 | 165° | 20km/h | 31002m | 5.4m/s | -42.6°C | 2.5% | 10.7hPa | 2.6V | 00:00:00 | 02:12:20 | 00:00:00 | |
| DL1XH-15 | 2026-08-31 12:30:13 | 51.82439 | 8.10388 | 127° | 22km/h | 30985m | 4.3m/s | -42.4°C | 2.4% | 10.7hPa | 2.6V | 08:30:00 | 02:12:17 | 00:00:00 | |
| BIOWL1-15 | 2026-08-31 12:30:13 | 51.82468 | 8.10370 | 185° | 20km/h | 30953m | 5.8m/s | -42.8°C | 0% | 10.8hPa | 2.6V | 18:12:15 | 02:12:11 | 00:00:00 | |
| DL1XH-west | 2026-08-31 12:30:13 | 51.82439 | 8.10388 | 127° | 22km/h | 30985m | 4.3m/s | -42.4°C | 0% | 10.7hPa | 2.6V | 18:12:15 | 02:12:17 | 00:00:00 | |
| GOEST3-10 | 2026-08-31 12:30:10 | 51.82447 | 8.10375 | 145° | 22km/h | 30975m | 6.1m/s | -42.4°C | 2.4% | 10.7hPa | 2.7V | 00:00:00 | 00:00:00 | 00:00:00 | |
| HTAHTA | 2026-08-31 12:30:09 | 51.82468 | 8.10370 | 184° | 18km/h | 30953m | 5.8m/s | -42.8°C | 0.6% | 10.8hPa | 2.6V | 00:00:00 | 00:00:00 | 00:00:00 | |
| DL1XH-15 | 2026-08-31 12:30:08 | 51.82483 | 8.10367 | 161° | 15km/h | 30931m | 5.8m/s | -43.2°C | 2.6% | 10.8hPa | 2.6V | 08:30:00 | 02:12:07 | 00:00:00 | |
| HSKMA3-T | 2026-08-31 12:30:05 | 51.82473 | 8.10370 | 182° | 16km/h | 30947m | 6m/s | -43°C | 0% | 10.8hPa | 2.7V | 18:12:15 | 02:12:10 | 00:00:00 | |
| DO2JMG | 2026-08-31 12:30:04 | 51.82476 | 8.10370 | 174° | 13km/h | 30941m | 5.2m/s | -43.1°C | 0% | 10.8hPa | 2.7V | 18:12:15 | 02:12:09 | 00:00:00 | |
| DL1XH-west | 2026-08-31 12:30:02 | 51.82483 | 8.10367 | 162° | 15km/h | 30931m | 5.9m/s | -43.2°C | 0% | 10.8hPa | 2.6V | 18:12:15 | 02:12:07 | 00:00:00 | |
| BIOWL1-15 | 2026-08-31 12:29:57 | 51.82534 | 8.10306 | 160° | 18km/h | 30866m | 5.8m/s | -43.6°C | 0% | 10.9hPa | 2.7V | 18:12:15 | 02:11:55 | 00:00:00 | |
| DL1XH-15 | 2026-08-31 12:29:57 | 51.82524 | 8.10311 | 160° | 22km/h | 30876m | 5.6m/s | -43.5°C | 2.6% | 10.9hPa | 2.7V | 08:30:00 | 02:11:57 | 00:00:00 | |
| DB0DAN | 2026-08-31 12:29:55 | 51.82511 | 8.10327 | 125° | 20km/h | 30893m | 4.2m/s | -43.5°C | 0.6% | 10.88hPa | 2.7V | 00:00:00 | 00:00:00 | 00:00:00 | |
| HSKMA3-T | 2026-08-31 12:29:55 | 51.82514 | 8.10320 | 135° | 22km/h | 30888m | 5.9m/s | -43.5°C | 0% | 10.9hPa | 2.6V | 18:12:15 | 02:11:59 | 00:00:00 | |
| DL1XH1-15 | 2026-08-31 12:29:54 | 51.82538 | 8.10303 | 147° | 16km/h | 30860m | 5.7m/s | -43.6°C | 2.6% | 10.9hPa | 2.6V | 08:30:00 | 02:11:54 | 00:00:00 | |
| DO2JMG | 2026-08-31 12:29:53 | 51.82519 | 8.10315 | 150° | 22km/h | 30882m | 6.3m/s | -43.5°C | 0% | 10.9hPa | 2.6V | 18:12:15 | 02:11:58 | 00:00:00 | |
| DL1XH-west | 2026-08-31 12:29:52 | 51.82524 | 8.10311 | 160° | 22km/h | 30876m | 5.6m/s | -43.5°C | 0% | 10.9hPa | 2.7V | 18:12:15 | 02:11:57 | 00:00:00 | |
| DL1ZP-14 | 2026-08-31 12:29:50 | 51.82538 | 8.10303 | 147° | 15km/h | 30860m | 5.7m/s | -43.6°C | 0.6% | 10.9hPa | 2.6V | 00:00:00 | 00:00:00 | 00:00:00 | |
| GOEST3-10 | 2026-08-31 12:29:49 | 51.82538 | 8.10303 | 148° | 16km/h | 30860m | 5.7m/s | -43.6°C | 2.6% | 10.9hPa | 2.6V | 00:00:00 | 00:00:00 | 00:00:00 | |
| DO9LL-15 | 2026-08-31 12:29:48 | 51.82541 | 8.10299 | 136° | 20km/h | 30855m | 4.7m/s | -43.6°C | 2.6% | 10.9hPa | 2.6V | 00:00:00 | 02:11:53 | 00:00:00 | |
| DD8BA-10 | 2026-08-31 12:29:47 | 51.82543 | 8.10294 | 129° | 18km/h | 30850m | 4.7m/s | -43.6°C | 2.6% | 10.9hPa | 2.6V | 00:00:00 | 00:00:00 | 00:00:00 | |
| DL1XH-15 | 2026-08-31 12:29:46 | 51.82557 | 8.10264 | 112° | 20km/h | 30823m | 5.3m/s | -43.8°C | 2.6% | 11hPa | 2.6V | 08:30:00 | 02:11:47 | 00:00:00 | |
| BIOWL1-15 | 2026-08-31 12:29:46 | 51.82546 | 8.10289 | 128° | 16km/h | 30844m | 6.4m/s | -43.7°C | 0% | 11hPa | 2.7V | 18:12:15 | 02:11:51 | 00:00:00 | |
| SONCRA | 2026-08-31 12:29:46 | 51.82549 | 8.10284 | 129° | 18km/h | 30838m | 5.7m/s | -43.7°C | 0.6% | 11.0hPa | 2.6V | 00:00:00 | 00:00:00 | 00:00:00 | |
| AA1-15 | 2026-08-31 12:29:44 | 51.82552 | 8.10277 | 128° | 20km/h | 30833m | 5m/s | -43.7°C | 0% | 11hPa | 2.6V | 18:12:15 | 02:11:49 | 00:00:00 | |
| DO2JMG | 2026-08-31 12:29:43 | 51.82555 | 8.10271 | 122° | 20km/h | 30828m | 4.8m/s | -43.7°C | 0% | 11hPa | 2.6V | 18:12:15 | 02:11:48 | 00:00:00 | |
| DL1XH-west | 2026-08-31 12:29:42 | 51.82558 | 8.10256 | 101° | 18km/h | 30817m | 6.3m/s | -43.9°C | 0% | 11.1hPa | 2.6V | 18:12:15 | 02:11:46 | 00:00:00 | |
| DL1NUX | 2026-08-31 12:29:40 | 51.82559 | 8.10242 | 92° | 15km/h | 30807m | 4.2m/s | -44.1°C | 2.6% | 11hPa | 2.7V | 08:30:00 | 02:11:44 | 00:00:00 | |
| BIOWL1-15 | 2026-08-31 12:29:38 | 51.82564 | 8.10228 | 149° | 16km/h | 30790m | 6m/s | -44.3°C | 0% | 11.1hPa | 2.6V | 18:12:15 | 02:11:41 | 00:00:00 | |
| DL8DAS-14 | 2026-08-31 12:29:38 | 51.82561 | 8.10232 | 130° | 13km/h | 30797m | 6.3m/s | -44.4°C | 0.6% | 11.1hPa | 2.6V | 00:00:00 | 00:00:00 | 00:00:00 | |
| DL1XH-15 | 2026-08-31 12:29:37 | 51.82581 | 8.10208 | 120° | 22km/h | 30768m | 5.6m/s | -44.2°C | 2.7% | 11.1hPa | 2.6V | 08:30:00 | 02:11:37 | 00:00:00 | |
| DO2JMG | 2026-08-31 12:29:33 | 51.82577 | 8.10215 | 137° | 22km/h | 30774m | 6.1m/s | -44.3°C | 0% | 11.1hPa | 2.6V | 18:12:15 | 02:11:38 | 00:00:00 | |
| HSKMA3-T | 2026-08-31 12:29:33 | 51.82580 | 8.10208 | 120° | 22km/h | 30769m | 5.6m/s | -44.3°C | 0% | 11.1hPa | 2.6V | 18:12:15 | 02:11:37 | 00:00:00 | |
| DL1XH-west | 2026-08-31 12:29:31 | 51.82583 | 8.10199 | 111° | 24km/h | 30763m | 4.9m/s | -44.2°C | 0% | 11.1hPa | 2.7V | 18:12:15 | 02:11:36 | 00:00:00 | |
| BIOWL1-15 | 2026-08-31 12:29:27 | 51.82595 | 8.10140 | 99° | 24km/h | 30730m | 6.4m/s | -44.4°C | 0% | 11.2hPa | 2.7V | 18:12:15 | 02:11:30 | 00:00:00 | |
| DL4XJ-10 | 2026-08-31 12:29:27 | 51.82592 | 8.10159 | 110° | 27km/h | 30742m | 4.9m/s | -43.5°C | 0% | 0hPa | 2.6V | 00:00:00 | 00:00:00 | 00:00:00 | |
| DB0UT-7 | 2026-08-31 12:29:26 | 51.82593 | 8.10150 | 106° | 31km/h | 30736m | 5.5m/s | -44.3°C | 2.7% | 11.1hPa | 2.6V | 00:00:00 | 02:11:31 | 00:00:00 | |
| DL1XH-15 | 2026-08-31 12:29:25 | 51.82597 | 8.10115 | 111° | 22km/h | 30714m | 5.4m/s | -44.5°C | 2.8% | 11.2hPa | 2.6V | 08:30:00 | 02:11:27 | 00:00:00 | |
| DM0DOS-11 | 2026-08-31 12:29:23 | 51.82613 | 8.10080 | 122° | 31km/h | 30692m | 5.8m/s | -44.8°C | 2.8% | 11.2hPa | 2.7V | 08:30:00 | 02:11:23 | 00:00:00 | |
| DO2JMG | 2026-08-31 12:29:23 | 51.82596 | 8.10123 | 100° | 20km/h | 30719m | 4.7m/s | -44.5°C | 0% | 11.2hPa | 2.7V | 18:12:15 | 02:11:28 | 00:00:00 | |
| HSKMA3-T | 2026-08-31 12:29:22 | 51.82597 | 8.10115 | 112° | 22km/h | 30714m | 5.4m/s | -44.5°C | 0% | 11.2hPa | 2.6V | 18:12:15 | 02:11:27 | 00:00:00 | |
| DL1XH-west | 2026-08-31 12:29:21 | 51.82600 | 8.10107 | 123° | 24km/h | 30708m | 6.3m/s | -44.6°C | 0% | 11.2hPa | 2.6V | 18:12:15 | 02:11:26 | 00:00:00 | |
| DL1NUX | 2026-08-31 12:29:20 | 51.82608 | 8.10089 | 128° | 29km/h | 30697m | 5.1m/s | -44.8°C | 2.8% | 11.2hPa | 2.7V | 08:30:00 | 02:11:24 | 00:00:00 | |
| BIOWL1-15 | 2026-08-31 12:29:15 | 51.82622 | 8.10030 | 98° | 35km/h | 30670m | 5.2m/s | -44.9°C | 0% | 11.3hPa | 2.6V | 18:12:15 | 02:11:19 | 00:00:00 | |
| DL1NUX | 2026-08-31 12:29:14 | 51.82631 | 8.09972 | 99° | 22km/h | 30642m | 6.3m/s | -44.9°C | 2.9% | 11.3hPa | 2.6V | 08:30:00 | 02:11:14 | 00:00:00 | |
| DO2JMG | 2026-08-31 12:29:13 | 51.82623 | 8.10016 | 101° | 33km/h | 30664m | 6m/s | -44.9°C | 0% | 11.3hPa | 2.7V | 18:12:15 | 02:11:18 | 00:00:00 | |
| DL1XH-west | 2026-08-31 12:29:11 | 51.82627 | 8.09992 | 108° | 27km/h | 30653m | 5.4m/s | -45°C | 0% | 11.3hPa | 2.7V | 18:12:15 | 02:11:16 | 00:00:00 | |
| DL8OAI-8 | 2026-08-31 12:29:10 | 51.82627 | 8.09992 | 109° | 27km/h | 30653m | 5.4m/s | -45.0°C | 0.7% | 11.3hPa | 2.7V | 00:00:00 | 00:00:00 | 00:00:00 | |
| DD1CC3-15 | 2026-08-31 12:29:09 | 51.82629 | 8.09982 | 107° | 26km/h | 30648m | 5.2m/s | -45.0°C | 0.7% | 11.3hPa | 2.7V | 00:00:00 | 00:00:00 | 00:00:00 | |
| DM0DOS-11 | 2026-08-31 12:29:08 | 51.82632 | 8.09954 | 100° | 24km/h | 30631m | 4m/s | -44.8°C | 2.8% | 11.3hPa | 2.7V | 08:30:00 | 02:11:12 | 00:00:00 | |
| DJ8HS-15 | 2026-08-31 12:29:08 | 51.82631 | 8.09963 | 96° | 33km/h | 30636m | 5.1m/s | -44.8°C | 2.9% | 11.3hPa | 2.7V | 00:00:00 | 02:11:13 | 00:00:00 | |
| DL8DAS-14 | 2026-08-31 12:29:07 | 51.82634 | 8.09945 | 109° | 24km/h | 30627m | 5.1m/s | -44.9°C | 0.7% | 11.3hPa | 2.6V | 00:00:00 | 00:00:00 | 00:00:00 | |
| SMARD9-15 | 2026-08-31 12:29:06 | 51.82637 | 8.09934 | 117° | 29km/h | 30621m | 6.6m/s | -44.9°C | 0% | 11.4hPa | 2.6V | 00:00:00 | 00:00:00 | 00:00:00 | |
| DL1XH-15 | 2026-08-31 12:29:05 | 51.82655 | 8.09879 | 109° | 44km/h | 30599m | 6.3m/s | -44.6°C | 2.9% | 11.4hPa | 2.6V | 08:30:00 | 02:11:06 | 00:00:00 | |
| BIOWL1-15 | 2026-08-31 12:29:04 | 51.82662 | 8.09813 | 100° | 37km/h | 30578m | 6.2m/s | -44.7°C | 0% | 11.4hPa | 2.7V | 18:12:15 | 02:11:02 | 00:00:00 | |
| AA1-15 | 2026-08-31 12:29:02 | 51.82650 | 8.09895 | 116° | 42km/h | 30604m | 5.3m/s | -44.7°C | 0% | 11.4hPa | 2.6V | 18:12:15 | 02:11:07 | 00:00:00 | |
| DM0DOS-11 | 2026-08-31 12:29:02 | 51.82662 | 8.09813 | 99° | 35km/h | 30578m | 6.2m/s | -44.7°C | 2.8% | 11.4hPa | 2.7V | 08:30:00 | 02:11:02 | 00:00:00 | |
| DO1YAY-16 | 2026-08-31 12:29:02 | 51.82650 | 8.09895 | 115° | 42km/h | 30605m | 5.3m/s | -44.7°C | 0.7% | 11.4hPa | 2.6V | 00:00:00 | 00:00:00 | 00:00:00 | |
| DC6BW-12 | 2026-08-31 12:29:01 | 51.82650 | 8.09895 | 117° | 42km/h | 30605m | 5.3m/s | -44.7°C | 0.7% | 11.4hPa | 2.6V | 00:00:00 | 00:00:00 | 00:00:00 | |
| DL1XH-west | 2026-08-31 12:29:01 | 51.82657 | 8.09861 | 102° | 44km/h | 30593m | 5.3m/s | -44.6°C | 0% | 11.4hPa | 2.6V | 18:12:15 | 02:11:05 | 00:00:00 | |
| DL1NUX | 2026-08-31 12:29:00 | 51.82659 | 8.09844 | 97° | 42km/h | 30588m | 4.4m/s | -44.6°C | 2.8% | 11.4hPa | 2.6V | 08:30:00 | 02:11:04 | 00:00:00 | |
| DF7PN | 2026-08-31 12:29:00 | 51.82659 | 8.09844 | 97° | 42km/h | 30588m | 4.4m/s | -44.6°C | 0.7% | 11.4hPa | 2.7V | 00:00:00 | 00:00:00 | 00:00:00 | |
| SO1NDE-10 | 2026-08-31 12:28:58 | 51.82660 | 8.09828 | 98° | 35km/h | 30584m | 5.0m/s | -44.6°C | 2.8% | 11.4hPa | 2.7V | 00:00:00 | 02:11:03 | 00:00:00 | |
| DD8BA-10 | 2026-08-31 12:28:57 | 51.82662 | 8.09813 | 100° | 31km/h | 30578m | 6.1m/s | -44.7°C | 2.8% | 11.4hPa | 2.7V | 00:00:00 | 00:00:00 | 00:00:00 | |
| DB0UT-7 | 2026-08-31 12:28:56 | 51.82664 | 8.09799 | 105° | 35km/h | 30572m | 5.6m/s | -44.6°C | 2.8% | 11.4hPa | 2.7V | 00:00:00 | 00:00:00 | 00:00:00 | |
| DL1XH-15 | 2026-08-31 12:28:55 | 51.82672 | 8.09748 | 98° | 27km/h | 30544m | 4.4m/s | -44.5°C | 2.8% | 11.5hPa | 2.7V | 08:30:00 | 02:10:56 | 00:00:00 | |
| DO2JMG | 2026-08-31 12:28:51 | 51.82672 | 8.09748 | 98° | 27km/h | 30544m | 4.4m/s | -44.5°C | 0% | 11.5hPa | 2.7V | 18:12:15 | 02:10:56 | 00:00:00 | |
| DM0DOS-11 | 2026-08-31 12:28:51 | 51.82682 | 8.09693 | 110° | 44km/h | 30522m | 5.2m/s | -44.6°C | 2.8% | 11.5hPa | 2.6V | 08:30:00 | 02:10:52 | 00:00:00 | |
| DL1XH1-15 | 2026-08-31 12:28:51 | 51.82675 | 8.09723 | 108° | 35km/h | 30534m | 6.6m/s | -44.5°C | 2.7% | 11.5hPa | 2.6V | 08:30:00 | 02:10:54 | 00:00:00 | |
| DL1XH-west | 2026-08-31 12:28:51 | 51.82673 | 8.09736 | 103° | 31km/h | 30539m | 4.9m/s | -44.5°C | 0% | 11.5hPa | 2.7V | 18:12:15 | 02:10:55 | 00:00:00 | |
| DJ2DS-15 | 2026-08-31 12:28:50 | 51.82673 | 8.09736 | 103° | 29km/h | 30540m | 4.9m/s | -44.5°C | 0.7% | 11.5hPa | 2.6V | 00:00:00 | 00:00:00 | 00:00:00 | |
| DL1ZP-14 | 2026-08-31 12:28:48 | 51.82682 | 8.09693 | 110° | 42km/h | 30522m | 5.2m/s | -44.6°C | 0.7% | 11.5hPa | 2.6V | 00:00:00 | 00:00:00 | 00:00:00 | |
| BIOWL1-15 | 2026-08-31 12:28:46 | 51.82689 | 8.09620 | 89° | 44km/h | 30500m | 4.3m/s | -44.7°C | 0% | 11.6hPa | 2.6V | 18:12:15 | 02:10:48 | 00:00:00 | |
| DD1CC9-15 | 2026-08-31 12:28:46 | 51.82682 | 8.09693 | 111° | 44km/h | 30522m | 5.2m/s | -44.6°C | 0.7% | 11.5hPa | 2.7V | 00:00:00 | 00:00:00 | 00:00:00 | |
| DL1XH-15 | 2026-08-31 12:28:45 | 51.82689 | 8.09587 | 92° | 37km/h | 30490m | 6.2m/s | -44.4°C | 2.8% | 11.6hPa | 2.7V | 08:30:00 | 02:10:46 | 00:00:00 | |
| DO2JMG | 2026-08-31 12:28:41 | 51.82689 | 8.09587 | 93° | 37km/h | 30490m | 6.2m/s | -44.4°C | 0% | 11.6hPa | 2.7V | 18:12:15 | 02:10:46 | 00:00:00 | |
| DL1XH-west | 2026-08-31 12:28:40 | 51.82690 | 8.09574 | 97° | 31km/h | 30484m | 5.9m/s | -44.3°C | 0% | 11.6hPa | 2.7V | 18:12:15 | 02:10:45 | 00:00:00 | |
| DM0DOS-11 | 2026-08-31 12:28:39 | 51.82693 | 8.09544 | 94° | 24km/h | 30467m | 6m/s | -44.4°C | 2.7% | 11.6hPa | 2.7V | 08:30:00 | 02:10:42 | 00:00:00 | |
| DL3AQ-11 | 2026-08-31 12:28:38 | 51.82693 | 8.09544 | 94° | 22km/h | 30467m | 6.1m/s | -44.4°C | 0.7% | 11.6hPa | 2.7V | 00:00:00 | 00:00:00 | 00:00:00 | |
| DD8BA-10 | 2026-08-31 12:28:37 | 51.82692 | 8.09544 | 95° | 38km/h | 30467m | 6.0m/s | -44.4°C | 2.7% | 11.6hPa | 2.7V | 00:00:00 | 00:00:00 | 00:00:00 | |
| DL4BBY-15 | 2026-08-31 12:28:36 | 51.82692 | 8.09534 | 90° | 33km/h | 30462m | 5.3m/s | -43.5°C | 0% | 0hPa | 2.7V | 00:00:00 | 00:00:00 | 00:00:00 | |
| SMARD9-15 | 2026-08-31 12:28:35 | 51.82693 | 8.09509 | 93° | 35km/h | 30452m | 5.1m/s | -44.3°C | 0.6% | 11.6hPa | 2.7V | 00:00:00 | 00:00:00 | 00:00:00 | |
| DL1XH-15 | 2026-08-31 12:28:33 | 51.82699 | 8.09460 | 104° | 46km/h | 30434m | 4.6m/s | -44.5°C | 2.8% | 11.7hPa | 2.7V | 08:30:00 | 02:10:36 | 00:00:00 | |
| DM0DOS-11 | 2026-08-31 12:28:33 | 51.82703 | 8.09388 | 80° | 40km/h | 30413m | 5.3m/s | -44.3°C | 2.7% | 11.7hPa | 2.6V | 08:30:00 | 02:10:32 | 00:00:00 | |
| DO2JMG | 2026-08-31 12:28:30 | 51.82701 | 8.09441 | 102° | 47km/h | 30429m | 4.3m/s | -44.6°C | 0% | 11.7hPa | 2.7V | 18:12:15 | 02:10:35 | 00:00:00 | |
| HSKMA3-T | 2026-08-31 12:28:29 | 51.82703 | 8.09423 | 96° | 46km/h | 30424m | 5.7m/s | -44.5°C | 0% | 11.7hPa | 2.7V | 18:12:15 | 02:10:34 | 00:00:00 | |
| BIOWL1-15 | 2026-08-31 12:28:25 | 51.82698 | 8.09351 | 85° | 24km/h | 30396m | 6.4m/s | -44.5°C | 0% | 11.7hPa | 2.7V | 18:12:15 | 02:10:29 | 00:00:00 | |
| DL3AQ-11 | 2026-08-31 12:28:25 | 51.82698 | 8.09351 | 84° | 22km/h | 30396m | 6.4m/s | -44.5°C | 0.7% | 11.7hPa | 2.6V | 00:00:00 | 00:00:00 | 00:00:00 | |
| GOEST3-10 | 2026-08-31 12:28:23 | 51.82698 | 8.09342 | 98° | 26km/h | 30391m | 5.4m/s | -44.5°C | 2.8% | 11.7hPa | 2.6V | 00:00:00 | 02:10:28 | 08:30:00 | |
| DM0DOS-11 | 2026-08-31 12:28:22 | 51.82703 | 8.09279 | 92° | 37km/h | 30357m | 5.8m/s | -44.2°C | 2.7% | 11.8hPa | 2.7V | 08:30:00 | 02:10:22 | 00:00:00 | |
| AA1-15 | 2026-08-31 12:28:20 | 51.82702 | 8.09293 | 91° | 33km/h | 30363m | 5.1m/s | -44.2°C | 0% | 11.8hPa | 2.7V | 18:12:15 | 02:10:23 | 00:00:00 | |
| DO2JMG | 2026-08-31 12:28:19 | 51.82702 | 8.09306 | 93° | 29km/h | 30368m | 5.4m/s | -44.2°C | 0% | 11.8hPa | 2.7V | 18:12:15 | 02:10:24 | 00:00:00 | |
| BIOWL1-15 | 2026-08-31 12:28:14 | 51.82705 | 8.09233 | 92° | 37km/h | 30340m | 5m/s | -44.2°C | 0% | 11.8hPa | 2.7V | 18:12:15 | 02:10:19 | 00:00:00 | |
| DL3AQ-11 | 2026-08-31 12:28:14 | 51.82704 | 8.09218 | 85° | 35km/h | 30335m | 6.2m/s | -44.3°C | 0.7% | 11.8hPa | 2.6V | 00:00:00 | 00:00:00 | 00:00:00 | |
| DB0NH | 2026-08-31 12:28:13 | 51.82704 | 8.09218 | 86° | 26km/h | 30335m | 6.1m/s | -44.2°C | 2.7% | 11.8hPa | 2.6V | 00:00:00 | 02:10:18 | 00:00:00 | |
| DM0DOS-11 | 2026-08-31 12:28:12 | 51.82695 | 8.09158 | 102° | 20km/h | 30301m | 5.5m/s | -44.2°C | 2.7% | 11.9hPa | 2.6V | 08:30:00 | 02:10:12 | 00:00:00 | |
| HSKMA3-T | 2026-08-31 12:28:09 | 51.82696 | 8.09174 | 72° | 22km/h | 30313m | 5.7m/s | -44.2°C | 0% | 11.9hPa | 2.7V | 18:12:15 | 02:10:14 | 00:00:00 | |
| DO2JMG | 2026-08-31 12:28:08 | 51.82695 | 8.09166 | 87° | 18km/h | 30307m | 6.4m/s | -44.2°C | 0% | 11.9hPa | 2.6V | 18:12:15 | 02:10:13 | 00:00:00 | |
| AA1-15 | 2026-08-31 12:28:07 | 51.82697 | 8.09149 | 109° | 24km/h | 30296m | 4.9m/s | -44.2°C | 0% | 11.9hPa | 2.7V | 18:12:15 | 02:10:11 | 00:00:00 | |
| DL1XH-15 | 2026-08-31 12:28:07 | 51.82701 | 8.09089 | 88° | 35km/h | 30267m | 5.1m/s | -43.9°C | 2.6% | 12hPa | 2.6V | 08:30:00 | 02:10:06 | 00:00:00 | |
| BIOWL1-15 | 2026-08-31 12:28:06 | 51.82700 | 8.09128 | 100° | 29km/h | 30284m | 6.7m/s | -44.2°C | 0% | 11.9hPa | 2.7V | 18:12:15 | 02:10:09 | 00:00:00 | |
| DO2JMG | 2026-08-31 12:27:58 | 51.82703 | 8.09050 | 99° | 27km/h | 30250m | 5.1m/s | -43.8°C | 0% | 12hPa | 2.7V | 18:12:15 | 02:10:03 | 00:00:00 | |
| DF7PN | 2026-08-31 12:27:58 | 51.82703 | 8.09040 | 96° | 22km/h | 30245m | 5.1m/s | -43.8°C | 0.6% | 12.0hPa | 2.6V | 00:00:00 | 00:00:00 | 00:00:00 | |
| DM0DOS-11 | 2026-08-31 12:27:57 | 51.82703 | 8.09040 | 96° | 24km/h | 30244m | 5.1m/s | -43.8°C | 2.5% | 12hPa | 2.6V | 08:30:00 | 02:10:02 | 00:00:00 | |
| AA1-15 | 2026-08-31 12:27:56 | 51.82704 | 8.09031 | 91° | 20km/h | 30238m | 6.7m/s | -43.8°C | 0% | 12hPa | 2.6V | 18:12:15 | 02:10:01 | 00:00:00 | |
| BIOWL1-15 | 2026-08-31 12:27:54 | 51.82702 | 8.09016 | 75° | 16km/h | 30226m | 5m/s | -43.9°C | 0% | 12hPa | 2.7V | 18:12:15 | 02:09:59 | 00:00:00 | |
| GOEST3-10 | 2026-08-31 12:27:52 | 51.82701 | 8.09003 | 99° | 22km/h | 30217m | 6.1m/s | -43.9°C | 2.6% | 12.0hPa | 2.7V | 00:00:00 | 02:09:57 | 00:00:00 | |
| DL1XH1-15 | 2026-08-31 12:27:50 | 51.82709 | 8.08980 | 119° | 27km/h | 30198m | 5.3m/s | -44°C | 2.6% | 12.1hPa | 2.6V | 08:30:00 | 02:09:54 | 00:00:00 | |
| DL1XH-west | 2026-08-31 12:27:48 | 51.82712 | 8.08970 | 112° | 29km/h | 30192m | 6.5m/s | -44°C | 0% | 12.1hPa | 2.7V | 18:12:15 | 02:09:53 | 00:00:00 | |
| DM0DOS-11 | 2026-08-31 12:27:47 | 51.82714 | 8.08958 | 101° | 29km/h | 30186m | 6.2m/s | -43.9°C | 2.6% | 12.1hPa | 2.7V | 08:30:00 | 02:09:52 | 00:00:00 | |
| DO2JMG | 2026-08-31 12:27:47 | 51.82714 | 8.08958 | 102° | 29km/h | 30186m | 6.2m/s | -43.9°C | 0% | 12.1hPa | 2.7V | 18:12:15 | 02:09:52 | 00:00:00 | |
| AA1-15 | 2026-08-31 12:27:46 | 51.82716 | 8.08933 | 93° | 31km/h | 30175m | 5.4m/s | -43.9°C | 0% | 12.2hPa | 2.6V | 18:12:15 | 02:09:50 | 00:00:00 | |
| DL1ZP-14 | 2026-08-31 12:27:46 | 51.82716 | 8.08933 | 93° | 29km/h | 30175m | 5.4m/s | -43.9°C | 0.6% | 12.2hPa | 2.6V | 00:00:00 | 00:00:00 | 00:00:00 | |
| BIOWL1-15 | 2026-08-31 12:27:44 | 51.82716 | 8.08921 | 94° | 29km/h | 30168m | 6.5m/s | -44°C | 0% | 12.2hPa | 2.6V | 18:12:15 | 02:09:49 | 00:00:00 | |
| DB0NH | 2026-08-31 12:27:43 | 51.82716 | 8.08910 | 93° | 22km/h | 30163m | 5.6m/s | -44.0°C | 2.6% | 12.1hPa | 2.7V | 00:00:00 | 02:09:48 | 00:00:00 | |
| GOEST3-10 | 2026-08-31 12:27:42 | 51.82716 | 8.08901 | 89° | 16km/h | 30158m | 5.3m/s | -44.1°C | 2.7% | 12.1hPa | 2.7V | 00:00:00 | 02:09:47 | 00:00:00 | |
| DK9SH | 2026-08-31 12:27:41 | 51.82716 | 8.08901 | 90° | 20km/h | 30158m | 5.3m/s | -44.1°C | 0.6% | 12.2hPa | 2.7V | 00:00:00 | 00:00:00 | 00:00:00 | |
| DL1NUX | 2026-08-31 12:27:40 | 51.82713 | 8.08883 | 49° | 15km/h | 30139m | 5.7m/s | -44.4°C | 2.7% | 12.2hPa | 2.7V | 08:30:00 | 02:09:44 | 00:00:00 | |
| DC6BW-12 | 2026-08-31 12:27:39 | 51.82714 | 8.08888 | 62° | 15km/h | 30145m | 6.8m/s | -44.3°C | 0.7% | 12.2hPa | 2.6V | 00:00:00 | 00:00:00 | 00:00:00 | |
| DM0DOS-11 | 2026-08-31 12:27:37 | 51.82709 | 8.08874 | 76° | 13km/h | 30129m | 4.5m/s | -44.2°C | 2.7% | 12.2hPa | 2.6V | 08:30:00 | 02:09:42 | 00:00:00 | |
| DO2JMG | 2026-08-31 12:27:37 | 51.82709 | 8.08874 | 76° | 13km/h | 30129m | 4.5m/s | -44.2°C | 0% | 12.2hPa | 2.6V | 18:12:15 | 02:09:42 | 00:00:00 | |
| AA1-15 | 2026-08-31 12:27:35 | 51.82710 | 8.08862 | 117° | 22km/h | 30117m | 6.5m/s | -44.2°C | 0% | 12.3hPa | 2.7V | 18:12:15 | 02:09:40 | 00:00:00 | |
| DJ2DS-15 | 2026-08-31 12:27:35 | 51.82710 | 8.08862 | 118° | 24km/h | 30117m | 6.5m/s | -44.2°C | 2.7% | 12.2hPa | 2.7V | 00:00:00 | 02:09:40 | 00:00:00 | |
| SMARD9-15 | 2026-08-31 12:27:33 | 51.82720 | 8.08829 | 106° | 35km/h | 30100m | 6.5m/s | -44.2°C | 0.6% | 12.3hPa | 2.7V | 00:00:00 | 00:00:00 | 00:00:00 | |
| GOEST3-10 | 2026-08-31 12:27:32 | 51.82720 | 8.08829 | 107° | 33km/h | 30100m | 6.4m/s | -44.2°C | 2.6% | 12.3hPa | 2.7V | 00:00:00 | 02:09:37 | 00:00:00 | |
| DL1XH1-15 | 2026-08-31 12:27:31 | 51.82721 | 8.08787 | 79° | 31km/h | 30083m | 5.1m/s | -44.5°C | 2.6% | 12.3hPa | 2.7V | 08:30:00 | 02:09:34 | 00:00:00 | |
| DO2JMG | 2026-08-31 12:27:27 | 51.82718 | 8.08766 | 80° | 22km/h | 30072m | 6.1m/s | -44.6°C | 0% | 12.3hPa | 2.7V | 18:12:15 | 02:09:32 | 00:00:00 | |
| HSKMA3-T | 2026-08-31 12:27:26 | 51.82717 | 8.08759 | 86° | 16km/h | 30066m | 5.6m/s | -44.6°C | 0% | 12.4hPa | 2.6V | 18:12:15 | 02:09:31 | 00:00:00 | |
| AA1-15 | 2026-08-31 12:27:25 | 51.82717 | 8.08752 | 95° | 15km/h | 30061m | 5m/s | -44.5°C | 0% | 12.4hPa | 2.6V | 18:12:15 | 02:09:30 | 00:00:00 | |
| DL4XJ-10 | 2026-08-31 12:27:25 | 51.82717 | 8.08752 | 95° | 20km/h | 30061m | 5.0m/s | -43.7°C | 0% | 0hPa | 2.7V | 00:00:00 | 00:00:00 | 00:00:00 | |
| DO2SHX-10 | 2026-08-31 12:27:23 | 51.82718 | 8.08740 | 95° | 24km/h | 30050m | 6.0m/s | -44.6°C | 2.7% | 12.3hPa | 2.7V | 00:00:00 | 02:09:28 | 08:30:00 | |
| GOEST3-10 | 2026-08-31 12:27:22 | 51.82718 | 8.08733 | 88° | 20km/h | 30044m | 6.2m/s | -44.7°C | 2.7% | 12.4hPa | 2.7V | 00:00:00 | 02:09:27 | 00:00:00 | |
| DM0DOS-11 | 2026-08-31 12:27:21 | 51.82721 | 8.08694 | 113° | 22km/h | 30015m | 5.6m/s | -44.9°C | 2.7% | 12.4hPa | 2.7V | 08:30:00 | 02:09:22 | 00:00:00 | |
| DL1NUX | 2026-08-31 12:27:21 | 51.82718 | 8.08710 | 98° | 20km/h | 30027m | 5.7m/s | -44.7°C | 2.7% | 12.4hPa | 2.6V | 08:30:00 | 02:09:24 | 00:00:00 | |
| BIOWL1-15 | 2026-08-31 12:27:19 | 51.82721 | 8.08694 | 113° | 22km/h | 30015m | 5.6m/s | -44.9°C | 0% | 12.4hPa | 2.7V | 18:12:15 | 02:09:22 | 00:00:00 | |
| DO2JMG | 2026-08-31 12:27:16 | 51.82723 | 8.08685 | 109° | 24km/h | 30010m | 5.2m/s | -44.9°C | 0% | 12.5hPa | 2.7V | 18:12:15 | 02:09:21 | 00:00:00 | |
| DL1ZP-14 | 2026-08-31 12:27:15 | 51.82725 | 8.08666 | 87° | 24km/h | 29998m | 6.8m/s | -44.9°C | 0.7% | 12.5hPa | 2.6V | 00:00:00 | 00:00:00 | 00:00:00 | |
| AA1-15 | 2026-08-31 12:27:15 | 51.82722 | 8.08645 | 71° | 27km/h | 29986m | 5.1m/s | -45°C | 0% | 12.5hPa | 2.6V | 18:12:15 | 02:09:17 | 00:00:00 | |
| DB0ND-19 | 2026-08-31 12:27:14 | 51.82725 | 8.08666 | 87° | 24km/h | 29998m | 6.8m/s | -44.9°C | -1.0% | -1.0hPa | 2.6V | 00:00:00 | 00:00:00 | 00:00:00 | |
| DB0NH | 2026-08-31 12:27:13 | 51.82724 | 8.08656 | 76° | 24km/h | 29992m | 5.8m/s | -44.9°C | 2.7% | 12.4hPa | 2.6V | 00:00:00 | 02:09:18 | 00:00:00 | |
| GOEST3-10 | 2026-08-31 12:27:12 | 51.82722 | 8.08645 | 71° | 22km/h | 29986m | 5.0m/s | -45.0°C | 2.7% | 12.4hPa | 2.6V | 00:00:00 | 02:09:17 | 00:00:00 | |
| DJ2KF-10 | 2026-08-31 12:27:11 | 51.82720 | 8.08635 | 72° | 24km/h | 29981m | 5.1m/s | -45.1°C | 2.7% | 12.5hPa | 2.6V | 00:00:00 | 02:09:16 | 00:00:00 | |
| SONCRA | 2026-08-31 12:27:10 | 51.82718 | 8.08626 | 78° | 22km/h | 29975m | 6.6m/s | -45.2°C | 0.7% | 12.5hPa | 2.6V | 00:00:00 | 00:00:00 | 00:00:00 | |
| DL1XH-15 | 2026-08-31 12:27:08 | 51.82719 | 8.08602 | 99° | 18km/h | 29957m | 6m/s | -45.1°C | 2.8% | 12.5hPa | 2.6V | 08:30:00 | 02:09:12 | 00:00:00 | |
| BIOWL1-15 | 2026-08-31 12:27:07 | 51.82719 | 8.08602 | 100° | 18km/h | 29957m | 6m/s | -45.1°C | 0% | 12.5hPa | 2.6V | 18:12:15 | 02:09:12 | 00:00:00 | |
| DO2JMG | 2026-08-31 12:27:06 | 51.82720 | 8.08594 | 97° | 20km/h | 29951m | 6.7m/s | -45.2°C | 0% | 12.6hPa | 2.7V | 18:12:15 | 02:09:11 | 00:00:00 | |
| DL1XH-west | 2026-08-31 12:27:05 | 51.82720 | 8.08586 | 93° | 22km/h | 29944m | 5.9m/s | -45.2°C | 0% | 12.6hPa | 2.7V | 18:12:15 | 02:09:10 | 00:00:00 | |
| AA1-15 | 2026-08-31 12:27:03 | 51.82721 | 8.08568 | 97° | 24km/h | 29933m | 6.3m/s | -45.3°C | 0% | 12.6hPa | 2.6V | 18:12:15 | 02:09:08 | 00:00:00 | |
| DO2JMG | 2026-08-31 12:26:56 | 51.82716 | 8.08492 | 76° | 29km/h | 29891m | 6.5m/s | -45.6°C | 0% | 12.7hPa | 2.7V | 18:12:15 | 02:09:01 | 00:00:00 | |
| HSKMA3-T | 2026-08-31 12:26:55 | 51.82715 | 8.08481 | 84° | 27km/h | 29885m | 6.2m/s | -45.7°C | 0% | 12.7hPa | 2.6V | 18:12:15 | 02:09:00 | 00:00:00 | |
| DL1XH-west | 2026-08-31 12:26:54 | 51.82714 | 8.08470 | 90° | 26km/h | 29880m | 5.1m/s | -45.6°C | 0% | 12.7hPa | 2.6V | 18:12:15 | 02:08:59 | 00:00:00 | |
| AA1-15 | 2026-08-31 12:26:53 | 51.82715 | 8.08459 | 94° | 26km/h | 29874m | 5.1m/s | -45.5°C | 0% | 12.7hPa | 2.6V | 18:12:15 | 02:08:58 | 00:00:00 | |
| GOEST3-10 | 2026-08-31 12:26:52 | 51.82715 | 8.08449 | 91° | 20km/h | 29869m | 6.2m/s | -45.5°C | 2.8% | 12.7hPa | 2.7V | 00:00:00 | 02:08:57 | 08:30:00 | |
| DL1CLM-18 | 2026-08-31 12:26:51 | 51.82715 | 8.08449 | 91° | 24km/h | 29869m | 6.3m/s | -45.5°C | 0.7% | 12.7hPa | 2.6V | 00:00:00 | 00:00:00 | 00:00:00 | |
| DL1XH-15 | 2026-08-31 12:26:48 | 51.82711 | 8.08408 | 86° | 18km/h | 29840m | 6.2m/s | -45.6°C | 2.8% | 12.8hPa | 2.6V | 08:30:00 | 02:08:52 | 00:00:00 | |
| BIOWL1-15 | 2026-08-31 12:26:46 | 51.82711 | 8.08401 | 87° | 20km/h | 29834m | 5.3m/s | -45.6°C | 0% | 12.8hPa | 2.7V | 18:12:15 | 02:08:51 | 00:00:00 | |
| DO2JMG | 2026-08-31 12:26:45 | 51.82711 | 8.08392 | 81° | 22km/h | 29829m | 5m/s | -45.6°C | 0% | 12.8hPa | 2.7V | 18:12:15 | 02:08:50 | 00:00:00 | |
| DL1XH-west | 2026-08-31 12:26:44 | 51.82709 | 8.08382 | 72° | 27km/h | 29824m | 6.5m/s | -45.7°C | 0% | 12.8hPa | 2.7V | 18:12:15 | 02:08:49 | 00:00:00 | |
| AA1-15 | 2026-08-31 12:26:42 | 51.82702 | 8.08357 | 64° | 38km/h | 29811m | 5.7m/s | -45.7°C | 0% | 12.9hPa | 2.6V | 18:12:15 | 02:08:47 | 00:00:00 | |
| GOEST3-10 | 2026-08-31 12:26:42 | 51.82702 | 8.08357 | 64° | 38km/h | 29811m | 5.7m/s | -45.6°C | 2.9% | 12.8hPa | 2.6V | 00:00:00 | 02:08:47 | 00:00:00 | |
| DJ2KF-10 | 2026-08-31 12:26:41 | 51.82698 | 8.08343 | 66° | 33km/h | 29805m | 5.0m/s | -45.7°C | 2.8% | 12.8hPa | 2.6V | 00:00:00 | 02:08:46 | 00:00:00 | |
| DM0DOS-11 | 2026-08-31 12:26:40 | 51.82688 | 8.08285 | 80° | 33km/h | 29782m | 5.3m/s | -45.9°C | 3% | 12.9hPa | 2.6V | 08:30:00 | 02:08:42 | 00:00:00 | |
| BIOWL1-15 | 2026-08-31 12:26:37 | 51.82685 | 8.08262 | 70° | 27km/h | 29769m | 6.2m/s | -45.8°C | 0% | 12.9hPa | 2.6V | 18:12:15 | 02:08:40 | 00:00:00 | |
| DO2JMG | 2026-08-31 12:26:34 | 51.82682 | 8.08252 | 62° | 26km/h | 29763m | 5.6m/s | -45.8°C | 0% | 12.9hPa | 2.7V | 18:12:15 | 02:08:39 | 00:00:00 | |
| AA1-15 | 2026-08-31 12:26:32 | 51.82663 | 8.08201 | 61° | 33km/h | 29730m | 6.7m/s | -45.9°C | 0% | 13hPa | 2.7V | 18:12:15 | 02:08:33 | 00:00:00 | |
| DO2JMG | 2026-08-31 12:26:24 | 51.82641 | 8.08140 | 61° | 46km/h | 29706m | 5.5m/s | -46°C | 0% | 13.1hPa | 2.7V | 18:12:15 | 02:08:29 | 00:00:00 | |
| DL1XH1-15 | 2026-08-31 12:26:23 | 51.82618 | 8.08082 | 38° | 27km/h | 29677m | 6.8m/s | -46°C | 2.9% | 13.1hPa | 2.7V | 08:30:00 | 02:08:24 | 00:00:00 | |
| AA1-15 | 2026-08-31 12:26:22 | 51.82627 | 8.08099 | 59° | 29km/h | 29689m | 5.1m/s | -46.1°C | 0% | 13.1hPa | 2.7V | 18:12:15 | 02:08:26 | 00:00:00 | |
| DO2JMG | 2026-08-31 12:26:14 | 51.82585 | 8.08054 | 31° | 31km/h | 29647m | 5.4m/s | -46.2°C | 0% | 13.2hPa | 2.7V | 18:12:15 | 02:08:19 | 00:00:00 | |
| HSKMA3-T | 2026-08-31 12:26:13 | 51.82578 | 8.08047 | 35° | 35km/h | 29641m | 5.6m/s | -46.3°C | 0% | 13.2hPa | 2.7V | 18:12:15 | 02:08:18 | 00:00:00 | |
| AA1-15 | 2026-08-31 12:26:12 | 51.82570 | 8.08038 | 37° | 40km/h | 29635m | 7.3m/s | -46.3°C | 0% | 13.2hPa | 2.6V | 18:12:15 | 02:08:17 | 00:00:00 | |
| GOEST3-10 | 2026-08-31 12:26:12 | 51.82570 | 8.08038 | 38° | 42km/h | 29635m | 7.2m/s | -46.3°C | 3.0% | 13.2hPa | 2.7V | 00:00:00 | 02:08:17 | 00:00:00 | |
| DL1XH1-15 | 2026-08-31 12:26:10 | 51.82546 | 8.08003 | 45° | 42km/h | 29616m | 6.4m/s | -46.2°C | 3% | 13.3hPa | 2.7V | 08:30:00 | 02:08:14 | 00:00:00 | |
| DL1NUX | 2026-08-31 12:26:08 | 51.82539 | 8.07992 | 48° | 37km/h | 29609m | 6.6m/s | -46.1°C | 3% | 13.2hPa | 2.7V | 08:30:00 | 02:08:13 | 00:00:00 | |
| DJ8HS-15 | 2026-08-31 12:26:08 | 51.82539 | 8.07992 | 49° | 31km/h | 29610m | 6.5m/s | -46.1°C | 3.0% | 13.2hPa | 2.7V | 00:00:00 | 02:08:13 | 00:00:00 | |
| DD8BA-10 | 2026-08-31 12:26:07 | 51.82534 | 8.07982 | 48° | 27km/h | 29603m | 5.8m/s | -46.0°C | 3.0% | 13.2hPa | 2.6V | 00:00:00 | 00:00:00 | 00:00:00 | |
| DL4BBY-15 | 2026-08-31 12:26:06 | 51.82529 | 8.07974 | 43° | 31km/h | 29598m | 5.4m/s | -45.3°C | 0% | 0hPa | 2.6V | 00:00:00 | 00:00:00 | 00:00:00 | |
| DD1CC9-15 | 2026-08-31 12:26:05 | 51.82529 | 8.07974 | 43° | 24km/h | 29598m | 5.5m/s | -46.1°C | 0.8% | 13.3hPa | 2.6V | 00:00:00 | 00:00:00 | 00:00:00 | |
| SMARD9-10 | 2026-08-31 12:26:04 | 51.82524 | 8.07968 | 31° | 24km/h | 29592m | 6.7m/s | -46.1°C | 0.7% | 13.3hPa | 2.6V | 00:00:00 | 00:00:00 | 00:00:00 | |
| DL1NUX | 2026-08-31 12:26:03 | 51.82476 | 8.07950 | 23° | 37km/h | 29548m | 6.7m/s | -46°C | 2.9% | 13.4hPa | 2.6V | 08:30:00 | 02:08:03 | 00:00:00 | |
| DL1XH1-15 | 2026-08-31 12:26:03 | 51.82484 | 8.07955 | 17° | 31km/h | 29554m | 5.5m/s | -46°C | 2.9% | 13.4hPa | 2.6V | 08:30:00 | 02:08:04 | 00:00:00 | |
| DO2JMG | 2026-08-31 12:26:03 | 51.82512 | 8.07962 | 10° | 27km/h | 29578m | 6.1m/s | -46.1°C | 0% | 13.3hPa | 2.7V | 18:12:15 | 02:08:08 | 00:00:00 | |
| BIOWL1-15 | 2026-08-31 12:26:03 | 51.82491 | 8.07958 | 10° | 27km/h | 29560m | 6m/s | -46°C | 0% | 13.3hPa | 2.6V | 18:12:15 | 02:08:05 | 00:00:00 | |
| HSKMA3-T | 2026-08-31 12:26:02 | 51.82505 | 8.07960 | 5° | 27km/h | 29572m | 5.8m/s | -46.1°C | 0% | 13.3hPa | 2.7V | 18:12:15 | 02:08:07 | 00:00:00 | |
| AA1-15 | 2026-08-31 12:26:01 | 51.82498 | 8.07959 | 5° | 27km/h | 29566m | 6.9m/s | -46.1°C | 0% | 13.3hPa | 2.7V | 18:12:15 | 02:08:06 | 00:00:00 | |
| DL1XH-west | 2026-08-31 12:25:52 | 51.82426 | 8.07898 | 32° | 27km/h | 29511m | 5.6m/s | -45.8°C | 0% | 13.4hPa | 2.7V | 18:12:15 | 02:07:57 | 00:00:00 | |
| AA1-15 | 2026-08-31 12:25:51 | 51.82421 | 8.07893 | 24° | 26km/h | 29505m | 6.3m/s | -45.8°C | 0% | 13.5hPa | 2.7V | 18:12:15 | 02:07:56 | 00:00:00 | |
| DL1XH1-15 | 2026-08-31 12:25:50 | 51.82408 | 8.07888 | 4° | 27km/h | 29492m | 6.2m/s | -45.6°C | 2.8% | 13.5hPa | 2.6V | 08:30:00 | 02:07:54 | 00:00:00 | |
| BIOWL1-15 | 2026-08-31 12:25:49 | 51.82394 | 8.07888 | 356° | 29km/h | 29481m | 6.1m/s | -45.6°C | 0% | 13.5hPa | 2.7V | 18:12:15 | 02:07:52 | 00:00:00 | |
| DL1XH-15 | 2026-08-31 12:25:49 | 51.82394 | 8.07889 | 355° | 29km/h | 29480m | 6.1m/s | -45.6°C | 2.8% | 13.5hPa | 2.7V | 08:30:00 | 02:07:52 | 00:00:00 | |
| DD1CC1-15 | 2026-08-31 12:25:49 | 51.82408 | 8.07888 | 6° | 27km/h | 29492m | 6.2m/s | -45.6°C | 0.7% | 13.5hPa | 2.6V | 00:00:00 | 00:00:00 | 00:00:00 | |
| DD8BA-10 | 2026-08-31 12:25:47 | 51.82394 | 8.07888 | 356° | 33km/h | 29481m | 6.0m/s | -45.6°C | 2.8% | 13.4hPa | 2.6V | 00:00:00 | 00:00:00 | 00:00:00 | |
| DL1NUX | 2026-08-31 12:25:45 | 51.82349 | 8.07871 | 30° | 42km/h | 29443m | 5.5m/s | -45.4°C | 2.8% | 13.6hPa | 2.6V | 08:30:00 | 02:07:46 | 00:00:00 | |
| DL1XH1-15 | 2026-08-31 12:25:44 | 51.82331 | 8.07853 | 32° | 37km/h | 29432m | 6.2m/s | -45.5°C | 2.8% | 13.6hPa | 2.7V | 08:30:00 | 02:07:44 | 00:00:00 | |
| DO2JMG | 2026-08-31 12:25:42 | 51.82358 | 8.07878 | 26° | 38km/h | 29449m | 6.9m/s | -45.4°C | 0% | 13.6hPa | 2.6V | 18:12:15 | 02:07:47 | 00:00:00 | |
| DL1XH-west | 2026-08-31 12:25:41 | 51.82349 | 8.07871 | 30° | 42km/h | 29443m | 5.5m/s | -45.4°C | 0% | 13.6hPa | 2.6V | 18:12:15 | 02:07:46 | 00:00:00 | |
| AA1-15 | 2026-08-31 12:25:40 | 51.82339 | 8.07862 | 32° | 42km/h | 29438m | 5m/s | -45.5°C | 0% | 13.6hPa | 2.7V | 18:12:15 | 02:07:45 | 00:00:00 | |
| DM0DOS-11 | 2026-08-31 12:25:40 | 51.82318 | 8.07841 | 20° | 24km/h | 29420m | 5.8m/s | -45.6°C | 2.8% | 13.6hPa | 2.6V | 08:30:00 | 02:07:42 | 00:00:00 | |
| BIOWL1-15 | 2026-08-31 12:25:37 | 51.82312 | 8.07839 | 5° | 22km/h | 29415m | 5.6m/s | -45.6°C | 0% | 13.6hPa | 2.6V | 18:12:15 | 02:07:41 | 00:00:00 | |
| DD8BA-10 | 2026-08-31 12:25:37 | 51.82318 | 8.07841 | 21° | 29km/h | 29421m | 5.7m/s | -45.5°C | 2.8% | 13.6hPa | 2.6V | 00:00:00 | 00:00:00 | 00:00:00 | |
| DL4BBY-15 | 2026-08-31 12:25:36 | 51.82312 | 8.07839 | 5° | 27km/h | 29416m | 5.6m/s | -44.8°C | 0% | 0hPa | 2.6V | 00:00:00 | 00:00:00 | 00:00:00 | |
| DJ2DS-15 | 2026-08-31 12:25:35 | 51.82306 | 8.07839 | 355° | 29km/h | 29409m | 6.6m/s | -45.4°C | 2.8% | 13.6hPa | 2.6V | 00:00:00 | 02:07:40 | 08:30:00 | |
| DL1XH1-15 | 2026-08-31 12:25:34 | 51.82260 | 8.07843 | 19° | 29km/h | 29374m | 6m/s | -45.5°C | 2.8% | 13.7hPa | 2.6V | 08:30:00 | 02:07:34 | 00:00:00 | |
| DL1XH-15 | 2026-08-31 12:25:32 | 51.82247 | 8.07831 | 34° | 35km/h | 29362m | 5.7m/s | -45.7°C | 2.8% | 13.7hPa | 2.7V | 08:30:00 | 02:07:32 | 00:00:00 | |
| DL1NUX | 2026-08-31 12:25:32 | 51.82275 | 8.07846 | 357° | 33km/h | 29386m | 5.9m/s | -45.4°C | 2.8% | 13.7hPa | 2.5V | 08:30:00 | 02:07:36 | 00:00:00 | |
| DL1XH-west | 2026-08-31 12:25:31 | 51.82275 | 8.07846 | 358° | 33km/h | 29386m | 5.9m/s | -45.4°C | 0% | 13.7hPa | 2.5V | 18:12:15 | 02:07:36 | 00:00:00 | |
| AA1-15 | 2026-08-31 12:25:30 | 51.82267 | 8.07846 | 7° | 29km/h | 29380m | 6.2m/s | -45.4°C | 0% | 13.7hPa | 2.6V | 18:12:15 | 02:07:35 | 00:00:00 | |
| DL8DAS-14 | 2026-08-31 12:25:29 | 51.82260 | 8.07843 | 19° | 27km/h | 29374m | 6.1m/s | -45.5°C | 0.7% | 13.7hPa | 2.7V | 00:00:00 | 00:00:00 | 00:00:00 | |
| DL8DAS-15 | 2026-08-31 12:25:28 | 51.82260 | 8.07843 | 21° | 29km/h | 29374m | 6.1m/s | -45.5°C | 0.7% | 13.7hPa | 2.7V | 00:00:00 | 00:00:00 | 00:00:00 | |
| DD8BA-10 | 2026-08-31 12:25:27 | 51.82247 | 8.07831 | 35° | 29km/h | 29362m | 5.7m/s | -45.6°C | 2.8% | 13.7hPa | 2.7V | 00:00:00 | 00:00:00 | 00:00:00 | |
| DL1NUX | 2026-08-31 12:25:26 | 51.82202 | 8.07795 | 1° | 22km/h | 29327m | 5.7m/s | -45.4°C | 2.8% | 13.8hPa | 2.7V | 08:30:00 | 02:07:26 | 00:00:00 | |
| DB0UT-7 | 2026-08-31 12:25:26 | 51.82239 | 8.07823 | 34° | 24km/h | 29356m | 6.8m/s | -45.7°C | 2.9% | 13.7hPa | 2.6V | 00:00:00 | 02:07:31 | 00:00:00 | |
| BIOWL1-15 | 2026-08-31 12:25:25 | 51.82098 | 8.07764 | 350° | 18km/h | 29227m | 5.4m/s | -45.7°C | 0% | 14.1hPa | 2.6V | 18:12:15 | 02:07:08 | 00:00:00 | |
| DO1YAY-16 | 2026-08-31 12:25:25 | 51.82223 | 8.07807 | 27° | 37km/h | 29345m | 4.0m/s | -45.5°C | 0.7% | 13.8hPa | 2.6V | 00:00:00 | 00:00:00 | 00:00:00 | |
| SO1NDE-10 | 2026-08-31 12:25:24 | 51.82223 | 8.07807 | 28° | 22km/h | 29345m | 4.0m/s | -45.5°C | 2.9% | 13.7hPa | 2.6V | 00:00:00 | 02:07:29 | 00:00:00 | |
| GOEST3-10 | 2026-08-31 12:25:22 | 51.82208 | 8.07797 | 16° | 22km/h | 29334m | 6.6m/s | -45.4°C | 2.8% | 13.8hPa | 2.7V | 00:00:00 | 02:07:27 | 08:30:00 | |
| DL1XH1-15 | 2026-08-31 12:25:20 | 51.82192 | 8.07798 | 342° | 22km/h | 29317m | 5.1m/s | -45.6°C | 2.8% | 13.8hPa | 2.5V | 08:30:00 | 02:07:24 | 00:00:00 | |
| DO2JMG | 2026-08-31 12:25:20 | 51.82197 | 8.07796 | 348° | 20km/h | 29322m | 5m/s | -45.5°C | 0% | 13.8hPa | 2.6V | 18:12:15 | 02:07:25 | 00:00:00 | |
| AA1-15 | 2026-08-31 12:25:19 | 51.82192 | 8.07798 | 342° | 22km/h | 29317m | 5.1m/s | -45.6°C | 0% | 13.8hPa | 2.5V | 18:12:15 | 02:07:24 | 00:00:00 | |
| BIOWL1-15 | 2026-08-31 12:25:14 | 51.82094 | 8.07765 | 352° | 13km/h | 29222m | 4.8m/s | -45.8°C | 0% | 14hPa | 2.6V | 18:12:15 | 02:07:07 | 00:00:00 | |
| DJ2DS-15 | 2026-08-31 12:25:14 | 51.82151 | 8.07795 | 26° | 24km/h | 29284m | 6.3m/s | -45.5°C | 0.7% | 13.9hPa | 2.7V | 00:00:00 | 00:00:00 | 00:00:00 | |
| DL1XH1-15 | 2026-08-31 12:25:13 | 51.82134 | 8.07774 | 36° | 22km/h | 29261m | 5.1m/s | -45.3°C | 2.8% | 14hPa | 2.7V | 08:30:00 | 02:07:14 | 00:00:00 | |
| DL1NUX | 2026-08-31 12:25:12 | 51.82142 | 8.07785 | 43° | 20km/h | 29272m | 5.4m/s | -45.4°C | 2.7% | 13.9hPa | 2.6V | 08:30:00 | 02:07:16 | 00:00:00 | |
| DL1XH-west | 2026-08-31 12:25:11 | 51.82138 | 8.07779 | 44° | 20km/h | 29267m | 5.2m/s | -45.3°C | 0% | 14hPa | 2.7V | 18:12:15 | 02:07:15 | 00:00:00 | |
| DO2JMG | 2026-08-31 12:25:09 | 51.82134 | 8.07774 | 36° | 22km/h | 29261m | 5.1m/s | -45.3°C | 0% | 14hPa | 2.7V | 18:12:15 | 02:07:14 | 00:00:00 | |
| DL1XH-15 | 2026-08-31 12:25:08 | 51.82123 | 8.07765 | 15° | 27km/h | 29250m | 5.5m/s | -45.5°C | 2.8% | 14hPa | 2.6V | 08:30:00 | 02:07:12 | 00:00:00 | |
| HSKMA3-T | 2026-08-31 12:25:08 | 51.82129 | 8.07769 | 27° | 24km/h | 29256m | 6.5m/s | -45.4°C | 0% | 14hPa | 2.7V | 18:12:15 | 02:07:13 | 00:00:00 | |
| DD8BA-10 | 2026-08-31 12:25:07 | 51.82123 | 8.07765 | 16° | 20km/h | 29250m | 5.4m/s | -45.5°C | 2.8% | 14.0hPa | 2.6V | 00:00:00 | 00:00:00 | 00:00:00 | |
| DL4BBY-15 | 2026-08-31 12:25:06 | 51.82116 | 8.07763 | 6° | 15km/h | 29245m | 4.8m/s | -44.7°C | 0% | 0hPa | 2.6V | 00:00:00 | 00:00:00 | 00:00:00 | |
| DL1NUX | 2026-08-31 12:25:06 | 51.82091 | 8.07766 | 4° | 13km/h | 29217m | 5.3m/s | -45.8°C | 2.9% | 14.1hPa | 2.7V | 08:30:00 | 02:07:06 | 00:00:00 | |
| DL3AQ-11 | 2026-08-31 12:25:05 | 51.82103 | 8.07763 | 352° | 22km/h | 29233m | 6.4m/s | -45.6°C | 0.7% | 14.0hPa | 2.6V | 00:00:00 | 00:00:00 | 00:00:00 | |
| EDDB2-11 | 2026-08-31 12:25:04 | 51.82103 | 8.07763 | 352° | 22km/h | 29233m | 6.4m/s | -45.6°C | 0.7% | 14.0hPa | 2.6V | 00:00:00 | 00:00:00 | 00:00:00 | |
| DL1XH1-15 | 2026-08-31 12:25:00 | 51.82084 | 8.07763 | 24° | 16km/h | 29205m | 5.6m/s | -45.7°C | 2.9% | 14.1hPa | 2.6V | 08:30:00 | 02:07:04 | 00:00:00 | |
| DL1XH-west | 2026-08-31 12:25:00 | 51.82088 | 8.07765 | 15° | 15km/h | 29211m | 6.1m/s | -45.7°C | 0% | 14.1hPa | 2.7V | 18:12:15 | 02:07:05 | 00:00:00 | |
| DM0DOS-11 | 2026-08-31 12:24:59 | 51.82077 | 8.07756 | 32° | 16km/h | 29195m | 5.2m/s | -45.8°C | 2.9% | 14.1hPa | 2.7V | 08:30:00 | 02:07:02 | 00:00:00 | |
| DO2JMG | 2026-08-31 12:24:59 | 51.82084 | 8.07763 | 25° | 16km/h | 29205m | 5.6m/s | -45.7°C | 0% | 14.1hPa | 2.6V | 18:12:15 | 02:07:04 | 00:00:00 | |
| HSKMA3-T | 2026-08-31 12:24:58 | 51.82080 | 8.07760 | 30° | 16km/h | 29200m | 4.8m/s | -45.7°C | 0% | 14.1hPa | 2.6V | 18:12:15 | 02:07:03 | 00:00:00 | |
| BIOWL1-15 | 2026-08-31 12:24:57 | 51.82077 | 8.07756 | 32° | 16km/h | 29195m | 5.2m/s | -45.8°C | 0% | 14.1hPa | 2.7V | 18:12:15 | 02:07:02 | 00:00:00 | |
| BIOWL9-15 | 2026-08-31 12:24:55 | 51.82071 | 8.07750 | 31° | 9km/h | 29184m | 5.5m/s | -45.9°C | 0.7% | 14.1hPa | 2.6V | 00:00:00 | 00:00:00 | 00:00:00 | |
| DL3AQ-11 | 2026-08-31 12:24:54 | 51.82066 | 8.07746 | 21° | 13km/h | 29173m | 5.6m/s | -46.0°C | 0.7% | 14.2hPa | 2.6V | 00:00:00 | 00:00:00 | 00:00:00 | |
| DL1XH1-15 | 2026-08-31 12:24:53 | 51.82050 | 8.07739 | 5° | 16km/h | 29151m | 6.2m/s | -45.7°C | 2.8% | 14.2hPa | 2.6V | 08:30:00 | 02:06:54 | 00:00:00 | |
| DL1NUX | 2026-08-31 12:24:51 | 51.82058 | 8.07742 | 15° | 18km/h | 29161m | 5.1m/s | -45.8°C | 2.9% | 14.1hPa | 2.7V | 08:30:00 | 02:06:56 | 00:00:00 | |
| DO2JMG | 2026-08-31 12:24:50 | 51.82050 | 8.07739 | 6° | 16km/h | 29151m | 6.2m/s | -45.7°C | 0% | 14.2hPa | 2.6V | 18:12:15 | 02:06:54 | 00:00:00 | |
| DL1XH-15 | 2026-08-31 12:24:48 | 51.82043 | 8.07740 | 342° | 11km/h | 29139m | 4.9m/s | -45.7°C | 2.8% | 14.2hPa | 2.6V | 08:30:00 | 02:06:52 | 00:00:00 | |
| HSKMA3-T | 2026-08-31 12:24:48 | 51.82046 | 8.07739 | 353° | 13km/h | 29145m | 6.1m/s | -45.7°C | 0% | 14.2hPa | 2.5V | 18:12:15 | 02:06:53 | 00:00:00 | |
| BIOWL1-15 | 2026-08-31 12:24:47 | 51.82043 | 8.07740 | 343° | 11km/h | 29139m | 4.9m/s | -45.7°C | 0% | 14.2hPa | 2.6V | 18:12:15 | 02:06:52 | 00:00:00 | |
| DD8BA-10 | 2026-08-31 12:24:47 | 51.82043 | 8.07740 | 343° | 11km/h | 29139m | 4.9m/s | -45.6°C | 2.8% | 14.2hPa | 2.7V | 00:00:00 | 00:00:00 | 00:00:00 | |
| GOEST3-10 | 2026-08-31 12:24:46 | 51.82040 | 8.07741 | 345° | 13km/h | 29135m | 4.5m/s | -45.6°C | 2.8% | 14.2hPa | 2.7V | 00:00:00 | 00:00:00 | 00:00:00 | |
| DB0NH | 2026-08-31 12:24:43 | 51.82031 | 8.07740 | 14° | 11km/h | 29118m | 4.7m/s | -45.7°C | 2.9% | 14.2hPa | 2.7V | 00:00:00 | 02:06:48 | 00:00:00 | |
| DL1XH1-15 | 2026-08-31 12:24:40 | 51.82020 | 8.07737 | 11° | 7km/h | 29096m | 4.8m/s | -45.5°C | 2.8% | 14.3hPa | 2.7V | 08:30:00 | 02:06:44 | 00:00:00 | |
| DM0DOS-11 | 2026-08-31 12:24:39 | 51.82016 | 8.07734 | 26° | 13km/h | 29086m | 6.2m/s | -45.7°C | 2.8% | 14.3hPa | 2.7V | 08:30:00 | 02:06:42 | 00:00:00 | |
| DL1XH-west | 2026-08-31 12:24:39 | 51.82020 | 8.07737 | 12° | 7km/h | 29096m | 4.8m/s | -45.5°C | 0% | 14.3hPa | 2.7V | 18:12:15 | 02:06:44 | 00:00:00 | |
| DO2JMG | 2026-08-31 12:24:38 | 51.82018 | 8.07736 | 20° | 9km/h | 29091m | 4.9m/s | -45.6°C | 0% | 14.3hPa | 2.7V | 18:12:15 | 02:06:43 | 00:00:00 | |
| AA1-15 | 2026-08-31 12:24:37 | 51.82016 | 8.07734 | 26° | 13km/h | 29086m | 6.2m/s | -45.7°C | 0% | 14.3hPa | 2.7V | 18:12:15 | 02:06:42 | 00:00:00 | |
| GOEST3-10 | 2026-08-31 12:24:36 | 51.82012 | 8.07731 | 26° | 15km/h | 29080m | 5.4m/s | -45.7°C | 2.8% | 14.3hPa | 2.6V | 00:00:00 | 00:00:00 | 08:30:00 | |
| DJ2DS-15 | 2026-08-31 12:24:35 | 51.82008 | 8.07729 | 23° | 9km/h | 29075m | 4.7m/s | -45.7°C | 2.8% | 14.3hPa | 2.6V | 00:00:00 | 02:06:40 | 00:00:00 | |
| DC6BW-12 | 2026-08-31 12:24:34 | 51.82008 | 8.07729 | 24° | 16km/h | 29075m | 4.8m/s | -45.7°C | 0.7% | 14.4hPa | 2.6V | 00:00:00 | 00:00:00 | 00:00:00 | |
| DL1XH1-15 | 2026-08-31 12:24:33 | 51.81990 | 8.07723 | 26° | 11km/h | 29042m | 5.3m/s | -45.7°C | 2.8% | 14.4hPa | 2.6V | 08:30:00 | 02:06:34 | 00:00:00 | |
| DL1XH-west | 2026-08-31 12:24:29 | 51.81988 | 8.07720 | 36° | 11km/h | 29038m | 4.5m/s | -45.7°C | 0% | 14.4hPa | 2.6V | 18:12:15 | 02:06:33 | 00:00:00 | |
| DL1XH-15 | 2026-08-31 12:24:28 | 51.81986 | 8.07718 | 44° | 9km/h | 29033m | 4.7m/s | -45.8°C | 2.8% | 14.4hPa | 2.7V | 08:30:00 | 02:06:32 | 00:00:00 | |
| DO2JMG | 2026-08-31 12:24:27 | 51.81986 | 8.07718 | 45° | 9km/h | 29033m | 4.7m/s | -45.8°C | 0% | 14.4hPa | 2.7V | 18:12:15 | 02:06:32 | 00:00:00 | |
| BIOWL1-15 | 2026-08-31 12:24:26 | 51.81985 | 8.07716 | 49° | 5km/h | 29027m | 6.3m/s | -45.8°C | 0% | 14.5hPa | 2.7V | 18:12:15 | 02:06:31 | 00:00:00 | |
| DB0UT-7 | 2026-08-31 12:24:26 | 51.81984 | 8.07716 | 50° | 11km/h | 29028m | 6.3m/s | -45.7°C | 2.7% | 14.4hPa | 2.7V | 00:00:00 | 02:06:31 | 00:00:00 | |
| DL3AQ-11 | 2026-08-31 12:24:25 | 51.81984 | 8.07714 | 329° | 0km/h | 29017m | 4.5m/s | -45.9°C | 0.7% | 14.5hPa | 2.7V | 00:00:00 | 00:00:00 | 00:00:00 | |
| SO1NDE-10 | 2026-08-31 12:24:24 | 51.81984 | 8.07714 | 330° | 11km/h | 29017m | 4.4m/s | -45.8°C | 2.8% | 14.5hPa | 2.7V | 00:00:00 | 02:06:29 | 00:00:00 | |
| DD1CC1-15 | 2026-08-31 12:24:22 | 51.81984 | 8.07714 | 360° | 2km/h | 29012m | 4.8m/s | -46.0°C | 0.7% | 14.5hPa | 2.7V | 00:00:00 | 00:00:00 | 00:00:00 | |
| DL1XH1-15 | 2026-08-31 12:24:21 | 51.81975 | 8.07708 | 34° | 11km/h | 28990m | 5.8m/s | -46°C | 2.8% | 14.6hPa | 2.7V | 08:30:00 | 02:06:24 | 00:00:00 | |
| DL1XH-west | 2026-08-31 12:24:17 | 51.81972 | 8.07702 | 56° | 9km/h | 28979m | 4.7m/s | -46°C | 0% | 14.6hPa | 2.6V | 18:12:15 | 02:06:22 | 00:00:00 | |
| DO2JMG | 2026-08-31 12:24:16 | 51.81970 | 8.07698 | 61° | 13km/h | 28975m | 5.1m/s | -46.1°C | 0% | 14.6hPa | 2.7V | 18:12:15 | 02:06:21 | 00:00:00 | |
| HSKMA3-T | 2026-08-31 12:24:15 | 51.81968 | 8.07693 | 61° | 15km/h | 28969m | 6.1m/s | -46.1°C | 0% | 14.6hPa | 2.7V | 18:12:15 | 02:06:20 | 00:00:00 | |
| DJ2DS-15 | 2026-08-31 12:24:15 | 51.81968 | 8.07693 | 62° | 13km/h | 28969m | 6.0m/s | -46.1°C | 2.8% | 14.6hPa | 2.7V | 00:00:00 | 02:06:20 | 00:00:00 | |
| DL3AQ-11 | 2026-08-31 12:24:14 | 51.81965 | 8.07683 | 65° | 13km/h | 28959m | 4.2m/s | -46.3°C | 0.7% | 14.6hPa | 2.7V | 00:00:00 | 00:00:00 | 00:00:00 | |
| DB0NH | 2026-08-31 12:24:13 | 51.81965 | 8.07683 | 66° | 13km/h | 28960m | 4.1m/s | -46.3°C | 2.9% | 14.6hPa | 2.7V | 00:00:00 | 02:06:18 | 00:00:00 | |
| BUE01 | 2026-08-31 12:24:12 | 51.81964 | 8.07679 | 75° | 9km/h | 28955m | 5.2m/s | -46.2°C | 0.7% | 14.7hPa | 2.7V | 00:00:00 | 00:00:00 | 00:00:00 | |
| DF2AP-13 | 2026-08-31 12:24:11 | 51.81964 | 8.07675 | 99° | 15km/h | 28949m | 6.3m/s | -46.2°C | 2.8% | 14.6hPa | 2.7V | 00:00:00 | 02:06:16 | 00:00:00 | |
| DL1XH-15 | 2026-08-31 12:24:08 | 51.81966 | 8.07673 | 31° | 5km/h | 28928m | 6m/s | -46.7°C | 3% | 14.7hPa | 2.7V | 08:30:00 | 02:06:12 | 00:00:00 | |
| DO2JMG | 2026-08-31 12:24:06 | 51.81964 | 8.07671 | 37° | 11km/h | 28922m | 5m/s | -46.6°C | 0% | 14.7hPa | 2.6V | 18:12:15 | 02:06:11 | 00:00:00 | |
| BIOWL1-15 | 2026-08-31 12:24:06 | 51.81957 | 8.07650 | 87° | 18km/h | 28901m | 5m/s | -46.9°C | 0% | 14.8hPa | 2.6V | 18:12:15 | 02:06:07 | 00:00:00 | |
| HSKMA3-T | 2026-08-31 12:24:05 | 51.81962 | 8.07667 | 47° | 15km/h | 28918m | 4.5m/s | -46.6°C | 0% | 14.7hPa | 2.6V | 18:12:15 | 02:06:10 | 00:00:00 | |
| SONCRA | 2026-08-31 12:24:04 | 51.81958 | 8.07657 | 75° | 16km/h | 28907m | 5.8m/s | -46.8°C | 0.7% | 14.8hPa | 2.6V | 00:00:00 | 00:00:00 | 00:00:00 | |
| DJ2DS-15 | 2026-08-31 12:24:02 | 51.81957 | 8.07641 | 89° | 20km/h | 28897m | 4.4m/s | -46.9°C | 0.7% | 14.8hPa | 2.6V | 00:00:00 | 00:00:00 | 00:00:00 | |
| GOEST3-10 | 2026-08-31 12:24:01 | 51.81957 | 8.07641 | 90° | 20km/h | 28897m | 4.4m/s | -46.9°C | 3.0% | 14.7hPa | 2.6V | 00:00:00 | 02:06:06 | 00:00:00 | |
| DD1CC1-15 | 2026-08-31 12:24:00 | 51.81957 | 8.07641 | 91° | 22km/h | 28897m | 4.4m/s | -46.9°C | 0.7% | 14.8hPa | 2.6V | 00:00:00 | 00:00:00 | 00:00:00 | |
| DM0DOS-11 | 2026-08-31 12:23:59 | 51.81954 | 8.07608 | 74° | 15km/h | 28876m | 4.7m/s | -46.8°C | 3% | 14.8hPa | 2.6V | 08:30:00 | 02:06:02 | 00:00:00 | |
| DD8BA-10 | 2026-08-31 12:23:57 | 51.81954 | 8.07608 | 75° | 13km/h | 28876m | 4.7m/s | -46.7°C | 3.0% | 14.8hPa | 2.6V | 00:00:00 | 00:00:00 | 00:00:00 | |
| DL1NUX | 2026-08-31 12:23:56 | 51.81948 | 8.07593 | 36° | 15km/h | 28844m | 4.9m/s | -46.8°C | 3% | 14.9hPa | 2.6V | 08:30:00 | 02:05:56 | 00:00:00 | |
| DL1XH-west | 2026-08-31 12:23:56 | 51.81953 | 8.07603 | 80° | 11km/h | 28870m | 6.3m/s | -46.8°C | 0% | 14.8hPa | 2.6V | 18:12:15 | 02:06:01 | 00:00:00 | |
| DO2JMG | 2026-08-31 12:23:55 | 51.81953 | 8.07600 | 91° | 5km/h | 28865m | 5.6m/s | -46.8°C | 0% | 14.8hPa | 2.6V | 18:12:15 | 02:06:00 | 00:00:00 | |
| HSKMA3-T | 2026-08-31 12:23:54 | 51.81953 | 8.07598 | 72° | 2km/h | 28860m | 4.3m/s | -46.8°C | 0% | 14.9hPa | 2.7V | 18:12:15 | 02:05:59 | 00:00:00 | |
| BIOWL1-15 | 2026-08-31 12:23:52 | 51.81940 | 8.07575 | 71° | 20km/h | 28828m | 5.7m/s | -47°C | 0% | 14.9hPa | 2.7V | 18:12:15 | 02:05:53 | 00:00:00 | |
| DL1XH-west | 2026-08-31 12:23:47 | 51.81938 | 8.07558 | 80° | 24km/h | 28818m | 4.6m/s | -47°C | 0% | 15hPa | 2.7V | 18:12:15 | 02:05:51 | 00:00:00 | |
| DO2JMG | 2026-08-31 12:23:44 | 51.81934 | 8.07540 | 63° | 22km/h | 28807m | 5.4m/s | -47°C | 0% | 15hPa | 2.6V | 18:12:15 | 02:05:49 | 00:00:00 | |
| HSKMA3-T | 2026-08-31 12:23:43 | 51.81931 | 8.07533 | 53° | 20km/h | 28802m | 4.5m/s | -47.1°C | 0% | 15hPa | 2.6V | 18:12:15 | 02:05:48 | 00:00:00 | |
| DB0NH | 2026-08-31 12:23:43 | 51.81931 | 8.07533 | 54° | 22km/h | 28803m | 4.4m/s | -47.0°C | 3.0% | 14.9hPa | 2.7V | 00:00:00 | 02:05:48 | 00:00:00 | |
| DM0DOS-11 | 2026-08-31 12:23:41 | 51.81905 | 8.07516 | 26° | 27km/h | 28765m | 4.6m/s | -47.5°C | 3% | 15.1hPa | 2.7V | 08:30:00 | 02:05:41 | 00:00:00 | |
| BIOWL1-15 | 2026-08-31 12:23:39 | 51.81919 | 8.07522 | 3° | 13km/h | 28781m | 4.9m/s | -47.4°C | 0% | 15hPa | 2.6V | 18:12:15 | 02:05:44 | 00:00:00 | |
| DL1XH-west | 2026-08-31 12:23:35 | 51.81899 | 8.07510 | 36° | 29km/h | 28760m | 4m/s | -47.5°C | 0.1% | 15.1hPa | 2.7V | 18:12:15 | 02:05:40 | 00:00:00 | |
| DO2JMG | 2026-08-31 12:23:34 | 51.81894 | 8.07502 | 44° | 29km/h | 28755m | 5.5m/s | -47.4°C | 0.1% | 15.1hPa | 2.7V | 18:12:15 | 02:05:39 | 00:00:00 | |
| AA1-15 | 2026-08-31 12:23:33 | 51.81889 | 8.07494 | 51° | 27km/h | 28750m | 6m/s | -47.5°C | 0% | 15.1hPa | 2.6V | 18:12:15 | 02:05:38 | 00:00:00 | |
| HSKMA3-T | 2026-08-31 12:23:32 | 51.81885 | 8.07485 | 57° | 24km/h | 28744m | 4.7m/s | -47.5°C | 0% | 15.1hPa | 2.6V | 18:12:15 | 02:05:37 | 00:00:00 | |
| BIOWL1-15 | 2026-08-31 12:23:28 | 51.81868 | 8.07458 | 25° | 27km/h | 28724m | 5.3m/s | -47.7°C | 0% | 15.2hPa | 2.7V | 18:12:15 | 02:05:33 | 00:00:00 | |
| DJ8HS-15 | 2026-08-31 12:23:28 | 51.81868 | 8.07458 | 26° | 22km/h | 28724m | 5.2m/s | -47.7°C | 3.1% | 15.1hPa | 2.6V | 00:00:00 | 02:05:33 | 00:00:00 | |
| DB0DAN | 2026-08-31 12:23:25 | 51.81849 | 8.07451 | 1° | 20km/h | 28709m | 6.3m/s | -47.7°C | 0.7% | 15.21hPa | 2.6V | 00:00:00 | 00:00:00 | 00:00:00 | |
| DL1XH-west | 2026-08-31 12:23:24 | 51.81845 | 8.07451 | 358° | 16km/h | 28703m | 5.3m/s | -47.7°C | 0.1% | 15.2hPa | 2.7V | 18:12:15 | 02:05:29 | 00:00:00 | |
| DO2JMG | 2026-08-31 12:23:23 | 51.81841 | 8.07451 | 8° | 15km/h | 28698m | 4.3m/s | -47.7°C | 0.1% | 15.2hPa | 2.7V | 18:12:15 | 02:05:28 | 00:00:00 | |
| HSKMA3-T | 2026-08-31 12:23:22 | 51.81837 | 8.07449 | 22° | 16km/h | 28694m | 5.7m/s | -47.7°C | 0.1% | 15.2hPa | 2.7V | 18:12:15 | 02:05:27 | 00:00:00 | |
| GOEST3-10 | 2026-08-31 12:23:21 | 51.81833 | 8.07446 | 38° | 24km/h | 28688m | 5.5m/s | -47.7°C | 3.1% | 15.2hPa | 2.6V | 00:00:00 | 02:05:26 | 00:00:00 | |
| DL1XH1-15 | 2026-08-31 12:23:20 | 51.81821 | 8.07423 | 58° | 26km/h | 28671m | 6.1m/s | -47.7°C | 3.1% | 15.3hPa | 2.7V | 08:30:00 | 02:05:23 | 00:00:00 | |
| BIOWL1-15 | 2026-08-31 12:23:20 | 51.81822 | 8.07423 | 59° | 26km/h | 28671m | 6.1m/s | -47.7°C | 0.1% | 15.3hPa | 2.7V | 18:12:15 | 02:05:23 | 00:00:00 | |
| DO9LL-15 | 2026-08-31 12:23:18 | 51.81821 | 8.07423 | 59° | 24km/h | 28671m | 6.1m/s | -47.6°C | 3.1% | 15.2hPa | 2.6V | 00:00:00 | 02:05:23 | 00:00:00 | |
| GOEST3-10 | 2026-08-31 12:23:17 | 51.81815 | 8.07405 | 54° | 27km/h | 28661m | 4.6m/s | -47.7°C | 3.1% | 15.3hPa | 2.6V | 00:00:00 | 00:00:00 | 00:00:00 | |
| DD1CC3-15 | 2026-08-31 12:23:16 | 51.81814 | 8.07405 | 54° | 26km/h | 28661m | 4.6m/s | -47.7°C | 0.8% | 0hPa | 2.6V | 00:00:00 | 00:00:00 | 00:00:00 | |
| DJ2DS-15 | 2026-08-31 12:23:15 | 51.81810 | 8.07397 | 44° | 24km/h | 28656m | 5.5m/s | -47.7°C | 3.1% | 15.3hPa | 2.6V | 00:00:00 | 02:05:20 | 00:00:00 | |
| DL1XH1-15 | 2026-08-31 12:23:14 | 51.81777 | 8.07368 | 42° | 15km/h | 28620m | 4.5m/s | -48°C | 3.2% | 15.4hPa | 2.6V | 08:30:00 | 02:05:13 | 00:00:00 | |
| DL1XH-west | 2026-08-31 12:23:14 | 51.81799 | 8.07385 | 27° | 29km/h | 28644m | 4.6m/s | -47.9°C | 0.1% | 15.3hPa | 2.6V | 18:12:15 | 02:05:18 | 00:00:00 | |
| DO2JMG | 2026-08-31 12:23:12 | 51.81793 | 8.07380 | 21° | 26km/h | 28640m | 4.1m/s | -47.8°C | 0.1% | 15.4hPa | 2.7V | 18:12:15 | 02:05:17 | 00:00:00 | |
| AA1-15 | 2026-08-31 12:23:12 | 51.81787 | 8.07377 | 20° | 22km/h | 28635m | 6.2m/s | -47.8°C | 0.1% | 15.4hPa | 2.7V | 18:12:15 | 02:05:16 | 00:00:00 | |
| DJ2KF-10 | 2026-08-31 12:23:11 | 51.81787 | 8.07377 | 20° | 24km/h | 28635m | 6.2m/s | -47.8°C | 3.1% | 15.3hPa | 2.7V | 00:00:00 | 02:05:16 | 00:00:00 | |
| BUE01 | 2026-08-31 12:23:10 | 51.81783 | 8.07374 | 21° | 15km/h | 28629m | 5.6m/s | -47.9°C | 0.8% | 15.4hPa | 2.7V | 00:00:00 | 00:00:00 | 00:00:00 | |
| DL1XH-15 | 2026-08-31 12:23:08 | 51.81774 | 8.07364 | 44° | 18km/h | 28614m | 6.1m/s | -48°C | 3.2% | 15.4hPa | 2.7V | 08:30:00 | 02:05:12 | 00:00:00 | |
| BIOWL1-15 | 2026-08-31 12:23:08 | 51.81777 | 8.07368 | 43° | 15km/h | 28620m | 4.5m/s | -48°C | 0.1% | 15.4hPa | 2.6V | 18:12:15 | 02:05:13 | 00:00:00 | |
| DL1XH-west | 2026-08-31 12:23:03 | 51.81749 | 8.07331 | 36° | 26km/h | 28588m | 5.9m/s | -47.8°C | 0.1% | 15.5hPa | 2.7V | 18:12:15 | 02:05:07 | 00:00:00 | |
| DL1XH1-15 | 2026-08-31 12:23:02 | 51.81730 | 8.07313 | 24° | 22km/h | 28568m | 5.8m/s | -48.1°C | 3.1% | 15.5hPa | 2.7V | 08:30:00 | 02:05:03 | 00:00:00 | |
| DO2JMG | 2026-08-31 12:23:01 | 51.81744 | 8.07325 | 36° | 22km/h | 28583m | 5.1m/s | -47.9°C | 0.1% | 15.5hPa | 2.6V | 18:12:15 | 02:05:06 | 00:00:00 | |
| AA1-15 | 2026-08-31 12:23:00 | 51.81739 | 8.07321 | 32° | 20km/h | 28578m | 4.5m/s | -48°C | 0.1% | 15.5hPa | 2.6V | 18:12:15 | 02:05:05 | 00:00:00 | |
| BIOWL1-15 | 2026-08-31 12:22:59 | 51.81725 | 8.07309 | 22° | 26km/h | 28563m | 5.7m/s | -48.2°C | 0.1% | 15.6hPa | 2.6V | 18:12:15 | 02:05:02 | 00:00:00 | |
| DL1XH-15 | 2026-08-31 12:22:58 | 51.81725 | 8.07309 | 22° | 26km/h | 28563m | 5.7m/s | -48.2°C | 3.2% | 15.6hPa | 2.6V | 08:30:00 | 02:05:02 | 00:00:00 | |
| DO2JMG | 2026-08-31 12:22:51 | 51.81689 | 8.07288 | 17° | 24km/h | 28530m | 5.2m/s | -47.8°C | 0.1% | 15.6hPa | 2.7V | 18:12:15 | 02:04:56 | 00:00:00 | |
| BIOWL9-15 | 2026-08-31 12:22:51 | 51.81683 | 8.07285 | 18° | 26km/h | 28525m | 6.3m/s | -47.8°C | 0.8% | 15.6hPa | 2.6V | 00:00:00 | 00:00:00 | 00:00:00 | |
| DL1XH1-15 | 2026-08-31 12:22:50 | 51.81669 | 8.07278 | 18° | 31km/h | 28513m | 4.6m/s | -47.7°C | 3.1% | 15.7hPa | 2.6V | 08:30:00 | 02:04:53 | 00:00:00 | |
| HSKMA3-T | 2026-08-31 12:22:50 | 51.81683 | 8.07285 | 18° | 27km/h | 28524m | 6.3m/s | -47.8°C | 0.1% | 15.6hPa | 2.7V | 18:12:15 | 02:04:55 | 00:00:00 | |
| DJ2DS-15 | 2026-08-31 12:22:49 | 51.81676 | 8.07282 | 18° | 29km/h | 28519m | 5.5m/s | -47.7°C | 0.8% | 15.7hPa | 2.6V | 00:00:00 | 00:00:00 | 00:00:00 | |
| DL1XH-15 | 2026-08-31 12:22:48 | 51.81662 | 8.07274 | 18° | 29km/h | 28508m | 5.8m/s | -47.8°C | 3.1% | 15.7hPa | 2.6V | 08:30:00 | 02:04:52 | 00:00:00 | |
| BIOWL1-15 | 2026-08-31 12:22:46 | 51.81655 | 8.07271 | 17° | 26km/h | 28502m | 6.2m/s | -47.8°C | 0.1% | 15.7hPa | 2.6V | 18:12:15 | 02:04:51 | 00:00:00 | |
| GOEST3-10 | 2026-08-31 12:22:46 | 51.81655 | 8.07271 | 18° | 24km/h | 28503m | 6.2m/s | -47.7°C | 3.1% | 15.7hPa | 2.7V | 00:00:00 | 00:00:00 | 00:00:00 | |
| DL1XH1-15 | 2026-08-31 12:22:45 | 51.81606 | 8.07248 | 12° | 24km/h | 28459m | 6m/s | -47.9°C | 3.1% | 15.8hPa | 2.7V | 08:30:00 | 02:04:43 | 00:00:00 | |
| DL1XH-west | 2026-08-31 12:22:40 | 51.81619 | 8.07254 | 16° | 29km/h | 28470m | 4.7m/s | -47.9°C | 0% | 15.8hPa | 2.6V | 18:12:15 | 02:04:45 | 00:00:00 | |
| HSKMA3-T | 2026-08-31 12:22:40 | 51.81605 | 8.07248 | 13° | 24km/h | 28459m | 6m/s | -47.9°C | 0.1% | 15.8hPa | 2.7V | 18:12:15 | 02:04:43 | 00:00:00 | |
| DL1XH-15 | 2026-08-31 12:22:39 | 51.81599 | 8.07246 | 9° | 24km/h | 28454m | 5.1m/s | -48°C | 3.1% | 15.8hPa | 2.7V | 08:30:00 | 02:04:42 | 00:00:00 | |
| BIOWL1-15 | 2026-08-31 12:22:38 | 51.81594 | 8.07245 | 5° | 24km/h | 28449m | 4.9m/s | -48°C | 0.2% | 15.8hPa | 2.5V | 18:12:15 | 02:04:41 | 00:00:00 | |
| DO2JMG | 2026-08-31 12:22:30 | 51.81549 | 8.07251 | 340° | 27km/h | 28416m | 5.7m/s | -47.8°C | 0.1% | 15.9hPa | 2.5V | 18:12:15 | 02:04:35 | 00:00:00 | |
| DD1CC9-15 | 2026-08-31 12:22:29 | 51.81549 | 8.07251 | 341° | 27km/h | 28416m | 5.7m/s | -47.8°C | 0.8% | 15.9hPa | 2.7V | 00:00:00 | 00:00:00 | 00:00:00 | |
| DL1XH-15 | 2026-08-31 12:22:28 | 51.81531 | 8.07261 | 347° | 26km/h | 28399m | 6.4m/s | -48°C | 3.2% | 15.9hPa | 2.7V | 08:30:00 | 02:04:32 | 00:00:00 | |
| DL1XH1-15 | 2026-08-31 12:22:28 | 51.81537 | 8.07259 | 341° | 26km/h | 28405m | 5.2m/s | -48°C | 3.2% | 15.9hPa | 2.6V | 08:30:00 | 02:04:33 | 00:00:00 | |
| AA1-15 | 2026-08-31 12:22:28 | 51.81537 | 8.07259 | 342° | 26km/h | 28405m | 5.3m/s | -48°C | 0.1% | 15.9hPa | 2.6V | 18:12:15 | 02:04:33 | 00:00:00 | |
| HSKMA3-T | 2026-08-31 12:22:27 | 51.81531 | 8.07261 | 347° | 26km/h | 28399m | 6.4m/s | -48.1°C | 0.1% | 15.9hPa | 2.7V | 18:12:15 | 02:04:32 | 00:00:00 | |
| BIOWL1-15 | 2026-08-31 12:22:25 | 51.81518 | 8.07264 | 356° | 26km/h | 28389m | 5m/s | -48.2°C | 0.2% | 15.9hPa | 2.6V | 18:12:15 | 02:04:30 | 00:00:00 | |
| DL1LOL-11 | 2026-08-31 12:22:24 | 51.81518 | 8.07264 | 357° | 26km/h | 28389m | 5.0m/s | -48.2°C | 0.8% | 16.0hPa | 2.5V | 00:00:00 | 00:00:00 | 00:00:00 | |
| DL1XH1-15 | 2026-08-31 12:22:23 | 51.81478 | 8.07286 | 338° | 33km/h | 28348m | 5.5m/s | -48.2°C | 3.2% | 16.1hPa | 2.5V | 08:30:00 | 02:04:23 | 00:00:00 | |
| DO2JMG | 2026-08-31 12:22:19 | 51.81485 | 8.07281 | 336° | 29km/h | 28354m | 6.9m/s | -48.2°C | 0.1% | 16.1hPa | 2.6V | 18:12:15 | 02:04:24 | 00:00:00 | |
| DL1XH-15 | 2026-08-31 12:22:19 | 51.81470 | 8.07291 | 338° | 33km/h | 28343m | 5.1m/s | -48.2°C | 3.2% | 16.1hPa | 2.6V | 08:30:00 | 02:04:22 | 00:00:00 | |
| AA1-15 | 2026-08-31 12:22:17 | 51.81471 | 8.07291 | 338° | 33km/h | 28343m | 5.1m/s | -48.2°C | 0.1% | 16.1hPa | 2.6V | 18:12:15 | 02:04:22 | 00:00:00 | |
| BIOWL1-15 | 2026-08-31 12:22:17 | 51.81436 | 8.07316 | 345° | 20km/h | 28308m | 5.9m/s | -48°C | 0.1% | 16.2hPa | 2.6V | 18:12:15 | 02:04:16 | 00:00:00 | |
| HSKMA3-T | 2026-08-31 12:22:17 | 51.81463 | 8.07296 | 335° | 31km/h | 28337m | 6.6m/s | -48.1°C | 0.1% | 16.1hPa | 2.6V | 18:12:15 | 02:04:21 | 00:00:00 | |
| DO2JMG | 2026-08-31 12:22:09 | 51.81427 | 8.07320 | 339° | 18km/h | 28297m | 5.5m/s | -47.8°C | 0.1% | 16.2hPa | 2.7V | 18:12:15 | 02:04:14 | 00:00:00 | |
| DL1XH-west | 2026-08-31 12:22:08 | 51.81423 | 8.07324 | 327° | 16km/h | 28291m | 7m/s | -47.8°C | 0.1% | 16.2hPa | 2.7V | 18:12:15 | 02:04:13 | 00:00:00 | |
| DL1XH-15 | 2026-08-31 12:22:08 | 51.81420 | 8.07328 | 312° | 16km/h | 28285m | 6.4m/s | -47.9°C | 3.1% | 16.2hPa | 2.6V | 08:30:00 | 02:04:12 | 00:00:00 | |
| DJ8HS-15 | 2026-08-31 12:22:08 | 51.81423 | 8.07323 | 327° | 16km/h | 28292m | 6.9m/s | -47.8°C | 3.2% | 16.2hPa | 2.7V | 00:00:00 | 02:04:13 | 08:30:00 | |
| DM0DOS-11 | 2026-08-31 12:22:07 | 51.81411 | 8.07345 | 317° | 22km/h | 28266m | 5.9m/s | -48.1°C | 3.2% | 16.3hPa | 2.6V | 08:30:00 | 02:04:09 | 00:00:00 | |
| AA1-15 | 2026-08-31 12:22:06 | 51.81418 | 8.07333 | 307° | 18km/h | 28278m | 5.8m/s | -48°C | 0.2% | 16.2hPa | 2.5V | 18:12:15 | 02:04:11 | 00:00:00 | |
| HSKMA3-T | 2026-08-31 12:22:05 | 51.81415 | 8.07339 | 311° | 20km/h | 28272m | 6.6m/s | -48.1°C | 0.1% | 16.2hPa | 2.6V | 18:12:15 | 02:04:10 | 00:00:00 | |
| BIOWL1-15 | 2026-08-31 12:22:04 | 51.81411 | 8.07345 | 318° | 22km/h | 28266m | 5.9m/s | -48.1°C | 0.1% | 16.3hPa | 2.6V | 18:12:15 | 02:04:09 | 00:00:00 | |
| DO2JMG | 2026-08-31 12:21:59 | 51.81392 | 8.07373 | 316° | 16km/h | 28237m | 5.3m/s | -47.7°C | 0.1% | 16.4hPa | 2.6V | 18:12:15 | 02:04:04 | 00:00:00 | |
| DL1XH-15 | 2026-08-31 12:21:58 | 51.81386 | 8.07380 | 334° | 15km/h | 28224m | 6.2m/s | -47.7°C | 3.2% | 16.4hPa | 2.7V | 08:30:00 | 02:04:02 | 00:00:00 | |
| DL1XH-west | 2026-08-31 12:21:57 | 51.81386 | 8.07380 | 335° | 15km/h | 28225m | 6.2m/s | -47.7°C | 0.2% | 16.4hPa | 2.7V | 18:12:15 | 02:04:02 | 00:00:00 | |
| DM0DOS-11 | 2026-08-31 12:21:57 | 51.81377 | 8.07387 | 315° | 11km/h | 28208m | 6.8m/s | -47.6°C | 3.1% | 16.4hPa | 2.6V | 08:30:00 | 02:03:59 | 00:00:00 | |
| AA1-15 | 2026-08-31 12:21:56 | 51.81379 | 8.07385 | 333° | 13km/h | 28214m | 5.3m/s | -47.8°C | 0.2% | 16.4hPa | 2.7V | 18:12:15 | 02:04:00 | 00:00:00 | |
| HSKMA3-T | 2026-08-31 12:21:54 | 51.81377 | 8.07387 | 316° | 11km/h | 28208m | 6.8m/s | -47.6°C | 0.1% | 16.4hPa | 2.6V | 18:12:15 | 02:03:59 | 00:00:00 | |
| BIOWL1-15 | 2026-08-31 12:21:53 | 51.81376 | 8.07391 | 284° | 9km/h | 28201m | 6.5m/s | -47.5°C | 0.1% | 16.4hPa | 2.6V | 18:12:15 | 02:03:58 | 00:00:00 | |
| DL8DAS-14 | 2026-08-31 12:21:52 | 51.81375 | 8.07395 | 267° | 9km/h | 28196m | 5.1m/s | -47.5°C | 0.8% | 16.4hPa | 2.7V | 00:00:00 | 00:00:00 | 00:00:00 | |
| DO2SHX-10 | 2026-08-31 12:21:51 | 51.81375 | 8.07399 | 271° | 11km/h | 28191m | 4.4m/s | -47.5°C | 3.1% | 16.4hPa | 2.7V | 00:00:00 | 02:03:56 | 00:00:00 | |
| DC6BW-12 | 2026-08-31 12:21:50 | 51.81375 | 8.07399 | 271° | 11km/h | 28191m | 4.5m/s | -47.5°C | 0.8% | 16.5hPa | 2.6V | 00:00:00 | 00:00:00 | 00:00:00 | |
| DL1XH-15 | 2026-08-31 12:21:48 | 51.81368 | 8.07413 | 346° | 13km/h | 28168m | 5.1m/s | -47.4°C | 3.1% | 16.5hPa | 2.6V | 08:30:00 | 02:03:52 | 00:00:00 | |
| DO2JMG | 2026-08-31 12:21:48 | 51.81371 | 8.07411 | 335° | 13km/h | 28173m | 5.2m/s | -47.3°C | 0.1% | 16.5hPa | 2.6V | 18:12:15 | 02:03:53 | 00:00:00 | |
| DO9LL-15 | 2026-08-31 12:21:48 | 51.81371 | 8.07411 | 335° | 7km/h | 28174m | 5.2m/s | -47.3°C | 3.1% | 16.5hPa | 2.7V | 00:00:00 | 02:03:53 | 00:00:00 | |
| DM0DOS-11 | 2026-08-31 12:21:47 | 51.81361 | 8.07416 | 315° | 5km/h | 28151m | 5.7m/s | -47.3°C | 3.1% | 16.6hPa | 2.7V | 08:30:00 | 02:03:49 | 00:00:00 | |
| DL1XH-west | 2026-08-31 12:21:47 | 51.81365 | 8.07414 | 350° | 11km/h | 28163m | 6m/s | -47.5°C | 0.1% | 16.5hPa | 2.6V | 18:12:15 | 02:03:51 | 00:00:00 | |
| AA1-15 | 2026-08-31 12:21:44 | 51.81361 | 8.07416 | 315° | 5km/h | 28151m | 5.7m/s | -47.3°C | 0.1% | 16.6hPa | 2.7V | 18:12:15 | 02:03:49 | 00:00:00 | |
| HSKMA3-T | 2026-08-31 12:21:43 | 51.81360 | 8.07418 | 292° | 7km/h | 28145m | 5.4m/s | -47.3°C | 0% | 16.6hPa | 2.7V | 18:12:15 | 02:03:48 | 00:00:00 | |
| DO2JMG | 2026-08-31 12:21:38 | 51.81355 | 8.07433 | 292° | 7km/h | 28117m | 6.6m/s | -47.5°C | 0% | 16.6hPa | 2.7V | 18:12:15 | 02:03:43 | 00:00:00 | |
| DM0DOS-11 | 2026-08-31 12:21:37 | 51.81355 | 8.07433 | 57° | 7km/h | 28094m | 6.8m/s | -47.5°C | 3.1% | 16.7hPa | 2.6V | 08:30:00 | 02:03:39 | 00:00:00 | |
| DL1XH-west | 2026-08-31 12:21:36 | 51.81355 | 8.07435 | 99° | 4km/h | 28100m | 5m/s | -47.5°C | 0.1% | 16.7hPa | 2.6V | 18:12:15 | 02:03:40 | 00:00:00 | |
| BIOWL1-15 | 2026-08-31 12:21:33 | 51.81353 | 8.07431 | 38° | 11km/h | 28088m | 6.1m/s | -47.4°C | 0.1% | 16.7hPa | 2.7V | 18:12:15 | 02:03:38 | 00:00:00 | |
| DL1ZP-14 | 2026-08-31 12:21:33 | 51.81351 | 8.07428 | 25° | 13km/h | 28082m | 4.7m/s | -47.4°C | 0.8% | 16.7hPa | 2.7V | 00:00:00 | 00:00:00 | 00:00:00 | |
| DO2SHX-10 | 2026-08-31 12:21:32 | 51.81351 | 8.07428 | 26° | 11km/h | 28082m | 4.6m/s | -47.3°C | 3.1% | 16.7hPa | 2.7V | 00:00:00 | 02:03:37 | 08:30:00 | |
| DO3MHA-11 | 2026-08-31 12:21:31 | 51.81348 | 8.07426 | 18° | 7km/h | 28077m | 5.6m/s | -47.3°C | 3.1% | 16.7hPa | 2.6V | 00:00:00 | 02:03:36 | 00:00:00 | |
| DC6BW-12 | 2026-08-31 12:21:30 | 51.81348 | 8.07426 | 18° | 13km/h | 28077m | 5.7m/s | -47.4°C | 0.8% | 16.7hPa | 2.6V | 00:00:00 | 00:00:00 | 00:00:00 | |
| DO2SHX-10 | 2026-08-31 12:21:29 | 51.81343 | 8.07425 | 343° | 7km/h | 28065m | 5.7m/s | -47.2°C | 3.1% | 16.7hPa | 2.6V | 00:00:00 | 02:03:34 | 00:00:00 | |
| DJ8HS-15 | 2026-08-31 12:21:28 | 51.81341 | 8.07427 | 328° | 9km/h | 28059m | 5.5m/s | -47.2°C | 3.1% | 16.7hPa | 2.6V | 00:00:00 | 02:03:33 | 00:00:00 | |
| DM0DOS-11 | 2026-08-31 12:21:27 | 51.81335 | 8.07429 | 10° | 7km/h | 28036m | 5.1m/s | -47.2°C | 3.1% | 16.9hPa | 2.6V | 08:30:00 | 02:03:29 | 00:00:00 | |
| DO2JMG | 2026-08-31 12:21:27 | 51.81340 | 8.07428 | 332° | 5km/h | 28053m | 5.7m/s | -47.2°C | 0.1% | 16.8hPa | 2.7V | 18:12:15 | 02:03:32 | 00:00:00 | |
| DL1XH-west | 2026-08-31 12:21:24 | 51.81335 | 8.07429 | 11° | 7km/h | 28036m | 5.1m/s | -47.2°C | 0.1% | 16.9hPa | 2.6V | 18:12:15 | 02:03:29 | 00:00:00 | |
| DL1XH1-15 | 2026-08-31 12:21:23 | 51.81323 | 8.07422 | 33° | 15km/h | 28000m | 5.1m/s | -47.1°C | 3% | 16.9hPa | 2.6V | 08:30:00 | 02:03:23 | 00:00:00 | |
| AA1-15 | 2026-08-31 12:21:23 | 51.81333 | 8.07428 | 3° | 5km/h | 28029m | 6.9m/s | -47.2°C | 0.1% | 16.9hPa | 2.6V | 18:12:15 | 02:03:28 | 00:00:00 | |
| BIOWL1-15 | 2026-08-31 12:21:22 | 51.81332 | 8.07428 | 357° | 5km/h | 28023m | 6.2m/s | -47.2°C | 0% | 16.9hPa | 2.6V | 18:12:15 | 02:03:27 | 00:00:00 | |
| DO2JMG | 2026-08-31 12:21:17 | 51.81320 | 8.07419 | 38° | 15km/h | 27994m | 5.9m/s | -47.2°C | 0% | 17hPa | 2.6V | 18:12:15 | 02:03:22 | 00:00:00 | |
| DO3MHA-12 | 2026-08-31 12:21:17 | 51.81320 | 8.07419 | 38° | 11km/h | 27994m | 5.8m/s | -47.1°C | 3.0% | 16.9hPa | 2.7V | 00:00:00 | 02:03:22 | 00:00:00 | |
| DM0DOS-11 | 2026-08-31 12:21:15 | 51.81315 | 8.07409 | 66° | 9km/h | 27976m | 4.9m/s | -47.3°C | 3.1% | 17hPa | 2.7V | 08:30:00 | 02:03:19 | 00:00:00 | |
| DL1XH-west | 2026-08-31 12:21:13 | 51.81314 | 8.07405 | 65° | 9km/h | 27971m | 5.6m/s | -47.2°C | 0.1% | 17hPa | 2.7V | 18:12:15 | 02:03:18 | 00:00:00 | |
| AA1-15 | 2026-08-31 12:21:12 | 51.81313 | 8.07401 | 58° | 13km/h | 27965m | 6.6m/s | -47°C | 0.1% | 17hPa | 2.6V | 18:12:15 | 02:03:17 | 00:00:00 | |
| DO3MHA-11 | 2026-08-31 12:21:11 | 51.81311 | 8.07397 | 52° | 9km/h | 27959m | 5.7m/s | -46.9°C | 3.1% | 17.0hPa | 2.6V | 00:00:00 | 02:03:16 | 08:30:00 | |
| DL1XH1-15 | 2026-08-31 12:21:10 | 51.81303 | 8.07386 | 26° | 7km/h | 27943m | 6.7m/s | -47°C | 3% | 17.1hPa | 2.7V | 08:30:00 | 02:03:13 | 00:00:00 | |
| DL1XH-15 | 2026-08-31 12:21:08 | 51.81302 | 8.07386 | 337° | 5km/h | 27936m | 6.4m/s | -47°C | 3% | 17.1hPa | 2.7V | 08:30:00 | 02:03:12 | 00:00:00 | |
| DO2JMG | 2026-08-31 12:21:06 | 51.81301 | 8.07388 | 296° | 5km/h | 27931m | 5.6m/s | -47°C | 0.1% | 17.1hPa | 2.6V | 18:12:15 | 02:03:11 | 00:00:00 | |
| DM0DOS-11 | 2026-08-31 12:21:04 | 51.81299 | 8.07393 | 318° | 9km/h | 27919m | 6.7m/s | -46.9°C | 3% | 17.1hPa | 2.6V | 08:30:00 | 02:03:09 | 00:00:00 | |
| BIOWL1-15 | 2026-08-31 12:21:02 | 51.81295 | 8.07395 | 358° | 11km/h | 27907m | 5.1m/s | -47°C | 0% | 17.2hPa | 2.7V | 18:12:15 | 02:03:07 | 00:00:00 | |
| AA1-15 | 2026-08-31 12:21:01 | 51.81292 | 8.07395 | 10° | 9km/h | 27902m | 6m/s | -47.1°C | 0% | 17.2hPa | 2.7V | 18:12:15 | 02:03:06 | 00:00:00 | |
| DO3MHA-11 | 2026-08-31 12:21:01 | 51.81292 | 8.07395 | 11° | 13km/h | 27902m | 5.9m/s | -47.0°C | 3.0% | 17.2hPa | 2.6V | 00:00:00 | 02:03:06 | 00:00:00 | |
| DL1XH1-15 | 2026-08-31 12:20:59 | 51.81286 | 8.07389 | 46° | 13km/h | 27885m | 5.3m/s | -46.8°C | 3% | 17.3hPa | 2.6V | 08:30:00 | 02:03:03 | 00:00:00 | |
| DL1XH-15 | 2026-08-31 12:20:58 | 51.81284 | 8.07385 | 45° | 16km/h | 27878m | 7m/s | -46.8°C | 3% | 17.3hPa | 2.7V | 08:30:00 | 02:03:02 | 00:00:00 | |
| DO2JMG | 2026-08-31 12:20:56 | 51.81281 | 8.07380 | 44° | 18km/h | 27872m | 5.7m/s | -46.8°C | 0% | 17.3hPa | 2.7V | 18:12:15 | 02:03:01 | 00:00:00 | |
| EDDB2-11 | 2026-08-31 12:20:55 | 51.81277 | 8.07375 | 41° | 16km/h | 27867m | 4.5m/s | -46.8°C | 0.7% | 17.3hPa | 2.6V | 00:00:00 | 00:00:00 | 00:00:00 | |
| DL3AQ-11 | 2026-08-31 12:20:54 | 51.81272 | 8.07368 | 32° | 9km/h | 27855m | 6.3m/s | -46.8°C | -1.0% | 17.3hPa | 2.6V | 00:00:00 | 00:00:00 | 00:00:00 | |
| DL1XH1-15 | 2026-08-31 12:20:53 | 51.81264 | 8.07364 | 20° | 11km/h | 27826m | 5.4m/s | -46.9°C | 2.9% | 17.4hPa | 2.6V | 08:30:00 | 02:02:53 | 00:00:00 | |
| BIOWL1-15 | 2026-08-31 12:20:52 | 51.81269 | 8.07366 | 3° | 4km/h | 27844m | 5.2m/s | -46.9°C | 0% | 17.4hPa | 2.7V | 18:12:15 | 02:02:56 | 00:00:00 | |
| AA1-15 | 2026-08-31 12:20:51 | 51.81268 | 8.07366 | 6° | 5km/h | 27838m | 6.6m/s | -46.9°C | 0% | 17.4hPa | 2.7V | 18:12:15 | 02:02:55 | 00:00:00 | |
| DL8DAS-14 | 2026-08-31 12:20:50 | 51.81266 | 8.07365 | 16° | 7km/h | 27832m | 6.2m/s | -46.9°C | 0.7% | 17.4hPa | 2.6V | 00:00:00 | 00:00:00 | 00:00:00 | |
| SMARD9-15 | 2026-08-31 12:20:49 | 51.81266 | 8.07365 | 16° | 7km/h | 27832m | 6.2m/s | -46.9°C | 0.7% | -1.0hPa | 2.6V | 00:00:00 | 00:00:00 | 00:00:00 | |
| DL1XH-15 | 2026-08-31 12:20:48 | 51.81261 | 8.07363 | 20° | 11km/h | 27821m | 4.8m/s | -46.9°C | 2.9% | 17.4hPa | 2.6V | 08:30:00 | 02:02:52 | 00:00:00 | |
| DO2JMG | 2026-08-31 12:20:45 | 51.81257 | 8.07361 | 357° | 9km/h | 27810m | 6.4m/s | -47.1°C | 0% | 17.5hPa | 2.7V | 18:12:15 | 02:02:50 | 00:00:00 | |
| DO1YAY-16 | 2026-08-31 12:20:45 | 51.81257 | 8.07361 | 357° | 7km/h | 27810m | 6.4m/s | -47.1°C | 0.7% | 17.5hPa | 2.7V | 00:00:00 | 00:00:00 | 00:00:00 | |
| HSKMA3-T | 2026-08-31 12:20:40 | 51.81241 | 8.07361 | 32° | 15km/h | 27776m | 5m/s | -47.3°C | 0% | 17.5hPa | 2.7V | 18:12:15 | 02:02:44 | 00:00:00 | |
| DL1XH-15 | 2026-08-31 12:20:39 | 51.81237 | 8.07355 | 58° | 7km/h | 27763m | 6.5m/s | -47.4°C | 3.1% | 17.6hPa | 2.7V | 08:30:00 | 02:02:42 | 00:00:00 | |
| DB0NH | 2026-08-31 12:20:39 | 51.81238 | 8.07358 | 43° | 15km/h | 27770m | 6.3m/s | -47.3°C | 3.0% | 17.5hPa | 2.7V | 00:00:00 | 02:02:43 | 08:30:00 | |
| DL3AQ-11 | 2026-08-31 12:20:38 | 51.81237 | 8.07355 | 58° | 7km/h | 27764m | 6.5m/s | -47.4°C | -1.0% | 17.6hPa | 2.6V | 00:00:00 | 00:00:00 | 00:00:00 | |
| DM0DOS-11 | 2026-08-31 12:20:37 | 51.81235 | 8.07348 | 48° | 7km/h | 27746m | 6.4m/s | -47.6°C | 3% | 17.6hPa | 2.6V | 08:30:00 | 02:02:39 | 00:00:00 | |
| DO2JMG | 2026-08-31 12:20:34 | 51.81235 | 8.07348 | 49° | 7km/h | 27746m | 6.4m/s | -47.6°C | 0% | 17.6hPa | 2.6V | 18:12:15 | 02:02:39 | 00:00:00 | |
| DL1XH-west | 2026-08-31 12:20:31 | 51.81229 | 8.07345 | 354° | 9km/h | 27729m | 6.9m/s | -47.8°C | 0% | 17.7hPa | 2.7V | 18:12:15 | 02:02:36 | 00:00:00 | |
| AA1-15 | 2026-08-31 12:20:30 | 51.81224 | 8.07347 | 343° | 11km/h | 27717m | 5.1m/s | -48°C | 0% | 17.7hPa | 2.6V | 18:12:15 | 02:02:34 | 00:00:00 | |
| HSKMA3-T | 2026-08-31 12:20:30 | 51.81226 | 8.07346 | 341° | 11km/h | 27722m | 5.9m/s | -47.9°C | 0% | 17.7hPa | 2.6V | 18:12:15 | 02:02:35 | 00:00:00 | |
| DK9SH | 2026-08-31 12:20:29 | 51.81226 | 8.07346 | 342° | 11km/h | 27722m | 5.9m/s | -47.9°C | 0.8% | 17.7hPa | 2.7V | 00:00:00 | 00:00:00 | 00:00:00 | |
| DL1XH-15 | 2026-08-31 12:20:28 | 51.81217 | 8.07348 | 7° | 16km/h | 27705m | 6.4m/s | -48°C | 3.1% | 17.7hPa | 2.7V | 08:30:00 | 02:02:32 | 00:00:00 | |
| DJ8HS-15 | 2026-08-31 12:20:28 | 51.81221 | 8.07348 | 354° | 18km/h | 27712m | 5.5m/s | -48.0°C | 3.1% | 17.7hPa | 2.6V | 00:00:00 | 02:02:33 | 00:00:00 | |
| DM0DOS-11 | 2026-08-31 12:20:27 | 51.81204 | 8.07339 | 34° | 18km/h | 27689m | 6.2m/s | -47.9°C | 3.1% | 17.8hPa | 2.6V | 08:30:00 | 02:02:29 | 00:00:00 | |
| BIOWL1-15 | 2026-08-31 12:20:26 | 51.81212 | 8.07346 | 19° | 20km/h | 27699m | 5.6m/s | -47.9°C | 0% | 17.8hPa | 2.7V | 18:12:15 | 02:02:31 | 00:00:00 | |
| DO2JMG | 2026-08-31 12:20:23 | 51.81201 | 8.07335 | 44° | 15km/h | 27683m | 6m/s | -47.9°C | 0.1% | 17.8hPa | 2.6V | 18:12:15 | 02:02:28 | 00:00:00 | |
| HSKMA3-T | 2026-08-31 12:20:20 | 51.81194 | 8.07321 | 50° | 15km/h | 27666m | 6.1m/s | -48.2°C | 0.2% | 17.8hPa | 2.7V | 18:12:15 | 02:02:25 | 00:00:00 | |
| BIOWL1-15 | 2026-08-31 12:20:15 | 51.81134 | 8.07304 | 10° | 15km/h | 27574m | 5.2m/s | -48.2°C | 0.1% | 18.1hPa | 2.7V | 18:12:15 | 02:02:08 | 00:00:00 | |
| DJ2DS-15 | 2026-08-31 12:20:15 | 51.81176 | 8.07311 | 338° | 18km/h | 27639m | 5.5m/s | -48.3°C | 3.2% | 17.9hPa | 2.7V | 00:00:00 | 02:02:20 | 00:00:00 | |
| DO1YAY-16 | 2026-08-31 12:20:14 | 51.81172 | 8.07314 | 330° | 18km/h | 27633m | 4.8m/s | -48.3°C | 0.8% | 17.9hPa | 2.7V | 00:00:00 | 00:00:00 | 00:00:00 | |
| DL1XH1-15 | 2026-08-31 12:20:13 | 51.81142 | 8.07322 | 43° | 13km/h | 27601m | 6.3m/s | -48.3°C | 3.2% | 18hPa | 2.7V | 08:30:00 | 02:02:13 | 00:00:00 | |
| DO2JMG | 2026-08-31 12:20:13 | 51.81168 | 8.07319 | 332° | 22km/h | 27628m | 5.8m/s | -48.3°C | 0.2% | 17.9hPa | 2.7V | 18:12:15 | 02:02:18 | 00:00:00 | |
| HSKMA3-T | 2026-08-31 12:20:10 | 51.81142 | 8.07322 | 43° | 13km/h | 27601m | 6.3m/s | -48.3°C | 0.1% | 18hPa | 2.7V | 18:12:15 | 02:02:13 | 00:00:00 | |
| DO2JMG | 2026-08-31 12:20:03 | 51.81130 | 8.07304 | 354° | 18km/h | 27569m | 5.3m/s | -48.3°C | 0.1% | 18.1hPa | 2.7V | 18:12:15 | 02:02:07 | 00:00:00 | |
| DO3MHA-11 | 2026-08-31 12:20:01 | 51.81125 | 8.07306 | 345° | 20km/h | 27564m | 6.4m/s | -48.3°C | 3.2% | 18.1hPa | 2.6V | 00:00:00 | 02:02:06 | 00:00:00 | |
| DL1XH1-15 | 2026-08-31 12:19:59 | 51.81109 | 8.07318 | 331° | 26km/h | 27546m | 5.4m/s | -48.3°C | 3.2% | 18.2hPa | 2.6V | 08:30:00 | 02:02:03 | 00:00:00 | |
| AA1-15 | 2026-08-31 12:19:59 | 51.81115 | 8.07313 | 332° | 24km/h | 27551m | 5.5m/s | -48.3°C | 0.1% | 18.1hPa | 2.6V | 18:12:15 | 02:02:04 | 00:00:00 | |
| BIOWL1-15 | 2026-08-31 12:19:59 | 51.81103 | 8.07322 | 335° | 27km/h | 27540m | 6.3m/s | -48.4°C | 0.1% | 18.2hPa | 2.7V | 18:12:15 | 02:02:02 | 00:00:00 | |
| DL1XH-15 | 2026-08-31 12:19:58 | 51.81104 | 8.07322 | 335° | 27km/h | 27540m | 6.3m/s | -48.4°C | 3.2% | 18.2hPa | 2.7V | 08:30:00 | 02:02:02 | 00:00:00 | |
| DL1XH-west | 2026-08-31 12:19:58 | 51.81109 | 8.07318 | 332° | 26km/h | 27546m | 5.4m/s | -48.3°C | 0.1% | 18.2hPa | 2.6V | 18:12:15 | 02:02:03 | 00:00:00 | |
| DD8BA-10 | 2026-08-31 12:19:57 | 51.81103 | 8.07322 | 336° | 15km/h | 27540m | 6.3m/s | -48.4°C | 3.2% | 18.1hPa | 2.7V | 00:00:00 | 00:00:00 | 00:00:00 | |
| DB0UT-7 | 2026-08-31 12:19:56 | 51.81097 | 8.07326 | 340° | 16km/h | 27535m | 4.7m/s | -48.5°C | 3.2% | 18.2hPa | 2.5V | 00:00:00 | 00:00:00 | 00:00:00 | |
| DJ2DS-15 | 2026-08-31 12:19:55 | 51.81092 | 8.07330 | 343° | 15km/h | 27530m | 4.5m/s | -48.6°C | 3.2% | 18.2hPa | 2.5V | 00:00:00 | 02:02:00 | 00:00:00 | |
| DL1XH1-15 | 2026-08-31 12:19:53 | 51.81075 | 8.07329 | 352° | 16km/h | 27491m | 4.7m/s | -48.5°C | 3.2% | 18.3hPa | 2.5V | 08:30:00 | 02:01:53 | 00:00:00 | |
| DO2JMG | 2026-08-31 12:19:52 | 51.81083 | 8.07332 | 34° | 4km/h | 27512m | 5m/s | -48.6°C | 0.2% | 18.2hPa | 2.6V | 18:12:15 | 02:01:57 | 00:00:00 | |
| AA1-15 | 2026-08-31 12:19:49 | 51.81075 | 8.07329 | 353° | 16km/h | 27491m | 4.7m/s | -48.5°C | 0.2% | 18.3hPa | 2.5V | 18:12:15 | 02:01:53 | 00:00:00 | |
| DL1XH-15 | 2026-08-31 12:19:48 | 51.81070 | 8.07330 | 342° | 18km/h | 27486m | 4.6m/s | -48.5°C | 3.2% | 18.3hPa | 2.6V | 08:30:00 | 02:01:52 | 00:00:00 | |
| BIOWL1-15 | 2026-08-31 12:19:47 | 51.81070 | 8.07330 | 342° | 18km/h | 27486m | 4.6m/s | -48.6°C | 0.2% | 18.4hPa | 2.6V | 18:12:15 | 02:01:52 | 00:00:00 | |
| SMARD9-15 | 2026-08-31 12:19:47 | 51.81066 | 8.07333 | 332° | 18km/h | 27481m | 6.4m/s | 0°C | -1.0% | -1.0hPa | 2.6V | 00:00:00 | 00:00:00 | 00:00:00 | |
| DO2JMG | 2026-08-31 12:19:41 | 51.81047 | 8.07364 | 315° | 22km/h | 27453m | 4.5m/s | -48.6°C | 0.2% | 18.4hPa | 2.6V | 18:12:15 | 02:01:46 | 00:00:00 | |
| DO3MHA-11 | 2026-08-31 12:19:41 | 51.81047 | 8.07364 | 315° | 13km/h | 27453m | 4.4m/s | -48.5°C | 3.3% | 18.4hPa | 2.6V | 00:00:00 | 02:01:46 | 08:30:00 | |
| DL1XH1-15 | 2026-08-31 12:19:40 | 51.81039 | 8.07378 | 301° | 7km/h | 27437m | 6.6m/s | -48.4°C | 3.3% | 18.5hPa | 2.7V | 08:30:00 | 02:01:43 | 00:00:00 | |
| AA1-15 | 2026-08-31 12:19:39 | 51.81039 | 8.07378 | 301° | 7km/h | 27437m | 6.6m/s | -48.4°C | 0.2% | 18.5hPa | 2.7V | 18:12:15 | 02:01:43 | 00:00:00 | |
| DL1XH-15 | 2026-08-31 12:19:38 | 51.81039 | 8.07380 | 295° | 4km/h | 27431m | 5.5m/s | -48.4°C | 3.3% | 18.5hPa | 2.6V | 08:30:00 | 02:01:42 | 00:00:00 | |
| DL1XH-west | 2026-08-31 12:19:37 | 51.81036 | 8.07381 | 348° | 7km/h | 27420m | 6.2m/s | -48.4°C | 0.2% | 18.5hPa | 2.6V | 18:12:15 | 02:01:40 | 00:00:00 | |
| BIOWL1-15 | 2026-08-31 12:19:37 | 51.81021 | 8.07393 | 322° | 20km/h | 27398m | 5.9m/s | -48.3°C | 0.1% | 18.6hPa | 2.7V | 18:12:15 | 02:01:36 | 00:00:00 | |
| HSKMA3-T | 2026-08-31 12:19:36 | 51.81034 | 8.07382 | 343° | 15km/h | 27415m | 5.5m/s | -48.2°C | 0.1% | 18.5hPa | 2.6V | 18:12:15 | 02:01:39 | 00:00:00 | |
| DO2JMG | 2026-08-31 12:19:30 | 51.81017 | 8.07398 | 312° | 20km/h | 27392m | 5.3m/s | -48.2°C | 0.2% | 18.6hPa | 2.6V | 18:12:15 | 02:01:35 | 00:00:00 | |
| AA1-15 | 2026-08-31 12:19:28 | 51.81011 | 8.07411 | 306° | 20km/h | 27382m | 6.2m/s | -47.9°C | 0.1% | 18.6hPa | 2.6V | 18:12:15 | 02:01:33 | 00:00:00 | |
| DL1XH-15 | 2026-08-31 12:19:28 | 51.81009 | 8.07417 | 301° | 18km/h | 27376m | 4.6m/s | -47.9°C | 3.1% | 18.6hPa | 2.7V | 08:30:00 | 02:01:32 | 00:00:00 | |
| BIOWL1-15 | 2026-08-31 12:19:26 | 51.81007 | 8.07423 | 291° | 15km/h | 27372m | 4.5m/s | -47.8°C | 0.1% | 18.7hPa | 2.7V | 18:12:15 | 02:01:31 | 00:00:00 | |
| HSKMA3-T | 2026-08-31 12:19:25 | 51.81007 | 8.07432 | 241° | 9km/h | 27360m | 6.1m/s | -47.8°C | 0.1% | 18.7hPa | 2.5V | 18:12:15 | 02:01:29 | 00:00:00 | |
| DO2JMG | 2026-08-31 12:19:19 | 51.81004 | 8.07442 | 338° | 20km/h | 27335m | 5.7m/s | -47.9°C | 0% | 18.8hPa | 2.7V | 18:12:15 | 02:01:24 | 00:00:00 | |
| DL1XH-15 | 2026-08-31 12:19:18 | 51.80993 | 8.07451 | 329° | 27km/h | 27325m | 5.8m/s | -48.1°C | 3.1% | 18.8hPa | 2.6V | 08:30:00 | 02:01:22 | 00:00:00 | |
| AA1-15 | 2026-08-31 12:19:18 | 51.80999 | 8.07446 | 335° | 26km/h | 27330m | 5.1m/s | -48°C | 0% | 18.8hPa | 2.5V | 18:12:15 | 02:01:23 | 00:00:00 | |
| BIOWL1-15 | 2026-08-31 12:19:15 | 51.80983 | 8.07464 | 313° | 24km/h | 27314m | 5.1m/s | -48.1°C | 0.1% | 18.8hPa | 2.7V | 18:12:15 | 02:01:20 | 00:00:00 | |
| HSKMA3-T | 2026-08-31 12:19:14 | 51.80977 | 8.07477 | 303° | 16km/h | 27303m | 5.6m/s | -48.2°C | 0.2% | 18.9hPa | 2.7V | 18:12:15 | 02:01:18 | 00:00:00 | |
| DO2JMG | 2026-08-31 12:19:09 | 51.80973 | 8.07494 | 268° | 11km/h | 27282m | 6.3m/s | -48.5°C | 0.1% | 18.9hPa | 2.7V | 18:12:15 | 02:01:14 | 00:00:00 | |
| AA1-15 | 2026-08-31 12:19:07 | 51.80973 | 8.07504 | 265° | 15km/h | 27270m | 5.5m/s | -48.5°C | 0.2% | 19hPa | 2.7V | 18:12:15 | 02:01:12 | 00:00:00 | |
| DM0DOS-11 | 2026-08-31 12:19:07 | 51.80968 | 8.07531 | 282° | 15km/h | 27243m | 6.2m/s | -48.3°C | 3.2% | 19hPa | 2.7V | 08:30:00 | 02:01:07 | 00:00:00 | |
| BIOWL1-15 | 2026-08-31 12:19:05 | 51.80973 | 8.07515 | 288° | 15km/h | 27259m | 6.3m/s | -48.3°C | 0.1% | 19hPa | 2.6V | 18:12:15 | 02:01:10 | 00:00:00 | |
| DL1XH-west | 2026-08-31 12:19:05 | 51.80971 | 8.07521 | 297° | 15km/h | 27253m | 4.9m/s | -48.3°C | 0.2% | 19hPa | 2.6V | 18:12:15 | 02:01:09 | 00:00:00 | |
| HSKMA3-T | 2026-08-31 12:19:04 | 51.80970 | 8.07526 | 292° | 15km/h | 27248m | 4.4m/s | -48.3°C | 0.1% | 19hPa | 2.7V | 18:12:15 | 02:01:08 | 00:00:00 | |
| DJ2KF-10 | 2026-08-31 12:19:04 | 51.80971 | 8.07521 | 298° | 7km/h | 27253m | 4.8m/s | -48.3°C | 3.2% | 18.9hPa | 2.6V | 00:00:00 | 02:01:09 | 08:30:00 | |
| DO2SHX-10 | 2026-08-31 12:19:02 | 51.80969 | 8.07531 | 283° | 15km/h | 27243m | 6.2m/s | -48.3°C | 3.2% | 19.0hPa | 2.7V | 00:00:00 | 02:01:07 | 00:00:00 | |
| DO3MHA-11 | 2026-08-31 12:19:01 | 51.80968 | 8.07537 | 270° | 5km/h | 27238m | 4.9m/s | -48.2°C | 3.2% | 19.0hPa | 2.7V | 00:00:00 | 02:01:06 | 00:00:00 | |
| DD1CC9-15 | 2026-08-31 12:19:00 | 51.80968 | 8.07537 | 271° | 13km/h | 27238m | 4.9m/s | -48.2°C | 0.8% | 19.0hPa | 2.7V | 00:00:00 | 00:00:00 | 00:00:00 | |
| DL1XH-15 | 2026-08-31 12:18:58 | 51.80971 | 8.07547 | 121° | 4km/h | 27217m | 4.9m/s | -48.1°C | 3.1% | 19.1hPa | 2.7V | 08:30:00 | 02:01:02 | 00:00:00 | |
| DO2JMG | 2026-08-31 12:18:58 | 51.80970 | 8.07547 | 209° | 4km/h | 27223m | 5.9m/s | -48.1°C | 0.1% | 19.1hPa | 2.6V | 18:12:15 | 02:01:03 | 00:00:00 | |
| AA1-15 | 2026-08-31 12:18:57 | 51.80971 | 8.07547 | 122° | 4km/h | 27217m | 4.9m/s | -48.1°C | 0.1% | 19.1hPa | 2.7V | 18:12:15 | 02:01:02 | 00:00:00 | |
| DO3MHA-12 | 2026-08-31 12:18:57 | 51.80971 | 8.07547 | 122° | 4km/h | 27217m | 4.9m/s | -48.0°C | 3.1% | 19.0hPa | 2.6V | 00:00:00 | 02:01:02 | 00:00:00 | |
| DM0DOS-11 | 2026-08-31 12:18:56 | 51.80974 | 8.07545 | 222° | 4km/h | 27193m | 4m/s | -48.1°C | 3% | 19.2hPa | 2.6V | 08:30:00 | 02:00:57 | 00:00:00 | |
| DL1XH-west | 2026-08-31 12:18:55 | 51.80972 | 8.07544 | 183° | 4km/h | 27202m | 5.7m/s | -48°C | 0% | 19.2hPa | 2.5V | 18:12:15 | 02:00:59 | 00:00:00 | |
| BIOWL1-15 | 2026-08-31 12:18:54 | 51.80974 | 8.07545 | 223° | 4km/h | 27193m | 4m/s | -48.1°C | 0% | 19.2hPa | 2.6V | 18:12:15 | 02:00:57 | 00:00:00 | |
| HSKMA3-T | 2026-08-31 12:18:53 | 51.80973 | 8.07544 | 214° | 5km/h | 27198m | 4.5m/s | -48°C | 0% | 19.2hPa | 2.6V | 18:12:15 | 02:00:58 | 00:00:00 | |
| DO2SHX-10 | 2026-08-31 12:18:53 | 51.80973 | 8.07544 | 214° | 4km/h | 27198m | 4.4m/s | -48.0°C | 3.0% | 19.1hPa | 2.6V | 00:00:00 | 02:00:58 | 00:00:00 | |
| DL1XH1-15 | 2026-08-31 12:18:52 | 51.80972 | 8.07543 | 30° | 11km/h | 27172m | 5m/s | -48.6°C | 3.1% | 19.2hPa | 2.6V | 08:30:00 | 02:00:53 | 00:00:00 | |
| DO2JMG | 2026-08-31 12:18:48 | 51.80972 | 8.07543 | 30° | 11km/h | 27172m | 5m/s | -48.6°C | 0.1% | 19.2hPa | 2.6V | 18:12:15 | 02:00:53 | 00:00:00 | |
| AA1-15 | 2026-08-31 12:18:47 | 51.80967 | 8.07541 | 5° | 9km/h | 27163m | 4.8m/s | -48.9°C | 0.2% | 19.2hPa | 2.6V | 18:12:15 | 02:00:51 | 00:00:00 | |
| DL8DAS-14 | 2026-08-31 12:18:46 | 51.80965 | 8.07541 | 328° | 7km/h | 27157m | 6.3m/s | -48.9°C | 0.8% | 19.3hPa | 2.7V | 00:00:00 | 00:00:00 | 00:00:00 | |
| HTAHTA | 2026-08-31 12:18:45 | 51.80965 | 8.07541 | 328° | 7km/h | 27157m | 6.3m/s | -48.9°C | 0.8% | 19.3hPa | 2.7V | 00:00:00 | 00:00:00 | 00:00:00 | |
| HSKMA3-T | 2026-08-31 12:18:43 | 51.80963 | 8.07547 | 293° | 9km/h | 27147m | 4.1m/s | -48.7°C | 0.2% | 19.3hPa | 2.7V | 18:12:15 | 02:00:48 | 00:00:00 | |
| DL1XH-15 | 2026-08-31 12:18:42 | 51.80957 | 8.07544 | 96° | 9km/h | 27115m | 6.4m/s | -48.7°C | 3.3% | 19.4hPa | 2.7V | 08:30:00 | 02:00:42 | 00:00:00 | |
| BIOWL1-15 | 2026-08-31 12:18:41 | 51.80961 | 8.07552 | 333° | 5km/h | 27136m | 6m/s | -48.7°C | 0.3% | 19.4hPa | 2.6V | 18:12:15 | 02:00:46 | 00:00:00 | |
| DO2JMG | 2026-08-31 12:18:38 | 51.80958 | 8.07547 | 79° | 9km/h | 27120m | 5.4m/s | -48.7°C | 0.2% | 19.4hPa | 2.7V | 18:12:15 | 02:00:43 | 00:00:00 | |
| AA1-15 | 2026-08-31 12:18:36 | 51.80958 | 8.07540 | 106° | 9km/h | 27109m | 5.2m/s | -48.8°C | 0.2% | 19.4hPa | 2.5V | 18:12:15 | 02:00:41 | 00:00:00 | |
| DJ2DS-15 | 2026-08-31 12:18:35 | 51.80958 | 8.07536 | 100° | 9km/h | 27104m | 4.8m/s | -48.8°C | 3.3% | 19.4hPa | 2.6V | 00:00:00 | 02:00:40 | 00:00:00 | |
| DM0DOS-11 | 2026-08-31 12:18:34 | 51.80957 | 8.07524 | 54° | 11km/h | 27088m | 4.6m/s | -49°C | 3.3% | 19.5hPa | 2.7V | 08:30:00 | 02:00:37 | 00:00:00 | |
| DL1XH-west | 2026-08-31 12:18:33 | 51.80955 | 8.07521 | 37° | 9km/h | 27082m | 6.1m/s | -48.9°C | 0.2% | 19.5hPa | 2.7V | 18:12:15 | 02:00:36 | 00:00:00 | |
| HSKMA3-T | 2026-08-31 12:18:33 | 51.80957 | 8.07524 | 55° | 11km/h | 27088m | 4.6m/s | -49°C | 0.2% | 19.5hPa | 2.7V | 18:12:15 | 02:00:37 | 00:00:00 | |
| BIOWL1-15 | 2026-08-31 12:18:32 | 51.80953 | 8.07520 | 6° | 7km/h | 27076m | 5.8m/s | -48.8°C | 0.2% | 19.6hPa | 2.5V | 18:12:15 | 02:00:35 | 00:00:00 | |
| DO3MHA-11 | 2026-08-31 12:18:32 | 51.80955 | 8.07521 | 37° | 11km/h | 27083m | 6.0m/s | -48.9°C | 3.3% | 19.5hPa | 2.7V | 00:00:00 | 02:00:36 | 00:00:00 | |
| DL1XH-15 | 2026-08-31 12:18:30 | 51.80947 | 8.07521 | 3° | 9km/h | 27060m | 6.1m/s | -48.9°C | 3.2% | 19.6hPa | 2.7V | 08:30:00 | 02:00:32 | 00:00:00 | |
| DO2JMG | 2026-08-31 12:18:27 | 51.80947 | 8.07521 | 4° | 9km/h | 27061m | 6.1m/s | -48.9°C | 0.1% | 19.6hPa | 2.7V | 18:12:15 | 02:00:32 | 00:00:00 | |
| AA1-15 | 2026-08-31 12:18:25 | 51.80943 | 8.07517 | 47° | 11km/h | 27050m | 4.5m/s | -48.9°C | 0.2% | 19.6hPa | 2.7V | 18:12:15 | 02:00:30 | 00:00:00 | |
| GOEST3-10 | 2026-08-31 12:18:25 | 51.80943 | 8.07517 | 48° | 11km/h | 27051m | 4.5m/s | -48.9°C | 3.2% | 19.6hPa | 2.6V | 00:00:00 | 00:00:00 | 00:00:00 | |
| DC6BW-12 | 2026-08-31 12:18:24 | 51.80942 | 8.07517 | 48° | 11km/h | 27051m | 4.5m/s | -48.9°C | 0.9% | 19.6hPa | 2.6V | 00:00:00 | 00:00:00 | 00:00:00 | |
| DM0DOS-11 | 2026-08-31 12:18:23 | 51.80941 | 8.07505 | 96° | 11km/h | 27033m | 5.3m/s | -48.9°C | 3.3% | 19.6hPa | 2.6V | 08:30:00 | 02:00:27 | 00:00:00 | |
| DL1XH-west | 2026-08-31 12:18:23 | 51.80941 | 8.07509 | 87° | 11km/h | 27039m | 6.1m/s | -48.8°C | 0.2% | 19.6hPa | 2.6V | 18:12:15 | 02:00:28 | 00:00:00 | |
| BIOWL1-15 | 2026-08-31 12:18:22 | 51.80941 | 8.07495 | 80° | 15km/h | 27022m | 5.7m/s | -49°C | 0.2% | 19.7hPa | 2.7V | 18:12:15 | 02:00:25 | 00:00:00 | |
| HSKMA3-T | 2026-08-31 12:18:21 | 51.80941 | 8.07500 | 91° | 13km/h | 27028m | 5.9m/s | -49°C | 0.3% | 19.6hPa | 2.7V | 18:12:15 | 02:00:26 | 00:00:00 | |
| DO2SHX-10 | 2026-08-31 12:18:20 | 51.80941 | 8.07495 | 81° | 13km/h | 27022m | 5.7m/s | -49.0°C | 3.3% | 19.6hPa | 2.6V | 00:00:00 | 02:00:25 | 00:00:00 | |
| SMARD9-10 | 2026-08-31 12:18:19 | 51.80940 | 8.07495 | 81° | 13km/h | 27022m | 5.7m/s | -49.0°C | 0.8% | 19.7hPa | 2.6V | 00:00:00 | 00:00:00 | 00:00:00 | |
| DL1XH-15 | 2026-08-31 12:18:18 | 51.80938 | 8.07483 | 59° | 5km/h | 27007m | 6.4m/s | -49°C | 3.3% | 19.7hPa | 2.6V | 08:30:00 | 02:00:22 | 00:00:00 | |
| DO9LL-15 | 2026-08-31 12:18:18 | 51.80939 | 8.07485 | 66° | 7km/h | 27013m | 4.7m/s | -48.8°C | 3.3% | 19.7hPa | 2.6V | 00:00:00 | 02:00:23 | 08:30:00 | |
| DM0DOS-11 | 2026-08-31 12:18:17 | 51.80934 | 8.07480 | 46° | 11km/h | 26980m | 5.6m/s | -49°C | 3.4% | 19.8hPa | 2.5V | 08:30:00 | 02:00:17 | 00:00:00 | |
| DO2JMG | 2026-08-31 12:18:16 | 51.80938 | 8.07482 | 12° | 2km/h | 27001m | 5.5m/s | -48.9°C | 0.3% | 19.8hPa | 2.6V | 18:12:15 | 02:00:21 | 00:00:00 | |
| AA1-15 | 2026-08-31 12:18:14 | 51.80937 | 8.07483 | 343° | 4km/h | 26991m | 4.9m/s | -48.9°C | 0.3% | 19.8hPa | 2.7V | 18:12:15 | 02:00:19 | 00:00:00 | |
| DO2SHX-10 | 2026-08-31 12:18:14 | 51.80937 | 8.07483 | 344° | 5km/h | 26992m | 4.9m/s | -48.9°C | 3.4% | 19.7hPa | 2.7V | 00:00:00 | 02:00:19 | 08:30:00 | |
| DL1XH1-15 | 2026-08-31 12:18:13 | 51.80928 | 8.07463 | 71° | 9km/h | 26959m | 5.5m/s | -49°C | 3.3% | 19.9hPa | 2.7V | 08:30:00 | 02:00:13 | 00:00:00 | |
| DL1XH-west | 2026-08-31 12:18:13 | 51.80936 | 8.07482 | 26° | 5km/h | 26986m | 6.1m/s | -49°C | 0.3% | 19.8hPa | 2.7V | 18:12:15 | 02:00:18 | 00:00:00 | |
| HSKMA3-T | 2026-08-31 12:18:11 | 51.80929 | 8.07467 | 67° | 13km/h | 26965m | 6.4m/s | -49.1°C | 0.2% | 19.9hPa | 2.7V | 18:12:15 | 02:00:14 | 00:00:00 | |
| DO3MHA-11 | 2026-08-31 12:18:10 | 51.80930 | 8.07472 | 63° | 7km/h | 26971m | 4.7m/s | -49.0°C | 3.3% | 19.8hPa | 2.6V | 00:00:00 | 02:00:15 | 08:30:00 | |
| DO2SHX-10 | 2026-08-31 12:18:08 | 51.80928 | 8.07462 | 72° | 7km/h | 26959m | 5.5m/s | -49.0°C | 3.3% | 19.8hPa | 2.7V | 00:00:00 | 02:00:13 | 00:00:00 | |
| DM0DOS-11 | 2026-08-31 12:18:07 | 51.80922 | 8.07451 | 9° | 4km/h | 26928m | 5.5m/s | -48.9°C | 3.3% | 20hPa | 2.7V | 08:30:00 | 02:00:07 | 00:00:00 | |
| DO2JMG | 2026-08-31 12:18:06 | 51.80927 | 8.07458 | 58° | 5km/h | 26948m | 5.6m/s | -48.8°C | 0.2% | 19.9hPa | 2.6V | 18:12:15 | 02:00:11 | 00:00:00 | |
| DL4BBY-15 | 2026-08-31 12:18:06 | 51.80927 | 8.07458 | 58° | 9km/h | 26948m | 5.6m/s | -48.1°C | 0% | 0hPa | 2.6V | 00:00:00 | 00:00:00 | 00:00:00 | |
| GOEST3-10 | 2026-08-31 12:18:05 | 51.80926 | 8.07456 | 49° | 5km/h | 26943m | 5.9m/s | -48.7°C | 3.3% | 19.9hPa | 2.6V | 00:00:00 | 00:00:00 | 00:00:00 | |
| DO2SHX-10 | 2026-08-31 12:18:04 | 51.80925 | 8.07453 | 42° | 5km/h | 26937m | 4.8m/s | -48.7°C | 3.2% | 19.9hPa | 2.6V | 00:00:00 | 02:00:09 | 00:00:00 | |
| DL1XH1-15 | 2026-08-31 12:18:03 | 51.80919 | 8.07456 | 339° | 5km/h | 26906m | 6m/s | -48.6°C | 3.3% | 20.1hPa | 2.6V | 08:30:00 | 02:00:03 | 00:00:00 | |
| DL1XH-west | 2026-08-31 12:18:03 | 51.80923 | 8.07452 | 31° | 5km/h | 26932m | 4m/s | -48.8°C | 0.2% | 19.9hPa | 2.7V | 18:12:15 | 02:00:08 | 00:00:00 | |
| DJ2KF-10 | 2026-08-31 12:18:03 | 51.80923 | 8.07452 | 32° | 9km/h | 26933m | 3.9m/s | -48.7°C | 3.2% | 19.9hPa | 2.7V | 00:00:00 | 02:00:08 | 00:00:00 | |
| DL1XH-15 | 2026-08-31 12:18:01 | 51.80917 | 8.07456 | 12° | 9km/h | 26900m | 5.9m/s | -48.5°C | 3.3% | 20.1hPa | 2.7V | 08:30:00 | 02:00:02 | 00:00:00 | |
| HSKMA3-T | 2026-08-31 12:17:59 | 51.80920 | 8.07455 | 305° | 5km/h | 26912m | 4.3m/s | -48.7°C | 0.2% | 20hPa | 2.6V | 18:12:15 | 02:00:04 | 00:00:00 | |
| DO2JMG | 2026-08-31 12:17:55 | 51.80911 | 8.07453 | 21° | 13km/h | 26890m | 4.6m/s | -48.6°C | 0.2% | 20.1hPa | 2.6V | 18:12:15 | 02:00:00 | 00:00:00 | |
| DJ2DS-15 | 2026-08-31 12:17:55 | 51.80911 | 8.07453 | 21° | 9km/h | 26891m | 4.6m/s | -48.5°C | 3.3% | 20.0hPa | 2.5V | 00:00:00 | 02:00:00 | 00:00:00 | |
| DO2SHX-10 | 2026-08-31 12:17:54 | 51.80908 | 8.07451 | 15° | 9km/h | 26885m | 6.3m/s | -48.5°C | 3.3% | 20.1hPa | 2.5V | 00:00:00 | 01:59:59 | 00:00:00 | |
| DL1XH1-15 | 2026-08-31 12:17:53 | 51.80896 | 8.07453 | 346° | 7km/h | 26853m | 4.4m/s | -48.5°C | 3.1% | 20.2hPa | 2.5V | 08:30:00 | 01:59:53 | 00:00:00 | |
| AA1-15 | 2026-08-31 12:17:52 | 51.80904 | 8.07451 | 352° | 9km/h | 26874m | 4.6m/s | -48.6°C | 0.1% | 20.2hPa | 2.6V | 18:12:15 | 01:59:57 | 00:00:00 | |
| DD1CC8 | 2026-08-31 12:17:52 | 51.80904 | 8.07451 | 351° | 7km/h | 26875m | 4.6m/s | -48.6°C | 0.8% | 20.2hPa | 2.6V | 00:00:00 | 00:00:00 | 00:00:00 | |
| DL1XH-15 | 2026-08-31 12:17:51 | 51.80895 | 8.07454 | 311° | 5km/h | 26848m | 4.8m/s | -48.5°C | 3.1% | 20.3hPa | 2.6V | 08:30:00 | 01:59:52 | 00:00:00 | |
| HSKMA3-T | 2026-08-31 12:17:48 | 51.80896 | 8.07453 | 347° | 7km/h | 26853m | 4.4m/s | -48.5°C | 0.1% | 20.2hPa | 2.5V | 18:12:15 | 01:59:53 | 00:00:00 | |
| DO9LL-15 | 2026-08-31 12:17:48 | 51.80896 | 8.07453 | 347° | 13km/h | 26853m | 4.3m/s | -48.4°C | 3.1% | 20.2hPa | 2.6V | 00:00:00 | 01:59:53 | 00:00:00 | |
| DD8BA-10 | 2026-08-31 12:17:47 | 51.80895 | 8.07454 | 312° | 9km/h | 26849m | 4.8m/s | -48.4°C | 3.1% | 20.2hPa | 2.6V | 00:00:00 | 00:00:00 | 00:00:00 | |
| DM0DOS-11 | 2026-08-31 12:17:46 | 51.80894 | 8.07472 | 299° | 5km/h | 26820m | 6m/s | -48.7°C | 3.3% | 20.3hPa | 2.6V | 08:30:00 | 01:59:47 | 00:00:00 | |
| DO2JMG | 2026-08-31 12:17:45 | 51.80894 | 8.07460 | 262° | 11km/h | 26836m | 5.9m/s | -48.5°C | 0.1% | 20.3hPa | 2.7V | 18:12:15 | 01:59:50 | 00:00:00 | |
| BIOWL1-15 | 2026-08-31 12:17:44 | 51.80894 | 8.07465 | 263° | 11km/h | 26831m | 4.5m/s | -48.6°C | 0.1% | 20.3hPa | 2.7V | 18:12:15 | 01:59:49 | 00:00:00 | |
| DL1XH-west | 2026-08-31 12:17:41 | 51.80893 | 8.07473 | 0° | 7km/h | 26815m | 5.3m/s | -48.7°C | 0.2% | 20.4hPa | 2.6V | 18:12:15 | 01:59:46 | 00:00:00 | |
| DF2AP-13 | 2026-08-31 12:17:41 | 51.80893 | 8.07473 | 1° | 13km/h | 26815m | 5.2m/s | -48.7°C | 3.3% | 20.3hPa | 2.7V | 00:00:00 | 01:59:46 | 00:00:00 | |
| DL1XH-15 | 2026-08-31 12:17:40 | 51.80883 | 8.07469 | 352° | 9km/h | 26794m | 5.4m/s | -48.7°C | 3.3% | 20.4hPa | 2.7V | 08:30:00 | 01:59:42 | 00:00:00 | |
| HSKMA3-T | 2026-08-31 12:17:37 | 51.80883 | 8.07469 | 353° | 9km/h | 26794m | 5.4m/s | -48.7°C | 0.2% | 20.4hPa | 2.7V | 18:12:15 | 01:59:42 | 00:00:00 | |
| DD8BA-10 | 2026-08-31 12:17:37 | 51.80883 | 8.07469 | 353° | 13km/h | 26794m | 5.4m/s | -48.6°C | 3.3% | 20.3hPa | 2.7V | 00:00:00 | 00:00:00 | 00:00:00 | |
| DM0DOS-11 | 2026-08-31 12:17:36 | 51.80870 | 8.07484 | 315° | 15km/h | 26768m | 4.2m/s | -48.8°C | 3.2% | 20.5hPa | 2.7V | 08:30:00 | 01:59:37 | 00:00:00 | |
| DO2JMG | 2026-08-31 12:17:34 | 51.80875 | 8.07476 | 323° | 15km/h | 26779m | 5.9m/s | -48.9°C | 0.2% | 20.4hPa | 2.6V | 18:12:15 | 01:59:39 | 00:00:00 | |
| BIOWL1-15 | 2026-08-31 12:17:33 | 51.80866 | 8.07494 | 288° | 15km/h | 26758m | 6.8m/s | -48.8°C | 0.2% | 20.5hPa | 2.6V | 18:12:15 | 01:59:35 | 00:00:00 | |
| AA1-15 | 2026-08-31 12:17:31 | 51.80865 | 8.07505 | 279° | 13km/h | 26746m | 4.8m/s | -48.9°C | 0.2% | 20.6hPa | 2.6V | 18:12:15 | 01:59:33 | 00:00:00 | |
| DL1XH-15 | 2026-08-31 12:17:30 | 51.80864 | 8.07510 | 295° | 11km/h | 26741m | 6.2m/s | -48.9°C | 3.3% | 20.6hPa | 2.7V | 08:30:00 | 01:59:32 | 00:00:00 | |
| HSKMA3-T | 2026-08-31 12:17:27 | 51.80862 | 8.07513 | 327° | 11km/h | 26735m | 5.5m/s | -48.8°C | 0.3% | 20.6hPa | 2.7V | 18:12:15 | 01:59:31 | 00:00:00 | |
| DO2SHX-10 | 2026-08-31 12:17:27 | 51.80864 | 8.07510 | 296° | 11km/h | 26741m | 6.2m/s | -48.9°C | 3.3% | 20.5hPa | 2.7V | 00:00:00 | 01:59:32 | 00:00:00 | |
| DM0DOS-11 | 2026-08-31 12:17:26 | 51.80850 | 8.07521 | 326° | 15km/h | 26713m | 5.2m/s | -48.7°C | 3.3% | 20.7hPa | 2.6V | 08:30:00 | 01:59:27 | 00:00:00 | |
| DB0UT-7 | 2026-08-31 12:17:26 | 51.80862 | 8.07513 | 327° | 16km/h | 26735m | 5.4m/s | -48.8°C | 3.3% | 20.5hPa | 2.7V | 00:00:00 | 01:59:31 | 08:30:00 | |
| DO2SHX-10 | 2026-08-31 12:17:24 | 51.80856 | 8.07517 | 344° | 15km/h | 26725m | 5.6m/s | -48.7°C | 3.4% | 20.6hPa | 2.5V | 00:00:00 | 01:59:29 | 00:00:00 | |
| DL1XH1-15 | 2026-08-31 12:17:23 | 51.80836 | 8.07538 | 318° | 18km/h | 26691m | 4.5m/s | -49°C | 3.3% | 20.7hPa | 2.5V | 08:30:00 | 01:59:23 | 00:00:00 | |
| DO2JMG | 2026-08-31 12:17:23 | 51.80853 | 8.07519 | 336° | 15km/h | 26718m | 6.2m/s | -48.7°C | 0.2% | 20.6hPa | 2.5V | 18:12:15 | 01:59:28 | 00:00:00 | |
| AA1-15 | 2026-08-31 12:17:21 | 51.80843 | 8.07529 | 325° | 18km/h | 26702m | 6.4m/s | -49°C | 0.2% | 20.7hPa | 2.7V | 18:12:15 | 01:59:25 | 00:00:00 | |
| HSKMA3-T | 2026-08-31 12:17:17 | 51.80830 | 8.07550 | 292° | 18km/h | 26680m | 6.5m/s | -48.9°C | 0.2% | 20.8hPa | 2.6V | 18:12:15 | 01:59:21 | 00:00:00 | |
| DL1XH-west | 2026-08-31 12:17:15 | 51.80829 | 8.07557 | 283° | 16km/h | 26674m | 5.1m/s | -48.8°C | 0.2% | 20.8hPa | 2.7V | 18:12:15 | 01:59:20 | 00:00:00 | |
| DJ2DS-15 | 2026-08-31 12:17:15 | 51.80829 | 8.07556 | 284° | 16km/h | 26675m | 5.1m/s | -48.8°C | 3.3% | 20.7hPa | 2.7V | 00:00:00 | 01:59:20 | 00:00:00 | |
| DL1XH1-15 | 2026-08-31 12:17:13 | 51.80812 | 8.07573 | 336° | 18km/h | 26637m | 5.9m/s | -48.8°C | 3.3% | 20.9hPa | 2.7V | 08:30:00 | 01:59:13 | 00:00:00 | |
| DO2JMG | 2026-08-31 12:17:13 | 51.80827 | 8.07567 | 297° | 11km/h | 26664m | 6.4m/s | -48.9°C | 0.2% | 20.8hPa | 2.7V | 18:12:15 | 01:59:18 | 00:00:00 | |
| AA1-15 | 2026-08-31 12:17:09 | 51.80816 | 8.07571 | 349° | 15km/h | 26643m | 6.2m/s | -48.8°C | 0.2% | 20.9hPa | 2.7V | 18:12:15 | 01:59:14 | 00:00:00 | |
| BIOWL1-15 | 2026-08-31 12:17:08 | 51.80804 | 8.07582 | 324° | 24km/h | 26626m | 4.8m/s | -48.7°C | 0.2% | 20.9hPa | 2.5V | 18:12:15 | 01:59:11 | 00:00:00 | |
| HSKMA3-T | 2026-08-31 12:17:05 | 51.80799 | 8.07588 | 326° | 26km/h | 26621m | 5.5m/s | -48.5°C | 0.2% | 20.9hPa | 2.6V | 18:12:15 | 01:59:10 | 00:00:00 | |
| DL1XH-west | 2026-08-31 12:17:04 | 51.80793 | 8.07593 | 331° | 26km/h | 26615m | 5.3m/s | -48.5°C | 0.2% | 21hPa | 2.6V | 18:12:15 | 01:59:09 | 00:00:00 | |
| DM0DOS-11 | 2026-08-31 12:17:04 | 51.80783 | 8.07602 | 333° | 18km/h | 26605m | 4.4m/s | -48.5°C | 3.3% | 21hPa | 2.7V | 08:30:00 | 01:59:07 | 00:00:00 | |
| DL1XH1-15 | 2026-08-31 12:17:03 | 51.80773 | 8.07629 | 292° | 18km/h | 26578m | 4.7m/s | -48.4°C | 3.3% | 21.1hPa | 2.7V | 08:30:00 | 01:59:02 | 00:00:00 | |
| DO2JMG | 2026-08-31 12:17:02 | 51.80784 | 8.07602 | 333° | 18km/h | 26605m | 4.4m/s | -48.5°C | 0.2% | 21hPa | 2.7V | 18:12:15 | 01:59:07 | 00:00:00 | |
| DJ2KF-10 | 2026-08-31 12:17:02 | 51.80784 | 8.07601 | 334° | 16km/h | 26606m | 4.4m/s | -48.4°C | 3.3% | 21.0hPa | 2.7V | 00:00:00 | 01:59:07 | 00:00:00 | |
| DL1XH-15 | 2026-08-31 12:17:00 | 51.80773 | 8.07629 | 292° | 18km/h | 26578m | 4.7m/s | -48.4°C | 3.3% | 21.1hPa | 2.7V | 08:30:00 | 01:59:02 | 00:00:00 | |
| AA1-15 | 2026-08-31 12:16:59 | 51.80775 | 8.07622 | 286° | 18km/h | 26583m | 5.4m/s | -48.4°C | 0.2% | 21.1hPa | 2.6V | 18:12:15 | 01:59:03 | 00:00:00 | |
| BIOWL1-15 | 2026-08-31 12:16:58 | 51.80773 | 8.07629 | 292° | 18km/h | 26578m | 4.7m/s | -48.4°C | 0.3% | 21.1hPa | 2.7V | 18:12:15 | 01:59:02 | 00:00:00 | |
| HSKMA3-T | 2026-08-31 12:16:56 | 51.80768 | 8.07641 | 321° | 18km/h | 26566m | 5.9m/s | -48.4°C | 0.2% | 21.1hPa | 2.7V | 18:12:15 | 01:59:00 | 00:00:00 | |
| DB0DAN | 2026-08-31 12:16:55 | 51.80768 | 8.07641 | 321° | 18km/h | 26566m | 5.9m/s | -48.4°C | 0.8% | 21.12hPa | 2.7V | 00:00:00 | 00:00:00 | 00:00:00 | |
| DL1XH-west | 2026-08-31 12:16:54 | 51.80764 | 8.07646 | 331° | 22km/h | 26561m | 5.2m/s | -48.5°C | 0.2% | 21.1hPa | 2.5V | 18:12:15 | 01:58:59 | 00:00:00 | |
| DO2JMG | 2026-08-31 12:16:52 | 51.80753 | 8.07655 | 328° | 24km/h | 26549m | 6m/s | -48.5°C | 0.2% | 21.2hPa | 2.6V | 18:12:15 | 01:58:57 | 00:00:00 | |
| AA1-15 | 2026-08-31 12:16:49 | 51.80736 | 8.07672 | 331° | 15km/h | 26527m | 5.6m/s | -48.5°C | 0.1% | 21.3hPa | 2.5V | 18:12:15 | 01:58:53 | 00:00:00 | |
| DL1XH1-15 | 2026-08-31 12:16:48 | 51.80733 | 8.07676 | 320° | 13km/h | 26522m | 4.9m/s | -48.4°C | 3.2% | 21.3hPa | 2.6V | 08:30:00 | 01:58:52 | 00:00:00 | |
| BIOWL1-15 | 2026-08-31 12:16:47 | 51.80731 | 8.07680 | 304° | 13km/h | 26516m | 6.5m/s | -48.3°C | 0.1% | 21.3hPa | 2.6V | 18:12:15 | 01:58:51 | 00:00:00 | |
| HSKMA3-T | 2026-08-31 12:16:44 | 51.80728 | 8.07692 | 285° | 18km/h | 26504m | 5.4m/s | -48.2°C | 0.1% | 21.3hPa | 2.7V | 18:12:15 | 01:58:49 | 00:00:00 | |
| DO2JMG | 2026-08-31 12:16:41 | 51.80725 | 8.07709 | 298° | 11km/h | 26487m | 5.2m/s | -48.3°C | 0.1% | 21.4hPa | 2.6V | 18:12:15 | 01:58:46 | 00:00:00 | |
| AA1-15 | 2026-08-31 12:16:38 | 51.80719 | 8.07722 | 304° | 15km/h | 26470m | 5.8m/s | -48.3°C | 0.2% | 21.4hPa | 2.7V | 18:12:15 | 01:58:43 | 00:00:00 | |
| DL1XH-15 | 2026-08-31 12:16:38 | 51.80717 | 8.07727 | 302° | 15km/h | 26464m | 4.8m/s | -48.2°C | 3.2% | 21.4hPa | 2.7V | 08:30:00 | 01:58:42 | 00:00:00 | |
| BIOWL1-15 | 2026-08-31 12:16:37 | 51.80717 | 8.07727 | 303° | 15km/h | 26464m | 4.9m/s | -48.2°C | 0.2% | 21.4hPa | 2.7V | 18:12:15 | 01:58:42 | 00:00:00 | |
| HSKMA3-T | 2026-08-31 12:16:34 | 51.80712 | 8.07739 | 308° | 9km/h | 26448m | 5.6m/s | -48.4°C | 0.1% | 21.5hPa | 2.6V | 18:12:15 | 01:58:39 | 00:00:00 | |
| DL1XH-west | 2026-08-31 12:16:33 | 51.80711 | 8.07742 | 296° | 9km/h | 26443m | 4.9m/s | -48.4°C | 0.1% | 21.5hPa | 2.7V | 18:12:15 | 01:58:38 | 00:00:00 | |
| DO2JMG | 2026-08-31 12:16:31 | 51.80709 | 8.07753 | 280° | 18km/h | 26431m | 6.4m/s | -48.3°C | 0.1% | 21.6hPa | 2.7V | 18:12:15 | 01:58:36 | 00:00:00 | |
| BIOWL1-15 | 2026-08-31 12:16:27 | 51.80706 | 8.07786 | 285° | 18km/h | 26408m | 5.4m/s | -48.6°C | 0.1% | 21.7hPa | 2.7V | 18:12:15 | 01:58:32 | 00:00:00 | |
| DD8BA-10 | 2026-08-31 12:16:27 | 51.80706 | 8.07786 | 286° | 15km/h | 26408m | 5.3m/s | -48.5°C | 3.2% | 21.6hPa | 2.7V | 00:00:00 | 00:00:00 | 00:00:00 | |
| DB0UT-7 | 2026-08-31 12:16:26 | 51.80704 | 8.07793 | 288° | 13km/h | 26403m | 5.0m/s | -48.4°C | 3.1% | 21.6hPa | 2.6V | 00:00:00 | 01:58:31 | 00:00:00 | |
| DM0DOS-11 | 2026-08-31 12:16:24 | 51.80701 | 8.07820 | 267° | 15km/h | 26381m | 4.5m/s | -48.6°C | 3.2% | 21.7hPa | 2.6V | 08:30:00 | 01:58:27 | 00:00:00 | |
| HSKMA3-T | 2026-08-31 12:16:23 | 51.80701 | 8.07814 | 277° | 16km/h | 26386m | 4.9m/s | -48.5°C | 0.1% | 21.7hPa | 2.6V | 18:12:15 | 01:58:28 | 00:00:00 | |
| DO2JMG | 2026-08-31 12:16:20 | 51.80702 | 8.07828 | 231° | 7km/h | 26370m | 6.2m/s | -48.5°C | 0.1% | 21.8hPa | 2.7V | 18:12:15 | 01:58:25 | 00:00:00 | |
| DC6BW-12 | 2026-08-31 12:16:19 | 51.80702 | 8.07828 | 232° | 7km/h | 26370m | 6.2m/s | -48.5°C | 0.8% | 21.7hPa | 2.6V | 00:00:00 | 00:00:00 | 00:00:00 | |
| DL1XH1-15 | 2026-08-31 12:16:18 | 51.80707 | 8.07837 | 237° | 13km/h | 26352m | 5.9m/s | -48.5°C | 3.2% | 21.8hPa | 2.6V | 08:30:00 | 01:58:22 | 00:00:00 | |
| AA1-15 | 2026-08-31 12:16:17 | 51.80707 | 8.07837 | 238° | 13km/h | 26352m | 5.9m/s | -48.5°C | 0.1% | 21.8hPa | 2.6V | 18:12:15 | 01:58:22 | 00:00:00 | |
| DM0DOS-11 | 2026-08-31 12:16:17 | 51.80717 | 8.07863 | 243° | 15km/h | 26324m | 5.5m/s | -48.7°C | 3.2% | 21.9hPa | 2.5V | 08:30:00 | 01:58:17 | 00:00:00 | |
| BIOWL1-15 | 2026-08-31 12:16:16 | 51.80709 | 8.07842 | 242° | 15km/h | 26347m | 5.1m/s | -48.5°C | 0.1% | 21.8hPa | 2.6V | 18:12:15 | 01:58:21 | 00:00:00 | |
| DL1XH-west | 2026-08-31 12:16:13 | 51.80717 | 8.07863 | 244° | 16km/h | 26324m | 5.5m/s | -48.7°C | 0.1% | 21.9hPa | 2.5V | 18:12:15 | 01:58:17 | 00:00:00 | |
| DO2JMG | 2026-08-31 12:16:10 | 51.80719 | 8.07875 | 263° | 15km/h | 26313m | 5.2m/s | -48.9°C | 0.2% | 22hPa | 2.6V | 18:12:15 | 01:58:15 | 00:00:00 | |
| HTAHTA | 2026-08-31 12:16:10 | 51.80719 | 8.07875 | 262° | 15km/h | 26313m | 5.2m/s | -48.9°C | 0.8% | 22.0hPa | 2.7V | 00:00:00 | 00:00:00 | 00:00:00 | |
| DL1XH1-15 | 2026-08-31 12:16:07 | 51.80721 | 8.07887 | 209° | 4km/h | 26296m | 5.7m/s | -48.9°C | 3.2% | 22hPa | 2.7V | 08:30:00 | 01:58:12 | 00:00:00 | |
| DM0DOS-11 | 2026-08-31 12:16:07 | 51.80729 | 8.07896 | 242° | 15km/h | 26269m | 5.4m/s | -49°C | 3.2% | 22.1hPa | 2.7V | 08:30:00 | 01:58:07 | 00:00:00 | |
| BIOWL1-15 | 2026-08-31 12:16:06 | 51.80722 | 8.07887 | 180° | 5km/h | 26291m | 4.7m/s | -48.9°C | 0.1% | 22hPa | 2.5V | 18:12:15 | 01:58:11 | 00:00:00 | |
| DL1XH-west | 2026-08-31 12:16:01 | 51.80730 | 8.07902 | 241° | 16km/h | 26263m | 5.5m/s | -49.1°C | 0.2% | 22.1hPa | 2.7V | 18:12:15 | 01:58:06 | 00:00:00 | |
| DL1XH-15 | 2026-08-31 12:16:01 | 51.80738 | 8.07924 | 251° | 13km/h | 26241m | 6.5m/s | -49.1°C | 3.3% | 22.2hPa | 2.7V | 08:30:00 | 01:58:02 | 00:00:00 | |
| DO2JMG | 2026-08-31 12:16:00 | 51.80733 | 8.07908 | 236° | 16km/h | 26257m | 6.5m/s | -49°C | 0.2% | 22.2hPa | 2.5V | 18:12:15 | 01:58:05 | 00:00:00 | |
| BIOWL1-15 | 2026-08-31 12:15:59 | 51.80748 | 8.07939 | 216° | 16km/h | 26191m | 4.9m/s | -49.4°C | 0.2% | 22.4hPa | 2.5V | 18:12:15 | 01:57:53 | 00:00:00 | |
| AA1-15 | 2026-08-31 12:15:55 | 51.80739 | 8.07933 | 274° | 9km/h | 26230m | 4.9m/s | -49.3°C | 0.2% | 22.2hPa | 2.6V | 18:12:15 | 01:58:00 | 00:00:00 | |
| DM0DOS-11 | 2026-08-31 12:15:55 | 51.80740 | 8.07935 | 146° | 5km/h | 26212m | 4.8m/s | -49.5°C | 3.4% | 22.3hPa | 2.6V | 08:30:00 | 01:57:57 | 00:00:00 | |
| HSKMA3-T | 2026-08-31 12:15:50 | 51.80743 | 8.07934 | 196° | 7km/h | 26202m | 5.8m/s | -49.5°C | 0.3% | 22.3hPa | 2.7V | 18:12:15 | 01:57:55 | 00:00:00 | |
| DL1XH-15 | 2026-08-31 12:15:49 | 51.80752 | 8.07943 | 214° | 18km/h | 26185m | 6.3m/s | -49.4°C | 3.3% | 22.4hPa | 2.5V | 08:30:00 | 01:57:52 | 00:00:00 | |
| DO2JMG | 2026-08-31 12:15:49 | 51.80746 | 8.07936 | 214° | 11km/h | 26196m | 5.2m/s | -49.5°C | 0.3% | 22.3hPa | 2.7V | 18:12:15 | 01:57:54 | 00:00:00 | |
| AA1-15 | 2026-08-31 12:15:45 | 51.80759 | 8.07952 | 224° | 16km/h | 26175m | 4.8m/s | -49.3°C | 0.2% | 22.4hPa | 2.7V | 18:12:15 | 01:57:50 | 00:00:00 | |
| EDDB2-11 | 2026-08-31 12:15:45 | 51.80759 | 8.07952 | 223° | 15km/h | 26175m | 4.8m/s | -49.3°C | 0.8% | 22.4hPa | 2.6V | 00:00:00 | 00:00:00 | 00:00:00 | |
| DL1XH-west | 2026-08-31 12:15:40 | 51.80760 | 8.07969 | 342° | 2km/h | 26146m | 5.9m/s | -49.3°C | 0.2% | 22.5hPa | 2.6V | 18:12:15 | 01:57:45 | 00:00:00 | |
| DL1XH-15 | 2026-08-31 12:15:39 | 51.80764 | 8.07966 | 167° | 11km/h | 26131m | 6.2m/s | -49.4°C | 3.3% | 22.6hPa | 2.7V | 08:30:00 | 01:57:42 | 00:00:00 | |
| DO2JMG | 2026-08-31 12:15:38 | 51.80762 | 8.07967 | 155° | 9km/h | 26136m | 4.6m/s | -49.3°C | 0.2% | 22.6hPa | 2.7V | 18:12:15 | 01:57:43 | 00:00:00 | |
| AA1-15 | 2026-08-31 12:15:35 | 51.80770 | 8.07967 | 194° | 15km/h | 26119m | 5.2m/s | -49.4°C | 0.2% | 22.6hPa | 2.6V | 18:12:15 | 01:57:40 | 00:00:00 | |
| HSKMA3-T | 2026-08-31 12:15:29 | 51.80789 | 8.07973 | 242° | 4km/h | 26087m | 6.3m/s | -49.7°C | 0.4% | 22.7hPa | 2.6V | 18:12:15 | 01:57:34 | 00:00:00 | |
| DL1XH-15 | 2026-08-31 12:15:28 | 51.80787 | 8.07975 | 332° | 7km/h | 26076m | 4.7m/s | -49.6°C | 3.5% | 22.8hPa | 2.7V | 08:30:00 | 01:57:32 | 00:00:00 | |
| DO2JMG | 2026-08-31 12:15:27 | 51.80787 | 8.07975 | 332° | 7km/h | 26076m | 4.7m/s | -49.6°C | 0.3% | 22.8hPa | 2.7V | 18:12:15 | 01:57:32 | 00:00:00 | |
| AA1-15 | 2026-08-31 12:15:25 | 51.80784 | 8.07973 | 81° | 7km/h | 26059m | 5m/s | -49.6°C | 0.3% | 22.8hPa | 2.5V | 18:12:15 | 01:57:29 | 00:00:00 | |
| DJ2KF-10 | 2026-08-31 12:15:24 | 51.80784 | 8.07970 | 100° | 9km/h | 26054m | 5.8m/s | -49.6°C | 3.4% | 22.8hPa | 2.5V | 00:00:00 | 01:57:28 | 00:00:00 | |
| DO3MHA-12 | 2026-08-31 12:15:23 | 51.80784 | 8.07970 | 100° | 7km/h | 26054m | 5.8m/s | -49.6°C | 3.4% | 22.8hPa | 2.5V | 00:00:00 | 01:57:28 | 00:00:00 | |
| DL1XH-15 | 2026-08-31 12:15:22 | 51.80792 | 8.07954 | 345° | 4km/h | 26010m | 6m/s | -49.5°C | 3.4% | 23hPa | 2.7V | 08:30:00 | 01:57:20 | 00:00:00 | |
| DL1XH-west | 2026-08-31 12:15:19 | 51.80792 | 8.07954 | 113° | 4km/h | 26016m | 5.7m/s | -49.6°C | 0.3% | 23hPa | 2.6V | 18:12:15 | 01:57:21 | 00:00:00 | |
| HSKMA3-T | 2026-08-31 12:15:19 | 51.80792 | 8.07954 | 345° | 4km/h | 26010m | 6m/s | -49.5°C | 0.3% | 23hPa | 2.7V | 18:12:15 | 01:57:20 | 00:00:00 | |
| BIOWL1-15 | 2026-08-31 12:15:18 | 51.80788 | 8.07957 | 336° | 11km/h | 26000m | 4.3m/s | -49.6°C | 0.3% | 23.1hPa | 2.7V | 18:12:15 | 01:57:18 | 00:00:00 | |
| DO2JMG | 2026-08-31 12:15:18 | 51.80792 | 8.07956 | 127° | 7km/h | 26021m | 4.2m/s | -49.6°C | 0.3% | 23hPa | 2.6V | 18:12:15 | 01:57:22 | 00:00:00 | |
| AA1-15 | 2026-08-31 12:15:16 | 51.80791 | 8.07955 | 331° | 9km/h | 26005m | 4.9m/s | -49.5°C | 0.3% | 23.1hPa | 2.7V | 18:12:15 | 01:57:19 | 00:00:00 | |
| DO2JMG | 2026-08-31 12:15:07 | 51.80776 | 8.07951 | 25° | 5km/h | 25968m | 5.7m/s | -49.4°C | 0.2% | 23.2hPa | 2.7V | 18:12:15 | 01:57:12 | 00:00:00 | |
| BIOWL1-15 | 2026-08-31 12:15:06 | 51.80777 | 8.07956 | 273° | 9km/h | 25931m | 5.4m/s | -49.6°C | 0.2% | 23.3hPa | 2.6V | 18:12:15 | 01:57:05 | 00:00:00 | |
| DB0NH | 2026-08-31 12:15:05 | 51.80774 | 8.07951 | 23° | 7km/h | 25958m | 4.9m/s | -49.5°C | 3.2% | 23.2hPa | 2.7V | 00:00:00 | 01:57:10 | 00:00:00 | |
| DM0DOS-11 | 2026-08-31 12:15:04 | 51.80776 | 8.07950 | 213° | 5km/h | 25942m | 4.7m/s | -49.6°C | 3.3% | 23.3hPa | 2.7V | 08:30:00 | 01:57:07 | 00:00:00 | |
| AA1-15 | 2026-08-31 12:15:04 | 51.80774 | 8.07950 | 153° | 2km/h | 25952m | 6.1m/s | -49.6°C | 0.2% | 23.2hPa | 2.6V | 18:12:15 | 01:57:09 | 00:00:00 | |
| DO1YAY-16 | 2026-08-31 12:15:04 | 51.80774 | 8.07950 | 152° | 2km/h | 25953m | 6.1m/s | -49.6°C | 0.8% | 23.2hPa | 2.7V | 00:00:00 | 00:00:00 | 00:00:00 | |
| DF7PN | 2026-08-31 12:15:01 | 51.80777 | 8.07956 | 272° | 9km/h | 25931m | 5.4m/s | -49.6°C | 0.9% | 23.3hPa | 2.7V | 00:00:00 | 00:00:00 | 00:00:00 | |
| DD1CC3-15 | 2026-08-31 12:15:00 | 51.80777 | 8.07952 | 249° | 7km/h | 25937m | 6.1m/s | -49.6°C | 0.9% | 23.3hPa | 2.7V | 00:00:00 | 00:00:00 | 00:00:00 | |
| DL1XH-15 | 2026-08-31 12:14:58 | 51.80774 | 8.07965 | 336° | 9km/h | 25915m | 5.3m/s | -49.4°C | 3.3% | 23.3hPa | 2.7V | 08:30:00 | 01:57:02 | 00:00:00 | |
| DO2JMG | 2026-08-31 12:14:57 | 51.80774 | 8.07965 | 336° | 9km/h | 25915m | 5.3m/s | -49.4°C | 0.2% | 23.3hPa | 2.7V | 18:12:15 | 01:57:02 | 00:00:00 | |
| DL1XH-west | 2026-08-31 12:14:56 | 51.80771 | 8.07966 | 353° | 11km/h | 25910m | 5.2m/s | -49.4°C | 0.2% | 23.4hPa | 2.7V | 18:12:15 | 01:57:01 | 00:00:00 | |
| DB0DAN | 2026-08-31 12:14:55 | 51.80768 | 8.07967 | 357° | 13km/h | 25904m | 6.2m/s | -49.4°C | 0.8% | 23.4hPa | 2.7V | 00:00:00 | 00:00:00 | 00:00:00 | |
| DJ2DS-15 | 2026-08-31 12:14:55 | 51.80768 | 8.07967 | 357° | 9km/h | 25904m | 6.1m/s | -49.3°C | 3.3% | 23.3hPa | 2.6V | 00:00:00 | 01:57:00 | 00:00:00 | |
| DM0DOS-11 | 2026-08-31 12:14:54 | 51.80758 | 8.07967 | 6° | 11km/h | 25889m | 4.9m/s | -49.3°C | 3.3% | 23.4hPa | 2.6V | 08:30:00 | 01:56:57 | 00:00:00 | |
| AA1-15 | 2026-08-31 12:14:53 | 51.80758 | 8.07967 | 6° | 11km/h | 25889m | 4.9m/s | -49.3°C | 0.2% | 23.5hPa | 2.6V | 18:12:15 | 01:56:57 | 00:00:00 | |
| BIOWL1-15 | 2026-08-31 12:14:52 | 51.80756 | 8.07966 | 29° | 7km/h | 25883m | 6m/s | -49.4°C | 0.3% | 23.4hPa | 2.7V | 18:12:15 | 01:56:56 | 00:00:00 | |
| DO2JMG | 2026-08-31 12:14:46 | 51.80756 | 8.07969 | 276° | 7km/h | 25857m | 5.2m/s | -49.6°C | 0.3% | 23.6hPa | 2.6V | 18:12:15 | 01:56:51 | 00:00:00 | |
| DL1XH-west | 2026-08-31 12:14:45 | 51.80756 | 8.07972 | 296° | 7km/h | 25851m | 6m/s | -49.6°C | 0.2% | 23.6hPa | 2.7V | 18:12:15 | 01:56:50 | 00:00:00 | |
| DO2SHX-10 | 2026-08-31 12:14:45 | 51.80756 | 8.07972 | 297° | 7km/h | 25852m | 6.0m/s | -49.5°C | 3.4% | 23.5hPa | 2.7V | 00:00:00 | 01:56:50 | 00:00:00 | |
| DM0DOS-11 | 2026-08-31 12:14:44 | 51.80750 | 8.07975 | 353° | 13km/h | 25835m | 6.2m/s | -49.7°C | 3.4% | 23.6hPa | 2.6V | 08:30:00 | 01:56:47 | 00:00:00 | |
| HSKMA3-T | 2026-08-31 12:14:43 | 51.80753 | 8.07975 | 352° | 9km/h | 25841m | 4.6m/s | -49.6°C | 0.3% | 23.6hPa | 2.7V | 18:12:15 | 01:56:48 | 00:00:00 | |
| EDDB2-11 | 2026-08-31 12:14:43 | 51.80750 | 8.07975 | 353° | 11km/h | 25835m | 6.2m/s | -49.7°C | 0.9% | 23.6hPa | 2.7V | 00:00:00 | 00:00:00 | 00:00:00 | |
| DO3MHA-12 | 2026-08-31 12:14:42 | 51.80750 | 8.07975 | 354° | 9km/h | 25836m | 6.1m/s | -49.7°C | 3.4% | 23.6hPa | 2.7V | 00:00:00 | 01:56:47 | 00:00:00 | |
| DL1XH1-15 | 2026-08-31 12:14:41 | 51.80735 | 8.07975 | 16° | 4km/h | 25809m | 4.4m/s | -49.5°C | 3.4% | 23.7hPa | 2.7V | 08:30:00 | 01:56:42 | 00:00:00 | |
| BIOWL1-15 | 2026-08-31 12:14:41 | 51.80747 | 8.07976 | 353° | 15km/h | 25829m | 5.6m/s | -49.8°C | 0.3% | 23.7hPa | 2.6V | 18:12:15 | 01:56:46 | 00:00:00 | |
| DO2JMG | 2026-08-31 12:14:35 | 51.80734 | 8.07977 | 276° | 7km/h | 25798m | 6m/s | -49.5°C | 0.3% | 23.8hPa | 2.6V | 18:12:15 | 01:56:40 | 00:00:00 | |
| DJ2DS-15 | 2026-08-31 12:14:35 | 51.80734 | 8.07977 | 276° | 9km/h | 25798m | 5.9m/s | -49.5°C | 3.4% | 23.7hPa | 2.6V | 00:00:00 | 01:56:40 | 00:00:00 | |
| DM0DOS-11 | 2026-08-31 12:14:34 | 51.80734 | 8.07989 | 268° | 9km/h | 25783m | 5.4m/s | -49.5°C | 3.5% | 23.8hPa | 2.7V | 08:30:00 | 01:56:37 | 00:00:00 | |
| DL1XH-west | 2026-08-31 12:14:34 | 51.80734 | 8.07980 | 270° | 11km/h | 25792m | 4.3m/s | -49.5°C | 0.3% | 23.8hPa | 2.6V | 18:12:15 | 01:56:39 | 00:00:00 | |
| HSKMA3-T | 2026-08-31 12:14:33 | 51.80734 | 8.07985 | 271° | 11km/h | 25788m | 4.1m/s | -49.6°C | 0.3% | 23.8hPa | 2.7V | 18:12:15 | 01:56:38 | 00:00:00 | |
| AA1-15 | 2026-08-31 12:14:32 | 51.80734 | 8.07989 | 269° | 9km/h | 25783m | 5.4m/s | -49.5°C | 0.3% | 23.8hPa | 2.7V | 18:12:15 | 01:56:37 | 00:00:00 | |
| DL1XH1-15 | 2026-08-31 12:14:31 | 51.80730 | 8.07997 | 337° | 13km/h | 25758m | 5.8m/s | -49.5°C | 3.3% | 23.9hPa | 2.7V | 08:30:00 | 01:56:32 | 00:00:00 | |
| BIOWL1-15 | 2026-08-31 12:14:30 | 51.80734 | 8.07994 | 293° | 4km/h | 25773m | 4.3m/s | -49.5°C | 0.3% | 23.9hPa | 2.5V | 18:12:15 | 01:56:35 | 00:00:00 | |
| DO2JMG | 2026-08-31 12:14:25 | 51.80722 | 8.08002 | 343° | 16km/h | 25748m | 4.5m/s | -49.6°C | 0.2% | 23.9hPa | 2.7V | 18:12:15 | 01:56:30 | 00:00:00 | |
| DM0DOS-11 | 2026-08-31 12:14:24 | 51.80712 | 8.08003 | 6° | 9km/h | 25734m | 4.1m/s | -49.8°C | 3.4% | 24hPa | 2.6V | 08:30:00 | 01:56:27 | 00:00:00 | |
| DL1XH-west | 2026-08-31 12:14:24 | 51.80718 | 8.08003 | 350° | 15km/h | 25743m | 5.7m/s | -49.7°C | 0.2% | 24hPa | 2.5V | 18:12:15 | 01:56:29 | 00:00:00 | |
| AA1-15 | 2026-08-31 12:14:22 | 51.80710 | 8.08003 | 357° | 7km/h | 25729m | 4.8m/s | -49.6°C | 0.2% | 24hPa | 2.7V | 18:12:15 | 01:56:26 | 00:00:00 | |
| BIOWL1-15 | 2026-08-31 12:14:19 | 51.80707 | 8.08006 | 305° | 7km/h | 25719m | 4.9m/s | -49.6°C | 0.2% | 24.1hPa | 2.7V | 18:12:15 | 01:56:24 | 00:00:00 | |
| DL1XH-15 | 2026-08-31 12:14:18 | 51.80706 | 8.08011 | 291° | 5km/h | 25710m | 4.9m/s | -49.6°C | 3.4% | 24.1hPa | 2.6V | 08:30:00 | 01:56:22 | 00:00:00 | |
| DO2SHX-10 | 2026-08-31 12:14:18 | 51.80706 | 8.08009 | 295° | 5km/h | 25714m | 4.3m/s | -49.5°C | 3.4% | 24.0hPa | 2.6V | 00:00:00 | 01:56:23 | 00:00:00 | |
| DM0DOS-11 | 2026-08-31 12:14:17 | 51.80700 | 8.08014 | 339° | 7km/h | 25684m | 5m/s | -49.6°C | 3.4% | 24.2hPa | 2.5V | 08:30:00 | 01:56:17 | 00:00:00 | |
| DO2JMG | 2026-08-31 12:14:14 | 51.80703 | 8.08013 | 8° | 4km/h | 25694m | 4.5m/s | -49.6°C | 0.3% | 24.2hPa | 2.7V | 18:12:15 | 01:56:19 | 00:00:00 | |
| DL1XH-west | 2026-08-31 12:14:13 | 51.80702 | 8.08013 | 351° | 5km/h | 25689m | 5.7m/s | -49.6°C | 0.3% | 24.2hPa | 2.7V | 18:12:15 | 01:56:18 | 00:00:00 | |
| HSKMA3-T | 2026-08-31 12:14:10 | 51.80697 | 8.08016 | 345° | 5km/h | 25675m | 5.3m/s | -49.6°C | 0.3% | 24.2hPa | 2.6V | 18:12:15 | 01:56:15 | 00:00:00 | |
| BIOWL1-15 | 2026-08-31 12:14:09 | 51.80696 | 8.08017 | 351° | 4km/h | 25669m | 5.2m/s | -49.6°C | 0.3% | 24.2hPa | 2.7V | 18:12:15 | 01:56:14 | 00:00:00 | |
| DO2JMG | 2026-08-31 12:14:04 | 51.80694 | 8.08026 | 304° | 5km/h | 25645m | 4.6m/s | -49.5°C | 0.3% | 24.4hPa | 2.6V | 18:12:15 | 01:56:09 | 00:00:00 | |
| DL1XH-west | 2026-08-31 12:14:03 | 51.80693 | 8.08027 | 348° | 5km/h | 25640m | 5.8m/s | -49.5°C | 0.3% | 24.4hPa | 2.7V | 18:12:15 | 01:56:08 | 00:00:00 | |
| AA1-15 | 2026-08-31 12:14:00 | 51.80682 | 8.08024 | 1° | 15km/h | 25619m | 5.2m/s | -49.6°C | 0.2% | 24.4hPa | 2.5V | 18:12:15 | 01:56:04 | 00:00:00 | |
| DF7PN | 2026-08-31 12:13:59 | 51.80678 | 8.08024 | 0° | 15km/h | 25614m | 4.5m/s | -49.7°C | 0.9% | 24.5hPa | 2.7V | 00:00:00 | 00:00:00 | 00:00:00 | |
| DL1XH1-15 | 2026-08-31 12:13:58 | 51.80674 | 8.08023 | 5° | 15km/h | 25609m | 5.7m/s | -49.6°C | 3.3% | 24.5hPa | 2.7V | 08:30:00 | 01:56:02 | 00:00:00 | |
| BIOWL1-15 | 2026-08-31 12:13:58 | 51.80678 | 8.08024 | 0° | 16km/h | 25614m | 4.5m/s | -49.7°C | 0.2% | 24.5hPa | 2.6V | 18:12:15 | 01:56:03 | 00:00:00 | |
| DO2JMG | 2026-08-31 12:13:54 | 51.80667 | 8.08020 | 18° | 4km/h | 25594m | 5.5m/s | -49.5°C | 0.2% | 24.5hPa | 2.5V | 18:12:15 | 01:55:59 | 00:00:00 | |
| DL1XH-west | 2026-08-31 12:13:52 | 51.80666 | 8.08021 | 234° | 4km/h | 25583m | 4.2m/s | -49.5°C | 0.2% | 24.6hPa | 2.6V | 18:12:15 | 01:55:57 | 00:00:00 | |
| AA1-15 | 2026-08-31 12:13:50 | 51.80664 | 8.08015 | 35° | 16km/h | 25566m | 4.2m/s | -49.6°C | 0.2% | 24.6hPa | 2.5V | 18:12:15 | 01:55:53 | 00:00:00 | |
| DL1XH-15 | 2026-08-31 12:13:49 | 51.80660 | 8.08012 | 23° | 18km/h | 25561m | 5.7m/s | -49.6°C | 3.3% | 24.6hPa | 2.5V | 08:30:00 | 01:55:52 | 00:00:00 | |
| BIOWL1-15 | 2026-08-31 12:13:47 | 51.80660 | 8.08012 | 24° | 18km/h | 25561m | 5.7m/s | -49.6°C | 0.2% | 24.6hPa | 2.5V | 18:12:15 | 01:55:52 | 00:00:00 | |
| DL1ZP-14 | 2026-08-31 12:13:46 | 51.80655 | 8.08010 | 11° | 20km/h | 25555m | 5.7m/s | -49.7°C | 0.9% | 24.7hPa | 2.6V | 00:00:00 | 00:00:00 | 00:00:00 | |
| DO2JMG | 2026-08-31 12:13:44 | 51.80645 | 8.08008 | 358° | 20km/h | 25546m | 3.9m/s | -50°C | 0.2% | 24.7hPa | 2.7V | 18:12:15 | 01:55:49 | 00:00:00 | |
| DM0DOS-11 | 2026-08-31 12:13:43 | 51.80637 | 8.08008 | 10° | 13km/h | 25536m | 5.7m/s | -50°C | 3.4% | 24.8hPa | 2.5V | 08:30:00 | 01:55:47 | 00:00:00 | |
| DL1XH-west | 2026-08-31 12:13:41 | 51.80634 | 8.08006 | 35° | 9km/h | 25531m | 5.2m/s | -50°C | 0.3% | 24.8hPa | 2.5V | 18:12:15 | 01:55:46 | 00:00:00 | |
| AA1-15 | 2026-08-31 12:13:38 | 51.80632 | 8.07999 | 113° | 4km/h | 25516m | 6.1m/s | -50.1°C | 0.4% | 24.8hPa | 2.7V | 18:12:15 | 01:55:43 | 00:00:00 | |
| BIOWL1-15 | 2026-08-31 12:13:37 | 51.80633 | 8.07999 | 152° | 0km/h | 25511m | 4.9m/s | -50.1°C | 0.3% | 24.8hPa | 2.6V | 18:12:15 | 01:55:42 | 00:00:00 | |
| DF8AY | 2026-08-31 12:13:34 | 51.80630 | 8.07996 | 29° | 11km/h | 25495m | 4.8m/s | -50.3°C | 0.4% | 24.9hPa | 2.5V | 18:12:15 | 01:55:39 | 00:00:00 | |
| DM0DOS-11 | 2026-08-31 12:13:33 | 51.80622 | 8.07991 | 16° | 20km/h | 25486m | 6m/s | -50.5°C | 3.6% | 24.9hPa | 2.7V | 08:30:00 | 01:55:37 | 00:00:00 | |
| DO2JMG | 2026-08-31 12:13:33 | 51.80626 | 8.07993 | 23° | 16km/h | 25491m | 4.1m/s | -50.4°C | 0.4% | 24.9hPa | 2.7V | 18:12:15 | 01:55:38 | 00:00:00 | |
| DL1XH-west | 2026-08-31 12:13:30 | 51.80611 | 8.07987 | 13° | 24km/h | 25475m | 4.6m/s | -50.5°C | 0.4% | 25hPa | 2.5V | 18:12:15 | 01:55:35 | 00:00:00 | |
| DO3MHA-12 | 2026-08-31 12:13:30 | 51.80611 | 8.07987 | 14° | 16km/h | 25475m | 4.6m/s | -50.5°C | 3.6% | 24.9hPa | 2.7V | 00:00:00 | 01:55:35 | 00:00:00 | |
| DL1XH-15 | 2026-08-31 12:13:29 | 51.80596 | 8.07975 | 37° | 20km/h | 25460m | 3.6m/s | -50.3°C | 3.5% | 25hPa | 2.7V | 08:30:00 | 01:55:32 | 00:00:00 | |
| HSKMA3-T | 2026-08-31 12:13:26 | 51.80592 | 8.07971 | 39° | 16km/h | 25456m | 4.6m/s | -50.3°C | 0.4% | 25.1hPa | 2.7V | 18:12:15 | 01:55:31 | 00:00:00 | |
| DB0UT-7 | 2026-08-31 12:13:26 | 51.80592 | 8.07971 | 39° | 15km/h | 25457m | 4.6m/s | -50.3°C | 3.5% | 25.0hPa | 2.6V | 00:00:00 | 01:55:31 | 00:00:00 | |
| DD1CC9-15 | 2026-08-31 12:13:25 | 51.80592 | 8.07971 | 40° | 16km/h | 25457m | 4.6m/s | -50.3°C | 1.0% | 25.1hPa | 2.6V | 00:00:00 | 00:00:00 | 00:00:00 | |
| DM0DOS-11 | 2026-08-31 12:13:23 | 51.80582 | 8.07964 | 9° | 11km/h | 25436m | 4.8m/s | -50.3°C | 3.6% | 25.1hPa | 2.6V | 08:30:00 | 01:55:27 | 00:00:00 | |
| DO2JMG | 2026-08-31 12:13:22 | 51.80582 | 8.07964 | 10° | 11km/h | 25436m | 4.8m/s | -50.3°C | 0.4% | 25.1hPa | 2.6V | 18:12:15 | 01:55:27 | 00:00:00 | |
| GOEST3-10 | 2026-08-31 12:13:22 | 51.80582 | 8.07964 | 10° | 15km/h | 25437m | 4.7m/s | -50.3°C | 3.6% | 25.1hPa | 2.6V | 00:00:00 | 00:00:00 | 00:00:00 | |
| DO2SHX-10 | 2026-08-31 12:13:20 | 51.80575 | 8.07960 | 25° | 16km/h | 25426m | 4.4m/s | -50.2°C | 3.5% | 25.1hPa | 2.6V | 00:00:00 | 01:55:25 | 00:00:00 | |
| DL1XH-15 | 2026-08-31 12:13:19 | 51.80563 | 8.07956 | 356° | 20km/h | 25412m | 6m/s | -50.3°C | 3.6% | 25.2hPa | 2.6V | 08:30:00 | 01:55:22 | 00:00:00 | |
| DL1XH-west | 2026-08-31 12:13:19 | 51.80572 | 8.07958 | 20° | 16km/h | 25422m | 3.7m/s | -50.3°C | 0.3% | 25.2hPa | 2.7V | 18:12:15 | 01:55:24 | 00:00:00 | |
| BIOWL1-15 | 2026-08-31 12:13:16 | 51.80558 | 8.07957 | 349° | 20km/h | 25406m | 5.5m/s | -50.1°C | 0.3% | 25.2hPa | 2.6V | 18:12:15 | 01:55:21 | 00:00:00 | |
| AA1-15 | 2026-08-31 12:13:15 | 51.80553 | 8.07958 | 348° | 18km/h | 25401m | 5.5m/s | -50°C | 0.3% | 25.3hPa | 2.7V | 18:12:15 | 01:55:20 | 00:00:00 | |
| DL8DAS-15 | 2026-08-31 12:13:14 | 51.80553 | 8.07958 | 349° | 18km/h | 25401m | 5.5m/s | -50.0°C | 0.9% | 25.3hPa | 2.5V | 00:00:00 | 00:00:00 | 00:00:00 | |
| DM0DOS-11 | 2026-08-31 12:13:12 | 51.80543 | 8.07963 | 327° | 11km/h | 25386m | 5.3m/s | -50°C | 3.5% | 25.3hPa | 2.5V | 08:30:00 | 01:55:17 | 00:00:00 | |
| DO2JMG | 2026-08-31 12:13:11 | 51.80541 | 8.07966 | 304° | 9km/h | 25380m | 5.9m/s | -50°C | 0.3% | 25.4hPa | 2.5V | 18:12:15 | 01:55:16 | 00:00:00 | |
| DL1XH-west | 2026-08-31 12:13:09 | 51.80540 | 8.07972 | 279° | 5km/h | 25371m | 4.4m/s | -49.9°C | 0.3% | 25.4hPa | 2.7V | 18:12:15 | 01:55:14 | 00:00:00 | |
| DL1XH-15 | 2026-08-31 12:13:09 | 51.80539 | 8.07973 | 24° | 4km/h | 25361m | 4.5m/s | -49.9°C | 3.4% | 25.4hPa | 2.7V | 08:30:00 | 01:55:12 | 00:00:00 | |
| BIOWL1-15 | 2026-08-31 12:13:08 | 51.80537 | 8.07973 | 16° | 9km/h | 25357m | 3.6m/s | -49.9°C | 0.3% | 25.5hPa | 2.5V | 18:12:15 | 01:55:11 | 00:00:00 | |
| DO3MHA-11 | 2026-08-31 12:13:08 | 51.80539 | 8.07973 | 295° | 16km/h | 25366m | 5.7m/s | -49.9°C | 3.4% | 25.4hPa | 2.7V | 00:00:00 | 01:55:13 | 00:00:00 | |
| DM0DOS-11 | 2026-08-31 12:13:07 | 51.80520 | 8.07980 | 334° | 26km/h | 25337m | 4.8m/s | -49.6°C | 3.3% | 25.5hPa | 2.7V | 08:30:00 | 01:55:07 | 00:00:00 | |
| HSKMA3-T | 2026-08-31 12:13:05 | 51.80531 | 8.07973 | 346° | 18km/h | 25347m | 5.6m/s | -49.6°C | 0.2% | 25.5hPa | 2.6V | 18:12:15 | 01:55:09 | 00:00:00 | |
| DO2JMG | 2026-08-31 12:13:01 | 51.80514 | 8.07984 | 335° | 26km/h | 25331m | 5.9m/s | -49.7°C | 0.2% | 25.6hPa | 2.7V | 18:12:15 | 01:55:06 | 00:00:00 | |
| DL1XH-west | 2026-08-31 12:12:58 | 51.80499 | 8.07997 | 323° | 20km/h | 25315m | 5.9m/s | -49.8°C | 0.2% | 25.6hPa | 2.6V | 18:12:15 | 01:55:03 | 00:00:00 | |
| DO3MHA-11 | 2026-08-31 12:12:58 | 51.80499 | 8.07997 | 323° | 13km/h | 25316m | 5.8m/s | -49.7°C | 3.3% | 25.6hPa | 2.6V | 00:00:00 | 01:55:03 | 00:00:00 | |
| DM0DOS-11 | 2026-08-31 12:12:57 | 51.80487 | 8.08016 | 339° | 9km/h | 25286m | 5m/s | -50°C | 3.4% | 25.7hPa | 2.6V | 08:30:00 | 01:54:57 | 00:00:00 | |
| BIOWL1-15 | 2026-08-31 12:12:55 | 51.80492 | 8.08011 | 303° | 9km/h | 25300m | 5.3m/s | -49.9°C | 0.3% | 25.7hPa | 2.7V | 18:12:15 | 01:55:00 | 00:00:00 | |
| HSKMA3-T | 2026-08-31 12:12:54 | 51.80490 | 8.08014 | 316° | 5km/h | 25295m | 5.4m/s | -50°C | 0.2% | 25.7hPa | 2.5V | 18:12:15 | 01:54:59 | 00:00:00 | |
| AA1-15 | 2026-08-31 12:12:53 | 51.80489 | 8.08015 | 340° | 5km/h | 25290m | 3.7m/s | -50°C | 0.3% | 25.7hPa | 2.5V | 18:12:15 | 01:54:58 | 00:00:00 | |
| DO2JMG | 2026-08-31 12:12:50 | 51.80481 | 8.08021 | 328° | 20km/h | 25276m | 4.7m/s | -50°C | 0.3% | 25.8hPa | 2.7V | 18:12:15 | 01:54:55 | 00:00:00 | |
| BUE01 | 2026-08-31 12:12:49 | 51.80477 | 8.08026 | 325° | 22km/h | 25271m | 4.3m/s | -50.1°C | 0.9% | 25.8hPa | 2.5V | 00:00:00 | 00:00:00 | 00:00:00 | |
| DL1XH-15 | 2026-08-31 12:12:48 | 51.80468 | 8.08036 | 324° | 22km/h | 25261m | 5.5m/s | -50.3°C | 3.5% | 25.8hPa | 2.5V | 08:30:00 | 01:54:52 | 00:00:00 | |
| DL1XH-west | 2026-08-31 12:12:48 | 51.80472 | 8.08031 | 325° | 24km/h | 25266m | 5.7m/s | -50.2°C | 0.3% | 25.8hPa | 2.5V | 18:12:15 | 01:54:53 | 00:00:00 | |
| DO9LL-15 | 2026-08-31 12:12:48 | 51.80472 | 8.08031 | 325° | 22km/h | 25266m | 5.6m/s | -50.1°C | 3.5% | 25.8hPa | 2.5V | 00:00:00 | 01:54:53 | 00:00:00 | |
| DM0DOS-11 | 2026-08-31 12:12:47 | 51.80445 | 8.08067 | 314° | 27km/h | 25236m | 5.1m/s | -50.4°C | 3.5% | 25.9hPa | 2.5V | 08:30:00 | 01:54:47 | 00:00:00 | |
| BIOWL1-15 | 2026-08-31 12:12:46 | 51.80459 | 8.08047 | 321° | 22km/h | 25251m | 4.3m/s | -50.3°C | 0.3% | 25.9hPa | 2.7V | 18:12:15 | 01:54:50 | 00:00:00 | |
| HSKMA3-T | 2026-08-31 12:12:44 | 51.80455 | 8.08053 | 318° | 24km/h | 25246m | 5.4m/s | -50.3°C | 0.3% | 25.9hPa | 2.7V | 18:12:15 | 01:54:49 | 00:00:00 | |
| AA1-15 | 2026-08-31 12:12:43 | 51.80446 | 8.08067 | 314° | 27km/h | 25236m | 5.1m/s | -50.4°C | 0.3% | 25.9hPa | 2.5V | 18:12:15 | 01:54:47 | 00:00:00 | |
| DO2JMG | 2026-08-31 12:12:40 | 51.80437 | 8.08082 | 315° | 24km/h | 25226m | 5.5m/s | -50.3°C | 0.3% | 25.9hPa | 2.6V | 18:12:15 | 01:54:45 | 00:00:00 | |
| DL1XH-west | 2026-08-31 12:12:38 | 51.80430 | 8.08093 | 315° | 16km/h | 25215m | 3.8m/s | -50.1°C | 0.3% | 26hPa | 2.7V | 18:12:15 | 01:54:43 | 00:00:00 | |
| BIOWL1-15 | 2026-08-31 12:12:34 | 51.80416 | 8.08119 | 307° | 26km/h | 25195m | 5.2m/s | -50.3°C | 0.4% | 26.1hPa | 2.6V | 18:12:15 | 01:54:39 | 00:00:00 | |
| HSKMA3-T | 2026-08-31 12:12:33 | 51.80412 | 8.08128 | 308° | 26km/h | 25190m | 5.2m/s | -50.1°C | 0.3% | 26.1hPa | 2.7V | 18:12:15 | 01:54:38 | 00:00:00 | |
| AA1-15 | 2026-08-31 12:12:31 | 51.80405 | 8.08142 | 312° | 22km/h | 25180m | 4.1m/s | -50.1°C | 0.4% | 26.1hPa | 2.7V | 18:12:15 | 01:54:36 | 00:00:00 | |
| DO2JMG | 2026-08-31 12:12:29 | 51.80397 | 8.08157 | 304° | 26km/h | 25170m | 6.1m/s | -50.3°C | 0.3% | 26.2hPa | 2.5V | 18:12:15 | 01:54:34 | 00:00:00 | |
| DL1XH-west | 2026-08-31 12:12:28 | 51.80390 | 8.08185 | 286° | 22km/h | 25155m | 5.6m/s | -50.4°C | 0.4% | 26.3hPa | 2.7V | 18:12:15 | 01:54:31 | 00:00:00 | |
| DJ8HS-15 | 2026-08-31 12:12:28 | 51.80394 | 8.08166 | 297° | 18km/h | 25165m | 4.9m/s | -50.3°C | 3.5% | 26.2hPa | 2.6V | 00:00:00 | 01:54:33 | 00:00:00 | |
| DM0DOS-11 | 2026-08-31 12:12:27 | 51.80385 | 8.08206 | 302° | 13km/h | 25135m | 5.6m/s | -50.4°C | 3.4% | 26.4hPa | 2.6V | 08:30:00 | 01:54:27 | 00:00:00 | |
| BIOWL1-15 | 2026-08-31 12:12:24 | 51.80387 | 8.08198 | 286° | 13km/h | 25144m | 4.4m/s | -50.3°C | 0.3% | 26.3hPa | 2.5V | 18:12:15 | 01:54:29 | 00:00:00 | |
| HSKMA3-T | 2026-08-31 12:12:22 | 51.80385 | 8.08206 | 303° | 13km/h | 25135m | 5.6m/s | -50.4°C | 0.3% | 26.4hPa | 2.6V | 18:12:15 | 01:54:27 | 00:00:00 | |
| AA1-15 | 2026-08-31 12:12:20 | 51.80380 | 8.08218 | 303° | 20km/h | 25124m | 4.6m/s | -50.3°C | 0.3% | 26.4hPa | 2.7V | 18:12:15 | 01:54:25 | 00:00:00 | |
| DO2JMG | 2026-08-31 12:12:19 | 51.80378 | 8.08225 | 302° | 20km/h | 25119m | 4.5m/s | -50.2°C | 0.3% | 26.4hPa | 2.7V | 18:12:15 | 01:54:24 | 00:00:00 | |
| DL1XH-west | 2026-08-31 12:12:17 | 51.80373 | 8.08238 | 290° | 16km/h | 25109m | 5.2m/s | -50.2°C | 0.3% | 26.4hPa | 2.5V | 18:12:15 | 01:54:22 | 00:00:00 | |
| DM0DOS-11 | 2026-08-31 12:12:16 | 51.80371 | 8.08277 | 277° | 18km/h | 25084m | 5.2m/s | -50.5°C | 3.6% | 26.5hPa | 2.5V | 08:30:00 | 01:54:17 | 00:00:00 | |
| BIOWL1-15 | 2026-08-31 12:12:14 | 51.80372 | 8.08260 | 270° | 22km/h | 25094m | 5.4m/s | -50.3°C | 0.4% | 26.5hPa | 2.7V | 18:12:15 | 01:54:19 | 00:00:00 | |
| HSKMA3-T | 2026-08-31 12:12:12 | 51.80371 | 8.08277 | 277° | 18km/h | 25084m | 5.2m/s | -50.5°C | 0.4% | 26.5hPa | 2.5V | 18:12:15 | 01:54:17 | 00:00:00 | |
| AA1-15 | 2026-08-31 12:12:10 | 51.80370 | 8.08288 | 293° | 13km/h | 25073m | 4.8m/s | -50.6°C | 0.4% | 26.6hPa | 2.5V | 18:12:15 | 01:54:15 | 00:00:00 | |
| DL1XH-15 | 2026-08-31 12:12:09 | 51.80367 | 8.08304 | 270° | 16km/h | 25057m | 5m/s | -50.7°C | 3.7% | 26.6hPa | 2.6V | 08:30:00 | 01:54:12 | 00:00:00 | |
| DO2JMG | 2026-08-31 12:12:09 | 51.80368 | 8.08293 | 290° | 13km/h | 25068m | 4.8m/s | -50.6°C | 0.4% | 26.6hPa | 2.7V | 18:12:15 | 01:54:14 | 00:00:00 | |
| DL1XH-west | 2026-08-31 12:12:07 | 51.80369 | 8.08318 | 253° | 16km/h | 25048m | 5.4m/s | -50.6°C | 0.4% | 26.7hPa | 2.5V | 18:12:15 | 01:54:10 | 00:00:00 | |
| DM0DOS-11 | 2026-08-31 12:12:06 | 51.80373 | 8.08335 | 248° | 16km/h | 25032m | 4.6m/s | -50.4°C | 3.5% | 26.8hPa | 2.7V | 08:30:00 | 01:54:07 | 00:00:00 | |
| BIOWL1-15 | 2026-08-31 12:12:04 | 51.80370 | 8.08324 | 247° | 15km/h | 25042m | 5.7m/s | -50.5°C | 0.4% | 26.7hPa | 2.5V | 18:12:15 | 01:54:09 | 00:00:00 | |
| HSKMA3-T | 2026-08-31 12:12:02 | 51.80373 | 8.08335 | 248° | 16km/h | 25032m | 4.6m/s | -50.4°C | 0.4% | 26.8hPa | 2.7V | 18:12:15 | 01:54:07 | 00:00:00 | |
| GOEST3-10 | 2026-08-31 12:12:02 | 51.80373 | 8.08335 | 249° | 16km/h | 25032m | 4.6m/s | -50.4°C | 3.5% | 26.7hPa | 2.7V | 00:00:00 | 00:00:00 | 00:00:00 | |
| DL1XH1-15 | 2026-08-31 12:12:01 | 51.80379 | 8.08370 | 246° | 13km/h | 25005m | 5.7m/s | -50.3°C | 3.4% | 26.9hPa | 2.7V | 08:30:00 | 01:54:02 | 00:00:00 | |
| DF8AY | 2026-08-31 12:12:00 | 51.80385 | 8.08381 | 221° | 13km/h | 24990m | 6m/s | -50.2°C | 0.3% | 26.9hPa | 2.5V | 18:12:15 | 01:53:59 | 00:00:00 | |
| AA1-15 | 2026-08-31 12:11:59 | 51.80377 | 8.08357 | 259° | 20km/h | 25016m | 4.7m/s | -50.3°C | 0.3% | 26.8hPa | 2.5V | 18:12:15 | 01:54:04 | 00:00:00 | |
| DO2JMG | 2026-08-31 12:11:58 | 51.80378 | 8.08364 | 255° | 16km/h | 25011m | 5.5m/s | -50.3°C | 0.3% | 26.8hPa | 2.6V | 18:12:15 | 01:54:03 | 00:00:00 | |
| DL1XH-west | 2026-08-31 12:11:56 | 51.80382 | 8.08377 | 220° | 11km/h | 24995m | 4.8m/s | -50.2°C | 0.3% | 26.9hPa | 2.7V | 18:12:15 | 01:54:00 | 00:00:00 | |
| BIOWL1-15 | 2026-08-31 12:11:53 | 51.80387 | 8.08384 | 224° | 15km/h | 24984m | 4.9m/s | -50.2°C | 0.3% | 27hPa | 2.5V | 18:12:15 | 01:53:58 | 00:00:00 | |
| HSKMA3-T | 2026-08-31 12:11:51 | 51.80393 | 8.08393 | 225° | 15km/h | 24975m | 4.6m/s | -50.2°C | 0.4% | 27hPa | 2.7V | 18:12:15 | 01:53:56 | 00:00:00 | |
| DL4XJ-10 | 2026-08-31 12:11:50 | 51.80395 | 8.08397 | 226° | 11km/h | 24970m | 5.8m/s | -49.5°C | 0% | 0hPa | 2.5V | 00:00:00 | 00:00:00 | 00:00:00 | |
| DL1XH1-15 | 2026-08-31 12:11:49 | 51.80397 | 8.08405 | 276° | 9km/h | 24955m | 5.2m/s | -50.2°C | 3.5% | 27.1hPa | 2.5V | 08:30:00 | 01:53:52 | 00:00:00 | |
| DO2JMG | 2026-08-31 12:11:48 | 51.80397 | 8.08402 | 261° | 7km/h | 24960m | 4.5m/s | -50.3°C | 0.4% | 27.1hPa | 2.5V | 18:12:15 | 01:53:53 | 00:00:00 | |
| BUE01 | 2026-08-31 12:11:47 | 51.80397 | 8.08410 | 278° | 13km/h | 24949m | 6.1m/s | -50.2°C | 0.9% | 27.1hPa | 2.7V | 00:00:00 | 00:00:00 | 00:00:00 | |
| BIOWL1-15 | 2026-08-31 12:11:43 | 51.80394 | 8.08431 | 289° | 18km/h | 24934m | 5.8m/s | -50.4°C | 0.3% | 27.2hPa | 2.7V | 18:12:15 | 01:53:48 | 00:00:00 | |
| HSKMA3-T | 2026-08-31 12:11:40 | 51.80390 | 8.08447 | 280° | 11km/h | 24917m | 6.1m/s | -50.3°C | 0.3% | 27.2hPa | 2.6V | 18:12:15 | 01:53:45 | 00:00:00 | |
| AA1-15 | 2026-08-31 12:11:37 | 51.80392 | 8.08454 | 177° | 5km/h | 24902m | 6.4m/s | -50°C | 0.3% | 27.3hPa | 2.7V | 18:12:15 | 01:53:42 | 00:00:00 | |
| DL1XH-west | 2026-08-31 12:11:33 | 51.80399 | 8.08449 | 195° | 7km/h | 24880m | 5.2m/s | -50.3°C | 0.3% | 27.4hPa | 2.7V | 18:12:15 | 01:53:38 | 00:00:00 | |
| DM0DOS-11 | 2026-08-31 12:11:33 | 51.80400 | 8.08451 | 229° | 5km/h | 24874m | 4.9m/s | -50.3°C | 3.5% | 27.4hPa | 2.7V | 08:30:00 | 01:53:37 | 00:00:00 | |
| DF8AY | 2026-08-31 12:11:33 | 51.80401 | 8.08453 | 266° | 5km/h | 24869m | 6.3m/s | -50.3°C | 0.3% | 27.4hPa | 2.7V | 18:12:15 | 01:53:36 | 00:00:00 | |
| BIOWL1-15 | 2026-08-31 12:11:32 | 51.80400 | 8.08455 | 303° | 7km/h | 24863m | 5.4m/s | -50.3°C | 0.3% | 27.5hPa | 2.5V | 18:12:15 | 01:53:35 | 00:00:00 | |
| HSKMA3-T | 2026-08-31 12:11:30 | 51.80399 | 8.08458 | 313° | 11km/h | 24858m | 5.2m/s | -50.3°C | 0.2% | 27.5hPa | 2.5V | 18:12:15 | 01:53:34 | 00:00:00 | |
| DL4XJ-10 | 2026-08-31 12:11:30 | 51.80400 | 8.08455 | 304° | 9km/h | 24863m | 5.4m/s | -49.5°C | 0% | 0hPa | 2.7V | 00:00:00 | 00:00:00 | 00:00:00 | |
| DL1XH1-15 | 2026-08-31 12:11:29 | 51.80395 | 8.08466 | 303° | 13km/h | 24847m | 5.4m/s | -50.4°C | 3.3% | 27.5hPa | 2.7V | 08:30:00 | 01:53:32 | 00:00:00 | |
| DO3MHA-11 | 2026-08-31 12:11:28 | 51.80397 | 8.08461 | 310° | 9km/h | 24852m | 5.8m/s | -50.3°C | 3.3% | 27.5hPa | 2.6V | 00:00:00 | 01:53:33 | 00:00:00 | |
| DM0DOS-11 | 2026-08-31 12:11:27 | 51.80388 | 8.08470 | 84° | 7km/h | 24821m | 5.7m/s | -50.7°C | 3.5% | 27.6hPa | 2.6V | 08:30:00 | 01:53:27 | 00:00:00 | |
| AA1-15 | 2026-08-31 12:11:27 | 51.80393 | 8.08470 | 306° | 11km/h | 24842m | 4.2m/s | -50.6°C | 0.2% | 27.6hPa | 2.7V | 18:12:15 | 01:53:31 | 00:00:00 | |
| DO2JMG | 2026-08-31 12:11:27 | 51.80395 | 8.08466 | 304° | 13km/h | 24847m | 5.4m/s | -50.4°C | 0.2% | 27.5hPa | 2.7V | 18:12:15 | 01:53:32 | 00:00:00 | |
| DL1XH-west | 2026-08-31 12:11:22 | 51.80388 | 8.08470 | 85° | 7km/h | 24821m | 5.7m/s | -50.7°C | 0.4% | 27.6hPa | 2.6V | 18:12:15 | 01:53:27 | 00:00:00 | |
| DL8DAS-15 | 2026-08-31 12:11:22 | 51.80389 | 8.08472 | 59° | 7km/h | 24827m | 4.8m/s | -50.6°C | 1.0% | 27.6hPa | 2.5V | 00:00:00 | 00:00:00 | 00:00:00 | |
| DL1XH-15 | 2026-08-31 12:11:21 | 51.80389 | 8.08459 | 44° | 7km/h | 24795m | 6m/s | -51°C | 3.7% | 27.8hPa | 2.5V | 08:30:00 | 01:53:22 | 00:00:00 | |
| HSKMA3-T | 2026-08-31 12:11:19 | 51.80390 | 8.08463 | 111° | 4km/h | 24806m | 4.3m/s | -50.9°C | 0.4% | 27.7hPa | 2.7V | 18:12:15 | 01:53:24 | 00:00:00 | |
| DF8AY | 2026-08-31 12:11:18 | 51.80390 | 8.08461 | 73° | 5km/h | 24801m | 5.4m/s | -51°C | 0.4% | 27.7hPa | 2.5V | 18:12:15 | 01:53:23 | 00:00:00 | |
| DL3AQ-11 | 2026-08-31 12:11:18 | 51.80389 | 8.08459 | 44° | 7km/h | 24795m | 6.0m/s | -51.1°C | 1.0% | 27.8hPa | 2.5V | 00:00:00 | 00:00:00 | 00:00:00 | |
| DM0DOS-11 | 2026-08-31 12:11:17 | 51.80378 | 8.08457 | 346° | 7km/h | 24770m | 4.2m/s | -51.1°C | 3.6% | 27.9hPa | 2.5V | 08:30:00 | 01:53:17 | 00:00:00 | |
| DO2JMG | 2026-08-31 12:11:16 | 51.80387 | 8.08457 | 26° | 11km/h | 24790m | 4.9m/s | -51.1°C | 0.5% | 27.8hPa | 2.5V | 18:12:15 | 01:53:21 | 00:00:00 | |
| AA1-15 | 2026-08-31 12:11:15 | 51.80385 | 8.08456 | 12° | 11km/h | 24785m | 4.9m/s | -51°C | 0.4% | 27.8hPa | 2.7V | 18:12:15 | 01:53:20 | 00:00:00 | |
| DL1XH-west | 2026-08-31 12:11:11 | 51.80376 | 8.08457 | 5° | 7km/h | 24765m | 5.9m/s | -51.2°C | 0.4% | 27.9hPa | 2.5V | 18:12:15 | 01:53:16 | 00:00:00 | |
| DL1XH-15 | 2026-08-31 12:11:11 | 51.80370 | 8.08452 | 18° | 4km/h | 24745m | 5.8m/s | -51°C | 3.6% | 28hPa | 2.7V | 08:30:00 | 01:53:12 | 00:00:00 | |
| HSKMA3-T | 2026-08-31 12:11:09 | 51.80373 | 8.08454 | 38° | 7km/h | 24755m | 3.9m/s | -51.1°C | 0.4% | 27.9hPa | 2.7V | 18:12:15 | 01:53:14 | 00:00:00 | |
| DF8AY | 2026-08-31 12:11:08 | 51.80370 | 8.08452 | 349° | 4km/h | 24739m | 5.1m/s | -51°C | 0.4% | 28hPa | 2.5V | 18:12:15 | 01:53:11 | 00:00:00 | |
| DO2JMG | 2026-08-31 12:11:06 | 51.80369 | 8.08452 | 354° | 4km/h | 24734m | 5m/s | -50.9°C | 0.5% | 28hPa | 2.5V | 18:12:15 | 01:53:10 | 00:00:00 | |
| EDDB2-11 | 2026-08-31 12:11:06 | 51.80369 | 8.08452 | 354° | 4km/h | 24734m | 5.0m/s | -50.9°C | 1.0% | 28.0hPa | 2.7V | 00:00:00 | 00:00:00 | 00:00:00 | |
| DM0DOS-11 | 2026-08-31 12:11:05 | 51.80363 | 8.08448 | 32° | 9km/h | 24719m | 4.1m/s | -50.9°C | 3.6% | 28hPa | 2.7V | 08:30:00 | 01:53:07 | 00:00:00 | |
| AA1-15 | 2026-08-31 12:11:04 | 51.80367 | 8.08452 | 15° | 5km/h | 24729m | 6m/s | -50.9°C | 0.4% | 28hPa | 2.5V | 18:12:15 | 01:53:09 | 00:00:00 | |
| BIOWL1-15 | 2026-08-31 12:11:01 | 51.80362 | 8.08446 | 36° | 9km/h | 24714m | 5.6m/s | -51.1°C | 0.4% | 28.1hPa | 2.7V | 18:12:15 | 01:53:06 | 00:00:00 | |
| DL1XH-west | 2026-08-31 12:11:00 | 51.80360 | 8.08445 | 41° | 5km/h | 24708m | 5.4m/s | -51.1°C | 0.4% | 28.1hPa | 2.5V | 18:12:15 | 01:53:05 | 00:00:00 | |
| HSKMA3-T | 2026-08-31 12:10:59 | 51.80360 | 8.08443 | 69° | 4km/h | 24703m | 4.8m/s | -51°C | 0.4% | 28.2hPa | 2.5V | 18:12:15 | 01:53:04 | 00:00:00 | |
| DO3MHA-11 | 2026-08-31 12:10:58 | 51.80360 | 8.08442 | 97° | 11km/h | 24699m | 4.6m/s | -51.0°C | 3.5% | 28.1hPa | 2.6V | 00:00:00 | 01:53:03 | 00:00:00 | |
| DO3MHA-12 | 2026-08-31 12:10:57 | 51.80360 | 8.08440 | 97° | 11km/h | 24694m | 6.0m/s | -51.1°C | 3.6% | 28.1hPa | 2.6V | 00:00:00 | 01:53:02 | 00:00:00 | |
| GOEST3-10 | 2026-08-31 12:10:56 | 51.80360 | 8.08436 | 95° | 13km/h | 24688m | 5.3m/s | -51.1°C | 3.6% | 28.2hPa | 2.6V | 00:00:00 | 01:53:01 | 00:00:00 | |
| DM0DOS-11 | 2026-08-31 12:10:55 | 51.80365 | 8.08419 | 140° | 13km/h | 24667m | 5m/s | -50.9°C | 3.5% | 28.3hPa | 2.6V | 08:30:00 | 01:52:57 | 00:00:00 | |
| DO2JMG | 2026-08-31 12:10:54 | 51.80361 | 8.08427 | 115° | 13km/h | 24678m | 5.2m/s | -51°C | 0.4% | 28.2hPa | 2.5V | 18:12:15 | 01:52:59 | 00:00:00 | |
| AA1-15 | 2026-08-31 12:10:53 | 51.80363 | 8.08422 | 130° | 13km/h | 24672m | 5.8m/s | -51°C | 0.4% | 28.3hPa | 2.5V | 18:12:15 | 01:52:58 | 00:00:00 | |
| BIOWL1-15 | 2026-08-31 12:10:50 | 51.80370 | 8.08412 | 127° | 13km/h | 24656m | 6m/s | -50.9°C | 0.4% | 28.4hPa | 2.7V | 18:12:15 | 01:52:55 | 00:00:00 | |
| DL1XH-west | 2026-08-31 12:10:49 | 51.80372 | 8.08407 | 118° | 13km/h | 24651m | 4.8m/s | -50.9°C | 0.4% | 28.4hPa | 2.7V | 18:12:15 | 01:52:54 | 00:00:00 | |
| DJ2DS-15 | 2026-08-31 12:10:48 | 51.80373 | 8.08402 | 119° | 13km/h | 24646m | 4.9m/s | -50.9°C | 1.0% | 28.4hPa | 2.7V | 00:00:00 | 00:00:00 | 00:00:00 | |
| DO2JMG | 2026-08-31 12:10:44 | 51.80382 | 8.08380 | 112° | 18km/h | 24626m | 6.2m/s | -50.9°C | 0.4% | 28.5hPa | 2.7V | 18:12:15 | 01:52:49 | 00:00:00 | |
| AA1-15 | 2026-08-31 12:10:43 | 51.80384 | 8.08365 | 98° | 20km/h | 24616m | 4m/s | -50.8°C | 0.4% | 28.6hPa | 2.5V | 18:12:15 | 01:52:47 | 00:00:00 | |
| DF8AY | 2026-08-31 12:10:42 | 51.80391 | 8.08335 | 100° | 13km/h | 24586m | 5.5m/s | -51.1°C | 0.5% | 28.7hPa | 2.5V | 18:12:15 | 01:52:41 | 00:00:00 | |
| DL1XH-15 | 2026-08-31 12:10:41 | 51.80390 | 8.08340 | 115° | 11km/h | 24592m | 4.9m/s | -51°C | 3.6% | 28.6hPa | 2.7V | 08:30:00 | 01:52:42 | 00:00:00 | |
| BIOWL1-15 | 2026-08-31 12:10:40 | 51.80386 | 8.08352 | 109° | 15km/h | 24606m | 5.6m/s | -50.9°C | 0.4% | 28.6hPa | 2.6V | 18:12:15 | 01:52:45 | 00:00:00 | |
| DL1XH-west | 2026-08-31 12:10:39 | 51.80389 | 8.08343 | 125° | 11km/h | 24596m | 4.2m/s | -51°C | 0.4% | 28.6hPa | 2.7V | 18:12:15 | 01:52:43 | 00:00:00 | |
| DO2JMG | 2026-08-31 12:10:34 | 51.80391 | 8.08322 | 90° | 18km/h | 24576m | 4.7m/s | -51.2°C | 0.4% | 28.7hPa | 2.6V | 18:12:15 | 01:52:39 | 00:00:00 | |
| AA1-15 | 2026-08-31 12:10:33 | 51.80392 | 8.08308 | 99° | 16km/h | 24566m | 5.5m/s | -51.1°C | 0.4% | 28.8hPa | 2.7V | 18:12:15 | 01:52:37 | 00:00:00 | |
| DF8AY | 2026-08-31 12:10:33 | 51.80391 | 8.08273 | 79° | 9km/h | 24536m | 5.8m/s | -51°C | 0.4% | 28.9hPa | 2.7V | 18:12:15 | 01:52:31 | 00:00:00 | |
| BIOWL1-15 | 2026-08-31 12:10:29 | 51.80391 | 8.08271 | 79° | 5km/h | 24531m | 5m/s | -51.1°C | 0.4% | 28.9hPa | 2.7V | 18:12:15 | 01:52:30 | 00:00:00 | |
| HSKMA3-T | 2026-08-31 12:10:28 | 51.80393 | 8.08283 | 78° | 15km/h | 24546m | 4.4m/s | -51.1°C | 0.4% | 28.9hPa | 2.6V | 18:12:15 | 01:52:33 | 00:00:00 | |
| DL1XH1-15 | 2026-08-31 12:10:27 | 51.80392 | 8.08277 | 75° | 13km/h | 24541m | 4.3m/s | -51°C | 3.5% | 28.9hPa | 2.7V | 08:30:00 | 01:52:32 | 00:00:00 | |
| DL1XH-west | 2026-08-31 12:10:27 | 51.80392 | 8.08277 | 75° | 13km/h | 24541m | 4.3m/s | -51°C | 0.3% | 28.9hPa | 2.7V | 18:12:15 | 01:52:32 | 00:00:00 | |
| DO2JMG | 2026-08-31 12:10:23 | 51.80390 | 8.08268 | 37° | 5km/h | 24521m | 5.2m/s | -51.2°C | 0.4% | 28.9hPa | 2.5V | 18:12:15 | 01:52:28 | 00:00:00 | |
| AA1-15 | 2026-08-31 12:10:22 | 51.80384 | 8.08261 | 42° | 13km/h | 24507m | 4.7m/s | -51.3°C | 0.4% | 29hPa | 2.7V | 18:12:15 | 01:52:25 | 00:00:00 | |
| BIOWL1-15 | 2026-08-31 12:10:20 | 51.80380 | 8.08253 | 51° | 13km/h | 24497m | 4.7m/s | -51.4°C | 0.5% | 29.1hPa | 2.5V | 18:12:15 | 01:52:23 | 00:00:00 | |
| HSKMA3-T | 2026-08-31 12:10:17 | 51.80377 | 8.08249 | 51° | 15km/h | 24492m | 4.5m/s | -51.4°C | 0.4% | 29.1hPa | 2.5V | 18:12:15 | 01:52:22 | 00:00:00 | |
| DL1XH-west | 2026-08-31 12:10:16 | 51.80375 | 8.08244 | 47° | 16km/h | 24487m | 5.2m/s | -51.4°C | 0.5% | 29.1hPa | 2.5V | 18:12:15 | 01:52:21 | 00:00:00 | |
| DF8AY | 2026-08-31 12:10:15 | 51.80371 | 8.08239 | 39° | 20km/h | 24482m | 5.7m/s | -51.5°C | 0.5% | 29.1hPa | 2.7V | 18:12:15 | 01:52:20 | 00:00:00 | |
| DM0DOS-11 | 2026-08-31 12:10:14 | 51.80357 | 8.08228 | 14° | 18km/h | 24468m | 5.8m/s | -51.4°C | 3.7% | 29.2hPa | 2.5V | 08:30:00 | 01:52:17 | 00:00:00 | |
| DO2JMG | 2026-08-31 12:10:13 | 51.80362 | 8.08230 | 23° | 22km/h | 24473m | 4.1m/s | -51.5°C | 0.5% | 29.2hPa | 2.7V | 18:12:15 | 01:52:18 | 00:00:00 | |
| AA1-15 | 2026-08-31 12:10:11 | 51.80354 | 8.08226 | 4° | 15km/h | 24462m | 5.7m/s | -51.4°C | 0.4% | 29.2hPa | 2.5V | 18:12:15 | 01:52:16 | 00:00:00 | |
| DB0DAN | 2026-08-31 12:10:10 | 51.80350 | 8.08226 | 355° | 13km/h | 24457m | 5m/s | -51.4°C | 1% | 29.28hPa | 2.5V | 00:00:00 | 00:00:00 | 00:00:00 | |
| BIOWL1-15 | 2026-08-31 12:10:09 | 51.80341 | 8.08228 | 351° | 13km/h | 24442m | 4.2m/s | -51.5°C | 0.5% | 29.3hPa | 2.7V | 18:12:15 | 01:52:12 | 00:00:00 | |
| DL1XH-west | 2026-08-31 12:10:06 | 51.80338 | 8.08229 | 345° | 11km/h | 24436m | 6.1m/s | -51.4°C | 0.4% | 29.3hPa | 2.5V | 18:12:15 | 01:52:11 | 00:00:00 | |
| DF8AY | 2026-08-31 12:10:04 | 51.80332 | 8.08232 | 351° | 13km/h | 24426m | 4.4m/s | 0°C | 0% | 29.4hPa | 2.6V | 18:12:15 | 01:52:09 | 00:00:00 | |
| DM0DOS-11 | 2026-08-31 12:10:03 | 51.80323 | 8.08231 | 7° | 22km/h | 24415m | 5.2m/s | -51.5°C | 3.7% | 29.4hPa | 2.7V | 08:30:00 | 01:52:07 | 00:00:00 | |
| DO2JMG | 2026-08-31 12:10:02 | 51.80324 | 8.08231 | 7° | 22km/h | 24415m | 5.2m/s | -51.5°C | 0.4% | 29.5hPa | 2.7V | 18:12:15 | 01:52:07 | 00:00:00 | |
| AA1-15 | 2026-08-31 12:10:01 | 51.80302 | 8.08231 | 342° | 18km/h | 24396m | 4.8m/s | -51.5°C | 0.5% | 29.5hPa | 2.5V | 18:12:15 | 01:52:03 | 00:00:00 | |
| DL1XH1-15 | 2026-08-31 12:10:00 | 51.80298 | 8.08234 | 332° | 18km/h | 24392m | 4.4m/s | -51.5°C | 3.8% | 29.5hPa | 2.7V | 08:30:00 | 01:52:02 | 00:00:00 | |
| BIOWL1-15 | 2026-08-31 12:09:59 | 51.80294 | 8.08237 | 332° | 16km/h | 24387m | 5.1m/s | -51.5°C | 0.5% | 29.6hPa | 2.7V | 18:12:15 | 01:52:01 | 00:00:00 | |
| DL3AQ-11 | 2026-08-31 12:09:58 | 51.80298 | 8.08234 | 332° | 16km/h | 24392m | 4.4m/s | -51.5°C | 1.0% | 29.5hPa | 2.5V | 00:00:00 | 00:00:00 | 00:00:00 | |
| DM0DOS-11 | 2026-08-31 12:09:57 | 51.80282 | 8.08247 | 316° | 11km/h | 24367m | 6.2m/s | -51.4°C | 3.7% | 29.7hPa | 2.5V | 08:30:00 | 01:51:57 | 00:00:00 | |
| DL1XH-west | 2026-08-31 12:09:55 | 51.80290 | 8.08240 | 336° | 16km/h | 24382m | 4.9m/s | -51.4°C | 0.5% | 29.6hPa | 2.7V | 18:12:15 | 01:52:00 | 00:00:00 | |
| DF8AY | 2026-08-31 12:09:54 | 51.80287 | 8.08242 | 338° | 13km/h | 24377m | 4.3m/s | 0°C | 0% | 0hPa | 2.5V | 18:12:15 | 01:51:59 | 00:00:00 | |
| DO2JMG | 2026-08-31 12:09:52 | 51.80282 | 8.08247 | 317° | 11km/h | 24367m | 6.2m/s | -51.4°C | 0.4% | 29.7hPa | 2.5V | 18:12:15 | 01:51:57 | 00:00:00 | |
| AA1-15 | 2026-08-31 12:09:50 | 51.80275 | 8.08257 | 326° | 15km/h | 24351m | 6m/s | -51.6°C | 0.5% | 29.7hPa | 2.7V | 18:12:15 | 01:51:54 | 00:00:00 | |
| BIOWL1-15 | 2026-08-31 12:09:48 | 51.80261 | 8.08269 | 331° | 24km/h | 24337m | 5.2m/s | -51.5°C | 0.5% | 29.8hPa | 2.6V | 18:12:15 | 01:51:51 | 00:00:00 | |
| DO9LL-15 | 2026-08-31 12:09:48 | 51.80271 | 8.08261 | 336° | 22km/h | 24347m | 4.6m/s | -51.5°C | 3.7% | 29.7hPa | 2.5V | 00:00:00 | 01:51:53 | 00:00:00 | |
| DM0DOS-11 | 2026-08-31 12:09:47 | 51.80244 | 8.08290 | 321° | 18km/h | 24316m | 5m/s | -51.3°C | 3.7% | 29.9hPa | 2.5V | 08:30:00 | 01:51:47 | 00:00:00 | |
| DL1XH-west | 2026-08-31 12:09:45 | 51.80257 | 8.08274 | 323° | 22km/h | 24332m | 5.7m/s | -51.4°C | 0.5% | 29.8hPa | 2.7V | 18:12:15 | 01:51:50 | 00:00:00 | |
| HSKMA3-T | 2026-08-31 12:09:44 | 51.80252 | 8.08279 | 320° | 22km/h | 24327m | 4.8m/s | -51.4°C | 0.5% | 29.8hPa | 2.7V | 18:12:15 | 01:51:49 | 00:00:00 | |
| DF8AY | 2026-08-31 12:09:43 | 51.80248 | 8.08285 | 320° | 20km/h | 24322m | 5.6m/s | 0°C | 0% | 0hPa | 2.7V | 18:12:15 | 01:51:48 | 00:00:00 | |
| DO2JMG | 2026-08-31 12:09:41 | 51.80241 | 8.08294 | 316° | 16km/h | 24312m | 4m/s | -51.3°C | 0.5% | 29.9hPa | 2.5V | 18:12:15 | 01:51:46 | 00:00:00 | |
| AA1-15 | 2026-08-31 12:09:40 | 51.80228 | 8.08327 | 311° | 24km/h | 24286m | 5m/s | -51.2°C | 0.4% | 30hPa | 2.5V | 18:12:15 | 01:51:41 | 00:00:00 | |
| BIOWL1-15 | 2026-08-31 12:09:36 | 51.80224 | 8.08335 | 314° | 27km/h | 24282m | 4.5m/s | -51.2°C | 0.4% | 30.1hPa | 2.5V | 18:12:15 | 01:51:40 | 00:00:00 | |
| DL1XH-west | 2026-08-31 12:09:34 | 51.80219 | 8.08343 | 313° | 29km/h | 24277m | 5.3m/s | -51.3°C | 0.4% | 30.1hPa | 2.6V | 18:12:15 | 01:51:39 | 00:00:00 | |
| HSKMA3-T | 2026-08-31 12:09:33 | 51.80214 | 8.08352 | 311° | 31km/h | 24272m | 5.5m/s | -51.3°C | 0.4% | 30.1hPa | 2.7V | 18:12:15 | 01:51:38 | 00:00:00 | |
| DM0DOS-11 | 2026-08-31 12:09:33 | 51.80209 | 8.08361 | 310° | 31km/h | 24266m | 4.9m/s | -51.2°C | 3.7% | 30.1hPa | 2.7V | 08:30:00 | 01:51:37 | 00:00:00 | |
| DF8AY | 2026-08-31 12:09:32 | 51.80209 | 8.08361 | 311° | 31km/h | 24266m | 4.9m/s | 0°C | 0% | 0hPa | 2.7V | 18:12:15 | 01:51:37 | 00:00:00 | |
| DO2JMG | 2026-08-31 12:09:31 | 51.80204 | 8.08370 | 314° | 27km/h | 24261m | 5.2m/s | -51.1°C | 0.4% | 30.1hPa | 2.7V | 18:12:15 | 01:51:36 | 00:00:00 | |
| AA1-15 | 2026-08-31 12:09:29 | 51.80195 | 8.08384 | 322° | 22km/h | 24251m | 3.9m/s | -51°C | 0.4% | 30.1hPa | 2.5V | 18:12:15 | 01:51:34 | 00:00:00 | |
| GOEST3-10 | 2026-08-31 12:09:29 | 51.80195 | 8.08384 | 322° | 20km/h | 24251m | 3.8m/s | -50.9°C | 3.6% | 30.1hPa | 2.5V | 00:00:00 | 00:00:00 | 08:30:00 | |
| DO3MHA-11 | 2026-08-31 12:09:28 | 51.80191 | 8.08389 | 318° | 22km/h | 24247m | 4.6m/s | -51.0°C | 3.6% | 30.2hPa | 2.6V | 00:00:00 | 01:51:33 | 00:00:00 | |
| DM0DOS-11 | 2026-08-31 12:09:27 | 51.80171 | 8.08425 | 316° | 24km/h | 24217m | 4.6m/s | -51.3°C | 3.6% | 30.4hPa | 2.6V | 08:30:00 | 01:51:27 | 00:00:00 | |
| BIOWL1-15 | 2026-08-31 12:09:25 | 51.80158 | 8.08448 | 311° | 27km/h | 24202m | 3.9m/s | -51.2°C | 0.5% | 30.4hPa | 2.7V | 18:12:15 | 01:51:24 | 00:00:00 | |
| DL1XH-west | 2026-08-31 12:09:24 | 51.80179 | 8.08413 | 313° | 20km/h | 24227m | 5.6m/s | -51.1°C | 0.4% | 30.3hPa | 2.5V | 18:12:15 | 01:51:29 | 00:00:00 | |
| HSKMA3-T | 2026-08-31 12:09:22 | 51.80171 | 8.08425 | 316° | 24km/h | 24217m | 4.6m/s | -51.3°C | 0.4% | 30.4hPa | 2.6V | 18:12:15 | 01:51:27 | 00:00:00 | |
| DL1XH1-15 | 2026-08-31 12:09:21 | 51.80143 | 8.08468 | 331° | 24km/h | 24187m | 4.1m/s | -51.1°C | 3.7% | 30.5hPa | 2.5V | 08:30:00 | 01:51:21 | 00:00:00 | |
| DO2JMG | 2026-08-31 12:09:21 | 51.80167 | 8.08432 | 312° | 26km/h | 24212m | 6m/s | -51.3°C | 0.5% | 30.4hPa | 2.7V | 18:12:15 | 01:51:26 | 00:00:00 | |
| AA1-15 | 2026-08-31 12:09:18 | 51.80143 | 8.08468 | 332° | 24km/h | 24187m | 4.1m/s | -51.1°C | 0.5% | 30.5hPa | 2.5V | 18:12:15 | 01:51:21 | 00:00:00 | |
| BIOWL1-15 | 2026-08-31 12:09:13 | 51.80127 | 8.08485 | 319° | 16km/h | 24168m | 4.8m/s | -51.2°C | 0.4% | 30.6hPa | 2.5V | 18:12:15 | 01:51:17 | 00:00:00 | |
| DL1XH-west | 2026-08-31 12:09:13 | 51.80130 | 8.08481 | 320° | 16km/h | 24172m | 4.9m/s | -51.2°C | 0.4% | 30.6hPa | 2.7V | 18:12:15 | 01:51:18 | 00:00:00 | |
| NBG1-10 | 2026-08-31 12:09:13 | 51.80130 | 8.08481 | 320° | 11km/h | 24173m | 4.9m/s | -51.1°C | 3.7% | 30.5hPa | 2.7V | 00:00:00 | 01:51:18 | 00:00:00 | |
| DL1XH-15 | 2026-08-31 12:09:12 | 51.80110 | 8.08506 | 308° | 20km/h | 24142m | 4.8m/s | -51°C | 3.6% | 30.7hPa | 2.7V | 08:30:00 | 01:51:12 | 00:00:00 | |
| HSKMA3-T | 2026-08-31 12:09:11 | 51.80124 | 8.08489 | 326° | 15km/h | 24162m | 5.8m/s | -51.3°C | 0.5% | 30.6hPa | 2.5V | 18:12:15 | 01:51:16 | 00:00:00 | |
| DO2JMG | 2026-08-31 12:09:10 | 51.80120 | 8.08492 | 330° | 16km/h | 24157m | 4.9m/s | -51.3°C | 0.4% | 30.7hPa | 2.6V | 18:12:15 | 01:51:15 | 00:00:00 | |
| AA1-15 | 2026-08-31 12:09:08 | 51.80107 | 8.08513 | 309° | 20km/h | 24137m | 4.2m/s | -51°C | 0.4% | 30.7hPa | 2.5V | 18:12:15 | 01:51:11 | 00:00:00 | |
| DD8BA-10 | 2026-08-31 12:09:07 | 51.80110 | 8.08506 | 309° | 13km/h | 24142m | 4.7m/s | -50.9°C | 3.6% | 30.7hPa | 2.7V | 00:00:00 | 00:00:00 | 00:00:00 | |
| DL4BBY-15 | 2026-08-31 12:09:06 | 51.80106 | 8.08513 | 309° | 11km/h | 24138m | 4.2m/s | -50.3°C | 0% | 0hPa | 2.7V | 00:00:00 | 00:00:00 | 00:00:00 | |
| DM0DOS-11 | 2026-08-31 12:09:05 | 51.80093 | 8.08529 | 348° | 13km/h | 24118m | 4m/s | -51.2°C | 3.7% | 30.8hPa | 2.7V | 08:30:00 | 01:51:07 | 00:00:00 | |
| BIOWL1-15 | 2026-08-31 12:09:02 | 51.80093 | 8.08529 | 348° | 13km/h | 24118m | 4m/s | -51.2°C | 0.4% | 30.8hPa | 2.7V | 18:12:15 | 01:51:07 | 00:00:00 | |
| DL1XH1-15 | 2026-08-31 12:09:01 | 51.80083 | 8.08539 | 329° | 11km/h | 24088m | 4.9m/s | -51.1°C | 3.7% | 30.9hPa | 2.7V | 08:30:00 | 01:51:01 | 00:00:00 | |
| DL1XH-15 | 2026-08-31 12:09:00 | 51.80085 | 8.08537 | 318° | 7km/h | 24093m | 6m/s | -51.2°C | 3.7% | 30.9hPa | 2.7V | 08:30:00 | 01:51:02 | 00:00:00 | |
| HSKMA3-T | 2026-08-31 12:09:00 | 51.80088 | 8.08531 | 330° | 5km/h | 24108m | 5.2m/s | -51.1°C | 0.4% | 30.9hPa | 2.5V | 18:12:15 | 01:51:05 | 00:00:00 | |
| DF8AY | 2026-08-31 12:08:59 | 51.80087 | 8.08535 | 308° | 7km/h | 24098m | 4.7m/s | 0°C | 0% | 0hPa | 2.6V | 18:12:15 | 01:51:03 | 00:00:00 | |
| DO2JMG | 2026-08-31 12:08:59 | 51.80087 | 8.08533 | 304° | 5km/h | 24103m | 4.5m/s | -51.1°C | 0.5% | 30.9hPa | 2.5V | 18:12:15 | 01:51:04 | 00:00:00 | |
| AA1-15 | 2026-08-31 12:08:57 | 51.80085 | 8.08537 | 319° | 7km/h | 24093m | 6m/s | -51.2°C | 0.5% | 30.9hPa | 2.7V | 18:12:15 | 01:51:02 | 00:00:00 | |
| DD8BA-10 | 2026-08-31 12:08:57 | 51.80085 | 8.08537 | 319° | 11km/h | 24094m | 5.9m/s | -51.1°C | 3.7% | 30.9hPa | 2.7V | 00:00:00 | 00:00:00 | 00:00:00 | |
| DB0UT-7 | 2026-08-31 12:08:56 | 51.80083 | 8.08539 | 330° | 9km/h | 24088m | 4.9m/s | -51.1°C | 3.7% | 30.9hPa | 2.6V | 00:00:00 | 00:00:00 | 00:00:00 | |
| DM0DOS-11 | 2026-08-31 12:08:55 | 51.80073 | 8.08555 | 301° | 15km/h | 24068m | 4.4m/s | -51°C | 3.6% | 31.1hPa | 2.6V | 08:30:00 | 01:50:57 | 00:00:00 | |
| HTAHTA | 2026-08-31 12:08:55 | 51.80080 | 8.08542 | 327° | 13km/h | 24083m | 4.4m/s | -51.0°C | 1.0% | 31.0hPa | 2.5V | 00:00:00 | 00:00:00 | 00:00:00 | |
| DL3AQ-11 | 2026-08-31 12:08:54 | 51.80065 | 8.08562 | 48° | 2km/h | 24042m | 6.0m/s | -51.0°C | 1.0% | 31.2hPa | 2.5V | 00:00:00 | 00:00:00 | 00:00:00 | |
| DL1XH-15 | 2026-08-31 12:08:52 | 51.80065 | 8.08562 | 48° | 4km/h | 24042m | 6m/s | -51°C | 3.6% | 31.2hPa | 2.5V | 08:30:00 | 01:50:52 | 00:00:00 | |
| DL1XH-west | 2026-08-31 12:08:51 | 51.80071 | 8.08560 | 307° | 11km/h | 24063m | 4.6m/s | -51.1°C | 0.4% | 31.1hPa | 2.7V | 18:12:15 | 01:50:56 | 00:00:00 | |
| HSKMA3-T | 2026-08-31 12:08:49 | 51.80067 | 8.08563 | 1° | 7km/h | 24052m | 5.1m/s | -51°C | 0.4% | 31.1hPa | 2.7V | 18:12:15 | 01:50:54 | 00:00:00 | |
| DL1XH1-15 | 2026-08-31 12:08:48 | 51.80065 | 8.08561 | 64° | 2km/h | 24037m | 4.5m/s | -51°C | 3.5% | 31.2hPa | 2.6V | 08:30:00 | 01:50:51 | 00:00:00 | |
| DO2JMG | 2026-08-31 12:08:48 | 51.80066 | 8.08563 | 27° | 5km/h | 24047m | 5.3m/s | -51°C | 0.4% | 31.1hPa | 2.5V | 18:12:15 | 01:50:53 | 00:00:00 | |
| AA1-15 | 2026-08-31 12:08:46 | 51.80065 | 8.08561 | 64° | 2km/h | 24037m | 4.5m/s | -51°C | 0.4% | 31.2hPa | 2.6V | 18:12:15 | 01:50:51 | 00:00:00 | |
| DO3MHA-12 | 2026-08-31 12:08:44 | 51.80064 | 8.08560 | 8° | 11km/h | 24028m | 5.5m/s | -51.0°C | 3.6% | 31.2hPa | 2.7V | 00:00:00 | 01:50:49 | 08:30:00 | |
| DL1XH-15 | 2026-08-31 12:08:42 | 51.80049 | 8.08579 | 323° | 15km/h | 23991m | 5.5m/s | -51.1°C | 3.5% | 31.4hPa | 2.7V | 08:30:00 | 01:50:42 | 00:00:00 | |
| DL1XH-west | 2026-08-31 12:08:41 | 51.80056 | 8.08566 | 308° | 13km/h | 24007m | 5.3m/s | -51°C | 0.4% | 31.3hPa | 2.5V | 18:12:15 | 01:50:45 | 00:00:00 | |
| HSKMA3-T | 2026-08-31 12:08:39 | 51.80054 | 8.08570 | 306° | 15km/h | 24002m | 4.7m/s | -50.9°C | 0.3% | 31.4hPa | 2.7V | 18:12:15 | 01:50:44 | 00:00:00 | |
| BIOWL1-15 | 2026-08-31 12:08:38 | 51.80046 | 8.08582 | 332° | 15km/h | 23986m | 4.6m/s | -51.1°C | 0.3% | 31.4hPa | 2.5V | 18:12:15 | 01:50:41 | 00:00:00 | |
| DO2JMG | 2026-08-31 12:08:38 | 51.80052 | 8.08575 | 312° | 15km/h | 23997m | 5.4m/s | -51°C | 0.3% | 31.4hPa | 2.7V | 18:12:15 | 01:50:43 | 00:00:00 | |
| DL1XH1-15 | 2026-08-31 12:08:38 | 51.80046 | 8.08582 | 331° | 15km/h | 23986m | 4.6m/s | -51.1°C | 3.5% | 31.4hPa | 2.5V | 08:30:00 | 01:50:41 | 00:00:00 | |
| AA1-15 | 2026-08-31 12:08:35 | 51.80043 | 8.08585 | 333° | 13km/h | 23981m | 4.8m/s | -51°C | 0.3% | 31.5hPa | 2.5V | 18:12:15 | 01:50:40 | 00:00:00 | |
| DF5WG-10 | 2026-08-31 12:08:35 | 51.80043 | 8.08584 | 333° | 9km/h | 23982m | 4.8m/s | -50.9°C | 3.5% | 31.4hPa | 2.5V | 00:00:00 | 01:50:40 | 00:00:00 | |
| DJ2DS-15 | 2026-08-31 12:08:34 | 51.80040 | 8.08587 | 327° | 9km/h | 23976m | 5.7m/s | -50.9°C | 3.5% | 31.5hPa | 2.6V | 00:00:00 | 01:50:39 | 00:00:00 | |
| DD1CC8 | 2026-08-31 12:08:33 | 51.80039 | 8.08589 | 324° | 7km/h | 23971m | 4.7m/s | -51.0°C | 0.9% | 31.5hPa | 2.7V | 00:00:00 | 00:00:00 | 00:00:00 | |
| SONCRA | 2026-08-31 12:08:32 | 51.80035 | 8.08591 | 356° | 7km/h | 23961m | 6.1m/s | -51.1°C | 1.0% | 31.6hPa | 2.7V | 00:00:00 | 00:00:00 | 00:00:00 | |
| DL1XH1-15 | 2026-08-31 12:08:31 | 51.80025 | 8.08594 | 316° | 9km/h | 23935m | 4.4m/s | -51.1°C | 3.6% | 31.7hPa | 2.7V | 08:30:00 | 01:50:31 | 00:00:00 | |
| DL4XJ-10 | 2026-08-31 12:08:30 | 51.80033 | 8.08591 | 10° | 11km/h | 23955m | 5.3m/s | -50.2°C | 0% | 0hPa | 2.7V | 00:00:00 | 00:00:00 | 00:00:00 | |
| DL1XH-15 | 2026-08-31 12:08:29 | 51.80027 | 8.08591 | 327° | 7km/h | 23940m | 5m/s | -51.1°C | 3.6% | 31.7hPa | 2.7V | 08:30:00 | 01:50:32 | 00:00:00 | |
| DL1XH-west | 2026-08-31 12:08:29 | 51.80031 | 8.08590 | 8° | 9km/h | 23950m | 4.5m/s | -50.9°C | 0.3% | 31.6hPa | 2.5V | 18:12:15 | 01:50:34 | 00:00:00 | |
| BIOWL1-15 | 2026-08-31 12:08:28 | 51.80028 | 8.08590 | 354° | 7km/h | 23945m | 5.7m/s | -51°C | 0.3% | 31.7hPa | 2.6V | 18:12:15 | 01:50:33 | 00:00:00 | |
| DO2JMG | 2026-08-31 12:08:27 | 51.80027 | 8.08591 | 327° | 7km/h | 23940m | 5m/s | -51.1°C | 0.4% | 31.7hPa | 2.7V | 18:12:15 | 01:50:32 | 00:00:00 | |
| DF8AY | 2026-08-31 12:08:26 | 51.80025 | 8.08594 | 317° | 9km/h | 23935m | 4.4m/s | 0°C | 0% | 0hPa | 2.7V | 18:12:15 | 01:50:31 | 00:00:00 | |
| DB0DAN | 2026-08-31 12:08:25 | 51.80023 | 8.08597 | 321° | 11km/h | 23930m | 5.8m/s | -51.2°C | 0.9% | 31.73hPa | 2.7V | 00:00:00 | 00:00:00 | 00:00:00 | |
| AA1-15 | 2026-08-31 12:08:24 | 51.80020 | 8.08600 | 329° | 15km/h | 23924m | 5.6m/s | -51.3°C | 0.4% | 31.7hPa | 2.5V | 18:12:15 | 01:50:29 | 00:00:00 | |
| DO3MHA-12 | 2026-08-31 12:08:24 | 51.80020 | 8.08599 | 329° | 11km/h | 23925m | 5.6m/s | -51.2°C | 3.5% | 31.7hPa | 2.5V | 00:00:00 | 01:50:29 | 00:00:00 | |
| DL1XH-15 | 2026-08-31 12:08:22 | 51.80003 | 8.08610 | 21° | 11km/h | 23888m | 5.2m/s | -51.8°C | 3.6% | 31.9hPa | 2.5V | 08:30:00 | 01:50:22 | 00:00:00 | |
| DJ2KF-10 | 2026-08-31 12:08:21 | 51.80011 | 8.08608 | 324° | 9km/h | 23909m | 5.5m/s | -51.5°C | 3.5% | 31.8hPa | 2.7V | 00:00:00 | 01:50:26 | 00:00:00 | |
| DO1YAY-16 | 2026-08-31 12:08:20 | 51.80009 | 8.08610 | 326° | 7km/h | 23904m | 4.4m/s | -51.6°C | 1.0% | 31.9hPa | 2.6V | 00:00:00 | 00:00:00 | 00:00:00 | |
| GOEST3-10 | 2026-08-31 12:08:19 | 51.80007 | 8.08611 | 350° | 9km/h | 23900m | 4.7m/s | -51.7°C | 3.5% | 31.8hPa | 2.6V | 00:00:00 | 00:00:00 | 00:00:00 | |
| DL1XH1-15 | 2026-08-31 12:08:18 | 51.80000 | 8.08608 | 26° | 11km/h | 23883m | 4.9m/s | -51.8°C | 3.6% | 31.9hPa | 2.6V | 08:30:00 | 01:50:21 | 00:00:00 | |
| DL1XH-west | 2026-08-31 12:08:18 | 51.80005 | 8.08611 | 11° | 9km/h | 23894m | 6.2m/s | -51.8°C | 0.4% | 31.9hPa | 2.5V | 18:12:15 | 01:50:23 | 00:00:00 | |
| DO2JMG | 2026-08-31 12:08:17 | 51.80003 | 8.08610 | 22° | 11km/h | 23888m | 5.2m/s | -51.8°C | 0.4% | 31.9hPa | 2.5V | 18:12:15 | 01:50:22 | 00:00:00 | |
| DL1LOL-11 | 2026-08-31 12:08:16 | 51.80003 | 8.08610 | 23° | 11km/h | 23888m | 5.2m/s | -51.8°C | 1.0% | 31.9hPa | 2.5V | 00:00:00 | 00:00:00 | 00:00:00 | |
| DM0DOS-11 | 2026-08-31 12:08:15 | 51.79992 | 8.08601 | 24° | 11km/h | 23862m | 6.1m/s | -52.1°C | 3.8% | 32hPa | 2.5V | 08:30:00 | 01:50:17 | 00:00:00 | |
| AA1-15 | 2026-08-31 12:08:13 | 51.79994 | 8.08603 | 25° | 9km/h | 23868m | 5m/s | -52°C | 0.5% | 32hPa | 2.7V | 18:12:15 | 01:50:18 | 00:00:00 | |
| DL1XH-15 | 2026-08-31 12:08:11 | 51.79978 | 8.08594 | 5° | 9km/h | 23837m | 4.3m/s | -52.4°C | 3.8% | 32.2hPa | 2.7V | 08:30:00 | 01:50:12 | 00:00:00 | |
| DB0DAN | 2026-08-31 12:08:10 | 51.79986 | 8.08597 | 21° | 13km/h | 23852m | 4m/s | -52.2°C | 0% | 32.14hPa | 2.6V | 00:00:00 | 00:00:00 | 00:00:00 | |
| DF8AY | 2026-08-31 12:08:10 | 51.79986 | 8.08597 | 21° | 13km/h | 23852m | 4m/s | 0°C | 0% | 0hPa | 2.6V | 18:12:15 | 01:50:15 | 00:00:00 | |
| DL4XJ-10 | 2026-08-31 12:08:10 | 51.79985 | 8.08597 | 21° | 9km/h | 23853m | 4.0m/s | -51.5°C | 0% | 0hPa | 2.5V | 00:00:00 | 00:00:00 | 00:00:00 | |
| GOEST3-10 | 2026-08-31 12:08:09 | 51.79983 | 8.08595 | 18° | 11km/h | 23848m | 6.0m/s | -52.2°C | 3.8% | 32.1hPa | 2.5V | 00:00:00 | 00:00:00 | 00:00:00 | |
| DL1XH1-15 | 2026-08-31 12:08:08 | 51.79976 | 8.08594 | 8° | 11km/h | 23832m | 6m/s | -52.5°C | 3.9% | 32.2hPa | 2.5V | 08:30:00 | 01:50:11 | 00:00:00 | |
| DL1XH-west | 2026-08-31 12:08:08 | 51.79980 | 8.08595 | 8° | 9km/h | 23842m | 5m/s | -52.3°C | 0.5% | 32.2hPa | 2.7V | 18:12:15 | 01:50:13 | 00:00:00 | |
| DO2JMG | 2026-08-31 12:08:07 | 51.79978 | 8.08594 | 6° | 9km/h | 23837m | 4.3m/s | -52.4°C | 0.5% | 32.2hPa | 2.7V | 18:12:15 | 01:50:12 | 00:00:00 | |
| BIOWL1-15 | 2026-08-31 12:08:06 | 51.79973 | 8.08593 | 13° | 13km/h | 23826m | 4.9m/s | -52.5°C | 0.6% | 32.2hPa | 2.5V | 18:12:15 | 01:50:10 | 00:00:00 | |
| DL4BBY-15 | 2026-08-31 12:08:06 | 51.79975 | 8.08594 | 9° | 9km/h | 23832m | 6.0m/s | -51.7°C | 0% | 0hPa | 2.5V | 00:00:00 | 00:00:00 | 00:00:00 | |
| DL1ZP-14 | 2026-08-31 12:08:05 | 51.79970 | 8.08592 | 14° | 13km/h | 23822m | 4.2m/s | -52.5°C | 1.0% | 32.3hPa | 2.5V | 00:00:00 | 00:00:00 | 00:00:00 | |
| DB0NH | 2026-08-31 12:08:04 | 51.79969 | 8.08592 | 15° | 9km/h | 23822m | 4.1m/s | -52.4°C | 3.9% | 32.2hPa | 2.7V | 00:00:00 | 01:50:09 | 00:00:00 | |
| DL1XH-15 | 2026-08-31 12:08:01 | 51.79956 | 8.08582 | 39° | 11km/h | 23786m | 4.7m/s | -52.5°C | 3.8% | 32.5hPa | 2.7V | 08:30:00 | 01:50:02 | 00:00:00 | |
| DF8AY | 2026-08-31 12:07:59 | 51.79960 | 8.08587 | 31° | 7km/h | 23796m | 6m/s | 0°C | 0% | 0hPa | 2.5V | 18:12:15 | 01:50:04 | 00:00:00 | |
| DL1XH-west | 2026-08-31 12:07:58 | 51.79958 | 8.08585 | 36° | 11km/h | 23791m | 5m/s | -52.4°C | 0.5% | 32.4hPa | 2.5V | 18:12:15 | 01:50:03 | 00:00:00 | |
| DO2JMG | 2026-08-31 12:07:56 | 51.79954 | 8.08579 | 45° | 9km/h | 23780m | 5.8m/s | -52.4°C | 0.5% | 32.5hPa | 2.7V | 18:12:15 | 01:50:01 | 00:00:00 | |
| BIOWL1-15 | 2026-08-31 12:07:55 | 51.79950 | 8.08574 | 29° | 5km/h | 23764m | 5.4m/s | -52.4°C | 0.5% | 32.5hPa | 2.5V | 18:12:15 | 01:49:58 | 00:00:00 | |
| DL8DAS-14 | 2026-08-31 12:07:54 | 51.79952 | 8.08575 | 47° | 5km/h | 23770m | 4.7m/s | -52.3°C | 1.0% | 32.5hPa | 2.5V | 00:00:00 | 00:00:00 | 00:00:00 | |
| HTAHTA | 2026-08-31 12:07:53 | 51.79950 | 8.08574 | 28° | 5km/h | 23764m | 5.4m/s | -52.4°C | 1.0% | 32.5hPa | 2.5V | 00:00:00 | 00:00:00 | 00:00:00 | |
| DL1XH-15 | 2026-08-31 12:07:51 | 51.79939 | 8.08581 | 337° | 9km/h | 23733m | 6.1m/s | -52.4°C | 3.9% | 32.7hPa | 2.5V | 08:30:00 | 01:49:52 | 00:00:00 | |
| AA1-15 | 2026-08-31 12:07:50 | 51.79943 | 8.08577 | 314° | 9km/h | 23742m | 5.2m/s | -52.4°C | 0.6% | 32.7hPa | 2.7V | 18:12:15 | 01:49:54 | 00:00:00 | |
| BIOWL9-15 | 2026-08-31 12:07:50 | 51.79943 | 8.08577 | 313° | 7km/h | 23743m | 5.2m/s | -52.4°C | 1.1% | 32.7hPa | 2.5V | 00:00:00 | 00:00:00 | 00:00:00 | |
| DO1YAY-16 | 2026-08-31 12:07:49 | 51.79943 | 8.08577 | 313° | 7km/h | 23743m | 5.2m/s | -52.4°C | 1.1% | 32.7hPa | 2.5V | 00:00:00 | 00:00:00 | 00:00:00 | |
| DJ2DS-15 | 2026-08-31 12:07:48 | 51.79939 | 8.08581 | 337° | 9km/h | 23733m | 6.1m/s | -52.4°C | 1.0% | 32.7hPa | 2.5V | 00:00:00 | 00:00:00 | 00:00:00 | |
| DM0DOS-11 | 2026-08-31 12:07:47 | 51.79930 | 8.08570 | 85° | 11km/h | 23705m | 4.9m/s | -52.4°C | 3.9% | 32.9hPa | 2.5V | 08:30:00 | 01:49:47 | 00:00:00 | |
| DL1XH-west | 2026-08-31 12:07:47 | 51.79939 | 8.08581 | 338° | 9km/h | 23733m | 6.1m/s | -52.4°C | 0.6% | 32.7hPa | 2.5V | 18:12:15 | 01:49:52 | 00:00:00 | |
| HSKMA3-T | 2026-08-31 12:07:46 | 51.79937 | 8.08582 | 6° | 11km/h | 23727m | 5.1m/s | -52.4°C | 0.6% | 32.7hPa | 2.5V | 18:12:15 | 01:49:51 | 00:00:00 | |
| DO2JMG | 2026-08-31 12:07:45 | 51.79934 | 8.08580 | 31° | 11km/h | 23722m | 4.9m/s | -52.3°C | 0.6% | 32.8hPa | 2.7V | 18:12:15 | 01:49:50 | 00:00:00 | |
| BIOWL1-15 | 2026-08-31 12:07:42 | 51.79930 | 8.08565 | 82° | 13km/h | 23700m | 4.9m/s | -52.5°C | 0.6% | 32.9hPa | 2.5V | 18:12:15 | 01:49:46 | 00:00:00 | |
| DL1XH-15 | 2026-08-31 12:07:41 | 51.79925 | 8.08550 | 18° | 5km/h | 23679m | 6.2m/s | -52.5°C | 3.9% | 33hPa | 2.7V | 08:30:00 | 01:49:42 | 00:00:00 | |
| AA1-15 | 2026-08-31 12:07:39 | 51.79927 | 8.08551 | 44° | 9km/h | 23684m | 5.1m/s | -52.5°C | 0.6% | 33hPa | 2.7V | 18:12:15 | 01:49:43 | 00:00:00 | |
| DD1CC9-15 | 2026-08-31 12:07:39 | 51.79930 | 8.08559 | 72° | 13km/h | 23695m | 5.9m/s | -52.5°C | 1.1% | 32.9hPa | 2.5V | 00:00:00 | 00:00:00 | 00:00:00 | |
| DL1XH1-15 | 2026-08-31 12:07:38 | 51.79924 | 8.08550 | 332° | 7km/h | 23673m | 4.8m/s | -52.4°C | 3.9% | 33hPa | 2.5V | 08:30:00 | 01:49:41 | 00:00:00 | |
| DL1XH-west | 2026-08-31 12:07:37 | 51.79925 | 8.08550 | 18° | 5km/h | 23679m | 6.2m/s | -52.5°C | 0.6% | 33hPa | 2.7V | 18:12:15 | 01:49:42 | 00:00:00 | |
| DO2JMG | 2026-08-31 12:07:35 | 51.79922 | 8.08552 | 326° | 9km/h | 23668m | 5.2m/s | -52.4°C | 0.6% | 33.1hPa | 2.5V | 18:12:15 | 01:49:40 | 00:00:00 | |
| BIOWL1-15 | 2026-08-31 12:07:31 | 51.79911 | 8.08558 | 351° | 9km/h | 23647m | 6.2m/s | -52.4°C | 0.6% | 33.1hPa | 2.7V | 18:12:15 | 01:49:36 | 00:00:00 | |
| DL1XH-15 | 2026-08-31 12:07:31 | 51.79905 | 8.08550 | 60° | 13km/h | 23625m | 5.3m/s | -52.2°C | 3.8% | 33.3hPa | 2.7V | 08:30:00 | 01:49:32 | 00:00:00 | |
| DF5WG-10 | 2026-08-31 12:07:31 | 51.79911 | 8.08558 | 352° | 9km/h | 23647m | 6.1m/s | -52.3°C | 3.9% | 33.1hPa | 2.7V | 00:00:00 | 01:49:36 | 00:00:00 | |
| DD1CC3-15 | 2026-08-31 12:07:30 | 51.79910 | 8.08558 | 14° | 7km/h | 23642m | 5.1m/s | -52.3°C | 1.1% | 33.2hPa | 2.5V | 00:00:00 | 00:00:00 | 00:00:00 | |
| GOEST3-10 | 2026-08-31 12:07:29 | 51.79908 | 8.08557 | 49° | 11km/h | 23637m | 4.4m/s | -52.2°C | 3.8% | 33.2hPa | 2.5V | 00:00:00 | 00:00:00 | 00:00:00 | |
| AA1-15 | 2026-08-31 12:07:29 | 51.79908 | 8.08557 | 48° | 7km/h | 23636m | 4.5m/s | -52.2°C | 0.5% | 33.2hPa | 2.5V | 18:12:15 | 01:49:34 | 00:00:00 | |
| DL1XH1-15 | 2026-08-31 12:07:28 | 51.79903 | 8.08545 | 63° | 13km/h | 23620m | 4.2m/s | -52.1°C | 3.7% | 33.3hPa | 2.7V | 08:30:00 | 01:49:31 | 00:00:00 | |
| DL1XH-west | 2026-08-31 12:07:27 | 51.79904 | 8.08545 | 64° | 13km/h | 23620m | 4.2m/s | -52.1°C | 0.5% | 33.3hPa | 2.7V | 18:12:15 | 01:49:31 | 00:00:00 | |
| DB0UT-7 | 2026-08-31 12:07:26 | 51.79903 | 8.08545 | 64° | 9km/h | 23621m | 4.1m/s | -52.1°C | 3.7% | 33.3hPa | 2.6V | 00:00:00 | 01:49:31 | 00:00:00 | |
| DM0DOS-11 | 2026-08-31 12:07:25 | 51.79901 | 8.08537 | 326° | 5km/h | 23599m | 6.1m/s | -52.2°C | 3.7% | 33.4hPa | 2.6V | 08:30:00 | 01:49:27 | 00:00:00 | |
| DO2JMG | 2026-08-31 12:07:25 | 51.79902 | 8.08541 | 70° | 9km/h | 23616m | 5.8m/s | -52.3°C | 0.5% | 33.3hPa | 2.7V | 18:12:15 | 01:49:30 | 00:00:00 | |
| DC6BW-12 | 2026-08-31 12:07:24 | 51.79902 | 8.08541 | 71° | 9km/h | 23616m | 5.8m/s | -52.3°C | 1.1% | 33.3hPa | 2.5V | 00:00:00 | 00:00:00 | 00:00:00 | |
| DL8DAS-14 | 2026-08-31 12:07:23 | 51.79901 | 8.08537 | 17° | 2km/h | 23605m | 5.0m/s | -52.1°C | 1.0% | 33.4hPa | 2.5V | 00:00:00 | 00:00:00 | 00:00:00 | |
| HTAHTA | 2026-08-31 12:07:22 | 51.79899 | 8.08539 | 321° | 9km/h | 23593m | 5.5m/s | -52.2°C | 1.0% | 33.4hPa | 2.5V | 00:00:00 | 00:00:00 | 00:00:00 | |
| DL1XH-15 | 2026-08-31 12:07:21 | 51.79893 | 8.08552 | 312° | 7km/h | 23572m | 4.8m/s | -52.2°C | 3.8% | 33.5hPa | 2.5V | 08:30:00 | 01:49:22 | 00:00:00 | |
| BIOWL1-15 | 2026-08-31 12:07:20 | 51.79888 | 8.08540 | 143° | 5km/h | 23535m | 4.6m/s | -52.2°C | 0.5% | 33.8hPa | 2.5V | 18:12:15 | 01:49:15 | 00:00:00 | |
| AA1-15 | 2026-08-31 12:07:18 | 51.79893 | 8.08552 | 313° | 7km/h | 23572m | 4.8m/s | -52.2°C | 0.5% | 33.5hPa | 2.5V | 18:12:15 | 01:49:22 | 00:00:00 | |
| DD1CC1-15 | 2026-08-31 12:07:18 | 51.79895 | 8.08545 | 307° | 11km/h | 23583m | 6.1m/s | -52.1°C | 1.1% | 33.5hPa | 2.5V | 00:00:00 | 00:00:00 | 00:00:00 | |
| DL1XH1-15 | 2026-08-31 12:07:17 | 51.79891 | 8.08553 | 346° | 7km/h | 23567m | 6.3m/s | -52.2°C | 3.9% | 33.6hPa | 2.5V | 08:30:00 | 01:49:21 | 00:00:00 | |
| HSKMA3-T | 2026-08-31 12:07:15 | 51.79890 | 8.08553 | 22° | 7km/h | 23561m | 4.9m/s | -52.1°C | 0.5% | 33.6hPa | 2.7V | 18:12:15 | 01:49:20 | 00:00:00 | |
| DO2JMG | 2026-08-31 12:07:14 | 51.79888 | 8.08551 | 46° | 9km/h | 23556m | 4.5m/s | -52°C | 0.5% | 33.6hPa | 2.7V | 18:12:15 | 01:49:19 | 00:00:00 | |
| DJ2DS-15 | 2026-08-31 12:07:14 | 51.79888 | 8.08551 | 46° | 9km/h | 23557m | 4.4m/s | -52.0°C | 3.7% | 33.6hPa | 2.5V | 00:00:00 | 01:49:19 | 00:00:00 | |
| DF2AP-13 | 2026-08-31 12:07:13 | 51.79887 | 8.08548 | 69° | 9km/h | 23552m | 5.6m/s | -52.2°C | 3.8% | 33.6hPa | 2.5V | 00:00:00 | 01:49:18 | 00:00:00 | |
| DL1XH1-15 | 2026-08-31 12:07:11 | 51.79887 | 8.08543 | 301° | 11km/h | 23510m | 6m/s | -52.4°C | 3.9% | 33.8hPa | 2.5V | 08:30:00 | 01:49:10 | 00:00:00 | |
| AA1-15 | 2026-08-31 12:07:07 | 51.79888 | 8.08540 | 316° | 7km/h | 23515m | 5.1m/s | -52.3°C | 0.6% | 33.9hPa | 2.5V | 18:12:15 | 01:49:11 | 00:00:00 | |
| DL1XH-west | 2026-08-31 12:07:06 | 51.79887 | 8.08543 | 301° | 11km/h | 23510m | 6m/s | -52.4°C | 0.6% | 33.9hPa | 2.5V | 18:12:15 | 01:49:10 | 00:00:00 | |
| DM0DOS-11 | 2026-08-31 12:07:05 | 51.79883 | 8.08559 | 296° | 16km/h | 23494m | 5m/s | -52.2°C | 3.9% | 34hPa | 2.7V | 08:30:00 | 01:49:07 | 00:00:00 | |
| HSKMA3-T | 2026-08-31 12:07:05 | 51.79884 | 8.08553 | 289° | 16km/h | 23498m | 4.3m/s | -52.2°C | 0.6% | 34hPa | 2.7V | 18:12:15 | 01:49:08 | 00:00:00 | |
| DO2JMG | 2026-08-31 12:07:04 | 51.79886 | 8.08547 | 291° | 15km/h | 23503m | 6m/s | -52.3°C | 0.6% | 33.9hPa | 2.6V | 18:12:15 | 01:49:09 | 00:00:00 | |
| AA1-15 | 2026-08-31 12:06:58 | 51.79874 | 8.08574 | 294° | 5km/h | 23467m | 5.3m/s | -52.2°C | 0.5% | 34.1hPa | 2.7V | 18:12:15 | 01:49:02 | 00:00:00 | |
| NBG1-10 | 2026-08-31 12:06:58 | 51.79873 | 8.08574 | 295° | 11km/h | 23467m | 5.3m/s | -52.2°C | 3.7% | 34.1hPa | 2.7V | 00:00:00 | 01:49:02 | 00:00:00 | |
| DD8BA-10 | 2026-08-31 12:06:57 | 51.79873 | 8.08574 | 295° | 7km/h | 23467m | 5.3m/s | -52.2°C | 3.7% | 34.1hPa | 2.7V | 00:00:00 | 00:00:00 | 08:30:00 | |
| DB0UT-7 | 2026-08-31 12:06:56 | 51.79873 | 8.08577 | 273° | 9km/h | 23462m | 5.0m/s | -52.3°C | 3.8% | 34.1hPa | 2.7V | 00:00:00 | 00:00:00 | 00:00:00 | |
| DM0DOS-11 | 2026-08-31 12:06:55 | 51.79873 | 8.08583 | 275° | 4km/h | 23441m | 4.9m/s | -52.2°C | 3.8% | 34.3hPa | 2.6V | 08:30:00 | 01:48:57 | 00:00:00 | |
| DL1XH-west | 2026-08-31 12:06:55 | 51.79873 | 8.08579 | 270° | 5km/h | 23456m | 5m/s | -52.4°C | 0.6% | 34.2hPa | 2.7V | 18:12:15 | 01:49:00 | 00:00:00 | |
| BIOWL1-15 | 2026-08-31 12:06:55 | 51.79871 | 8.08623 | 210° | 4km/h | 23379m | 5.6m/s | -52.3°C | 0.6% | 34.5hPa | 2.5V | 18:12:15 | 01:48:46 | 00:00:00 | |
| HSKMA3-T | 2026-08-31 12:06:55 | 51.79873 | 8.08583 | 276° | 4km/h | 23441m | 4.9m/s | -52.2°C | 0.5% | 34.3hPa | 2.6V | 18:12:15 | 01:48:57 | 00:00:00 | |
| DO2JMG | 2026-08-31 12:06:53 | 51.79873 | 8.08582 | 289° | 2km/h | 23446m | 4.7m/s | -52.3°C | 0.6% | 34.2hPa | 2.5V | 18:12:15 | 01:48:58 | 00:00:00 | |
| DL8DAS-14 | 2026-08-31 12:06:52 | 51.79873 | 8.08586 | 264° | 7km/h | 23435m | 6.4m/s | -52.2°C | 1.0% | 34.3hPa | 2.7V | 00:00:00 | 00:00:00 | 00:00:00 | |
| DL1XH1-15 | 2026-08-31 12:06:51 | 51.79871 | 8.08614 | 290° | 9km/h | 23402m | 6.1m/s | -52.3°C | 3.9% | 34.4hPa | 2.7V | 08:30:00 | 01:48:50 | 00:00:00 | |
| DL1XH-15 | 2026-08-31 12:06:51 | 51.79873 | 8.08605 | 284° | 11km/h | 23413m | 6.1m/s | -52.2°C | 3.8% | 34.4hPa | 2.5V | 08:30:00 | 01:48:52 | 00:00:00 | |
| HTAHTA | 2026-08-31 12:06:51 | 51.79873 | 8.08590 | 262° | 11km/h | 23429m | 5.2m/s | -52.2°C | 1.0% | 34.3hPa | 2.5V | 00:00:00 | 00:00:00 | 00:00:00 | |
| BIOWL1-15 | 2026-08-31 12:06:48 | 51.79872 | 8.08624 | 207° | 5km/h | 23374m | 5.4m/s | -52.3°C | 0.6% | 34.6hPa | 2.5V | 18:12:15 | 01:48:45 | 00:00:00 | |
| BIOWL9-15 | 2026-08-31 12:06:48 | 51.79873 | 8.08606 | 284° | 11km/h | 23413m | 6.1m/s | -52.2°C | 1.0% | 34.4hPa | 2.5V | 00:00:00 | 00:00:00 | 00:00:00 | |
| DD8BA-10 | 2026-08-31 12:06:47 | 51.79873 | 8.08606 | 285° | 9km/h | 23413m | 6.0m/s | -52.1°C | 3.8% | 34.3hPa | 2.5V | 00:00:00 | 00:00:00 | 00:00:00 | |
| DM0DOS-11 | 2026-08-31 12:06:45 | 51.79870 | 8.08622 | 261° | 4km/h | 23385m | 6.3m/s | -52.2°C | 3.9% | 34.5hPa | 2.5V | 08:30:00 | 01:48:47 | 00:00:00 | |
| DL1XH-west | 2026-08-31 12:06:45 | 51.79871 | 8.08614 | 290° | 9km/h | 23402m | 6.1m/s | -52.3°C | 0.6% | 34.4hPa | 2.7V | 18:12:15 | 01:48:50 | 00:00:00 | |
| HSKMA3-T | 2026-08-31 12:06:43 | 51.79870 | 8.08622 | 262° | 4km/h | 23385m | 6.3m/s | -52.2°C | 0.6% | 34.5hPa | 2.5V | 18:12:15 | 01:48:47 | 00:00:00 | |
| DO2JMG | 2026-08-31 12:06:43 | 51.79870 | 8.08620 | 271° | 5km/h | 23391m | 4.4m/s | -52.3°C | 0.7% | 34.5hPa | 2.7V | 18:12:15 | 01:48:48 | 00:00:00 | |
| DF2AP-13 | 2026-08-31 12:06:43 | 51.79870 | 8.08620 | 272° | 9km/h | 23391m | 4.4m/s | -52.3°C | 4.0% | 34.4hPa | 2.7V | 00:00:00 | 01:48:48 | 00:00:00 | |
| DL1XH-15 | 2026-08-31 12:06:42 | 51.79878 | 8.08633 | 225° | 15km/h | 23358m | 4.7m/s | -52.1°C | 3.9% | 34.7hPa | 2.7V | 08:30:00 | 01:48:42 | 00:00:00 | |
| AA1-15 | 2026-08-31 12:06:36 | 51.79883 | 8.08641 | 226° | 11km/h | 23347m | 5.4m/s | -52.2°C | 0.6% | 34.7hPa | 2.5V | 18:12:15 | 01:48:40 | 00:00:00 | |
| DL1XH-west | 2026-08-31 12:06:34 | 51.79884 | 8.08645 | 229° | 11km/h | 23342m | 4.9m/s | -52.2°C | 0.5% | 0hPa | 2.5V | 18:12:15 | 01:48:39 | 00:00:00 | |
| DO2JMG | 2026-08-31 12:06:33 | 51.79886 | 8.08648 | 233° | 11km/h | 23336m | 5.8m/s | -52.2°C | 0.6% | 34.8hPa | 2.7V | 18:12:15 | 01:48:38 | 00:00:00 | |
| HSKMA3-T | 2026-08-31 12:06:33 | 51.79891 | 8.08659 | 223° | 7km/h | 23321m | 5.5m/s | -52°C | 0.6% | 34.9hPa | 2.5V | 18:12:15 | 01:48:35 | 00:00:00 | |
| DO9LL-15 | 2026-08-31 12:06:33 | 51.79886 | 8.08648 | 234° | 11km/h | 23336m | 5.7m/s | -52.2°C | 3.8% | 34.7hPa | 2.7V | 00:00:00 | 01:48:38 | 00:00:00 | |
| DL1ZP-14 | 2026-08-31 12:06:31 | 51.79890 | 8.08656 | 233° | 11km/h | 23325m | 4.5m/s | -52.0°C | 1.0% | 34.8hPa | 2.7V | 00:00:00 | 00:00:00 | 00:00:00 | |
| DL1XH1-15 | 2026-08-31 12:06:30 | 51.79902 | 8.08655 | 173° | 15km/h | 23294m | 5.3m/s | -51.9°C | 3.8% | 35hPa | 2.7V | 08:30:00 | 01:48:30 | 00:00:00 | |
| BIOWL1-15 | 2026-08-31 12:06:29 | 51.79893 | 8.08660 | 187° | 5km/h | 23315m | 5.8m/s | -51.9°C | 0.5% | 34.9hPa | 2.5V | 18:12:15 | 01:48:34 | 00:00:00 | |
| AA1-15 | 2026-08-31 12:06:26 | 51.79906 | 8.08655 | 177° | 16km/h | 23289m | 4.7m/s | -51.9°C | 0.5% | 35hPa | 2.5V | 18:12:15 | 01:48:29 | 00:00:00 | |
| DB0DAN | 2026-08-31 12:06:25 | 51.79902 | 8.08655 | 173° | 15km/h | 23294m | 5.3m/s | -51.9°C | 0% | 35.02hPa | 2.7V | 00:00:00 | 00:00:00 | 00:00:00 | |
| DO2JMG | 2026-08-31 12:06:23 | 51.79910 | 8.08654 | 177° | 15km/h | 23284m | 5.1m/s | -51.9°C | 0.5% | 35.1hPa | 2.5V | 18:12:15 | 01:48:28 | 00:00:00 | |
| HSKMA3-T | 2026-08-31 12:06:22 | 51.79918 | 8.08652 | 171° | 7km/h | 23268m | 4.5m/s | -51.9°C | 0.5% | 35.2hPa | 2.7V | 18:12:15 | 01:48:25 | 00:00:00 | |
| DJ2KF-10 | 2026-08-31 12:06:21 | 51.79916 | 8.08653 | 167° | 9km/h | 23273m | 5.0m/s | -51.8°C | 3.8% | 35.1hPa | 2.7V | 00:00:00 | 01:48:26 | 00:00:00 | |
| DL1XH1-15 | 2026-08-31 12:06:20 | 51.79926 | 8.08659 | 229° | 5km/h | 23239m | 5.1m/s | -51.9°C | 3.9% | 35.3hPa | 2.7V | 08:30:00 | 01:48:20 | 00:00:00 | |
| BIOWL1-15 | 2026-08-31 12:06:19 | 51.79924 | 8.08655 | 218° | 9km/h | 23251m | 5.3m/s | -52°C | 0.5% | 35.2hPa | 2.5V | 18:12:15 | 01:48:22 | 00:00:00 | |
| DO2JMG | 2026-08-31 12:06:12 | 51.79931 | 8.08660 | 163° | 11km/h | 23224m | 4.9m/s | -51.8°C | 0.5% | 35.4hPa | 2.5V | 18:12:15 | 01:48:17 | 00:00:00 | |
| HSKMA3-T | 2026-08-31 12:06:11 | 51.79939 | 8.08649 | 127° | 16km/h | 23208m | 4.3m/s | -51.7°C | 0.5% | 35.5hPa | 2.7V | 18:12:15 | 01:48:14 | 00:00:00 | |
| DL1XH1-15 | 2026-08-31 12:06:10 | 51.79951 | 8.08635 | 178° | 13km/h | 23188m | 4.5m/s | -51.9°C | 3.8% | 35.6hPa | 2.5V | 08:30:00 | 01:48:10 | 00:00:00 | |
| DL4XJ-10 | 2026-08-31 12:06:10 | 51.79936 | 8.08654 | 132° | 9km/h | 23214m | 6.0m/s | -51.0°C | 0% | 0hPa | 2.7V | 00:00:00 | 00:00:00 | 00:00:00 | |
| GOEST3-10 | 2026-08-31 12:06:09 | 51.79939 | 8.08649 | 128° | 16km/h | 23208m | 4.2m/s | -51.7°C | 3.8% | 35.4hPa | 2.7V | 00:00:00 | 00:00:00 | 00:00:00 | |
| DL1NUX | 2026-08-31 12:06:08 | 51.79956 | 8.08637 | 225° | 7km/h | 23177m | 5.7m/s | -51.8°C | 3.8% | 35.6hPa | 2.7V | 08:30:00 | 01:48:08 | 00:00:00 | |
| BIOWL1-15 | 2026-08-31 12:06:07 | 51.79945 | 8.08639 | 145° | 16km/h | 23198m | 5.8m/s | -51.9°C | 0.5% | 35.5hPa | 2.7V | 18:12:15 | 01:48:12 | 00:00:00 | |
| AA1-15 | 2026-08-31 12:06:03 | 51.79956 | 8.08637 | 226° | 7km/h | 23177m | 5.7m/s | -51.8°C | 0.5% | 35.6hPa | 2.7V | 18:12:15 | 01:48:08 | 00:00:00 | |
| DL1XH-west | 2026-08-31 12:06:02 | 51.79957 | 8.08640 | 260° | 7km/h | 23172m | 5.1m/s | -51.8°C | 0.5% | 0hPa | 2.7V | 18:12:15 | 01:48:07 | 00:00:00 | |
| DO2JMG | 2026-08-31 12:06:01 | 51.79957 | 8.08643 | 266° | 9km/h | 23167m | 5.1m/s | -51.8°C | 0.5% | 35.7hPa | 2.7V | 18:12:15 | 01:48:06 | 00:00:00 | |
| DF8AY | 2026-08-31 12:05:59 | 51.79958 | 8.08651 | 250° | 9km/h | 23156m | 5m/s | 0°C | 0% | 0hPa | 2.5V | 18:12:15 | 01:48:04 | 00:00:00 | |
| HSKMA3-T | 2026-08-31 12:05:58 | 51.79959 | 8.08653 | 244° | 5km/h | 23150m | 4.8m/s | -51.7°C | 0.5% | 35.8hPa | 2.6V | 18:12:15 | 01:48:03 | 00:00:00 | |
| BIOWL1-15 | 2026-08-31 12:05:57 | 51.79959 | 8.08655 | 238° | 2km/h | 23145m | 6m/s | -51.7°C | 0.6% | 35.8hPa | 2.7V | 18:12:15 | 01:48:02 | 00:00:00 | |
| SONCRA | 2026-08-31 12:05:56 | 51.79960 | 8.08655 | 104° | 2km/h | 23140m | 4.8m/s | -51.7°C | 1.0% | 35.9hPa | 2.6V | 00:00:00 | 00:00:00 | 00:00:00 | |
| DM0DOS-11 | 2026-08-31 12:05:55 | 51.79964 | 8.08646 | 141° | 9km/h | 23119m | 5.1m/s | -51.8°C | 3.8% | 36hPa | 2.6V | 08:30:00 | 01:47:57 | 00:00:00 | |
| AA1-15 | 2026-08-31 12:05:52 | 51.79964 | 8.08646 | 141° | 9km/h | 23119m | 5.1m/s | -51.8°C | 0.5% | 36hPa | 2.6V | 18:12:15 | 01:47:57 | 00:00:00 | |
| DO2JMG | 2026-08-31 12:05:51 | 51.79966 | 8.08643 | 131° | 7km/h | 23113m | 6m/s | -51.7°C | 0.5% | 36hPa | 2.7V | 18:12:15 | 01:47:56 | 00:00:00 | |
| HSKMA3-T | 2026-08-31 12:05:47 | 51.79966 | 8.08638 | 31° | 0km/h | 23092m | 5.6m/s | -51.6°C | 0.5% | 36.2hPa | 2.5V | 18:12:15 | 01:47:52 | 00:00:00 | |
| BIOWL1-15 | 2026-08-31 12:05:46 | 51.79966 | 8.08638 | 356° | 2km/h | 23087m | 4.8m/s | -51.6°C | 0.5% | 36.1hPa | 2.6V | 18:12:15 | 01:47:51 | 00:00:00 | |
| DF8AY | 2026-08-31 12:05:45 | 51.79964 | 8.08637 | 15° | 7km/h | 23075m | 5.6m/s | 0°C | 0% | 0hPa | 2.7V | 18:12:15 | 01:47:49 | 00:00:00 | |
| DM0DOS-11 | 2026-08-31 12:05:44 | 51.79959 | 8.08635 | 31° | 9km/h | 23065m | 4.8m/s | -51.5°C | 3.7% | 36.3hPa | 2.5V | 08:30:00 | 01:47:47 | 00:00:00 | |
| AA1-15 | 2026-08-31 12:05:42 | 51.79959 | 8.08635 | 32° | 9km/h | 23065m | 4.8m/s | -51.5°C | 0.5% | 36.3hPa | 2.5V | 18:12:15 | 01:47:47 | 00:00:00 | |
| DB0DAN | 2026-08-31 12:05:40 | 51.79957 | 8.08630 | 74° | 5km/h | 23054m | 4.4m/s | -51.5°C | 0% | 36.35hPa | 2.6V | 00:00:00 | 00:00:00 | 00:00:00 | |
| DO2JMG | 2026-08-31 12:05:40 | 51.79957 | 8.08630 | 74° | 7km/h | 23054m | 4.4m/s | -51.5°C | 0.5% | 36.4hPa | 2.6V | 18:12:15 | 01:47:45 | 00:00:00 | |
| GOEST3-10 | 2026-08-31 12:05:39 | 51.79957 | 8.08627 | 74° | 7km/h | 23050m | 4.7m/s | -51.4°C | 3.7% | 36.3hPa | 2.7V | 00:00:00 | 00:00:00 | 00:00:00 | |
| DO3MHA-11 | 2026-08-31 12:05:38 | 51.79956 | 8.08625 | 52° | 7km/h | 23045m | 5.6m/s | -51.4°C | 3.7% | 36.3hPa | 2.7V | 00:00:00 | 01:47:43 | 00:00:00 | |
| DJ3KS | 2026-08-31 12:05:37 | 51.79956 | 8.08625 | 52° | 5km/h | 23045m | 5.7m/s | -51.4°C | 1.0% | 36.4hPa | 2.5V | 00:00:00 | 00:00:00 | 00:00:00 | |
| DL1XH1-15 | 2026-08-31 12:05:36 | 51.79950 | 8.08621 | 16° | 9km/h | 23029m | 5.3m/s | -51.4°C | 3.8% | 36.5hPa | 2.5V | 08:30:00 | 01:47:40 | 00:00:00 | |
| HSKMA3-T | 2026-08-31 12:05:36 | 51.79952 | 8.08622 | 20° | 9km/h | 23034m | 5.1m/s | -51.4°C | 0.5% | 36.5hPa | 2.5V | 18:12:15 | 01:47:41 | 00:00:00 | |
| DL4BBY-15 | 2026-08-31 12:05:36 | 51.79953 | 8.08622 | 20° | 13km/h | 23035m | 5.0m/s | -50.6°C | 0% | 0hPa | 2.7V | 00:00:00 | 00:00:00 | 00:00:00 | |
| DM0DOS-11 | 2026-08-31 12:05:34 | 51.79944 | 8.08618 | 9° | 9km/h | 23013m | 4.9m/s | -51.4°C | 3.7% | 36.6hPa | 2.7V | 08:30:00 | 01:47:37 | 00:00:00 | |
| DJ2DS-15 | 2026-08-31 12:05:34 | 51.79948 | 8.08620 | 18° | 13km/h | 23023m | 5.6m/s | -51.3°C | 3.8% | 36.5hPa | 2.6V | 00:00:00 | 01:47:39 | 00:00:00 | |
| DO9LL-15 | 2026-08-31 12:05:33 | 51.79946 | 8.08619 | 14° | 13km/h | 23018m | 4.5m/s | -51.3°C | 3.8% | 36.5hPa | 2.7V | 00:00:00 | 01:47:38 | 00:00:00 | |
| DL1XH-15 | 2026-08-31 12:05:32 | 51.79928 | 8.08614 | 19° | 9km/h | 22986m | 4.7m/s | -51.5°C | 3.7% | 36.7hPa | 2.7V | 08:30:00 | 01:47:32 | 00:00:00 | |
| AA1-15 | 2026-08-31 12:05:32 | 51.79944 | 8.08618 | 10° | 9km/h | 23013m | 4.9m/s | -51.4°C | 0.5% | 36.6hPa | 2.7V | 18:12:15 | 01:47:37 | 00:00:00 | |
| DO2JMG | 2026-08-31 12:05:30 | 51.79938 | 8.08617 | 8° | 15km/h | 23002m | 5m/s | -51.5°C | 0.5% | 36.7hPa | 2.5V | 18:12:15 | 01:47:35 | 00:00:00 | |
| HSKMA3-T | 2026-08-31 12:05:26 | 51.79926 | 8.08613 | 23° | 9km/h | 22981m | 4.8m/s | -51.5°C | 0.5% | 36.7hPa | 2.7V | 18:12:15 | 01:47:31 | 00:00:00 | |
| BIOWL1-15 | 2026-08-31 12:05:24 | 51.79914 | 8.08605 | 22° | 13km/h | 22960m | 6.1m/s | -51.2°C | 0.4% | 36.9hPa | 2.6V | 18:12:15 | 01:47:27 | 00:00:00 | |
| AA1-15 | 2026-08-31 12:05:21 | 51.79911 | 8.08603 | 21° | 13km/h | 22954m | 4.7m/s | -51.2°C | 0.4% | 36.9hPa | 2.7V | 18:12:15 | 01:47:26 | 00:00:00 | |
| DO2JMG | 2026-08-31 12:05:19 | 51.79903 | 8.08600 | 10° | 18km/h | 22944m | 6.2m/s | -51.3°C | 0.5% | 37hPa | 2.7V | 18:12:15 | 01:47:24 | 00:00:00 | |
| DL1NUX | 2026-08-31 12:05:18 | 51.79893 | 8.08598 | 4° | 22km/h | 22934m | 4.2m/s | -51.3°C | 3.7% | 37hPa | 2.5V | 08:30:00 | 01:47:22 | 00:00:00 | |
| DO3MHA-11 | 2026-08-31 12:05:18 | 51.79899 | 8.08599 | 7° | 16km/h | 22939m | 4.9m/s | -51.3°C | 3.7% | 37.0hPa | 2.7V | 00:00:00 | 01:47:23 | 00:00:00 | |
| DL1XH1-15 | 2026-08-31 12:05:16 | 51.79883 | 8.08598 | 358° | 16km/h | 22924m | 5.3m/s | -51.2°C | 3.7% | 37.1hPa | 2.7V | 08:30:00 | 01:47:20 | 00:00:00 | |
| HSKMA3-T | 2026-08-31 12:05:15 | 51.79883 | 8.08598 | 358° | 16km/h | 22924m | 5.3m/s | -51.2°C | 0.5% | 37.1hPa | 2.7V | 18:12:15 | 01:47:20 | 00:00:00 | |
| DM0DOS-11 | 2026-08-31 12:05:13 | 51.79873 | 8.08601 | 344° | 15km/h | 22910m | 5.9m/s | -51.3°C | 3.8% | 37.2hPa | 2.5V | 08:30:00 | 01:47:17 | 00:00:00 | |
| DB0NH | 2026-08-31 12:05:13 | 51.79876 | 8.08599 | 347° | 9km/h | 22915m | 4.0m/s | -51.3°C | 3.7% | 37.1hPa | 2.7V | 00:00:00 | 01:47:18 | 08:30:00 | |
| DL1XH-15 | 2026-08-31 12:05:12 | 51.79856 | 8.08605 | 10° | 7km/h | 22884m | 5m/s | -51.4°C | 3.7% | 37.3hPa | 2.7V | 08:30:00 | 01:47:12 | 00:00:00 | |
| BIOWL1-15 | 2026-08-31 12:05:11 | 51.79856 | 8.08605 | 10° | 7km/h | 22884m | 5m/s | -51.4°C | 0.4% | 37.3hPa | 2.7V | 18:12:15 | 01:47:12 | 00:00:00 | |
| AA1-15 | 2026-08-31 12:05:10 | 51.79865 | 8.08604 | 350° | 16km/h | 22900m | 4.2m/s | -51.2°C | 0.4% | 37.2hPa | 2.5V | 18:12:15 | 01:47:15 | 00:00:00 | |
| DL4XJ-10 | 2026-08-31 12:05:10 | 51.79865 | 8.08604 | 350° | 11km/h | 22900m | 4.2m/s | -50.5°C | 0% | 0hPa | 2.5V | 00:00:00 | 00:00:00 | 00:00:00 | |
| DL1NUX | 2026-08-31 12:05:08 | 51.79854 | 8.08604 | 15° | 9km/h | 22879m | 4.9m/s | -51.3°C | 3.6% | 37.4hPa | 2.5V | 08:30:00 | 01:47:11 | 00:00:00 | |
| DO2JMG | 2026-08-31 12:05:08 | 51.79858 | 8.08605 | 0° | 11km/h | 22890m | 6.3m/s | -51.3°C | 0.5% | 37.3hPa | 2.7V | 18:12:15 | 01:47:13 | 00:00:00 | |
| HSKMA3-T | 2026-08-31 12:05:04 | 51.79849 | 8.08602 | 9° | 13km/h | 22869m | 4.3m/s | -51.2°C | 0.4% | 37.4hPa | 2.6V | 18:12:15 | 01:47:09 | 00:00:00 | |
| DO3MHA-12 | 2026-08-31 12:05:04 | 51.79849 | 8.08602 | 9° | 13km/h | 22869m | 4.2m/s | -51.1°C | 3.6% | 37.4hPa | 2.7V | 00:00:00 | 01:47:09 | 00:00:00 | |
| DO9LL-15 | 2026-08-31 12:05:03 | 51.79845 | 8.08601 | 6° | 7km/h | 22865m | 5.1m/s | -51.2°C | 3.6% | 37.4hPa | 2.7V | 00:00:00 | 01:47:08 | 00:00:00 | |
| DL1XH-15 | 2026-08-31 12:05:02 | 51.79824 | 8.08603 | 2° | 15km/h | 22833m | 5.7m/s | -51°C | 3.6% | 37.6hPa | 2.7V | 08:30:00 | 01:47:02 | 00:00:00 | |
| BIOWL1-15 | 2026-08-31 12:05:01 | 51.79840 | 8.08602 | 355° | 11km/h | 22854m | 4.5m/s | -51.1°C | 0.5% | 37.5hPa | 2.7V | 18:12:15 | 01:47:06 | 00:00:00 | |
| AA1-15 | 2026-08-31 12:04:59 | 51.79833 | 8.08602 | 357° | 16km/h | 22843m | 5.1m/s | -50.9°C | 0.4% | 37.6hPa | 2.5V | 18:12:15 | 01:47:04 | 00:00:00 | |
| DO2JMG | 2026-08-31 12:04:58 | 51.79829 | 8.08603 | 360° | 18km/h | 22839m | 4.5m/s | -51°C | 0.4% | 37.6hPa | 2.6V | 18:12:15 | 01:47:03 | 00:00:00 | |
| DB0ND-19 | 2026-08-31 12:04:57 | 51.79810 | 8.08597 | 267° | 0km/h | 22793m | 4.1m/s | -51.1°C | 1.0% | -1.0hPa | 2.7V | 00:00:00 | 00:00:00 | 00:00:00 | |
| DL1XH1-15 | 2026-08-31 12:04:56 | 51.79819 | 8.08602 | 13° | 9km/h | 22823m | 4.5m/s | -51°C | 3.6% | 37.7hPa | 2.7V | 08:30:00 | 01:47:00 | 00:00:00 | |
| DD1CC8 | 2026-08-31 12:04:56 | 51.79819 | 8.08602 | 13° | 7km/h | 22823m | 4.5m/s | -51.0°C | 1.0% | 37.7hPa | 2.7V | 00:00:00 | 00:00:00 | 00:00:00 | |
| DB0DAN | 2026-08-31 12:04:55 | 51.79819 | 8.08602 | 14° | 9km/h | 22823m | 4.5m/s | -51°C | 0% | 37.66hPa | 2.7V | 00:00:00 | 00:00:00 | 00:00:00 | |
| HSKMA3-T | 2026-08-31 12:04:53 | 51.79814 | 8.08599 | 18° | 9km/h | 22813m | 5.2m/s | -51°C | 0.4% | 37.8hPa | 2.5V | 18:12:15 | 01:46:58 | 00:00:00 | |
| DM0DOS-11 | 2026-08-31 12:04:53 | 51.79812 | 8.08598 | 23° | 7km/h | 22808m | 4.3m/s | -51°C | 3.5% | 37.8hPa | 2.6V | 08:30:00 | 01:46:57 | 00:00:00 | |
| EDDB2-11 | 2026-08-31 12:04:53 | 51.79812 | 8.08598 | 23° | 7km/h | 22808m | 4.3m/s | -51.0°C | 1.0% | 37.8hPa | 2.5V | 00:00:00 | 00:00:00 | 00:00:00 | |
| DL1XH-15 | 2026-08-31 12:04:52 | 51.79809 | 8.08600 | 313° | 9km/h | 22783m | 5.4m/s | -51.2°C | 3.6% | 37.9hPa | 2.5V | 08:30:00 | 01:46:52 | 00:00:00 | |
| BIOWL1-15 | 2026-08-31 12:04:50 | 51.79810 | 8.08596 | 45° | 2km/h | 22798m | 5.4m/s | -51.1°C | 0.4% | 37.8hPa | 2.7V | 18:12:15 | 01:46:55 | 00:00:00 | |
| AA1-15 | 2026-08-31 12:04:48 | 51.79810 | 8.08598 | 296° | 4km/h | 22788m | 5.1m/s | -51.1°C | 0.4% | 37.9hPa | 2.5V | 18:12:15 | 01:46:53 | 00:00:00 | |
| DL8DAS-14 | 2026-08-31 12:04:48 | 51.79809 | 8.08600 | 313° | 7km/h | 22783m | 5.4m/s | -51.2°C | 1.0% | 37.9hPa | 2.7V | 00:00:00 | 00:00:00 | 00:00:00 | |
| HTAHTA | 2026-08-31 12:04:47 | 51.79807 | 8.08602 | 321° | 11km/h | 22779m | 3.9m/s | -51.1°C | 1.0% | 38.0hPa | 2.7V | 00:00:00 | 00:00:00 | 00:00:00 | |
| DO2JMG | 2026-08-31 12:04:47 | 51.79809 | 8.08600 | 313° | 9km/h | 22783m | 5.4m/s | -51.2°C | 0.4% | 37.9hPa | 2.5V | 18:12:15 | 01:46:52 | 00:00:00 | |
| DL1XH1-15 | 2026-08-31 12:04:46 | 51.79805 | 8.08605 | 326° | 11km/h | 22774m | 4.3m/s | -51.1°C | 3.6% | 38hPa | 2.7V | 08:30:00 | 01:46:50 | 00:00:00 | |
| HSKMA3-T | 2026-08-31 12:04:43 | 51.79801 | 8.08608 | 344° | 5km/h | 22764m | 4.7m/s | -51.1°C | 0.4% | 38hPa | 2.7V | 18:12:15 | 01:46:48 | 00:00:00 | |
| DF2AP-13 | 2026-08-31 12:04:43 | 51.79801 | 8.08608 | 344° | 5km/h | 22765m | 4.6m/s | -51.1°C | 3.6% | 38.0hPa | 2.7V | 00:00:00 | 01:46:48 | 00:00:00 | |
| DL1XH-15 | 2026-08-31 12:04:42 | 51.79794 | 8.08606 | 71° | 4km/h | 22735m | 6m/s | -51.2°C | 3.7% | 38.2hPa | 2.7V | 08:30:00 | 01:46:42 | 00:00:00 | |
| BIOWL1-15 | 2026-08-31 12:04:41 | 51.79795 | 8.08608 | 13° | 5km/h | 22745m | 4.1m/s | -51.2°C | 0.5% | 38.1hPa | 2.7V | 18:12:15 | 01:46:44 | 00:00:00 | |
| AA1-15 | 2026-08-31 12:04:38 | 51.79794 | 8.08607 | 34° | 5km/h | 22741m | 4.7m/s | -51.2°C | 0.5% | 38.2hPa | 2.7V | 18:12:15 | 01:46:43 | 00:00:00 | |
| DO3MHA-11 | 2026-08-31 12:04:38 | 51.79794 | 8.08607 | 35° | 7km/h | 22741m | 4.7m/s | -51.1°C | 3.7% | 38.1hPa | 2.7V | 00:00:00 | 01:46:43 | 08:30:00 | |
| DL1XH1-15 | 2026-08-31 12:04:36 | 51.79793 | 8.08603 | 63° | 4km/h | 22725m | 4.8m/s | -51.2°C | 3.6% | 38.2hPa | 2.5V | 08:30:00 | 01:46:40 | 00:00:00 | |
| DO2JMG | 2026-08-31 12:04:36 | 51.79793 | 8.08604 | 88° | 4km/h | 22730m | 4.8m/s | -51.1°C | 0.4% | 38.2hPa | 2.5V | 18:12:15 | 01:46:41 | 00:00:00 | |
| DF5WG-10 | 2026-08-31 12:04:35 | 51.79793 | 8.08603 | 64° | 7km/h | 22725m | 4.8m/s | -51.2°C | 3.6% | 38.2hPa | 2.7V | 00:00:00 | 01:46:40 | 00:00:00 | |
| DM0DOS-11 | 2026-08-31 12:04:33 | 51.79787 | 8.08603 | 346° | 13km/h | 22710m | 3.4m/s | -51.5°C | 3.7% | 38.3hPa | 2.7V | 08:30:00 | 01:46:37 | 00:00:00 | |
| HSKMA3-T | 2026-08-31 12:04:33 | 51.79790 | 8.08602 | 349° | 11km/h | 22714m | 4.8m/s | -51.4°C | 0.5% | 38.3hPa | 2.7V | 18:12:15 | 01:46:38 | 00:00:00 | |
| DO9LL-15 | 2026-08-31 12:04:33 | 51.79790 | 8.08602 | 349° | 5km/h | 22715m | 4.7m/s | -51.4°C | 3.7% | 38.2hPa | 2.7V | 00:00:00 | 01:46:38 | 08:30:00 | |
| BUE01 | 2026-08-31 12:04:32 | 51.79787 | 8.08603 | 346° | 13km/h | 22710m | 3.4m/s | -51.5°C | 1.0% | 38.4hPa | 2.7V | 00:00:00 | 00:00:00 | 00:00:00 | |
| DL1XH-15 | 2026-08-31 12:04:30 | 51.79776 | 8.08609 | 326° | 4km/h | 22686m | 5m/s | -51.3°C | 3.7% | 38.5hPa | 2.7V | 08:30:00 | 01:46:32 | 00:00:00 | |
| DL4XJ-10 | 2026-08-31 12:04:30 | 51.79781 | 8.08606 | 346° | 4km/h | 22701m | 5.3m/s | -50.5°C | 0% | 0hPa | 2.5V | 00:00:00 | 00:00:00 | 00:00:00 | |
| GOEST3-10 | 2026-08-31 12:04:29 | 51.79778 | 8.08607 | 340° | 5km/h | 22696m | 5.1m/s | -51.2°C | 3.6% | 38.4hPa | 2.5V | 00:00:00 | 00:00:00 | 00:00:00 | |
| DL1NUX | 2026-08-31 12:04:28 | 51.79771 | 8.08608 | 39° | 4km/h | 22666m | 5m/s | -51.2°C | 3.7% | 38.6hPa | 2.5V | 08:30:00 | 01:46:28 | 00:00:00 | |
| AA1-15 | 2026-08-31 12:04:27 | 51.79776 | 8.08609 | 327° | 4km/h | 22686m | 5m/s | -51.3°C | 0.5% | 38.5hPa | 2.7V | 18:12:15 | 01:46:32 | 00:00:00 | |
| DO2JMG | 2026-08-31 12:04:25 | 51.79774 | 8.08610 | 8° | 5km/h | 22675m | 5m/s | -51.3°C | 0.5% | 38.5hPa | 2.7V | 18:12:15 | 01:46:30 | 00:00:00 | |
| DF5WG-10 | 2026-08-31 12:04:25 | 51.79773 | 8.08610 | 8° | 4km/h | 22676m | 4.9m/s | -51.3°C | 3.8% | 38.5hPa | 2.7V | 00:00:00 | 01:46:30 | 08:30:00 | |
| DD1CC1-15 | 2026-08-31 12:04:24 | 51.79774 | 8.08610 | 9° | 5km/h | 22676m | 5.0m/s | -51.3°C | 1.0% | 38.5hPa | 2.6V | 00:00:00 | 00:00:00 | 00:00:00 | |
| DM0DOS-11 | 2026-08-31 12:04:23 | 51.79771 | 8.08607 | 83° | 2km/h | 22661m | 5.6m/s | -51.1°C | 3.7% | 38.6hPa | 2.6V | 08:30:00 | 01:46:27 | 00:00:00 | |
| HSKMA3-T | 2026-08-31 12:04:22 | 51.79771 | 8.08606 | 145° | 2km/h | 22656m | 4.9m/s | -51.1°C | 0.4% | 38.6hPa | 2.7V | 18:12:15 | 01:46:26 | 00:00:00 | |
| DL1XH-15 | 2026-08-31 12:04:22 | 51.79771 | 8.08605 | 31° | 2km/h | 22636m | 4.4m/s | -51.2°C | 3.7% | 38.8hPa | 2.5V | 08:30:00 | 01:46:22 | 00:00:00 | |
| EDDB2-11 | 2026-08-31 12:04:22 | 51.79771 | 8.08606 | 144° | 2km/h | 22656m | 4.9m/s | -51.1°C | 1.0% | 38.6hPa | 2.7V | 00:00:00 | 00:00:00 | 00:00:00 | |
| DL1XH1-15 | 2026-08-31 12:04:21 | 51.79771 | 8.08604 | 146° | 4km/h | 22626m | 5m/s | -51°C | 3.6% | 38.8hPa | 2.7V | 08:30:00 | 01:46:20 | 00:00:00 | |
| AA1-15 | 2026-08-31 12:04:16 | 51.79771 | 8.08605 | 140° | 2km/h | 22631m | 6m/s | -51.1°C | 0.5% | 38.8hPa | 2.5V | 18:12:15 | 01:46:21 | 00:00:00 | |
| DO2JMG | 2026-08-31 12:04:14 | 51.79772 | 8.08603 | 129° | 4km/h | 22621m | 4.7m/s | -51°C | 0.4% | 38.9hPa | 2.7V | 18:12:15 | 01:46:19 | 00:00:00 | |
| DM0DOS-11 | 2026-08-31 12:04:13 | 51.79773 | 8.08600 | 94° | 5km/h | 22611m | 4.2m/s | -51°C | 3.6% | 38.9hPa | 2.5V | 08:30:00 | 01:46:17 | 00:00:00 | |
| HSKMA3-T | 2026-08-31 12:04:11 | 51.79774 | 8.08595 | 128° | 9km/h | 22601m | 5.4m/s | -51°C | 0.3% | 39hPa | 2.5V | 18:12:15 | 01:46:15 | 00:00:00 | |
| DL1XH1-15 | 2026-08-31 12:04:10 | 51.79779 | 8.08584 | 139° | 5km/h | 22577m | 4.6m/s | -51.1°C | 3.7% | 39.1hPa | 2.5V | 08:30:00 | 01:46:10 | 00:00:00 | |
| DL1NUX | 2026-08-31 12:04:10 | 51.79779 | 8.08586 | 119° | 5km/h | 22581m | 3.9m/s | -51.1°C | 3.6% | 39.1hPa | 2.5V | 08:30:00 | 01:46:11 | 00:00:00 | |
| AA1-15 | 2026-08-31 12:04:05 | 51.79780 | 8.08584 | 139° | 7km/h | 22577m | 4.6m/s | -51.1°C | 0.5% | 39.1hPa | 2.5V | 18:12:15 | 01:46:10 | 00:00:00 | |
| BIOWL1-15 | 2026-08-31 12:04:04 | 51.79781 | 8.08582 | 154° | 9km/h | 22572m | 5.2m/s | -51°C | 0.5% | 39.1hPa | 2.5V | 18:12:15 | 01:46:09 | 00:00:00 | |
| DM0DOS-11 | 2026-08-31 12:04:03 | 51.79786 | 8.08580 | 170° | 9km/h | 22562m | 4.8m/s | -51°C | 3.6% | 39.2hPa | 2.7V | 08:30:00 | 01:46:07 | 00:00:00 | |
| DO2JMG | 2026-08-31 12:04:03 | 51.79783 | 8.08581 | 163° | 11km/h | 22567m | 4.5m/s | -51°C | 0.4% | 39.2hPa | 2.7V | 18:12:15 | 01:46:08 | 00:00:00 | |
| HSKMA3-T | 2026-08-31 12:04:01 | 51.79788 | 8.08580 | 175° | 7km/h | 22557m | 5.5m/s | -51°C | 0.5% | 39.2hPa | 2.7V | 18:12:15 | 01:46:06 | 00:00:00 | |
| AA1-15 | 2026-08-31 12:03:55 | 51.79801 | 8.08564 | 120° | 15km/h | 22530m | 4.5m/s | -50.9°C | 0.5% | 39.4hPa | 2.7V | 18:12:15 | 01:46:00 | 00:00:00 | |
| BIOWL1-15 | 2026-08-31 12:03:54 | 51.79802 | 8.08558 | 108° | 15km/h | 22525m | 5.5m/s | -50.9°C | 0.4% | 39.5hPa | 2.5V | 18:12:15 | 01:45:59 | 00:00:00 | |
| DD1CC8 | 2026-08-31 12:03:54 | 51.79803 | 8.08553 | 98° | 13km/h | 22520m | 4.7m/s | -50.9°C | 1.0% | 39.5hPa | 2.6V | 00:00:00 | 00:00:00 | 00:00:00 | |
| DM0DOS-11 | 2026-08-31 12:03:53 | 51.79803 | 8.08548 | 97° | 13km/h | 22515m | 4.4m/s | -51°C | 3.6% | 39.5hPa | 2.6V | 08:30:00 | 01:45:57 | 00:00:00 | |
| DO2JMG | 2026-08-31 12:03:52 | 51.79803 | 8.08548 | 98° | 13km/h | 22515m | 4.4m/s | -51°C | 0.4% | 39.5hPa | 2.6V | 18:12:15 | 01:45:57 | 00:00:00 | |
| HSKMA3-T | 2026-08-31 12:03:50 | 51.79806 | 8.08531 | 103° | 13km/h | 22501m | 4.2m/s | -50.9°C | 0.4% | 39.6hPa | 2.7V | 18:12:15 | 01:45:54 | 00:00:00 | |
| DL1NUX | 2026-08-31 12:03:50 | 51.79806 | 8.08531 | 102° | 13km/h | 22501m | 4.2m/s | -50.9°C | 3.6% | 39.6hPa | 2.7V | 08:30:00 | 01:45:54 | 00:00:00 | |
| DL8DAS-14 | 2026-08-31 12:03:46 | 51.79805 | 8.08520 | 73° | 4km/h | 22481m | 5.5m/s | -50.8°C | 1.0% | 39.7hPa | 2.7V | 00:00:00 | 00:00:00 | 00:00:00 | |
| AA1-15 | 2026-08-31 12:03:45 | 51.79805 | 8.08518 | 86° | 5km/h | 22475m | 4.4m/s | -50.8°C | 0.4% | 39.8hPa | 2.7V | 18:12:15 | 01:45:49 | 00:00:00 | |
| BIOWL1-15 | 2026-08-31 12:03:43 | 51.79803 | 8.08509 | 50° | 7km/h | 22456m | 4.3m/s | -50.8°C | 0.3% | 39.9hPa | 2.6V | 18:12:15 | 01:45:45 | 00:00:00 | |
| DO2JMG | 2026-08-31 12:03:42 | 51.79804 | 8.08513 | 75° | 5km/h | 22466m | 5.5m/s | -50.8°C | 0.4% | 39.8hPa | 2.5V | 18:12:15 | 01:45:47 | 00:00:00 | |
| HSKMA3-T | 2026-08-31 12:03:38 | 51.79800 | 8.08502 | 72° | 13km/h | 22446m | 5.4m/s | -51°C | 0.5% | 39.9hPa | 2.7V | 18:12:15 | 01:45:43 | 00:00:00 | |
| AA1-15 | 2026-08-31 12:03:34 | 51.79791 | 8.08480 | 31° | 13km/h | 22422m | 5.2m/s | -50.9°C | 0.4% | 40.1hPa | 2.7V | 18:12:15 | 01:45:38 | 00:00:00 | |
| DM0DOS-11 | 2026-08-31 12:03:33 | 51.79788 | 8.08478 | 30° | 11km/h | 22417m | 5.4m/s | -50.9°C | 3.5% | 40.1hPa | 2.7V | 08:30:00 | 01:45:37 | 00:00:00 | |
| BIOWL1-15 | 2026-08-31 12:03:32 | 51.79788 | 8.08478 | 30° | 11km/h | 22417m | 5.4m/s | -50.9°C | 0.4% | 40.1hPa | 2.7V | 18:12:15 | 01:45:37 | 00:00:00 | |
| DO2JMG | 2026-08-31 12:03:31 | 51.79786 | 8.08476 | 25° | 7km/h | 22412m | 4.2m/s | -50.9°C | 0.4% | 40.2hPa | 2.7V | 18:12:15 | 01:45:36 | 00:00:00 | |
| DL1NUX | 2026-08-31 12:03:30 | 51.79780 | 8.08476 | 344° | 9km/h | 22397m | 4.7m/s | -51.2°C | 3.5% | 40.2hPa | 2.6V | 08:30:00 | 01:45:33 | 00:00:00 | |
| DL1XH-west | 2026-08-31 12:03:30 | 51.79784 | 8.08475 | 8° | 7km/h | 22408m | 4.2m/s | -51°C | 0.3% | 40.2hPa | 2.5V | 18:12:15 | 01:45:35 | 00:00:00 | |
| HSKMA3-T | 2026-08-31 12:03:27 | 51.79778 | 8.08477 | 352° | 9km/h | 22393m | 3.8m/s | -51.3°C | 0.4% | 40.2hPa | 2.7V | 18:12:15 | 01:45:32 | 00:00:00 | |
| DL1XH1-15 | 2026-08-31 12:03:25 | 51.79775 | 8.08475 | 57° | 9km/h | 22383m | 5m/s | -51.3°C | 3.6% | 40.3hPa | 2.7V | 08:30:00 | 01:45:30 | 00:00:00 | |
| GOEST3-10 | 2026-08-31 12:03:25 | 51.79775 | 8.08475 | 58° | 16km/h | 22383m | 5.0m/s | -51.3°C | 3.6% | 40.3hPa | 2.7V | 00:00:00 | 00:00:00 | 08:30:00 | |
| DD1CC9-15 | 2026-08-31 12:03:24 | 51.79775 | 8.08475 | 59° | 9km/h | 22383m | 5.0m/s | -51.3°C | 1.0% | 40.3hPa | 2.6V | 00:00:00 | 00:00:00 | 00:00:00 | |
| DM0DOS-11 | 2026-08-31 12:03:23 | 51.79769 | 8.08459 | 51° | 20km/h | 22368m | 6.1m/s | -51.3°C | 3.6% | 40.4hPa | 2.6V | 08:30:00 | 01:45:27 | 00:00:00 | |
| AA1-15 | 2026-08-31 12:03:23 | 51.79769 | 8.08459 | 52° | 20km/h | 22368m | 6.1m/s | -51.3°C | 0.5% | 40.4hPa | 2.6V | 18:12:15 | 01:45:27 | 00:00:00 | |
| DD1CC8 | 2026-08-31 12:03:23 | 51.79765 | 8.08452 | 41° | 24km/h | 22363m | 5.1m/s | -51.3°C | 1.0% | 40.5hPa | 2.5V | 00:00:00 | 00:00:00 | 00:00:00 | |
| DL1XH-15 | 2026-08-31 12:03:22 | 51.79745 | 8.08430 | 24° | 20km/h | 22344m | 3.9m/s | -51.3°C | 3.6% | 40.5hPa | 2.5V | 08:30:00 | 01:45:22 | 00:00:00 | |
| DJ2KF-10 | 2026-08-31 12:03:21 | 51.79765 | 8.08452 | 42° | 24km/h | 22363m | 5.1m/s | -51.3°C | 3.6% | 40.4hPa | 2.7V | 00:00:00 | 01:45:26 | 00:00:00 | |
| DL1XH1-15 | 2026-08-31 12:03:20 | 51.79736 | 8.08426 | 9° | 18km/h | 22334m | 5m/s | -51.5°C | 3.6% | 40.6hPa | 2.7V | 08:30:00 | 01:45:20 | 00:00:00 | |
| DL1NUX | 2026-08-31 12:03:20 | 51.79750 | 8.08434 | 31° | 22km/h | 22348m | 4.5m/s | -51.4°C | 3.7% | 40.5hPa | 2.5V | 08:30:00 | 01:45:23 | 00:00:00 | |
| DO2JMG | 2026-08-31 12:03:20 | 51.79760 | 8.08446 | 36° | 26km/h | 22358m | 4.5m/s | -51.2°C | 0.4% | 40.5hPa | 2.7V | 18:12:15 | 01:45:25 | 00:00:00 | |
| DL1XH-west | 2026-08-31 12:03:19 | 51.79755 | 8.08440 | 35° | 26km/h | 22353m | 5.4m/s | -51.3°C | 0.4% | 40.5hPa | 2.7V | 18:12:15 | 01:45:24 | 00:00:00 | |
| HSKMA3-T | 2026-08-31 12:03:16 | 51.79741 | 8.08428 | 15° | 18km/h | 22339m | 5.4m/s | -51.4°C | 0.4% | 40.6hPa | 2.6V | 18:12:15 | 01:45:21 | 00:00:00 | |
| AA1-15 | 2026-08-31 12:03:12 | 51.79723 | 8.08419 | 36° | 16km/h | 22320m | 5.2m/s | -51.6°C | 0.4% | 40.7hPa | 2.5V | 18:12:15 | 01:45:17 | 00:00:00 | |
| DL1XH-15 | 2026-08-31 12:03:12 | 51.79703 | 8.08388 | 33° | 24km/h | 22297m | 4m/s | -51.7°C | 3.6% | 40.9hPa | 2.7V | 08:30:00 | 01:45:12 | 00:00:00 | |
| BIOWL1-15 | 2026-08-31 12:03:11 | 51.79720 | 8.08414 | 49° | 20km/h | 22315m | 3.7m/s | -51.5°C | 0.4% | 40.7hPa | 2.5V | 18:12:15 | 01:45:16 | 00:00:00 | |
| DL1NUX | 2026-08-31 12:03:10 | 51.79697 | 8.08383 | 30° | 24km/h | 22292m | 5.1m/s | -51.8°C | 3.7% | 40.9hPa | 2.5V | 08:30:00 | 01:45:11 | 00:00:00 | |
| DL1XH-west | 2026-08-31 12:03:09 | 51.79712 | 8.08401 | 45° | 26km/h | 22306m | 5.4m/s | -51.7°C | 0.4% | 40.8hPa | 2.7V | 18:12:15 | 01:45:14 | 00:00:00 | |
| DO3MHA-11 | 2026-08-31 12:03:08 | 51.79708 | 8.08394 | 39° | 24km/h | 22301m | 4.3m/s | -51.5°C | 3.5% | 40.8hPa | 2.7V | 00:00:00 | 01:45:13 | 08:30:00 | |
| DM0DOS-11 | 2026-08-31 12:03:07 | 51.79677 | 8.08372 | 5° | 24km/h | 22274m | 6m/s | -51.9°C | 3.7% | 41hPa | 2.7V | 08:30:00 | 01:45:07 | 00:00:00 | |
| HSKMA3-T | 2026-08-31 12:03:06 | 51.79698 | 8.08383 | 30° | 24km/h | 22292m | 5.1m/s | -51.8°C | 0.5% | 40.9hPa | 2.5V | 18:12:15 | 01:45:11 | 00:00:00 | |
| DL4BBY-15 | 2026-08-31 12:03:06 | 51.79697 | 8.08383 | 31° | 26km/h | 22292m | 5.1m/s | -51.1°C | 0% | 0hPa | 2.7V | 00:00:00 | 00:00:00 | 00:00:00 | |
| DB0NH | 2026-08-31 12:03:05 | 51.79692 | 8.08378 | 26° | 26km/h | 22288m | 4.6m/s | -51.7°C | 3.6% | 40.9hPa | 2.7V | 00:00:00 | 01:45:10 | 00:00:00 | |
| DO3MHA-12 | 2026-08-31 12:03:04 | 51.79688 | 8.08375 | 20° | 24km/h | 22283m | 4.1m/s | -51.8°C | 3.6% | 40.9hPa | 2.7V | 00:00:00 | 01:45:09 | 00:00:00 | |
| DO9LL-15 | 2026-08-31 12:03:03 | 51.79683 | 8.08373 | 12° | 26km/h | 22279m | 4.2m/s | -51.8°C | 3.6% | 40.9hPa | 2.7V | 00:00:00 | 01:45:08 | 00:00:00 | |
| DL1XH-15 | 2026-08-31 12:03:02 | 51.79645 | 8.08368 | 7° | 24km/h | 22250m | 3.8m/s | -52.2°C | 3.8% | 41.2hPa | 2.7V | 08:30:00 | 01:45:02 | 00:00:00 | |
| AA1-15 | 2026-08-31 12:03:01 | 51.79671 | 8.08371 | 2° | 27km/h | 22268m | 5.3m/s | -51.9°C | 0.5% | 41.1hPa | 2.7V | 18:12:15 | 01:45:06 | 00:00:00 | |
| BIOWL1-15 | 2026-08-31 12:03:01 | 51.79639 | 8.08367 | 9° | 26km/h | 22245m | 5.6m/s | -52.2°C | 0.5% | 41.2hPa | 2.7V | 18:12:15 | 01:45:01 | 00:00:00 | |
| S3001 | 2026-08-31 12:03:01 | 51.79657 | 8.08370 | 3° | 26km/h | 22258m | 5.4m/s | -52.2°C | 1.1% | 41.1hPa | 2.7V | 00:00:00 | 00:00:00 | 00:00:00 | |
| DL1XH1-15 | 2026-08-31 12:03:00 | 51.79632 | 8.08365 | 9° | 26km/h | 22240m | 4.9m/s | -52.3°C | 3.8% | 41.2hPa | 2.7V | 08:30:00 | 01:45:00 | 00:00:00 | |
| DL1NUX | 2026-08-31 12:03:00 | 51.79639 | 8.08367 | 8° | 26km/h | 22245m | 5.6m/s | -52.2°C | 3.8% | 41.2hPa | 2.7V | 08:30:00 | 01:45:01 | 00:00:00 | |
| DL1XH-west | 2026-08-31 12:02:58 | 51.79645 | 8.08368 | 7° | 24km/h | 22250m | 3.8m/s | -52.2°C | 0.5% | 41.2hPa | 2.7V | 18:12:15 | 01:45:02 | 00:00:00 | |
| DO2JMG | 2026-08-31 12:02:58 | 51.79651 | 8.08369 | 6° | 24km/h | 22254m | 3.9m/s | -52.2°C | 0.6% | 41.1hPa | 2.6V | 18:12:15 | 01:45:03 | 00:00:00 | |
| HSKMA3-T | 2026-08-31 12:02:55 | 51.79632 | 8.08365 | 10° | 26km/h | 22240m | 4.9m/s | -52.3°C | 0.5% | 41.2hPa | 2.7V | 18:12:15 | 01:45:00 | 00:00:00 | |
| GOEST3-10 | 2026-08-31 12:02:55 | 51.79632 | 8.08365 | 10° | 24km/h | 22240m | 4.8m/s | -52.2°C | 3.8% | 41.2hPa | 2.7V | 00:00:00 | 00:00:00 | 00:00:00 | |
| DM0DOS-11 | 2026-08-31 12:02:54 | 51.79609 | 8.08355 | 16° | 24km/h | 22221m | 3.3m/s | -52.2°C | 3.8% | 41.4hPa | 2.7V | 08:30:00 | 01:44:56 | 00:00:00 | |
| DL3AQ-11 | 2026-08-31 12:02:54 | 51.79620 | 8.08361 | 17° | 22km/h | 22230m | 5.7m/s | -52.4°C | 1.1% | 41.3hPa | 2.6V | 00:00:00 | 00:00:00 | 00:00:00 | |
| DL1XH-15 | 2026-08-31 12:02:52 | 51.79579 | 8.08353 | 351° | 35km/h | 22202m | 4.8m/s | -52.2°C | 3.7% | 41.5hPa | 2.6V | 08:30:00 | 01:44:52 | 00:00:00 | |
| DD1CC8 | 2026-08-31 12:02:52 | 51.79603 | 8.08352 | 10° | 26km/h | 22217m | 5.7m/s | -52.1°C | 1.1% | 41.4hPa | 2.7V | 00:00:00 | 00:00:00 | 00:00:00 | |
| DL1XH1-15 | 2026-08-31 12:02:50 | 51.79563 | 8.08357 | 350° | 31km/h | 22192m | 4.6m/s | -52.2°C | 3.7% | 41.5hPa | 2.7V | 08:30:00 | 01:44:50 | 00:00:00 | |
| AA1-15 | 2026-08-31 12:02:50 | 51.79603 | 8.08352 | 10° | 26km/h | 22217m | 5.7m/s | -52.1°C | 0.5% | 41.4hPa | 2.7V | 18:12:15 | 01:44:55 | 00:00:00 | |
| DL1NUX | 2026-08-31 12:02:50 | 51.79571 | 8.08355 | 350° | 33km/h | 22196m | 5.4m/s | -52.3°C | 3.7% | 41.5hPa | 2.6V | 08:30:00 | 01:44:51 | 00:00:00 | |
| DL1XH-west | 2026-08-31 12:02:48 | 51.79588 | 8.08351 | 356° | 33km/h | 22206m | 4.7m/s | -52.2°C | 0.5% | 41.5hPa | 2.5V | 18:12:15 | 01:44:53 | 00:00:00 | |
| MET0W-2 | 2026-08-31 12:02:46 | 51.79563 | 8.08357 | 350° | 31km/h | 22192m | 4.6m/s | -52.2°C | 1.0% | 41.5hPa | 2.7V | 00:00:00 | 00:00:00 | 00:00:00 | |
| HSKMA3-T | 2026-08-31 12:02:44 | 51.79555 | 8.08359 | 352° | 31km/h | 22187m | 4m/s | -52.2°C | 0.4% | 41.6hPa | 2.7V | 18:12:15 | 01:44:49 | 00:00:00 | |
| DL8DAS-14 | 2026-08-31 12:02:44 | 51.79547 | 8.08361 | 353° | 31km/h | 22182m | 5.8m/s | -52.3°C | 1.1% | 41.6hPa | 2.7V | 00:00:00 | 00:00:00 | 00:00:00 | |
| DL1XH-15 | 2026-08-31 12:02:43 | 51.79512 | 8.08357 | 8° | 15km/h | 22154m | 4.3m/s | -52.3°C | 3.9% | 41.8hPa | 2.7V | 08:30:00 | 01:44:42 | 00:00:00 | |
| HTAHTA | 2026-08-31 12:02:43 | 51.79539 | 8.08362 | 356° | 29km/h | 22177m | 4.6m/s | -52.4°C | 1.1% | 41.6hPa | 2.5V | 00:00:00 | 00:00:00 | 00:00:00 | |
| DF2AP-13 | 2026-08-31 12:02:42 | 51.79539 | 8.08362 | 357° | 24km/h | 22177m | 4.5m/s | -52.4°C | 3.8% | 41.6hPa | 2.5V | 00:00:00 | 01:44:47 | 00:00:00 | |
| SO1NDE-10 | 2026-08-31 12:02:41 | 51.79532 | 8.08362 | 2° | 24km/h | 22173m | 4.2m/s | -52.3°C | 3.8% | 41.6hPa | 2.5V | 00:00:00 | 01:44:46 | 00:00:00 | |
| DL1XH1-15 | 2026-08-31 12:02:40 | 51.79502 | 8.08356 | 3° | 22km/h | 22144m | 4.9m/s | -52.3°C | 3.9% | 41.8hPa | 2.5V | 08:30:00 | 01:44:40 | 00:00:00 | |
| DL1NUX | 2026-08-31 12:02:39 | 51.79508 | 8.08356 | 4° | 18km/h | 22149m | 4.9m/s | -52.3°C | 3.9% | 41.8hPa | 2.5V | 08:30:00 | 01:44:41 | 00:00:00 | |
| BIOWL1-15 | 2026-08-31 12:02:39 | 51.79520 | 8.08360 | 12° | 20km/h | 22162m | 5m/s | -52.4°C | 0.6% | 41.7hPa | 2.7V | 18:12:15 | 01:44:44 | 00:00:00 | |
| DO2JMG | 2026-08-31 12:02:38 | 51.79516 | 8.08358 | 13° | 15km/h | 22158m | 4.1m/s | -52.4°C | 0.6% | 41.8hPa | 2.7V | 18:12:15 | 01:44:43 | 00:00:00 | |
| HSKMA3-T | 2026-08-31 12:02:34 | 51.79496 | 8.08355 | 3° | 26km/h | 22139m | 5m/s | -52.3°C | 0.5% | 41.9hPa | 2.6V | 18:12:15 | 01:44:39 | 00:00:00 | |
| DJ2DS-15 | 2026-08-31 12:02:34 | 51.79496 | 8.08355 | 4° | 24km/h | 22140m | 5.0m/s | -52.2°C | 3.8% | 41.8hPa | 2.6V | 00:00:00 | 01:44:39 | 00:00:00 | |
| DO9LL-15 | 2026-08-31 12:02:33 | 51.79490 | 8.08354 | 6° | 24km/h | 22135m | 4.8m/s | -52.3°C | 3.8% | 41.9hPa | 2.7V | 00:00:00 | 01:44:38 | 00:00:00 | |
| DL1XH1-15 | 2026-08-31 12:02:30 | 51.79443 | 8.08354 | 357° | 15km/h | 22095m | 4.7m/s | -52.5°C | 3.9% | 42.2hPa | 2.7V | 08:30:00 | 01:44:30 | 00:00:00 | |
| DL4XJ-10 | 2026-08-31 12:02:30 | 51.79471 | 8.08351 | 3° | 24km/h | 22121m | 4.5m/s | -51.6°C | 0% | 0hPa | 2.7V | 00:00:00 | 00:00:00 | 00:00:00 | |
| DL1NUX | 2026-08-31 12:02:29 | 51.79447 | 8.08353 | 357° | 18km/h | 22100m | 5.7m/s | -52.5°C | 3.8% | 42.1hPa | 2.7V | 08:30:00 | 01:44:31 | 00:00:00 | |
| BIOWL1-15 | 2026-08-31 12:02:28 | 51.79458 | 8.08352 | 355° | 24km/h | 22110m | 4.3m/s | -52.4°C | 0.5% | 42.1hPa | 2.6V | 18:12:15 | 01:44:33 | 00:00:00 | |
| DL1XH-west | 2026-08-31 12:02:28 | 51.79447 | 8.08353 | 358° | 18km/h | 22100m | 5.7m/s | -52.5°C | 0.5% | 42.1hPa | 2.7V | 18:12:15 | 01:44:31 | 00:00:00 | |
| DO2JMG | 2026-08-31 12:02:27 | 51.79452 | 8.08353 | 355° | 22km/h | 22106m | 4.8m/s | -52.4°C | 0.5% | 42.1hPa | 2.7V | 18:12:15 | 01:44:32 | 00:00:00 | |
| HSKMA3-T | 2026-08-31 12:02:23 | 51.79435 | 8.08355 | 352° | 16km/h | 22085m | 5.2m/s | -52.6°C | 0.6% | 42.2hPa | 2.6V | 18:12:15 | 01:44:28 | 00:00:00 | |
| DL1ZP-14 | 2026-08-31 12:02:23 | 51.79435 | 8.08355 | 351° | 16km/h | 22086m | 5.2m/s | -52.6°C | 1.1% | 42.2hPa | 2.6V | 00:00:00 | 00:00:00 | 00:00:00 | |
| DL1XH-15 | 2026-08-31 12:02:22 | 51.79404 | 8.08358 | 350° | 29km/h | 22057m | 5.8m/s | -52.6°C | 3.8% | 42.4hPa | 2.5V | 08:30:00 | 01:44:22 | 00:00:00 | |
| DJ2KF-10 | 2026-08-31 12:02:21 | 51.79426 | 8.08356 | 358° | 22km/h | 22076m | 5.2m/s | -52.5°C | 3.9% | 42.2hPa | 2.7V | 00:00:00 | 01:44:26 | 00:00:00 | |
| DL1XH1-15 | 2026-08-31 12:02:20 | 51.79388 | 8.08364 | 339° | 33km/h | 22048m | 3.7m/s | -52.6°C | 3.8% | 42.5hPa | 2.7V | 08:30:00 | 01:44:20 | 00:00:00 | |
| DO2JMG | 2026-08-31 12:02:17 | 51.79404 | 8.08358 | 350° | 29km/h | 22057m | 5.8m/s | -52.6°C | 0.5% | 42.4hPa | 2.5V | 18:12:15 | 01:44:22 | 00:00:00 | |
| DL1XH-west | 2026-08-31 12:02:16 | 51.79388 | 8.08364 | 340° | 33km/h | 22048m | 3.7m/s | -52.6°C | 0.5% | 42.5hPa | 2.7V | 18:12:15 | 01:44:20 | 00:00:00 | |
| HSKMA3-T | 2026-08-31 12:02:12 | 51.79369 | 8.08378 | 333° | 22km/h | 22033m | 4.7m/s | -52.5°C | 0.6% | 42.6hPa | 2.5V | 18:12:15 | 01:44:17 | 00:00:00 | |
| DM0DOS-11 | 2026-08-31 12:02:12 | 51.79354 | 8.08391 | 336° | 24km/h | 22018m | 4.4m/s | -52.6°C | 3.9% | 42.7hPa | 2.7V | 08:30:00 | 01:44:14 | 00:00:00 | |
| SO1NDE-10 | 2026-08-31 12:02:11 | 51.79364 | 8.08382 | 332° | 20km/h | 22029m | 4.8m/s | -52.5°C | 3.9% | 42.6hPa | 2.5V | 00:00:00 | 01:44:16 | 00:00:00 | |
| DL1XH1-15 | 2026-08-31 12:02:10 | 51.79333 | 8.08400 | 349° | 24km/h | 21999m | 4.9m/s | -52.6°C | 4% | 42.8hPa | 2.5V | 08:30:00 | 01:44:10 | 00:00:00 | |
| BIOWL1-15 | 2026-08-31 12:02:07 | 51.79343 | 8.08397 | 346° | 20km/h | 22008m | 5.8m/s | -52.5°C | 0.7% | 42.7hPa | 2.7V | 18:12:15 | 01:44:12 | 00:00:00 | |
| DO2JMG | 2026-08-31 12:02:06 | 51.79338 | 8.08398 | 350° | 22km/h | 22003m | 4.3m/s | -52.6°C | 0.7% | 42.8hPa | 2.5V | 18:12:15 | 01:44:11 | 00:00:00 | |
| DL1XH-west | 2026-08-31 12:02:05 | 51.79333 | 8.08400 | 350° | 24km/h | 21999m | 4.9m/s | -52.6°C | 0.6% | 42.8hPa | 2.5V | 18:12:15 | 01:44:10 | 00:00:00 | |
| DB0NH | 2026-08-31 12:02:05 | 51.79333 | 8.08400 | 350° | 16km/h | 21999m | 4.8m/s | -52.6°C | 4.0% | 42.8hPa | 2.5V | 00:00:00 | 01:44:10 | 00:00:00 | |
| DO3MHA-12 | 2026-08-31 12:02:04 | 51.79327 | 8.08402 | 347° | 24km/h | 21994m | 5.7m/s | -52.4°C | 3.9% | 42.8hPa | 2.7V | 00:00:00 | 01:44:09 | 00:00:00 | |
| DO9LL-15 | 2026-08-31 12:02:03 | 51.79320 | 8.08405 | 341° | 16km/h | 21989m | 4.5m/s | -52.3°C | 3.8% | 42.8hPa | 2.7V | 00:00:00 | 01:44:08 | 00:00:00 | |
| DL1XH-15 | 2026-08-31 12:02:02 | 51.79290 | 8.08446 | 304° | 20km/h | 21953m | 4.4m/s | -52.2°C | 3.9% | 43.1hPa | 2.7V | 08:30:00 | 01:44:01 | 00:00:00 | |
| HSKMA3-T | 2026-08-31 12:02:01 | 51.79308 | 8.08414 | 330° | 24km/h | 21979m | 5.5m/s | -52.5°C | 0.5% | 43hPa | 2.7V | 18:12:15 | 01:44:06 | 00:00:00 | |
| BIOWL1-15 | 2026-08-31 12:01:58 | 51.79281 | 8.08465 | 327° | 13km/h | 21934m | 5.6m/s | -52.3°C | 0.6% | 43.2hPa | 2.5V | 18:12:15 | 01:43:57 | 00:00:00 | |
| DL3AQ-11 | 2026-08-31 12:01:58 | 51.79293 | 8.08439 | 306° | 22km/h | 21958m | 4.9m/s | -52.3°C | 1.1% | 43.1hPa | 2.7V | 00:00:00 | 00:00:00 | 00:00:00 | |
| DL1NUX | 2026-08-31 12:01:57 | 51.79290 | 8.08446 | 304° | 20km/h | 21953m | 4.4m/s | -52.2°C | 3.9% | 43.1hPa | 2.7V | 08:30:00 | 01:44:01 | 00:00:00 | |
| AA1-15 | 2026-08-31 12:01:56 | 51.79290 | 8.08446 | 304° | 20km/h | 21953m | 4.4m/s | -52.2°C | 0.6% | 43.1hPa | 2.7V | 18:12:15 | 01:44:01 | 00:00:00 | |
| DL1XH-west | 2026-08-31 12:01:55 | 51.79287 | 8.08453 | 302° | 16km/h | 21948m | 5.7m/s | -52.2°C | 0.6% | 43.1hPa | 2.7V | 18:12:15 | 01:44:00 | 00:00:00 | |
| DL1ZP-14 | 2026-08-31 12:01:52 | 51.79278 | 8.08468 | 334° | 13km/h | 21929m | 4.5m/s | -52.3°C | 1.1% | 43.3hPa | 2.7V | 00:00:00 | 00:00:00 | 00:00:00 | |
| DL1XH-15 | 2026-08-31 12:01:51 | 51.79254 | 8.08486 | 326° | 18km/h | 21895m | 4m/s | -52.2°C | 3.7% | 43.5hPa | 2.7V | 08:30:00 | 01:43:49 | 00:00:00 | |
| HSKMA3-T | 2026-08-31 12:01:51 | 51.79278 | 8.08468 | 335° | 15km/h | 21929m | 4.5m/s | -52.3°C | 0.6% | 43.3hPa | 2.7V | 18:12:15 | 01:43:56 | 00:00:00 | |
| DC4HF-4 | 2026-08-31 12:01:50 | 51.79271 | 8.08472 | 337° | 13km/h | 21919m | 5.3m/s | -52.2°C | 1.1% | 43.3hPa | 2.7V | 00:00:00 | 00:00:00 | 00:00:00 | |
| DD1CC8 | 2026-08-31 12:01:49 | 51.79271 | 8.08472 | 337° | 13km/h | 21919m | 5.3m/s | -52.2°C | 1.1% | 43.3hPa | 2.7V | 00:00:00 | 00:00:00 | 00:00:00 | |
| SONCRA | 2026-08-31 12:01:48 | 51.79268 | 8.08474 | 335° | 11km/h | 21914m | 4.7m/s | -52.2°C | 1.1% | 43.4hPa | 2.7V | 00:00:00 | 00:00:00 | 00:00:00 | |
| EDDB2-11 | 2026-08-31 12:01:47 | 51.79262 | 8.08479 | 333° | 15km/h | 21905m | 5.6m/s | -52.3°C | 1.1% | 43.4hPa | 2.7V | 00:00:00 | 00:00:00 | 00:00:00 | |
| DL1NUX | 2026-08-31 12:01:46 | 51.79258 | 8.08482 | 332° | 18km/h | 21900m | 5.1m/s | -52.3°C | 3.8% | 43.5hPa | 2.7V | 08:30:00 | 01:43:50 | 00:00:00 | |
| DO2JMG | 2026-08-31 12:01:45 | 51.79258 | 8.08482 | 333° | 18km/h | 21900m | 5.1m/s | -52.3°C | 0.5% | 43.5hPa | 2.7V | 18:12:15 | 01:43:50 | 00:00:00 | |
| DL1XH-west | 2026-08-31 12:01:44 | 51.79254 | 8.08486 | 327° | 18km/h | 21895m | 4m/s | -52.2°C | 0.5% | 43.5hPa | 2.7V | 18:12:15 | 01:43:49 | 00:00:00 | |
| BIOWL1-15 | 2026-08-31 12:01:43 | 51.79251 | 8.08490 | 316° | 16km/h | 21890m | 5.6m/s | -52.2°C | 0.5% | 43.5hPa | 2.7V | 18:12:15 | 01:43:48 | 00:00:00 | |
| HSKMA3-T | 2026-08-31 12:01:40 | 51.79245 | 8.08507 | 293° | 15km/h | 21875m | 5.7m/s | -52.1°C | 0.5% | 43.6hPa | 2.6V | 18:12:15 | 01:43:45 | 00:00:00 | |
| HTAHTA | 2026-08-31 12:01:40 | 51.79245 | 8.08507 | 293° | 15km/h | 21875m | 5.7m/s | -52.1°C | 1.1% | 43.6hPa | 2.6V | 00:00:00 | 00:00:00 | 00:00:00 | |
| DL1XH1-15 | 2026-08-31 12:01:39 | 51.79238 | 8.08523 | 13° | 9km/h | 21846m | 5.5m/s | -52°C | 3.7% | 43.8hPa | 2.6V | 08:30:00 | 01:43:39 | 00:00:00 | |
| DO3MHA-11 | 2026-08-31 12:01:38 | 51.79242 | 8.08517 | 292° | 9km/h | 21865m | 4.8m/s | -52.0°C | 3.8% | 43.7hPa | 2.7V | 00:00:00 | 01:43:43 | 08:30:00 | |
| DL1NUX | 2026-08-31 12:01:36 | 51.79240 | 8.08523 | 4° | 5km/h | 21851m | 4.5m/s | -52°C | 3.7% | 43.8hPa | 2.5V | 08:30:00 | 01:43:40 | 00:00:00 | |
| DO2JMG | 2026-08-31 12:01:35 | 51.79240 | 8.08523 | 5° | 5km/h | 21851m | 4.5m/s | -52°C | 0.5% | 43.8hPa | 2.5V | 18:12:15 | 01:43:40 | 00:00:00 | |
| DL1XH-west | 2026-08-31 12:01:34 | 51.79238 | 8.08523 | 14° | 11km/h | 21846m | 5.5m/s | -52.1°C | 0.5% | 43.8hPa | 2.6V | 18:12:15 | 01:43:39 | 00:00:00 | |
| AA1-15 | 2026-08-31 12:01:34 | 51.79235 | 8.08522 | 12° | 15km/h | 21841m | 4.3m/s | -52.2°C | 0.5% | 43.9hPa | 2.7V | 18:12:15 | 01:43:38 | 00:00:00 | |
| HSKMA3-T | 2026-08-31 12:01:29 | 51.79223 | 8.08521 | 333° | 5km/h | 21822m | 4.9m/s | -52.4°C | 0.5% | 44hPa | 2.6V | 18:12:15 | 01:43:34 | 00:00:00 | |
| DL1XH1-15 | 2026-08-31 12:01:29 | 51.79221 | 8.08531 | 245° | 4km/h | 21798m | 5.7m/s | -52.5°C | 3.9% | 44.1hPa | 2.5V | 08:30:00 | 01:43:29 | 00:00:00 | |
| DO2JMG | 2026-08-31 12:01:25 | 51.79222 | 8.08531 | 245° | 4km/h | 21798m | 5.7m/s | -52.5°C | 0.6% | 44.1hPa | 2.5V | 18:12:15 | 01:43:29 | 00:00:00 | |
| DM0DOS-11 | 2026-08-31 12:01:24 | 51.79219 | 8.08522 | 52° | 13km/h | 21774m | 3.9m/s | -52.3°C | 3.8% | 44.3hPa | 2.7V | 08:30:00 | 01:43:24 | 00:00:00 | |
| BIOWL1-15 | 2026-08-31 12:01:23 | 51.79222 | 8.08532 | 174° | 4km/h | 21793m | 4.6m/s | -52.4°C | 0.6% | 44.2hPa | 2.6V | 18:12:15 | 01:43:28 | 00:00:00 | |
| DJ2KF-10 | 2026-08-31 12:01:21 | 51.79222 | 8.08529 | 69° | 7km/h | 21784m | 5.6m/s | -52.2°C | 3.9% | 44.2hPa | 2.7V | 00:00:00 | 01:43:26 | 00:00:00 | |
| DD1CC3-15 | 2026-08-31 12:01:20 | 51.79222 | 8.08529 | 70° | 7km/h | 21784m | 5.6m/s | -52.3°C | 1.1% | 44.3hPa | 2.7V | 00:00:00 | 00:00:00 | 00:00:00 | |
| DL1XH1-15 | 2026-08-31 12:01:19 | 51.79215 | 8.08504 | 61° | 4km/h | 21751m | 5.6m/s | -52.3°C | 3.8% | 44.5hPa | 2.7V | 08:30:00 | 01:43:19 | 00:00:00 | |
| HSKMA3-T | 2026-08-31 12:01:18 | 51.79218 | 8.08518 | 60° | 13km/h | 21769m | 5.4m/s | -52.4°C | 0.5% | 44.4hPa | 2.5V | 18:12:15 | 01:43:23 | 00:00:00 | |
| DO3MHA-11 | 2026-08-31 12:01:18 | 51.79218 | 8.08518 | 60° | 7km/h | 21770m | 5.4m/s | -52.3°C | 3.7% | 44.3hPa | 2.7V | 00:00:00 | 01:43:23 | 00:00:00 | |
| DD1CC9-15 | 2026-08-31 12:01:17 | 51.79218 | 8.08518 | 61° | 13km/h | 21770m | 5.4m/s | -52.4°C | 1.1% | 44.4hPa | 2.7V | 00:00:00 | 00:00:00 | 00:00:00 | |
| DL1NUX | 2026-08-31 12:01:16 | 51.79216 | 8.08506 | 83° | 7km/h | 21756m | 4m/s | -52.4°C | 3.8% | 44.5hPa | 2.7V | 08:30:00 | 01:43:20 | 00:00:00 | |
| BIOWL1-15 | 2026-08-31 12:01:15 | 51.79212 | 8.08500 | 68° | 4km/h | 21732m | 5.1m/s | -52.4°C | 0.6% | 44.6hPa | 2.6V | 18:12:15 | 01:43:15 | 00:00:00 | |
| DO2JMG | 2026-08-31 12:01:14 | 51.79215 | 8.08504 | 61° | 4km/h | 21751m | 5.6m/s | -52.3°C | 0.5% | 44.5hPa | 2.7V | 18:12:15 | 01:43:19 | 00:00:00 | |
| DL1XH-west | 2026-08-31 12:01:13 | 51.79214 | 8.08503 | 23° | 5km/h | 21746m | 4.7m/s | -52.2°C | 0.6% | 44.5hPa | 2.7V | 18:12:15 | 01:43:18 | 00:00:00 | |
| AA1-15 | 2026-08-31 12:01:13 | 51.79213 | 8.08502 | 12° | 5km/h | 21741m | 4.6m/s | -52.3°C | 0.6% | 44.5hPa | 2.5V | 18:12:15 | 01:43:17 | 00:00:00 | |
| DB0DAN | 2026-08-31 12:01:10 | 51.79212 | 8.08500 | 68° | 4km/h | 21732m | 5.1m/s | -52.4°C | 0% | 44.61hPa | 2.6V | 00:00:00 | 00:00:00 | 00:00:00 | |
| DL4XJ-10 | 2026-08-31 12:01:10 | 51.79212 | 8.08500 | 68° | 7km/h | 21733m | 5.1m/s | -51.6°C | 0% | 0hPa | 2.6V | 00:00:00 | 00:00:00 | 00:00:00 | |
| DL1XH1-15 | 2026-08-31 12:01:09 | 51.79208 | 8.08478 | 93° | 11km/h | 21702m | 4.6m/s | -52.4°C | 3.7% | 44.8hPa | 2.6V | 08:30:00 | 01:43:09 | 00:00:00 | |
| HSKMA3-T | 2026-08-31 12:01:07 | 51.79210 | 8.08492 | 68° | 11km/h | 21717m | 5.1m/s | -52.4°C | 0.6% | 44.7hPa | 2.7V | 18:12:15 | 01:43:12 | 00:00:00 | |
| DO2JMG | 2026-08-31 12:01:03 | 51.79208 | 8.08474 | 94° | 9km/h | 21698m | 4.1m/s | -52.3°C | 0.4% | 44.8hPa | 2.7V | 18:12:15 | 01:43:08 | 00:00:00 | |
| BIOWL1-15 | 2026-08-31 12:01:02 | 51.79197 | 8.08477 | 346° | 11km/h | 21655m | 4m/s | -52.3°C | 0.5% | 45.2hPa | 2.5V | 18:12:15 | 01:42:59 | 00:00:00 | |
| DL1XH-west | 2026-08-31 12:01:02 | 51.79208 | 8.08471 | 76° | 5km/h | 21693m | 5.4m/s | -52.3°C | 0.4% | 44.9hPa | 2.7V | 18:12:15 | 01:43:07 | 00:00:00 | |
| DM0DOS-11 | 2026-08-31 12:01:00 | 51.79205 | 8.08470 | 320° | 4km/h | 21674m | 4.4m/s | -52.1°C | 3.7% | 45hPa | 2.6V | 08:30:00 | 01:43:03 | 00:00:00 | |
| HSKMA3-T | 2026-08-31 12:00:57 | 51.79204 | 8.08472 | 323° | 7km/h | 21669m | 4.6m/s | -52.2°C | 0.5% | 45hPa | 2.7V | 18:12:15 | 01:43:02 | 00:00:00 | |
| S3001 | 2026-08-31 12:00:57 | 51.79202 | 8.08473 | 329° | 9km/h | 21664m | 5.9m/s | -52.2°C | -1.0% | -1.0hPa | 2.7V | 00:00:00 | 00:00:00 | 00:00:00 | |
| DB0DAN | 2026-08-31 12:00:55 | 51.79199 | 8.08475 | 337° | 11km/h | 21659m | 4.5m/s | -52.2°C | 0% | 45.13hPa | 2.7V | 00:00:00 | 00:00:00 | 00:00:00 | |
| DO2JMG | 2026-08-31 12:00:53 | 51.79194 | 8.08478 | 355° | 9km/h | 21650m | 5.6m/s | -52.5°C | 0.6% | 45.2hPa | 2.5V | 18:12:15 | 01:42:58 | 00:00:00 | |
| DL1XH-west | 2026-08-31 12:00:52 | 51.79192 | 8.08478 | 11° | 5km/h | 21644m | 4.7m/s | -52.7°C | 0.6% | 45.2hPa | 2.6V | 18:12:15 | 01:42:57 | 00:00:00 | |
| BIOWL1-15 | 2026-08-31 12:00:50 | 51.79190 | 8.08477 | 5° | 5km/h | 21637m | 4.5m/s | -52.9°C | 0.6% | 45.3hPa | 2.7V | 18:12:15 | 01:42:55 | 00:00:00 | |
| DL1XH1-15 | 2026-08-31 12:00:49 | 51.79177 | 8.08483 | 349° | 7km/h | 21609m | 3.9m/s | -52.5°C | 3.9% | 45.5hPa | 2.7V | 08:30:00 | 01:42:49 | 00:00:00 | |
| DM0DOS-11 | 2026-08-31 12:00:48 | 51.79186 | 8.08477 | 344° | 11km/h | 21627m | 4.8m/s | -52.9°C | 4% | 45.3hPa | 2.5V | 08:30:00 | 01:42:53 | 00:00:00 | |
| HSKMA3-T | 2026-08-31 12:00:47 | 51.79181 | 8.08481 | 336° | 11km/h | 21618m | 4.8m/s | -52.7°C | 0.6% | 45.4hPa | 2.6V | 18:12:15 | 01:42:51 | 00:00:00 | |
| SONCRA | 2026-08-31 12:00:46 | 51.79181 | 8.08481 | 336° | 9km/h | 21618m | 4.8m/s | -52.7°C | 1.1% | 45.4hPa | 2.7V | 00:00:00 | 00:00:00 | 00:00:00 | |
| DL8DAS-15 | 2026-08-31 12:00:44 | 51.79179 | 8.08482 | 340° | 7km/h | 21614m | 4.6m/s | -52.6°C | 1.1% | 45.4hPa | 2.7V | 00:00:00 | 00:00:00 | 00:00:00 | |
| DM0DOS-11 | 2026-08-31 12:00:43 | 51.79160 | 8.08497 | 312° | 15km/h | 21580m | 4.7m/s | -52.4°C | 3.9% | 45.7hPa | 2.7V | 08:30:00 | 01:42:43 | 00:00:00 | |
| DO2JMG | 2026-08-31 12:00:42 | 51.79172 | 8.08485 | 346° | 11km/h | 21600m | 5m/s | -52.6°C | 0.6% | 45.5hPa | 2.5V | 18:12:15 | 01:42:47 | 00:00:00 | |
| AA1-15 | 2026-08-31 12:00:41 | 51.79169 | 8.08486 | 338° | 15km/h | 21595m | 4.8m/s | -52.6°C | 0.6% | 45.6hPa | 2.6V | 18:12:15 | 01:42:46 | 00:00:00 | |
| DL1XH-west | 2026-08-31 12:00:41 | 51.79166 | 8.08489 | 330° | 16km/h | 21590m | 4.5m/s | -52.6°C | 0.6% | 45.6hPa | 2.6V | 18:12:15 | 01:42:45 | 00:00:00 | |
| DL8DAS-14 | 2026-08-31 12:00:40 | 51.79162 | 8.08493 | 320° | 15km/h | 21586m | 5.5m/s | -52.5°C | 1.1% | 45.6hPa | 2.6V | 00:00:00 | 00:00:00 | 00:00:00 | |
| DL1XH1-15 | 2026-08-31 12:00:39 | 51.79148 | 8.08512 | 337° | 15km/h | 21562m | 3.7m/s | -52.4°C | 3.8% | 45.8hPa | 2.6V | 08:30:00 | 01:42:39 | 00:00:00 | |
| BIOWL1-15 | 2026-08-31 12:00:39 | 51.79162 | 8.08493 | 320° | 15km/h | 21585m | 5.5m/s | -52.5°C | 0.6% | 45.6hPa | 2.7V | 18:12:15 | 01:42:44 | 00:00:00 | |
| HSKMA3-T | 2026-08-31 12:00:35 | 51.79151 | 8.08509 | 331° | 16km/h | 21566m | 4.6m/s | -52.4°C | 0.6% | 45.8hPa | 2.5V | 18:12:15 | 01:42:40 | 00:00:00 | |
| DO2JMG | 2026-08-31 12:00:32 | 51.79142 | 8.08515 | 342° | 9km/h | 21552m | 4.8m/s | -52.5°C | 0.6% | 45.9hPa | 2.7V | 18:12:15 | 01:42:37 | 00:00:00 | |
| DL1XH-west | 2026-08-31 12:00:31 | 51.79140 | 8.08516 | 349° | 9km/h | 21547m | 4.7m/s | -52.5°C | 0.6% | 45.9hPa | 2.7V | 18:12:15 | 01:42:36 | 00:00:00 | |
| AA1-15 | 2026-08-31 12:00:30 | 51.79137 | 8.08517 | 354° | 11km/h | 21542m | 5.5m/s | -52.5°C | 0.6% | 45.9hPa | 2.5V | 18:12:15 | 01:42:35 | 00:00:00 | |
| BIOWL1-15 | 2026-08-31 12:00:29 | 51.79128 | 8.08519 | 344° | 11km/h | 21529m | 4.6m/s | -52.5°C | 0.5% | 46hPa | 2.7V | 18:12:15 | 01:42:32 | 00:00:00 | |
| DO3MHA-11 | 2026-08-31 12:00:28 | 51.79131 | 8.08518 | 353° | 18km/h | 21534m | 3.4m/s | -52.4°C | 3.8% | 46.0hPa | 2.7V | 00:00:00 | 01:42:33 | 00:00:00 | |
| DL1XH-15 | 2026-08-31 12:00:25 | 51.79124 | 8.08523 | 320° | 11km/h | 21519m | 4.4m/s | -52.4°C | 3.7% | 46.1hPa | 2.7V | 08:30:00 | 01:42:30 | 00:00:00 | |
| HSKMA3-T | 2026-08-31 12:00:24 | 51.79121 | 8.08526 | 323° | 13km/h | 21515m | 4.9m/s | -52.4°C | 0.5% | 46.1hPa | 2.5V | 18:12:15 | 01:42:29 | 00:00:00 | |
| DO2JMG | 2026-08-31 12:00:22 | 51.79115 | 8.08530 | 348° | 15km/h | 21505m | 4.1m/s | -52.5°C | 0.5% | 46.2hPa | 2.6V | 18:12:15 | 01:42:27 | 00:00:00 | |
| DL1XH-west | 2026-08-31 12:00:21 | 51.79112 | 8.08531 | 359° | 15km/h | 21501m | 4.2m/s | -52.5°C | 0.5% | 46.3hPa | 2.7V | 18:12:15 | 01:42:26 | 00:00:00 | |
| AA1-15 | 2026-08-31 12:00:20 | 51.79108 | 8.08530 | 12° | 13km/h | 21496m | 5.3m/s | -52.6°C | 0.6% | 46.3hPa | 2.7V | 18:12:15 | 01:42:25 | 00:00:00 | |
| BIOWL1-15 | 2026-08-31 12:00:16 | 51.79093 | 8.08517 | 29° | 20km/h | 21478m | 4.3m/s | -52.9°C | 0.6% | 46.4hPa | 2.6V | 18:12:15 | 01:42:21 | 00:00:00 | |
| HSKMA3-T | 2026-08-31 12:00:13 | 51.79083 | 8.08508 | 27° | 9km/h | 21464m | 4.2m/s | -52.9°C | 0.6% | 46.5hPa | 2.7V | 18:12:15 | 01:42:18 | 00:00:00 | |
| DO2JMG | 2026-08-31 12:00:11 | 51.79079 | 8.08507 | 359° | 7km/h | 21455m | 5.4m/s | -53°C | 0.6% | 46.5hPa | 2.6V | 18:12:15 | 01:42:16 | 00:00:00 | |
| AA1-15 | 2026-08-31 12:00:09 | 51.79075 | 8.08507 | 10° | 7km/h | 21447m | 3.9m/s | -53°C | 0.6% | 46.7hPa | 2.7V | 18:12:15 | 01:42:14 | 00:00:00 | |
| DM0DOS-11 | 2026-08-31 12:00:09 | 51.79074 | 8.08506 | 30° | 7km/h | 21442m | 4.6m/s | -53°C | 4% | 46.7hPa | 2.7V | 08:30:00 | 01:42:13 | 00:00:00 | |
| BIOWL1-15 | 2026-08-31 12:00:05 | 51.79065 | 8.08486 | 43° | 20km/h | 21420m | 4.9m/s | -52.9°C | 0.6% | 46.9hPa | 2.7V | 18:12:15 | 01:42:08 | 00:00:00 | |
| HSKMA3-T | 2026-08-31 12:00:02 | 51.79061 | 8.08481 | 39° | 22km/h | 21415m | 4.7m/s | -52.9°C | 0.6% | 46.9hPa | 2.7V | 18:12:15 | 01:42:07 | 00:00:00 | |
| DO2JMG | 2026-08-31 12:00:01 | 51.79057 | 8.08475 | 39° | 24km/h | 21410m | 5m/s | -52.9°C | 0.6% | 46.9hPa | 2.7V | 18:12:15 | 01:42:06 | 00:00:00 | |
| DL1XH-west | 2026-08-31 12:00:00 | 51.79052 | 8.08469 | 42° | 24km/h | 21405m | 4.6m/s | -52.8°C | 0.6% | 46.9hPa | 2.5V | 18:12:15 | 01:42:05 | 00:00:00 | |
| DL1NUX | 2026-08-31 11:59:59 | 51.79032 | 8.08446 | 31° | 15km/h | 21383m | 5.2m/s | -52.8°C | 3.9% | 47.1hPa | 2.7V | 08:30:00 | 01:42:00 | 00:00:00 | |
| AA1-15 | 2026-08-31 11:59:59 | 51.79048 | 8.08463 | 41° | 22km/h | 21401m | 3.9m/s | -52.9°C | 0.6% | 47hPa | 2.6V | 18:12:15 | 01:42:04 | 00:00:00 | |
| DM0DOS-11 | 2026-08-31 11:59:58 | 51.79044 | 8.08457 | 35° | 20km/h | 21397m | 4.8m/s | -52.9°C | 3.9% | 47hPa | 2.6V | 08:30:00 | 01:42:03 | 00:00:00 | |
| BIOWL1-15 | 2026-08-31 11:59:55 | 51.79032 | 8.08446 | 31° | 15km/h | 21383m | 5.2m/s | -52.8°C | 0.6% | 47.1hPa | 2.7V | 18:12:15 | 01:42:00 | 00:00:00 | |
| HSKMA3-T | 2026-08-31 11:59:53 | 51.79026 | 8.08437 | 51° | 9km/h | 21369m | 5.1m/s | -52.8°C | 0.6% | 47.2hPa | 2.6V | 18:12:15 | 01:41:57 | 00:00:00 | |
| DM0DOS-11 | 2026-08-31 11:59:52 | 51.79020 | 8.08427 | 59° | 11km/h | 21351m | 5.3m/s | -52.6°C | 4% | 47.4hPa | 2.5V | 08:30:00 | 01:41:53 | 00:00:00 | |
| DO2JMG | 2026-08-31 11:59:51 | 51.79023 | 8.08432 | 36° | 7km/h | 21359m | 4m/s | -52.7°C | 0.6% | 47.3hPa | 2.7V | 18:12:15 | 01:41:55 | 00:00:00 | |
| DL1XH-west | 2026-08-31 11:59:49 | 51.79021 | 8.08430 | 46° | 7km/h | 21356m | 4.2m/s | -52.7°C | 0.7% | 47.3hPa | 2.7V | 18:12:15 | 01:41:54 | 00:00:00 | |
| AA1-15 | 2026-08-31 11:59:48 | 51.79020 | 8.08427 | 59° | 11km/h | 21351m | 5.3m/s | -52.6°C | 0.6% | 47.4hPa | 2.5V | 18:12:15 | 01:41:53 | 00:00:00 | |
| DL1XH1-15 | 2026-08-31 11:59:48 | 51.79011 | 8.08408 | 42° | 18km/h | 21331m | 4.4m/s | -52.5°C | 3.8% | 47.5hPa | 2.7V | 08:30:00 | 01:41:49 | 00:00:00 | |
| BIOWL1-15 | 2026-08-31 11:59:46 | 51.79011 | 8.08408 | 42° | 18km/h | 21331m | 4.4m/s | -52.6°C | 0.5% | 47.5hPa | 2.7V | 18:12:15 | 01:41:49 | 00:00:00 | |
| DL3AQ-11 | 2026-08-31 11:59:45 | 51.79011 | 8.08408 | 42° | 18km/h | 21331m | 4.4m/s | -52.6°C | 1.1% | 47.5hPa | 2.7V | 00:00:00 | 00:00:00 | 00:00:00 | |
| SONCRA | 2026-08-31 11:59:44 | 51.79011 | 8.08408 | 42° | 18km/h | 21331m | 4.4m/s | -52.6°C | 1.1% | 47.5hPa | 2.7V | 00:00:00 | 00:00:00 | 00:00:00 | |
| DO9LL-15 | 2026-08-31 11:59:43 | 51.79007 | 8.08403 | 46° | 15km/h | 21327m | 5.2m/s | -52.5°C | 3.8% | 47.5hPa | 2.7V | 00:00:00 | 01:41:48 | 08:30:00 | |
| DM0DOS-11 | 2026-08-31 11:59:42 | 51.78995 | 8.08380 | 56° | 9km/h | 21303m | 4.2m/s | -52.5°C | 3.9% | 47.7hPa | 2.7V | 08:30:00 | 01:41:43 | 00:00:00 | |
| HSKMA3-T | 2026-08-31 11:59:41 | 51.79001 | 8.08391 | 52° | 16km/h | 21317m | 4m/s | -52.5°C | 0.5% | 47.6hPa | 2.6V | 18:12:15 | 01:41:46 | 00:00:00 | |
| DL1XH-west | 2026-08-31 11:59:39 | 51.78997 | 8.08383 | 46° | 11km/h | 21307m | 4.4m/s | -52.6°C | 0.6% | 47.7hPa | 2.7V | 18:12:15 | 01:41:44 | 00:00:00 | |
| DL1XH1-15 | 2026-08-31 11:59:38 | 51.78991 | 8.08363 | 61° | 13km/h | 21285m | 5.2m/s | -52.6°C | 4% | 47.8hPa | 2.6V | 08:30:00 | 01:41:39 | 00:00:00 | |
| AA1-15 | 2026-08-31 11:59:37 | 51.78994 | 8.08376 | 70° | 11km/h | 21298m | 5.3m/s | -52.5°C | 0.6% | 47.7hPa | 2.7V | 18:12:15 | 01:41:42 | 00:00:00 | |
| BIOWL1-15 | 2026-08-31 11:59:36 | 51.78991 | 8.08363 | 62° | 13km/h | 21285m | 5.2m/s | -52.6°C | 0.7% | 47.8hPa | 2.6V | 18:12:15 | 01:41:39 | 00:00:00 | |
| DD1CC1-15 | 2026-08-31 11:59:36 | 51.78993 | 8.08372 | 77° | 13km/h | 21294m | 3.8m/s | -52.5°C | 1.1% | 47.8hPa | 2.6V | 00:00:00 | 00:00:00 | 00:00:00 | |
| DL3AQ-11 | 2026-08-31 11:59:34 | 51.78989 | 8.08358 | 49° | 13km/h | 21281m | 4.5m/s | -52.4°C | 1.1% | 47.9hPa | 2.6V | 00:00:00 | 00:00:00 | 00:00:00 | |
| DL8DAS-15 | 2026-08-31 11:59:33 | 51.78989 | 8.08358 | 50° | 13km/h | 21281m | 4.5m/s | -52.4°C | 1.2% | 47.8hPa | 2.6V | 00:00:00 | 00:00:00 | 00:00:00 | |
| DM0DOS-11 | 2026-08-31 11:59:32 | 51.78976 | 8.08329 | 59° | 20km/h | 21257m | 5.2m/s | -52.5°C | 3.8% | 48hPa | 2.6V | 08:30:00 | 01:41:33 | 00:00:00 | |
| HSKMA3-T | 2026-08-31 11:59:30 | 51.78981 | 8.08343 | 58° | 20km/h | 21266m | 5.2m/s | -52.4°C | 0.5% | 48hPa | 2.5V | 18:12:15 | 01:41:35 | 00:00:00 | |
| DL1XH-west | 2026-08-31 11:59:28 | 51.78976 | 8.08329 | 60° | 20km/h | 21257m | 5.2m/s | -52.5°C | 0.5% | 48hPa | 2.6V | 18:12:15 | 01:41:33 | 00:00:00 | |
| AA1-15 | 2026-08-31 11:59:27 | 51.78974 | 8.08322 | 58° | 18km/h | 21252m | 4.9m/s | -52.5°C | 0.5% | 48.1hPa | 2.7V | 18:12:15 | 01:41:32 | 00:00:00 | |
| DL1XH-15 | 2026-08-31 11:59:26 | 51.78970 | 8.08310 | 73° | 16km/h | 21243m | 5.2m/s | -52.4°C | 3.7% | 48.1hPa | 2.7V | 08:30:00 | 01:41:30 | 00:00:00 | |
| BIOWL1-15 | 2026-08-31 11:59:24 | 51.78969 | 8.08304 | 88° | 16km/h | 21238m | 5m/s | -52.4°C | 0.5% | 48.2hPa | 2.6V | 18:12:15 | 01:41:29 | 00:00:00 | |
| DO2SHX-10 | 2026-08-31 11:59:23 | 51.78969 | 8.08297 | 100° | 15km/h | 21234m | 3.9m/s | -52.4°C | 3.8% | 48.2hPa | 2.6V | 00:00:00 | 01:41:28 | 00:00:00 | |
| GOEST3-10 | 2026-08-31 11:59:22 | 51.78970 | 8.08292 | 105° | 11km/h | 21230m | 4.7m/s | -52.5°C | 3.8% | 48.2hPa | 2.6V | 00:00:00 | 00:00:00 | 00:00:00 | |
| DM0DOS-11 | 2026-08-31 11:59:21 | 51.78972 | 8.08275 | 79° | 11km/h | 21210m | 4.8m/s | -52.6°C | 4% | 48.4hPa | 2.5V | 08:30:00 | 01:41:23 | 00:00:00 | |
| HSKMA3-T | 2026-08-31 11:59:20 | 51.78972 | 8.08283 | 103° | 9km/h | 21220m | 4.2m/s | -52.7°C | 0.7% | 48.3hPa | 2.7V | 18:12:15 | 01:41:25 | 00:00:00 | |
| DO2SHX-10 | 2026-08-31 11:59:20 | 51.78972 | 8.08283 | 104° | 11km/h | 21220m | 4.2m/s | -52.6°C | 4.0% | 48.2hPa | 2.7V | 00:00:00 | 01:41:25 | 00:00:00 | |
| DO3MHA-11 | 2026-08-31 11:59:19 | 51.78972 | 8.08279 | 95° | 15km/h | 21216m | 4.8m/s | -52.6°C | 4.0% | 48.3hPa | 2.7V | 00:00:00 | 01:41:24 | 00:00:00 | |
| DL1XH1-15 | 2026-08-31 11:59:18 | 51.78963 | 8.08257 | 37° | 18km/h | 21191m | 4.4m/s | -52.8°C | 3.9% | 48.5hPa | 2.7V | 08:30:00 | 01:41:19 | 00:00:00 | |
| DO2JMG | 2026-08-31 11:59:18 | 51.78972 | 8.08275 | 80° | 11km/h | 21210m | 4.8m/s | -52.6°C | 0.7% | 48.4hPa | 2.5V | 18:12:15 | 01:41:23 | 00:00:00 | |
| DL1XH-west | 2026-08-31 11:59:17 | 51.78971 | 8.08270 | 64° | 13km/h | 21206m | 4m/s | -52.7°C | 0.6% | 48.4hPa | 2.5V | 18:12:15 | 01:41:22 | 00:00:00 | |
| AA1-15 | 2026-08-31 11:59:17 | 51.78969 | 8.08266 | 50° | 15km/h | 21201m | 5.8m/s | -52.8°C | 0.6% | 48.5hPa | 2.5V | 18:12:15 | 01:41:21 | 00:00:00 | |
| DL1XH-15 | 2026-08-31 11:59:16 | 51.78966 | 8.08261 | 37° | 16km/h | 21196m | 4.9m/s | -52.8°C | 4% | 48.5hPa | 2.7V | 08:30:00 | 01:41:20 | 00:00:00 | |
| BIOWL1-15 | 2026-08-31 11:59:13 | 51.78956 | 8.08246 | 49° | 18km/h | 21182m | 3.8m/s | -52.9°C | 0.7% | 48.6hPa | 2.5V | 18:12:15 | 01:41:17 | 00:00:00 | |
| HSKMA3-T | 2026-08-31 11:59:09 | 51.78948 | 8.08232 | 48° | 13km/h | 21168m | 4.6m/s | -52.8°C | 0.6% | 48.7hPa | 2.7V | 18:12:15 | 01:41:14 | 00:00:00 | |
| DM0DOS-11 | 2026-08-31 11:59:09 | 51.78946 | 8.08228 | 56° | 11km/h | 21163m | 5.5m/s | -52.8°C | 3.8% | 48.7hPa | 2.7V | 08:30:00 | 01:41:13 | 00:00:00 | |
| DO2SHX-10 | 2026-08-31 11:59:09 | 51.78947 | 8.08232 | 49° | 11km/h | 21168m | 4.6m/s | -52.8°C | 3.9% | 48.7hPa | 2.6V | 00:00:00 | 01:41:14 | 00:00:00 | |
| DL1XH1-15 | 2026-08-31 11:59:08 | 51.78941 | 8.08214 | 41° | 7km/h | 21144m | 4.7m/s | -52.5°C | 3.8% | 48.9hPa | 2.6V | 08:30:00 | 01:41:09 | 00:00:00 | |
| DO2JMG | 2026-08-31 11:59:07 | 51.78944 | 8.08224 | 64° | 11km/h | 21158m | 4.5m/s | -52.7°C | 0.5% | 48.8hPa | 2.7V | 18:12:15 | 01:41:12 | 00:00:00 | |
| DL1XH-west | 2026-08-31 11:59:06 | 51.78943 | 8.08220 | 64° | 11km/h | 21154m | 3.8m/s | -52.6°C | 0.6% | 48.8hPa | 2.5V | 18:12:15 | 01:41:11 | 00:00:00 | |
| AA1-15 | 2026-08-31 11:59:06 | 51.78942 | 8.08217 | 57° | 9km/h | 21149m | 5.6m/s | -52.6°C | 0.5% | 48.8hPa | 2.6V | 18:12:15 | 01:41:10 | 00:00:00 | |
| DL4BBY-15 | 2026-08-31 11:59:06 | 51.78943 | 8.08220 | 64° | 11km/h | 21154m | 3.8m/s | -51.9°C | 0% | 0hPa | 2.6V | 00:00:00 | 00:00:00 | 00:00:00 | |
| DL3AQ-11 | 2026-08-31 11:59:05 | 51.78941 | 8.08214 | 41° | 7km/h | 21144m | 4.7m/s | -52.5°C | 1.1% | 48.9hPa | 2.6V | 00:00:00 | 00:00:00 | 00:00:00 | |
| DM0DOS-11 | 2026-08-31 11:59:03 | 51.78928 | 8.08190 | 45° | 15km/h | 21115m | 4.8m/s | -52.6°C | 3.9% | 49.1hPa | 2.6V | 08:30:00 | 01:41:03 | 00:00:00 | |
| BIOWL1-15 | 2026-08-31 11:59:02 | 51.78937 | 8.08210 | 48° | 11km/h | 21134m | 5.6m/s | -52.6°C | 0.5% | 49hPa | 2.7V | 18:12:15 | 01:41:07 | 00:00:00 | |
| HSKMA3-T | 2026-08-31 11:58:58 | 51.78928 | 8.08190 | 46° | 15km/h | 21115m | 4.8m/s | -52.7°C | 0.6% | 49.1hPa | 2.6V | 18:12:15 | 01:41:03 | 00:00:00 | |
| DO2JMG | 2026-08-31 11:58:57 | 51.78925 | 8.08186 | 50° | 15km/h | 21111m | 4m/s | -52.8°C | 0.6% | 49.1hPa | 2.7V | 18:12:15 | 01:41:02 | 00:00:00 | |
| DL1XH-west | 2026-08-31 11:58:56 | 51.78923 | 8.08181 | 56° | 15km/h | 21106m | 5.4m/s | -52.7°C | 0.6% | 49.2hPa | 2.7V | 18:12:15 | 01:41:01 | 00:00:00 | |
| DL1XH-15 | 2026-08-31 11:58:56 | 51.78922 | 8.08177 | 60° | 13km/h | 21101m | 3.9m/s | -52.7°C | 3.9% | 49.2hPa | 2.7V | 08:30:00 | 01:41:00 | 00:00:00 | |
| AA1-15 | 2026-08-31 11:58:54 | 51.78920 | 8.08173 | 57° | 11km/h | 21097m | 4.2m/s | -52.8°C | 0.7% | 49.2hPa | 2.5V | 18:12:15 | 01:40:59 | 00:00:00 | |
| BIOWL1-15 | 2026-08-31 11:58:51 | 51.78915 | 8.08167 | 41° | 5km/h | 21078m | 5.3m/s | -52.8°C | 0.6% | 49.4hPa | 2.7V | 18:12:15 | 01:40:55 | 00:00:00 | |
| DM0DOS-11 | 2026-08-31 11:58:51 | 51.78913 | 8.08163 | 57° | 7km/h | 21069m | 4.2m/s | -52.8°C | 3.8% | 49.5hPa | 2.6V | 08:30:00 | 01:40:53 | 00:00:00 | |
| DO2JMG | 2026-08-31 11:58:47 | 51.78912 | 8.08160 | 45° | 9km/h | 21064m | 5.2m/s | -52.8°C | 0.6% | 49.5hPa | 2.6V | 18:12:15 | 01:40:52 | 00:00:00 | |
| DJ2DS-15 | 2026-08-31 11:58:47 | 51.78910 | 8.08158 | 39° | 9km/h | 21059m | 4.5m/s | -52.7°C | 1.1% | 49.5hPa | 2.7V | 00:00:00 | 00:00:00 | 00:00:00 | |
| DL1XH-15 | 2026-08-31 11:58:46 | 51.78908 | 8.08154 | 45° | 13km/h | 21055m | 4.4m/s | -52.7°C | 3.8% | 49.6hPa | 2.7V | 08:30:00 | 01:40:50 | 00:00:00 | |
| DL1XH-west | 2026-08-31 11:58:46 | 51.78910 | 8.08158 | 40° | 11km/h | 21059m | 4.5m/s | -52.7°C | 0.5% | 49.5hPa | 2.6V | 18:12:15 | 01:40:51 | 00:00:00 | |
| DL1ZP-14 | 2026-08-31 11:58:46 | 51.78908 | 8.08154 | 45° | 13km/h | 21055m | 4.4m/s | -52.7°C | 1.1% | 49.6hPa | 2.7V | 00:00:00 | 00:00:00 | 00:00:00 | |
| AA1-15 | 2026-08-31 11:58:43 | 51.78901 | 8.08139 | 56° | 16km/h | 21041m | 5.2m/s | -52.8°C | 0.7% | 49.7hPa | 2.6V | 18:12:15 | 01:40:47 | 00:00:00 | |
| BIOWL1-15 | 2026-08-31 11:58:41 | 51.78895 | 8.08126 | 66° | 11km/h | 21028m | 4.5m/s | -52.9°C | 0.6% | 49.8hPa | 2.7V | 18:12:15 | 01:40:44 | 00:00:00 | |
| DM0DOS-11 | 2026-08-31 11:58:39 | 51.78894 | 8.08121 | 74° | 13km/h | 21023m | 5m/s | -52.9°C | 4% | 49.8hPa | 2.7V | 08:30:00 | 01:40:43 | 00:00:00 | |
| DL1XH1-15 | 2026-08-31 11:58:38 | 51.78890 | 8.08101 | 46° | 11km/h | 21005m | 5m/s | -53.1°C | 4% | 49.9hPa | 2.6V | 08:30:00 | 01:40:39 | 00:00:00 | |
| DO2JMG | 2026-08-31 11:58:36 | 51.78893 | 8.08110 | 74° | 15km/h | 21014m | 3.6m/s | -52.9°C | 0.6% | 49.9hPa | 2.5V | 18:12:15 | 01:40:41 | 00:00:00 | |
| DL1XH-west | 2026-08-31 11:58:36 | 51.78890 | 8.08101 | 47° | 11km/h | 21005m | 5m/s | -53.1°C | 0.7% | 49.9hPa | 2.6V | 18:12:15 | 01:40:39 | 00:00:00 | |
| AA1-15 | 2026-08-31 11:58:32 | 51.78886 | 8.08096 | 37° | 11km/h | 20996m | 4.5m/s | -53°C | 0.7% | 50hPa | 2.7V | 18:12:15 | 01:40:37 | 00:00:00 | |
| BIOWL1-15 | 2026-08-31 11:58:30 | 51.78881 | 8.08084 | 75° | 11km/h | 20982m | 4.7m/s | -53.2°C | 0.7% | 50.1hPa | 2.5V | 18:12:15 | 01:40:34 | 00:00:00 | |
| DO2JMG | 2026-08-31 11:58:25 | 51.78883 | 8.08066 | 109° | 16km/h | 20962m | 5.7m/s | -52.9°C | 0.6% | 50.3hPa | 2.7V | 18:12:15 | 01:40:30 | 00:00:00 | |
| DL1XH-west | 2026-08-31 11:58:24 | 51.78884 | 8.08059 | 109° | 20km/h | 20957m | 4.4m/s | -52.9°C | 0.6% | 50.3hPa | 2.5V | 18:12:15 | 01:40:29 | 00:00:00 | |
| AA1-15 | 2026-08-31 11:58:22 | 51.78889 | 8.08038 | 105° | 18km/h | 20943m | 4.2m/s | -52.9°C | 0.6% | 50.4hPa | 2.7V | 18:12:15 | 01:40:26 | 00:00:00 | |
| BIOWL1-15 | 2026-08-31 11:58:20 | 51.78890 | 8.08030 | 102° | 20km/h | 20938m | 5.5m/s | -53°C | 0.6% | 50.5hPa | 2.7V | 18:12:15 | 01:40:25 | 00:00:00 | |
| DO2JMG | 2026-08-31 11:58:15 | 51.78891 | 8.07986 | 84° | 18km/h | 20913m | 4.6m/s | -53°C | 0.6% | 50.7hPa | 2.7V | 18:12:15 | 01:40:20 | 00:00:00 | |
| HSKMA3-T | 2026-08-31 11:58:14 | 51.78891 | 8.07978 | 86° | 20km/h | 20909m | 4.3m/s | -53°C | 0.6% | 50.7hPa | 2.7V | 18:12:15 | 01:40:19 | 00:00:00 | |
| DL1XH-west | 2026-08-31 11:58:13 | 51.78891 | 8.07970 | 89° | 22km/h | 20904m | 5.3m/s | -53°C | 0.7% | 50.7hPa | 2.7V | 18:12:15 | 01:40:18 | 00:00:00 | |
| AA1-15 | 2026-08-31 11:58:11 | 51.78891 | 8.07944 | 91° | 20km/h | 20890m | 5.2m/s | -53°C | 0.6% | 50.9hPa | 2.6V | 18:12:15 | 01:40:15 | 00:00:00 | |
| BIOWL1-15 | 2026-08-31 11:58:09 | 51.78891 | 8.07936 | 94° | 18km/h | 20885m | 4.6m/s | -53°C | 0.7% | 50.9hPa | 2.7V | 18:12:15 | 01:40:14 | 00:00:00 | |
| DO2SHX-10 | 2026-08-31 11:58:08 | 51.78892 | 8.07929 | 99° | 22km/h | 20880m | 5.3m/s | -53.0°C | 4.0% | 50.9hPa | 2.6V | 00:00:00 | 01:40:13 | 00:00:00 | |
| DL1XH-15 | 2026-08-31 11:58:06 | 51.78895 | 8.07901 | 97° | 22km/h | 20867m | 5.2m/s | -52.9°C | 3.9% | 51hPa | 2.6V | 08:30:00 | 01:40:10 | 00:00:00 | |
| DO2JMG | 2026-08-31 11:58:04 | 51.78895 | 8.07892 | 91° | 22km/h | 20862m | 5.1m/s | -52.9°C | 0.6% | 51.1hPa | 2.6V | 18:12:15 | 01:40:09 | 00:00:00 | |
| HSKMA3-T | 2026-08-31 11:58:03 | 51.78895 | 8.07884 | 84° | 22km/h | 20857m | 4.5m/s | -52.9°C | 0.7% | 51.1hPa | 2.7V | 18:12:15 | 01:40:08 | 00:00:00 | |
| DL1XH-west | 2026-08-31 11:58:03 | 51.78893 | 8.07866 | 79° | 26km/h | 20847m | 5m/s | -52.9°C | 0.6% | 51.2hPa | 2.7V | 18:12:15 | 01:40:06 | 00:00:00 | |
| AA1-15 | 2026-08-31 11:58:00 | 51.78892 | 8.07855 | 78° | 26km/h | 20843m | 3.8m/s | -52.9°C | 0.7% | 51.2hPa | 2.6V | 18:12:15 | 01:40:05 | 00:00:00 | |
| BIOWL1-15 | 2026-08-31 11:57:59 | 51.78890 | 8.07845 | 74° | 26km/h | 20839m | 4.5m/s | -53°C | 0.7% | 51.3hPa | 2.6V | 18:12:15 | 01:40:04 | 00:00:00 | |
| DL3AQ-11 | 2026-08-31 11:57:58 | 51.78887 | 8.07828 | 67° | 20km/h | 20829m | 4.2m/s | -52.9°C | 1.2% | 51.3hPa | 2.7V | 00:00:00 | 00:00:00 | 00:00:00 | |
| DL1NUX | 2026-08-31 11:57:56 | 51.78882 | 8.07810 | 70° | 24km/h | 20819m | 4.7m/s | -52.9°C | 4% | 51.4hPa | 2.7V | 08:30:00 | 01:40:00 | 00:00:00 | |
| DF7PN | 2026-08-31 11:57:56 | 51.78882 | 8.07810 | 70° | 24km/h | 20819m | 4.7m/s | -52.9°C | 1.2% | 51.4hPa | 2.5V | 00:00:00 | 00:00:00 | 00:00:00 | |
| DL1XH1-15 | 2026-08-31 11:57:55 | 51.78880 | 8.07801 | 67° | 26km/h | 20815m | 4.3m/s | -52.9°C | 4% | 51.5hPa | 2.5V | 08:30:00 | 01:39:59 | 00:00:00 | |
| DO2JMG | 2026-08-31 11:57:53 | 51.78878 | 8.07792 | 64° | 26km/h | 20810m | 5.9m/s | -52.9°C | 0.6% | 51.5hPa | 2.6V | 18:12:15 | 01:39:58 | 00:00:00 | |
| DJ2DS-15 | 2026-08-31 11:57:53 | 51.78877 | 8.07792 | 65° | 26km/h | 20810m | 5.9m/s | -52.8°C | 4.0% | 51.4hPa | 2.5V | 00:00:00 | 01:39:58 | 00:00:00 | |
| DM0DOS-11 | 2026-08-31 11:57:52 | 51.78863 | 8.07743 | 68° | 26km/h | 20786m | 3.9m/s | -53°C | 4% | 51.7hPa | 2.5V | 08:30:00 | 01:39:53 | 00:00:00 | |
| DL1XH-west | 2026-08-31 11:57:52 | 51.78875 | 8.07783 | 60° | 26km/h | 20804m | 5m/s | -52.8°C | 0.7% | 51.5hPa | 2.6V | 18:12:15 | 01:39:57 | 00:00:00 | |
| AA1-15 | 2026-08-31 11:57:50 | 51.78866 | 8.07753 | 69° | 27km/h | 20790m | 3.4m/s | -52.9°C | 0.7% | 51.6hPa | 2.7V | 18:12:15 | 01:39:54 | 00:00:00 | |
| BIOWL1-15 | 2026-08-31 11:57:48 | 51.78861 | 8.07734 | 63° | 24km/h | 20782m | 5.5m/s | -53°C | 0.7% | 51.7hPa | 2.6V | 18:12:15 | 01:39:52 | 00:00:00 | |
| DJ8HS-15 | 2026-08-31 11:57:48 | 51.78863 | 8.07743 | 69° | 24km/h | 20786m | 3.9m/s | -52.9°C | 4.0% | 51.6hPa | 2.7V | 00:00:00 | 01:39:53 | 00:00:00 | |
| DL1XH-15 | 2026-08-31 11:57:46 | 51.78854 | 8.07719 | 47° | 22km/h | 20772m | 4.3m/s | -52.8°C | 3.9% | 51.8hPa | 2.7V | 08:30:00 | 01:39:50 | 00:00:00 | |
| DL1XH1-15 | 2026-08-31 11:57:45 | 51.78851 | 8.07713 | 48° | 22km/h | 20768m | 5m/s | -52.8°C | 3.9% | 51.8hPa | 2.7V | 08:30:00 | 01:39:49 | 00:00:00 | |
| DO2JMG | 2026-08-31 11:57:43 | 51.78847 | 8.07706 | 52° | 22km/h | 20763m | 4.6m/s | -52.8°C | 0.6% | 51.9hPa | 2.7V | 18:12:15 | 01:39:48 | 00:00:00 | |
| DL1XH-west | 2026-08-31 11:57:42 | 51.78843 | 8.07698 | 51° | 24km/h | 20758m | 4.3m/s | -52.8°C | 0.6% | 51.9hPa | 2.5V | 18:12:15 | 01:39:47 | 00:00:00 | |
| DO2SHX-10 | 2026-08-31 11:57:42 | 51.78843 | 8.07698 | 51° | 26km/h | 20759m | 4.3m/s | -52.7°C | 3.9% | 51.9hPa | 2.5V | 00:00:00 | 01:39:47 | 00:00:00 | |
| DM0DOS-11 | 2026-08-31 11:57:41 | 51.78825 | 8.07667 | 50° | 27km/h | 20739m | 5.5m/s | -52.7°C | 3.9% | 52.1hPa | 2.7V | 08:30:00 | 01:39:43 | 00:00:00 | |
| AA1-15 | 2026-08-31 11:57:38 | 51.78825 | 8.07667 | 51° | 27km/h | 20739m | 5.5m/s | -52.7°C | 0.6% | 52.1hPa | 2.7V | 18:12:15 | 01:39:43 | 00:00:00 | |
| DL1XH-15 | 2026-08-31 11:57:36 | 51.78814 | 8.07642 | 56° | 24km/h | 20726m | 4.8m/s | -52.6°C | 3.9% | 52.1hPa | 2.6V | 08:30:00 | 01:39:40 | 00:00:00 | |
| DL1XH1-15 | 2026-08-31 11:57:35 | 51.78811 | 8.07634 | 52° | 22km/h | 20721m | 4.7m/s | -52.6°C | 3.9% | 52.2hPa | 2.6V | 08:30:00 | 01:39:39 | 00:00:00 | |
| DO2JMG | 2026-08-31 11:57:32 | 51.78804 | 8.07620 | 56° | 22km/h | 20712m | 4.8m/s | -52.8°C | 0.6% | 52.3hPa | 2.7V | 18:12:15 | 01:39:37 | 00:00:00 | |
| DO2SHX-10 | 2026-08-31 11:57:32 | 51.78801 | 8.07612 | 62° | 24km/h | 20707m | 5.2m/s | -52.8°C | 4.0% | 52.3hPa | 2.7V | 00:00:00 | 01:39:36 | 08:30:00 | |
| DL1XH-west | 2026-08-31 11:57:32 | 51.78801 | 8.07612 | 61° | 24km/h | 20707m | 5.2m/s | -52.9°C | 0.7% | 52.3hPa | 2.7V | 18:12:15 | 01:39:36 | 00:00:00 | |
| DK9SH | 2026-08-31 11:57:31 | 51.78801 | 8.07612 | 62° | 24km/h | 20707m | 5.2m/s | -52.9°C | 1.2% | 52.3hPa | 2.6V | 00:00:00 | 00:00:00 | 00:00:00 | |
| DM0DOS-11 | 2026-08-31 11:57:29 | 51.78793 | 8.07588 | 55° | 24km/h | 20692m | 4.8m/s | -52.8°C | 3.9% | 52.4hPa | 2.6V | 08:30:00 | 01:39:33 | 00:00:00 | |
| DL1XH1-15 | 2026-08-31 11:57:28 | 51.78780 | 8.07555 | 56° | 24km/h | 20672m | 4.4m/s | -52.8°C | 4% | 52.6hPa | 2.5V | 08:30:00 | 01:39:29 | 00:00:00 | |
| AA1-15 | 2026-08-31 11:57:27 | 51.78786 | 8.07572 | 58° | 24km/h | 20682m | 5.7m/s | -52.8°C | 0.6% | 52.5hPa | 2.7V | 18:12:15 | 01:39:31 | 00:00:00 | |
| DD8BA-10 | 2026-08-31 11:57:26 | 51.78786 | 8.07572 | 59° | 20km/h | 20683m | 5.6m/s | -52.8°C | 4.0% | 52.5hPa | 2.7V | 00:00:00 | 00:00:00 | 00:00:00 | |
| DB0UT-7 | 2026-08-31 11:57:25 | 51.78783 | 8.07563 | 60° | 16km/h | 20677m | 4.5m/s | -52.8°C | 4.0% | 52.5hPa | 2.5V | 00:00:00 | 01:39:30 | 00:00:00 | |
| DO3MHA-11 | 2026-08-31 11:57:24 | 51.78780 | 8.07555 | 57° | 18km/h | 20673m | 4.3m/s | -52.7°C | 4.0% | 52.6hPa | 2.5V | 00:00:00 | 01:39:29 | 00:00:00 | |
| DM0DOS-11 | 2026-08-31 11:57:23 | 51.78762 | 8.07516 | 57° | 16km/h | 20643m | 5.7m/s | -52.7°C | 3.9% | 52.8hPa | 2.6V | 08:30:00 | 01:39:23 | 00:00:00 | |
| DO2JMG | 2026-08-31 11:57:21 | 51.78769 | 8.07535 | 51° | 20km/h | 20658m | 5m/s | -52.7°C | 0.6% | 52.7hPa | 2.7V | 18:12:15 | 01:39:26 | 00:00:00 | |
| AA1-15 | 2026-08-31 11:57:16 | 51.78758 | 8.07506 | 66° | 13km/h | 20634m | 4.4m/s | -52.4°C | 0.6% | 52.9hPa | 2.6V | 18:12:15 | 01:39:21 | 00:00:00 | |
| BIOWL1-15 | 2026-08-31 11:57:15 | 51.78757 | 8.07501 | 78° | 13km/h | 20629m | 5.4m/s | -52.4°C | 0.6% | 53hPa | 2.7V | 18:12:15 | 01:39:20 | 00:00:00 | |
| DO2SHX-10 | 2026-08-31 11:57:15 | 51.78757 | 8.07501 | 79° | 13km/h | 20629m | 5.3m/s | -52.3°C | 3.9% | 52.9hPa | 2.5V | 00:00:00 | 01:39:20 | 00:00:00 | |
| DO3MHA-11 | 2026-08-31 11:57:14 | 51.78757 | 8.07495 | 84° | 18km/h | 20625m | 3.8m/s | -52.3°C | 3.9% | 52.9hPa | 2.5V | 00:00:00 | 01:39:19 | 00:00:00 | |
| DL1ZP-14 | 2026-08-31 11:57:13 | 51.78755 | 8.07485 | 68° | 13km/h | 20615m | 5.3m/s | -52.5°C | 1.1% | 53.1hPa | 2.5V | 00:00:00 | 00:00:00 | 00:00:00 | |
| DM0DOS-11 | 2026-08-31 11:57:11 | 51.78746 | 8.07461 | 52° | 22km/h | 20595m | 4.5m/s | -52.4°C | 3.9% | 53.2hPa | 2.7V | 08:30:00 | 01:39:13 | 00:00:00 | |
| DO2JMG | 2026-08-31 11:57:11 | 51.78754 | 8.07480 | 60° | 15km/h | 20610m | 4.3m/s | -52.4°C | 0.6% | 53.1hPa | 2.6V | 18:12:15 | 01:39:16 | 00:00:00 | |
| HSKMA3-T | 2026-08-31 11:57:11 | 51.78752 | 8.07474 | 59° | 18km/h | 20605m | 5.4m/s | -52.3°C | 0.6% | 53.2hPa | 2.6V | 18:12:15 | 01:39:15 | 00:00:00 | |
| BIOWL1-15 | 2026-08-31 11:57:06 | 51.78732 | 8.07438 | 53° | 18km/h | 20577m | 5.2m/s | -52.2°C | 0.5% | 53.4hPa | 2.6V | 18:12:15 | 01:39:09 | 00:00:00 | |
| AA1-15 | 2026-08-31 11:57:05 | 51.78735 | 8.07443 | 44° | 18km/h | 20582m | 4.3m/s | -52.3°C | 0.6% | 53.4hPa | 2.5V | 18:12:15 | 01:39:10 | 00:00:00 | |
| DL1XH-west | 2026-08-31 11:57:01 | 51.78728 | 8.07410 | 94° | 15km/h | 20549m | 5.3m/s | -52.2°C | 0.6% | 53.6hPa | 2.6V | 18:12:15 | 01:39:03 | 00:00:00 | |
| HSKMA3-T | 2026-08-31 11:57:00 | 51.78727 | 8.07415 | 91° | 11km/h | 20554m | 4.6m/s | -52.2°C | 0.5% | 53.6hPa | 2.6V | 18:12:15 | 01:39:04 | 00:00:00 | |
| DO2JMG | 2026-08-31 11:57:00 | 51.78728 | 8.07420 | 83° | 9km/h | 20558m | 3.6m/s | -52.3°C | 0.6% | 53.6hPa | 2.6V | 18:12:15 | 01:39:05 | 00:00:00 | |
| DM0DOS-11 | 2026-08-31 11:56:59 | 51.78728 | 8.07410 | 94° | 15km/h | 20549m | 5.3m/s | -52.2°C | 3.8% | 53.6hPa | 2.6V | 08:30:00 | 01:39:03 | 00:00:00 | |
| DJ2DS-15 | 2026-08-31 11:56:59 | 51.78728 | 8.07410 | 94° | 13km/h | 20549m | 5.3m/s | -52.2°C | 1.1% | 53.6hPa | 2.7V | 00:00:00 | 00:00:00 | 00:00:00 | |
| BIOWL9-15 | 2026-08-31 11:56:58 | 51.78728 | 8.07404 | 94° | 16km/h | 20544m | 4.2m/s | -52.2°C | 1.1% | 53.6hPa | 2.7V | 00:00:00 | 00:00:00 | 00:00:00 | |
| DO1YAY-16 | 2026-08-31 11:56:57 | 51.78728 | 8.07404 | 94° | 16km/h | 20544m | 4.2m/s | -52.2°C | 1.1% | 53.6hPa | 2.7V | 00:00:00 | 00:00:00 | 00:00:00 | |
| DL1XH-15 | 2026-08-31 11:56:56 | 51.78728 | 8.07390 | 90° | 15km/h | 20535m | 5.4m/s | -52.2°C | 3.9% | 53.7hPa | 2.7V | 08:30:00 | 01:39:00 | 00:00:00 | |
| BIOWL1-15 | 2026-08-31 11:56:54 | 51.78728 | 8.07384 | 83° | 15km/h | 20530m | 4.5m/s | -52.2°C | 0.6% | 53.8hPa | 2.6V | 18:12:15 | 01:38:59 | 00:00:00 | |
| DO2JMG | 2026-08-31 11:56:50 | 51.78723 | 8.07355 | 67° | 22km/h | 20511m | 3.9m/s | -52.1°C | 0.5% | 53.9hPa | 2.7V | 18:12:15 | 01:38:55 | 00:00:00 | |
| DL1XH-west | 2026-08-31 11:56:49 | 51.78721 | 8.07347 | 64° | 20km/h | 20506m | 5m/s | -52.1°C | 0.5% | 54hPa | 2.7V | 18:12:15 | 01:38:54 | 00:00:00 | |
| HSKMA3-T | 2026-08-31 11:56:48 | 51.78719 | 8.07340 | 61° | 16km/h | 20501m | 4.9m/s | -52.1°C | 0.5% | 54hPa | 2.6V | 18:12:15 | 01:38:53 | 00:00:00 | |
| BUE01 | 2026-08-31 11:56:46 | 51.78715 | 8.07328 | 69° | 16km/h | 20492m | 5.3m/s | -52.2°C | 1.1% | 54.1hPa | 2.7V | 00:00:00 | 00:00:00 | 00:00:00 | |
| BIOWL1-15 | 2026-08-31 11:56:44 | 51.78713 | 8.07313 | 84° | 20km/h | 20483m | 4.1m/s | -52.2°C | 0.5% | 54.2hPa | 2.7V | 18:12:15 | 01:38:49 | 00:00:00 | |
| DO2JMG | 2026-08-31 11:56:39 | 51.78710 | 8.07271 | 82° | 27km/h | 20458m | 3.9m/s | -52.2°C | 0.6% | 54.4hPa | 2.7V | 18:12:15 | 01:38:44 | 00:00:00 | |
| HSKMA3-T | 2026-08-31 11:56:38 | 51.78709 | 8.07260 | 81° | 26km/h | 20454m | 4.3m/s | -52.2°C | 0.6% | 54.4hPa | 2.7V | 18:12:15 | 01:38:43 | 00:00:00 | |
| DL1XH1-15 | 2026-08-31 11:56:38 | 51.78706 | 8.07223 | 85° | 24km/h | 20435m | 5.4m/s | -52.2°C | 3.7% | 54.6hPa | 2.6V | 08:30:00 | 01:38:39 | 00:00:00 | |
| DL1XH-15 | 2026-08-31 11:56:36 | 51.78707 | 8.07232 | 84° | 22km/h | 20440m | 4.5m/s | -52.1°C | 3.8% | 54.5hPa | 2.6V | 08:30:00 | 01:38:40 | 00:00:00 | |
| BIOWL1-15 | 2026-08-31 11:56:36 | 51.78704 | 8.07189 | 83° | 18km/h | 20415m | 4.2m/s | -52.2°C | 0.5% | 54.7hPa | 2.6V | 18:12:15 | 01:38:35 | 00:00:00 | |
| AA1-15 | 2026-08-31 11:56:34 | 51.78706 | 8.07214 | 85° | 24km/h | 20430m | 4.5m/s | -52.3°C | 0.4% | 54.6hPa | 2.7V | 18:12:15 | 01:38:38 | 00:00:00 | |
| DJ2DS-15 | 2026-08-31 11:56:33 | 51.78706 | 8.07214 | 85° | 20km/h | 20430m | 4.4m/s | -52.2°C | 3.7% | 54.6hPa | 2.7V | 00:00:00 | 01:38:38 | 00:00:00 | |
| DB0NH | 2026-08-31 11:56:32 | 51.78705 | 8.07204 | 84° | 22km/h | 20425m | 5.3m/s | -52.3°C | 3.7% | 54.6hPa | 2.7V | 00:00:00 | 01:38:37 | 00:00:00 | |
| GOEST3-10 | 2026-08-31 11:56:31 | 51.78705 | 8.07196 | 84° | 20km/h | 20420m | 5.4m/s | -52.2°C | 3.7% | 54.7hPa | 2.7V | 00:00:00 | 00:00:00 | 00:00:00 | |
| HTAHTA | 2026-08-31 11:56:30 | 51.78704 | 8.07181 | 84° | 18km/h | 20410m | 5.7m/s | -52.2°C | 1.1% | 54.8hPa | 2.7V | 00:00:00 | 00:00:00 | 00:00:00 | |
| DL1NUX | 2026-08-31 11:56:29 | 51.78703 | 8.07149 | 89° | 18km/h | 20390m | 4.3m/s | -52.2°C | 3.7% | 55hPa | 2.7V | 08:30:00 | 01:38:30 | 00:00:00 | |
| DO2JMG | 2026-08-31 11:56:29 | 51.78704 | 8.07181 | 85° | 20km/h | 20410m | 5.7m/s | -52.2°C | 0.5% | 54.8hPa | 2.6V | 18:12:15 | 01:38:34 | 00:00:00 | |
| DL1XH-west | 2026-08-31 11:56:28 | 51.78703 | 8.07173 | 87° | 20km/h | 20405m | 4.7m/s | -52.1°C | 0.5% | 54.9hPa | 2.6V | 18:12:15 | 01:38:33 | 00:00:00 | |
| DL1XH1-15 | 2026-08-31 11:56:28 | 51.78703 | 8.07141 | 87° | 20km/h | 20385m | 4.6m/s | -52.2°C | 3.8% | 55hPa | 2.6V | 08:30:00 | 01:38:29 | 00:00:00 | |
| HSKMA3-T | 2026-08-31 11:56:27 | 51.78703 | 8.07164 | 89° | 20km/h | 20400m | 5m/s | -52.2°C | 0.5% | 54.9hPa | 2.7V | 18:12:15 | 01:38:32 | 00:00:00 | |
| BIOWL1-15 | 2026-08-31 11:56:23 | 51.78703 | 8.07133 | 86° | 24km/h | 20380m | 5.2m/s | -52.2°C | 0.6% | 55.1hPa | 2.6V | 18:12:15 | 01:38:28 | 00:00:00 | |
| DM0DOS-11 | 2026-08-31 11:56:23 | 51.78697 | 8.07088 | 72° | 20km/h | 20356m | 5.3m/s | -52.4°C | 3.8% | 55.2hPa | 2.6V | 08:30:00 | 01:38:23 | 00:00:00 | |
| AA1-15 | 2026-08-31 11:56:22 | 51.78702 | 8.07123 | 82° | 24km/h | 20376m | 4.2m/s | -52.2°C | 0.5% | 55.1hPa | 2.6V | 18:12:15 | 01:38:27 | 00:00:00 | |
| DO3MHA-11 | 2026-08-31 11:56:22 | 51.78702 | 8.07123 | 83° | 22km/h | 20376m | 4.2m/s | -52.2°C | 3.8% | 55.0hPa | 2.6V | 00:00:00 | 01:38:27 | 00:00:00 | |
| DJ2KF-10 | 2026-08-31 11:56:21 | 51.78701 | 8.07113 | 81° | 22km/h | 20371m | 5.0m/s | -52.2°C | 3.8% | 55.1hPa | 2.7V | 00:00:00 | 01:38:26 | 08:30:00 | |
| DL1XH1-15 | 2026-08-31 11:56:18 | 51.78691 | 8.07055 | 71° | 18km/h | 20337m | 4.9m/s | -52.6°C | 3.9% | 55.4hPa | 2.7V | 08:30:00 | 01:38:19 | 00:00:00 | |
| DO2JMG | 2026-08-31 11:56:18 | 51.78697 | 8.07088 | 72° | 20km/h | 20356m | 5.3m/s | -52.4°C | 0.5% | 55.2hPa | 2.6V | 18:12:15 | 01:38:23 | 00:00:00 | |
| DL1XH-west | 2026-08-31 11:56:17 | 51.78696 | 8.07080 | 73° | 22km/h | 20351m | 5m/s | -52.4°C | 0.5% | 55.3hPa | 2.6V | 18:12:15 | 01:38:22 | 00:00:00 | |
| HSKMA3-T | 2026-08-31 11:56:16 | 51.78694 | 8.07071 | 73° | 22km/h | 20346m | 4.1m/s | -52.5°C | 0.6% | 55.4hPa | 2.6V | 18:12:15 | 01:38:21 | 00:00:00 | |
| BIOWL1-15 | 2026-08-31 11:56:13 | 51.78689 | 8.07048 | 74° | 18km/h | 20332m | 4.1m/s | -52.6°C | 0.6% | 55.4hPa | 2.7V | 18:12:15 | 01:38:18 | 00:00:00 | |
| AA1-15 | 2026-08-31 11:56:11 | 51.78687 | 8.07033 | 81° | 22km/h | 20322m | 4.8m/s | -52.7°C | 0.6% | 55.5hPa | 2.6V | 18:12:15 | 01:38:16 | 00:00:00 | |
| DM0DOS-11 | 2026-08-31 11:56:11 | 51.78685 | 8.07006 | 76° | 20km/h | 20308m | 5.1m/s | -52.7°C | 4% | 55.6hPa | 2.7V | 08:30:00 | 01:38:13 | 00:00:00 | |
| SO1NDE-10 | 2026-08-31 11:56:11 | 51.78687 | 8.07032 | 82° | 26km/h | 20322m | 4.8m/s | -52.7°C | 3.9% | 55.5hPa | 2.6V | 00:00:00 | 01:38:16 | 00:00:00 | |
| DO9LL-15 | 2026-08-31 11:56:10 | 51.78686 | 8.07023 | 82° | 26km/h | 20318m | 4.2m/s | -52.6°C | 3.9% | 55.5hPa | 2.6V | 00:00:00 | 01:38:15 | 00:00:00 | |
| DL1XH1-15 | 2026-08-31 11:56:08 | 51.78676 | 8.06973 | 58° | 24km/h | 20288m | 4.5m/s | -52.6°C | 3.9% | 55.8hPa | 2.6V | 08:30:00 | 01:38:09 | 00:00:00 | |
| DO2JMG | 2026-08-31 11:56:08 | 51.78685 | 8.07006 | 76° | 20km/h | 20308m | 5.1m/s | -52.7°C | 0.7% | 55.6hPa | 2.7V | 18:12:15 | 01:38:13 | 00:00:00 | |
| DL1XH-west | 2026-08-31 11:56:07 | 51.78683 | 8.06998 | 71° | 20km/h | 20303m | 4.5m/s | -52.7°C | 0.7% | 55.7hPa | 2.7V | 18:12:15 | 01:38:12 | 00:00:00 | |
| HSKMA3-T | 2026-08-31 11:56:06 | 51.78681 | 8.06990 | 68° | 22km/h | 20298m | 5.5m/s | -52.6°C | 0.6% | 55.7hPa | 2.6V | 18:12:15 | 01:38:11 | 00:00:00 | |
| BIOWL1-15 | 2026-08-31 11:56:03 | 51.78668 | 8.06958 | 46° | 24km/h | 20278m | 4.6m/s | -52.6°C | 0.5% | 55.9hPa | 2.7V | 18:12:15 | 01:38:07 | 00:00:00 | |
| AA1-15 | 2026-08-31 11:56:00 | 51.78660 | 8.06943 | 50° | 26km/h | 20268m | 5m/s | -52.6°C | 0.5% | 56hPa | 2.6V | 18:12:15 | 01:38:05 | 00:00:00 | |
| DL8DAS-14 | 2026-08-31 11:56:00 | 51.78656 | 8.06935 | 51° | 24km/h | 20264m | 4.3m/s | -52.6°C | 1.1% | 56.1hPa | 2.6V | 00:00:00 | 00:00:00 | 00:00:00 | |
| DM0DOS-11 | 2026-08-31 11:55:59 | 51.78652 | 8.06928 | 49° | 24km/h | 20259m | 5.6m/s | -52.7°C | 3.8% | 56.1hPa | 2.6V | 08:30:00 | 01:38:03 | 00:00:00 | |
| HTAHTA | 2026-08-31 11:55:59 | 51.78648 | 8.06921 | 48° | 22km/h | 20254m | 4.8m/s | -52.7°C | 1.1% | 56.1hPa | 2.6V | 00:00:00 | 00:00:00 | 00:00:00 | |
| DL1XH1-15 | 2026-08-31 11:55:58 | 51.78638 | 8.06899 | 58° | 24km/h | 20239m | 3.8m/s | -52.6°C | 3.9% | 56.2hPa | 2.6V | 08:30:00 | 01:37:59 | 00:00:00 | |
| DO2JMG | 2026-08-31 11:55:57 | 51.78648 | 8.06921 | 48° | 22km/h | 20254m | 4.8m/s | -52.7°C | 0.6% | 56.1hPa | 2.7V | 18:12:15 | 01:38:02 | 00:00:00 | |
| HSKMA3-T | 2026-08-31 11:55:56 | 51.78641 | 8.06907 | 56° | 22km/h | 20244m | 5.3m/s | -52.7°C | 0.6% | 56.2hPa | 2.7V | 18:12:15 | 01:38:00 | 00:00:00 | |
| DD1CC3-15 | 2026-08-31 11:55:54 | 51.78641 | 8.06907 | 56° | 22km/h | 20244m | 5.3m/s | -52.7°C | 1.2% | 56.2hPa | 2.5V | 00:00:00 | 00:00:00 | 00:00:00 | |
| DM0DOS-11 | 2026-08-31 11:55:53 | 51.78613 | 8.06853 | 37° | 29km/h | 20212m | 4.7m/s | -52.6°C | 4% | 56.5hPa | 2.5V | 08:30:00 | 01:37:53 | 00:00:00 | |
| AA1-15 | 2026-08-31 11:55:50 | 51.78623 | 8.06868 | 47° | 26km/h | 20221m | 5.5m/s | -52.5°C | 0.6% | 56.4hPa | 2.7V | 18:12:15 | 01:37:55 | 00:00:00 | |
| DC4HF-4 | 2026-08-31 11:55:49 | 51.78618 | 8.06860 | 43° | 27km/h | 20216m | 3.9m/s | -52.5°C | 1.1% | 56.5hPa | 2.7V | 00:00:00 | 00:00:00 | 00:00:00 | |
| DJ8HS-15 | 2026-08-31 11:55:48 | 51.78613 | 8.06853 | 38° | 26km/h | 20212m | 4.7m/s | -52.6°C | 4.0% | 56.5hPa | 2.7V | 00:00:00 | 01:37:53 | 00:00:00 | |
| DL1XH-15 | 2026-08-31 11:55:46 | 51.78594 | 8.06835 | 26° | 29km/h | 20198m | 4.7m/s | -52.6°C | 4% | 56.6hPa | 2.7V | 08:30:00 | 01:37:50 | 00:00:00 | |
| DO2JMG | 2026-08-31 11:55:46 | 51.78600 | 8.06840 | 26° | 29km/h | 20202m | 3.8m/s | -52.7°C | 0.6% | 56.6hPa | 2.6V | 18:12:15 | 01:37:51 | 00:00:00 | |
| HSKMA3-T | 2026-08-31 11:55:45 | 51.78594 | 8.06835 | 26° | 29km/h | 20198m | 4.7m/s | -52.7°C | 0.6% | 56.6hPa | 2.7V | 18:12:15 | 01:37:50 | 00:00:00 | |
| DL3AQ-11 | 2026-08-31 11:55:45 | 51.78594 | 8.06835 | 26° | 29km/h | 20198m | 4.7m/s | -52.7°C | 1.1% | 56.6hPa | 2.6V | 00:00:00 | 00:00:00 | 00:00:00 | |
| BIOWL1-15 | 2026-08-31 11:55:40 | 51.78560 | 8.06806 | 23° | 29km/h | 20174m | 4.5m/s | -52.6°C | 0.6% | 56.8hPa | 2.6V | 18:12:15 | 01:37:45 | 00:00:00 | |
| AA1-15 | 2026-08-31 11:55:39 | 51.78548 | 8.06797 | 30° | 26km/h | 20165m | 4.9m/s | -52.6°C | 0.6% | 56.9hPa | 2.7V | 18:12:15 | 01:37:43 | 00:00:00 | |
| DM0DOS-11 | 2026-08-31 11:55:39 | 51.78548 | 8.06797 | 29° | 26km/h | 20165m | 4.9m/s | -52.6°C | 4% | 56.9hPa | 2.7V | 08:30:00 | 01:37:43 | 00:00:00 | |
| NBG1-10 | 2026-08-31 11:55:39 | 51.78554 | 8.06801 | 26° | 16km/h | 20170m | 5.0m/s | -52.6°C | 3.9% | 56.8hPa | 2.7V | 00:00:00 | 01:37:44 | 00:00:00 | |
| DL1XH1-15 | 2026-08-31 11:55:38 | 51.78527 | 8.06781 | 21° | 20km/h | 20145m | 4.4m/s | -52.5°C | 4% | 57.1hPa | 2.6V | 08:30:00 | 01:37:39 | 00:00:00 | |
| DL1XH-15 | 2026-08-31 11:55:36 | 51.78532 | 8.06784 | 20° | 20km/h | 20150m | 5.3m/s | -52.5°C | 3.9% | 57.1hPa | 2.6V | 08:30:00 | 01:37:40 | 00:00:00 | |
| DO2JMG | 2026-08-31 11:55:35 | 51.78532 | 8.06784 | 21° | 20km/h | 20150m | 5.4m/s | -52.5°C | 0.6% | 57.1hPa | 2.6V | 18:12:15 | 01:37:40 | 00:00:00 | |
| BIOWL1-15 | 2026-08-31 11:55:29 | 51.78504 | 8.06766 | 19° | 22km/h | 20120m | 4.8m/s | -52.4°C | 0.6% | 57.3hPa | 2.6V | 18:12:15 | 01:37:34 | 00:00:00 | |
| DL8DAS-14 | 2026-08-31 11:55:29 | 51.78499 | 8.06762 | 24° | 22km/h | 20115m | 5.6m/s | -52.2°C | 1.1% | 57.4hPa | 2.5V | 00:00:00 | 00:00:00 | 00:00:00 | |
| DL1XH1-15 | 2026-08-31 11:55:28 | 51.78479 | 8.06750 | 9° | 20km/h | 20095m | 4.3m/s | -52°C | 3.9% | 57.5hPa | 2.5V | 08:30:00 | 01:37:29 | 00:00:00 | |
| DL1LOL-11 | 2026-08-31 11:55:28 | 51.78499 | 8.06762 | 25° | 22km/h | 20115m | 5.6m/s | -52.2°C | 1.1% | 57.4hPa | 2.7V | 00:00:00 | 00:00:00 | 00:00:00 | |
| AA1-15 | 2026-08-31 11:55:27 | 51.78494 | 8.06759 | 26° | 22km/h | 20110m | 4.1m/s | -52.2°C | 0.6% | 57.4hPa | 2.7V | 18:12:15 | 01:37:32 | 00:00:00 | |
| DL1NUX | 2026-08-31 11:55:26 | 51.78484 | 8.06752 | 15° | 20km/h | 20100m | 5.4m/s | -52.1°C | 3.9% | 57.5hPa | 2.7V | 08:30:00 | 01:37:30 | 00:00:00 | |
| DO2JMG | 2026-08-31 11:55:25 | 51.78484 | 8.06752 | 16° | 20km/h | 20100m | 5.4m/s | -52.2°C | 0.6% | 57.5hPa | 2.7V | 18:12:15 | 01:37:30 | 00:00:00 | |
| DL1XH-west | 2026-08-31 11:55:25 | 51.78479 | 8.06750 | 10° | 20km/h | 20095m | 4.3m/s | -52.1°C | 0.6% | 57.5hPa | 2.5V | 18:12:15 | 01:37:29 | 00:00:00 | |
| BIOWL1-15 | 2026-08-31 11:55:19 | 51.78448 | 8.06725 | 37° | 16km/h | 20051m | 4.3m/s | -51.8°C | 0.6% | 57.9hPa | 2.7V | 18:12:15 | 01:37:20 | 00:00:00 | |
| DL1XH1-15 | 2026-08-31 11:55:18 | 51.78444 | 8.06721 | 32° | 16km/h | 20047m | 4.2m/s | -51.7°C | 3.8% | 58hPa | 2.7V | 08:30:00 | 01:37:19 | 00:00:00 | |
| AA1-15 | 2026-08-31 11:55:17 | 51.78451 | 8.06729 | 33° | 16km/h | 20056m | 5.8m/s | -51.9°C | 0.6% | 57.9hPa | 2.6V | 18:12:15 | 01:37:21 | 00:00:00 | |
| DL1NUX | 2026-08-31 11:55:16 | 51.78448 | 8.06725 | 36° | 16km/h | 20051m | 4.3m/s | -51.8°C | 3.9% | 57.9hPa | 2.7V | 08:30:00 | 01:37:20 | 00:00:00 | |
| DO2JMG | 2026-08-31 11:55:14 | 51.78444 | 8.06722 | 32° | 16km/h | 20047m | 4.2m/s | -51.7°C | 0.5% | 58hPa | 2.7V | 18:12:15 | 01:37:19 | 00:00:00 | |
| HSKMA3-T | 2026-08-31 11:55:13 | 51.78441 | 8.06718 | 26° | 15km/h | 20042m | 5.8m/s | -51.6°C | 0.5% | 58hPa | 2.7V | 18:12:15 | 01:37:18 | 00:00:00 | |
| DJ2DS-15 | 2026-08-31 11:55:13 | 51.78441 | 8.06718 | 27° | 13km/h | 20042m | 5.7m/s | -51.6°C | 3.8% | 58.0hPa | 2.6V | 00:00:00 | 01:37:18 | 00:00:00 | |
| DL1CLM-18 | 2026-08-31 11:55:12 | 51.78437 | 8.06716 | 23° | 15km/h | 20037m | 4.7m/s | -51.6°C | 1.1% | 58.0hPa | 2.6V | 00:00:00 | 00:00:00 | 00:00:00 | |
| SO1NDE-10 | 2026-08-31 11:55:11 | 51.78434 | 8.06714 | 24° | 11km/h | 20032m | 4.9m/s | -51.5°C | 3.8% | 58.0hPa | 2.6V | 00:00:00 | 01:37:16 | 00:00:00 | |
| DO9LL-15 | 2026-08-31 11:55:10 | 51.78431 | 8.06711 | 30° | 11km/h | 20027m | 5.3m/s | -51.5°C | 3.7% | 58.1hPa | 2.6V | 00:00:00 | 01:37:15 | 08:30:00 | |
| DO3MHA-12 | 2026-08-31 11:55:08 | 51.78424 | 8.06705 | 24° | 13km/h | 20017m | 5.7m/s | -51.4°C | 3.7% | 58.2hPa | 2.6V | 00:00:00 | 01:37:13 | 00:00:00 | |
| DL1XH-15 | 2026-08-31 11:55:06 | 51.78414 | 8.06700 | 20° | 15km/h | 20001m | 6.1m/s | -51.5°C | 3.7% | 58.3hPa | 2.6V | 08:30:00 | 01:37:10 | 00:00:00 | |
| AA1-15 | 2026-08-31 11:55:05 | 51.78414 | 8.06700 | 20° | 15km/h | 20002m | 6.1m/s | -51.5°C | 0.5% | 58.3hPa | 2.6V | 18:12:15 | 01:37:10 | 00:00:00 | |
| DO2JMG | 2026-08-31 11:55:03 | 51.78407 | 8.06695 | 31° | 15km/h | 19991m | 5m/s | -51.4°C | 0.5% | 58.5hPa | 2.7V | 18:12:15 | 01:37:08 | 00:00:00 | |
| HSKMA3-T | 2026-08-31 11:55:02 | 51.78404 | 8.06692 | 35° | 13km/h | 19985m | 5.5m/s | -51.2°C | 0.5% | 58.5hPa | 2.7V | 18:12:15 | 01:37:07 | 00:00:00 | |
| MET0W-2 | 2026-08-31 11:55:00 | 51.78401 | 8.06686 | 56° | 9km/h | 19976m | 4.8m/s | -51.0°C | 1.1% | 58.6hPa | 2.6V | 00:00:00 | 00:00:00 | 00:00:00 | |
| DM0DOS-11 | 2026-08-31 11:54:59 | 51.78397 | 8.06677 | 62° | 13km/h | 19965m | 4.6m/s | -51°C | 3.6% | 58.7hPa | 2.6V | 08:30:00 | 01:37:03 | 00:00:00 | |
| DL1XH1-15 | 2026-08-31 11:54:59 | 51.78392 | 8.06662 | 53° | 7km/h | 19941m | 5.6m/s | -51°C | 3.6% | 58.9hPa | 2.6V | 08:30:00 | 01:36:58 | 00:00:00 | |
| DL8DAS-14 | 2026-08-31 11:54:58 | 51.78396 | 8.06672 | 63° | 11km/h | 19961m | 5.0m/s | -51.0°C | 1.0% | 58.8hPa | 2.7V | 00:00:00 | 00:00:00 | 00:00:00 | |
| HTAHTA | 2026-08-31 11:54:57 | 51.78394 | 8.06666 | 56° | 5km/h | 19950m | 4.4m/s | -51.1°C | 1.1% | 58.9hPa | 2.7V | 00:00:00 | 00:00:00 | 00:00:00 | |
| DL1XH-15 | 2026-08-31 11:54:56 | 51.78394 | 8.06666 | 56° | 5km/h | 19950m | 4.4m/s | -51.1°C | 3.6% | 58.8hPa | 2.7V | 08:30:00 | 01:37:00 | 00:00:00 | |
| BIOWL1-15 | 2026-08-31 11:54:55 | 51.78388 | 8.06652 | 56° | 9km/h | 19921m | 4.3m/s | -50.9°C | 0.4% | 59.1hPa | 2.7V | 18:12:15 | 01:36:54 | 00:00:00 | |
| AA1-15 | 2026-08-31 11:54:55 | 51.78393 | 8.06664 | 54° | 5km/h | 19946m | 4.3m/s | -51.1°C | 0.5% | 58.9hPa | 2.6V | 18:12:15 | 01:36:59 | 00:00:00 | |
| DL3AQ-11 | 2026-08-31 11:54:54 | 51.78392 | 8.06662 | 53° | 7km/h | 19941m | 5.6m/s | -51.0°C | 1.1% | 58.9hPa | 2.6V | 00:00:00 | 00:00:00 | 00:00:00 | |
| DM0DOS-11 | 2026-08-31 11:54:53 | 51.78384 | 8.06644 | 53° | 15km/h | 19910m | 4.5m/s | -50.7°C | 3.5% | 59.2hPa | 2.6V | 08:30:00 | 01:36:52 | 00:00:00 | |
| DL1XH-west | 2026-08-31 11:54:53 | 51.78392 | 8.06662 | 54° | 7km/h | 19941m | 5.6m/s | -51°C | 0.4% | 58.9hPa | 2.6V | 18:12:15 | 01:36:58 | 00:00:00 | |
| DO2JMG | 2026-08-31 11:54:52 | 51.78391 | 8.06659 | 54° | 9km/h | 19936m | 4.6m/s | -50.9°C | 0.4% | 59hPa | 2.6V | 18:12:15 | 01:36:57 | 00:00:00 | |
| DF7PN | 2026-08-31 11:54:50 | 51.78388 | 8.06652 | 55° | 7km/h | 19921m | 4.3m/s | -50.9°C | 1.0% | 59.1hPa | 2.7V | 00:00:00 | 00:00:00 | 00:00:00 | |
| DL4XJ-10 | 2026-08-31 11:54:49 | 51.78387 | 8.06651 | 56° | 11km/h | 19921m | 4.2m/s | -50.1°C | 0% | 0hPa | 2.7V | 00:00:00 | 00:00:00 | 00:00:00 | |
| DL1XH1-15 | 2026-08-31 11:54:48 | 51.78378 | 8.06629 | 53° | 5km/h | 19891m | 4.4m/s | -50.6°C | 3.4% | 59.4hPa | 2.7V | 08:30:00 | 01:36:48 | 00:00:00 | |
| DJ8HS-15 | 2026-08-31 11:54:48 | 51.78386 | 8.06648 | 53° | 11km/h | 19916m | 5.9m/s | -50.8°C | 3.6% | 59.1hPa | 2.7V | 00:00:00 | 01:36:53 | 00:00:00 | |
| DL1XH-15 | 2026-08-31 11:54:46 | 51.78380 | 8.06635 | 58° | 11km/h | 19901m | 5.3m/s | -50.6°C | 3.5% | 59.3hPa | 2.7V | 08:30:00 | 01:36:50 | 00:00:00 | |
| AA1-15 | 2026-08-31 11:54:44 | 51.78379 | 8.06632 | 60° | 9km/h | 19896m | 4.9m/s | -50.6°C | 0.3% | 59.3hPa | 2.7V | 18:12:15 | 01:36:49 | 00:00:00 | |
| DO2JMG | 2026-08-31 11:54:42 | 51.78377 | 8.06627 | 38° | 7km/h | 19886m | 6.1m/s | -50.7°C | 0.4% | 59.4hPa | 2.6V | 18:12:15 | 01:36:47 | 00:00:00 | |
| BUE01 | 2026-08-31 11:54:42 | 51.78376 | 8.06626 | 34° | 5km/h | 19881m | 4.8m/s | -50.8°C | 1.0% | 59.5hPa | 2.7V | 00:00:00 | 00:00:00 | 00:00:00 | |
| SO1NDE-10 | 2026-08-31 11:54:41 | 51.78375 | 8.06626 | 35° | 16km/h | 19881m | 4.7m/s | -50.8°C | 3.5% | 59.4hPa | 2.7V | 00:00:00 | 01:36:46 | 00:00:00 | |
| DO9LL-15 | 2026-08-31 11:54:40 | 51.78374 | 8.06624 | 48° | 16km/h | 19876m | 4.3m/s | -50.8°C | 3.6% | 59.4hPa | 2.7V | 00:00:00 | 01:36:45 | 00:00:00 | |
| DL1XH1-15 | 2026-08-31 11:54:38 | 51.78373 | 8.06592 | 85° | 16km/h | 19842m | 5.6m/s | -50.9°C | 3.6% | 59.8hPa | 2.7V | 08:30:00 | 01:36:38 | 00:00:00 | |
| DL1XH-15 | 2026-08-31 11:54:38 | 51.78374 | 8.06605 | 81° | 16km/h | 19852m | 5m/s | -50.9°C | 3.6% | 59.7hPa | 2.6V | 08:30:00 | 01:36:40 | 00:00:00 | |
| AA1-15 | 2026-08-31 11:54:34 | 51.78373 | 8.06598 | 82° | 16km/h | 19847m | 4.2m/s | -50.9°C | 0.4% | 59.8hPa | 2.6V | 18:12:15 | 01:36:39 | 00:00:00 | |
| DO2JMG | 2026-08-31 11:54:32 | 51.78373 | 8.06585 | 91° | 15km/h | 19837m | 4.7m/s | -51°C | 0.4% | 59.9hPa | 2.7V | 18:12:15 | 01:36:37 | 00:00:00 | |
| DL1XH-west | 2026-08-31 11:54:31 | 51.78373 | 8.06579 | 87° | 13km/h | 19833m | 4.5m/s | -51°C | 0.5% | 59.9hPa | 2.7V | 18:12:15 | 01:36:36 | 00:00:00 | |
| BIOWL7-15 | 2026-08-31 11:54:31 | 51.78373 | 8.06579 | 88° | 13km/h | 19833m | 4.5m/s | -51.0°C | 1.1% | 59.9hPa | 2.6V | 00:00:00 | 00:00:00 | 00:00:00 | |
| DD1CC9-15 | 2026-08-31 11:54:30 | 51.78373 | 8.06574 | 79° | 13km/h | 19828m | 5.7m/s | -50.9°C | 1.1% | 60.0hPa | 2.6V | 00:00:00 | 00:00:00 | 00:00:00 | |
| DL4XJ-10 | 2026-08-31 11:54:29 | 51.78372 | 8.06570 | 73° | 18km/h | 19823m | 4.6m/s | -50.1°C | 0% | 0hPa | 2.6V | 00:00:00 | 00:00:00 | 00:00:00 | |
| DL1XH1-15 | 2026-08-31 11:54:28 | 51.78373 | 8.06541 | 81° | 20km/h | 19794m | 4.2m/s | -50.8°C | 3.6% | 60.3hPa | 2.6V | 08:30:00 | 01:36:28 | 00:00:00 | |
| AA1-15 | 2026-08-31 11:54:23 | 51.78372 | 8.06541 | 81° | 20km/h | 19794m | 4.2m/s | -50.8°C | 0.4% | 60.3hPa | 2.6V | 18:12:15 | 01:36:28 | 00:00:00 | |
| DM0DOS-11 | 2026-08-31 11:54:22 | 51.78366 | 8.06485 | 71° | 26km/h | 19766m | 5.4m/s | -50.9°C | 3.5% | 60.5hPa | 2.6V | 08:30:00 | 01:36:22 | 00:00:00 | |
| DO2JMG | 2026-08-31 11:54:22 | 51.78371 | 8.06533 | 78° | 24km/h | 19790m | 4m/s | -50.8°C | 0.4% | 60.3hPa | 2.6V | 18:12:15 | 01:36:27 | 00:00:00 | |
| DL1XH-west | 2026-08-31 11:54:21 | 51.78370 | 8.06523 | 81° | 24km/h | 19785m | 5.7m/s | -50.8°C | 0.4% | 60.4hPa | 2.7V | 18:12:15 | 01:36:26 | 00:00:00 | |
| DO3MHA-12 | 2026-08-31 11:54:21 | 51.78370 | 8.06523 | 81° | 22km/h | 19785m | 5.6m/s | -50.7°C | 3.5% | 60.3hPa | 2.7V | 00:00:00 | 01:36:26 | 00:00:00 | |
| DL1XH1-15 | 2026-08-31 11:54:18 | 51.78358 | 8.06451 | 69° | 18km/h | 19746m | 3.9m/s | -50.8°C | 3.5% | 60.7hPa | 2.7V | 08:30:00 | 01:36:18 | 00:00:00 | |
| AA1-15 | 2026-08-31 11:54:13 | 51.78356 | 8.06444 | 68° | 20km/h | 19742m | 5.4m/s | -50.8°C | 0.4% | 60.8hPa | 2.6V | 18:12:15 | 01:36:17 | 00:00:00 | |
| BIOWL1-15 | 2026-08-31 11:54:13 | 51.78350 | 8.06417 | 75° | 24km/h | 19726m | 5.5m/s | -50.7°C | 0.4% | 60.9hPa | 2.7V | 18:12:15 | 01:36:14 | 00:00:00 | |
| SMARD9-10 | 2026-08-31 11:54:13 | 51.78358 | 8.06451 | 70° | 18km/h | 19746m | 3.9m/s | -50.8°C | 1.0% | 60.7hPa | 2.7V | 00:00:00 | 00:00:00 | 00:00:00 | |
| DM0DOS-11 | 2026-08-31 11:54:12 | 51.78347 | 8.06397 | 77° | 27km/h | 19718m | 3.5m/s | -50.8°C | 3.5% | 61hPa | 2.7V | 08:30:00 | 01:36:12 | 00:00:00 | |
| DO2JMG | 2026-08-31 11:54:11 | 51.78354 | 8.06436 | 69° | 22km/h | 19736m | 4.6m/s | -50.8°C | 0.4% | 60.8hPa | 2.6V | 18:12:15 | 01:36:16 | 00:00:00 | |
| Es werden nur die letzten 3500 von 6363 Frames angezeigt. GPX/KML und Diagramme bleiben verfügbar. | |||||||||||||||